<?xml version="1.0" encoding="UTF-8" standalone="no" ?>
<gpx xmlns="http://www.topografix.com/GPX/1/1" xmlns:xsi="http://www.w3.org/2001/XMLSchema-instance" xsi:schemaLocation="http://www.topografix.com/GPX/1/1 http://www.topografix.com/GPX/1/1/gpx.xsd" version="1.1" creator="VisuGPX - https://www.visugpx.com">
  <metadata>
    <name>COL APPY</name>
    <desc><![CDATA[Trace AlpineQuest 23/03/2021 8:50:53 AM]]></desc>
  </metadata>
  <trk>
    <name><![CDATA[COL APPY_1]]></name>
    <trkseg>
      <trkpt lat="42.79167" lon="1.73278">
        <ele>969.829</ele>
        <time>2021-03-23T07:50:53Z</time>
      </trkpt>
      <trkpt lat="42.79171" lon="1.73275">
        <ele>988.086</ele>
        <time>2021-03-23T07:50:55Z</time>
      </trkpt>
      <trkpt lat="42.79166" lon="1.73278">
        <ele>990.018</ele>
        <time>2021-03-23T07:50:58Z</time>
      </trkpt>
      <trkpt lat="42.79166" lon="1.73279">
        <ele>995.063</ele>
        <time>2021-03-23T07:51:00Z</time>
      </trkpt>
      <trkpt lat="42.79166" lon="1.73279">
        <ele>994.072</ele>
        <time>2021-03-23T07:51:02Z</time>
      </trkpt>
      <trkpt lat="42.79165" lon="1.7328">
        <ele>995.488</ele>
        <time>2021-03-23T07:51:04Z</time>
      </trkpt>
      <trkpt lat="42.79163" lon="1.7328">
        <ele>993.011</ele>
        <time>2021-03-23T07:51:06Z</time>
      </trkpt>
      <trkpt lat="42.79161" lon="1.7328">
        <ele>992.612</ele>
        <time>2021-03-23T07:51:08Z</time>
      </trkpt>
      <trkpt lat="42.79161" lon="1.7328">
        <ele>991.692</ele>
        <time>2021-03-23T07:51:10Z</time>
      </trkpt>
      <trkpt lat="42.79161" lon="1.7328">
        <ele>991.57</ele>
        <time>2021-03-23T07:51:12Z</time>
      </trkpt>
      <trkpt lat="42.79161" lon="1.7328">
        <ele>991.12</ele>
        <time>2021-03-23T07:51:14Z</time>
      </trkpt>
      <trkpt lat="42.79161" lon="1.73279">
        <ele>991.364</ele>
        <time>2021-03-23T07:51:16Z</time>
      </trkpt>
      <trkpt lat="42.79161" lon="1.73279">
        <ele>991.799</ele>
        <time>2021-03-23T07:51:18Z</time>
      </trkpt>
      <trkpt lat="42.7916" lon="1.7328">
        <ele>991.59</ele>
        <time>2021-03-23T07:51:20Z</time>
      </trkpt>
      <trkpt lat="42.79161" lon="1.7328">
        <ele>990.396</ele>
        <time>2021-03-23T07:51:22Z</time>
      </trkpt>
      <trkpt lat="42.79161" lon="1.7328">
        <ele>990.546</ele>
        <time>2021-03-23T07:51:24Z</time>
      </trkpt>
      <trkpt lat="42.79162" lon="1.7328">
        <ele>990.718</ele>
        <time>2021-03-23T07:51:26Z</time>
      </trkpt>
      <trkpt lat="42.79163" lon="1.7328">
        <ele>990.973</ele>
        <time>2021-03-23T07:51:28Z</time>
      </trkpt>
      <trkpt lat="42.79164" lon="1.7328">
        <ele>990.705</ele>
        <time>2021-03-23T07:51:30Z</time>
      </trkpt>
      <trkpt lat="42.79164" lon="1.73281">
        <ele>990.845</ele>
        <time>2021-03-23T07:51:32Z</time>
      </trkpt>
      <trkpt lat="42.79164" lon="1.73281">
        <ele>991.788</ele>
        <time>2021-03-23T07:51:34Z</time>
      </trkpt>
      <trkpt lat="42.79164" lon="1.73281">
        <ele>991.574</ele>
        <time>2021-03-23T07:51:36Z</time>
      </trkpt>
      <trkpt lat="42.79164" lon="1.73281">
        <ele>991.638</ele>
        <time>2021-03-23T07:51:38Z</time>
      </trkpt>
      <trkpt lat="42.79164" lon="1.73281">
        <ele>992.127</ele>
        <time>2021-03-23T07:51:40Z</time>
      </trkpt>
      <trkpt lat="42.79164" lon="1.73283">
        <ele>992.638</ele>
        <time>2021-03-23T07:51:42Z</time>
      </trkpt>
      <trkpt lat="42.79165" lon="1.73283">
        <ele>992.572</ele>
        <time>2021-03-23T07:51:44Z</time>
      </trkpt>
      <trkpt lat="42.79165" lon="1.73283">
        <ele>992.05</ele>
        <time>2021-03-23T07:51:46Z</time>
      </trkpt>
      <trkpt lat="42.79166" lon="1.73282">
        <ele>992.227</ele>
        <time>2021-03-23T07:51:48Z</time>
      </trkpt>
      <trkpt lat="42.79166" lon="1.73282">
        <ele>992.37</ele>
        <time>2021-03-23T07:51:50Z</time>
      </trkpt>
      <trkpt lat="42.79166" lon="1.73282">
        <ele>991.532</ele>
        <time>2021-03-23T07:51:52Z</time>
      </trkpt>
      <trkpt lat="42.79165" lon="1.73281">
        <ele>990.825</ele>
        <time>2021-03-23T07:51:54Z</time>
      </trkpt>
      <trkpt lat="42.79164" lon="1.73281">
        <ele>991.054</ele>
        <time>2021-03-23T07:51:56Z</time>
      </trkpt>
      <trkpt lat="42.79163" lon="1.7328">
        <ele>990.229</ele>
        <time>2021-03-23T07:51:58Z</time>
      </trkpt>
      <trkpt lat="42.79163" lon="1.7328">
        <ele>990.399</ele>
        <time>2021-03-23T07:52:00Z</time>
      </trkpt>
      <trkpt lat="42.79163" lon="1.7328">
        <ele>990.806</ele>
        <time>2021-03-23T07:52:02Z</time>
      </trkpt>
      <trkpt lat="42.79163" lon="1.7328">
        <ele>991.08</ele>
        <time>2021-03-23T07:52:04Z</time>
      </trkpt>
      <trkpt lat="42.79163" lon="1.7328">
        <ele>991.067</ele>
        <time>2021-03-23T07:52:06Z</time>
      </trkpt>
      <trkpt lat="42.79163" lon="1.7328">
        <ele>991.067</ele>
        <time>2021-03-23T07:52:08Z</time>
      </trkpt>
      <trkpt lat="42.79163" lon="1.73281">
        <ele>991.917</ele>
        <time>2021-03-23T07:52:10Z</time>
      </trkpt>
      <trkpt lat="42.79163" lon="1.73281">
        <ele>991.647</ele>
        <time>2021-03-23T07:52:12Z</time>
      </trkpt>
      <trkpt lat="42.79163" lon="1.73281">
        <ele>991.424</ele>
        <time>2021-03-23T07:52:14Z</time>
      </trkpt>
      <trkpt lat="42.79163" lon="1.73281">
        <ele>991.346</ele>
        <time>2021-03-23T07:52:16Z</time>
      </trkpt>
      <trkpt lat="42.79163" lon="1.73281">
        <ele>991.372</ele>
        <time>2021-03-23T07:52:18Z</time>
      </trkpt>
      <trkpt lat="42.79163" lon="1.73281">
        <ele>991.172</ele>
        <time>2021-03-23T07:52:20Z</time>
      </trkpt>
      <trkpt lat="42.79163" lon="1.73281">
        <ele>991.539</ele>
        <time>2021-03-23T07:52:22Z</time>
      </trkpt>
      <trkpt lat="42.79163" lon="1.73282">
        <ele>992.095</ele>
        <time>2021-03-23T07:52:24Z</time>
      </trkpt>
      <trkpt lat="42.79163" lon="1.73282">
        <ele>992.452</ele>
        <time>2021-03-23T07:52:26Z</time>
      </trkpt>
      <trkpt lat="42.79163" lon="1.73282">
        <ele>992.584</ele>
        <time>2021-03-23T07:52:28Z</time>
      </trkpt>
      <trkpt lat="42.79163" lon="1.73282">
        <ele>992.15</ele>
        <time>2021-03-23T07:52:30Z</time>
      </trkpt>
      <trkpt lat="42.79164" lon="1.73281">
        <ele>992.557</ele>
        <time>2021-03-23T07:52:32Z</time>
      </trkpt>
      <trkpt lat="42.79163" lon="1.73281">
        <ele>992.274</ele>
        <time>2021-03-23T07:52:34Z</time>
      </trkpt>
      <trkpt lat="42.79163" lon="1.73281">
        <ele>991.93</ele>
        <time>2021-03-23T07:52:36Z</time>
      </trkpt>
      <trkpt lat="42.79163" lon="1.73281">
        <ele>992.519</ele>
        <time>2021-03-23T07:52:38Z</time>
      </trkpt>
      <trkpt lat="42.79163" lon="1.73281">
        <ele>992.38</ele>
        <time>2021-03-23T07:52:41Z</time>
      </trkpt>
      <trkpt lat="42.79163" lon="1.73281">
        <ele>992.291</ele>
        <time>2021-03-23T07:52:43Z</time>
      </trkpt>
      <trkpt lat="42.79163" lon="1.73281">
        <ele>992.217</ele>
        <time>2021-03-23T07:52:45Z</time>
      </trkpt>
      <trkpt lat="42.79163" lon="1.73282">
        <ele>992.24</ele>
        <time>2021-03-23T07:52:47Z</time>
      </trkpt>
      <trkpt lat="42.79163" lon="1.73282">
        <ele>992.241</ele>
        <time>2021-03-23T07:52:49Z</time>
      </trkpt>
      <trkpt lat="42.79163" lon="1.73282">
        <ele>992.245</ele>
        <time>2021-03-23T07:52:51Z</time>
      </trkpt>
      <trkpt lat="42.79163" lon="1.73282">
        <ele>992.249</ele>
        <time>2021-03-23T07:52:53Z</time>
      </trkpt>
      <trkpt lat="42.79163" lon="1.73282">
        <ele>992.25</ele>
        <time>2021-03-23T07:52:55Z</time>
      </trkpt>
      <trkpt lat="42.79163" lon="1.73282">
        <ele>992.254</ele>
        <time>2021-03-23T07:52:57Z</time>
      </trkpt>
      <trkpt lat="42.79163" lon="1.73282">
        <ele>992.254</ele>
        <time>2021-03-23T07:52:59Z</time>
      </trkpt>
      <trkpt lat="42.79163" lon="1.73282">
        <ele>992.253</ele>
        <time>2021-03-23T07:53:01Z</time>
      </trkpt>
      <trkpt lat="42.79163" lon="1.73282">
        <ele>992.254</ele>
        <time>2021-03-23T07:53:03Z</time>
      </trkpt>
      <trkpt lat="42.79163" lon="1.73282">
        <ele>992.257</ele>
        <time>2021-03-23T07:53:05Z</time>
      </trkpt>
      <trkpt lat="42.79163" lon="1.73282">
        <ele>992.261</ele>
        <time>2021-03-23T07:53:07Z</time>
      </trkpt>
      <trkpt lat="42.79163" lon="1.73282">
        <ele>992.263</ele>
        <time>2021-03-23T07:53:09Z</time>
      </trkpt>
      <trkpt lat="42.79163" lon="1.73282">
        <ele>992.263</ele>
        <time>2021-03-23T07:53:11Z</time>
      </trkpt>
      <trkpt lat="42.79163" lon="1.73282">
        <ele>992.258</ele>
        <time>2021-03-23T07:53:13Z</time>
      </trkpt>
      <trkpt lat="42.79163" lon="1.73282">
        <ele>992.258</ele>
        <time>2021-03-23T07:53:15Z</time>
      </trkpt>
      <trkpt lat="42.79163" lon="1.73282">
        <ele>992.261</ele>
        <time>2021-03-23T07:53:17Z</time>
      </trkpt>
      <trkpt lat="42.79163" lon="1.73282">
        <ele>992.262</ele>
        <time>2021-03-23T07:53:19Z</time>
      </trkpt>
      <trkpt lat="42.79163" lon="1.73282">
        <ele>992.263</ele>
        <time>2021-03-23T07:53:21Z</time>
      </trkpt>
      <trkpt lat="42.79163" lon="1.73282">
        <ele>992.262</ele>
        <time>2021-03-23T07:53:23Z</time>
      </trkpt>
      <trkpt lat="42.79163" lon="1.73282">
        <ele>992.255</ele>
        <time>2021-03-23T07:53:25Z</time>
      </trkpt>
      <trkpt lat="42.79163" lon="1.73282">
        <ele>992.247</ele>
        <time>2021-03-23T07:53:27Z</time>
      </trkpt>
      <trkpt lat="42.79163" lon="1.73282">
        <ele>992.244</ele>
        <time>2021-03-23T07:53:29Z</time>
      </trkpt>
      <trkpt lat="42.79163" lon="1.73282">
        <ele>992.245</ele>
        <time>2021-03-23T07:53:31Z</time>
      </trkpt>
      <trkpt lat="42.79163" lon="1.73282">
        <ele>992.248</ele>
        <time>2021-03-23T07:53:33Z</time>
      </trkpt>
      <trkpt lat="42.79164" lon="1.73282">
        <ele>992.248</ele>
        <time>2021-03-23T07:53:35Z</time>
      </trkpt>
      <trkpt lat="42.79164" lon="1.73282">
        <ele>992.252</ele>
        <time>2021-03-23T07:53:37Z</time>
      </trkpt>
      <trkpt lat="42.79163" lon="1.73282">
        <ele>992.26</ele>
        <time>2021-03-23T07:53:39Z</time>
      </trkpt>
      <trkpt lat="42.79163" lon="1.73282">
        <ele>992.268</ele>
        <time>2021-03-23T07:53:41Z</time>
      </trkpt>
      <trkpt lat="42.79164" lon="1.73282">
        <ele>992.258</ele>
        <time>2021-03-23T07:53:43Z</time>
      </trkpt>
      <trkpt lat="42.79163" lon="1.73282">
        <ele>992.256</ele>
        <time>2021-03-23T07:53:45Z</time>
      </trkpt>
      <trkpt lat="42.79164" lon="1.73282">
        <ele>992.253</ele>
        <time>2021-03-23T07:53:47Z</time>
      </trkpt>
      <trkpt lat="42.79164" lon="1.73282">
        <ele>992.253</ele>
        <time>2021-03-23T07:53:49Z</time>
      </trkpt>
      <trkpt lat="42.79164" lon="1.73282">
        <ele>992.254</ele>
        <time>2021-03-23T07:53:51Z</time>
      </trkpt>
      <trkpt lat="42.79164" lon="1.73282">
        <ele>992.252</ele>
        <time>2021-03-23T07:53:53Z</time>
      </trkpt>
      <trkpt lat="42.79164" lon="1.73282">
        <ele>992.253</ele>
        <time>2021-03-23T07:53:55Z</time>
      </trkpt>
      <trkpt lat="42.79164" lon="1.73282">
        <ele>993.15</ele>
        <time>2021-03-23T07:53:57Z</time>
      </trkpt>
      <trkpt lat="42.79163" lon="1.73283">
        <ele>992.439</ele>
        <time>2021-03-23T07:53:59Z</time>
      </trkpt>
      <trkpt lat="42.79163" lon="1.73283">
        <ele>992.991</ele>
        <time>2021-03-23T07:54:01Z</time>
      </trkpt>
      <trkpt lat="42.79164" lon="1.73283">
        <ele>992.964</ele>
        <time>2021-03-23T07:54:03Z</time>
      </trkpt>
      <trkpt lat="42.79163" lon="1.73282">
        <ele>993.651</ele>
        <time>2021-03-23T07:54:05Z</time>
      </trkpt>
      <trkpt lat="42.79163" lon="1.73283">
        <ele>993.788</ele>
        <time>2021-03-23T07:54:07Z</time>
      </trkpt>
      <trkpt lat="42.79163" lon="1.73282">
        <ele>993.712</ele>
        <time>2021-03-23T07:54:09Z</time>
      </trkpt>
      <trkpt lat="42.79163" lon="1.73282">
        <ele>993.985</ele>
        <time>2021-03-23T07:54:11Z</time>
      </trkpt>
      <trkpt lat="42.79163" lon="1.73282">
        <ele>993.581</ele>
        <time>2021-03-23T07:54:13Z</time>
      </trkpt>
      <trkpt lat="42.79164" lon="1.73282">
        <ele>994.393</ele>
        <time>2021-03-23T07:54:15Z</time>
      </trkpt>
      <trkpt lat="42.79164" lon="1.73283">
        <ele>994.755</ele>
        <time>2021-03-23T07:54:17Z</time>
      </trkpt>
      <trkpt lat="42.79164" lon="1.73283">
        <ele>995.055</ele>
        <time>2021-03-23T07:54:19Z</time>
      </trkpt>
      <trkpt lat="42.79164" lon="1.73283">
        <ele>995.13</ele>
        <time>2021-03-23T07:54:21Z</time>
      </trkpt>
      <trkpt lat="42.79164" lon="1.73283">
        <ele>994.999</ele>
        <time>2021-03-23T07:54:23Z</time>
      </trkpt>
      <trkpt lat="42.79165" lon="1.73283">
        <ele>994.753</ele>
        <time>2021-03-23T07:54:25Z</time>
      </trkpt>
      <trkpt lat="42.79165" lon="1.73284">
        <ele>995.218</ele>
        <time>2021-03-23T07:54:27Z</time>
      </trkpt>
      <trkpt lat="42.79164" lon="1.73284">
        <ele>994.967</ele>
        <time>2021-03-23T07:54:29Z</time>
      </trkpt>
      <trkpt lat="42.79164" lon="1.73284">
        <ele>994.866</ele>
        <time>2021-03-23T07:54:31Z</time>
      </trkpt>
      <trkpt lat="42.79164" lon="1.73283">
        <ele>994.727</ele>
        <time>2021-03-23T07:54:33Z</time>
      </trkpt>
      <trkpt lat="42.79164" lon="1.73284">
        <ele>995.411</ele>
        <time>2021-03-23T07:54:35Z</time>
      </trkpt>
      <trkpt lat="42.79164" lon="1.73284">
        <ele>995.536</ele>
        <time>2021-03-23T07:54:37Z</time>
      </trkpt>
      <trkpt lat="42.79164" lon="1.73284">
        <ele>995.569</ele>
        <time>2021-03-23T07:54:39Z</time>
      </trkpt>
      <trkpt lat="42.79164" lon="1.73284">
        <ele>995.57</ele>
        <time>2021-03-23T07:54:41Z</time>
      </trkpt>
      <trkpt lat="42.79164" lon="1.73284">
        <ele>995.573</ele>
        <time>2021-03-23T07:54:43Z</time>
      </trkpt>
      <trkpt lat="42.79164" lon="1.73284">
        <ele>995.574</ele>
        <time>2021-03-23T07:54:45Z</time>
      </trkpt>
      <trkpt lat="42.79164" lon="1.73284">
        <ele>995.557</ele>
        <time>2021-03-23T07:54:47Z</time>
      </trkpt>
      <trkpt lat="42.79164" lon="1.73284">
        <ele>995.572</ele>
        <time>2021-03-23T07:54:49Z</time>
      </trkpt>
      <trkpt lat="42.79164" lon="1.73284">
        <ele>995.563</ele>
        <time>2021-03-23T07:54:51Z</time>
      </trkpt>
      <trkpt lat="42.79164" lon="1.73283">
        <ele>995.506</ele>
        <time>2021-03-23T07:54:53Z</time>
      </trkpt>
      <trkpt lat="42.79164" lon="1.73283">
        <ele>995.525</ele>
        <time>2021-03-23T07:54:55Z</time>
      </trkpt>
      <trkpt lat="42.79164" lon="1.73282">
        <ele>995.741</ele>
        <time>2021-03-23T07:54:57Z</time>
      </trkpt>
      <trkpt lat="42.79164" lon="1.73282">
        <ele>994.564</ele>
        <time>2021-03-23T07:54:59Z</time>
      </trkpt>
      <trkpt lat="42.79164" lon="1.73281">
        <ele>993.916</ele>
        <time>2021-03-23T07:55:01Z</time>
      </trkpt>
      <trkpt lat="42.79165" lon="1.73281">
        <ele>994.01</ele>
        <time>2021-03-23T07:55:03Z</time>
      </trkpt>
      <trkpt lat="42.79165" lon="1.73281">
        <ele>994.519</ele>
        <time>2021-03-23T07:55:05Z</time>
      </trkpt>
      <trkpt lat="42.79166" lon="1.73281">
        <ele>994.729</ele>
        <time>2021-03-23T07:55:07Z</time>
      </trkpt>
      <trkpt lat="42.79166" lon="1.73281">
        <ele>994.75</ele>
        <time>2021-03-23T07:55:09Z</time>
      </trkpt>
      <trkpt lat="42.79166" lon="1.73281">
        <ele>993.493</ele>
        <time>2021-03-23T07:55:11Z</time>
      </trkpt>
      <trkpt lat="42.79165" lon="1.73282">
        <ele>991.712</ele>
        <time>2021-03-23T07:55:13Z</time>
      </trkpt>
      <trkpt lat="42.79165" lon="1.73282">
        <ele>991.797</ele>
        <time>2021-03-23T07:55:15Z</time>
      </trkpt>
      <trkpt lat="42.79165" lon="1.73282">
        <ele>991.821</ele>
        <time>2021-03-23T07:55:17Z</time>
      </trkpt>
      <trkpt lat="42.79165" lon="1.73282">
        <ele>991.829</ele>
        <time>2021-03-23T07:55:19Z</time>
      </trkpt>
      <trkpt lat="42.79165" lon="1.73282">
        <ele>992.011</ele>
        <time>2021-03-23T07:55:21Z</time>
      </trkpt>
      <trkpt lat="42.79165" lon="1.73281">
        <ele>992.146</ele>
        <time>2021-03-23T07:55:23Z</time>
      </trkpt>
      <trkpt lat="42.79165" lon="1.73281">
        <ele>992.166</ele>
        <time>2021-03-23T07:55:25Z</time>
      </trkpt>
      <trkpt lat="42.79165" lon="1.73281">
        <ele>992.19</ele>
        <time>2021-03-23T07:55:27Z</time>
      </trkpt>
      <trkpt lat="42.79165" lon="1.73281">
        <ele>992.199</ele>
        <time>2021-03-23T07:55:29Z</time>
      </trkpt>
      <trkpt lat="42.79165" lon="1.73281">
        <ele>992.195</ele>
        <time>2021-03-23T07:55:31Z</time>
      </trkpt>
      <trkpt lat="42.79165" lon="1.73281">
        <ele>992.213</ele>
        <time>2021-03-23T07:55:33Z</time>
      </trkpt>
      <trkpt lat="42.79165" lon="1.73281">
        <ele>992.218</ele>
        <time>2021-03-23T07:55:35Z</time>
      </trkpt>
      <trkpt lat="42.79165" lon="1.73281">
        <ele>992.228</ele>
        <time>2021-03-23T07:55:37Z</time>
      </trkpt>
      <trkpt lat="42.79165" lon="1.73281">
        <ele>992.231</ele>
        <time>2021-03-23T07:55:39Z</time>
      </trkpt>
      <trkpt lat="42.79165" lon="1.73281">
        <ele>992.245</ele>
        <time>2021-03-23T07:55:41Z</time>
      </trkpt>
      <trkpt lat="42.79165" lon="1.73281">
        <ele>992.245</ele>
        <time>2021-03-23T07:55:43Z</time>
      </trkpt>
      <trkpt lat="42.79165" lon="1.73281">
        <ele>992.24</ele>
        <time>2021-03-23T07:55:45Z</time>
      </trkpt>
      <trkpt lat="42.79165" lon="1.73281">
        <ele>992.236</ele>
        <time>2021-03-23T07:55:47Z</time>
      </trkpt>
      <trkpt lat="42.79165" lon="1.73281">
        <ele>992.245</ele>
        <time>2021-03-23T07:55:49Z</time>
      </trkpt>
      <trkpt lat="42.79165" lon="1.73281">
        <ele>992.255</ele>
        <time>2021-03-23T07:55:51Z</time>
      </trkpt>
      <trkpt lat="42.79165" lon="1.73281">
        <ele>992.691</ele>
        <time>2021-03-23T07:55:53Z</time>
      </trkpt>
      <trkpt lat="42.79165" lon="1.73281">
        <ele>992.213</ele>
        <time>2021-03-23T07:55:55Z</time>
      </trkpt>
      <trkpt lat="42.79165" lon="1.73281">
        <ele>991.529</ele>
        <time>2021-03-23T07:55:57Z</time>
      </trkpt>
      <trkpt lat="42.79165" lon="1.73281">
        <ele>991.58</ele>
        <time>2021-03-23T07:55:59Z</time>
      </trkpt>
      <trkpt lat="42.79165" lon="1.7328">
        <ele>992.34</ele>
        <time>2021-03-23T07:56:01Z</time>
      </trkpt>
      <trkpt lat="42.79164" lon="1.73281">
        <ele>992.571</ele>
        <time>2021-03-23T07:56:03Z</time>
      </trkpt>
      <trkpt lat="42.79164" lon="1.73281">
        <ele>992.536</ele>
        <time>2021-03-23T07:56:05Z</time>
      </trkpt>
      <trkpt lat="42.79165" lon="1.73281">
        <ele>992.557</ele>
        <time>2021-03-23T07:56:07Z</time>
      </trkpt>
      <trkpt lat="42.79165" lon="1.73281">
        <ele>992.576</ele>
        <time>2021-03-23T07:56:09Z</time>
      </trkpt>
      <trkpt lat="42.79164" lon="1.73281">
        <ele>992.695</ele>
        <time>2021-03-23T07:56:11Z</time>
      </trkpt>
      <trkpt lat="42.79164" lon="1.7328">
        <ele>992.897</ele>
        <time>2021-03-23T07:56:13Z</time>
      </trkpt>
      <trkpt lat="42.79164" lon="1.7328">
        <ele>992.876</ele>
        <time>2021-03-23T07:56:15Z</time>
      </trkpt>
      <trkpt lat="42.79165" lon="1.73279">
        <ele>992.572</ele>
        <time>2021-03-23T07:56:17Z</time>
      </trkpt>
      <trkpt lat="42.79166" lon="1.73279">
        <ele>992.69</ele>
        <time>2021-03-23T07:56:19Z</time>
      </trkpt>
      <trkpt lat="42.79167" lon="1.73278">
        <ele>993.053</ele>
        <time>2021-03-23T07:56:21Z</time>
      </trkpt>
      <trkpt lat="42.79168" lon="1.73278">
        <ele>992.527</ele>
        <time>2021-03-23T07:56:23Z</time>
      </trkpt>
      <trkpt lat="42.7917" lon="1.73277">
        <ele>992.949</ele>
        <time>2021-03-23T07:56:25Z</time>
      </trkpt>
      <trkpt lat="42.79171" lon="1.73277">
        <ele>992.809</ele>
        <time>2021-03-23T07:56:27Z</time>
      </trkpt>
      <trkpt lat="42.79172" lon="1.73277">
        <ele>992.701</ele>
        <time>2021-03-23T07:56:29Z</time>
      </trkpt>
      <trkpt lat="42.79173" lon="1.73277">
        <ele>993.193</ele>
        <time>2021-03-23T07:56:31Z</time>
      </trkpt>
      <trkpt lat="42.79173" lon="1.73276">
        <ele>993.469</ele>
        <time>2021-03-23T07:56:33Z</time>
      </trkpt>
      <trkpt lat="42.79174" lon="1.73276">
        <ele>995.4</ele>
        <time>2021-03-23T07:56:35Z</time>
      </trkpt>
      <trkpt lat="42.79176" lon="1.73275">
        <ele>994.903</ele>
        <time>2021-03-23T07:56:37Z</time>
      </trkpt>
      <trkpt lat="42.79177" lon="1.73274">
        <ele>995.823</ele>
        <time>2021-03-23T07:56:39Z</time>
      </trkpt>
      <trkpt lat="42.79179" lon="1.73274">
        <ele>995.601</ele>
        <time>2021-03-23T07:56:41Z</time>
      </trkpt>
      <trkpt lat="42.7918" lon="1.73274">
        <ele>995.63</ele>
        <time>2021-03-23T07:56:43Z</time>
      </trkpt>
      <trkpt lat="42.79181" lon="1.73274">
        <ele>993.944</ele>
        <time>2021-03-23T07:56:45Z</time>
      </trkpt>
      <trkpt lat="42.79182" lon="1.73276">
        <ele>995.126</ele>
        <time>2021-03-23T07:56:47Z</time>
      </trkpt>
      <trkpt lat="42.79184" lon="1.73276">
        <ele>995.192</ele>
        <time>2021-03-23T07:56:49Z</time>
      </trkpt>
      <trkpt lat="42.79184" lon="1.73276">
        <ele>994.809</ele>
        <time>2021-03-23T07:56:50Z</time>
      </trkpt>
      <trkpt lat="42.79184" lon="1.73275">
        <ele>993.803</ele>
        <time>2021-03-23T07:56:53Z</time>
      </trkpt>
      <trkpt lat="42.79184" lon="1.73276">
        <ele>993.288</ele>
        <time>2021-03-23T07:56:55Z</time>
      </trkpt>
      <trkpt lat="42.79184" lon="1.73277">
        <ele>993.51</ele>
        <time>2021-03-23T07:56:57Z</time>
      </trkpt>
      <trkpt lat="42.79185" lon="1.73278">
        <ele>993.368</ele>
        <time>2021-03-23T07:56:59Z</time>
      </trkpt>
      <trkpt lat="42.79186" lon="1.73281">
        <ele>994.172</ele>
        <time>2021-03-23T07:57:01Z</time>
      </trkpt>
      <trkpt lat="42.79186" lon="1.73283">
        <ele>994.646</ele>
        <time>2021-03-23T07:57:03Z</time>
      </trkpt>
      <trkpt lat="42.79187" lon="1.73285">
        <ele>995.259</ele>
        <time>2021-03-23T07:57:05Z</time>
      </trkpt>
      <trkpt lat="42.79189" lon="1.73286">
        <ele>995.28</ele>
        <time>2021-03-23T07:57:07Z</time>
      </trkpt>
      <trkpt lat="42.7919" lon="1.73288">
        <ele>995.45</ele>
        <time>2021-03-23T07:57:09Z</time>
      </trkpt>
      <trkpt lat="42.79191" lon="1.7329">
        <ele>995.522</ele>
        <time>2021-03-23T07:57:11Z</time>
      </trkpt>
      <trkpt lat="42.79191" lon="1.73292">
        <ele>995.391</ele>
        <time>2021-03-23T07:57:13Z</time>
      </trkpt>
      <trkpt lat="42.79192" lon="1.73294">
        <ele>994.648</ele>
        <time>2021-03-23T07:57:15Z</time>
      </trkpt>
      <trkpt lat="42.79193" lon="1.73297">
        <ele>994.953</ele>
        <time>2021-03-23T07:57:17Z</time>
      </trkpt>
      <trkpt lat="42.79193" lon="1.733">
        <ele>994.473</ele>
        <time>2021-03-23T07:57:19Z</time>
      </trkpt>
      <trkpt lat="42.79193" lon="1.73303">
        <ele>994.321</ele>
        <time>2021-03-23T07:57:21Z</time>
      </trkpt>
      <trkpt lat="42.79193" lon="1.73305">
        <ele>994.436</ele>
        <time>2021-03-23T07:57:23Z</time>
      </trkpt>
      <trkpt lat="42.79194" lon="1.73307">
        <ele>993.95</ele>
        <time>2021-03-23T07:57:25Z</time>
      </trkpt>
      <trkpt lat="42.79195" lon="1.73309">
        <ele>994.766</ele>
        <time>2021-03-23T07:57:27Z</time>
      </trkpt>
      <trkpt lat="42.79195" lon="1.73311">
        <ele>994.804</ele>
        <time>2021-03-23T07:57:29Z</time>
      </trkpt>
      <trkpt lat="42.79196" lon="1.73312">
        <ele>995.136</ele>
        <time>2021-03-23T07:57:30Z</time>
      </trkpt>
      <trkpt lat="42.79197" lon="1.73317">
        <ele>995.18</ele>
        <time>2021-03-23T07:57:33Z</time>
      </trkpt>
      <trkpt lat="42.79198" lon="1.7332">
        <ele>994.536</ele>
        <time>2021-03-23T07:57:35Z</time>
      </trkpt>
      <trkpt lat="42.79198" lon="1.73322">
        <ele>994.082</ele>
        <time>2021-03-23T07:57:37Z</time>
      </trkpt>
      <trkpt lat="42.79199" lon="1.73325">
        <ele>993.998</ele>
        <time>2021-03-23T07:57:39Z</time>
      </trkpt>
      <trkpt lat="42.792" lon="1.73327">
        <ele>995.14</ele>
        <time>2021-03-23T07:57:41Z</time>
      </trkpt>
      <trkpt lat="42.79202" lon="1.73329">
        <ele>995.194</ele>
        <time>2021-03-23T07:57:43Z</time>
      </trkpt>
      <trkpt lat="42.79203" lon="1.7333">
        <ele>994.525</ele>
        <time>2021-03-23T07:57:45Z</time>
      </trkpt>
      <trkpt lat="42.79204" lon="1.73332">
        <ele>994.372</ele>
        <time>2021-03-23T07:57:47Z</time>
      </trkpt>
      <trkpt lat="42.79205" lon="1.73334">
        <ele>994.511</ele>
        <time>2021-03-23T07:57:49Z</time>
      </trkpt>
      <trkpt lat="42.79207" lon="1.73336">
        <ele>994.756</ele>
        <time>2021-03-23T07:57:51Z</time>
      </trkpt>
      <trkpt lat="42.79208" lon="1.73338">
        <ele>993.658</ele>
        <time>2021-03-23T07:57:53Z</time>
      </trkpt>
      <trkpt lat="42.79209" lon="1.73341">
        <ele>994.487</ele>
        <time>2021-03-23T07:57:55Z</time>
      </trkpt>
      <trkpt lat="42.7921" lon="1.73343">
        <ele>994.462</ele>
        <time>2021-03-23T07:57:57Z</time>
      </trkpt>
      <trkpt lat="42.79211" lon="1.73345">
        <ele>995.495</ele>
        <time>2021-03-23T07:57:59Z</time>
      </trkpt>
      <trkpt lat="42.79212" lon="1.73347">
        <ele>994.35</ele>
        <time>2021-03-23T07:58:01Z</time>
      </trkpt>
      <trkpt lat="42.79213" lon="1.73349">
        <ele>994.552</ele>
        <time>2021-03-23T07:58:03Z</time>
      </trkpt>
      <trkpt lat="42.79214" lon="1.73352">
        <ele>996.237</ele>
        <time>2021-03-23T07:58:05Z</time>
      </trkpt>
      <trkpt lat="42.79216" lon="1.73354">
        <ele>996.117</ele>
        <time>2021-03-23T07:58:07Z</time>
      </trkpt>
      <trkpt lat="42.79218" lon="1.73355">
        <ele>997.619</ele>
        <time>2021-03-23T07:58:09Z</time>
      </trkpt>
      <trkpt lat="42.79219" lon="1.73357">
        <ele>997.704</ele>
        <time>2021-03-23T07:58:11Z</time>
      </trkpt>
      <trkpt lat="42.7922" lon="1.73359">
        <ele>997.17</ele>
        <time>2021-03-23T07:58:13Z</time>
      </trkpt>
      <trkpt lat="42.79221" lon="1.7336">
        <ele>997.889</ele>
        <time>2021-03-23T07:58:15Z</time>
      </trkpt>
      <trkpt lat="42.79223" lon="1.7336">
        <ele>997.511</ele>
        <time>2021-03-23T07:58:17Z</time>
      </trkpt>
      <trkpt lat="42.79224" lon="1.73363">
        <ele>997.794</ele>
        <time>2021-03-23T07:58:19Z</time>
      </trkpt>
      <trkpt lat="42.79225" lon="1.73366">
        <ele>998.777</ele>
        <time>2021-03-23T07:58:21Z</time>
      </trkpt>
      <trkpt lat="42.79227" lon="1.73368">
        <ele>999.964</ele>
        <time>2021-03-23T07:58:23Z</time>
      </trkpt>
      <trkpt lat="42.79229" lon="1.7337">
        <ele>999.378</ele>
        <time>2021-03-23T07:58:25Z</time>
      </trkpt>
      <trkpt lat="42.7923" lon="1.73371">
        <ele>1000.034</ele>
        <time>2021-03-23T07:58:27Z</time>
      </trkpt>
      <trkpt lat="42.79232" lon="1.73373">
        <ele>999.227</ele>
        <time>2021-03-23T07:58:29Z</time>
      </trkpt>
      <trkpt lat="42.79233" lon="1.73375">
        <ele>1000.098</ele>
        <time>2021-03-23T07:58:31Z</time>
      </trkpt>
      <trkpt lat="42.79235" lon="1.73376">
        <ele>1001.272</ele>
        <time>2021-03-23T07:58:33Z</time>
      </trkpt>
      <trkpt lat="42.79236" lon="1.73378">
        <ele>1000.013</ele>
        <time>2021-03-23T07:58:35Z</time>
      </trkpt>
      <trkpt lat="42.79238" lon="1.7338">
        <ele>1001.084</ele>
        <time>2021-03-23T07:58:37Z</time>
      </trkpt>
      <trkpt lat="42.79239" lon="1.73382">
        <ele>1000.896</ele>
        <time>2021-03-23T07:58:39Z</time>
      </trkpt>
      <trkpt lat="42.7924" lon="1.73384">
        <ele>1000.951</ele>
        <time>2021-03-23T07:58:41Z</time>
      </trkpt>
      <trkpt lat="42.79242" lon="1.73386">
        <ele>1000.507</ele>
        <time>2021-03-23T07:58:43Z</time>
      </trkpt>
      <trkpt lat="42.79244" lon="1.73387">
        <ele>1000.6</ele>
        <time>2021-03-23T07:58:45Z</time>
      </trkpt>
      <trkpt lat="42.79245" lon="1.73389">
        <ele>1002.103</ele>
        <time>2021-03-23T07:58:47Z</time>
      </trkpt>
      <trkpt lat="42.79247" lon="1.7339">
        <ele>1002.005</ele>
        <time>2021-03-23T07:58:49Z</time>
      </trkpt>
      <trkpt lat="42.79249" lon="1.73391">
        <ele>1002.942</ele>
        <time>2021-03-23T07:58:51Z</time>
      </trkpt>
      <trkpt lat="42.79251" lon="1.73392">
        <ele>1003.116</ele>
        <time>2021-03-23T07:58:53Z</time>
      </trkpt>
      <trkpt lat="42.79253" lon="1.73393">
        <ele>1003.284</ele>
        <time>2021-03-23T07:58:55Z</time>
      </trkpt>
      <trkpt lat="42.79254" lon="1.73394">
        <ele>1003.809</ele>
        <time>2021-03-23T07:58:57Z</time>
      </trkpt>
      <trkpt lat="42.79256" lon="1.73393">
        <ele>1004.085</ele>
        <time>2021-03-23T07:58:59Z</time>
      </trkpt>
      <trkpt lat="42.79258" lon="1.73394">
        <ele>1004.066</ele>
        <time>2021-03-23T07:59:01Z</time>
      </trkpt>
      <trkpt lat="42.7926" lon="1.73394">
        <ele>1004.349</ele>
        <time>2021-03-23T07:59:03Z</time>
      </trkpt>
      <trkpt lat="42.79262" lon="1.73394">
        <ele>1004.332</ele>
        <time>2021-03-23T07:59:05Z</time>
      </trkpt>
      <trkpt lat="42.79263" lon="1.73394">
        <ele>1004.828</ele>
        <time>2021-03-23T07:59:07Z</time>
      </trkpt>
      <trkpt lat="42.79265" lon="1.73394">
        <ele>1005.241</ele>
        <time>2021-03-23T07:59:09Z</time>
      </trkpt>
      <trkpt lat="42.79267" lon="1.73395">
        <ele>1004.72</ele>
        <time>2021-03-23T07:59:11Z</time>
      </trkpt>
      <trkpt lat="42.79269" lon="1.73395">
        <ele>1005.402</ele>
        <time>2021-03-23T07:59:13Z</time>
      </trkpt>
      <trkpt lat="42.7927" lon="1.73395">
        <ele>1006.543</ele>
        <time>2021-03-23T07:59:15Z</time>
      </trkpt>
      <trkpt lat="42.79272" lon="1.73396">
        <ele>1007.864</ele>
        <time>2021-03-23T07:59:17Z</time>
      </trkpt>
      <trkpt lat="42.79274" lon="1.73396">
        <ele>1008.704</ele>
        <time>2021-03-23T07:59:19Z</time>
      </trkpt>
      <trkpt lat="42.79276" lon="1.73397">
        <ele>1008.3</ele>
        <time>2021-03-23T07:59:21Z</time>
      </trkpt>
      <trkpt lat="42.79278" lon="1.73397">
        <ele>1008.474</ele>
        <time>2021-03-23T07:59:23Z</time>
      </trkpt>
      <trkpt lat="42.7928" lon="1.73398">
        <ele>1010.163</ele>
        <time>2021-03-23T07:59:25Z</time>
      </trkpt>
      <trkpt lat="42.79281" lon="1.73398">
        <ele>1011.9</ele>
        <time>2021-03-23T07:59:27Z</time>
      </trkpt>
      <trkpt lat="42.79283" lon="1.73399">
        <ele>1012.338</ele>
        <time>2021-03-23T07:59:29Z</time>
      </trkpt>
      <trkpt lat="42.79284" lon="1.73399">
        <ele>1012.648</ele>
        <time>2021-03-23T07:59:31Z</time>
      </trkpt>
      <trkpt lat="42.79286" lon="1.734">
        <ele>1012.66</ele>
        <time>2021-03-23T07:59:33Z</time>
      </trkpt>
      <trkpt lat="42.79287" lon="1.73402">
        <ele>1012.559</ele>
        <time>2021-03-23T07:59:35Z</time>
      </trkpt>
      <trkpt lat="42.79288" lon="1.73404">
        <ele>1012.759</ele>
        <time>2021-03-23T07:59:37Z</time>
      </trkpt>
      <trkpt lat="42.79289" lon="1.73405">
        <ele>1013.955</ele>
        <time>2021-03-23T07:59:39Z</time>
      </trkpt>
      <trkpt lat="42.79289" lon="1.73407">
        <ele>1012.627</ele>
        <time>2021-03-23T07:59:41Z</time>
      </trkpt>
      <trkpt lat="42.7929" lon="1.73409">
        <ele>1011.962</ele>
        <time>2021-03-23T07:59:43Z</time>
      </trkpt>
      <trkpt lat="42.7929" lon="1.7341">
        <ele>1012.35</ele>
        <time>2021-03-23T07:59:45Z</time>
      </trkpt>
      <trkpt lat="42.79291" lon="1.73411">
        <ele>1012.983</ele>
        <time>2021-03-23T07:59:47Z</time>
      </trkpt>
      <trkpt lat="42.79292" lon="1.73413">
        <ele>1013.639</ele>
        <time>2021-03-23T07:59:49Z</time>
      </trkpt>
      <trkpt lat="42.79293" lon="1.73414">
        <ele>1013.96</ele>
        <time>2021-03-23T07:59:51Z</time>
      </trkpt>
      <trkpt lat="42.79293" lon="1.73416">
        <ele>1013.966</ele>
        <time>2021-03-23T07:59:53Z</time>
      </trkpt>
      <trkpt lat="42.79294" lon="1.73417">
        <ele>1014.119</ele>
        <time>2021-03-23T07:59:55Z</time>
      </trkpt>
      <trkpt lat="42.79294" lon="1.73419">
        <ele>1015.58</ele>
        <time>2021-03-23T07:59:57Z</time>
      </trkpt>
      <trkpt lat="42.79295" lon="1.73421">
        <ele>1016.219</ele>
        <time>2021-03-23T07:59:59Z</time>
      </trkpt>
      <trkpt lat="42.79295" lon="1.73422">
        <ele>1016.334</ele>
        <time>2021-03-23T08:00:01Z</time>
      </trkpt>
      <trkpt lat="42.79296" lon="1.73423">
        <ele>1016.104</ele>
        <time>2021-03-23T08:00:03Z</time>
      </trkpt>
      <trkpt lat="42.79298" lon="1.73423">
        <ele>1016.079</ele>
        <time>2021-03-23T08:00:05Z</time>
      </trkpt>
      <trkpt lat="42.79299" lon="1.73422">
        <ele>1016.751</ele>
        <time>2021-03-23T08:00:07Z</time>
      </trkpt>
      <trkpt lat="42.793" lon="1.73421">
        <ele>1017.068</ele>
        <time>2021-03-23T08:00:09Z</time>
      </trkpt>
      <trkpt lat="42.79301" lon="1.73419">
        <ele>1016.777</ele>
        <time>2021-03-23T08:00:11Z</time>
      </trkpt>
      <trkpt lat="42.79302" lon="1.73418">
        <ele>1017.617</ele>
        <time>2021-03-23T08:00:13Z</time>
      </trkpt>
      <trkpt lat="42.79302" lon="1.73416">
        <ele>1017.064</ele>
        <time>2021-03-23T08:00:15Z</time>
      </trkpt>
      <trkpt lat="42.79303" lon="1.73414">
        <ele>1017.22</ele>
        <time>2021-03-23T08:00:17Z</time>
      </trkpt>
      <trkpt lat="42.79304" lon="1.73413">
        <ele>1017.721</ele>
        <time>2021-03-23T08:00:19Z</time>
      </trkpt>
      <trkpt lat="42.79304" lon="1.73411">
        <ele>1017.72</ele>
        <time>2021-03-23T08:00:21Z</time>
      </trkpt>
      <trkpt lat="42.79303" lon="1.73409">
        <ele>1018.534</ele>
        <time>2021-03-23T08:00:23Z</time>
      </trkpt>
      <trkpt lat="42.79304" lon="1.73408">
        <ele>1017.104</ele>
        <time>2021-03-23T08:00:25Z</time>
      </trkpt>
      <trkpt lat="42.79304" lon="1.73406">
        <ele>1016.485</ele>
        <time>2021-03-23T08:00:27Z</time>
      </trkpt>
      <trkpt lat="42.79305" lon="1.73404">
        <ele>1016.065</ele>
        <time>2021-03-23T08:00:29Z</time>
      </trkpt>
      <trkpt lat="42.79306" lon="1.73402">
        <ele>1016.393</ele>
        <time>2021-03-23T08:00:31Z</time>
      </trkpt>
      <trkpt lat="42.79307" lon="1.73401">
        <ele>1016.785</ele>
        <time>2021-03-23T08:00:33Z</time>
      </trkpt>
      <trkpt lat="42.79309" lon="1.73399">
        <ele>1017.842</ele>
        <time>2021-03-23T08:00:35Z</time>
      </trkpt>
      <trkpt lat="42.7931" lon="1.73399">
        <ele>1018.987</ele>
        <time>2021-03-23T08:00:37Z</time>
      </trkpt>
      <trkpt lat="42.79312" lon="1.73398">
        <ele>1019.239</ele>
        <time>2021-03-23T08:00:39Z</time>
      </trkpt>
      <trkpt lat="42.79313" lon="1.73398">
        <ele>1019.822</ele>
        <time>2021-03-23T08:00:41Z</time>
      </trkpt>
      <trkpt lat="42.79314" lon="1.73397">
        <ele>1020.16</ele>
        <time>2021-03-23T08:00:43Z</time>
      </trkpt>
      <trkpt lat="42.79315" lon="1.73397">
        <ele>1020.103</ele>
        <time>2021-03-23T08:00:45Z</time>
      </trkpt>
      <trkpt lat="42.79317" lon="1.73396">
        <ele>1020.245</ele>
        <time>2021-03-23T08:00:47Z</time>
      </trkpt>
      <trkpt lat="42.79318" lon="1.73396">
        <ele>1020.354</ele>
        <time>2021-03-23T08:00:49Z</time>
      </trkpt>
      <trkpt lat="42.79319" lon="1.73395">
        <ele>1019.809</ele>
        <time>2021-03-23T08:00:51Z</time>
      </trkpt>
      <trkpt lat="42.79319" lon="1.73394">
        <ele>1020.602</ele>
        <time>2021-03-23T08:00:53Z</time>
      </trkpt>
      <trkpt lat="42.7932" lon="1.73393">
        <ele>1020.429</ele>
        <time>2021-03-23T08:00:55Z</time>
      </trkpt>
      <trkpt lat="42.79321" lon="1.73393">
        <ele>1020.419</ele>
        <time>2021-03-23T08:00:57Z</time>
      </trkpt>
      <trkpt lat="42.79322" lon="1.73392">
        <ele>1020.238</ele>
        <time>2021-03-23T08:00:59Z</time>
      </trkpt>
      <trkpt lat="42.79323" lon="1.73392">
        <ele>1019.309</ele>
        <time>2021-03-23T08:01:01Z</time>
      </trkpt>
      <trkpt lat="42.79324" lon="1.73392">
        <ele>1019.548</ele>
        <time>2021-03-23T08:01:03Z</time>
      </trkpt>
      <trkpt lat="42.79326" lon="1.73392">
        <ele>1020.462</ele>
        <time>2021-03-23T08:01:05Z</time>
      </trkpt>
      <trkpt lat="42.79327" lon="1.73392">
        <ele>1020.405</ele>
        <time>2021-03-23T08:01:07Z</time>
      </trkpt>
      <trkpt lat="42.79328" lon="1.73392">
        <ele>1021.955</ele>
        <time>2021-03-23T08:01:09Z</time>
      </trkpt>
      <trkpt lat="42.7933" lon="1.73392">
        <ele>1022.986</ele>
        <time>2021-03-23T08:01:11Z</time>
      </trkpt>
      <trkpt lat="42.79331" lon="1.73391">
        <ele>1023.833</ele>
        <time>2021-03-23T08:01:13Z</time>
      </trkpt>
      <trkpt lat="42.79333" lon="1.73391">
        <ele>1024.102</ele>
        <time>2021-03-23T08:01:15Z</time>
      </trkpt>
      <trkpt lat="42.79334" lon="1.73391">
        <ele>1024.215</ele>
        <time>2021-03-23T08:01:17Z</time>
      </trkpt>
      <trkpt lat="42.79335" lon="1.73391">
        <ele>1026.122</ele>
        <time>2021-03-23T08:01:19Z</time>
      </trkpt>
      <trkpt lat="42.79336" lon="1.73391">
        <ele>1027.448</ele>
        <time>2021-03-23T08:01:21Z</time>
      </trkpt>
      <trkpt lat="42.79338" lon="1.73392">
        <ele>1027.273</ele>
        <time>2021-03-23T08:01:23Z</time>
      </trkpt>
      <trkpt lat="42.7934" lon="1.73392">
        <ele>1026.345</ele>
        <time>2021-03-23T08:01:25Z</time>
      </trkpt>
      <trkpt lat="42.79342" lon="1.73392">
        <ele>1027.921</ele>
        <time>2021-03-23T08:01:27Z</time>
      </trkpt>
      <trkpt lat="42.79343" lon="1.73393">
        <ele>1028.583</ele>
        <time>2021-03-23T08:01:29Z</time>
      </trkpt>
      <trkpt lat="42.79344" lon="1.73394">
        <ele>1027.867</ele>
        <time>2021-03-23T08:01:31Z</time>
      </trkpt>
      <trkpt lat="42.79346" lon="1.73395">
        <ele>1028.012</ele>
        <time>2021-03-23T08:01:33Z</time>
      </trkpt>
      <trkpt lat="42.79347" lon="1.73395">
        <ele>1027.929</ele>
        <time>2021-03-23T08:01:35Z</time>
      </trkpt>
      <trkpt lat="42.79349" lon="1.73395">
        <ele>1027.636</ele>
        <time>2021-03-23T08:01:37Z</time>
      </trkpt>
      <trkpt lat="42.7935" lon="1.73396">
        <ele>1028.994</ele>
        <time>2021-03-23T08:01:39Z</time>
      </trkpt>
      <trkpt lat="42.79351" lon="1.73397">
        <ele>1030.135</ele>
        <time>2021-03-23T08:01:41Z</time>
      </trkpt>
      <trkpt lat="42.79353" lon="1.73396">
        <ele>1029.073</ele>
        <time>2021-03-23T08:01:43Z</time>
      </trkpt>
      <trkpt lat="42.79354" lon="1.73396">
        <ele>1028.519</ele>
        <time>2021-03-23T08:01:45Z</time>
      </trkpt>
      <trkpt lat="42.79356" lon="1.73396">
        <ele>1029.829</ele>
        <time>2021-03-23T08:01:47Z</time>
      </trkpt>
      <trkpt lat="42.79357" lon="1.73397">
        <ele>1030.307</ele>
        <time>2021-03-23T08:01:49Z</time>
      </trkpt>
      <trkpt lat="42.79358" lon="1.73397">
        <ele>1031.015</ele>
        <time>2021-03-23T08:01:51Z</time>
      </trkpt>
      <trkpt lat="42.7936" lon="1.73397">
        <ele>1032.285</ele>
        <time>2021-03-23T08:01:53Z</time>
      </trkpt>
      <trkpt lat="42.79361" lon="1.73397">
        <ele>1032.223</ele>
        <time>2021-03-23T08:01:55Z</time>
      </trkpt>
      <trkpt lat="42.79363" lon="1.73397">
        <ele>1031.28</ele>
        <time>2021-03-23T08:01:57Z</time>
      </trkpt>
      <trkpt lat="42.79364" lon="1.73397">
        <ele>1032.365</ele>
        <time>2021-03-23T08:01:59Z</time>
      </trkpt>
      <trkpt lat="42.79366" lon="1.73397">
        <ele>1033.129</ele>
        <time>2021-03-23T08:02:01Z</time>
      </trkpt>
      <trkpt lat="42.79368" lon="1.73396">
        <ele>1033.677</ele>
        <time>2021-03-23T08:02:03Z</time>
      </trkpt>
      <trkpt lat="42.79369" lon="1.73396">
        <ele>1034.08</ele>
        <time>2021-03-23T08:02:05Z</time>
      </trkpt>
      <trkpt lat="42.79371" lon="1.73395">
        <ele>1034.164</ele>
        <time>2021-03-23T08:02:07Z</time>
      </trkpt>
      <trkpt lat="42.79372" lon="1.73395">
        <ele>1034.692</ele>
        <time>2021-03-23T08:02:09Z</time>
      </trkpt>
      <trkpt lat="42.79374" lon="1.73395">
        <ele>1035.585</ele>
        <time>2021-03-23T08:02:11Z</time>
      </trkpt>
      <trkpt lat="42.79376" lon="1.73396">
        <ele>1034.559</ele>
        <time>2021-03-23T08:02:13Z</time>
      </trkpt>
      <trkpt lat="42.79377" lon="1.73395">
        <ele>1034.297</ele>
        <time>2021-03-23T08:02:15Z</time>
      </trkpt>
      <trkpt lat="42.79379" lon="1.73396">
        <ele>1034.779</ele>
        <time>2021-03-23T08:02:17Z</time>
      </trkpt>
      <trkpt lat="42.7938" lon="1.73397">
        <ele>1034.743</ele>
        <time>2021-03-23T08:02:19Z</time>
      </trkpt>
      <trkpt lat="42.79382" lon="1.73397">
        <ele>1035.263</ele>
        <time>2021-03-23T08:02:21Z</time>
      </trkpt>
      <trkpt lat="42.79383" lon="1.73398">
        <ele>1035.711</ele>
        <time>2021-03-23T08:02:23Z</time>
      </trkpt>
      <trkpt lat="42.79385" lon="1.73397">
        <ele>1035.031</ele>
        <time>2021-03-23T08:02:25Z</time>
      </trkpt>
      <trkpt lat="42.79386" lon="1.73396">
        <ele>1034.585</ele>
        <time>2021-03-23T08:02:27Z</time>
      </trkpt>
      <trkpt lat="42.79388" lon="1.73396">
        <ele>1035.39</ele>
        <time>2021-03-23T08:02:29Z</time>
      </trkpt>
      <trkpt lat="42.79389" lon="1.73396">
        <ele>1036.168</ele>
        <time>2021-03-23T08:02:31Z</time>
      </trkpt>
      <trkpt lat="42.79391" lon="1.73396">
        <ele>1035.811</ele>
        <time>2021-03-23T08:02:33Z</time>
      </trkpt>
      <trkpt lat="42.79393" lon="1.73397">
        <ele>1037.466</ele>
        <time>2021-03-23T08:02:35Z</time>
      </trkpt>
      <trkpt lat="42.79394" lon="1.73397">
        <ele>1037.644</ele>
        <time>2021-03-23T08:02:37Z</time>
      </trkpt>
      <trkpt lat="42.79396" lon="1.73398">
        <ele>1037.882</ele>
        <time>2021-03-23T08:02:39Z</time>
      </trkpt>
      <trkpt lat="42.79398" lon="1.73398">
        <ele>1038.327</ele>
        <time>2021-03-23T08:02:41Z</time>
      </trkpt>
      <trkpt lat="42.79399" lon="1.73398">
        <ele>1036.939</ele>
        <time>2021-03-23T08:02:43Z</time>
      </trkpt>
      <trkpt lat="42.79401" lon="1.73398">
        <ele>1037.857</ele>
        <time>2021-03-23T08:02:45Z</time>
      </trkpt>
      <trkpt lat="42.79403" lon="1.73398">
        <ele>1038.155</ele>
        <time>2021-03-23T08:02:47Z</time>
      </trkpt>
      <trkpt lat="42.79404" lon="1.73398">
        <ele>1038.079</ele>
        <time>2021-03-23T08:02:49Z</time>
      </trkpt>
      <trkpt lat="42.79406" lon="1.73398">
        <ele>1038.292</ele>
        <time>2021-03-23T08:02:51Z</time>
      </trkpt>
      <trkpt lat="42.79408" lon="1.73397">
        <ele>1037.949</ele>
        <time>2021-03-23T08:02:53Z</time>
      </trkpt>
      <trkpt lat="42.7941" lon="1.73398">
        <ele>1039.434</ele>
        <time>2021-03-23T08:02:55Z</time>
      </trkpt>
      <trkpt lat="42.79411" lon="1.73397">
        <ele>1039.095</ele>
        <time>2021-03-23T08:02:57Z</time>
      </trkpt>
      <trkpt lat="42.79413" lon="1.73397">
        <ele>1040.893</ele>
        <time>2021-03-23T08:02:59Z</time>
      </trkpt>
      <trkpt lat="42.79415" lon="1.73396">
        <ele>1039.933</ele>
        <time>2021-03-23T08:03:01Z</time>
      </trkpt>
      <trkpt lat="42.79417" lon="1.73396">
        <ele>1040.119</ele>
        <time>2021-03-23T08:03:03Z</time>
      </trkpt>
      <trkpt lat="42.79419" lon="1.73395">
        <ele>1039.978</ele>
        <time>2021-03-23T08:03:05Z</time>
      </trkpt>
      <trkpt lat="42.79421" lon="1.73395">
        <ele>1040.593</ele>
        <time>2021-03-23T08:03:07Z</time>
      </trkpt>
      <trkpt lat="42.79423" lon="1.73394">
        <ele>1040.625</ele>
        <time>2021-03-23T08:03:09Z</time>
      </trkpt>
      <trkpt lat="42.79426" lon="1.73393">
        <ele>1040.55</ele>
        <time>2021-03-23T08:03:11Z</time>
      </trkpt>
      <trkpt lat="42.79428" lon="1.73392">
        <ele>1041.436</ele>
        <time>2021-03-23T08:03:13Z</time>
      </trkpt>
      <trkpt lat="42.79429" lon="1.73391">
        <ele>1040.626</ele>
        <time>2021-03-23T08:03:15Z</time>
      </trkpt>
      <trkpt lat="42.79431" lon="1.7339">
        <ele>1040.856</ele>
        <time>2021-03-23T08:03:17Z</time>
      </trkpt>
      <trkpt lat="42.79433" lon="1.73389">
        <ele>1041.475</ele>
        <time>2021-03-23T08:03:19Z</time>
      </trkpt>
      <trkpt lat="42.79435" lon="1.73388">
        <ele>1040.209</ele>
        <time>2021-03-23T08:03:21Z</time>
      </trkpt>
      <trkpt lat="42.79437" lon="1.73387">
        <ele>1039.453</ele>
        <time>2021-03-23T08:03:23Z</time>
      </trkpt>
      <trkpt lat="42.79438" lon="1.73387">
        <ele>1040.495</ele>
        <time>2021-03-23T08:03:25Z</time>
      </trkpt>
      <trkpt lat="42.7944" lon="1.73387">
        <ele>1041.432</ele>
        <time>2021-03-23T08:03:27Z</time>
      </trkpt>
      <trkpt lat="42.79442" lon="1.73386">
        <ele>1043.79</ele>
        <time>2021-03-23T08:03:29Z</time>
      </trkpt>
      <trkpt lat="42.79443" lon="1.73386">
        <ele>1043.881</ele>
        <time>2021-03-23T08:03:31Z</time>
      </trkpt>
      <trkpt lat="42.79444" lon="1.73385">
        <ele>1042.475</ele>
        <time>2021-03-23T08:03:33Z</time>
      </trkpt>
      <trkpt lat="42.79446" lon="1.73385">
        <ele>1043.479</ele>
        <time>2021-03-23T08:03:35Z</time>
      </trkpt>
      <trkpt lat="42.79448" lon="1.73384">
        <ele>1043.827</ele>
        <time>2021-03-23T08:03:37Z</time>
      </trkpt>
      <trkpt lat="42.79449" lon="1.73384">
        <ele>1044.534</ele>
        <time>2021-03-23T08:03:39Z</time>
      </trkpt>
      <trkpt lat="42.79451" lon="1.73385">
        <ele>1045.633</ele>
        <time>2021-03-23T08:03:41Z</time>
      </trkpt>
      <trkpt lat="42.79452" lon="1.73385">
        <ele>1046.404</ele>
        <time>2021-03-23T08:03:43Z</time>
      </trkpt>
      <trkpt lat="42.79453" lon="1.73385">
        <ele>1046.363</ele>
        <time>2021-03-23T08:03:45Z</time>
      </trkpt>
      <trkpt lat="42.79454" lon="1.73387">
        <ele>1047.799</ele>
        <time>2021-03-23T08:03:47Z</time>
      </trkpt>
      <trkpt lat="42.79456" lon="1.73389">
        <ele>1048.5</ele>
        <time>2021-03-23T08:03:49Z</time>
      </trkpt>
      <trkpt lat="42.79457" lon="1.73389">
        <ele>1048.438</ele>
        <time>2021-03-23T08:03:51Z</time>
      </trkpt>
      <trkpt lat="42.79458" lon="1.73391">
        <ele>1050.098</ele>
        <time>2021-03-23T08:03:53Z</time>
      </trkpt>
      <trkpt lat="42.79459" lon="1.73393">
        <ele>1051.317</ele>
        <time>2021-03-23T08:03:55Z</time>
      </trkpt>
      <trkpt lat="42.79461" lon="1.73394">
        <ele>1051.24</ele>
        <time>2021-03-23T08:03:57Z</time>
      </trkpt>
      <trkpt lat="42.79462" lon="1.73395">
        <ele>1049.558</ele>
        <time>2021-03-23T08:03:59Z</time>
      </trkpt>
      <trkpt lat="42.79463" lon="1.73397">
        <ele>1049.252</ele>
        <time>2021-03-23T08:04:01Z</time>
      </trkpt>
      <trkpt lat="42.79464" lon="1.73399">
        <ele>1049.668</ele>
        <time>2021-03-23T08:04:03Z</time>
      </trkpt>
      <trkpt lat="42.79464" lon="1.73401">
        <ele>1050.272</ele>
        <time>2021-03-23T08:04:05Z</time>
      </trkpt>
      <trkpt lat="42.79464" lon="1.73403">
        <ele>1049.381</ele>
        <time>2021-03-23T08:04:07Z</time>
      </trkpt>
      <trkpt lat="42.79464" lon="1.73405">
        <ele>1050.098</ele>
        <time>2021-03-23T08:04:09Z</time>
      </trkpt>
      <trkpt lat="42.79465" lon="1.73408">
        <ele>1051.461</ele>
        <time>2021-03-23T08:04:11Z</time>
      </trkpt>
      <trkpt lat="42.79465" lon="1.73411">
        <ele>1053.133</ele>
        <time>2021-03-23T08:04:13Z</time>
      </trkpt>
      <trkpt lat="42.79464" lon="1.73413">
        <ele>1053.958</ele>
        <time>2021-03-23T08:04:15Z</time>
      </trkpt>
      <trkpt lat="42.79464" lon="1.73415">
        <ele>1053.909</ele>
        <time>2021-03-23T08:04:17Z</time>
      </trkpt>
      <trkpt lat="42.79464" lon="1.73417">
        <ele>1054.037</ele>
        <time>2021-03-23T08:04:19Z</time>
      </trkpt>
      <trkpt lat="42.79464" lon="1.73419">
        <ele>1052.889</ele>
        <time>2021-03-23T08:04:21Z</time>
      </trkpt>
      <trkpt lat="42.79463" lon="1.73421">
        <ele>1054.391</ele>
        <time>2021-03-23T08:04:23Z</time>
      </trkpt>
      <trkpt lat="42.79462" lon="1.73423">
        <ele>1054.314</ele>
        <time>2021-03-23T08:04:25Z</time>
      </trkpt>
      <trkpt lat="42.79462" lon="1.73426">
        <ele>1054.89</ele>
        <time>2021-03-23T08:04:27Z</time>
      </trkpt>
      <trkpt lat="42.79462" lon="1.73428">
        <ele>1054.073</ele>
        <time>2021-03-23T08:04:29Z</time>
      </trkpt>
      <trkpt lat="42.79461" lon="1.73432">
        <ele>1054.474</ele>
        <time>2021-03-23T08:04:31Z</time>
      </trkpt>
      <trkpt lat="42.79461" lon="1.73435">
        <ele>1054.694</ele>
        <time>2021-03-23T08:04:33Z</time>
      </trkpt>
      <trkpt lat="42.79462" lon="1.73437">
        <ele>1054.365</ele>
        <time>2021-03-23T08:04:35Z</time>
      </trkpt>
      <trkpt lat="42.79462" lon="1.73439">
        <ele>1054.603</ele>
        <time>2021-03-23T08:04:37Z</time>
      </trkpt>
      <trkpt lat="42.79462" lon="1.73442">
        <ele>1054.304</ele>
        <time>2021-03-23T08:04:39Z</time>
      </trkpt>
      <trkpt lat="42.79462" lon="1.73444">
        <ele>1054.313</ele>
        <time>2021-03-23T08:04:41Z</time>
      </trkpt>
      <trkpt lat="42.79463" lon="1.73447">
        <ele>1053.682</ele>
        <time>2021-03-23T08:04:43Z</time>
      </trkpt>
      <trkpt lat="42.79463" lon="1.73449">
        <ele>1053.729</ele>
        <time>2021-03-23T08:04:45Z</time>
      </trkpt>
      <trkpt lat="42.79464" lon="1.73451">
        <ele>1053.673</ele>
        <time>2021-03-23T08:04:47Z</time>
      </trkpt>
      <trkpt lat="42.79465" lon="1.73453">
        <ele>1054.323</ele>
        <time>2021-03-23T08:04:49Z</time>
      </trkpt>
      <trkpt lat="42.79465" lon="1.73455">
        <ele>1054.568</ele>
        <time>2021-03-23T08:04:51Z</time>
      </trkpt>
      <trkpt lat="42.79466" lon="1.73457">
        <ele>1054.6</ele>
        <time>2021-03-23T08:04:53Z</time>
      </trkpt>
      <trkpt lat="42.79466" lon="1.73459">
        <ele>1054.883</ele>
        <time>2021-03-23T08:04:55Z</time>
      </trkpt>
      <trkpt lat="42.79467" lon="1.73461">
        <ele>1055.167</ele>
        <time>2021-03-23T08:04:57Z</time>
      </trkpt>
      <trkpt lat="42.79468" lon="1.73463">
        <ele>1055.824</ele>
        <time>2021-03-23T08:04:59Z</time>
      </trkpt>
      <trkpt lat="42.79468" lon="1.73466">
        <ele>1056.332</ele>
        <time>2021-03-23T08:05:01Z</time>
      </trkpt>
      <trkpt lat="42.79469" lon="1.73468">
        <ele>1056.265</ele>
        <time>2021-03-23T08:05:03Z</time>
      </trkpt>
      <trkpt lat="42.79469" lon="1.73471">
        <ele>1056.996</ele>
        <time>2021-03-23T08:05:05Z</time>
      </trkpt>
      <trkpt lat="42.79469" lon="1.73473">
        <ele>1057.452</ele>
        <time>2021-03-23T08:05:07Z</time>
      </trkpt>
      <trkpt lat="42.79469" lon="1.73475">
        <ele>1057.231</ele>
        <time>2021-03-23T08:05:09Z</time>
      </trkpt>
      <trkpt lat="42.79469" lon="1.73477">
        <ele>1058.021</ele>
        <time>2021-03-23T08:05:11Z</time>
      </trkpt>
      <trkpt lat="42.79469" lon="1.73479">
        <ele>1058.602</ele>
        <time>2021-03-23T08:05:13Z</time>
      </trkpt>
      <trkpt lat="42.79469" lon="1.73481">
        <ele>1059.187</ele>
        <time>2021-03-23T08:05:15Z</time>
      </trkpt>
      <trkpt lat="42.7947" lon="1.73483">
        <ele>1059.784</ele>
        <time>2021-03-23T08:05:17Z</time>
      </trkpt>
      <trkpt lat="42.79471" lon="1.73485">
        <ele>1060.921</ele>
        <time>2021-03-23T08:05:19Z</time>
      </trkpt>
      <trkpt lat="42.79471" lon="1.73487">
        <ele>1060.884</ele>
        <time>2021-03-23T08:05:21Z</time>
      </trkpt>
      <trkpt lat="42.79471" lon="1.73489">
        <ele>1061.018</ele>
        <time>2021-03-23T08:05:23Z</time>
      </trkpt>
      <trkpt lat="42.79471" lon="1.73491">
        <ele>1061.517</ele>
        <time>2021-03-23T08:05:25Z</time>
      </trkpt>
      <trkpt lat="42.79472" lon="1.73493">
        <ele>1062.055</ele>
        <time>2021-03-23T08:05:27Z</time>
      </trkpt>
      <trkpt lat="42.79473" lon="1.73494">
        <ele>1061.56</ele>
        <time>2021-03-23T08:05:29Z</time>
      </trkpt>
      <trkpt lat="42.79474" lon="1.73496">
        <ele>1062.955</ele>
        <time>2021-03-23T08:05:31Z</time>
      </trkpt>
      <trkpt lat="42.79475" lon="1.73497">
        <ele>1063.708</ele>
        <time>2021-03-23T08:05:33Z</time>
      </trkpt>
      <trkpt lat="42.79475" lon="1.73499">
        <ele>1064.25</ele>
        <time>2021-03-23T08:05:35Z</time>
      </trkpt>
      <trkpt lat="42.79475" lon="1.73502">
        <ele>1064.548</ele>
        <time>2021-03-23T08:05:37Z</time>
      </trkpt>
      <trkpt lat="42.79474" lon="1.73504">
        <ele>1065.566</ele>
        <time>2021-03-23T08:05:39Z</time>
      </trkpt>
      <trkpt lat="42.79474" lon="1.73505">
        <ele>1066.124</ele>
        <time>2021-03-23T08:05:41Z</time>
      </trkpt>
      <trkpt lat="42.79473" lon="1.73508">
        <ele>1066.184</ele>
        <time>2021-03-23T08:05:43Z</time>
      </trkpt>
      <trkpt lat="42.79474" lon="1.7351">
        <ele>1065.561</ele>
        <time>2021-03-23T08:05:45Z</time>
      </trkpt>
      <trkpt lat="42.79474" lon="1.73511">
        <ele>1065.112</ele>
        <time>2021-03-23T08:05:47Z</time>
      </trkpt>
      <trkpt lat="42.79475" lon="1.73513">
        <ele>1065.075</ele>
        <time>2021-03-23T08:05:49Z</time>
      </trkpt>
      <trkpt lat="42.79475" lon="1.73515">
        <ele>1064.939</ele>
        <time>2021-03-23T08:05:51Z</time>
      </trkpt>
      <trkpt lat="42.79475" lon="1.73517">
        <ele>1065.228</ele>
        <time>2021-03-23T08:05:53Z</time>
      </trkpt>
      <trkpt lat="42.79475" lon="1.73519">
        <ele>1066.362</ele>
        <time>2021-03-23T08:05:55Z</time>
      </trkpt>
      <trkpt lat="42.79475" lon="1.73521">
        <ele>1067.304</ele>
        <time>2021-03-23T08:05:57Z</time>
      </trkpt>
      <trkpt lat="42.79475" lon="1.73523">
        <ele>1068.663</ele>
        <time>2021-03-23T08:05:59Z</time>
      </trkpt>
      <trkpt lat="42.79475" lon="1.73525">
        <ele>1069.084</ele>
        <time>2021-03-23T08:06:01Z</time>
      </trkpt>
      <trkpt lat="42.79475" lon="1.73527">
        <ele>1069.719</ele>
        <time>2021-03-23T08:06:03Z</time>
      </trkpt>
      <trkpt lat="42.79476" lon="1.73529">
        <ele>1068.769</ele>
        <time>2021-03-23T08:06:05Z</time>
      </trkpt>
      <trkpt lat="42.79476" lon="1.73532">
        <ele>1069.372</ele>
        <time>2021-03-23T08:06:07Z</time>
      </trkpt>
      <trkpt lat="42.79476" lon="1.73534">
        <ele>1069.647</ele>
        <time>2021-03-23T08:06:09Z</time>
      </trkpt>
      <trkpt lat="42.79476" lon="1.73535">
        <ele>1069.727</ele>
        <time>2021-03-23T08:06:11Z</time>
      </trkpt>
      <trkpt lat="42.79476" lon="1.73537">
        <ele>1069.839</ele>
        <time>2021-03-23T08:06:13Z</time>
      </trkpt>
      <trkpt lat="42.79476" lon="1.73538">
        <ele>1070.979</ele>
        <time>2021-03-23T08:06:15Z</time>
      </trkpt>
      <trkpt lat="42.79476" lon="1.7354">
        <ele>1071.765</ele>
        <time>2021-03-23T08:06:17Z</time>
      </trkpt>
      <trkpt lat="42.79476" lon="1.73542">
        <ele>1072.849</ele>
        <time>2021-03-23T08:06:19Z</time>
      </trkpt>
      <trkpt lat="42.79477" lon="1.73544">
        <ele>1074.178</ele>
        <time>2021-03-23T08:06:21Z</time>
      </trkpt>
      <trkpt lat="42.79477" lon="1.73546">
        <ele>1074.022</ele>
        <time>2021-03-23T08:06:23Z</time>
      </trkpt>
      <trkpt lat="42.79478" lon="1.73548">
        <ele>1073.959</ele>
        <time>2021-03-23T08:06:25Z</time>
      </trkpt>
      <trkpt lat="42.79476" lon="1.73549">
        <ele>1073.755</ele>
        <time>2021-03-23T08:06:27Z</time>
      </trkpt>
      <trkpt lat="42.79476" lon="1.73549">
        <ele>1074.696</ele>
        <time>2021-03-23T08:06:29Z</time>
      </trkpt>
      <trkpt lat="42.79477" lon="1.73549">
        <ele>1074.554</ele>
        <time>2021-03-23T08:06:31Z</time>
      </trkpt>
      <trkpt lat="42.79477" lon="1.73549">
        <ele>1074.52</ele>
        <time>2021-03-23T08:06:33Z</time>
      </trkpt>
      <trkpt lat="42.79477" lon="1.73549">
        <ele>1074.349</ele>
        <time>2021-03-23T08:06:35Z</time>
      </trkpt>
      <trkpt lat="42.79477" lon="1.73548">
        <ele>1074.204</ele>
        <time>2021-03-23T08:06:37Z</time>
      </trkpt>
      <trkpt lat="42.79477" lon="1.73548">
        <ele>1074.202</ele>
        <time>2021-03-23T08:06:39Z</time>
      </trkpt>
      <trkpt lat="42.79477" lon="1.73548">
        <ele>1074.2</ele>
        <time>2021-03-23T08:06:41Z</time>
      </trkpt>
      <trkpt lat="42.79477" lon="1.73548">
        <ele>1074.208</ele>
        <time>2021-03-23T08:06:43Z</time>
      </trkpt>
      <trkpt lat="42.79477" lon="1.73548">
        <ele>1074.213</ele>
        <time>2021-03-23T08:06:45Z</time>
      </trkpt>
      <trkpt lat="42.79477" lon="1.73548">
        <ele>1074.221</ele>
        <time>2021-03-23T08:06:47Z</time>
      </trkpt>
      <trkpt lat="42.79477" lon="1.73548">
        <ele>1074.229</ele>
        <time>2021-03-23T08:06:49Z</time>
      </trkpt>
      <trkpt lat="42.79477" lon="1.73548">
        <ele>1074.232</ele>
        <time>2021-03-23T08:06:51Z</time>
      </trkpt>
      <trkpt lat="42.79477" lon="1.73548">
        <ele>1074.234</ele>
        <time>2021-03-23T08:06:53Z</time>
      </trkpt>
      <trkpt lat="42.79477" lon="1.73548">
        <ele>1074.238</ele>
        <time>2021-03-23T08:06:55Z</time>
      </trkpt>
      <trkpt lat="42.79477" lon="1.73548">
        <ele>1074.237</ele>
        <time>2021-03-23T08:06:57Z</time>
      </trkpt>
      <trkpt lat="42.79477" lon="1.73548">
        <ele>1074.228</ele>
        <time>2021-03-23T08:06:59Z</time>
      </trkpt>
      <trkpt lat="42.79477" lon="1.73548">
        <ele>1074.231</ele>
        <time>2021-03-23T08:07:01Z</time>
      </trkpt>
      <trkpt lat="42.79477" lon="1.73548">
        <ele>1074.224</ele>
        <time>2021-03-23T08:07:03Z</time>
      </trkpt>
      <trkpt lat="42.79477" lon="1.73548">
        <ele>1074.214</ele>
        <time>2021-03-23T08:07:05Z</time>
      </trkpt>
      <trkpt lat="42.79477" lon="1.73548">
        <ele>1074.216</ele>
        <time>2021-03-23T08:07:07Z</time>
      </trkpt>
      <trkpt lat="42.79477" lon="1.73548">
        <ele>1074.218</ele>
        <time>2021-03-23T08:07:09Z</time>
      </trkpt>
      <trkpt lat="42.79477" lon="1.73549">
        <ele>1074.666</ele>
        <time>2021-03-23T08:07:11Z</time>
      </trkpt>
      <trkpt lat="42.79477" lon="1.7355">
        <ele>1074.408</ele>
        <time>2021-03-23T08:07:13Z</time>
      </trkpt>
      <trkpt lat="42.79477" lon="1.7355">
        <ele>1074.869</ele>
        <time>2021-03-23T08:07:15Z</time>
      </trkpt>
      <trkpt lat="42.79477" lon="1.73552">
        <ele>1075.121</ele>
        <time>2021-03-23T08:07:17Z</time>
      </trkpt>
      <trkpt lat="42.79477" lon="1.73553">
        <ele>1074.943</ele>
        <time>2021-03-23T08:07:19Z</time>
      </trkpt>
      <trkpt lat="42.79478" lon="1.73555">
        <ele>1074.749</ele>
        <time>2021-03-23T08:07:21Z</time>
      </trkpt>
      <trkpt lat="42.79478" lon="1.73557">
        <ele>1074.654</ele>
        <time>2021-03-23T08:07:23Z</time>
      </trkpt>
      <trkpt lat="42.79478" lon="1.73559">
        <ele>1074.326</ele>
        <time>2021-03-23T08:07:25Z</time>
      </trkpt>
      <trkpt lat="42.79478" lon="1.73561">
        <ele>1075.362</ele>
        <time>2021-03-23T08:07:27Z</time>
      </trkpt>
      <trkpt lat="42.79479" lon="1.73562">
        <ele>1075.982</ele>
        <time>2021-03-23T08:07:29Z</time>
      </trkpt>
      <trkpt lat="42.79478" lon="1.73564">
        <ele>1076.897</ele>
        <time>2021-03-23T08:07:31Z</time>
      </trkpt>
      <trkpt lat="42.79478" lon="1.73566">
        <ele>1077.316</ele>
        <time>2021-03-23T08:07:33Z</time>
      </trkpt>
      <trkpt lat="42.79478" lon="1.73568">
        <ele>1077.768</ele>
        <time>2021-03-23T08:07:35Z</time>
      </trkpt>
      <trkpt lat="42.79479" lon="1.7357">
        <ele>1078.138</ele>
        <time>2021-03-23T08:07:37Z</time>
      </trkpt>
      <trkpt lat="42.7948" lon="1.73572">
        <ele>1077.545</ele>
        <time>2021-03-23T08:07:39Z</time>
      </trkpt>
      <trkpt lat="42.7948" lon="1.73574">
        <ele>1078.652</ele>
        <time>2021-03-23T08:07:41Z</time>
      </trkpt>
      <trkpt lat="42.7948" lon="1.73576">
        <ele>1077.765</ele>
        <time>2021-03-23T08:07:43Z</time>
      </trkpt>
      <trkpt lat="42.79481" lon="1.73577">
        <ele>1078.58</ele>
        <time>2021-03-23T08:07:45Z</time>
      </trkpt>
      <trkpt lat="42.79482" lon="1.73579">
        <ele>1078.815</ele>
        <time>2021-03-23T08:07:47Z</time>
      </trkpt>
      <trkpt lat="42.79481" lon="1.73581">
        <ele>1078.819</ele>
        <time>2021-03-23T08:07:49Z</time>
      </trkpt>
      <trkpt lat="42.79482" lon="1.73583">
        <ele>1078.514</ele>
        <time>2021-03-23T08:07:51Z</time>
      </trkpt>
      <trkpt lat="42.79482" lon="1.73585">
        <ele>1079.701</ele>
        <time>2021-03-23T08:07:53Z</time>
      </trkpt>
      <trkpt lat="42.79482" lon="1.73586">
        <ele>1080.285</ele>
        <time>2021-03-23T08:07:55Z</time>
      </trkpt>
      <trkpt lat="42.79483" lon="1.73586">
        <ele>1080.867</ele>
        <time>2021-03-23T08:07:57Z</time>
      </trkpt>
      <trkpt lat="42.79484" lon="1.73587">
        <ele>1081.31</ele>
        <time>2021-03-23T08:07:59Z</time>
      </trkpt>
      <trkpt lat="42.79485" lon="1.73586">
        <ele>1080.714</ele>
        <time>2021-03-23T08:08:01Z</time>
      </trkpt>
      <trkpt lat="42.79485" lon="1.73584">
        <ele>1079.688</ele>
        <time>2021-03-23T08:08:03Z</time>
      </trkpt>
      <trkpt lat="42.79485" lon="1.73582">
        <ele>1079.444</ele>
        <time>2021-03-23T08:08:05Z</time>
      </trkpt>
      <trkpt lat="42.79485" lon="1.73581">
        <ele>1079.011</ele>
        <time>2021-03-23T08:08:07Z</time>
      </trkpt>
      <trkpt lat="42.79486" lon="1.73581">
        <ele>1079.308</ele>
        <time>2021-03-23T08:08:09Z</time>
      </trkpt>
      <trkpt lat="42.79485" lon="1.7358">
        <ele>1079.534</ele>
        <time>2021-03-23T08:08:11Z</time>
      </trkpt>
      <trkpt lat="42.79485" lon="1.73578">
        <ele>1079.537</ele>
        <time>2021-03-23T08:08:13Z</time>
      </trkpt>
      <trkpt lat="42.79485" lon="1.73578">
        <ele>1079.54</ele>
        <time>2021-03-23T08:08:15Z</time>
      </trkpt>
      <trkpt lat="42.79485" lon="1.73578">
        <ele>1079.551</ele>
        <time>2021-03-23T08:08:17Z</time>
      </trkpt>
      <trkpt lat="42.79485" lon="1.73578">
        <ele>1079.558</ele>
        <time>2021-03-23T08:08:19Z</time>
      </trkpt>
      <trkpt lat="42.79485" lon="1.73578">
        <ele>1079.569</ele>
        <time>2021-03-23T08:08:21Z</time>
      </trkpt>
      <trkpt lat="42.79485" lon="1.73578">
        <ele>1079.57</ele>
        <time>2021-03-23T08:08:23Z</time>
      </trkpt>
      <trkpt lat="42.79485" lon="1.73578">
        <ele>1079.576</ele>
        <time>2021-03-23T08:08:25Z</time>
      </trkpt>
      <trkpt lat="42.79485" lon="1.73578">
        <ele>1079.573</ele>
        <time>2021-03-23T08:08:27Z</time>
      </trkpt>
      <trkpt lat="42.79485" lon="1.73578">
        <ele>1079.578</ele>
        <time>2021-03-23T08:08:29Z</time>
      </trkpt>
      <trkpt lat="42.79486" lon="1.73577">
        <ele>1080.312</ele>
        <time>2021-03-23T08:08:31Z</time>
      </trkpt>
      <trkpt lat="42.79485" lon="1.73577">
        <ele>1081.143</ele>
        <time>2021-03-23T08:08:33Z</time>
      </trkpt>
      <trkpt lat="42.79485" lon="1.73577">
        <ele>1081.212</ele>
        <time>2021-03-23T08:08:35Z</time>
      </trkpt>
      <trkpt lat="42.79485" lon="1.73576">
        <ele>1081.144</ele>
        <time>2021-03-23T08:08:37Z</time>
      </trkpt>
      <trkpt lat="42.79485" lon="1.73577">
        <ele>1081.206</ele>
        <time>2021-03-23T08:08:39Z</time>
      </trkpt>
      <trkpt lat="42.79485" lon="1.73577">
        <ele>1081.197</ele>
        <time>2021-03-23T08:08:41Z</time>
      </trkpt>
      <trkpt lat="42.79485" lon="1.73577">
        <ele>1081.193</ele>
        <time>2021-03-23T08:08:43Z</time>
      </trkpt>
      <trkpt lat="42.79485" lon="1.73577">
        <ele>1081.193</ele>
        <time>2021-03-23T08:08:45Z</time>
      </trkpt>
      <trkpt lat="42.79485" lon="1.73577">
        <ele>1081.182</ele>
        <time>2021-03-23T08:08:47Z</time>
      </trkpt>
      <trkpt lat="42.79485" lon="1.73577">
        <ele>1081.188</ele>
        <time>2021-03-23T08:08:49Z</time>
      </trkpt>
      <trkpt lat="42.79485" lon="1.73577">
        <ele>1081.191</ele>
        <time>2021-03-23T08:08:51Z</time>
      </trkpt>
      <trkpt lat="42.79485" lon="1.73577">
        <ele>1081.195</ele>
        <time>2021-03-23T08:08:53Z</time>
      </trkpt>
      <trkpt lat="42.79485" lon="1.73577">
        <ele>1081.184</ele>
        <time>2021-03-23T08:08:55Z</time>
      </trkpt>
      <trkpt lat="42.79485" lon="1.73577">
        <ele>1081.181</ele>
        <time>2021-03-23T08:08:57Z</time>
      </trkpt>
      <trkpt lat="42.79485" lon="1.73577">
        <ele>1081.155</ele>
        <time>2021-03-23T08:08:59Z</time>
      </trkpt>
      <trkpt lat="42.79485" lon="1.73577">
        <ele>1081.147</ele>
        <time>2021-03-23T08:09:01Z</time>
      </trkpt>
      <trkpt lat="42.79485" lon="1.73577">
        <ele>1081.136</ele>
        <time>2021-03-23T08:09:03Z</time>
      </trkpt>
      <trkpt lat="42.79485" lon="1.73577">
        <ele>1081.133</ele>
        <time>2021-03-23T08:09:05Z</time>
      </trkpt>
      <trkpt lat="42.79485" lon="1.73576">
        <ele>1080.81</ele>
        <time>2021-03-23T08:09:07Z</time>
      </trkpt>
      <trkpt lat="42.79486" lon="1.73576">
        <ele>1081.932</ele>
        <time>2021-03-23T08:09:09Z</time>
      </trkpt>
      <trkpt lat="42.79486" lon="1.73575">
        <ele>1081.628</ele>
        <time>2021-03-23T08:09:11Z</time>
      </trkpt>
      <trkpt lat="42.79486" lon="1.73573">
        <ele>1082.811</ele>
        <time>2021-03-23T08:09:13Z</time>
      </trkpt>
      <trkpt lat="42.79487" lon="1.73572">
        <ele>1082.092</ele>
        <time>2021-03-23T08:09:15Z</time>
      </trkpt>
      <trkpt lat="42.79489" lon="1.73572">
        <ele>1083.569</ele>
        <time>2021-03-23T08:09:17Z</time>
      </trkpt>
      <trkpt lat="42.7949" lon="1.73571">
        <ele>1083.872</ele>
        <time>2021-03-23T08:09:19Z</time>
      </trkpt>
      <trkpt lat="42.79491" lon="1.7357">
        <ele>1085.785</ele>
        <time>2021-03-23T08:09:21Z</time>
      </trkpt>
      <trkpt lat="42.79492" lon="1.73569">
        <ele>1086.607</ele>
        <time>2021-03-23T08:09:23Z</time>
      </trkpt>
      <trkpt lat="42.79493" lon="1.73567">
        <ele>1086.004</ele>
        <time>2021-03-23T08:09:25Z</time>
      </trkpt>
      <trkpt lat="42.79495" lon="1.73566">
        <ele>1085.987</ele>
        <time>2021-03-23T08:09:27Z</time>
      </trkpt>
      <trkpt lat="42.79496" lon="1.73568">
        <ele>1085.687</ele>
        <time>2021-03-23T08:09:29Z</time>
      </trkpt>
      <trkpt lat="42.79496" lon="1.7357">
        <ele>1086.348</ele>
        <time>2021-03-23T08:09:31Z</time>
      </trkpt>
      <trkpt lat="42.79496" lon="1.73572">
        <ele>1087.478</ele>
        <time>2021-03-23T08:09:33Z</time>
      </trkpt>
      <trkpt lat="42.79498" lon="1.73571">
        <ele>1089.003</ele>
        <time>2021-03-23T08:09:35Z</time>
      </trkpt>
      <trkpt lat="42.79498" lon="1.7357">
        <ele>1089.521</ele>
        <time>2021-03-23T08:09:37Z</time>
      </trkpt>
      <trkpt lat="42.79499" lon="1.73568">
        <ele>1089.114</ele>
        <time>2021-03-23T08:09:39Z</time>
      </trkpt>
      <trkpt lat="42.795" lon="1.73566">
        <ele>1088.881</ele>
        <time>2021-03-23T08:09:41Z</time>
      </trkpt>
      <trkpt lat="42.79501" lon="1.73566">
        <ele>1088.924</ele>
        <time>2021-03-23T08:09:43Z</time>
      </trkpt>
      <trkpt lat="42.79502" lon="1.73565">
        <ele>1090.294</ele>
        <time>2021-03-23T08:09:45Z</time>
      </trkpt>
      <trkpt lat="42.79502" lon="1.73564">
        <ele>1090.72</ele>
        <time>2021-03-23T08:09:47Z</time>
      </trkpt>
      <trkpt lat="42.79503" lon="1.73563">
        <ele>1090.62</ele>
        <time>2021-03-23T08:09:49Z</time>
      </trkpt>
      <trkpt lat="42.79504" lon="1.73562">
        <ele>1090.812</ele>
        <time>2021-03-23T08:09:51Z</time>
      </trkpt>
      <trkpt lat="42.79505" lon="1.73561">
        <ele>1091.323</ele>
        <time>2021-03-23T08:09:53Z</time>
      </trkpt>
      <trkpt lat="42.79505" lon="1.73561">
        <ele>1091.59</ele>
        <time>2021-03-23T08:09:55Z</time>
      </trkpt>
      <trkpt lat="42.79506" lon="1.73561">
        <ele>1092.107</ele>
        <time>2021-03-23T08:09:57Z</time>
      </trkpt>
      <trkpt lat="42.79506" lon="1.7356">
        <ele>1092.824</ele>
        <time>2021-03-23T08:09:59Z</time>
      </trkpt>
      <trkpt lat="42.79507" lon="1.73558">
        <ele>1093.659</ele>
        <time>2021-03-23T08:10:01Z</time>
      </trkpt>
      <trkpt lat="42.79508" lon="1.73557">
        <ele>1093.853</ele>
        <time>2021-03-23T08:10:03Z</time>
      </trkpt>
      <trkpt lat="42.79509" lon="1.73557">
        <ele>1093.081</ele>
        <time>2021-03-23T08:10:05Z</time>
      </trkpt>
      <trkpt lat="42.7951" lon="1.73556">
        <ele>1092.955</ele>
        <time>2021-03-23T08:10:07Z</time>
      </trkpt>
      <trkpt lat="42.79511" lon="1.73554">
        <ele>1094.081</ele>
        <time>2021-03-23T08:10:09Z</time>
      </trkpt>
      <trkpt lat="42.79512" lon="1.73553">
        <ele>1094.623</ele>
        <time>2021-03-23T08:10:11Z</time>
      </trkpt>
      <trkpt lat="42.79514" lon="1.73553">
        <ele>1094.548</ele>
        <time>2021-03-23T08:10:13Z</time>
      </trkpt>
      <trkpt lat="42.79515" lon="1.73554">
        <ele>1094.581</ele>
        <time>2021-03-23T08:10:15Z</time>
      </trkpt>
      <trkpt lat="42.79515" lon="1.73555">
        <ele>1094.667</ele>
        <time>2021-03-23T08:10:17Z</time>
      </trkpt>
      <trkpt lat="42.79516" lon="1.73556">
        <ele>1094.151</ele>
        <time>2021-03-23T08:10:19Z</time>
      </trkpt>
      <trkpt lat="42.79517" lon="1.73556">
        <ele>1093.79</ele>
        <time>2021-03-23T08:10:21Z</time>
      </trkpt>
      <trkpt lat="42.79518" lon="1.73556">
        <ele>1094.41</ele>
        <time>2021-03-23T08:10:23Z</time>
      </trkpt>
      <trkpt lat="42.79519" lon="1.73556">
        <ele>1095.239</ele>
        <time>2021-03-23T08:10:25Z</time>
      </trkpt>
      <trkpt lat="42.7952" lon="1.73555">
        <ele>1094.781</ele>
        <time>2021-03-23T08:10:27Z</time>
      </trkpt>
      <trkpt lat="42.79521" lon="1.73554">
        <ele>1095.25</ele>
        <time>2021-03-23T08:10:29Z</time>
      </trkpt>
      <trkpt lat="42.79522" lon="1.73553">
        <ele>1095.758</ele>
        <time>2021-03-23T08:10:31Z</time>
      </trkpt>
      <trkpt lat="42.79523" lon="1.73552">
        <ele>1095.787</ele>
        <time>2021-03-23T08:10:33Z</time>
      </trkpt>
      <trkpt lat="42.79524" lon="1.73551">
        <ele>1095.873</ele>
        <time>2021-03-23T08:10:35Z</time>
      </trkpt>
      <trkpt lat="42.79525" lon="1.7355">
        <ele>1096.833</ele>
        <time>2021-03-23T08:10:37Z</time>
      </trkpt>
      <trkpt lat="42.79526" lon="1.73549">
        <ele>1096.487</ele>
        <time>2021-03-23T08:10:39Z</time>
      </trkpt>
      <trkpt lat="42.79527" lon="1.73547">
        <ele>1096.792</ele>
        <time>2021-03-23T08:10:41Z</time>
      </trkpt>
      <trkpt lat="42.79527" lon="1.73546">
        <ele>1097.211</ele>
        <time>2021-03-23T08:10:43Z</time>
      </trkpt>
      <trkpt lat="42.79528" lon="1.73545">
        <ele>1097.998</ele>
        <time>2021-03-23T08:10:45Z</time>
      </trkpt>
      <trkpt lat="42.79529" lon="1.73544">
        <ele>1098.725</ele>
        <time>2021-03-23T08:10:47Z</time>
      </trkpt>
      <trkpt lat="42.7953" lon="1.73543">
        <ele>1099.723</ele>
        <time>2021-03-23T08:10:49Z</time>
      </trkpt>
      <trkpt lat="42.79531" lon="1.73542">
        <ele>1099.643</ele>
        <time>2021-03-23T08:10:51Z</time>
      </trkpt>
      <trkpt lat="42.79532" lon="1.73541">
        <ele>1098.996</ele>
        <time>2021-03-23T08:10:53Z</time>
      </trkpt>
      <trkpt lat="42.79532" lon="1.73539">
        <ele>1099.532</ele>
        <time>2021-03-23T08:10:55Z</time>
      </trkpt>
      <trkpt lat="42.79533" lon="1.73538">
        <ele>1099.857</ele>
        <time>2021-03-23T08:10:57Z</time>
      </trkpt>
      <trkpt lat="42.79534" lon="1.73537">
        <ele>1098.996</ele>
        <time>2021-03-23T08:10:59Z</time>
      </trkpt>
      <trkpt lat="42.79535" lon="1.73537">
        <ele>1100.258</ele>
        <time>2021-03-23T08:11:01Z</time>
      </trkpt>
      <trkpt lat="42.79536" lon="1.73538">
        <ele>1100.95</ele>
        <time>2021-03-23T08:11:03Z</time>
      </trkpt>
      <trkpt lat="42.79537" lon="1.73539">
        <ele>1101.59</ele>
        <time>2021-03-23T08:11:05Z</time>
      </trkpt>
      <trkpt lat="42.79537" lon="1.73541">
        <ele>1102.105</ele>
        <time>2021-03-23T08:11:07Z</time>
      </trkpt>
      <trkpt lat="42.79537" lon="1.73543">
        <ele>1102.498</ele>
        <time>2021-03-23T08:11:09Z</time>
      </trkpt>
      <trkpt lat="42.79537" lon="1.73545">
        <ele>1103.485</ele>
        <time>2021-03-23T08:11:11Z</time>
      </trkpt>
      <trkpt lat="42.79537" lon="1.73547">
        <ele>1104.146</ele>
        <time>2021-03-23T08:11:13Z</time>
      </trkpt>
      <trkpt lat="42.79537" lon="1.73548">
        <ele>1103.937</ele>
        <time>2021-03-23T08:11:15Z</time>
      </trkpt>
      <trkpt lat="42.79536" lon="1.73549">
        <ele>1104.764</ele>
        <time>2021-03-23T08:11:17Z</time>
      </trkpt>
      <trkpt lat="42.79537" lon="1.7355">
        <ele>1104.356</ele>
        <time>2021-03-23T08:11:19Z</time>
      </trkpt>
      <trkpt lat="42.79537" lon="1.73552">
        <ele>1105.044</ele>
        <time>2021-03-23T08:11:21Z</time>
      </trkpt>
      <trkpt lat="42.79536" lon="1.73554">
        <ele>1105.896</ele>
        <time>2021-03-23T08:11:23Z</time>
      </trkpt>
      <trkpt lat="42.79536" lon="1.73555">
        <ele>1105.968</ele>
        <time>2021-03-23T08:11:25Z</time>
      </trkpt>
      <trkpt lat="42.79537" lon="1.73557">
        <ele>1105.779</ele>
        <time>2021-03-23T08:11:27Z</time>
      </trkpt>
      <trkpt lat="42.79537" lon="1.73559">
        <ele>1106.963</ele>
        <time>2021-03-23T08:11:29Z</time>
      </trkpt>
      <trkpt lat="42.79538" lon="1.7356">
        <ele>1107.5</ele>
        <time>2021-03-23T08:11:31Z</time>
      </trkpt>
      <trkpt lat="42.79538" lon="1.73561">
        <ele>1107.943</ele>
        <time>2021-03-23T08:11:33Z</time>
      </trkpt>
      <trkpt lat="42.79538" lon="1.73563">
        <ele>1107.875</ele>
        <time>2021-03-23T08:11:35Z</time>
      </trkpt>
      <trkpt lat="42.79538" lon="1.73564">
        <ele>1107.86</ele>
        <time>2021-03-23T08:11:37Z</time>
      </trkpt>
      <trkpt lat="42.79538" lon="1.73566">
        <ele>1108.322</ele>
        <time>2021-03-23T08:11:39Z</time>
      </trkpt>
      <trkpt lat="42.79538" lon="1.73567">
        <ele>1108.82</ele>
        <time>2021-03-23T08:11:41Z</time>
      </trkpt>
      <trkpt lat="42.7954" lon="1.73567">
        <ele>1109.097</ele>
        <time>2021-03-23T08:11:43Z</time>
      </trkpt>
      <trkpt lat="42.7954" lon="1.73566">
        <ele>1109.774</ele>
        <time>2021-03-23T08:11:45Z</time>
      </trkpt>
      <trkpt lat="42.79541" lon="1.73565">
        <ele>1109.787</ele>
        <time>2021-03-23T08:11:47Z</time>
      </trkpt>
      <trkpt lat="42.79542" lon="1.73564">
        <ele>1110.214</ele>
        <time>2021-03-23T08:11:49Z</time>
      </trkpt>
      <trkpt lat="42.79543" lon="1.73564">
        <ele>1110.299</ele>
        <time>2021-03-23T08:11:51Z</time>
      </trkpt>
      <trkpt lat="42.79543" lon="1.73566">
        <ele>1110.921</ele>
        <time>2021-03-23T08:11:53Z</time>
      </trkpt>
      <trkpt lat="42.79544" lon="1.73567">
        <ele>1111.192</ele>
        <time>2021-03-23T08:11:55Z</time>
      </trkpt>
      <trkpt lat="42.79544" lon="1.73568">
        <ele>1111.433</ele>
        <time>2021-03-23T08:11:57Z</time>
      </trkpt>
      <trkpt lat="42.79545" lon="1.73568">
        <ele>1112.382</ele>
        <time>2021-03-23T08:11:59Z</time>
      </trkpt>
      <trkpt lat="42.79546" lon="1.7357">
        <ele>1113.075</ele>
        <time>2021-03-23T08:12:01Z</time>
      </trkpt>
      <trkpt lat="42.79546" lon="1.73571">
        <ele>1113.463</ele>
        <time>2021-03-23T08:12:03Z</time>
      </trkpt>
      <trkpt lat="42.79547" lon="1.73573">
        <ele>1113.798</ele>
        <time>2021-03-23T08:12:05Z</time>
      </trkpt>
      <trkpt lat="42.79548" lon="1.73574">
        <ele>1114.176</ele>
        <time>2021-03-23T08:12:07Z</time>
      </trkpt>
      <trkpt lat="42.79548" lon="1.73575">
        <ele>1114.381</ele>
        <time>2021-03-23T08:12:09Z</time>
      </trkpt>
      <trkpt lat="42.79549" lon="1.73576">
        <ele>1115.513</ele>
        <time>2021-03-23T08:12:11Z</time>
      </trkpt>
      <trkpt lat="42.7955" lon="1.73578">
        <ele>1115.405</ele>
        <time>2021-03-23T08:12:13Z</time>
      </trkpt>
      <trkpt lat="42.7955" lon="1.73579">
        <ele>1115.692</ele>
        <time>2021-03-23T08:12:15Z</time>
      </trkpt>
      <trkpt lat="42.79551" lon="1.7358">
        <ele>1116.439</ele>
        <time>2021-03-23T08:12:17Z</time>
      </trkpt>
      <trkpt lat="42.79552" lon="1.73581">
        <ele>1117.1</ele>
        <time>2021-03-23T08:12:19Z</time>
      </trkpt>
      <trkpt lat="42.79552" lon="1.73582">
        <ele>1117.808</ele>
        <time>2021-03-23T08:12:21Z</time>
      </trkpt>
      <trkpt lat="42.79553" lon="1.73584">
        <ele>1118.445</ele>
        <time>2021-03-23T08:12:23Z</time>
      </trkpt>
      <trkpt lat="42.79553" lon="1.73585">
        <ele>1118.368</ele>
        <time>2021-03-23T08:12:25Z</time>
      </trkpt>
      <trkpt lat="42.79553" lon="1.73587">
        <ele>1118.269</ele>
        <time>2021-03-23T08:12:27Z</time>
      </trkpt>
      <trkpt lat="42.79553" lon="1.73588">
        <ele>1118.292</ele>
        <time>2021-03-23T08:12:29Z</time>
      </trkpt>
      <trkpt lat="42.79554" lon="1.73589">
        <ele>1118.482</ele>
        <time>2021-03-23T08:12:31Z</time>
      </trkpt>
      <trkpt lat="42.79554" lon="1.73591">
        <ele>1118.774</ele>
        <time>2021-03-23T08:12:33Z</time>
      </trkpt>
      <trkpt lat="42.79555" lon="1.73592">
        <ele>1119.081</ele>
        <time>2021-03-23T08:12:35Z</time>
      </trkpt>
      <trkpt lat="42.79556" lon="1.73593">
        <ele>1119.848</ele>
        <time>2021-03-23T08:12:37Z</time>
      </trkpt>
      <trkpt lat="42.79556" lon="1.73594">
        <ele>1119.15</ele>
        <time>2021-03-23T08:12:39Z</time>
      </trkpt>
      <trkpt lat="42.79556" lon="1.73596">
        <ele>1118.802</ele>
        <time>2021-03-23T08:12:41Z</time>
      </trkpt>
      <trkpt lat="42.79556" lon="1.73597">
        <ele>1119.211</ele>
        <time>2021-03-23T08:12:43Z</time>
      </trkpt>
      <trkpt lat="42.79556" lon="1.73598">
        <ele>1118.967</ele>
        <time>2021-03-23T08:12:45Z</time>
      </trkpt>
      <trkpt lat="42.79556" lon="1.73599">
        <ele>1119.695</ele>
        <time>2021-03-23T08:12:47Z</time>
      </trkpt>
      <trkpt lat="42.79556" lon="1.73601">
        <ele>1119.612</ele>
        <time>2021-03-23T08:12:49Z</time>
      </trkpt>
      <trkpt lat="42.79557" lon="1.73604">
        <ele>1119.139</ele>
        <time>2021-03-23T08:12:52Z</time>
      </trkpt>
      <trkpt lat="42.79556" lon="1.73605">
        <ele>1119.483</ele>
        <time>2021-03-23T08:12:54Z</time>
      </trkpt>
      <trkpt lat="42.79556" lon="1.73607">
        <ele>1119.842</ele>
        <time>2021-03-23T08:12:56Z</time>
      </trkpt>
      <trkpt lat="42.79556" lon="1.73608">
        <ele>1119.995</ele>
        <time>2021-03-23T08:12:58Z</time>
      </trkpt>
      <trkpt lat="42.79555" lon="1.7361">
        <ele>1120.744</ele>
        <time>2021-03-23T08:13:00Z</time>
      </trkpt>
      <trkpt lat="42.79556" lon="1.73612">
        <ele>1120.166</ele>
        <time>2021-03-23T08:13:02Z</time>
      </trkpt>
      <trkpt lat="42.79556" lon="1.73614">
        <ele>1120.266</ele>
        <time>2021-03-23T08:13:04Z</time>
      </trkpt>
      <trkpt lat="42.79556" lon="1.73616">
        <ele>1120.866</ele>
        <time>2021-03-23T08:13:06Z</time>
      </trkpt>
      <trkpt lat="42.79556" lon="1.73617">
        <ele>1121.609</ele>
        <time>2021-03-23T08:13:08Z</time>
      </trkpt>
      <trkpt lat="42.79556" lon="1.73618">
        <ele>1121.888</ele>
        <time>2021-03-23T08:13:10Z</time>
      </trkpt>
      <trkpt lat="42.79556" lon="1.7362">
        <ele>1121.981</ele>
        <time>2021-03-23T08:13:12Z</time>
      </trkpt>
      <trkpt lat="42.79556" lon="1.73622">
        <ele>1121.219</ele>
        <time>2021-03-23T08:13:14Z</time>
      </trkpt>
      <trkpt lat="42.79556" lon="1.73624">
        <ele>1120.251</ele>
        <time>2021-03-23T08:13:16Z</time>
      </trkpt>
      <trkpt lat="42.79556" lon="1.73624">
        <ele>1119.673</ele>
        <time>2021-03-23T08:13:18Z</time>
      </trkpt>
      <trkpt lat="42.79557" lon="1.73625">
        <ele>1120.459</ele>
        <time>2021-03-23T08:13:20Z</time>
      </trkpt>
      <trkpt lat="42.79558" lon="1.73625">
        <ele>1119.864</ele>
        <time>2021-03-23T08:13:22Z</time>
      </trkpt>
      <trkpt lat="42.79559" lon="1.73626">
        <ele>1119.964</ele>
        <time>2021-03-23T08:13:24Z</time>
      </trkpt>
      <trkpt lat="42.79559" lon="1.73628">
        <ele>1120.485</ele>
        <time>2021-03-23T08:13:26Z</time>
      </trkpt>
      <trkpt lat="42.7956" lon="1.73628">
        <ele>1120.433</ele>
        <time>2021-03-23T08:13:28Z</time>
      </trkpt>
      <trkpt lat="42.79561" lon="1.73629">
        <ele>1121.031</ele>
        <time>2021-03-23T08:13:30Z</time>
      </trkpt>
      <trkpt lat="42.79561" lon="1.73631">
        <ele>1121.087</ele>
        <time>2021-03-23T08:13:32Z</time>
      </trkpt>
      <trkpt lat="42.79561" lon="1.73632">
        <ele>1120.994</ele>
        <time>2021-03-23T08:13:34Z</time>
      </trkpt>
      <trkpt lat="42.7956" lon="1.73634">
        <ele>1121.299</ele>
        <time>2021-03-23T08:13:36Z</time>
      </trkpt>
      <trkpt lat="42.7956" lon="1.73635">
        <ele>1121.886</ele>
        <time>2021-03-23T08:13:38Z</time>
      </trkpt>
      <trkpt lat="42.7956" lon="1.73636">
        <ele>1121.851</ele>
        <time>2021-03-23T08:13:40Z</time>
      </trkpt>
      <trkpt lat="42.7956" lon="1.73638">
        <ele>1122.529</ele>
        <time>2021-03-23T08:13:42Z</time>
      </trkpt>
      <trkpt lat="42.7956" lon="1.73639">
        <ele>1122.466</ele>
        <time>2021-03-23T08:13:44Z</time>
      </trkpt>
      <trkpt lat="42.79558" lon="1.7364">
        <ele>1123.418</ele>
        <time>2021-03-23T08:13:46Z</time>
      </trkpt>
      <trkpt lat="42.79557" lon="1.73641">
        <ele>1124.686</ele>
        <time>2021-03-23T08:13:48Z</time>
      </trkpt>
      <trkpt lat="42.79556" lon="1.73643">
        <ele>1125.732</ele>
        <time>2021-03-23T08:13:50Z</time>
      </trkpt>
      <trkpt lat="42.79556" lon="1.73645">
        <ele>1126.715</ele>
        <time>2021-03-23T08:13:52Z</time>
      </trkpt>
      <trkpt lat="42.79556" lon="1.73647">
        <ele>1126.331</ele>
        <time>2021-03-23T08:13:54Z</time>
      </trkpt>
      <trkpt lat="42.79556" lon="1.73649">
        <ele>1126.607</ele>
        <time>2021-03-23T08:13:56Z</time>
      </trkpt>
      <trkpt lat="42.79556" lon="1.73651">
        <ele>1127.018</ele>
        <time>2021-03-23T08:13:58Z</time>
      </trkpt>
      <trkpt lat="42.79556" lon="1.73652">
        <ele>1127.637</ele>
        <time>2021-03-23T08:14:00Z</time>
      </trkpt>
      <trkpt lat="42.79556" lon="1.73654">
        <ele>1127.887</ele>
        <time>2021-03-23T08:14:02Z</time>
      </trkpt>
      <trkpt lat="42.79555" lon="1.73655">
        <ele>1128.486</ele>
        <time>2021-03-23T08:14:04Z</time>
      </trkpt>
      <trkpt lat="42.79555" lon="1.73655">
        <ele>1128.406</ele>
        <time>2021-03-23T08:14:06Z</time>
      </trkpt>
      <trkpt lat="42.79555" lon="1.73655">
        <ele>1128.397</ele>
        <time>2021-03-23T08:14:08Z</time>
      </trkpt>
      <trkpt lat="42.79555" lon="1.73655">
        <ele>1128.397</ele>
        <time>2021-03-23T08:14:10Z</time>
      </trkpt>
      <trkpt lat="42.79555" lon="1.73655">
        <ele>1128.397</ele>
        <time>2021-03-23T08:14:12Z</time>
      </trkpt>
      <trkpt lat="42.79555" lon="1.73655">
        <ele>1128.402</ele>
        <time>2021-03-23T08:14:14Z</time>
      </trkpt>
      <trkpt lat="42.79555" lon="1.73655">
        <ele>1128.407</ele>
        <time>2021-03-23T08:14:16Z</time>
      </trkpt>
      <trkpt lat="42.79555" lon="1.73655">
        <ele>1128.146</ele>
        <time>2021-03-23T08:14:18Z</time>
      </trkpt>
      <trkpt lat="42.79554" lon="1.73654">
        <ele>1128.825</ele>
        <time>2021-03-23T08:14:20Z</time>
      </trkpt>
      <trkpt lat="42.79554" lon="1.73654">
        <ele>1128.833</ele>
        <time>2021-03-23T08:14:22Z</time>
      </trkpt>
      <trkpt lat="42.79554" lon="1.73654">
        <ele>1128.838</ele>
        <time>2021-03-23T08:14:24Z</time>
      </trkpt>
      <trkpt lat="42.79554" lon="1.73654">
        <ele>1128.843</ele>
        <time>2021-03-23T08:14:26Z</time>
      </trkpt>
      <trkpt lat="42.79554" lon="1.73654">
        <ele>1128.852</ele>
        <time>2021-03-23T08:14:28Z</time>
      </trkpt>
      <trkpt lat="42.79554" lon="1.73654">
        <ele>1129.455</ele>
        <time>2021-03-23T08:14:30Z</time>
      </trkpt>
      <trkpt lat="42.79554" lon="1.73654">
        <ele>1129.471</ele>
        <time>2021-03-23T08:14:32Z</time>
      </trkpt>
      <trkpt lat="42.79553" lon="1.73656">
        <ele>1130.775</ele>
        <time>2021-03-23T08:14:34Z</time>
      </trkpt>
      <trkpt lat="42.79553" lon="1.73657">
        <ele>1131.026</ele>
        <time>2021-03-23T08:14:36Z</time>
      </trkpt>
      <trkpt lat="42.79553" lon="1.73659">
        <ele>1131.32</ele>
        <time>2021-03-23T08:14:38Z</time>
      </trkpt>
      <trkpt lat="42.79553" lon="1.7366">
        <ele>1131.271</ele>
        <time>2021-03-23T08:14:40Z</time>
      </trkpt>
      <trkpt lat="42.79554" lon="1.73661">
        <ele>1131.334</ele>
        <time>2021-03-23T08:14:42Z</time>
      </trkpt>
      <trkpt lat="42.79554" lon="1.73662">
        <ele>1131.245</ele>
        <time>2021-03-23T08:14:44Z</time>
      </trkpt>
      <trkpt lat="42.79554" lon="1.73662">
        <ele>1130.71</ele>
        <time>2021-03-23T08:14:46Z</time>
      </trkpt>
      <trkpt lat="42.79554" lon="1.73662">
        <ele>1130.639</ele>
        <time>2021-03-23T08:14:48Z</time>
      </trkpt>
      <trkpt lat="42.79554" lon="1.73665">
        <ele>1131.471</ele>
        <time>2021-03-23T08:14:50Z</time>
      </trkpt>
      <trkpt lat="42.79554" lon="1.73666">
        <ele>1132.132</ele>
        <time>2021-03-23T08:14:52Z</time>
      </trkpt>
      <trkpt lat="42.79554" lon="1.73668">
        <ele>1132.241</ele>
        <time>2021-03-23T08:14:54Z</time>
      </trkpt>
      <trkpt lat="42.79554" lon="1.7367">
        <ele>1132.532</ele>
        <time>2021-03-23T08:14:56Z</time>
      </trkpt>
      <trkpt lat="42.79554" lon="1.73672">
        <ele>1132.572</ele>
        <time>2021-03-23T08:14:58Z</time>
      </trkpt>
      <trkpt lat="42.79554" lon="1.73672">
        <ele>1133.357</ele>
        <time>2021-03-23T08:15:00Z</time>
      </trkpt>
      <trkpt lat="42.79552" lon="1.73672">
        <ele>1134.612</ele>
        <time>2021-03-23T08:15:02Z</time>
      </trkpt>
      <trkpt lat="42.79551" lon="1.73674">
        <ele>1134.443</ele>
        <time>2021-03-23T08:15:04Z</time>
      </trkpt>
      <trkpt lat="42.79551" lon="1.73676">
        <ele>1134.282</ele>
        <time>2021-03-23T08:15:06Z</time>
      </trkpt>
      <trkpt lat="42.79551" lon="1.73678">
        <ele>1134.745</ele>
        <time>2021-03-23T08:15:08Z</time>
      </trkpt>
      <trkpt lat="42.79551" lon="1.7368">
        <ele>1135.288</ele>
        <time>2021-03-23T08:15:10Z</time>
      </trkpt>
      <trkpt lat="42.79551" lon="1.73682">
        <ele>1135.339</ele>
        <time>2021-03-23T08:15:12Z</time>
      </trkpt>
      <trkpt lat="42.79551" lon="1.73682">
        <ele>1135.541</ele>
        <time>2021-03-23T08:15:14Z</time>
      </trkpt>
      <trkpt lat="42.79551" lon="1.73684">
        <ele>1135.846</ele>
        <time>2021-03-23T08:15:16Z</time>
      </trkpt>
      <trkpt lat="42.79551" lon="1.73684">
        <ele>1135.216</ele>
        <time>2021-03-23T08:15:18Z</time>
      </trkpt>
      <trkpt lat="42.79551" lon="1.73685">
        <ele>1135.124</ele>
        <time>2021-03-23T08:15:20Z</time>
      </trkpt>
      <trkpt lat="42.79551" lon="1.73685">
        <ele>1135.123</ele>
        <time>2021-03-23T08:15:22Z</time>
      </trkpt>
      <trkpt lat="42.79551" lon="1.73685">
        <ele>1135.129</ele>
        <time>2021-03-23T08:15:24Z</time>
      </trkpt>
      <trkpt lat="42.79551" lon="1.73685">
        <ele>1135.129</ele>
        <time>2021-03-23T08:15:26Z</time>
      </trkpt>
      <trkpt lat="42.79551" lon="1.73685">
        <ele>1135.143</ele>
        <time>2021-03-23T08:15:28Z</time>
      </trkpt>
      <trkpt lat="42.79551" lon="1.73685">
        <ele>1135.157</ele>
        <time>2021-03-23T08:15:30Z</time>
      </trkpt>
      <trkpt lat="42.79551" lon="1.73685">
        <ele>1135.142</ele>
        <time>2021-03-23T08:15:32Z</time>
      </trkpt>
      <trkpt lat="42.79551" lon="1.73685">
        <ele>1135.127</ele>
        <time>2021-03-23T08:15:34Z</time>
      </trkpt>
      <trkpt lat="42.79551" lon="1.73685">
        <ele>1135.134</ele>
        <time>2021-03-23T08:15:36Z</time>
      </trkpt>
      <trkpt lat="42.79551" lon="1.73685">
        <ele>1135.144</ele>
        <time>2021-03-23T08:15:38Z</time>
      </trkpt>
      <trkpt lat="42.79551" lon="1.73685">
        <ele>1135.139</ele>
        <time>2021-03-23T08:15:40Z</time>
      </trkpt>
      <trkpt lat="42.79551" lon="1.73685">
        <ele>1135.759</ele>
        <time>2021-03-23T08:15:42Z</time>
      </trkpt>
      <trkpt lat="42.79551" lon="1.73685">
        <ele>1135.76</ele>
        <time>2021-03-23T08:15:44Z</time>
      </trkpt>
      <trkpt lat="42.79551" lon="1.73685">
        <ele>1135.76</ele>
        <time>2021-03-23T08:15:46Z</time>
      </trkpt>
      <trkpt lat="42.79551" lon="1.73685">
        <ele>1135.76</ele>
        <time>2021-03-23T08:15:48Z</time>
      </trkpt>
      <trkpt lat="42.79551" lon="1.73685">
        <ele>1135.697</ele>
        <time>2021-03-23T08:15:50Z</time>
      </trkpt>
      <trkpt lat="42.79551" lon="1.73685">
        <ele>1136.314</ele>
        <time>2021-03-23T08:15:52Z</time>
      </trkpt>
      <trkpt lat="42.79551" lon="1.73685">
        <ele>1136.339</ele>
        <time>2021-03-23T08:15:54Z</time>
      </trkpt>
      <trkpt lat="42.79551" lon="1.73685">
        <ele>1136.335</ele>
        <time>2021-03-23T08:15:56Z</time>
      </trkpt>
      <trkpt lat="42.79551" lon="1.73685">
        <ele>1136.341</ele>
        <time>2021-03-23T08:15:58Z</time>
      </trkpt>
      <trkpt lat="42.79551" lon="1.73685">
        <ele>1136.342</ele>
        <time>2021-03-23T08:16:00Z</time>
      </trkpt>
      <trkpt lat="42.79551" lon="1.73685">
        <ele>1136.183</ele>
        <time>2021-03-23T08:16:02Z</time>
      </trkpt>
      <trkpt lat="42.79551" lon="1.73685">
        <ele>1136.22</ele>
        <time>2021-03-23T08:16:04Z</time>
      </trkpt>
      <trkpt lat="42.79551" lon="1.73685">
        <ele>1136.22</ele>
        <time>2021-03-23T08:16:06Z</time>
      </trkpt>
      <trkpt lat="42.79551" lon="1.73685">
        <ele>1136.223</ele>
        <time>2021-03-23T08:16:08Z</time>
      </trkpt>
      <trkpt lat="42.79551" lon="1.73686">
        <ele>1136.193</ele>
        <time>2021-03-23T08:16:10Z</time>
      </trkpt>
      <trkpt lat="42.79551" lon="1.73685">
        <ele>1136.188</ele>
        <time>2021-03-23T08:16:12Z</time>
      </trkpt>
      <trkpt lat="42.79551" lon="1.73685">
        <ele>1136.188</ele>
        <time>2021-03-23T08:16:14Z</time>
      </trkpt>
      <trkpt lat="42.79551" lon="1.73685">
        <ele>1136.182</ele>
        <time>2021-03-23T08:16:16Z</time>
      </trkpt>
      <trkpt lat="42.7955" lon="1.73686">
        <ele>1136.297</ele>
        <time>2021-03-23T08:16:18Z</time>
      </trkpt>
      <trkpt lat="42.7955" lon="1.73686">
        <ele>1136.299</ele>
        <time>2021-03-23T08:16:20Z</time>
      </trkpt>
      <trkpt lat="42.7955" lon="1.73686">
        <ele>1136.154</ele>
        <time>2021-03-23T08:16:22Z</time>
      </trkpt>
      <trkpt lat="42.7955" lon="1.73686">
        <ele>1136.12</ele>
        <time>2021-03-23T08:16:24Z</time>
      </trkpt>
      <trkpt lat="42.79549" lon="1.73687">
        <ele>1135.601</ele>
        <time>2021-03-23T08:16:26Z</time>
      </trkpt>
      <trkpt lat="42.79549" lon="1.73687">
        <ele>1135.658</ele>
        <time>2021-03-23T08:16:28Z</time>
      </trkpt>
      <trkpt lat="42.79549" lon="1.73687">
        <ele>1135.613</ele>
        <time>2021-03-23T08:16:30Z</time>
      </trkpt>
      <trkpt lat="42.79549" lon="1.73688">
        <ele>1135.479</ele>
        <time>2021-03-23T08:16:32Z</time>
      </trkpt>
      <trkpt lat="42.79549" lon="1.73688">
        <ele>1135.462</ele>
        <time>2021-03-23T08:16:34Z</time>
      </trkpt>
      <trkpt lat="42.79549" lon="1.73688">
        <ele>1135.464</ele>
        <time>2021-03-23T08:16:36Z</time>
      </trkpt>
      <trkpt lat="42.79549" lon="1.73688">
        <ele>1135.47</ele>
        <time>2021-03-23T08:16:38Z</time>
      </trkpt>
      <trkpt lat="42.79549" lon="1.73688">
        <ele>1135.467</ele>
        <time>2021-03-23T08:16:40Z</time>
      </trkpt>
      <trkpt lat="42.79549" lon="1.73688">
        <ele>1135.838</ele>
        <time>2021-03-23T08:16:42Z</time>
      </trkpt>
      <trkpt lat="42.7955" lon="1.73689">
        <ele>1136.558</ele>
        <time>2021-03-23T08:16:44Z</time>
      </trkpt>
      <trkpt lat="42.7955" lon="1.7369">
        <ele>1136.917</ele>
        <time>2021-03-23T08:16:46Z</time>
      </trkpt>
      <trkpt lat="42.7955" lon="1.73692">
        <ele>1136.894</ele>
        <time>2021-03-23T08:16:48Z</time>
      </trkpt>
      <trkpt lat="42.79549" lon="1.73694">
        <ele>1137.173</ele>
        <time>2021-03-23T08:16:50Z</time>
      </trkpt>
      <trkpt lat="42.79549" lon="1.73696">
        <ele>1137.346</ele>
        <time>2021-03-23T08:16:52Z</time>
      </trkpt>
      <trkpt lat="42.79548" lon="1.73698">
        <ele>1137.981</ele>
        <time>2021-03-23T08:16:54Z</time>
      </trkpt>
      <trkpt lat="42.79548" lon="1.73699">
        <ele>1138.323</ele>
        <time>2021-03-23T08:16:56Z</time>
      </trkpt>
      <trkpt lat="42.79547" lon="1.73701">
        <ele>1139.101</ele>
        <time>2021-03-23T08:16:58Z</time>
      </trkpt>
      <trkpt lat="42.79546" lon="1.73703">
        <ele>1139.264</ele>
        <time>2021-03-23T08:17:00Z</time>
      </trkpt>
      <trkpt lat="42.79545" lon="1.73705">
        <ele>1139.381</ele>
        <time>2021-03-23T08:17:02Z</time>
      </trkpt>
      <trkpt lat="42.79544" lon="1.73705">
        <ele>1140.176</ele>
        <time>2021-03-23T08:17:04Z</time>
      </trkpt>
      <trkpt lat="42.79544" lon="1.73706">
        <ele>1140.125</ele>
        <time>2021-03-23T08:17:06Z</time>
      </trkpt>
      <trkpt lat="42.79545" lon="1.73707">
        <ele>1138.919</ele>
        <time>2021-03-23T08:17:08Z</time>
      </trkpt>
      <trkpt lat="42.79545" lon="1.73707">
        <ele>1138.042</ele>
        <time>2021-03-23T08:17:10Z</time>
      </trkpt>
      <trkpt lat="42.79547" lon="1.73709">
        <ele>1137.346</ele>
        <time>2021-03-23T08:17:12Z</time>
      </trkpt>
      <trkpt lat="42.79547" lon="1.73711">
        <ele>1136.669</ele>
        <time>2021-03-23T08:17:14Z</time>
      </trkpt>
      <trkpt lat="42.79546" lon="1.73713">
        <ele>1136.702</ele>
        <time>2021-03-23T08:17:16Z</time>
      </trkpt>
      <trkpt lat="42.79545" lon="1.73715">
        <ele>1137.509</ele>
        <time>2021-03-23T08:17:18Z</time>
      </trkpt>
      <trkpt lat="42.79545" lon="1.73717">
        <ele>1137.259</ele>
        <time>2021-03-23T08:17:20Z</time>
      </trkpt>
      <trkpt lat="42.79544" lon="1.73719">
        <ele>1138.054</ele>
        <time>2021-03-23T08:17:22Z</time>
      </trkpt>
      <trkpt lat="42.79544" lon="1.73721">
        <ele>1138.143</ele>
        <time>2021-03-23T08:17:24Z</time>
      </trkpt>
      <trkpt lat="42.79543" lon="1.73722">
        <ele>1138.65</ele>
        <time>2021-03-23T08:17:26Z</time>
      </trkpt>
      <trkpt lat="42.79543" lon="1.73724">
        <ele>1138.921</ele>
        <time>2021-03-23T08:17:28Z</time>
      </trkpt>
      <trkpt lat="42.79542" lon="1.73725">
        <ele>1139.333</ele>
        <time>2021-03-23T08:17:30Z</time>
      </trkpt>
      <trkpt lat="42.79541" lon="1.73727">
        <ele>1140.678</ele>
        <time>2021-03-23T08:17:32Z</time>
      </trkpt>
      <trkpt lat="42.79541" lon="1.73729">
        <ele>1141.686</ele>
        <time>2021-03-23T08:17:34Z</time>
      </trkpt>
      <trkpt lat="42.7954" lon="1.73731">
        <ele>1142.893</ele>
        <time>2021-03-23T08:17:36Z</time>
      </trkpt>
      <trkpt lat="42.79539" lon="1.73732">
        <ele>1144.282</ele>
        <time>2021-03-23T08:17:38Z</time>
      </trkpt>
      <trkpt lat="42.79538" lon="1.73734">
        <ele>1144.527</ele>
        <time>2021-03-23T08:17:40Z</time>
      </trkpt>
      <trkpt lat="42.79537" lon="1.73735">
        <ele>1145.487</ele>
        <time>2021-03-23T08:17:42Z</time>
      </trkpt>
      <trkpt lat="42.79536" lon="1.73737">
        <ele>1146.694</ele>
        <time>2021-03-23T08:17:44Z</time>
      </trkpt>
      <trkpt lat="42.79535" lon="1.73738">
        <ele>1146.748</ele>
        <time>2021-03-23T08:17:46Z</time>
      </trkpt>
      <trkpt lat="42.79535" lon="1.7374">
        <ele>1146.651</ele>
        <time>2021-03-23T08:17:48Z</time>
      </trkpt>
      <trkpt lat="42.79534" lon="1.73741">
        <ele>1147.131</ele>
        <time>2021-03-23T08:17:50Z</time>
      </trkpt>
      <trkpt lat="42.79533" lon="1.73742">
        <ele>1148.145</ele>
        <time>2021-03-23T08:17:52Z</time>
      </trkpt>
      <trkpt lat="42.79533" lon="1.73744">
        <ele>1148.571</ele>
        <time>2021-03-23T08:17:54Z</time>
      </trkpt>
      <trkpt lat="42.79532" lon="1.73746">
        <ele>1148.923</ele>
        <time>2021-03-23T08:17:56Z</time>
      </trkpt>
      <trkpt lat="42.79531" lon="1.73748">
        <ele>1149.623</ele>
        <time>2021-03-23T08:17:58Z</time>
      </trkpt>
      <trkpt lat="42.79531" lon="1.7375">
        <ele>1150.743</ele>
        <time>2021-03-23T08:18:00Z</time>
      </trkpt>
      <trkpt lat="42.7953" lon="1.73752">
        <ele>1150.72</ele>
        <time>2021-03-23T08:18:02Z</time>
      </trkpt>
      <trkpt lat="42.79529" lon="1.73754">
        <ele>1150.648</ele>
        <time>2021-03-23T08:18:04Z</time>
      </trkpt>
      <trkpt lat="42.79529" lon="1.73755">
        <ele>1151.054</ele>
        <time>2021-03-23T08:18:06Z</time>
      </trkpt>
      <trkpt lat="42.79528" lon="1.73757">
        <ele>1151.167</ele>
        <time>2021-03-23T08:18:08Z</time>
      </trkpt>
      <trkpt lat="42.79528" lon="1.73759">
        <ele>1150.953</ele>
        <time>2021-03-23T08:18:10Z</time>
      </trkpt>
      <trkpt lat="42.79527" lon="1.7376">
        <ele>1150.819</ele>
        <time>2021-03-23T08:18:12Z</time>
      </trkpt>
      <trkpt lat="42.79526" lon="1.73762">
        <ele>1151.007</ele>
        <time>2021-03-23T08:18:14Z</time>
      </trkpt>
      <trkpt lat="42.79525" lon="1.73764">
        <ele>1151.308</ele>
        <time>2021-03-23T08:18:16Z</time>
      </trkpt>
      <trkpt lat="42.79525" lon="1.73766">
        <ele>1151.795</ele>
        <time>2021-03-23T08:18:18Z</time>
      </trkpt>
      <trkpt lat="42.79524" lon="1.73768">
        <ele>1151.766</ele>
        <time>2021-03-23T08:18:20Z</time>
      </trkpt>
      <trkpt lat="42.79524" lon="1.73769">
        <ele>1152.091</ele>
        <time>2021-03-23T08:18:22Z</time>
      </trkpt>
      <trkpt lat="42.79523" lon="1.73771">
        <ele>1152.032</ele>
        <time>2021-03-23T08:18:24Z</time>
      </trkpt>
      <trkpt lat="42.79522" lon="1.73773">
        <ele>1152.305</ele>
        <time>2021-03-23T08:18:26Z</time>
      </trkpt>
      <trkpt lat="42.79521" lon="1.73776">
        <ele>1153.804</ele>
        <time>2021-03-23T08:18:28Z</time>
      </trkpt>
      <trkpt lat="42.7952" lon="1.73778">
        <ele>1154.18</ele>
        <time>2021-03-23T08:18:30Z</time>
      </trkpt>
      <trkpt lat="42.7952" lon="1.7378">
        <ele>1154.35</ele>
        <time>2021-03-23T08:18:32Z</time>
      </trkpt>
      <trkpt lat="42.7952" lon="1.73782">
        <ele>1155.092</ele>
        <time>2021-03-23T08:18:34Z</time>
      </trkpt>
      <trkpt lat="42.7952" lon="1.73784">
        <ele>1154.94</ele>
        <time>2021-03-23T08:18:36Z</time>
      </trkpt>
      <trkpt lat="42.7952" lon="1.73786">
        <ele>1155.427</ele>
        <time>2021-03-23T08:18:38Z</time>
      </trkpt>
      <trkpt lat="42.7952" lon="1.73788">
        <ele>1155.793</ele>
        <time>2021-03-23T08:18:40Z</time>
      </trkpt>
      <trkpt lat="42.79521" lon="1.7379">
        <ele>1156.074</ele>
        <time>2021-03-23T08:18:42Z</time>
      </trkpt>
      <trkpt lat="42.79522" lon="1.73791">
        <ele>1156.42</ele>
        <time>2021-03-23T08:18:44Z</time>
      </trkpt>
      <trkpt lat="42.79523" lon="1.73793">
        <ele>1156.914</ele>
        <time>2021-03-23T08:18:46Z</time>
      </trkpt>
      <trkpt lat="42.79523" lon="1.73795">
        <ele>1158.334</ele>
        <time>2021-03-23T08:18:48Z</time>
      </trkpt>
      <trkpt lat="42.79524" lon="1.73797">
        <ele>1158.819</ele>
        <time>2021-03-23T08:18:50Z</time>
      </trkpt>
      <trkpt lat="42.79525" lon="1.73798">
        <ele>1158.829</ele>
        <time>2021-03-23T08:18:52Z</time>
      </trkpt>
      <trkpt lat="42.79526" lon="1.738">
        <ele>1159.132</ele>
        <time>2021-03-23T08:18:54Z</time>
      </trkpt>
      <trkpt lat="42.79526" lon="1.73802">
        <ele>1159.393</ele>
        <time>2021-03-23T08:18:56Z</time>
      </trkpt>
      <trkpt lat="42.79526" lon="1.73804">
        <ele>1159.681</ele>
        <time>2021-03-23T08:18:58Z</time>
      </trkpt>
      <trkpt lat="42.79527" lon="1.73806">
        <ele>1158.772</ele>
        <time>2021-03-23T08:19:00Z</time>
      </trkpt>
      <trkpt lat="42.79527" lon="1.73808">
        <ele>1158.798</ele>
        <time>2021-03-23T08:19:02Z</time>
      </trkpt>
      <trkpt lat="42.79527" lon="1.7381">
        <ele>1160.401</ele>
        <time>2021-03-23T08:19:04Z</time>
      </trkpt>
      <trkpt lat="42.79528" lon="1.73813">
        <ele>1160.768</ele>
        <time>2021-03-23T08:19:06Z</time>
      </trkpt>
      <trkpt lat="42.79528" lon="1.73814">
        <ele>1161.402</ele>
        <time>2021-03-23T08:19:08Z</time>
      </trkpt>
      <trkpt lat="42.79528" lon="1.73816">
        <ele>1161.233</ele>
        <time>2021-03-23T08:19:10Z</time>
      </trkpt>
      <trkpt lat="42.79528" lon="1.73819">
        <ele>1162.39</ele>
        <time>2021-03-23T08:19:12Z</time>
      </trkpt>
      <trkpt lat="42.79528" lon="1.73821">
        <ele>1162.799</ele>
        <time>2021-03-23T08:19:14Z</time>
      </trkpt>
      <trkpt lat="42.79529" lon="1.73823">
        <ele>1162.933</ele>
        <time>2021-03-23T08:19:16Z</time>
      </trkpt>
      <trkpt lat="42.7953" lon="1.73825">
        <ele>1163.72</ele>
        <time>2021-03-23T08:19:18Z</time>
      </trkpt>
      <trkpt lat="42.7953" lon="1.73827">
        <ele>1164.567</ele>
        <time>2021-03-23T08:19:20Z</time>
      </trkpt>
      <trkpt lat="42.7953" lon="1.73829">
        <ele>1165.39</ele>
        <time>2021-03-23T08:19:22Z</time>
      </trkpt>
      <trkpt lat="42.7953" lon="1.73831">
        <ele>1164.89</ele>
        <time>2021-03-23T08:19:24Z</time>
      </trkpt>
      <trkpt lat="42.79531" lon="1.73833">
        <ele>1165.957</ele>
        <time>2021-03-23T08:19:26Z</time>
      </trkpt>
      <trkpt lat="42.79531" lon="1.73834">
        <ele>1166.54</ele>
        <time>2021-03-23T08:19:28Z</time>
      </trkpt>
      <trkpt lat="42.79532" lon="1.73836">
        <ele>1167.202</ele>
        <time>2021-03-23T08:19:30Z</time>
      </trkpt>
      <trkpt lat="42.79532" lon="1.73838">
        <ele>1167.988</ele>
        <time>2021-03-23T08:19:32Z</time>
      </trkpt>
      <trkpt lat="42.79532" lon="1.73841">
        <ele>1168.384</ele>
        <time>2021-03-23T08:19:34Z</time>
      </trkpt>
      <trkpt lat="42.79533" lon="1.73843">
        <ele>1169.181</ele>
        <time>2021-03-23T08:19:36Z</time>
      </trkpt>
      <trkpt lat="42.79533" lon="1.73844">
        <ele>1169.319</ele>
        <time>2021-03-23T08:19:38Z</time>
      </trkpt>
      <trkpt lat="42.79533" lon="1.73846">
        <ele>1169.463</ele>
        <time>2021-03-23T08:19:40Z</time>
      </trkpt>
      <trkpt lat="42.79533" lon="1.73848">
        <ele>1170.374</ele>
        <time>2021-03-23T08:19:42Z</time>
      </trkpt>
      <trkpt lat="42.79533" lon="1.7385">
        <ele>1170.541</ele>
        <time>2021-03-23T08:19:44Z</time>
      </trkpt>
      <trkpt lat="42.79533" lon="1.73852">
        <ele>1171.276</ele>
        <time>2021-03-23T08:19:46Z</time>
      </trkpt>
      <trkpt lat="42.79534" lon="1.73854">
        <ele>1171.669</ele>
        <time>2021-03-23T08:19:48Z</time>
      </trkpt>
      <trkpt lat="42.79533" lon="1.73856">
        <ele>1171.933</ele>
        <time>2021-03-23T08:19:50Z</time>
      </trkpt>
      <trkpt lat="42.79532" lon="1.73858">
        <ele>1171.962</ele>
        <time>2021-03-23T08:19:52Z</time>
      </trkpt>
      <trkpt lat="42.79532" lon="1.7386">
        <ele>1171.724</ele>
        <time>2021-03-23T08:19:54Z</time>
      </trkpt>
      <trkpt lat="42.79532" lon="1.73862">
        <ele>1172.446</ele>
        <time>2021-03-23T08:19:56Z</time>
      </trkpt>
      <trkpt lat="42.79532" lon="1.73863">
        <ele>1173.236</ele>
        <time>2021-03-23T08:19:58Z</time>
      </trkpt>
      <trkpt lat="42.79531" lon="1.73866">
        <ele>1173.41</ele>
        <time>2021-03-23T08:20:00Z</time>
      </trkpt>
      <trkpt lat="42.79532" lon="1.73867">
        <ele>1173.495</ele>
        <time>2021-03-23T08:20:02Z</time>
      </trkpt>
      <trkpt lat="42.79531" lon="1.73869">
        <ele>1173.973</ele>
        <time>2021-03-23T08:20:04Z</time>
      </trkpt>
      <trkpt lat="42.79531" lon="1.73871">
        <ele>1174.393</ele>
        <time>2021-03-23T08:20:06Z</time>
      </trkpt>
      <trkpt lat="42.7953" lon="1.73873">
        <ele>1175.345</ele>
        <time>2021-03-23T08:20:08Z</time>
      </trkpt>
      <trkpt lat="42.7953" lon="1.73876">
        <ele>1175.723</ele>
        <time>2021-03-23T08:20:10Z</time>
      </trkpt>
      <trkpt lat="42.79529" lon="1.73877">
        <ele>1176.443</ele>
        <time>2021-03-23T08:20:12Z</time>
      </trkpt>
      <trkpt lat="42.79529" lon="1.7388">
        <ele>1177.106</ele>
        <time>2021-03-23T08:20:14Z</time>
      </trkpt>
      <trkpt lat="42.79528" lon="1.73882">
        <ele>1176.774</ele>
        <time>2021-03-23T08:20:16Z</time>
      </trkpt>
      <trkpt lat="42.79528" lon="1.73884">
        <ele>1177.533</ele>
        <time>2021-03-23T08:20:18Z</time>
      </trkpt>
      <trkpt lat="42.79527" lon="1.73886">
        <ele>1177.977</ele>
        <time>2021-03-23T08:20:20Z</time>
      </trkpt>
      <trkpt lat="42.79525" lon="1.7389">
        <ele>1180.106</ele>
        <time>2021-03-23T08:20:22Z</time>
      </trkpt>
      <trkpt lat="42.79524" lon="1.73893">
        <ele>1182.268</ele>
        <time>2021-03-23T08:20:24Z</time>
      </trkpt>
      <trkpt lat="42.79523" lon="1.73895">
        <ele>1182.767</ele>
        <time>2021-03-23T08:20:26Z</time>
      </trkpt>
      <trkpt lat="42.79522" lon="1.73896">
        <ele>1182.228</ele>
        <time>2021-03-23T08:20:28Z</time>
      </trkpt>
      <trkpt lat="42.79522" lon="1.73898">
        <ele>1182.465</ele>
        <time>2021-03-23T08:20:30Z</time>
      </trkpt>
      <trkpt lat="42.79521" lon="1.73899">
        <ele>1182.457</ele>
        <time>2021-03-23T08:20:32Z</time>
      </trkpt>
      <trkpt lat="42.79521" lon="1.73901">
        <ele>1182.38</ele>
        <time>2021-03-23T08:20:34Z</time>
      </trkpt>
      <trkpt lat="42.7952" lon="1.73902">
        <ele>1182.007</ele>
        <time>2021-03-23T08:20:36Z</time>
      </trkpt>
      <trkpt lat="42.7952" lon="1.73904">
        <ele>1182.425</ele>
        <time>2021-03-23T08:20:38Z</time>
      </trkpt>
      <trkpt lat="42.7952" lon="1.73906">
        <ele>1182.038</ele>
        <time>2021-03-23T08:20:40Z</time>
      </trkpt>
      <trkpt lat="42.79521" lon="1.73908">
        <ele>1182.663</ele>
        <time>2021-03-23T08:20:42Z</time>
      </trkpt>
      <trkpt lat="42.79521" lon="1.73909">
        <ele>1183.086</ele>
        <time>2021-03-23T08:20:44Z</time>
      </trkpt>
      <trkpt lat="42.79521" lon="1.7391">
        <ele>1183.411</ele>
        <time>2021-03-23T08:20:46Z</time>
      </trkpt>
      <trkpt lat="42.79522" lon="1.73911">
        <ele>1183.382</ele>
        <time>2021-03-23T08:20:48Z</time>
      </trkpt>
      <trkpt lat="42.79522" lon="1.73911">
        <ele>1183.918</ele>
        <time>2021-03-23T08:20:50Z</time>
      </trkpt>
      <trkpt lat="42.79522" lon="1.73911">
        <ele>1183.787</ele>
        <time>2021-03-23T08:20:52Z</time>
      </trkpt>
      <trkpt lat="42.79519" lon="1.73912">
        <ele>1184.402</ele>
        <time>2021-03-23T08:20:54Z</time>
      </trkpt>
      <trkpt lat="42.79519" lon="1.73912">
        <ele>1184.236</ele>
        <time>2021-03-23T08:20:56Z</time>
      </trkpt>
      <trkpt lat="42.79519" lon="1.73912">
        <ele>1184.238</ele>
        <time>2021-03-23T08:20:58Z</time>
      </trkpt>
      <trkpt lat="42.79519" lon="1.73912">
        <ele>1184.237</ele>
        <time>2021-03-23T08:21:00Z</time>
      </trkpt>
      <trkpt lat="42.79519" lon="1.73912">
        <ele>1184.233</ele>
        <time>2021-03-23T08:21:02Z</time>
      </trkpt>
      <trkpt lat="42.79519" lon="1.73912">
        <ele>1184.226</ele>
        <time>2021-03-23T08:21:04Z</time>
      </trkpt>
      <trkpt lat="42.79519" lon="1.73912">
        <ele>1184.224</ele>
        <time>2021-03-23T08:21:06Z</time>
      </trkpt>
      <trkpt lat="42.79519" lon="1.73913">
        <ele>1184.218</ele>
        <time>2021-03-23T08:21:08Z</time>
      </trkpt>
      <trkpt lat="42.7952" lon="1.73913">
        <ele>1184.927</ele>
        <time>2021-03-23T08:21:10Z</time>
      </trkpt>
      <trkpt lat="42.7952" lon="1.73914">
        <ele>1185.163</ele>
        <time>2021-03-23T08:21:12Z</time>
      </trkpt>
      <trkpt lat="42.79521" lon="1.73916">
        <ele>1185.313</ele>
        <time>2021-03-23T08:21:14Z</time>
      </trkpt>
      <trkpt lat="42.79521" lon="1.73917">
        <ele>1185.504</ele>
        <time>2021-03-23T08:21:16Z</time>
      </trkpt>
      <trkpt lat="42.79521" lon="1.73919">
        <ele>1186.045</ele>
        <time>2021-03-23T08:21:18Z</time>
      </trkpt>
      <trkpt lat="42.79521" lon="1.73921">
        <ele>1185.967</ele>
        <time>2021-03-23T08:21:20Z</time>
      </trkpt>
      <trkpt lat="42.79521" lon="1.73922">
        <ele>1185.855</ele>
        <time>2021-03-23T08:21:22Z</time>
      </trkpt>
      <trkpt lat="42.79521" lon="1.73923">
        <ele>1186.17</ele>
        <time>2021-03-23T08:21:24Z</time>
      </trkpt>
      <trkpt lat="42.79521" lon="1.73924">
        <ele>1186.045</ele>
        <time>2021-03-23T08:21:26Z</time>
      </trkpt>
      <trkpt lat="42.79521" lon="1.73925">
        <ele>1186.145</ele>
        <time>2021-03-23T08:21:28Z</time>
      </trkpt>
      <trkpt lat="42.79521" lon="1.73926">
        <ele>1185.724</ele>
        <time>2021-03-23T08:21:30Z</time>
      </trkpt>
      <trkpt lat="42.79521" lon="1.73926">
        <ele>1186.731</ele>
        <time>2021-03-23T08:21:32Z</time>
      </trkpt>
      <trkpt lat="42.79521" lon="1.73926">
        <ele>1186.741</ele>
        <time>2021-03-23T08:21:34Z</time>
      </trkpt>
      <trkpt lat="42.79521" lon="1.73927">
        <ele>1186.963</ele>
        <time>2021-03-23T08:21:36Z</time>
      </trkpt>
      <trkpt lat="42.7952" lon="1.73928">
        <ele>1187.249</ele>
        <time>2021-03-23T08:21:39Z</time>
      </trkpt>
      <trkpt lat="42.79519" lon="1.73929">
        <ele>1186.898</ele>
        <time>2021-03-23T08:21:41Z</time>
      </trkpt>
      <trkpt lat="42.79519" lon="1.73931">
        <ele>1187.147</ele>
        <time>2021-03-23T08:21:43Z</time>
      </trkpt>
      <trkpt lat="42.79518" lon="1.73933">
        <ele>1187.288</ele>
        <time>2021-03-23T08:21:45Z</time>
      </trkpt>
      <trkpt lat="42.79518" lon="1.73935">
        <ele>1187.605</ele>
        <time>2021-03-23T08:21:47Z</time>
      </trkpt>
      <trkpt lat="42.79519" lon="1.73937">
        <ele>1187.278</ele>
        <time>2021-03-23T08:21:49Z</time>
      </trkpt>
      <trkpt lat="42.79519" lon="1.73939">
        <ele>1186.53</ele>
        <time>2021-03-23T08:21:51Z</time>
      </trkpt>
      <trkpt lat="42.79518" lon="1.73946">
        <ele>1188.358</ele>
        <time>2021-03-23T08:21:53Z</time>
      </trkpt>
      <trkpt lat="42.79517" lon="1.73949">
        <ele>1188.762</ele>
        <time>2021-03-23T08:21:55Z</time>
      </trkpt>
      <trkpt lat="42.79519" lon="1.73949">
        <ele>1188.185</ele>
        <time>2021-03-23T08:21:57Z</time>
      </trkpt>
      <trkpt lat="42.79518" lon="1.73948">
        <ele>1188.981</ele>
        <time>2021-03-23T08:21:59Z</time>
      </trkpt>
      <trkpt lat="42.79518" lon="1.73947">
        <ele>1188.76</ele>
        <time>2021-03-23T08:22:01Z</time>
      </trkpt>
      <trkpt lat="42.79518" lon="1.73948">
        <ele>1188.192</ele>
        <time>2021-03-23T08:22:03Z</time>
      </trkpt>
      <trkpt lat="42.79518" lon="1.73948">
        <ele>1188.383</ele>
        <time>2021-03-23T08:22:05Z</time>
      </trkpt>
      <trkpt lat="42.79518" lon="1.73948">
        <ele>1188.38</ele>
        <time>2021-03-23T08:22:07Z</time>
      </trkpt>
      <trkpt lat="42.79518" lon="1.73948">
        <ele>1188.377</ele>
        <time>2021-03-23T08:22:09Z</time>
      </trkpt>
      <trkpt lat="42.79518" lon="1.73948">
        <ele>1188.373</ele>
        <time>2021-03-23T08:22:11Z</time>
      </trkpt>
      <trkpt lat="42.79518" lon="1.73948">
        <ele>1188.052</ele>
        <time>2021-03-23T08:22:13Z</time>
      </trkpt>
      <trkpt lat="42.79518" lon="1.73949">
        <ele>1188.173</ele>
        <time>2021-03-23T08:22:15Z</time>
      </trkpt>
      <trkpt lat="42.79518" lon="1.73949">
        <ele>1188.519</ele>
        <time>2021-03-23T08:22:17Z</time>
      </trkpt>
      <trkpt lat="42.79518" lon="1.7395">
        <ele>1188.456</ele>
        <time>2021-03-23T08:22:19Z</time>
      </trkpt>
      <trkpt lat="42.79518" lon="1.73952">
        <ele>1188.223</ele>
        <time>2021-03-23T08:22:21Z</time>
      </trkpt>
      <trkpt lat="42.79519" lon="1.73953">
        <ele>1188.415</ele>
        <time>2021-03-23T08:22:23Z</time>
      </trkpt>
      <trkpt lat="42.79519" lon="1.73955">
        <ele>1188.598</ele>
        <time>2021-03-23T08:22:25Z</time>
      </trkpt>
      <trkpt lat="42.79519" lon="1.73956">
        <ele>1189.068</ele>
        <time>2021-03-23T08:22:27Z</time>
      </trkpt>
      <trkpt lat="42.79518" lon="1.73957">
        <ele>1189.301</ele>
        <time>2021-03-23T08:22:29Z</time>
      </trkpt>
      <trkpt lat="42.79518" lon="1.73957">
        <ele>1189.294</ele>
        <time>2021-03-23T08:22:31Z</time>
      </trkpt>
      <trkpt lat="42.79518" lon="1.73957">
        <ele>1189.299</ele>
        <time>2021-03-23T08:22:33Z</time>
      </trkpt>
      <trkpt lat="42.79518" lon="1.73958">
        <ele>1189.24</ele>
        <time>2021-03-23T08:22:35Z</time>
      </trkpt>
      <trkpt lat="42.79518" lon="1.73958">
        <ele>1189.244</ele>
        <time>2021-03-23T08:22:37Z</time>
      </trkpt>
      <trkpt lat="42.79518" lon="1.73958">
        <ele>1189.246</ele>
        <time>2021-03-23T08:22:39Z</time>
      </trkpt>
      <trkpt lat="42.79518" lon="1.73959">
        <ele>1189.215</ele>
        <time>2021-03-23T08:22:41Z</time>
      </trkpt>
      <trkpt lat="42.79518" lon="1.73958">
        <ele>1189.38</ele>
        <time>2021-03-23T08:22:43Z</time>
      </trkpt>
      <trkpt lat="42.79519" lon="1.73959">
        <ele>1189.869</ele>
        <time>2021-03-23T08:22:45Z</time>
      </trkpt>
      <trkpt lat="42.7952" lon="1.73961">
        <ele>1190.277</ele>
        <time>2021-03-23T08:22:47Z</time>
      </trkpt>
      <trkpt lat="42.79522" lon="1.73962">
        <ele>1190.362</ele>
        <time>2021-03-23T08:22:49Z</time>
      </trkpt>
      <trkpt lat="42.79523" lon="1.73963">
        <ele>1190.951</ele>
        <time>2021-03-23T08:22:51Z</time>
      </trkpt>
      <trkpt lat="42.79524" lon="1.73964">
        <ele>1191.111</ele>
        <time>2021-03-23T08:22:53Z</time>
      </trkpt>
      <trkpt lat="42.79525" lon="1.73966">
        <ele>1191.216</ele>
        <time>2021-03-23T08:22:55Z</time>
      </trkpt>
      <trkpt lat="42.79526" lon="1.73966">
        <ele>1191.63</ele>
        <time>2021-03-23T08:22:57Z</time>
      </trkpt>
      <trkpt lat="42.79526" lon="1.73968">
        <ele>1191.458</ele>
        <time>2021-03-23T08:22:59Z</time>
      </trkpt>
      <trkpt lat="42.79527" lon="1.73969">
        <ele>1191.592</ele>
        <time>2021-03-23T08:23:01Z</time>
      </trkpt>
      <trkpt lat="42.79528" lon="1.7397">
        <ele>1192.868</ele>
        <time>2021-03-23T08:23:03Z</time>
      </trkpt>
      <trkpt lat="42.79529" lon="1.73971">
        <ele>1193.086</ele>
        <time>2021-03-23T08:23:05Z</time>
      </trkpt>
      <trkpt lat="42.79531" lon="1.73973">
        <ele>1192.996</ele>
        <time>2021-03-23T08:23:07Z</time>
      </trkpt>
      <trkpt lat="42.79532" lon="1.73973">
        <ele>1193.114</ele>
        <time>2021-03-23T08:23:09Z</time>
      </trkpt>
      <trkpt lat="42.79534" lon="1.73973">
        <ele>1193.727</ele>
        <time>2021-03-23T08:23:11Z</time>
      </trkpt>
      <trkpt lat="42.79535" lon="1.73973">
        <ele>1193.841</ele>
        <time>2021-03-23T08:23:13Z</time>
      </trkpt>
      <trkpt lat="42.79536" lon="1.73972">
        <ele>1194.607</ele>
        <time>2021-03-23T08:23:15Z</time>
      </trkpt>
      <trkpt lat="42.79537" lon="1.7397">
        <ele>1195.129</ele>
        <time>2021-03-23T08:23:17Z</time>
      </trkpt>
      <trkpt lat="42.79538" lon="1.73969">
        <ele>1195.68</ele>
        <time>2021-03-23T08:23:19Z</time>
      </trkpt>
      <trkpt lat="42.7954" lon="1.73968">
        <ele>1196.03</ele>
        <time>2021-03-23T08:23:21Z</time>
      </trkpt>
      <trkpt lat="42.79541" lon="1.73966">
        <ele>1196.584</ele>
        <time>2021-03-23T08:23:23Z</time>
      </trkpt>
      <trkpt lat="42.79542" lon="1.73965">
        <ele>1196.753</ele>
        <time>2021-03-23T08:23:25Z</time>
      </trkpt>
      <trkpt lat="42.79544" lon="1.73964">
        <ele>1197.956</ele>
        <time>2021-03-23T08:23:27Z</time>
      </trkpt>
      <trkpt lat="42.79544" lon="1.73963">
        <ele>1197.987</ele>
        <time>2021-03-23T08:23:29Z</time>
      </trkpt>
      <trkpt lat="42.79545" lon="1.73962">
        <ele>1198.848</ele>
        <time>2021-03-23T08:23:31Z</time>
      </trkpt>
      <trkpt lat="42.79547" lon="1.7396">
        <ele>1199.466</ele>
        <time>2021-03-23T08:23:33Z</time>
      </trkpt>
      <trkpt lat="42.79548" lon="1.7396">
        <ele>1199.897</ele>
        <time>2021-03-23T08:23:35Z</time>
      </trkpt>
      <trkpt lat="42.79548" lon="1.73959">
        <ele>1200.321</ele>
        <time>2021-03-23T08:23:37Z</time>
      </trkpt>
      <trkpt lat="42.79549" lon="1.73958">
        <ele>1200.854</ele>
        <time>2021-03-23T08:23:39Z</time>
      </trkpt>
      <trkpt lat="42.7955" lon="1.73957">
        <ele>1201.584</ele>
        <time>2021-03-23T08:23:41Z</time>
      </trkpt>
      <trkpt lat="42.79551" lon="1.73955">
        <ele>1201.767</ele>
        <time>2021-03-23T08:23:43Z</time>
      </trkpt>
      <trkpt lat="42.79552" lon="1.73954">
        <ele>1201.91</ele>
        <time>2021-03-23T08:23:45Z</time>
      </trkpt>
      <trkpt lat="42.79553" lon="1.73952">
        <ele>1203.007</ele>
        <time>2021-03-23T08:23:47Z</time>
      </trkpt>
      <trkpt lat="42.79554" lon="1.7395">
        <ele>1203.633</ele>
        <time>2021-03-23T08:23:49Z</time>
      </trkpt>
      <trkpt lat="42.79555" lon="1.7395">
        <ele>1203.509</ele>
        <time>2021-03-23T08:23:51Z</time>
      </trkpt>
      <trkpt lat="42.79556" lon="1.73949">
        <ele>1203.517</ele>
        <time>2021-03-23T08:23:53Z</time>
      </trkpt>
      <trkpt lat="42.79558" lon="1.73948">
        <ele>1204.228</ele>
        <time>2021-03-23T08:23:55Z</time>
      </trkpt>
      <trkpt lat="42.7956" lon="1.73947">
        <ele>1204.624</ele>
        <time>2021-03-23T08:23:57Z</time>
      </trkpt>
      <trkpt lat="42.79561" lon="1.73946">
        <ele>1205.068</ele>
        <time>2021-03-23T08:23:59Z</time>
      </trkpt>
      <trkpt lat="42.79561" lon="1.73944">
        <ele>1205.767</ele>
        <time>2021-03-23T08:24:01Z</time>
      </trkpt>
      <trkpt lat="42.79562" lon="1.73943">
        <ele>1205.925</ele>
        <time>2021-03-23T08:24:03Z</time>
      </trkpt>
      <trkpt lat="42.79564" lon="1.73942">
        <ele>1206.389</ele>
        <time>2021-03-23T08:24:05Z</time>
      </trkpt>
      <trkpt lat="42.79565" lon="1.73942">
        <ele>1206.951</ele>
        <time>2021-03-23T08:24:07Z</time>
      </trkpt>
      <trkpt lat="42.79567" lon="1.73943">
        <ele>1207.32</ele>
        <time>2021-03-23T08:24:09Z</time>
      </trkpt>
      <trkpt lat="42.79568" lon="1.73943">
        <ele>1207.62</ele>
        <time>2021-03-23T08:24:11Z</time>
      </trkpt>
      <trkpt lat="42.79569" lon="1.73943">
        <ele>1207.704</ele>
        <time>2021-03-23T08:24:13Z</time>
      </trkpt>
      <trkpt lat="42.7957" lon="1.73943">
        <ele>1208.863</ele>
        <time>2021-03-23T08:24:15Z</time>
      </trkpt>
      <trkpt lat="42.79572" lon="1.73943">
        <ele>1209.342</ele>
        <time>2021-03-23T08:24:17Z</time>
      </trkpt>
      <trkpt lat="42.79573" lon="1.73943">
        <ele>1208.7</ele>
        <time>2021-03-23T08:24:19Z</time>
      </trkpt>
      <trkpt lat="42.79573" lon="1.73945">
        <ele>1208.788</ele>
        <time>2021-03-23T08:24:21Z</time>
      </trkpt>
      <trkpt lat="42.79574" lon="1.73946">
        <ele>1207.938</ele>
        <time>2021-03-23T08:24:23Z</time>
      </trkpt>
      <trkpt lat="42.79574" lon="1.73947">
        <ele>1208.048</ele>
        <time>2021-03-23T08:24:25Z</time>
      </trkpt>
      <trkpt lat="42.79575" lon="1.73948">
        <ele>1206.953</ele>
        <time>2021-03-23T08:24:27Z</time>
      </trkpt>
      <trkpt lat="42.79576" lon="1.7395">
        <ele>1207.62</ele>
        <time>2021-03-23T08:24:29Z</time>
      </trkpt>
      <trkpt lat="42.79577" lon="1.73952">
        <ele>1207.697</ele>
        <time>2021-03-23T08:24:31Z</time>
      </trkpt>
      <trkpt lat="42.79578" lon="1.73953">
        <ele>1207.562</ele>
        <time>2021-03-23T08:24:33Z</time>
      </trkpt>
      <trkpt lat="42.79578" lon="1.73954">
        <ele>1208.246</ele>
        <time>2021-03-23T08:24:35Z</time>
      </trkpt>
      <trkpt lat="42.79579" lon="1.73956">
        <ele>1209.168</ele>
        <time>2021-03-23T08:24:37Z</time>
      </trkpt>
      <trkpt lat="42.7958" lon="1.73957">
        <ele>1210.036</ele>
        <time>2021-03-23T08:24:39Z</time>
      </trkpt>
      <trkpt lat="42.79581" lon="1.73958">
        <ele>1210.231</ele>
        <time>2021-03-23T08:24:41Z</time>
      </trkpt>
      <trkpt lat="42.79583" lon="1.73959">
        <ele>1209.815</ele>
        <time>2021-03-23T08:24:43Z</time>
      </trkpt>
      <trkpt lat="42.79583" lon="1.73961">
        <ele>1209.865</ele>
        <time>2021-03-23T08:24:45Z</time>
      </trkpt>
      <trkpt lat="42.79584" lon="1.73963">
        <ele>1209.887</ele>
        <time>2021-03-23T08:24:47Z</time>
      </trkpt>
      <trkpt lat="42.79585" lon="1.73963">
        <ele>1210.135</ele>
        <time>2021-03-23T08:24:49Z</time>
      </trkpt>
      <trkpt lat="42.79586" lon="1.73964">
        <ele>1210.157</ele>
        <time>2021-03-23T08:24:51Z</time>
      </trkpt>
      <trkpt lat="42.79587" lon="1.73965">
        <ele>1210.555</ele>
        <time>2021-03-23T08:24:53Z</time>
      </trkpt>
      <trkpt lat="42.79589" lon="1.73966">
        <ele>1210.636</ele>
        <time>2021-03-23T08:24:55Z</time>
      </trkpt>
      <trkpt lat="42.7959" lon="1.73966">
        <ele>1210.619</ele>
        <time>2021-03-23T08:24:57Z</time>
      </trkpt>
      <trkpt lat="42.79591" lon="1.73966">
        <ele>1210.509</ele>
        <time>2021-03-23T08:24:59Z</time>
      </trkpt>
      <trkpt lat="42.79593" lon="1.73966">
        <ele>1210.497</ele>
        <time>2021-03-23T08:25:01Z</time>
      </trkpt>
      <trkpt lat="42.79594" lon="1.73966">
        <ele>1210.485</ele>
        <time>2021-03-23T08:25:03Z</time>
      </trkpt>
      <trkpt lat="42.79596" lon="1.73966">
        <ele>1210.808</ele>
        <time>2021-03-23T08:25:05Z</time>
      </trkpt>
      <trkpt lat="42.79597" lon="1.73967">
        <ele>1211.084</ele>
        <time>2021-03-23T08:25:07Z</time>
      </trkpt>
      <trkpt lat="42.79599" lon="1.73967">
        <ele>1211.718</ele>
        <time>2021-03-23T08:25:09Z</time>
      </trkpt>
      <trkpt lat="42.796" lon="1.73968">
        <ele>1211.949</ele>
        <time>2021-03-23T08:25:11Z</time>
      </trkpt>
      <trkpt lat="42.79602" lon="1.73968">
        <ele>1212.365</ele>
        <time>2021-03-23T08:25:13Z</time>
      </trkpt>
      <trkpt lat="42.79603" lon="1.73968">
        <ele>1212.402</ele>
        <time>2021-03-23T08:25:15Z</time>
      </trkpt>
      <trkpt lat="42.79605" lon="1.73969">
        <ele>1213.116</ele>
        <time>2021-03-23T08:25:17Z</time>
      </trkpt>
      <trkpt lat="42.79606" lon="1.73968">
        <ele>1213.28</ele>
        <time>2021-03-23T08:25:19Z</time>
      </trkpt>
      <trkpt lat="42.79608" lon="1.73967">
        <ele>1214.682</ele>
        <time>2021-03-23T08:25:21Z</time>
      </trkpt>
      <trkpt lat="42.79609" lon="1.73967">
        <ele>1215.643</ele>
        <time>2021-03-23T08:25:23Z</time>
      </trkpt>
      <trkpt lat="42.79611" lon="1.73967">
        <ele>1216.678</ele>
        <time>2021-03-23T08:25:25Z</time>
      </trkpt>
      <trkpt lat="42.79612" lon="1.73967">
        <ele>1216.896</ele>
        <time>2021-03-23T08:25:27Z</time>
      </trkpt>
      <trkpt lat="42.79613" lon="1.73966">
        <ele>1217.036</ele>
        <time>2021-03-23T08:25:29Z</time>
      </trkpt>
      <trkpt lat="42.79615" lon="1.73967">
        <ele>1216.974</ele>
        <time>2021-03-23T08:25:31Z</time>
      </trkpt>
      <trkpt lat="42.79616" lon="1.73968">
        <ele>1217.308</ele>
        <time>2021-03-23T08:25:33Z</time>
      </trkpt>
      <trkpt lat="42.79617" lon="1.73969">
        <ele>1217.038</ele>
        <time>2021-03-23T08:25:35Z</time>
      </trkpt>
      <trkpt lat="42.79618" lon="1.73969">
        <ele>1217.083</ele>
        <time>2021-03-23T08:25:37Z</time>
      </trkpt>
      <trkpt lat="42.79619" lon="1.7397">
        <ele>1216.84</ele>
        <time>2021-03-23T08:25:39Z</time>
      </trkpt>
      <trkpt lat="42.7962" lon="1.73972">
        <ele>1217.678</ele>
        <time>2021-03-23T08:25:41Z</time>
      </trkpt>
      <trkpt lat="42.79621" lon="1.73973">
        <ele>1218.191</ele>
        <time>2021-03-23T08:25:43Z</time>
      </trkpt>
      <trkpt lat="42.79622" lon="1.73974">
        <ele>1218.572</ele>
        <time>2021-03-23T08:25:45Z</time>
      </trkpt>
      <trkpt lat="42.79623" lon="1.73975">
        <ele>1218.979</ele>
        <time>2021-03-23T08:25:47Z</time>
      </trkpt>
      <trkpt lat="42.79625" lon="1.73976">
        <ele>1219.417</ele>
        <time>2021-03-23T08:25:49Z</time>
      </trkpt>
      <trkpt lat="42.79626" lon="1.73977">
        <ele>1218.79</ele>
        <time>2021-03-23T08:25:51Z</time>
      </trkpt>
      <trkpt lat="42.79628" lon="1.73978">
        <ele>1219.213</ele>
        <time>2021-03-23T08:25:53Z</time>
      </trkpt>
      <trkpt lat="42.79629" lon="1.73979">
        <ele>1219.192</ele>
        <time>2021-03-23T08:25:55Z</time>
      </trkpt>
      <trkpt lat="42.79631" lon="1.7398">
        <ele>1219.231</ele>
        <time>2021-03-23T08:25:57Z</time>
      </trkpt>
      <trkpt lat="42.79632" lon="1.73981">
        <ele>1219.408</ele>
        <time>2021-03-23T08:25:59Z</time>
      </trkpt>
      <trkpt lat="42.79633" lon="1.73982">
        <ele>1220.013</ele>
        <time>2021-03-23T08:26:01Z</time>
      </trkpt>
      <trkpt lat="42.79635" lon="1.73983">
        <ele>1221.208</ele>
        <time>2021-03-23T08:26:03Z</time>
      </trkpt>
      <trkpt lat="42.79637" lon="1.73984">
        <ele>1221.033</ele>
        <time>2021-03-23T08:26:05Z</time>
      </trkpt>
      <trkpt lat="42.79638" lon="1.73985">
        <ele>1221.207</ele>
        <time>2021-03-23T08:26:07Z</time>
      </trkpt>
      <trkpt lat="42.79639" lon="1.73986">
        <ele>1220.955</ele>
        <time>2021-03-23T08:26:09Z</time>
      </trkpt>
      <trkpt lat="42.79641" lon="1.73987">
        <ele>1222.604</ele>
        <time>2021-03-23T08:26:11Z</time>
      </trkpt>
      <trkpt lat="42.79642" lon="1.73988">
        <ele>1222.662</ele>
        <time>2021-03-23T08:26:13Z</time>
      </trkpt>
      <trkpt lat="42.79644" lon="1.73989">
        <ele>1222.679</ele>
        <time>2021-03-23T08:26:15Z</time>
      </trkpt>
      <trkpt lat="42.79645" lon="1.7399">
        <ele>1223.147</ele>
        <time>2021-03-23T08:26:17Z</time>
      </trkpt>
      <trkpt lat="42.79647" lon="1.73991">
        <ele>1222.709</ele>
        <time>2021-03-23T08:26:19Z</time>
      </trkpt>
      <trkpt lat="42.79648" lon="1.73991">
        <ele>1223.42</ele>
        <time>2021-03-23T08:26:21Z</time>
      </trkpt>
      <trkpt lat="42.7965" lon="1.73991">
        <ele>1223.631</ele>
        <time>2021-03-23T08:26:23Z</time>
      </trkpt>
      <trkpt lat="42.79651" lon="1.73992">
        <ele>1223.313</ele>
        <time>2021-03-23T08:26:25Z</time>
      </trkpt>
      <trkpt lat="42.79653" lon="1.73993">
        <ele>1224.075</ele>
        <time>2021-03-23T08:26:27Z</time>
      </trkpt>
      <trkpt lat="42.79654" lon="1.73994">
        <ele>1224.021</ele>
        <time>2021-03-23T08:26:29Z</time>
      </trkpt>
      <trkpt lat="42.79656" lon="1.73995">
        <ele>1224.489</ele>
        <time>2021-03-23T08:26:31Z</time>
      </trkpt>
      <trkpt lat="42.79657" lon="1.73996">
        <ele>1225.75</ele>
        <time>2021-03-23T08:26:33Z</time>
      </trkpt>
      <trkpt lat="42.79659" lon="1.73996">
        <ele>1226.488</ele>
        <time>2021-03-23T08:26:35Z</time>
      </trkpt>
      <trkpt lat="42.7966" lon="1.73997">
        <ele>1227.51</ele>
        <time>2021-03-23T08:26:37Z</time>
      </trkpt>
      <trkpt lat="42.79661" lon="1.73998">
        <ele>1228.008</ele>
        <time>2021-03-23T08:26:39Z</time>
      </trkpt>
      <trkpt lat="42.79663" lon="1.73999">
        <ele>1228.538</ele>
        <time>2021-03-23T08:26:41Z</time>
      </trkpt>
      <trkpt lat="42.79665" lon="1.74">
        <ele>1230.162</ele>
        <time>2021-03-23T08:26:43Z</time>
      </trkpt>
      <trkpt lat="42.79666" lon="1.74">
        <ele>1230.726</ele>
        <time>2021-03-23T08:26:45Z</time>
      </trkpt>
      <trkpt lat="42.79668" lon="1.74001">
        <ele>1231.854</ele>
        <time>2021-03-23T08:26:47Z</time>
      </trkpt>
      <trkpt lat="42.79669" lon="1.74001">
        <ele>1232.479</ele>
        <time>2021-03-23T08:26:49Z</time>
      </trkpt>
      <trkpt lat="42.7967" lon="1.74002">
        <ele>1232.573</ele>
        <time>2021-03-23T08:26:51Z</time>
      </trkpt>
      <trkpt lat="42.79672" lon="1.74001">
        <ele>1232.243</ele>
        <time>2021-03-23T08:26:53Z</time>
      </trkpt>
      <trkpt lat="42.79673" lon="1.74002">
        <ele>1232.89</ele>
        <time>2021-03-23T08:26:55Z</time>
      </trkpt>
      <trkpt lat="42.79675" lon="1.74002">
        <ele>1234.118</ele>
        <time>2021-03-23T08:26:57Z</time>
      </trkpt>
      <trkpt lat="42.79677" lon="1.74002">
        <ele>1234.397</ele>
        <time>2021-03-23T08:26:59Z</time>
      </trkpt>
      <trkpt lat="42.79678" lon="1.74002">
        <ele>1235.018</ele>
        <time>2021-03-23T08:27:01Z</time>
      </trkpt>
      <trkpt lat="42.79679" lon="1.74002">
        <ele>1235.913</ele>
        <time>2021-03-23T08:27:03Z</time>
      </trkpt>
      <trkpt lat="42.79681" lon="1.74003">
        <ele>1235.812</ele>
        <time>2021-03-23T08:27:05Z</time>
      </trkpt>
      <trkpt lat="42.79682" lon="1.74003">
        <ele>1235.593</ele>
        <time>2021-03-23T08:27:07Z</time>
      </trkpt>
      <trkpt lat="42.79683" lon="1.74004">
        <ele>1236.611</ele>
        <time>2021-03-23T08:27:09Z</time>
      </trkpt>
      <trkpt lat="42.79683" lon="1.74005">
        <ele>1235.967</ele>
        <time>2021-03-23T08:27:11Z</time>
      </trkpt>
      <trkpt lat="42.79685" lon="1.74006">
        <ele>1236.649</ele>
        <time>2021-03-23T08:27:13Z</time>
      </trkpt>
      <trkpt lat="42.79686" lon="1.74007">
        <ele>1237.055</ele>
        <time>2021-03-23T08:27:15Z</time>
      </trkpt>
      <trkpt lat="42.79687" lon="1.74007">
        <ele>1237.513</ele>
        <time>2021-03-23T08:27:17Z</time>
      </trkpt>
      <trkpt lat="42.79689" lon="1.74008">
        <ele>1237.895</ele>
        <time>2021-03-23T08:27:19Z</time>
      </trkpt>
      <trkpt lat="42.7969" lon="1.74008">
        <ele>1238.453</ele>
        <time>2021-03-23T08:27:21Z</time>
      </trkpt>
      <trkpt lat="42.79691" lon="1.74008">
        <ele>1238.716</ele>
        <time>2021-03-23T08:27:23Z</time>
      </trkpt>
      <trkpt lat="42.79693" lon="1.74009">
        <ele>1238.241</ele>
        <time>2021-03-23T08:27:25Z</time>
      </trkpt>
      <trkpt lat="42.79694" lon="1.7401">
        <ele>1238.825</ele>
        <time>2021-03-23T08:27:27Z</time>
      </trkpt>
      <trkpt lat="42.79695" lon="1.74011">
        <ele>1239.709</ele>
        <time>2021-03-23T08:27:29Z</time>
      </trkpt>
      <trkpt lat="42.79696" lon="1.74011">
        <ele>1240.024</ele>
        <time>2021-03-23T08:27:31Z</time>
      </trkpt>
      <trkpt lat="42.79698" lon="1.74011">
        <ele>1240.735</ele>
        <time>2021-03-23T08:27:33Z</time>
      </trkpt>
      <trkpt lat="42.79699" lon="1.7401">
        <ele>1241.34</ele>
        <time>2021-03-23T08:27:35Z</time>
      </trkpt>
      <trkpt lat="42.797" lon="1.74009">
        <ele>1241.349</ele>
        <time>2021-03-23T08:27:37Z</time>
      </trkpt>
      <trkpt lat="42.79702" lon="1.74008">
        <ele>1242.01</ele>
        <time>2021-03-23T08:27:39Z</time>
      </trkpt>
      <trkpt lat="42.79703" lon="1.74009">
        <ele>1241.812</ele>
        <time>2021-03-23T08:27:41Z</time>
      </trkpt>
      <trkpt lat="42.79704" lon="1.74009">
        <ele>1242.196</ele>
        <time>2021-03-23T08:27:43Z</time>
      </trkpt>
      <trkpt lat="42.79706" lon="1.74009">
        <ele>1242.618</ele>
        <time>2021-03-23T08:27:45Z</time>
      </trkpt>
      <trkpt lat="42.79707" lon="1.74009">
        <ele>1242.509</ele>
        <time>2021-03-23T08:27:47Z</time>
      </trkpt>
      <trkpt lat="42.79707" lon="1.7401">
        <ele>1242.017</ele>
        <time>2021-03-23T08:27:49Z</time>
      </trkpt>
      <trkpt lat="42.79709" lon="1.74011">
        <ele>1242.516</ele>
        <time>2021-03-23T08:27:51Z</time>
      </trkpt>
      <trkpt lat="42.7971" lon="1.74011">
        <ele>1243.616</ele>
        <time>2021-03-23T08:27:53Z</time>
      </trkpt>
      <trkpt lat="42.79711" lon="1.74011">
        <ele>1243.764</ele>
        <time>2021-03-23T08:27:55Z</time>
      </trkpt>
      <trkpt lat="42.79713" lon="1.74011">
        <ele>1243.196</ele>
        <time>2021-03-23T08:27:57Z</time>
      </trkpt>
      <trkpt lat="42.79714" lon="1.74012">
        <ele>1243.91</ele>
        <time>2021-03-23T08:27:59Z</time>
      </trkpt>
      <trkpt lat="42.79715" lon="1.74012">
        <ele>1243.833</ele>
        <time>2021-03-23T08:28:01Z</time>
      </trkpt>
      <trkpt lat="42.79716" lon="1.74014">
        <ele>1243.993</ele>
        <time>2021-03-23T08:28:03Z</time>
      </trkpt>
      <trkpt lat="42.79717" lon="1.74013">
        <ele>1244.495</ele>
        <time>2021-03-23T08:28:05Z</time>
      </trkpt>
      <trkpt lat="42.79719" lon="1.74013">
        <ele>1244.818</ele>
        <time>2021-03-23T08:28:07Z</time>
      </trkpt>
      <trkpt lat="42.7972" lon="1.74014">
        <ele>1245.256</ele>
        <time>2021-03-23T08:28:09Z</time>
      </trkpt>
      <trkpt lat="42.79722" lon="1.74014">
        <ele>1245.387</ele>
        <time>2021-03-23T08:28:11Z</time>
      </trkpt>
      <trkpt lat="42.79724" lon="1.74014">
        <ele>1245.156</ele>
        <time>2021-03-23T08:28:13Z</time>
      </trkpt>
      <trkpt lat="42.79725" lon="1.74014">
        <ele>1244.924</ele>
        <time>2021-03-23T08:28:15Z</time>
      </trkpt>
      <trkpt lat="42.79726" lon="1.74014">
        <ele>1246.015</ele>
        <time>2021-03-23T08:28:17Z</time>
      </trkpt>
      <trkpt lat="42.79727" lon="1.74014">
        <ele>1246.057</ele>
        <time>2021-03-23T08:28:19Z</time>
      </trkpt>
      <trkpt lat="42.79728" lon="1.74015">
        <ele>1246.07</ele>
        <time>2021-03-23T08:28:21Z</time>
      </trkpt>
      <trkpt lat="42.79728" lon="1.74015">
        <ele>1246.01</ele>
        <time>2021-03-23T08:28:23Z</time>
      </trkpt>
      <trkpt lat="42.79728" lon="1.74015">
        <ele>1246.006</ele>
        <time>2021-03-23T08:28:25Z</time>
      </trkpt>
      <trkpt lat="42.79728" lon="1.74015">
        <ele>1246.004</ele>
        <time>2021-03-23T08:28:27Z</time>
      </trkpt>
      <trkpt lat="42.79728" lon="1.74015">
        <ele>1245.998</ele>
        <time>2021-03-23T08:28:29Z</time>
      </trkpt>
      <trkpt lat="42.79728" lon="1.74015">
        <ele>1246.002</ele>
        <time>2021-03-23T08:28:31Z</time>
      </trkpt>
      <trkpt lat="42.79728" lon="1.74015">
        <ele>1246.004</ele>
        <time>2021-03-23T08:28:33Z</time>
      </trkpt>
      <trkpt lat="42.79729" lon="1.74015">
        <ele>1246.084</ele>
        <time>2021-03-23T08:28:35Z</time>
      </trkpt>
      <trkpt lat="42.7973" lon="1.74016">
        <ele>1246.613</ele>
        <time>2021-03-23T08:28:37Z</time>
      </trkpt>
      <trkpt lat="42.79732" lon="1.74016">
        <ele>1246.856</ele>
        <time>2021-03-23T08:28:39Z</time>
      </trkpt>
      <trkpt lat="42.79733" lon="1.74016">
        <ele>1247.564</ele>
        <time>2021-03-23T08:28:41Z</time>
      </trkpt>
      <trkpt lat="42.79735" lon="1.74015">
        <ele>1247.367</ele>
        <time>2021-03-23T08:28:43Z</time>
      </trkpt>
      <trkpt lat="42.79736" lon="1.74015">
        <ele>1248.378</ele>
        <time>2021-03-23T08:28:45Z</time>
      </trkpt>
      <trkpt lat="42.79737" lon="1.74015">
        <ele>1248.618</ele>
        <time>2021-03-23T08:28:47Z</time>
      </trkpt>
      <trkpt lat="42.79739" lon="1.74014">
        <ele>1248.57</ele>
        <time>2021-03-23T08:28:49Z</time>
      </trkpt>
      <trkpt lat="42.7974" lon="1.74014">
        <ele>1249.037</ele>
        <time>2021-03-23T08:28:51Z</time>
      </trkpt>
      <trkpt lat="42.79741" lon="1.74014">
        <ele>1250.319</ele>
        <time>2021-03-23T08:28:53Z</time>
      </trkpt>
      <trkpt lat="42.79742" lon="1.74014">
        <ele>1250.658</ele>
        <time>2021-03-23T08:28:55Z</time>
      </trkpt>
      <trkpt lat="42.79744" lon="1.74014">
        <ele>1251.313</ele>
        <time>2021-03-23T08:28:57Z</time>
      </trkpt>
      <trkpt lat="42.79745" lon="1.74014">
        <ele>1251.204</ele>
        <time>2021-03-23T08:28:59Z</time>
      </trkpt>
      <trkpt lat="42.79747" lon="1.74014">
        <ele>1251.425</ele>
        <time>2021-03-23T08:29:01Z</time>
      </trkpt>
      <trkpt lat="42.79748" lon="1.74014">
        <ele>1251.754</ele>
        <time>2021-03-23T08:29:03Z</time>
      </trkpt>
      <trkpt lat="42.7975" lon="1.74014">
        <ele>1252.481</ele>
        <time>2021-03-23T08:29:05Z</time>
      </trkpt>
      <trkpt lat="42.79751" lon="1.74014">
        <ele>1253.178</ele>
        <time>2021-03-23T08:29:07Z</time>
      </trkpt>
      <trkpt lat="42.79753" lon="1.74015">
        <ele>1253.878</ele>
        <time>2021-03-23T08:29:09Z</time>
      </trkpt>
      <trkpt lat="42.79754" lon="1.74016">
        <ele>1254.12</ele>
        <time>2021-03-23T08:29:11Z</time>
      </trkpt>
      <trkpt lat="42.79756" lon="1.74015">
        <ele>1254.161</ele>
        <time>2021-03-23T08:29:13Z</time>
      </trkpt>
      <trkpt lat="42.79757" lon="1.74015">
        <ele>1253.626</ele>
        <time>2021-03-23T08:29:15Z</time>
      </trkpt>
      <trkpt lat="42.79759" lon="1.74014">
        <ele>1253.943</ele>
        <time>2021-03-23T08:29:17Z</time>
      </trkpt>
      <trkpt lat="42.7976" lon="1.74014">
        <ele>1253.629</ele>
        <time>2021-03-23T08:29:19Z</time>
      </trkpt>
      <trkpt lat="42.79761" lon="1.74014">
        <ele>1253.748</ele>
        <time>2021-03-23T08:29:21Z</time>
      </trkpt>
      <trkpt lat="42.79763" lon="1.74014">
        <ele>1253.648</ele>
        <time>2021-03-23T08:29:23Z</time>
      </trkpt>
      <trkpt lat="42.79764" lon="1.74014">
        <ele>1254.273</ele>
        <time>2021-03-23T08:29:25Z</time>
      </trkpt>
      <trkpt lat="42.79766" lon="1.74013">
        <ele>1254.628</ele>
        <time>2021-03-23T08:29:27Z</time>
      </trkpt>
      <trkpt lat="42.79768" lon="1.74013">
        <ele>1255.167</ele>
        <time>2021-03-23T08:29:29Z</time>
      </trkpt>
      <trkpt lat="42.7977" lon="1.74013">
        <ele>1255.574</ele>
        <time>2021-03-23T08:29:31Z</time>
      </trkpt>
      <trkpt lat="42.79772" lon="1.74014">
        <ele>1256.151</ele>
        <time>2021-03-23T08:29:33Z</time>
      </trkpt>
      <trkpt lat="42.79773" lon="1.74014">
        <ele>1255.805</ele>
        <time>2021-03-23T08:29:35Z</time>
      </trkpt>
      <trkpt lat="42.79775" lon="1.74013">
        <ele>1255.475</ele>
        <time>2021-03-23T08:29:37Z</time>
      </trkpt>
      <trkpt lat="42.79776" lon="1.74014">
        <ele>1255.618</ele>
        <time>2021-03-23T08:29:39Z</time>
      </trkpt>
      <trkpt lat="42.79778" lon="1.74014">
        <ele>1255.698</ele>
        <time>2021-03-23T08:29:41Z</time>
      </trkpt>
      <trkpt lat="42.79779" lon="1.74013">
        <ele>1255.597</ele>
        <time>2021-03-23T08:29:43Z</time>
      </trkpt>
      <trkpt lat="42.79781" lon="1.74013">
        <ele>1255.664</ele>
        <time>2021-03-23T08:29:45Z</time>
      </trkpt>
      <trkpt lat="42.79782" lon="1.74012">
        <ele>1256.967</ele>
        <time>2021-03-23T08:29:47Z</time>
      </trkpt>
      <trkpt lat="42.79784" lon="1.74011">
        <ele>1257.132</ele>
        <time>2021-03-23T08:29:49Z</time>
      </trkpt>
      <trkpt lat="42.79785" lon="1.74011">
        <ele>1256.632</ele>
        <time>2021-03-23T08:29:51Z</time>
      </trkpt>
      <trkpt lat="42.79786" lon="1.7401">
        <ele>1256.653</ele>
        <time>2021-03-23T08:29:53Z</time>
      </trkpt>
      <trkpt lat="42.79788" lon="1.74009">
        <ele>1257.304</ele>
        <time>2021-03-23T08:29:55Z</time>
      </trkpt>
      <trkpt lat="42.79789" lon="1.74008">
        <ele>1258.46</ele>
        <time>2021-03-23T08:29:57Z</time>
      </trkpt>
      <trkpt lat="42.79791" lon="1.74007">
        <ele>1257.472</ele>
        <time>2021-03-23T08:29:59Z</time>
      </trkpt>
      <trkpt lat="42.79792" lon="1.74006">
        <ele>1258.404</ele>
        <time>2021-03-23T08:30:01Z</time>
      </trkpt>
      <trkpt lat="42.79793" lon="1.74005">
        <ele>1259.152</ele>
        <time>2021-03-23T08:30:03Z</time>
      </trkpt>
      <trkpt lat="42.79794" lon="1.74004">
        <ele>1259.814</ele>
        <time>2021-03-23T08:30:05Z</time>
      </trkpt>
      <trkpt lat="42.79795" lon="1.74003">
        <ele>1259.727</ele>
        <time>2021-03-23T08:30:07Z</time>
      </trkpt>
      <trkpt lat="42.79797" lon="1.74002">
        <ele>1260.777</ele>
        <time>2021-03-23T08:30:09Z</time>
      </trkpt>
      <trkpt lat="42.79799" lon="1.74">
        <ele>1262.233</ele>
        <time>2021-03-23T08:30:11Z</time>
      </trkpt>
      <trkpt lat="42.798" lon="1.73999">
        <ele>1262.911</ele>
        <time>2021-03-23T08:30:13Z</time>
      </trkpt>
      <trkpt lat="42.79801" lon="1.73998">
        <ele>1262.514</ele>
        <time>2021-03-23T08:30:15Z</time>
      </trkpt>
      <trkpt lat="42.79802" lon="1.73996">
        <ele>1263.508</ele>
        <time>2021-03-23T08:30:17Z</time>
      </trkpt>
      <trkpt lat="42.79804" lon="1.73994">
        <ele>1264.18</ele>
        <time>2021-03-23T08:30:19Z</time>
      </trkpt>
      <trkpt lat="42.79805" lon="1.73993">
        <ele>1264.168</ele>
        <time>2021-03-23T08:30:21Z</time>
      </trkpt>
      <trkpt lat="42.79806" lon="1.7399">
        <ele>1263.682</ele>
        <time>2021-03-23T08:30:23Z</time>
      </trkpt>
      <trkpt lat="42.79807" lon="1.73988">
        <ele>1263.649</ele>
        <time>2021-03-23T08:30:25Z</time>
      </trkpt>
      <trkpt lat="42.79808" lon="1.73986">
        <ele>1263.198</ele>
        <time>2021-03-23T08:30:27Z</time>
      </trkpt>
      <trkpt lat="42.79808" lon="1.73985">
        <ele>1262.868</ele>
        <time>2021-03-23T08:30:29Z</time>
      </trkpt>
      <trkpt lat="42.7981" lon="1.73983">
        <ele>1263.742</ele>
        <time>2021-03-23T08:30:31Z</time>
      </trkpt>
      <trkpt lat="42.79811" lon="1.73981">
        <ele>1263.405</ele>
        <time>2021-03-23T08:30:33Z</time>
      </trkpt>
      <trkpt lat="42.79811" lon="1.73979">
        <ele>1262.432</ele>
        <time>2021-03-23T08:30:35Z</time>
      </trkpt>
      <trkpt lat="42.79812" lon="1.73977">
        <ele>1262.715</ele>
        <time>2021-03-23T08:30:37Z</time>
      </trkpt>
      <trkpt lat="42.79814" lon="1.73976">
        <ele>1263.146</ele>
        <time>2021-03-23T08:30:39Z</time>
      </trkpt>
      <trkpt lat="42.79815" lon="1.73974">
        <ele>1264.159</ele>
        <time>2021-03-23T08:30:41Z</time>
      </trkpt>
      <trkpt lat="42.79816" lon="1.73973">
        <ele>1264.513</ele>
        <time>2021-03-23T08:30:43Z</time>
      </trkpt>
      <trkpt lat="42.79817" lon="1.73971">
        <ele>1263.687</ele>
        <time>2021-03-23T08:30:45Z</time>
      </trkpt>
      <trkpt lat="42.79818" lon="1.73969">
        <ele>1262.652</ele>
        <time>2021-03-23T08:30:47Z</time>
      </trkpt>
      <trkpt lat="42.79819" lon="1.73968">
        <ele>1263.073</ele>
        <time>2021-03-23T08:30:49Z</time>
      </trkpt>
      <trkpt lat="42.7982" lon="1.73967">
        <ele>1263.786</ele>
        <time>2021-03-23T08:30:51Z</time>
      </trkpt>
      <trkpt lat="42.79821" lon="1.73965">
        <ele>1264.56</ele>
        <time>2021-03-23T08:30:53Z</time>
      </trkpt>
      <trkpt lat="42.79822" lon="1.73964">
        <ele>1265.029</ele>
        <time>2021-03-23T08:30:55Z</time>
      </trkpt>
      <trkpt lat="42.79824" lon="1.73963">
        <ele>1265.963</ele>
        <time>2021-03-23T08:30:57Z</time>
      </trkpt>
      <trkpt lat="42.79825" lon="1.73962">
        <ele>1265.95</ele>
        <time>2021-03-23T08:30:59Z</time>
      </trkpt>
      <trkpt lat="42.79826" lon="1.73961">
        <ele>1266.334</ele>
        <time>2021-03-23T08:31:01Z</time>
      </trkpt>
      <trkpt lat="42.79827" lon="1.7396">
        <ele>1265.839</ele>
        <time>2021-03-23T08:31:03Z</time>
      </trkpt>
      <trkpt lat="42.79828" lon="1.73959">
        <ele>1265.938</ele>
        <time>2021-03-23T08:31:05Z</time>
      </trkpt>
      <trkpt lat="42.79829" lon="1.73958">
        <ele>1266.666</ele>
        <time>2021-03-23T08:31:07Z</time>
      </trkpt>
      <trkpt lat="42.79831" lon="1.73957">
        <ele>1267.473</ele>
        <time>2021-03-23T08:31:09Z</time>
      </trkpt>
      <trkpt lat="42.79832" lon="1.73956">
        <ele>1267.778</ele>
        <time>2021-03-23T08:31:11Z</time>
      </trkpt>
      <trkpt lat="42.79833" lon="1.73955">
        <ele>1268.146</ele>
        <time>2021-03-23T08:31:13Z</time>
      </trkpt>
      <trkpt lat="42.79834" lon="1.73954">
        <ele>1268.777</ele>
        <time>2021-03-23T08:31:15Z</time>
      </trkpt>
      <trkpt lat="42.79835" lon="1.73953">
        <ele>1269.122</ele>
        <time>2021-03-23T08:31:17Z</time>
      </trkpt>
      <trkpt lat="42.79835" lon="1.73951">
        <ele>1268.766</ele>
        <time>2021-03-23T08:31:19Z</time>
      </trkpt>
      <trkpt lat="42.79836" lon="1.7395">
        <ele>1268.993</ele>
        <time>2021-03-23T08:31:21Z</time>
      </trkpt>
      <trkpt lat="42.79837" lon="1.73948">
        <ele>1268.614</ele>
        <time>2021-03-23T08:31:23Z</time>
      </trkpt>
      <trkpt lat="42.79838" lon="1.73947">
        <ele>1267.525</ele>
        <time>2021-03-23T08:31:25Z</time>
      </trkpt>
      <trkpt lat="42.79839" lon="1.73946">
        <ele>1267.421</ele>
        <time>2021-03-23T08:31:27Z</time>
      </trkpt>
      <trkpt lat="42.79839" lon="1.73944">
        <ele>1266.859</ele>
        <time>2021-03-23T08:31:29Z</time>
      </trkpt>
      <trkpt lat="42.7984" lon="1.73942">
        <ele>1265.73</ele>
        <time>2021-03-23T08:31:31Z</time>
      </trkpt>
      <trkpt lat="42.79841" lon="1.73941">
        <ele>1265.784</ele>
        <time>2021-03-23T08:31:33Z</time>
      </trkpt>
      <trkpt lat="42.79842" lon="1.7394">
        <ele>1264.933</ele>
        <time>2021-03-23T08:31:35Z</time>
      </trkpt>
      <trkpt lat="42.79843" lon="1.73939">
        <ele>1265.063</ele>
        <time>2021-03-23T08:31:37Z</time>
      </trkpt>
      <trkpt lat="42.79844" lon="1.73938">
        <ele>1266.038</ele>
        <time>2021-03-23T08:31:39Z</time>
      </trkpt>
      <trkpt lat="42.79845" lon="1.73937">
        <ele>1266.953</ele>
        <time>2021-03-23T08:31:41Z</time>
      </trkpt>
      <trkpt lat="42.79846" lon="1.73936">
        <ele>1266.829</ele>
        <time>2021-03-23T08:31:43Z</time>
      </trkpt>
      <trkpt lat="42.79847" lon="1.73935">
        <ele>1266.841</ele>
        <time>2021-03-23T08:31:45Z</time>
      </trkpt>
      <trkpt lat="42.79848" lon="1.73934">
        <ele>1266.894</ele>
        <time>2021-03-23T08:31:47Z</time>
      </trkpt>
      <trkpt lat="42.79849" lon="1.73934">
        <ele>1267.34</ele>
        <time>2021-03-23T08:31:49Z</time>
      </trkpt>
      <trkpt lat="42.79851" lon="1.73933">
        <ele>1268.884</ele>
        <time>2021-03-23T08:31:51Z</time>
      </trkpt>
      <trkpt lat="42.79852" lon="1.73932">
        <ele>1268.731</ele>
        <time>2021-03-23T08:31:53Z</time>
      </trkpt>
      <trkpt lat="42.79853" lon="1.73932">
        <ele>1269.087</ele>
        <time>2021-03-23T08:31:55Z</time>
      </trkpt>
      <trkpt lat="42.79853" lon="1.73932">
        <ele>1270.013</ele>
        <time>2021-03-23T08:31:57Z</time>
      </trkpt>
      <trkpt lat="42.79854" lon="1.73931">
        <ele>1269.821</ele>
        <time>2021-03-23T08:31:59Z</time>
      </trkpt>
      <trkpt lat="42.79855" lon="1.7393">
        <ele>1268.171</ele>
        <time>2021-03-23T08:32:01Z</time>
      </trkpt>
      <trkpt lat="42.79856" lon="1.73929">
        <ele>1269.168</ele>
        <time>2021-03-23T08:32:03Z</time>
      </trkpt>
      <trkpt lat="42.79857" lon="1.73927">
        <ele>1269.898</ele>
        <time>2021-03-23T08:32:05Z</time>
      </trkpt>
      <trkpt lat="42.79858" lon="1.73927">
        <ele>1270.883</ele>
        <time>2021-03-23T08:32:07Z</time>
      </trkpt>
      <trkpt lat="42.7986" lon="1.73926">
        <ele>1272.497</ele>
        <time>2021-03-23T08:32:09Z</time>
      </trkpt>
      <trkpt lat="42.79861" lon="1.73925">
        <ele>1273.718</ele>
        <time>2021-03-23T08:32:11Z</time>
      </trkpt>
      <trkpt lat="42.79862" lon="1.73924">
        <ele>1274.215</ele>
        <time>2021-03-23T08:32:13Z</time>
      </trkpt>
      <trkpt lat="42.79863" lon="1.73923">
        <ele>1275.574</ele>
        <time>2021-03-23T08:32:15Z</time>
      </trkpt>
      <trkpt lat="42.79865" lon="1.73922">
        <ele>1275.986</ele>
        <time>2021-03-23T08:32:17Z</time>
      </trkpt>
      <trkpt lat="42.79866" lon="1.73921">
        <ele>1276.07</ele>
        <time>2021-03-23T08:32:19Z</time>
      </trkpt>
      <trkpt lat="42.79868" lon="1.7392">
        <ele>1277.938</ele>
        <time>2021-03-23T08:32:21Z</time>
      </trkpt>
      <trkpt lat="42.79869" lon="1.73918">
        <ele>1278.595</ele>
        <time>2021-03-23T08:32:23Z</time>
      </trkpt>
      <trkpt lat="42.79871" lon="1.73917">
        <ele>1277.822</ele>
        <time>2021-03-23T08:32:25Z</time>
      </trkpt>
      <trkpt lat="42.79873" lon="1.73915">
        <ele>1278.391</ele>
        <time>2021-03-23T08:32:27Z</time>
      </trkpt>
      <trkpt lat="42.79874" lon="1.73913">
        <ele>1277.23</ele>
        <time>2021-03-23T08:32:29Z</time>
      </trkpt>
      <trkpt lat="42.79875" lon="1.73912">
        <ele>1277.949</ele>
        <time>2021-03-23T08:32:31Z</time>
      </trkpt>
      <trkpt lat="42.79876" lon="1.7391">
        <ele>1277.233</ele>
        <time>2021-03-23T08:32:33Z</time>
      </trkpt>
      <trkpt lat="42.79877" lon="1.73909">
        <ele>1277.162</ele>
        <time>2021-03-23T08:32:35Z</time>
      </trkpt>
      <trkpt lat="42.79878" lon="1.73907">
        <ele>1276.169</ele>
        <time>2021-03-23T08:32:37Z</time>
      </trkpt>
      <trkpt lat="42.79879" lon="1.73906">
        <ele>1274.589</ele>
        <time>2021-03-23T08:32:39Z</time>
      </trkpt>
      <trkpt lat="42.7988" lon="1.73905">
        <ele>1275.127</ele>
        <time>2021-03-23T08:32:41Z</time>
      </trkpt>
      <trkpt lat="42.79881" lon="1.73903">
        <ele>1275.392</ele>
        <time>2021-03-23T08:32:43Z</time>
      </trkpt>
      <trkpt lat="42.79882" lon="1.73902">
        <ele>1275.969</ele>
        <time>2021-03-23T08:32:45Z</time>
      </trkpt>
      <trkpt lat="42.79884" lon="1.73901">
        <ele>1276.952</ele>
        <time>2021-03-23T08:32:47Z</time>
      </trkpt>
      <trkpt lat="42.79885" lon="1.739">
        <ele>1277.841</ele>
        <time>2021-03-23T08:32:49Z</time>
      </trkpt>
      <trkpt lat="42.79886" lon="1.73899">
        <ele>1277.762</ele>
        <time>2021-03-23T08:32:51Z</time>
      </trkpt>
      <trkpt lat="42.79888" lon="1.73898">
        <ele>1278.278</ele>
        <time>2021-03-23T08:32:53Z</time>
      </trkpt>
      <trkpt lat="42.79889" lon="1.73897">
        <ele>1278.309</ele>
        <time>2021-03-23T08:32:55Z</time>
      </trkpt>
      <trkpt lat="42.7989" lon="1.73896">
        <ele>1277.892</ele>
        <time>2021-03-23T08:32:57Z</time>
      </trkpt>
      <trkpt lat="42.79891" lon="1.73894">
        <ele>1278.43</ele>
        <time>2021-03-23T08:32:59Z</time>
      </trkpt>
      <trkpt lat="42.79892" lon="1.73894">
        <ele>1279.282</ele>
        <time>2021-03-23T08:33:01Z</time>
      </trkpt>
      <trkpt lat="42.79894" lon="1.73893">
        <ele>1280.501</ele>
        <time>2021-03-23T08:33:03Z</time>
      </trkpt>
      <trkpt lat="42.79895" lon="1.73894">
        <ele>1281.024</ele>
        <time>2021-03-23T08:33:05Z</time>
      </trkpt>
      <trkpt lat="42.79896" lon="1.73894">
        <ele>1282.035</ele>
        <time>2021-03-23T08:33:07Z</time>
      </trkpt>
      <trkpt lat="42.79897" lon="1.73893">
        <ele>1281.518</ele>
        <time>2021-03-23T08:33:08Z</time>
      </trkpt>
      <trkpt lat="42.79898" lon="1.73891">
        <ele>1281.403</ele>
        <time>2021-03-23T08:33:11Z</time>
      </trkpt>
      <trkpt lat="42.79899" lon="1.73889">
        <ele>1280.255</ele>
        <time>2021-03-23T08:33:13Z</time>
      </trkpt>
      <trkpt lat="42.79901" lon="1.73888">
        <ele>1281.322</ele>
        <time>2021-03-23T08:33:15Z</time>
      </trkpt>
      <trkpt lat="42.79902" lon="1.73888">
        <ele>1282.808</ele>
        <time>2021-03-23T08:33:17Z</time>
      </trkpt>
      <trkpt lat="42.79904" lon="1.73888">
        <ele>1283.798</ele>
        <time>2021-03-23T08:33:19Z</time>
      </trkpt>
      <trkpt lat="42.79906" lon="1.73889">
        <ele>1286.591</ele>
        <time>2021-03-23T08:33:21Z</time>
      </trkpt>
      <trkpt lat="42.79907" lon="1.73889">
        <ele>1286.659</ele>
        <time>2021-03-23T08:33:23Z</time>
      </trkpt>
      <trkpt lat="42.79909" lon="1.73889">
        <ele>1287.341</ele>
        <time>2021-03-23T08:33:25Z</time>
      </trkpt>
      <trkpt lat="42.7991" lon="1.7389">
        <ele>1287.908</ele>
        <time>2021-03-23T08:33:27Z</time>
      </trkpt>
      <trkpt lat="42.79912" lon="1.73891">
        <ele>1288.846</ele>
        <time>2021-03-23T08:33:29Z</time>
      </trkpt>
      <trkpt lat="42.79913" lon="1.73891">
        <ele>1289.785</ele>
        <time>2021-03-23T08:33:31Z</time>
      </trkpt>
      <trkpt lat="42.79915" lon="1.73891">
        <ele>1290.82</ele>
        <time>2021-03-23T08:33:33Z</time>
      </trkpt>
      <trkpt lat="42.79916" lon="1.73891">
        <ele>1290.907</ele>
        <time>2021-03-23T08:33:35Z</time>
      </trkpt>
      <trkpt lat="42.79918" lon="1.73891">
        <ele>1291.484</ele>
        <time>2021-03-23T08:33:37Z</time>
      </trkpt>
      <trkpt lat="42.79919" lon="1.73891">
        <ele>1291.695</ele>
        <time>2021-03-23T08:33:39Z</time>
      </trkpt>
      <trkpt lat="42.79921" lon="1.73892">
        <ele>1292.946</ele>
        <time>2021-03-23T08:33:41Z</time>
      </trkpt>
      <trkpt lat="42.79922" lon="1.73892">
        <ele>1294.625</ele>
        <time>2021-03-23T08:33:43Z</time>
      </trkpt>
      <trkpt lat="42.79924" lon="1.73893">
        <ele>1294.14</ele>
        <time>2021-03-23T08:33:45Z</time>
      </trkpt>
      <trkpt lat="42.79925" lon="1.73893">
        <ele>1294.042</ele>
        <time>2021-03-23T08:33:47Z</time>
      </trkpt>
      <trkpt lat="42.79926" lon="1.73894">
        <ele>1295.241</ele>
        <time>2021-03-23T08:33:49Z</time>
      </trkpt>
      <trkpt lat="42.79928" lon="1.73896">
        <ele>1295.765</ele>
        <time>2021-03-23T08:33:51Z</time>
      </trkpt>
      <trkpt lat="42.79929" lon="1.73896">
        <ele>1295.479</ele>
        <time>2021-03-23T08:33:53Z</time>
      </trkpt>
      <trkpt lat="42.79931" lon="1.73897">
        <ele>1296.474</ele>
        <time>2021-03-23T08:33:55Z</time>
      </trkpt>
      <trkpt lat="42.79932" lon="1.73898">
        <ele>1295.995</ele>
        <time>2021-03-23T08:33:57Z</time>
      </trkpt>
      <trkpt lat="42.79933" lon="1.73898">
        <ele>1295.591</ele>
        <time>2021-03-23T08:33:59Z</time>
      </trkpt>
      <trkpt lat="42.79935" lon="1.73898">
        <ele>1296.072</ele>
        <time>2021-03-23T08:34:01Z</time>
      </trkpt>
      <trkpt lat="42.79936" lon="1.73899">
        <ele>1295.816</ele>
        <time>2021-03-23T08:34:03Z</time>
      </trkpt>
      <trkpt lat="42.79938" lon="1.73898">
        <ele>1296.423</ele>
        <time>2021-03-23T08:34:05Z</time>
      </trkpt>
      <trkpt lat="42.7994" lon="1.73899">
        <ele>1297.985</ele>
        <time>2021-03-23T08:34:07Z</time>
      </trkpt>
      <trkpt lat="42.79942" lon="1.739">
        <ele>1299.652</ele>
        <time>2021-03-23T08:34:09Z</time>
      </trkpt>
      <trkpt lat="42.79943" lon="1.73902">
        <ele>1300.404</ele>
        <time>2021-03-23T08:34:11Z</time>
      </trkpt>
      <trkpt lat="42.79945" lon="1.73902">
        <ele>1300.551</ele>
        <time>2021-03-23T08:34:13Z</time>
      </trkpt>
      <trkpt lat="42.79946" lon="1.73903">
        <ele>1301.222</ele>
        <time>2021-03-23T08:34:15Z</time>
      </trkpt>
      <trkpt lat="42.79947" lon="1.73903">
        <ele>1300.786</ele>
        <time>2021-03-23T08:34:17Z</time>
      </trkpt>
      <trkpt lat="42.79949" lon="1.73903">
        <ele>1299.108</ele>
        <time>2021-03-23T08:34:19Z</time>
      </trkpt>
      <trkpt lat="42.7995" lon="1.73903">
        <ele>1299.532</ele>
        <time>2021-03-23T08:34:21Z</time>
      </trkpt>
      <trkpt lat="42.79952" lon="1.73905">
        <ele>1300.139</ele>
        <time>2021-03-23T08:34:23Z</time>
      </trkpt>
      <trkpt lat="42.79954" lon="1.73905">
        <ele>1301.382</ele>
        <time>2021-03-23T08:34:25Z</time>
      </trkpt>
      <trkpt lat="42.79955" lon="1.73905">
        <ele>1301.612</ele>
        <time>2021-03-23T08:34:27Z</time>
      </trkpt>
      <trkpt lat="42.79957" lon="1.73905">
        <ele>1301.213</ele>
        <time>2021-03-23T08:34:29Z</time>
      </trkpt>
      <trkpt lat="42.79958" lon="1.73906">
        <ele>1301.242</ele>
        <time>2021-03-23T08:34:31Z</time>
      </trkpt>
      <trkpt lat="42.79959" lon="1.73906">
        <ele>1302.161</ele>
        <time>2021-03-23T08:34:33Z</time>
      </trkpt>
      <trkpt lat="42.79961" lon="1.73906">
        <ele>1302.258</ele>
        <time>2021-03-23T08:34:35Z</time>
      </trkpt>
      <trkpt lat="42.79962" lon="1.73907">
        <ele>1302.082</ele>
        <time>2021-03-23T08:34:37Z</time>
      </trkpt>
      <trkpt lat="42.79963" lon="1.73907">
        <ele>1301.786</ele>
        <time>2021-03-23T08:34:39Z</time>
      </trkpt>
      <trkpt lat="42.79965" lon="1.73908">
        <ele>1301.659</ele>
        <time>2021-03-23T08:34:41Z</time>
      </trkpt>
      <trkpt lat="42.79966" lon="1.73909">
        <ele>1302.184</ele>
        <time>2021-03-23T08:34:43Z</time>
      </trkpt>
      <trkpt lat="42.79967" lon="1.73909">
        <ele>1302.69</ele>
        <time>2021-03-23T08:34:45Z</time>
      </trkpt>
      <trkpt lat="42.79968" lon="1.7391">
        <ele>1303.341</ele>
        <time>2021-03-23T08:34:47Z</time>
      </trkpt>
      <trkpt lat="42.79969" lon="1.73911">
        <ele>1303.279</ele>
        <time>2021-03-23T08:34:49Z</time>
      </trkpt>
      <trkpt lat="42.7997" lon="1.73912">
        <ele>1303.932</ele>
        <time>2021-03-23T08:34:51Z</time>
      </trkpt>
      <trkpt lat="42.79971" lon="1.73913">
        <ele>1303.664</ele>
        <time>2021-03-23T08:34:53Z</time>
      </trkpt>
      <trkpt lat="42.79972" lon="1.73914">
        <ele>1303.071</ele>
        <time>2021-03-23T08:34:55Z</time>
      </trkpt>
      <trkpt lat="42.79973" lon="1.73916">
        <ele>1303.188</ele>
        <time>2021-03-23T08:34:57Z</time>
      </trkpt>
      <trkpt lat="42.79974" lon="1.73917">
        <ele>1303.293</ele>
        <time>2021-03-23T08:34:59Z</time>
      </trkpt>
      <trkpt lat="42.79974" lon="1.73919">
        <ele>1302.648</ele>
        <time>2021-03-23T08:35:01Z</time>
      </trkpt>
      <trkpt lat="42.79975" lon="1.73921">
        <ele>1302.351</ele>
        <time>2021-03-23T08:35:03Z</time>
      </trkpt>
      <trkpt lat="42.79976" lon="1.73923">
        <ele>1301.325</ele>
        <time>2021-03-23T08:35:05Z</time>
      </trkpt>
      <trkpt lat="42.79977" lon="1.73924">
        <ele>1301.115</ele>
        <time>2021-03-23T08:35:07Z</time>
      </trkpt>
      <trkpt lat="42.79978" lon="1.73925">
        <ele>1300.762</ele>
        <time>2021-03-23T08:35:09Z</time>
      </trkpt>
      <trkpt lat="42.7998" lon="1.73927">
        <ele>1302.124</ele>
        <time>2021-03-23T08:35:11Z</time>
      </trkpt>
      <trkpt lat="42.79981" lon="1.73929">
        <ele>1303.523</ele>
        <time>2021-03-23T08:35:13Z</time>
      </trkpt>
      <trkpt lat="42.79983" lon="1.73931">
        <ele>1305.257</ele>
        <time>2021-03-23T08:35:15Z</time>
      </trkpt>
      <trkpt lat="42.79984" lon="1.73933">
        <ele>1304.539</ele>
        <time>2021-03-23T08:35:17Z</time>
      </trkpt>
      <trkpt lat="42.79985" lon="1.73935">
        <ele>1306.29</ele>
        <time>2021-03-23T08:35:19Z</time>
      </trkpt>
      <trkpt lat="42.79987" lon="1.73937">
        <ele>1308.56</ele>
        <time>2021-03-23T08:35:21Z</time>
      </trkpt>
      <trkpt lat="42.79988" lon="1.73939">
        <ele>1310.679</ele>
        <time>2021-03-23T08:35:23Z</time>
      </trkpt>
      <trkpt lat="42.79988" lon="1.73942">
        <ele>1310.974</ele>
        <time>2021-03-23T08:35:25Z</time>
      </trkpt>
      <trkpt lat="42.79989" lon="1.73944">
        <ele>1310.281</ele>
        <time>2021-03-23T08:35:27Z</time>
      </trkpt>
      <trkpt lat="42.79989" lon="1.73946">
        <ele>1310.945</ele>
        <time>2021-03-23T08:35:29Z</time>
      </trkpt>
      <trkpt lat="42.7999" lon="1.73948">
        <ele>1311.964</ele>
        <time>2021-03-23T08:35:31Z</time>
      </trkpt>
      <trkpt lat="42.79992" lon="1.73949">
        <ele>1313.536</ele>
        <time>2021-03-23T08:35:33Z</time>
      </trkpt>
      <trkpt lat="42.79993" lon="1.7395">
        <ele>1313.862</ele>
        <time>2021-03-23T08:35:35Z</time>
      </trkpt>
      <trkpt lat="42.79994" lon="1.73952">
        <ele>1314.381</ele>
        <time>2021-03-23T08:35:37Z</time>
      </trkpt>
      <trkpt lat="42.79995" lon="1.73953">
        <ele>1313.834</ele>
        <time>2021-03-23T08:35:39Z</time>
      </trkpt>
      <trkpt lat="42.79996" lon="1.73955">
        <ele>1313.329</ele>
        <time>2021-03-23T08:35:41Z</time>
      </trkpt>
      <trkpt lat="42.79997" lon="1.73956">
        <ele>1313.489</ele>
        <time>2021-03-23T08:35:43Z</time>
      </trkpt>
      <trkpt lat="42.79999" lon="1.73957">
        <ele>1314.736</ele>
        <time>2021-03-23T08:35:45Z</time>
      </trkpt>
      <trkpt lat="42.8" lon="1.73958">
        <ele>1315.571</ele>
        <time>2021-03-23T08:35:47Z</time>
      </trkpt>
      <trkpt lat="42.80002" lon="1.73959">
        <ele>1316.613</ele>
        <time>2021-03-23T08:35:49Z</time>
      </trkpt>
      <trkpt lat="42.80003" lon="1.73961">
        <ele>1318.126</ele>
        <time>2021-03-23T08:35:51Z</time>
      </trkpt>
      <trkpt lat="42.80004" lon="1.73963">
        <ele>1320.374</ele>
        <time>2021-03-23T08:35:53Z</time>
      </trkpt>
      <trkpt lat="42.80006" lon="1.73965">
        <ele>1321.52</ele>
        <time>2021-03-23T08:35:55Z</time>
      </trkpt>
      <trkpt lat="42.80007" lon="1.73966">
        <ele>1321.711</ele>
        <time>2021-03-23T08:35:57Z</time>
      </trkpt>
      <trkpt lat="42.80008" lon="1.73968">
        <ele>1321.57</ele>
        <time>2021-03-23T08:35:59Z</time>
      </trkpt>
      <trkpt lat="42.80009" lon="1.73969">
        <ele>1321.724</ele>
        <time>2021-03-23T08:36:01Z</time>
      </trkpt>
      <trkpt lat="42.8001" lon="1.73969">
        <ele>1319.616</ele>
        <time>2021-03-23T08:36:03Z</time>
      </trkpt>
      <trkpt lat="42.80011" lon="1.73969">
        <ele>1318.935</ele>
        <time>2021-03-23T08:36:05Z</time>
      </trkpt>
      <trkpt lat="42.80012" lon="1.7397">
        <ele>1317.835</ele>
        <time>2021-03-23T08:36:07Z</time>
      </trkpt>
      <trkpt lat="42.80013" lon="1.73971">
        <ele>1316.953</ele>
        <time>2021-03-23T08:36:09Z</time>
      </trkpt>
      <trkpt lat="42.80013" lon="1.73972">
        <ele>1316.287</ele>
        <time>2021-03-23T08:36:11Z</time>
      </trkpt>
      <trkpt lat="42.80014" lon="1.73973">
        <ele>1315.875</ele>
        <time>2021-03-23T08:36:13Z</time>
      </trkpt>
      <trkpt lat="42.80016" lon="1.73974">
        <ele>1315.891</ele>
        <time>2021-03-23T08:36:15Z</time>
      </trkpt>
      <trkpt lat="42.80017" lon="1.73975">
        <ele>1315.936</ele>
        <time>2021-03-23T08:36:17Z</time>
      </trkpt>
      <trkpt lat="42.80018" lon="1.73977">
        <ele>1316.361</ele>
        <time>2021-03-23T08:36:19Z</time>
      </trkpt>
      <trkpt lat="42.8002" lon="1.73978">
        <ele>1316.466</ele>
        <time>2021-03-23T08:36:21Z</time>
      </trkpt>
      <trkpt lat="42.8002" lon="1.73979">
        <ele>1316.894</ele>
        <time>2021-03-23T08:36:23Z</time>
      </trkpt>
      <trkpt lat="42.80021" lon="1.73981">
        <ele>1316.885</ele>
        <time>2021-03-23T08:36:25Z</time>
      </trkpt>
      <trkpt lat="42.80022" lon="1.73982">
        <ele>1317.627</ele>
        <time>2021-03-23T08:36:27Z</time>
      </trkpt>
      <trkpt lat="42.80023" lon="1.73984">
        <ele>1318.125</ele>
        <time>2021-03-23T08:36:29Z</time>
      </trkpt>
      <trkpt lat="42.80024" lon="1.73985">
        <ele>1318.322</ele>
        <time>2021-03-23T08:36:31Z</time>
      </trkpt>
      <trkpt lat="42.80025" lon="1.73987">
        <ele>1318.88</ele>
        <time>2021-03-23T08:36:33Z</time>
      </trkpt>
      <trkpt lat="42.80025" lon="1.73988">
        <ele>1318.711</ele>
        <time>2021-03-23T08:36:35Z</time>
      </trkpt>
      <trkpt lat="42.80025" lon="1.7399">
        <ele>1318.942</ele>
        <time>2021-03-23T08:36:37Z</time>
      </trkpt>
      <trkpt lat="42.80026" lon="1.73991">
        <ele>1318.461</ele>
        <time>2021-03-23T08:36:39Z</time>
      </trkpt>
      <trkpt lat="42.80026" lon="1.73993">
        <ele>1318.446</ele>
        <time>2021-03-23T08:36:41Z</time>
      </trkpt>
      <trkpt lat="42.80027" lon="1.73995">
        <ele>1317.875</ele>
        <time>2021-03-23T08:36:43Z</time>
      </trkpt>
      <trkpt lat="42.80027" lon="1.73997">
        <ele>1317.754</ele>
        <time>2021-03-23T08:36:45Z</time>
      </trkpt>
      <trkpt lat="42.80027" lon="1.73999">
        <ele>1317.846</ele>
        <time>2021-03-23T08:36:47Z</time>
      </trkpt>
      <trkpt lat="42.80027" lon="1.74002">
        <ele>1318.874</ele>
        <time>2021-03-23T08:36:49Z</time>
      </trkpt>
      <trkpt lat="42.80027" lon="1.74004">
        <ele>1318.939</ele>
        <time>2021-03-23T08:36:51Z</time>
      </trkpt>
      <trkpt lat="42.80028" lon="1.74006">
        <ele>1318.927</ele>
        <time>2021-03-23T08:36:53Z</time>
      </trkpt>
      <trkpt lat="42.80028" lon="1.74008">
        <ele>1318.883</ele>
        <time>2021-03-23T08:36:55Z</time>
      </trkpt>
      <trkpt lat="42.80028" lon="1.74009">
        <ele>1319.045</ele>
        <time>2021-03-23T08:36:57Z</time>
      </trkpt>
      <trkpt lat="42.80029" lon="1.7401">
        <ele>1319.324</ele>
        <time>2021-03-23T08:36:59Z</time>
      </trkpt>
      <trkpt lat="42.80031" lon="1.74012">
        <ele>1319.087</ele>
        <time>2021-03-23T08:37:02Z</time>
      </trkpt>
      <trkpt lat="42.80032" lon="1.74013">
        <ele>1320.132</ele>
        <time>2021-03-23T08:37:04Z</time>
      </trkpt>
      <trkpt lat="42.80033" lon="1.74015">
        <ele>1320.212</ele>
        <time>2021-03-23T08:37:06Z</time>
      </trkpt>
      <trkpt lat="42.80034" lon="1.74016">
        <ele>1320.745</ele>
        <time>2021-03-23T08:37:08Z</time>
      </trkpt>
      <trkpt lat="42.80035" lon="1.74017">
        <ele>1320.874</ele>
        <time>2021-03-23T08:37:10Z</time>
      </trkpt>
      <trkpt lat="42.80036" lon="1.74018">
        <ele>1320.377</ele>
        <time>2021-03-23T08:37:12Z</time>
      </trkpt>
      <trkpt lat="42.80037" lon="1.7402">
        <ele>1320.267</ele>
        <time>2021-03-23T08:37:14Z</time>
      </trkpt>
      <trkpt lat="42.80038" lon="1.74021">
        <ele>1320.499</ele>
        <time>2021-03-23T08:37:16Z</time>
      </trkpt>
      <trkpt lat="42.80039" lon="1.74022">
        <ele>1320.434</ele>
        <time>2021-03-23T08:37:18Z</time>
      </trkpt>
      <trkpt lat="42.8004" lon="1.74024">
        <ele>1320.473</ele>
        <time>2021-03-23T08:37:20Z</time>
      </trkpt>
      <trkpt lat="42.80041" lon="1.74026">
        <ele>1320.127</ele>
        <time>2021-03-23T08:37:22Z</time>
      </trkpt>
      <trkpt lat="42.80041" lon="1.74027">
        <ele>1320.707</ele>
        <time>2021-03-23T08:37:24Z</time>
      </trkpt>
      <trkpt lat="42.80043" lon="1.74028">
        <ele>1320.084</ele>
        <time>2021-03-23T08:37:26Z</time>
      </trkpt>
      <trkpt lat="42.80044" lon="1.74028">
        <ele>1321.26</ele>
        <time>2021-03-23T08:37:28Z</time>
      </trkpt>
      <trkpt lat="42.80046" lon="1.74028">
        <ele>1321.78</ele>
        <time>2021-03-23T08:37:30Z</time>
      </trkpt>
      <trkpt lat="42.80047" lon="1.74029">
        <ele>1322.672</ele>
        <time>2021-03-23T08:37:32Z</time>
      </trkpt>
      <trkpt lat="42.80049" lon="1.74028">
        <ele>1323.22</ele>
        <time>2021-03-23T08:37:34Z</time>
      </trkpt>
      <trkpt lat="42.8005" lon="1.74027">
        <ele>1323.213</ele>
        <time>2021-03-23T08:37:36Z</time>
      </trkpt>
      <trkpt lat="42.80051" lon="1.74027">
        <ele>1323.446</ele>
        <time>2021-03-23T08:37:38Z</time>
      </trkpt>
      <trkpt lat="42.80052" lon="1.74028">
        <ele>1324.368</ele>
        <time>2021-03-23T08:37:40Z</time>
      </trkpt>
      <trkpt lat="42.80053" lon="1.74029">
        <ele>1324.385</ele>
        <time>2021-03-23T08:37:42Z</time>
      </trkpt>
      <trkpt lat="42.80054" lon="1.7403">
        <ele>1325.257</ele>
        <time>2021-03-23T08:37:44Z</time>
      </trkpt>
      <trkpt lat="42.80056" lon="1.74031">
        <ele>1325.76</ele>
        <time>2021-03-23T08:37:46Z</time>
      </trkpt>
      <trkpt lat="42.80056" lon="1.74033">
        <ele>1325.976</ele>
        <time>2021-03-23T08:37:48Z</time>
      </trkpt>
      <trkpt lat="42.80057" lon="1.74034">
        <ele>1326.424</ele>
        <time>2021-03-23T08:37:50Z</time>
      </trkpt>
      <trkpt lat="42.80058" lon="1.74035">
        <ele>1326.234</ele>
        <time>2021-03-23T08:37:52Z</time>
      </trkpt>
      <trkpt lat="42.80059" lon="1.74036">
        <ele>1325.78</ele>
        <time>2021-03-23T08:37:54Z</time>
      </trkpt>
      <trkpt lat="42.80061" lon="1.74037">
        <ele>1326.791</ele>
        <time>2021-03-23T08:37:56Z</time>
      </trkpt>
      <trkpt lat="42.80061" lon="1.74038">
        <ele>1328.113</ele>
        <time>2021-03-23T08:37:58Z</time>
      </trkpt>
      <trkpt lat="42.80063" lon="1.74039">
        <ele>1328.868</ele>
        <time>2021-03-23T08:38:00Z</time>
      </trkpt>
      <trkpt lat="42.80063" lon="1.7404">
        <ele>1329.288</ele>
        <time>2021-03-23T08:38:02Z</time>
      </trkpt>
      <trkpt lat="42.80064" lon="1.74041">
        <ele>1329.252</ele>
        <time>2021-03-23T08:38:04Z</time>
      </trkpt>
      <trkpt lat="42.80064" lon="1.74043">
        <ele>1328.538</ele>
        <time>2021-03-23T08:38:06Z</time>
      </trkpt>
      <trkpt lat="42.80065" lon="1.74044">
        <ele>1328.994</ele>
        <time>2021-03-23T08:38:08Z</time>
      </trkpt>
      <trkpt lat="42.80066" lon="1.74046">
        <ele>1328.47</ele>
        <time>2021-03-23T08:38:10Z</time>
      </trkpt>
      <trkpt lat="42.80067" lon="1.74047">
        <ele>1328.869</ele>
        <time>2021-03-23T08:38:12Z</time>
      </trkpt>
      <trkpt lat="42.80068" lon="1.74047">
        <ele>1329.146</ele>
        <time>2021-03-23T08:38:14Z</time>
      </trkpt>
      <trkpt lat="42.80069" lon="1.74047">
        <ele>1329.762</ele>
        <time>2021-03-23T08:38:16Z</time>
      </trkpt>
      <trkpt lat="42.8007" lon="1.74046">
        <ele>1330.953</ele>
        <time>2021-03-23T08:38:18Z</time>
      </trkpt>
      <trkpt lat="42.80071" lon="1.74047">
        <ele>1331.573</ele>
        <time>2021-03-23T08:38:20Z</time>
      </trkpt>
      <trkpt lat="42.80073" lon="1.74047">
        <ele>1332.373</ele>
        <time>2021-03-23T08:38:22Z</time>
      </trkpt>
      <trkpt lat="42.80074" lon="1.74048">
        <ele>1332.739</ele>
        <time>2021-03-23T08:38:24Z</time>
      </trkpt>
      <trkpt lat="42.80075" lon="1.74048">
        <ele>1332.878</ele>
        <time>2021-03-23T08:38:26Z</time>
      </trkpt>
      <trkpt lat="42.80076" lon="1.74049">
        <ele>1333.047</ele>
        <time>2021-03-23T08:38:28Z</time>
      </trkpt>
      <trkpt lat="42.80077" lon="1.7405">
        <ele>1333.645</ele>
        <time>2021-03-23T08:38:30Z</time>
      </trkpt>
      <trkpt lat="42.80078" lon="1.7405">
        <ele>1334.396</ele>
        <time>2021-03-23T08:38:32Z</time>
      </trkpt>
      <trkpt lat="42.8008" lon="1.74051">
        <ele>1334.286</ele>
        <time>2021-03-23T08:38:34Z</time>
      </trkpt>
      <trkpt lat="42.80081" lon="1.74052">
        <ele>1335.264</ele>
        <time>2021-03-23T08:38:36Z</time>
      </trkpt>
      <trkpt lat="42.80082" lon="1.74052">
        <ele>1336.778</ele>
        <time>2021-03-23T08:38:38Z</time>
      </trkpt>
      <trkpt lat="42.80083" lon="1.74052">
        <ele>1337.323</ele>
        <time>2021-03-23T08:38:40Z</time>
      </trkpt>
      <trkpt lat="42.80084" lon="1.74053">
        <ele>1337.423</ele>
        <time>2021-03-23T08:38:42Z</time>
      </trkpt>
      <trkpt lat="42.80085" lon="1.74054">
        <ele>1337.368</ele>
        <time>2021-03-23T08:38:44Z</time>
      </trkpt>
      <trkpt lat="42.80086" lon="1.74055">
        <ele>1338.306</ele>
        <time>2021-03-23T08:38:46Z</time>
      </trkpt>
      <trkpt lat="42.80087" lon="1.74053">
        <ele>1338.937</ele>
        <time>2021-03-23T08:38:48Z</time>
      </trkpt>
      <trkpt lat="42.80087" lon="1.74051">
        <ele>1339.087</ele>
        <time>2021-03-23T08:38:50Z</time>
      </trkpt>
      <trkpt lat="42.80087" lon="1.74049">
        <ele>1339.983</ele>
        <time>2021-03-23T08:38:52Z</time>
      </trkpt>
      <trkpt lat="42.80087" lon="1.74047">
        <ele>1339.528</ele>
        <time>2021-03-23T08:38:54Z</time>
      </trkpt>
      <trkpt lat="42.80088" lon="1.74046">
        <ele>1339.738</ele>
        <time>2021-03-23T08:38:56Z</time>
      </trkpt>
      <trkpt lat="42.80089" lon="1.74046">
        <ele>1339.937</ele>
        <time>2021-03-23T08:38:58Z</time>
      </trkpt>
      <trkpt lat="42.8009" lon="1.74046">
        <ele>1340.678</ele>
        <time>2021-03-23T08:39:00Z</time>
      </trkpt>
      <trkpt lat="42.80091" lon="1.74046">
        <ele>1341.052</ele>
        <time>2021-03-23T08:39:02Z</time>
      </trkpt>
      <trkpt lat="42.80092" lon="1.74047">
        <ele>1341.61</ele>
        <time>2021-03-23T08:39:04Z</time>
      </trkpt>
      <trkpt lat="42.80093" lon="1.74047">
        <ele>1341.881</ele>
        <time>2021-03-23T08:39:06Z</time>
      </trkpt>
      <trkpt lat="42.80094" lon="1.74047">
        <ele>1341.786</ele>
        <time>2021-03-23T08:39:08Z</time>
      </trkpt>
      <trkpt lat="42.80094" lon="1.74047">
        <ele>1341.956</ele>
        <time>2021-03-23T08:39:10Z</time>
      </trkpt>
      <trkpt lat="42.80095" lon="1.74047">
        <ele>1342.74</ele>
        <time>2021-03-23T08:39:12Z</time>
      </trkpt>
      <trkpt lat="42.80096" lon="1.74048">
        <ele>1343.586</ele>
        <time>2021-03-23T08:39:14Z</time>
      </trkpt>
      <trkpt lat="42.80097" lon="1.74048">
        <ele>1343.349</ele>
        <time>2021-03-23T08:39:16Z</time>
      </trkpt>
      <trkpt lat="42.80098" lon="1.74048">
        <ele>1343.068</ele>
        <time>2021-03-23T08:39:18Z</time>
      </trkpt>
      <trkpt lat="42.80099" lon="1.74049">
        <ele>1341.564</ele>
        <time>2021-03-23T08:39:20Z</time>
      </trkpt>
      <trkpt lat="42.801" lon="1.74049">
        <ele>1341.654</ele>
        <time>2021-03-23T08:39:22Z</time>
      </trkpt>
      <trkpt lat="42.80101" lon="1.74049">
        <ele>1341.469</ele>
        <time>2021-03-23T08:39:24Z</time>
      </trkpt>
      <trkpt lat="42.80102" lon="1.7405">
        <ele>1342.761</ele>
        <time>2021-03-23T08:39:26Z</time>
      </trkpt>
      <trkpt lat="42.80104" lon="1.7405">
        <ele>1342.812</ele>
        <time>2021-03-23T08:39:28Z</time>
      </trkpt>
      <trkpt lat="42.80105" lon="1.7405">
        <ele>1343.031</ele>
        <time>2021-03-23T08:39:30Z</time>
      </trkpt>
      <trkpt lat="42.80106" lon="1.74049">
        <ele>1343.356</ele>
        <time>2021-03-23T08:39:32Z</time>
      </trkpt>
      <trkpt lat="42.80107" lon="1.74049">
        <ele>1344.773</ele>
        <time>2021-03-23T08:39:34Z</time>
      </trkpt>
      <trkpt lat="42.80109" lon="1.74049">
        <ele>1345.12</ele>
        <time>2021-03-23T08:39:36Z</time>
      </trkpt>
      <trkpt lat="42.8011" lon="1.74048">
        <ele>1344.769</ele>
        <time>2021-03-23T08:39:38Z</time>
      </trkpt>
      <trkpt lat="42.80111" lon="1.74047">
        <ele>1344.316</ele>
        <time>2021-03-23T08:39:40Z</time>
      </trkpt>
      <trkpt lat="42.80111" lon="1.74046">
        <ele>1344.599</ele>
        <time>2021-03-23T08:39:42Z</time>
      </trkpt>
      <trkpt lat="42.80111" lon="1.74046">
        <ele>1344.475</ele>
        <time>2021-03-23T08:39:44Z</time>
      </trkpt>
      <trkpt lat="42.80111" lon="1.74045">
        <ele>1344.105</ele>
        <time>2021-03-23T08:39:46Z</time>
      </trkpt>
      <trkpt lat="42.80111" lon="1.74046">
        <ele>1344.066</ele>
        <time>2021-03-23T08:39:48Z</time>
      </trkpt>
      <trkpt lat="42.80113" lon="1.74046">
        <ele>1344.369</ele>
        <time>2021-03-23T08:39:50Z</time>
      </trkpt>
      <trkpt lat="42.80114" lon="1.74046">
        <ele>1345.074</ele>
        <time>2021-03-23T08:39:52Z</time>
      </trkpt>
      <trkpt lat="42.80114" lon="1.74046">
        <ele>1345.165</ele>
        <time>2021-03-23T08:39:54Z</time>
      </trkpt>
      <trkpt lat="42.80114" lon="1.74046">
        <ele>1345.137</ele>
        <time>2021-03-23T08:39:56Z</time>
      </trkpt>
      <trkpt lat="42.80114" lon="1.74046">
        <ele>1345.12</ele>
        <time>2021-03-23T08:39:58Z</time>
      </trkpt>
      <trkpt lat="42.80114" lon="1.74046">
        <ele>1345.105</ele>
        <time>2021-03-23T08:40:00Z</time>
      </trkpt>
      <trkpt lat="42.80114" lon="1.74046">
        <ele>1345.104</ele>
        <time>2021-03-23T08:40:02Z</time>
      </trkpt>
      <trkpt lat="42.80114" lon="1.74046">
        <ele>1345.125</ele>
        <time>2021-03-23T08:40:04Z</time>
      </trkpt>
      <trkpt lat="42.80114" lon="1.74046">
        <ele>1345.155</ele>
        <time>2021-03-23T08:40:06Z</time>
      </trkpt>
      <trkpt lat="42.80114" lon="1.74046">
        <ele>1345.16</ele>
        <time>2021-03-23T08:40:08Z</time>
      </trkpt>
      <trkpt lat="42.80114" lon="1.74046">
        <ele>1345.161</ele>
        <time>2021-03-23T08:40:10Z</time>
      </trkpt>
      <trkpt lat="42.80114" lon="1.74046">
        <ele>1345.167</ele>
        <time>2021-03-23T08:40:12Z</time>
      </trkpt>
      <trkpt lat="42.80114" lon="1.74046">
        <ele>1345.179</ele>
        <time>2021-03-23T08:40:14Z</time>
      </trkpt>
      <trkpt lat="42.80114" lon="1.74046">
        <ele>1345.18</ele>
        <time>2021-03-23T08:40:16Z</time>
      </trkpt>
      <trkpt lat="42.80114" lon="1.74046">
        <ele>1345.175</ele>
        <time>2021-03-23T08:40:18Z</time>
      </trkpt>
      <trkpt lat="42.80114" lon="1.74046">
        <ele>1345.184</ele>
        <time>2021-03-23T08:40:20Z</time>
      </trkpt>
      <trkpt lat="42.80114" lon="1.74046">
        <ele>1345.571</ele>
        <time>2021-03-23T08:40:22Z</time>
      </trkpt>
      <trkpt lat="42.80114" lon="1.74046">
        <ele>1345.564</ele>
        <time>2021-03-23T08:40:24Z</time>
      </trkpt>
      <trkpt lat="42.80114" lon="1.74046">
        <ele>1345.561</ele>
        <time>2021-03-23T08:40:26Z</time>
      </trkpt>
      <trkpt lat="42.80114" lon="1.74046">
        <ele>1345.571</ele>
        <time>2021-03-23T08:40:28Z</time>
      </trkpt>
      <trkpt lat="42.80114" lon="1.74046">
        <ele>1345.571</ele>
        <time>2021-03-23T08:40:30Z</time>
      </trkpt>
      <trkpt lat="42.80114" lon="1.74046">
        <ele>1345.577</ele>
        <time>2021-03-23T08:40:32Z</time>
      </trkpt>
      <trkpt lat="42.80114" lon="1.74046">
        <ele>1345.582</ele>
        <time>2021-03-23T08:40:34Z</time>
      </trkpt>
      <trkpt lat="42.80114" lon="1.74046">
        <ele>1345.597</ele>
        <time>2021-03-23T08:40:36Z</time>
      </trkpt>
      <trkpt lat="42.80114" lon="1.74046">
        <ele>1345.608</ele>
        <time>2021-03-23T08:40:38Z</time>
      </trkpt>
      <trkpt lat="42.80114" lon="1.74046">
        <ele>1345.616</ele>
        <time>2021-03-23T08:40:40Z</time>
      </trkpt>
      <trkpt lat="42.80114" lon="1.74046">
        <ele>1345.62</ele>
        <time>2021-03-23T08:40:42Z</time>
      </trkpt>
      <trkpt lat="42.80114" lon="1.74046">
        <ele>1345.627</ele>
        <time>2021-03-23T08:40:44Z</time>
      </trkpt>
      <trkpt lat="42.80114" lon="1.74046">
        <ele>1345.639</ele>
        <time>2021-03-23T08:40:46Z</time>
      </trkpt>
      <trkpt lat="42.80114" lon="1.74046">
        <ele>1345.655</ele>
        <time>2021-03-23T08:40:48Z</time>
      </trkpt>
      <trkpt lat="42.80114" lon="1.74046">
        <ele>1345.653</ele>
        <time>2021-03-23T08:40:50Z</time>
      </trkpt>
      <trkpt lat="42.80114" lon="1.74046">
        <ele>1345.648</ele>
        <time>2021-03-23T08:40:52Z</time>
      </trkpt>
      <trkpt lat="42.80114" lon="1.74046">
        <ele>1345.637</ele>
        <time>2021-03-23T08:40:54Z</time>
      </trkpt>
      <trkpt lat="42.80114" lon="1.74046">
        <ele>1345.423</ele>
        <time>2021-03-23T08:40:56Z</time>
      </trkpt>
      <trkpt lat="42.80114" lon="1.74046">
        <ele>1345.416</ele>
        <time>2021-03-23T08:40:58Z</time>
      </trkpt>
      <trkpt lat="42.80114" lon="1.74046">
        <ele>1345.397</ele>
        <time>2021-03-23T08:41:00Z</time>
      </trkpt>
      <trkpt lat="42.80114" lon="1.74046">
        <ele>1345.406</ele>
        <time>2021-03-23T08:41:02Z</time>
      </trkpt>
      <trkpt lat="42.80114" lon="1.74046">
        <ele>1345.416</ele>
        <time>2021-03-23T08:41:04Z</time>
      </trkpt>
      <trkpt lat="42.80114" lon="1.74046">
        <ele>1344.692</ele>
        <time>2021-03-23T08:41:06Z</time>
      </trkpt>
      <trkpt lat="42.80113" lon="1.74046">
        <ele>1344.678</ele>
        <time>2021-03-23T08:41:08Z</time>
      </trkpt>
      <trkpt lat="42.80113" lon="1.74046">
        <ele>1344.667</ele>
        <time>2021-03-23T08:41:10Z</time>
      </trkpt>
      <trkpt lat="42.80113" lon="1.74046">
        <ele>1344.657</ele>
        <time>2021-03-23T08:41:12Z</time>
      </trkpt>
      <trkpt lat="42.80113" lon="1.74046">
        <ele>1344.669</ele>
        <time>2021-03-23T08:41:14Z</time>
      </trkpt>
      <trkpt lat="42.80113" lon="1.74046">
        <ele>1344.695</ele>
        <time>2021-03-23T08:41:16Z</time>
      </trkpt>
      <trkpt lat="42.80113" lon="1.74046">
        <ele>1344.714</ele>
        <time>2021-03-23T08:41:18Z</time>
      </trkpt>
      <trkpt lat="42.80113" lon="1.74046">
        <ele>1344.716</ele>
        <time>2021-03-23T08:41:20Z</time>
      </trkpt>
      <trkpt lat="42.80113" lon="1.74046">
        <ele>1344.727</ele>
        <time>2021-03-23T08:41:22Z</time>
      </trkpt>
      <trkpt lat="42.80113" lon="1.74046">
        <ele>1344.701</ele>
        <time>2021-03-23T08:41:24Z</time>
      </trkpt>
      <trkpt lat="42.80113" lon="1.74046">
        <ele>1344.702</ele>
        <time>2021-03-23T08:41:26Z</time>
      </trkpt>
      <trkpt lat="42.80113" lon="1.74046">
        <ele>1344.714</ele>
        <time>2021-03-23T08:41:28Z</time>
      </trkpt>
      <trkpt lat="42.80113" lon="1.74046">
        <ele>1344.729</ele>
        <time>2021-03-23T08:41:30Z</time>
      </trkpt>
      <trkpt lat="42.80113" lon="1.74046">
        <ele>1344.736</ele>
        <time>2021-03-23T08:41:32Z</time>
      </trkpt>
      <trkpt lat="42.80113" lon="1.74046">
        <ele>1344.741</ele>
        <time>2021-03-23T08:41:34Z</time>
      </trkpt>
      <trkpt lat="42.80113" lon="1.74046">
        <ele>1344.727</ele>
        <time>2021-03-23T08:41:36Z</time>
      </trkpt>
      <trkpt lat="42.80113" lon="1.74045">
        <ele>1344.768</ele>
        <time>2021-03-23T08:41:38Z</time>
      </trkpt>
      <trkpt lat="42.80114" lon="1.74045">
        <ele>1345.067</ele>
        <time>2021-03-23T08:41:40Z</time>
      </trkpt>
      <trkpt lat="42.80114" lon="1.74043">
        <ele>1345.774</ele>
        <time>2021-03-23T08:41:42Z</time>
      </trkpt>
      <trkpt lat="42.80114" lon="1.74042">
        <ele>1346.611</ele>
        <time>2021-03-23T08:41:44Z</time>
      </trkpt>
      <trkpt lat="42.80115" lon="1.74041">
        <ele>1347.663</ele>
        <time>2021-03-23T08:41:46Z</time>
      </trkpt>
      <trkpt lat="42.80117" lon="1.7404">
        <ele>1346.095</ele>
        <time>2021-03-23T08:41:48Z</time>
      </trkpt>
      <trkpt lat="42.80117" lon="1.74038">
        <ele>1346.697</ele>
        <time>2021-03-23T08:41:50Z</time>
      </trkpt>
      <trkpt lat="42.80118" lon="1.74037">
        <ele>1347.738</ele>
        <time>2021-03-23T08:41:52Z</time>
      </trkpt>
      <trkpt lat="42.80118" lon="1.74036">
        <ele>1348.456</ele>
        <time>2021-03-23T08:41:54Z</time>
      </trkpt>
      <trkpt lat="42.80118" lon="1.74035">
        <ele>1349.13</ele>
        <time>2021-03-23T08:41:56Z</time>
      </trkpt>
      <trkpt lat="42.80118" lon="1.74033">
        <ele>1349.75</ele>
        <time>2021-03-23T08:41:58Z</time>
      </trkpt>
      <trkpt lat="42.80119" lon="1.74032">
        <ele>1349.354</ele>
        <time>2021-03-23T08:42:00Z</time>
      </trkpt>
      <trkpt lat="42.8012" lon="1.7403">
        <ele>1350.077</ele>
        <time>2021-03-23T08:42:02Z</time>
      </trkpt>
      <trkpt lat="42.80121" lon="1.7403">
        <ele>1350.594</ele>
        <time>2021-03-23T08:42:04Z</time>
      </trkpt>
      <trkpt lat="42.80122" lon="1.74029">
        <ele>1352.274</ele>
        <time>2021-03-23T08:42:06Z</time>
      </trkpt>
      <trkpt lat="42.80122" lon="1.74028">
        <ele>1352.849</ele>
        <time>2021-03-23T08:42:08Z</time>
      </trkpt>
      <trkpt lat="42.80123" lon="1.74028">
        <ele>1352.98</ele>
        <time>2021-03-23T08:42:10Z</time>
      </trkpt>
      <trkpt lat="42.80125" lon="1.74028">
        <ele>1353.446</ele>
        <time>2021-03-23T08:42:12Z</time>
      </trkpt>
      <trkpt lat="42.80125" lon="1.74027">
        <ele>1354.168</ele>
        <time>2021-03-23T08:42:14Z</time>
      </trkpt>
      <trkpt lat="42.80126" lon="1.74027">
        <ele>1354.27</ele>
        <time>2021-03-23T08:42:16Z</time>
      </trkpt>
      <trkpt lat="42.80127" lon="1.74027">
        <ele>1354.641</ele>
        <time>2021-03-23T08:42:18Z</time>
      </trkpt>
      <trkpt lat="42.80128" lon="1.74027">
        <ele>1354.726</ele>
        <time>2021-03-23T08:42:20Z</time>
      </trkpt>
      <trkpt lat="42.80129" lon="1.74027">
        <ele>1356.552</ele>
        <time>2021-03-23T08:42:22Z</time>
      </trkpt>
      <trkpt lat="42.8013" lon="1.74027">
        <ele>1357.682</ele>
        <time>2021-03-23T08:42:24Z</time>
      </trkpt>
      <trkpt lat="42.80131" lon="1.74027">
        <ele>1357.228</ele>
        <time>2021-03-23T08:42:26Z</time>
      </trkpt>
      <trkpt lat="42.80133" lon="1.74026">
        <ele>1357.2</ele>
        <time>2021-03-23T08:42:28Z</time>
      </trkpt>
      <trkpt lat="42.80134" lon="1.74026">
        <ele>1357.753</ele>
        <time>2021-03-23T08:42:30Z</time>
      </trkpt>
      <trkpt lat="42.80135" lon="1.74025">
        <ele>1357.915</ele>
        <time>2021-03-23T08:42:32Z</time>
      </trkpt>
      <trkpt lat="42.80136" lon="1.74025">
        <ele>1357.389</ele>
        <time>2021-03-23T08:42:34Z</time>
      </trkpt>
      <trkpt lat="42.80137" lon="1.74025">
        <ele>1358.054</ele>
        <time>2021-03-23T08:42:36Z</time>
      </trkpt>
      <trkpt lat="42.80139" lon="1.74025">
        <ele>1357.924</ele>
        <time>2021-03-23T08:42:38Z</time>
      </trkpt>
      <trkpt lat="42.8014" lon="1.74025">
        <ele>1357.653</ele>
        <time>2021-03-23T08:42:40Z</time>
      </trkpt>
      <trkpt lat="42.80142" lon="1.74025">
        <ele>1358.116</ele>
        <time>2021-03-23T08:42:42Z</time>
      </trkpt>
      <trkpt lat="42.80143" lon="1.74025">
        <ele>1358.981</ele>
        <time>2021-03-23T08:42:44Z</time>
      </trkpt>
      <trkpt lat="42.80144" lon="1.74025">
        <ele>1359.437</ele>
        <time>2021-03-23T08:42:46Z</time>
      </trkpt>
      <trkpt lat="42.80146" lon="1.74025">
        <ele>1359.929</ele>
        <time>2021-03-23T08:42:48Z</time>
      </trkpt>
      <trkpt lat="42.80147" lon="1.74024">
        <ele>1360.642</ele>
        <time>2021-03-23T08:42:50Z</time>
      </trkpt>
      <trkpt lat="42.80148" lon="1.74024">
        <ele>1361.624</ele>
        <time>2021-03-23T08:42:52Z</time>
      </trkpt>
      <trkpt lat="42.80149" lon="1.74024">
        <ele>1362.399</ele>
        <time>2021-03-23T08:42:54Z</time>
      </trkpt>
      <trkpt lat="42.8015" lon="1.74023">
        <ele>1361.768</ele>
        <time>2021-03-23T08:42:56Z</time>
      </trkpt>
      <trkpt lat="42.80152" lon="1.74022">
        <ele>1361.862</ele>
        <time>2021-03-23T08:42:58Z</time>
      </trkpt>
      <trkpt lat="42.80153" lon="1.74022">
        <ele>1363.167</ele>
        <time>2021-03-23T08:43:00Z</time>
      </trkpt>
      <trkpt lat="42.80154" lon="1.74022">
        <ele>1363.585</ele>
        <time>2021-03-23T08:43:02Z</time>
      </trkpt>
      <trkpt lat="42.80155" lon="1.74023">
        <ele>1364.433</ele>
        <time>2021-03-23T08:43:04Z</time>
      </trkpt>
      <trkpt lat="42.80156" lon="1.74023">
        <ele>1364.101</ele>
        <time>2021-03-23T08:43:06Z</time>
      </trkpt>
      <trkpt lat="42.80157" lon="1.74023">
        <ele>1364.609</ele>
        <time>2021-03-23T08:43:08Z</time>
      </trkpt>
      <trkpt lat="42.80159" lon="1.74024">
        <ele>1365.142</ele>
        <time>2021-03-23T08:43:10Z</time>
      </trkpt>
      <trkpt lat="42.8016" lon="1.74024">
        <ele>1366.226</ele>
        <time>2021-03-23T08:43:12Z</time>
      </trkpt>
      <trkpt lat="42.80161" lon="1.74024">
        <ele>1367.069</ele>
        <time>2021-03-23T08:43:14Z</time>
      </trkpt>
      <trkpt lat="42.80163" lon="1.74024">
        <ele>1367.582</ele>
        <time>2021-03-23T08:43:16Z</time>
      </trkpt>
      <trkpt lat="42.80165" lon="1.74024">
        <ele>1367.713</ele>
        <time>2021-03-23T08:43:18Z</time>
      </trkpt>
      <trkpt lat="42.80167" lon="1.74025">
        <ele>1367.495</ele>
        <time>2021-03-23T08:43:20Z</time>
      </trkpt>
      <trkpt lat="42.80168" lon="1.74025">
        <ele>1366.593</ele>
        <time>2021-03-23T08:43:22Z</time>
      </trkpt>
      <trkpt lat="42.8017" lon="1.74026">
        <ele>1367.599</ele>
        <time>2021-03-23T08:43:24Z</time>
      </trkpt>
      <trkpt lat="42.80171" lon="1.74026">
        <ele>1367.934</ele>
        <time>2021-03-23T08:43:26Z</time>
      </trkpt>
      <trkpt lat="42.80173" lon="1.74026">
        <ele>1368.224</ele>
        <time>2021-03-23T08:43:28Z</time>
      </trkpt>
      <trkpt lat="42.80174" lon="1.74027">
        <ele>1368.487</ele>
        <time>2021-03-23T08:43:30Z</time>
      </trkpt>
      <trkpt lat="42.80175" lon="1.74028">
        <ele>1369.312</ele>
        <time>2021-03-23T08:43:32Z</time>
      </trkpt>
      <trkpt lat="42.80176" lon="1.74028">
        <ele>1369.575</ele>
        <time>2021-03-23T08:43:34Z</time>
      </trkpt>
      <trkpt lat="42.80178" lon="1.74029">
        <ele>1369.388</ele>
        <time>2021-03-23T08:43:36Z</time>
      </trkpt>
      <trkpt lat="42.80179" lon="1.74029">
        <ele>1369.175</ele>
        <time>2021-03-23T08:43:38Z</time>
      </trkpt>
      <trkpt lat="42.80181" lon="1.74029">
        <ele>1368.731</ele>
        <time>2021-03-23T08:43:40Z</time>
      </trkpt>
      <trkpt lat="42.80183" lon="1.7403">
        <ele>1368.412</ele>
        <time>2021-03-23T08:43:42Z</time>
      </trkpt>
      <trkpt lat="42.80184" lon="1.7403">
        <ele>1368.484</ele>
        <time>2021-03-23T08:43:44Z</time>
      </trkpt>
      <trkpt lat="42.80186" lon="1.7403">
        <ele>1368.93</ele>
        <time>2021-03-23T08:43:46Z</time>
      </trkpt>
      <trkpt lat="42.80187" lon="1.7403">
        <ele>1369.085</ele>
        <time>2021-03-23T08:43:48Z</time>
      </trkpt>
      <trkpt lat="42.80189" lon="1.7403">
        <ele>1368.55</ele>
        <time>2021-03-23T08:43:50Z</time>
      </trkpt>
      <trkpt lat="42.8019" lon="1.7403">
        <ele>1369.643</ele>
        <time>2021-03-23T08:43:52Z</time>
      </trkpt>
      <trkpt lat="42.80191" lon="1.74031">
        <ele>1369.925</ele>
        <time>2021-03-23T08:43:54Z</time>
      </trkpt>
      <trkpt lat="42.80192" lon="1.74031">
        <ele>1370.594</ele>
        <time>2021-03-23T08:43:56Z</time>
      </trkpt>
      <trkpt lat="42.80193" lon="1.74032">
        <ele>1371.316</ele>
        <time>2021-03-23T08:43:58Z</time>
      </trkpt>
      <trkpt lat="42.80194" lon="1.74032">
        <ele>1371.493</ele>
        <time>2021-03-23T08:44:00Z</time>
      </trkpt>
      <trkpt lat="42.80196" lon="1.74032">
        <ele>1371.528</ele>
        <time>2021-03-23T08:44:02Z</time>
      </trkpt>
      <trkpt lat="42.80197" lon="1.74032">
        <ele>1371.154</ele>
        <time>2021-03-23T08:44:04Z</time>
      </trkpt>
      <trkpt lat="42.80198" lon="1.74032">
        <ele>1371.341</ele>
        <time>2021-03-23T08:44:06Z</time>
      </trkpt>
      <trkpt lat="42.80199" lon="1.74032">
        <ele>1371.228</ele>
        <time>2021-03-23T08:44:08Z</time>
      </trkpt>
      <trkpt lat="42.80201" lon="1.74032">
        <ele>1371.399</ele>
        <time>2021-03-23T08:44:10Z</time>
      </trkpt>
      <trkpt lat="42.80202" lon="1.74032">
        <ele>1372.15</ele>
        <time>2021-03-23T08:44:12Z</time>
      </trkpt>
      <trkpt lat="42.80203" lon="1.74031">
        <ele>1372.924</ele>
        <time>2021-03-23T08:44:14Z</time>
      </trkpt>
      <trkpt lat="42.80205" lon="1.74031">
        <ele>1372.856</ele>
        <time>2021-03-23T08:44:16Z</time>
      </trkpt>
      <trkpt lat="42.80206" lon="1.74031">
        <ele>1373.363</ele>
        <time>2021-03-23T08:44:18Z</time>
      </trkpt>
      <trkpt lat="42.80208" lon="1.74031">
        <ele>1373.884</ele>
        <time>2021-03-23T08:44:20Z</time>
      </trkpt>
      <trkpt lat="42.80209" lon="1.74031">
        <ele>1374.096</ele>
        <time>2021-03-23T08:44:22Z</time>
      </trkpt>
      <trkpt lat="42.80211" lon="1.74032">
        <ele>1374.241</ele>
        <time>2021-03-23T08:44:24Z</time>
      </trkpt>
      <trkpt lat="42.80212" lon="1.74031">
        <ele>1374.246</ele>
        <time>2021-03-23T08:44:26Z</time>
      </trkpt>
      <trkpt lat="42.80213" lon="1.7403">
        <ele>1373.979</ele>
        <time>2021-03-23T08:44:28Z</time>
      </trkpt>
      <trkpt lat="42.80215" lon="1.7403">
        <ele>1374.902</ele>
        <time>2021-03-23T08:44:30Z</time>
      </trkpt>
      <trkpt lat="42.80216" lon="1.74029">
        <ele>1376.348</ele>
        <time>2021-03-23T08:44:32Z</time>
      </trkpt>
      <trkpt lat="42.80217" lon="1.74029">
        <ele>1376.793</ele>
        <time>2021-03-23T08:44:34Z</time>
      </trkpt>
      <trkpt lat="42.80217" lon="1.74028">
        <ele>1377.064</ele>
        <time>2021-03-23T08:44:36Z</time>
      </trkpt>
      <trkpt lat="42.80218" lon="1.74028">
        <ele>1376.55</ele>
        <time>2021-03-23T08:44:38Z</time>
      </trkpt>
      <trkpt lat="42.8022" lon="1.74029">
        <ele>1378.309</ele>
        <time>2021-03-23T08:44:40Z</time>
      </trkpt>
      <trkpt lat="42.80222" lon="1.74029">
        <ele>1378.299</ele>
        <time>2021-03-23T08:44:42Z</time>
      </trkpt>
      <trkpt lat="42.80223" lon="1.74029">
        <ele>1379.483</ele>
        <time>2021-03-23T08:44:44Z</time>
      </trkpt>
      <trkpt lat="42.80224" lon="1.74029">
        <ele>1379.3</ele>
        <time>2021-03-23T08:44:46Z</time>
      </trkpt>
      <trkpt lat="42.80225" lon="1.74028">
        <ele>1379.4</ele>
        <time>2021-03-23T08:44:48Z</time>
      </trkpt>
      <trkpt lat="42.80226" lon="1.74028">
        <ele>1379.332</ele>
        <time>2021-03-23T08:44:50Z</time>
      </trkpt>
      <trkpt lat="42.80227" lon="1.74028">
        <ele>1379.065</ele>
        <time>2021-03-23T08:44:52Z</time>
      </trkpt>
      <trkpt lat="42.80228" lon="1.74028">
        <ele>1379.346</ele>
        <time>2021-03-23T08:44:54Z</time>
      </trkpt>
      <trkpt lat="42.80229" lon="1.74029">
        <ele>1380.307</ele>
        <time>2021-03-23T08:44:56Z</time>
      </trkpt>
      <trkpt lat="42.80231" lon="1.7403">
        <ele>1380.709</ele>
        <time>2021-03-23T08:44:58Z</time>
      </trkpt>
      <trkpt lat="42.80232" lon="1.74031">
        <ele>1380.41</ele>
        <time>2021-03-23T08:45:00Z</time>
      </trkpt>
      <trkpt lat="42.80235" lon="1.74034">
        <ele>1381.956</ele>
        <time>2021-03-23T08:45:02Z</time>
      </trkpt>
      <trkpt lat="42.80237" lon="1.74037">
        <ele>1385.169</ele>
        <time>2021-03-23T08:45:04Z</time>
      </trkpt>
      <trkpt lat="42.80239" lon="1.74037">
        <ele>1384.131</ele>
        <time>2021-03-23T08:45:06Z</time>
      </trkpt>
      <trkpt lat="42.8024" lon="1.74037">
        <ele>1385.035</ele>
        <time>2021-03-23T08:45:08Z</time>
      </trkpt>
      <trkpt lat="42.80241" lon="1.74038">
        <ele>1384.202</ele>
        <time>2021-03-23T08:45:10Z</time>
      </trkpt>
      <trkpt lat="42.80243" lon="1.74038">
        <ele>1384.176</ele>
        <time>2021-03-23T08:45:12Z</time>
      </trkpt>
      <trkpt lat="42.80244" lon="1.74039">
        <ele>1384.643</ele>
        <time>2021-03-23T08:45:14Z</time>
      </trkpt>
      <trkpt lat="42.80246" lon="1.7404">
        <ele>1383.954</ele>
        <time>2021-03-23T08:45:16Z</time>
      </trkpt>
      <trkpt lat="42.80248" lon="1.74041">
        <ele>1383.944</ele>
        <time>2021-03-23T08:45:18Z</time>
      </trkpt>
      <trkpt lat="42.80249" lon="1.74042">
        <ele>1383.329</ele>
        <time>2021-03-23T08:45:20Z</time>
      </trkpt>
      <trkpt lat="42.80251" lon="1.74042">
        <ele>1383.471</ele>
        <time>2021-03-23T08:45:22Z</time>
      </trkpt>
      <trkpt lat="42.80252" lon="1.74043">
        <ele>1383.804</ele>
        <time>2021-03-23T08:45:24Z</time>
      </trkpt>
      <trkpt lat="42.80254" lon="1.74044">
        <ele>1383.701</ele>
        <time>2021-03-23T08:45:26Z</time>
      </trkpt>
      <trkpt lat="42.80256" lon="1.74046">
        <ele>1384.148</ele>
        <time>2021-03-23T08:45:28Z</time>
      </trkpt>
      <trkpt lat="42.80258" lon="1.74048">
        <ele>1383.192</ele>
        <time>2021-03-23T08:45:30Z</time>
      </trkpt>
      <trkpt lat="42.80259" lon="1.74048">
        <ele>1383.581</ele>
        <time>2021-03-23T08:45:32Z</time>
      </trkpt>
      <trkpt lat="42.8026" lon="1.74049">
        <ele>1383.382</ele>
        <time>2021-03-23T08:45:34Z</time>
      </trkpt>
      <trkpt lat="42.80262" lon="1.7405">
        <ele>1383.666</ele>
        <time>2021-03-23T08:45:36Z</time>
      </trkpt>
      <trkpt lat="42.80264" lon="1.74053">
        <ele>1385.672</ele>
        <time>2021-03-23T08:45:38Z</time>
      </trkpt>
      <trkpt lat="42.80266" lon="1.74056">
        <ele>1385.993</ele>
        <time>2021-03-23T08:45:40Z</time>
      </trkpt>
      <trkpt lat="42.80268" lon="1.74058">
        <ele>1388.945</ele>
        <time>2021-03-23T08:45:42Z</time>
      </trkpt>
      <trkpt lat="42.80271" lon="1.74059">
        <ele>1389.604</ele>
        <time>2021-03-23T08:45:44Z</time>
      </trkpt>
      <trkpt lat="42.80272" lon="1.74059">
        <ele>1389.162</ele>
        <time>2021-03-23T08:45:46Z</time>
      </trkpt>
      <trkpt lat="42.80274" lon="1.74059">
        <ele>1388.49</ele>
        <time>2021-03-23T08:45:48Z</time>
      </trkpt>
      <trkpt lat="42.80275" lon="1.7406">
        <ele>1388.319</ele>
        <time>2021-03-23T08:45:50Z</time>
      </trkpt>
      <trkpt lat="42.80277" lon="1.74061">
        <ele>1388.681</ele>
        <time>2021-03-23T08:45:52Z</time>
      </trkpt>
      <trkpt lat="42.80279" lon="1.74062">
        <ele>1388.682</ele>
        <time>2021-03-23T08:45:54Z</time>
      </trkpt>
      <trkpt lat="42.8028" lon="1.74064">
        <ele>1388.994</ele>
        <time>2021-03-23T08:45:56Z</time>
      </trkpt>
      <trkpt lat="42.80282" lon="1.74065">
        <ele>1388.907</ele>
        <time>2021-03-23T08:45:58Z</time>
      </trkpt>
      <trkpt lat="42.80285" lon="1.74067">
        <ele>1389.46</ele>
        <time>2021-03-23T08:46:00Z</time>
      </trkpt>
      <trkpt lat="42.80286" lon="1.74068">
        <ele>1389.115</ele>
        <time>2021-03-23T08:46:02Z</time>
      </trkpt>
      <trkpt lat="42.80287" lon="1.7407">
        <ele>1389.37</ele>
        <time>2021-03-23T08:46:04Z</time>
      </trkpt>
      <trkpt lat="42.80288" lon="1.74072">
        <ele>1388.735</ele>
        <time>2021-03-23T08:46:06Z</time>
      </trkpt>
      <trkpt lat="42.8029" lon="1.74074">
        <ele>1388.009</ele>
        <time>2021-03-23T08:46:08Z</time>
      </trkpt>
      <trkpt lat="42.80291" lon="1.74076">
        <ele>1387.805</ele>
        <time>2021-03-23T08:46:10Z</time>
      </trkpt>
      <trkpt lat="42.80291" lon="1.74078">
        <ele>1388.476</ele>
        <time>2021-03-23T08:46:12Z</time>
      </trkpt>
      <trkpt lat="42.80292" lon="1.74081">
        <ele>1388.81</ele>
        <time>2021-03-23T08:46:14Z</time>
      </trkpt>
      <trkpt lat="42.80292" lon="1.74082">
        <ele>1388.912</ele>
        <time>2021-03-23T08:46:15Z</time>
      </trkpt>
      <trkpt lat="42.80293" lon="1.74084">
        <ele>1389.469</ele>
        <time>2021-03-23T08:46:18Z</time>
      </trkpt>
      <trkpt lat="42.80294" lon="1.74086">
        <ele>1389.769</ele>
        <time>2021-03-23T08:46:20Z</time>
      </trkpt>
      <trkpt lat="42.80294" lon="1.74088">
        <ele>1389.557</ele>
        <time>2021-03-23T08:46:22Z</time>
      </trkpt>
      <trkpt lat="42.80294" lon="1.7409">
        <ele>1390.014</ele>
        <time>2021-03-23T08:46:24Z</time>
      </trkpt>
      <trkpt lat="42.80294" lon="1.74091">
        <ele>1390.346</ele>
        <time>2021-03-23T08:46:26Z</time>
      </trkpt>
      <trkpt lat="42.80293" lon="1.74093">
        <ele>1390.892</ele>
        <time>2021-03-23T08:46:28Z</time>
      </trkpt>
      <trkpt lat="42.80294" lon="1.74095">
        <ele>1391.501</ele>
        <time>2021-03-23T08:46:30Z</time>
      </trkpt>
      <trkpt lat="42.80293" lon="1.74097">
        <ele>1391.152</ele>
        <time>2021-03-23T08:46:32Z</time>
      </trkpt>
      <trkpt lat="42.80292" lon="1.74099">
        <ele>1391.216</ele>
        <time>2021-03-23T08:46:34Z</time>
      </trkpt>
      <trkpt lat="42.80292" lon="1.74101">
        <ele>1391.612</ele>
        <time>2021-03-23T08:46:36Z</time>
      </trkpt>
      <trkpt lat="42.80292" lon="1.74103">
        <ele>1391.329</ele>
        <time>2021-03-23T08:46:38Z</time>
      </trkpt>
      <trkpt lat="42.80292" lon="1.74105">
        <ele>1391.299</ele>
        <time>2021-03-23T08:46:40Z</time>
      </trkpt>
      <trkpt lat="42.80291" lon="1.74107">
        <ele>1391.518</ele>
        <time>2021-03-23T08:46:42Z</time>
      </trkpt>
      <trkpt lat="42.80292" lon="1.7411">
        <ele>1391.541</ele>
        <time>2021-03-23T08:46:45Z</time>
      </trkpt>
      <trkpt lat="42.80292" lon="1.74112">
        <ele>1391.772</ele>
        <time>2021-03-23T08:46:47Z</time>
      </trkpt>
      <trkpt lat="42.80292" lon="1.74114">
        <ele>1391.923</ele>
        <time>2021-03-23T08:46:49Z</time>
      </trkpt>
      <trkpt lat="42.80292" lon="1.74115">
        <ele>1392.173</ele>
        <time>2021-03-23T08:46:51Z</time>
      </trkpt>
      <trkpt lat="42.8029" lon="1.74117">
        <ele>1393.254</ele>
        <time>2021-03-23T08:46:53Z</time>
      </trkpt>
      <trkpt lat="42.80291" lon="1.74118">
        <ele>1393.491</ele>
        <time>2021-03-23T08:46:55Z</time>
      </trkpt>
      <trkpt lat="42.80291" lon="1.7412">
        <ele>1393.828</ele>
        <time>2021-03-23T08:46:57Z</time>
      </trkpt>
      <trkpt lat="42.80291" lon="1.74122">
        <ele>1394</ele>
        <time>2021-03-23T08:46:59Z</time>
      </trkpt>
      <trkpt lat="42.80291" lon="1.74124">
        <ele>1394.041</ele>
        <time>2021-03-23T08:47:01Z</time>
      </trkpt>
      <trkpt lat="42.80292" lon="1.74126">
        <ele>1394.575</ele>
        <time>2021-03-23T08:47:03Z</time>
      </trkpt>
      <trkpt lat="42.80292" lon="1.74127">
        <ele>1394.94</ele>
        <time>2021-03-23T08:47:05Z</time>
      </trkpt>
      <trkpt lat="42.80293" lon="1.74128">
        <ele>1394.929</ele>
        <time>2021-03-23T08:47:07Z</time>
      </trkpt>
      <trkpt lat="42.80294" lon="1.7413">
        <ele>1395.513</ele>
        <time>2021-03-23T08:47:09Z</time>
      </trkpt>
      <trkpt lat="42.80294" lon="1.74132">
        <ele>1395.256</ele>
        <time>2021-03-23T08:47:11Z</time>
      </trkpt>
      <trkpt lat="42.80295" lon="1.74133">
        <ele>1395.488</ele>
        <time>2021-03-23T08:47:12Z</time>
      </trkpt>
      <trkpt lat="42.80296" lon="1.74136">
        <ele>1395.769</ele>
        <time>2021-03-23T08:47:15Z</time>
      </trkpt>
      <trkpt lat="42.80296" lon="1.74138">
        <ele>1396.389</ele>
        <time>2021-03-23T08:47:17Z</time>
      </trkpt>
      <trkpt lat="42.80297" lon="1.74139">
        <ele>1397.198</ele>
        <time>2021-03-23T08:47:19Z</time>
      </trkpt>
      <trkpt lat="42.80297" lon="1.74141">
        <ele>1397.229</ele>
        <time>2021-03-23T08:47:21Z</time>
      </trkpt>
      <trkpt lat="42.80297" lon="1.74142">
        <ele>1397.226</ele>
        <time>2021-03-23T08:47:23Z</time>
      </trkpt>
      <trkpt lat="42.80297" lon="1.74144">
        <ele>1397.699</ele>
        <time>2021-03-23T08:47:25Z</time>
      </trkpt>
      <trkpt lat="42.80297" lon="1.74146">
        <ele>1398.223</ele>
        <time>2021-03-23T08:47:27Z</time>
      </trkpt>
      <trkpt lat="42.80297" lon="1.74148">
        <ele>1397.776</ele>
        <time>2021-03-23T08:47:29Z</time>
      </trkpt>
      <trkpt lat="42.80298" lon="1.7415">
        <ele>1398.439</ele>
        <time>2021-03-23T08:47:31Z</time>
      </trkpt>
      <trkpt lat="42.80298" lon="1.74151">
        <ele>1398.389</ele>
        <time>2021-03-23T08:47:33Z</time>
      </trkpt>
      <trkpt lat="42.80298" lon="1.74153">
        <ele>1399.07</ele>
        <time>2021-03-23T08:47:35Z</time>
      </trkpt>
      <trkpt lat="42.80298" lon="1.74155">
        <ele>1399.101</ele>
        <time>2021-03-23T08:47:37Z</time>
      </trkpt>
      <trkpt lat="42.80298" lon="1.74157">
        <ele>1399.527</ele>
        <time>2021-03-23T08:47:39Z</time>
      </trkpt>
      <trkpt lat="42.80299" lon="1.74158">
        <ele>1399.109</ele>
        <time>2021-03-23T08:47:41Z</time>
      </trkpt>
      <trkpt lat="42.803" lon="1.74159">
        <ele>1399.71</ele>
        <time>2021-03-23T08:47:43Z</time>
      </trkpt>
      <trkpt lat="42.803" lon="1.74161">
        <ele>1399.8</ele>
        <time>2021-03-23T08:47:45Z</time>
      </trkpt>
      <trkpt lat="42.803" lon="1.74162">
        <ele>1399.628</ele>
        <time>2021-03-23T08:47:47Z</time>
      </trkpt>
      <trkpt lat="42.803" lon="1.74164">
        <ele>1399.455</ele>
        <time>2021-03-23T08:47:49Z</time>
      </trkpt>
      <trkpt lat="42.80301" lon="1.74165">
        <ele>1399.146</ele>
        <time>2021-03-23T08:47:51Z</time>
      </trkpt>
      <trkpt lat="42.80301" lon="1.74167">
        <ele>1399.828</ele>
        <time>2021-03-23T08:47:53Z</time>
      </trkpt>
      <trkpt lat="42.80301" lon="1.74169">
        <ele>1399.157</ele>
        <time>2021-03-23T08:47:55Z</time>
      </trkpt>
      <trkpt lat="42.80302" lon="1.7417">
        <ele>1398.454</ele>
        <time>2021-03-23T08:47:57Z</time>
      </trkpt>
      <trkpt lat="42.80302" lon="1.74172">
        <ele>1399.185</ele>
        <time>2021-03-23T08:47:59Z</time>
      </trkpt>
      <trkpt lat="42.80302" lon="1.74174">
        <ele>1399.186</ele>
        <time>2021-03-23T08:48:01Z</time>
      </trkpt>
      <trkpt lat="42.80303" lon="1.74174">
        <ele>1398.903</ele>
        <time>2021-03-23T08:48:02Z</time>
      </trkpt>
      <trkpt lat="42.80303" lon="1.74177">
        <ele>1399.838</ele>
        <time>2021-03-23T08:48:05Z</time>
      </trkpt>
      <trkpt lat="42.80303" lon="1.74179">
        <ele>1399.527</ele>
        <time>2021-03-23T08:48:07Z</time>
      </trkpt>
      <trkpt lat="42.80303" lon="1.7418">
        <ele>1398.933</ele>
        <time>2021-03-23T08:48:09Z</time>
      </trkpt>
      <trkpt lat="42.80304" lon="1.74182">
        <ele>1398.984</ele>
        <time>2021-03-23T08:48:11Z</time>
      </trkpt>
      <trkpt lat="42.80305" lon="1.74184">
        <ele>1398.666</ele>
        <time>2021-03-23T08:48:13Z</time>
      </trkpt>
      <trkpt lat="42.80305" lon="1.74185">
        <ele>1398.622</ele>
        <time>2021-03-23T08:48:15Z</time>
      </trkpt>
      <trkpt lat="42.80305" lon="1.74188">
        <ele>1399.406</ele>
        <time>2021-03-23T08:48:17Z</time>
      </trkpt>
      <trkpt lat="42.80305" lon="1.7419">
        <ele>1399.707</ele>
        <time>2021-03-23T08:48:19Z</time>
      </trkpt>
      <trkpt lat="42.80305" lon="1.74192">
        <ele>1399.286</ele>
        <time>2021-03-23T08:48:21Z</time>
      </trkpt>
      <trkpt lat="42.80306" lon="1.74194">
        <ele>1399.406</ele>
        <time>2021-03-23T08:48:23Z</time>
      </trkpt>
      <trkpt lat="42.80306" lon="1.74196">
        <ele>1399.675</ele>
        <time>2021-03-23T08:48:25Z</time>
      </trkpt>
      <trkpt lat="42.80307" lon="1.74198">
        <ele>1400.506</ele>
        <time>2021-03-23T08:48:27Z</time>
      </trkpt>
      <trkpt lat="42.80308" lon="1.742">
        <ele>1400.361</ele>
        <time>2021-03-23T08:48:29Z</time>
      </trkpt>
      <trkpt lat="42.80308" lon="1.74202">
        <ele>1400.422</ele>
        <time>2021-03-23T08:48:31Z</time>
      </trkpt>
      <trkpt lat="42.80308" lon="1.74205">
        <ele>1400.23</ele>
        <time>2021-03-23T08:48:33Z</time>
      </trkpt>
      <trkpt lat="42.80309" lon="1.74207">
        <ele>1400.404</ele>
        <time>2021-03-23T08:48:35Z</time>
      </trkpt>
      <trkpt lat="42.8031" lon="1.74209">
        <ele>1400.245</ele>
        <time>2021-03-23T08:48:37Z</time>
      </trkpt>
      <trkpt lat="42.8031" lon="1.74212">
        <ele>1400.94</ele>
        <time>2021-03-23T08:48:39Z</time>
      </trkpt>
      <trkpt lat="42.8031" lon="1.74214">
        <ele>1401.156</ele>
        <time>2021-03-23T08:48:41Z</time>
      </trkpt>
      <trkpt lat="42.8031" lon="1.74216">
        <ele>1401.282</ele>
        <time>2021-03-23T08:48:43Z</time>
      </trkpt>
      <trkpt lat="42.80311" lon="1.74219">
        <ele>1401.724</ele>
        <time>2021-03-23T08:48:45Z</time>
      </trkpt>
      <trkpt lat="42.80311" lon="1.74221">
        <ele>1402.417</ele>
        <time>2021-03-23T08:48:47Z</time>
      </trkpt>
      <trkpt lat="42.80311" lon="1.74223">
        <ele>1402.929</ele>
        <time>2021-03-23T08:48:49Z</time>
      </trkpt>
      <trkpt lat="42.80311" lon="1.74225">
        <ele>1403.253</ele>
        <time>2021-03-23T08:48:51Z</time>
      </trkpt>
      <trkpt lat="42.80311" lon="1.74227">
        <ele>1403.237</ele>
        <time>2021-03-23T08:48:53Z</time>
      </trkpt>
      <trkpt lat="42.8031" lon="1.7423">
        <ele>1403.754</ele>
        <time>2021-03-23T08:48:55Z</time>
      </trkpt>
      <trkpt lat="42.80311" lon="1.74233">
        <ele>1403.453</ele>
        <time>2021-03-23T08:48:57Z</time>
      </trkpt>
      <trkpt lat="42.80311" lon="1.74235">
        <ele>1403.35</ele>
        <time>2021-03-23T08:48:59Z</time>
      </trkpt>
      <trkpt lat="42.80312" lon="1.74236">
        <ele>1403.764</ele>
        <time>2021-03-23T08:49:01Z</time>
      </trkpt>
      <trkpt lat="42.80313" lon="1.74238">
        <ele>1403.612</ele>
        <time>2021-03-23T08:49:03Z</time>
      </trkpt>
      <trkpt lat="42.80313" lon="1.7424">
        <ele>1404.016</ele>
        <time>2021-03-23T08:49:05Z</time>
      </trkpt>
      <trkpt lat="42.80314" lon="1.74242">
        <ele>1403.895</ele>
        <time>2021-03-23T08:49:07Z</time>
      </trkpt>
      <trkpt lat="42.80314" lon="1.74245">
        <ele>1404.094</ele>
        <time>2021-03-23T08:49:09Z</time>
      </trkpt>
      <trkpt lat="42.80315" lon="1.74247">
        <ele>1403.766</ele>
        <time>2021-03-23T08:49:11Z</time>
      </trkpt>
      <trkpt lat="42.80316" lon="1.74249">
        <ele>1403.879</ele>
        <time>2021-03-23T08:49:13Z</time>
      </trkpt>
      <trkpt lat="42.80316" lon="1.74251">
        <ele>1404.014</ele>
        <time>2021-03-23T08:49:15Z</time>
      </trkpt>
      <trkpt lat="42.80317" lon="1.74253">
        <ele>1403.872</ele>
        <time>2021-03-23T08:49:17Z</time>
      </trkpt>
      <trkpt lat="42.80318" lon="1.74255">
        <ele>1404.179</ele>
        <time>2021-03-23T08:49:19Z</time>
      </trkpt>
      <trkpt lat="42.80319" lon="1.74257">
        <ele>1404.126</ele>
        <time>2021-03-23T08:49:21Z</time>
      </trkpt>
      <trkpt lat="42.80319" lon="1.74259">
        <ele>1404.735</ele>
        <time>2021-03-23T08:49:23Z</time>
      </trkpt>
      <trkpt lat="42.80319" lon="1.74261">
        <ele>1404.599</ele>
        <time>2021-03-23T08:49:25Z</time>
      </trkpt>
      <trkpt lat="42.8032" lon="1.74263">
        <ele>1404.911</ele>
        <time>2021-03-23T08:49:27Z</time>
      </trkpt>
      <trkpt lat="42.8032" lon="1.74265">
        <ele>1404.969</ele>
        <time>2021-03-23T08:49:29Z</time>
      </trkpt>
      <trkpt lat="42.80321" lon="1.74267">
        <ele>1405.74</ele>
        <time>2021-03-23T08:49:31Z</time>
      </trkpt>
      <trkpt lat="42.80322" lon="1.74268">
        <ele>1405.776</ele>
        <time>2021-03-23T08:49:33Z</time>
      </trkpt>
      <trkpt lat="42.80322" lon="1.74269">
        <ele>1406.403</ele>
        <time>2021-03-23T08:49:35Z</time>
      </trkpt>
      <trkpt lat="42.80323" lon="1.74271">
        <ele>1407.016</ele>
        <time>2021-03-23T08:49:37Z</time>
      </trkpt>
      <trkpt lat="42.80323" lon="1.74273">
        <ele>1407.773</ele>
        <time>2021-03-23T08:49:39Z</time>
      </trkpt>
      <trkpt lat="42.80324" lon="1.74275">
        <ele>1408.074</ele>
        <time>2021-03-23T08:49:41Z</time>
      </trkpt>
      <trkpt lat="42.80324" lon="1.74276">
        <ele>1408.944</ele>
        <time>2021-03-23T08:49:43Z</time>
      </trkpt>
      <trkpt lat="42.80325" lon="1.74278">
        <ele>1409.113</ele>
        <time>2021-03-23T08:49:45Z</time>
      </trkpt>
      <trkpt lat="42.80325" lon="1.7428">
        <ele>1409.466</ele>
        <time>2021-03-23T08:49:47Z</time>
      </trkpt>
      <trkpt lat="42.80326" lon="1.74282">
        <ele>1410.239</ele>
        <time>2021-03-23T08:49:49Z</time>
      </trkpt>
      <trkpt lat="42.80327" lon="1.74283">
        <ele>1410.074</ele>
        <time>2021-03-23T08:49:51Z</time>
      </trkpt>
      <trkpt lat="42.80327" lon="1.74285">
        <ele>1410.358</ele>
        <time>2021-03-23T08:49:53Z</time>
      </trkpt>
      <trkpt lat="42.80327" lon="1.74286">
        <ele>1410.606</ele>
        <time>2021-03-23T08:49:54Z</time>
      </trkpt>
      <trkpt lat="42.80327" lon="1.7429">
        <ele>1411.527</ele>
        <time>2021-03-23T08:49:57Z</time>
      </trkpt>
      <trkpt lat="42.80326" lon="1.74293">
        <ele>1412.443</ele>
        <time>2021-03-23T08:49:59Z</time>
      </trkpt>
      <trkpt lat="42.80326" lon="1.74299">
        <ele>1412.833</ele>
        <time>2021-03-23T08:50:01Z</time>
      </trkpt>
      <trkpt lat="42.80325" lon="1.74303">
        <ele>1415.525</ele>
        <time>2021-03-23T08:50:03Z</time>
      </trkpt>
      <trkpt lat="42.80324" lon="1.74304">
        <ele>1417.188</ele>
        <time>2021-03-23T08:50:05Z</time>
      </trkpt>
      <trkpt lat="42.80323" lon="1.74305">
        <ele>1417.843</ele>
        <time>2021-03-23T08:50:07Z</time>
      </trkpt>
      <trkpt lat="42.80322" lon="1.74303">
        <ele>1417.949</ele>
        <time>2021-03-23T08:50:09Z</time>
      </trkpt>
      <trkpt lat="42.80322" lon="1.74303">
        <ele>1417.947</ele>
        <time>2021-03-23T08:50:11Z</time>
      </trkpt>
      <trkpt lat="42.80322" lon="1.74303">
        <ele>1417.944</ele>
        <time>2021-03-23T08:50:13Z</time>
      </trkpt>
      <trkpt lat="42.80322" lon="1.74303">
        <ele>1417.944</ele>
        <time>2021-03-23T08:50:15Z</time>
      </trkpt>
      <trkpt lat="42.80322" lon="1.74303">
        <ele>1417.931</ele>
        <time>2021-03-23T08:50:17Z</time>
      </trkpt>
      <trkpt lat="42.80322" lon="1.74302">
        <ele>1417.924</ele>
        <time>2021-03-23T08:50:19Z</time>
      </trkpt>
      <trkpt lat="42.80323" lon="1.74302">
        <ele>1417.75</ele>
        <time>2021-03-23T08:50:21Z</time>
      </trkpt>
      <trkpt lat="42.80322" lon="1.74301">
        <ele>1417.841</ele>
        <time>2021-03-23T08:50:23Z</time>
      </trkpt>
      <trkpt lat="42.80322" lon="1.74301">
        <ele>1417.867</ele>
        <time>2021-03-23T08:50:25Z</time>
      </trkpt>
      <trkpt lat="42.80322" lon="1.74301">
        <ele>1418.557</ele>
        <time>2021-03-23T08:50:27Z</time>
      </trkpt>
      <trkpt lat="42.80322" lon="1.74301">
        <ele>1418.3</ele>
        <time>2021-03-23T08:50:29Z</time>
      </trkpt>
      <trkpt lat="42.80322" lon="1.74301">
        <ele>1418.3</ele>
        <time>2021-03-23T08:50:31Z</time>
      </trkpt>
      <trkpt lat="42.80322" lon="1.74301">
        <ele>1418.289</ele>
        <time>2021-03-23T08:50:33Z</time>
      </trkpt>
      <trkpt lat="42.80322" lon="1.74301">
        <ele>1418.675</ele>
        <time>2021-03-23T08:50:35Z</time>
      </trkpt>
      <trkpt lat="42.80323" lon="1.74301">
        <ele>1418.594</ele>
        <time>2021-03-23T08:50:37Z</time>
      </trkpt>
      <trkpt lat="42.80323" lon="1.74301">
        <ele>1418.799</ele>
        <time>2021-03-23T08:50:39Z</time>
      </trkpt>
      <trkpt lat="42.80323" lon="1.743">
        <ele>1418.792</ele>
        <time>2021-03-23T08:50:41Z</time>
      </trkpt>
      <trkpt lat="42.80323" lon="1.743">
        <ele>1418.789</ele>
        <time>2021-03-23T08:50:43Z</time>
      </trkpt>
      <trkpt lat="42.80323" lon="1.743">
        <ele>1418.766</ele>
        <time>2021-03-23T08:50:45Z</time>
      </trkpt>
      <trkpt lat="42.80323" lon="1.743">
        <ele>1418.79</ele>
        <time>2021-03-23T08:50:47Z</time>
      </trkpt>
      <trkpt lat="42.80323" lon="1.743">
        <ele>1418.803</ele>
        <time>2021-03-23T08:50:49Z</time>
      </trkpt>
      <trkpt lat="42.80323" lon="1.743">
        <ele>1418.809</ele>
        <time>2021-03-23T08:50:51Z</time>
      </trkpt>
      <trkpt lat="42.80323" lon="1.743">
        <ele>1418.815</ele>
        <time>2021-03-23T08:50:53Z</time>
      </trkpt>
      <trkpt lat="42.80323" lon="1.743">
        <ele>1418.825</ele>
        <time>2021-03-23T08:50:55Z</time>
      </trkpt>
      <trkpt lat="42.80323" lon="1.74301">
        <ele>1417.728</ele>
        <time>2021-03-23T08:50:57Z</time>
      </trkpt>
      <trkpt lat="42.80323" lon="1.74301">
        <ele>1417.703</ele>
        <time>2021-03-23T08:50:59Z</time>
      </trkpt>
      <trkpt lat="42.80323" lon="1.74301">
        <ele>1417.74</ele>
        <time>2021-03-23T08:51:01Z</time>
      </trkpt>
      <trkpt lat="42.80323" lon="1.74301">
        <ele>1417.742</ele>
        <time>2021-03-23T08:51:03Z</time>
      </trkpt>
      <trkpt lat="42.80324" lon="1.74302">
        <ele>1417.66</ele>
        <time>2021-03-23T08:51:05Z</time>
      </trkpt>
      <trkpt lat="42.80324" lon="1.74302">
        <ele>1418.019</ele>
        <time>2021-03-23T08:51:07Z</time>
      </trkpt>
      <trkpt lat="42.80324" lon="1.74302">
        <ele>1417.209</ele>
        <time>2021-03-23T08:51:09Z</time>
      </trkpt>
      <trkpt lat="42.80324" lon="1.74302">
        <ele>1417.238</ele>
        <time>2021-03-23T08:51:11Z</time>
      </trkpt>
      <trkpt lat="42.80324" lon="1.74302">
        <ele>1417.237</ele>
        <time>2021-03-23T08:51:13Z</time>
      </trkpt>
      <trkpt lat="42.80324" lon="1.74302">
        <ele>1417.241</ele>
        <time>2021-03-23T08:51:15Z</time>
      </trkpt>
      <trkpt lat="42.80324" lon="1.74302">
        <ele>1417.244</ele>
        <time>2021-03-23T08:51:17Z</time>
      </trkpt>
      <trkpt lat="42.80324" lon="1.74302">
        <ele>1417.244</ele>
        <time>2021-03-23T08:51:19Z</time>
      </trkpt>
      <trkpt lat="42.80324" lon="1.74302">
        <ele>1417.238</ele>
        <time>2021-03-23T08:51:21Z</time>
      </trkpt>
      <trkpt lat="42.80324" lon="1.74302">
        <ele>1417.237</ele>
        <time>2021-03-23T08:51:23Z</time>
      </trkpt>
      <trkpt lat="42.80324" lon="1.74302">
        <ele>1417.232</ele>
        <time>2021-03-23T08:51:25Z</time>
      </trkpt>
      <trkpt lat="42.80324" lon="1.74302">
        <ele>1417.231</ele>
        <time>2021-03-23T08:51:27Z</time>
      </trkpt>
      <trkpt lat="42.80324" lon="1.74302">
        <ele>1417.227</ele>
        <time>2021-03-23T08:51:29Z</time>
      </trkpt>
      <trkpt lat="42.80324" lon="1.74302">
        <ele>1417.224</ele>
        <time>2021-03-23T08:51:31Z</time>
      </trkpt>
      <trkpt lat="42.80324" lon="1.74302">
        <ele>1417.211</ele>
        <time>2021-03-23T08:51:33Z</time>
      </trkpt>
      <trkpt lat="42.80324" lon="1.74302">
        <ele>1417.199</ele>
        <time>2021-03-23T08:51:35Z</time>
      </trkpt>
      <trkpt lat="42.80324" lon="1.74302">
        <ele>1417.191</ele>
        <time>2021-03-23T08:51:37Z</time>
      </trkpt>
      <trkpt lat="42.80324" lon="1.74302">
        <ele>1417.183</ele>
        <time>2021-03-23T08:51:39Z</time>
      </trkpt>
      <trkpt lat="42.80324" lon="1.74302">
        <ele>1417.177</ele>
        <time>2021-03-23T08:51:41Z</time>
      </trkpt>
      <trkpt lat="42.80324" lon="1.74302">
        <ele>1417.171</ele>
        <time>2021-03-23T08:51:43Z</time>
      </trkpt>
      <trkpt lat="42.80324" lon="1.74302">
        <ele>1417.172</ele>
        <time>2021-03-23T08:51:45Z</time>
      </trkpt>
      <trkpt lat="42.80324" lon="1.74302">
        <ele>1417.172</ele>
        <time>2021-03-23T08:51:47Z</time>
      </trkpt>
      <trkpt lat="42.80324" lon="1.74302">
        <ele>1417.17</ele>
        <time>2021-03-23T08:51:49Z</time>
      </trkpt>
      <trkpt lat="42.80324" lon="1.74302">
        <ele>1417.236</ele>
        <time>2021-03-23T08:51:51Z</time>
      </trkpt>
      <trkpt lat="42.80324" lon="1.74303">
        <ele>1417.257</ele>
        <time>2021-03-23T08:51:53Z</time>
      </trkpt>
      <trkpt lat="42.80324" lon="1.74303">
        <ele>1417.263</ele>
        <time>2021-03-23T08:51:55Z</time>
      </trkpt>
      <trkpt lat="42.80324" lon="1.74303">
        <ele>1417.277</ele>
        <time>2021-03-23T08:51:57Z</time>
      </trkpt>
      <trkpt lat="42.80324" lon="1.74303">
        <ele>1417.26</ele>
        <time>2021-03-23T08:51:59Z</time>
      </trkpt>
      <trkpt lat="42.80324" lon="1.74303">
        <ele>1417.257</ele>
        <time>2021-03-23T08:52:01Z</time>
      </trkpt>
      <trkpt lat="42.80324" lon="1.74303">
        <ele>1417.257</ele>
        <time>2021-03-23T08:52:03Z</time>
      </trkpt>
      <trkpt lat="42.80324" lon="1.74303">
        <ele>1417.259</ele>
        <time>2021-03-23T08:52:05Z</time>
      </trkpt>
      <trkpt lat="42.80323" lon="1.74303">
        <ele>1417.284</ele>
        <time>2021-03-23T08:52:07Z</time>
      </trkpt>
      <trkpt lat="42.80323" lon="1.74303">
        <ele>1417.284</ele>
        <time>2021-03-23T08:52:09Z</time>
      </trkpt>
      <trkpt lat="42.80323" lon="1.74303">
        <ele>1417.273</ele>
        <time>2021-03-23T08:52:11Z</time>
      </trkpt>
      <trkpt lat="42.80323" lon="1.74303">
        <ele>1417.266</ele>
        <time>2021-03-23T08:52:13Z</time>
      </trkpt>
      <trkpt lat="42.80323" lon="1.74303">
        <ele>1417.264</ele>
        <time>2021-03-23T08:52:15Z</time>
      </trkpt>
      <trkpt lat="42.80323" lon="1.74303">
        <ele>1417.261</ele>
        <time>2021-03-23T08:52:17Z</time>
      </trkpt>
      <trkpt lat="42.80323" lon="1.74303">
        <ele>1417.255</ele>
        <time>2021-03-23T08:52:19Z</time>
      </trkpt>
      <trkpt lat="42.80323" lon="1.74303">
        <ele>1417.252</ele>
        <time>2021-03-23T08:52:21Z</time>
      </trkpt>
      <trkpt lat="42.80323" lon="1.74303">
        <ele>1417.243</ele>
        <time>2021-03-23T08:52:23Z</time>
      </trkpt>
      <trkpt lat="42.80323" lon="1.74303">
        <ele>1417.241</ele>
        <time>2021-03-23T08:52:25Z</time>
      </trkpt>
      <trkpt lat="42.80323" lon="1.74303">
        <ele>1417.243</ele>
        <time>2021-03-23T08:52:27Z</time>
      </trkpt>
      <trkpt lat="42.80323" lon="1.74303">
        <ele>1417.242</ele>
        <time>2021-03-23T08:52:29Z</time>
      </trkpt>
      <trkpt lat="42.80323" lon="1.74303">
        <ele>1417.239</ele>
        <time>2021-03-23T08:52:31Z</time>
      </trkpt>
      <trkpt lat="42.80323" lon="1.74303">
        <ele>1417.248</ele>
        <time>2021-03-23T08:52:33Z</time>
      </trkpt>
      <trkpt lat="42.80323" lon="1.74303">
        <ele>1417.239</ele>
        <time>2021-03-23T08:52:35Z</time>
      </trkpt>
      <trkpt lat="42.80323" lon="1.74303">
        <ele>1417.231</ele>
        <time>2021-03-23T08:52:37Z</time>
      </trkpt>
      <trkpt lat="42.80323" lon="1.74303">
        <ele>1417.229</ele>
        <time>2021-03-23T08:52:39Z</time>
      </trkpt>
      <trkpt lat="42.80323" lon="1.74303">
        <ele>1417.229</ele>
        <time>2021-03-23T08:52:41Z</time>
      </trkpt>
      <trkpt lat="42.80323" lon="1.74303">
        <ele>1417.23</ele>
        <time>2021-03-23T08:52:43Z</time>
      </trkpt>
      <trkpt lat="42.80323" lon="1.74303">
        <ele>1417.228</ele>
        <time>2021-03-23T08:52:45Z</time>
      </trkpt>
      <trkpt lat="42.80323" lon="1.74303">
        <ele>1417.22</ele>
        <time>2021-03-23T08:52:47Z</time>
      </trkpt>
      <trkpt lat="42.80323" lon="1.74303">
        <ele>1417.23</ele>
        <time>2021-03-23T08:52:49Z</time>
      </trkpt>
      <trkpt lat="42.80323" lon="1.74303">
        <ele>1417.224</ele>
        <time>2021-03-23T08:52:51Z</time>
      </trkpt>
      <trkpt lat="42.80323" lon="1.74303">
        <ele>1417.235</ele>
        <time>2021-03-23T08:52:53Z</time>
      </trkpt>
      <trkpt lat="42.80323" lon="1.74303">
        <ele>1417.247</ele>
        <time>2021-03-23T08:52:55Z</time>
      </trkpt>
      <trkpt lat="42.80323" lon="1.74303">
        <ele>1417.241</ele>
        <time>2021-03-23T08:52:57Z</time>
      </trkpt>
      <trkpt lat="42.80323" lon="1.74303">
        <ele>1417.245</ele>
        <time>2021-03-23T08:52:59Z</time>
      </trkpt>
      <trkpt lat="42.80323" lon="1.74303">
        <ele>1417.248</ele>
        <time>2021-03-23T08:53:01Z</time>
      </trkpt>
      <trkpt lat="42.80323" lon="1.74303">
        <ele>1417.249</ele>
        <time>2021-03-23T08:53:03Z</time>
      </trkpt>
      <trkpt lat="42.80323" lon="1.74303">
        <ele>1417.489</ele>
        <time>2021-03-23T08:53:05Z</time>
      </trkpt>
      <trkpt lat="42.80323" lon="1.74303">
        <ele>1417.467</ele>
        <time>2021-03-23T08:53:07Z</time>
      </trkpt>
      <trkpt lat="42.80323" lon="1.74303">
        <ele>1417.446</ele>
        <time>2021-03-23T08:53:09Z</time>
      </trkpt>
      <trkpt lat="42.80323" lon="1.74303">
        <ele>1417.436</ele>
        <time>2021-03-23T08:53:11Z</time>
      </trkpt>
      <trkpt lat="42.80323" lon="1.74303">
        <ele>1417.452</ele>
        <time>2021-03-23T08:53:13Z</time>
      </trkpt>
      <trkpt lat="42.80323" lon="1.74303">
        <ele>1417.483</ele>
        <time>2021-03-23T08:53:15Z</time>
      </trkpt>
      <trkpt lat="42.80323" lon="1.74303">
        <ele>1417.481</ele>
        <time>2021-03-23T08:53:17Z</time>
      </trkpt>
      <trkpt lat="42.80323" lon="1.74303">
        <ele>1417.466</ele>
        <time>2021-03-23T08:53:19Z</time>
      </trkpt>
      <trkpt lat="42.80323" lon="1.74303">
        <ele>1417.437</ele>
        <time>2021-03-23T08:53:21Z</time>
      </trkpt>
      <trkpt lat="42.80323" lon="1.74304">
        <ele>1417.101</ele>
        <time>2021-03-23T08:53:23Z</time>
      </trkpt>
      <trkpt lat="42.80324" lon="1.74304">
        <ele>1417.239</ele>
        <time>2021-03-23T08:53:25Z</time>
      </trkpt>
      <trkpt lat="42.80324" lon="1.74306">
        <ele>1417.488</ele>
        <time>2021-03-23T08:53:27Z</time>
      </trkpt>
      <trkpt lat="42.80324" lon="1.74307">
        <ele>1417.756</ele>
        <time>2021-03-23T08:53:29Z</time>
      </trkpt>
      <trkpt lat="42.80325" lon="1.74309">
        <ele>1418.177</ele>
        <time>2021-03-23T08:53:31Z</time>
      </trkpt>
      <trkpt lat="42.80326" lon="1.7431">
        <ele>1418.483</ele>
        <time>2021-03-23T08:53:33Z</time>
      </trkpt>
      <trkpt lat="42.80327" lon="1.74311">
        <ele>1418.952</ele>
        <time>2021-03-23T08:53:35Z</time>
      </trkpt>
      <trkpt lat="42.80328" lon="1.74312">
        <ele>1419.665</ele>
        <time>2021-03-23T08:53:37Z</time>
      </trkpt>
      <trkpt lat="42.80329" lon="1.74313">
        <ele>1420.605</ele>
        <time>2021-03-23T08:53:39Z</time>
      </trkpt>
      <trkpt lat="42.8033" lon="1.74315">
        <ele>1420.044</ele>
        <time>2021-03-23T08:53:41Z</time>
      </trkpt>
      <trkpt lat="42.8033" lon="1.74317">
        <ele>1420.743</ele>
        <time>2021-03-23T08:53:43Z</time>
      </trkpt>
      <trkpt lat="42.80331" lon="1.74318">
        <ele>1420.732</ele>
        <time>2021-03-23T08:53:45Z</time>
      </trkpt>
      <trkpt lat="42.80332" lon="1.7432">
        <ele>1421.045</ele>
        <time>2021-03-23T08:53:47Z</time>
      </trkpt>
      <trkpt lat="42.80332" lon="1.74321">
        <ele>1421.705</ele>
        <time>2021-03-23T08:53:49Z</time>
      </trkpt>
      <trkpt lat="42.80332" lon="1.74323">
        <ele>1421.8</ele>
        <time>2021-03-23T08:53:51Z</time>
      </trkpt>
      <trkpt lat="42.80333" lon="1.74325">
        <ele>1422.243</ele>
        <time>2021-03-23T08:53:53Z</time>
      </trkpt>
      <trkpt lat="42.80334" lon="1.74327">
        <ele>1423.209</ele>
        <time>2021-03-23T08:53:55Z</time>
      </trkpt>
      <trkpt lat="42.80335" lon="1.74328">
        <ele>1422.915</ele>
        <time>2021-03-23T08:53:57Z</time>
      </trkpt>
      <trkpt lat="42.80336" lon="1.74329">
        <ele>1423.204</ele>
        <time>2021-03-23T08:53:59Z</time>
      </trkpt>
      <trkpt lat="42.80337" lon="1.74332">
        <ele>1423.612</ele>
        <time>2021-03-23T08:54:01Z</time>
      </trkpt>
      <trkpt lat="42.80337" lon="1.74333">
        <ele>1423.786</ele>
        <time>2021-03-23T08:54:03Z</time>
      </trkpt>
      <trkpt lat="42.80337" lon="1.74334">
        <ele>1424.462</ele>
        <time>2021-03-23T08:54:05Z</time>
      </trkpt>
      <trkpt lat="42.80338" lon="1.74336">
        <ele>1425.03</ele>
        <time>2021-03-23T08:54:07Z</time>
      </trkpt>
      <trkpt lat="42.80339" lon="1.74337">
        <ele>1425.25</ele>
        <time>2021-03-23T08:54:09Z</time>
      </trkpt>
      <trkpt lat="42.8034" lon="1.74339">
        <ele>1425.882</ele>
        <time>2021-03-23T08:54:11Z</time>
      </trkpt>
      <trkpt lat="42.80341" lon="1.74341">
        <ele>1426.324</ele>
        <time>2021-03-23T08:54:13Z</time>
      </trkpt>
      <trkpt lat="42.80341" lon="1.74342">
        <ele>1427.032</ele>
        <time>2021-03-23T08:54:15Z</time>
      </trkpt>
      <trkpt lat="42.80342" lon="1.74344">
        <ele>1427.124</ele>
        <time>2021-03-23T08:54:17Z</time>
      </trkpt>
      <trkpt lat="42.80343" lon="1.74346">
        <ele>1427.252</ele>
        <time>2021-03-23T08:54:19Z</time>
      </trkpt>
      <trkpt lat="42.80344" lon="1.74347">
        <ele>1427.146</ele>
        <time>2021-03-23T08:54:21Z</time>
      </trkpt>
      <trkpt lat="42.80344" lon="1.74349">
        <ele>1427.032</ele>
        <time>2021-03-23T08:54:23Z</time>
      </trkpt>
      <trkpt lat="42.80344" lon="1.74351">
        <ele>1427.701</ele>
        <time>2021-03-23T08:54:25Z</time>
      </trkpt>
      <trkpt lat="42.80345" lon="1.74353">
        <ele>1427.275</ele>
        <time>2021-03-23T08:54:27Z</time>
      </trkpt>
      <trkpt lat="42.80345" lon="1.74355">
        <ele>1428.176</ele>
        <time>2021-03-23T08:54:29Z</time>
      </trkpt>
      <trkpt lat="42.80346" lon="1.74357">
        <ele>1428.832</ele>
        <time>2021-03-23T08:54:31Z</time>
      </trkpt>
      <trkpt lat="42.80347" lon="1.74358">
        <ele>1429.14</ele>
        <time>2021-03-23T08:54:33Z</time>
      </trkpt>
      <trkpt lat="42.80348" lon="1.74358">
        <ele>1429.417</ele>
        <time>2021-03-23T08:54:35Z</time>
      </trkpt>
      <trkpt lat="42.80348" lon="1.7436">
        <ele>1430.001</ele>
        <time>2021-03-23T08:54:37Z</time>
      </trkpt>
      <trkpt lat="42.80348" lon="1.74362">
        <ele>1430.695</ele>
        <time>2021-03-23T08:54:39Z</time>
      </trkpt>
      <trkpt lat="42.80348" lon="1.74364">
        <ele>1431.481</ele>
        <time>2021-03-23T08:54:41Z</time>
      </trkpt>
      <trkpt lat="42.80349" lon="1.74365">
        <ele>1431.337</ele>
        <time>2021-03-23T08:54:43Z</time>
      </trkpt>
      <trkpt lat="42.8035" lon="1.74367">
        <ele>1431.353</ele>
        <time>2021-03-23T08:54:45Z</time>
      </trkpt>
      <trkpt lat="42.80351" lon="1.74368">
        <ele>1431.246</ele>
        <time>2021-03-23T08:54:47Z</time>
      </trkpt>
      <trkpt lat="42.80351" lon="1.74369">
        <ele>1431.753</ele>
        <time>2021-03-23T08:54:49Z</time>
      </trkpt>
      <trkpt lat="42.80352" lon="1.74371">
        <ele>1431.909</ele>
        <time>2021-03-23T08:54:51Z</time>
      </trkpt>
      <trkpt lat="42.80353" lon="1.74372">
        <ele>1432.407</ele>
        <time>2021-03-23T08:54:53Z</time>
      </trkpt>
      <trkpt lat="42.80353" lon="1.74374">
        <ele>1432.711</ele>
        <time>2021-03-23T08:54:55Z</time>
      </trkpt>
      <trkpt lat="42.80353" lon="1.74375">
        <ele>1433.199</ele>
        <time>2021-03-23T08:54:57Z</time>
      </trkpt>
      <trkpt lat="42.80354" lon="1.74377">
        <ele>1433.709</ele>
        <time>2021-03-23T08:54:59Z</time>
      </trkpt>
      <trkpt lat="42.80355" lon="1.74378">
        <ele>1434.395</ele>
        <time>2021-03-23T08:55:01Z</time>
      </trkpt>
      <trkpt lat="42.80356" lon="1.74379">
        <ele>1434.769</ele>
        <time>2021-03-23T08:55:03Z</time>
      </trkpt>
      <trkpt lat="42.80357" lon="1.7438">
        <ele>1435.702</ele>
        <time>2021-03-23T08:55:05Z</time>
      </trkpt>
      <trkpt lat="42.80357" lon="1.74381">
        <ele>1436.096</ele>
        <time>2021-03-23T08:55:07Z</time>
      </trkpt>
      <trkpt lat="42.80359" lon="1.74382">
        <ele>1436.236</ele>
        <time>2021-03-23T08:55:09Z</time>
      </trkpt>
      <trkpt lat="42.80359" lon="1.74383">
        <ele>1436.794</ele>
        <time>2021-03-23T08:55:11Z</time>
      </trkpt>
      <trkpt lat="42.8036" lon="1.74384">
        <ele>1436.416</ele>
        <time>2021-03-23T08:55:13Z</time>
      </trkpt>
      <trkpt lat="42.80361" lon="1.74385">
        <ele>1436.32</ele>
        <time>2021-03-23T08:55:15Z</time>
      </trkpt>
      <trkpt lat="42.80362" lon="1.74387">
        <ele>1436.859</ele>
        <time>2021-03-23T08:55:17Z</time>
      </trkpt>
      <trkpt lat="42.80363" lon="1.74388">
        <ele>1437.027</ele>
        <time>2021-03-23T08:55:19Z</time>
      </trkpt>
      <trkpt lat="42.80364" lon="1.74389">
        <ele>1437.049</ele>
        <time>2021-03-23T08:55:21Z</time>
      </trkpt>
      <trkpt lat="42.80365" lon="1.7439">
        <ele>1437.485</ele>
        <time>2021-03-23T08:55:23Z</time>
      </trkpt>
      <trkpt lat="42.80366" lon="1.74391">
        <ele>1438.62</ele>
        <time>2021-03-23T08:55:25Z</time>
      </trkpt>
      <trkpt lat="42.80367" lon="1.74392">
        <ele>1438.661</ele>
        <time>2021-03-23T08:55:27Z</time>
      </trkpt>
      <trkpt lat="42.80367" lon="1.74393">
        <ele>1439.283</ele>
        <time>2021-03-23T08:55:29Z</time>
      </trkpt>
      <trkpt lat="42.80368" lon="1.74394">
        <ele>1439.55</ele>
        <time>2021-03-23T08:55:31Z</time>
      </trkpt>
      <trkpt lat="42.80369" lon="1.74395">
        <ele>1440.489</ele>
        <time>2021-03-23T08:55:33Z</time>
      </trkpt>
      <trkpt lat="42.8037" lon="1.74396">
        <ele>1440.778</ele>
        <time>2021-03-23T08:55:35Z</time>
      </trkpt>
      <trkpt lat="42.80371" lon="1.74397">
        <ele>1441.789</ele>
        <time>2021-03-23T08:55:37Z</time>
      </trkpt>
      <trkpt lat="42.80372" lon="1.74398">
        <ele>1443.336</ele>
        <time>2021-03-23T08:55:39Z</time>
      </trkpt>
      <trkpt lat="42.80372" lon="1.74399">
        <ele>1444.209</ele>
        <time>2021-03-23T08:55:41Z</time>
      </trkpt>
      <trkpt lat="42.80373" lon="1.744">
        <ele>1444.842</ele>
        <time>2021-03-23T08:55:43Z</time>
      </trkpt>
      <trkpt lat="42.80374" lon="1.74401">
        <ele>1445.067</ele>
        <time>2021-03-23T08:55:45Z</time>
      </trkpt>
      <trkpt lat="42.80375" lon="1.74402">
        <ele>1445.962</ele>
        <time>2021-03-23T08:55:47Z</time>
      </trkpt>
      <trkpt lat="42.80376" lon="1.74403">
        <ele>1446.3</ele>
        <time>2021-03-23T08:55:49Z</time>
      </trkpt>
      <trkpt lat="42.80377" lon="1.74403">
        <ele>1447.443</ele>
        <time>2021-03-23T08:55:51Z</time>
      </trkpt>
      <trkpt lat="42.80378" lon="1.74403">
        <ele>1447.625</ele>
        <time>2021-03-23T08:55:53Z</time>
      </trkpt>
      <trkpt lat="42.80379" lon="1.74405">
        <ele>1448.175</ele>
        <time>2021-03-23T08:55:55Z</time>
      </trkpt>
      <trkpt lat="42.8038" lon="1.74405">
        <ele>1448.441</ele>
        <time>2021-03-23T08:55:57Z</time>
      </trkpt>
      <trkpt lat="42.80381" lon="1.74406">
        <ele>1448.645</ele>
        <time>2021-03-23T08:55:59Z</time>
      </trkpt>
      <trkpt lat="42.80382" lon="1.74407">
        <ele>1449.5</ele>
        <time>2021-03-23T08:56:01Z</time>
      </trkpt>
      <trkpt lat="42.80383" lon="1.74408">
        <ele>1449.831</ele>
        <time>2021-03-23T08:56:03Z</time>
      </trkpt>
      <trkpt lat="42.80384" lon="1.74409">
        <ele>1449.932</ele>
        <time>2021-03-23T08:56:05Z</time>
      </trkpt>
      <trkpt lat="42.80385" lon="1.74411">
        <ele>1450.697</ele>
        <time>2021-03-23T08:56:07Z</time>
      </trkpt>
      <trkpt lat="42.80386" lon="1.74412">
        <ele>1450.857</ele>
        <time>2021-03-23T08:56:09Z</time>
      </trkpt>
      <trkpt lat="42.80386" lon="1.74413">
        <ele>1451.403</ele>
        <time>2021-03-23T08:56:11Z</time>
      </trkpt>
      <trkpt lat="42.80388" lon="1.74415">
        <ele>1451.717</ele>
        <time>2021-03-23T08:56:13Z</time>
      </trkpt>
      <trkpt lat="42.80389" lon="1.74416">
        <ele>1452.489</ele>
        <time>2021-03-23T08:56:15Z</time>
      </trkpt>
      <trkpt lat="42.8039" lon="1.74417">
        <ele>1452.75</ele>
        <time>2021-03-23T08:56:17Z</time>
      </trkpt>
      <trkpt lat="42.80391" lon="1.74418">
        <ele>1452.875</ele>
        <time>2021-03-23T08:56:19Z</time>
      </trkpt>
      <trkpt lat="42.80391" lon="1.74419">
        <ele>1452.816</ele>
        <time>2021-03-23T08:56:21Z</time>
      </trkpt>
      <trkpt lat="42.80392" lon="1.7442">
        <ele>1452.48</ele>
        <time>2021-03-23T08:56:23Z</time>
      </trkpt>
      <trkpt lat="42.80393" lon="1.74421">
        <ele>1453.005</ele>
        <time>2021-03-23T08:56:25Z</time>
      </trkpt>
      <trkpt lat="42.80395" lon="1.74422">
        <ele>1453.243</ele>
        <time>2021-03-23T08:56:27Z</time>
      </trkpt>
      <trkpt lat="42.80396" lon="1.74424">
        <ele>1453.363</ele>
        <time>2021-03-23T08:56:29Z</time>
      </trkpt>
      <trkpt lat="42.80397" lon="1.74425">
        <ele>1452.641</ele>
        <time>2021-03-23T08:56:31Z</time>
      </trkpt>
      <trkpt lat="42.80397" lon="1.74426">
        <ele>1452.618</ele>
        <time>2021-03-23T08:56:33Z</time>
      </trkpt>
      <trkpt lat="42.80399" lon="1.74427">
        <ele>1452.789</ele>
        <time>2021-03-23T08:56:35Z</time>
      </trkpt>
      <trkpt lat="42.804" lon="1.74428">
        <ele>1453.13</ele>
        <time>2021-03-23T08:56:37Z</time>
      </trkpt>
      <trkpt lat="42.804" lon="1.74429">
        <ele>1453.237</ele>
        <time>2021-03-23T08:56:39Z</time>
      </trkpt>
      <trkpt lat="42.80401" lon="1.74431">
        <ele>1454.065</ele>
        <time>2021-03-23T08:56:41Z</time>
      </trkpt>
      <trkpt lat="42.80403" lon="1.74432">
        <ele>1454.227</ele>
        <time>2021-03-23T08:56:43Z</time>
      </trkpt>
      <trkpt lat="42.80403" lon="1.74433">
        <ele>1454.472</ele>
        <time>2021-03-23T08:56:45Z</time>
      </trkpt>
      <trkpt lat="42.80404" lon="1.74434">
        <ele>1455.347</ele>
        <time>2021-03-23T08:56:47Z</time>
      </trkpt>
      <trkpt lat="42.80405" lon="1.74434">
        <ele>1455.52</ele>
        <time>2021-03-23T08:56:49Z</time>
      </trkpt>
      <trkpt lat="42.80406" lon="1.74435">
        <ele>1456.811</ele>
        <time>2021-03-23T08:56:51Z</time>
      </trkpt>
      <trkpt lat="42.80408" lon="1.74435">
        <ele>1456.795</ele>
        <time>2021-03-23T08:56:53Z</time>
      </trkpt>
      <trkpt lat="42.80408" lon="1.74434">
        <ele>1456.915</ele>
        <time>2021-03-23T08:56:55Z</time>
      </trkpt>
      <trkpt lat="42.80409" lon="1.74432">
        <ele>1457.852</ele>
        <time>2021-03-23T08:56:57Z</time>
      </trkpt>
      <trkpt lat="42.80408" lon="1.74429">
        <ele>1458.419</ele>
        <time>2021-03-23T08:56:59Z</time>
      </trkpt>
      <trkpt lat="42.80408" lon="1.74428">
        <ele>1458.377</ele>
        <time>2021-03-23T08:57:01Z</time>
      </trkpt>
      <trkpt lat="42.80407" lon="1.74426">
        <ele>1457.814</ele>
        <time>2021-03-23T08:57:03Z</time>
      </trkpt>
      <trkpt lat="42.80405" lon="1.74425">
        <ele>1458.108</ele>
        <time>2021-03-23T08:57:05Z</time>
      </trkpt>
      <trkpt lat="42.80404" lon="1.74424">
        <ele>1458.442</ele>
        <time>2021-03-23T08:57:07Z</time>
      </trkpt>
      <trkpt lat="42.80404" lon="1.74424">
        <ele>1458.396</ele>
        <time>2021-03-23T08:57:09Z</time>
      </trkpt>
      <trkpt lat="42.80404" lon="1.74424">
        <ele>1458.337</ele>
        <time>2021-03-23T08:57:11Z</time>
      </trkpt>
      <trkpt lat="42.80404" lon="1.74424">
        <ele>1458.336</ele>
        <time>2021-03-23T08:57:13Z</time>
      </trkpt>
      <trkpt lat="42.80404" lon="1.74424">
        <ele>1458.334</ele>
        <time>2021-03-23T08:57:14Z</time>
      </trkpt>
      <trkpt lat="42.80404" lon="1.74424">
        <ele>1458.322</ele>
        <time>2021-03-23T08:57:17Z</time>
      </trkpt>
      <trkpt lat="42.80404" lon="1.74424">
        <ele>1458.327</ele>
        <time>2021-03-23T08:57:19Z</time>
      </trkpt>
      <trkpt lat="42.80404" lon="1.74424">
        <ele>1458.312</ele>
        <time>2021-03-23T08:57:21Z</time>
      </trkpt>
      <trkpt lat="42.80404" lon="1.74424">
        <ele>1458.314</ele>
        <time>2021-03-23T08:57:23Z</time>
      </trkpt>
      <trkpt lat="42.80404" lon="1.74424">
        <ele>1458.309</ele>
        <time>2021-03-23T08:57:25Z</time>
      </trkpt>
      <trkpt lat="42.80404" lon="1.74424">
        <ele>1458.305</ele>
        <time>2021-03-23T08:57:27Z</time>
      </trkpt>
      <trkpt lat="42.80404" lon="1.74424">
        <ele>1458.302</ele>
        <time>2021-03-23T08:57:29Z</time>
      </trkpt>
      <trkpt lat="42.80404" lon="1.74424">
        <ele>1458.296</ele>
        <time>2021-03-23T08:57:31Z</time>
      </trkpt>
      <trkpt lat="42.80404" lon="1.74424">
        <ele>1458.288</ele>
        <time>2021-03-23T08:57:33Z</time>
      </trkpt>
      <trkpt lat="42.80404" lon="1.74424">
        <ele>1458.282</ele>
        <time>2021-03-23T08:57:35Z</time>
      </trkpt>
      <trkpt lat="42.80404" lon="1.74424">
        <ele>1458.367</ele>
        <time>2021-03-23T08:57:37Z</time>
      </trkpt>
      <trkpt lat="42.80404" lon="1.74424">
        <ele>1458.367</ele>
        <time>2021-03-23T08:57:39Z</time>
      </trkpt>
      <trkpt lat="42.80404" lon="1.74425">
        <ele>1458.362</ele>
        <time>2021-03-23T08:57:41Z</time>
      </trkpt>
      <trkpt lat="42.80404" lon="1.74425">
        <ele>1458.363</ele>
        <time>2021-03-23T08:57:43Z</time>
      </trkpt>
      <trkpt lat="42.80404" lon="1.74425">
        <ele>1458.365</ele>
        <time>2021-03-23T08:57:45Z</time>
      </trkpt>
      <trkpt lat="42.80404" lon="1.74425">
        <ele>1458.371</ele>
        <time>2021-03-23T08:57:47Z</time>
      </trkpt>
      <trkpt lat="42.80404" lon="1.74425">
        <ele>1458.365</ele>
        <time>2021-03-23T08:57:49Z</time>
      </trkpt>
      <trkpt lat="42.80404" lon="1.74424">
        <ele>1458.294</ele>
        <time>2021-03-23T08:57:51Z</time>
      </trkpt>
      <trkpt lat="42.80404" lon="1.74424">
        <ele>1458.357</ele>
        <time>2021-03-23T08:57:53Z</time>
      </trkpt>
      <trkpt lat="42.80404" lon="1.74422">
        <ele>1458.121</ele>
        <time>2021-03-23T08:57:55Z</time>
      </trkpt>
      <trkpt lat="42.80404" lon="1.74421">
        <ele>1457.784</ele>
        <time>2021-03-23T08:57:57Z</time>
      </trkpt>
      <trkpt lat="42.80403" lon="1.7442">
        <ele>1457.855</ele>
        <time>2021-03-23T08:57:59Z</time>
      </trkpt>
      <trkpt lat="42.80403" lon="1.7442">
        <ele>1457.846</ele>
        <time>2021-03-23T08:58:01Z</time>
      </trkpt>
      <trkpt lat="42.80403" lon="1.7442">
        <ele>1457.842</ele>
        <time>2021-03-23T08:58:03Z</time>
      </trkpt>
      <trkpt lat="42.80403" lon="1.7442">
        <ele>1457.685</ele>
        <time>2021-03-23T08:58:05Z</time>
      </trkpt>
      <trkpt lat="42.80403" lon="1.74421">
        <ele>1457.936</ele>
        <time>2021-03-23T08:58:07Z</time>
      </trkpt>
      <trkpt lat="42.80403" lon="1.74421">
        <ele>1457.921</ele>
        <time>2021-03-23T08:58:09Z</time>
      </trkpt>
      <trkpt lat="42.80403" lon="1.74421">
        <ele>1457.894</ele>
        <time>2021-03-23T08:58:11Z</time>
      </trkpt>
      <trkpt lat="42.80403" lon="1.74421">
        <ele>1457.88</ele>
        <time>2021-03-23T08:58:13Z</time>
      </trkpt>
      <trkpt lat="42.80403" lon="1.74421">
        <ele>1457.868</ele>
        <time>2021-03-23T08:58:15Z</time>
      </trkpt>
      <trkpt lat="42.80403" lon="1.74421">
        <ele>1457.857</ele>
        <time>2021-03-23T08:58:17Z</time>
      </trkpt>
      <trkpt lat="42.80403" lon="1.74421">
        <ele>1457.943</ele>
        <time>2021-03-23T08:58:19Z</time>
      </trkpt>
      <trkpt lat="42.80403" lon="1.7442">
        <ele>1458.166</ele>
        <time>2021-03-23T08:58:21Z</time>
      </trkpt>
      <trkpt lat="42.80403" lon="1.7442">
        <ele>1458.16</ele>
        <time>2021-03-23T08:58:23Z</time>
      </trkpt>
      <trkpt lat="42.80403" lon="1.7442">
        <ele>1458.145</ele>
        <time>2021-03-23T08:58:25Z</time>
      </trkpt>
      <trkpt lat="42.80403" lon="1.7442">
        <ele>1458.148</ele>
        <time>2021-03-23T08:58:27Z</time>
      </trkpt>
      <trkpt lat="42.80403" lon="1.7442">
        <ele>1458.149</ele>
        <time>2021-03-23T08:58:29Z</time>
      </trkpt>
      <trkpt lat="42.80403" lon="1.7442">
        <ele>1458.193</ele>
        <time>2021-03-23T08:58:31Z</time>
      </trkpt>
      <trkpt lat="42.80403" lon="1.74419">
        <ele>1457.993</ele>
        <time>2021-03-23T08:58:33Z</time>
      </trkpt>
      <trkpt lat="42.80403" lon="1.74417">
        <ele>1458.196</ele>
        <time>2021-03-23T08:58:35Z</time>
      </trkpt>
      <trkpt lat="42.80403" lon="1.74415">
        <ele>1457.893</ele>
        <time>2021-03-23T08:58:37Z</time>
      </trkpt>
      <trkpt lat="42.80403" lon="1.74413">
        <ele>1458.962</ele>
        <time>2021-03-23T08:58:39Z</time>
      </trkpt>
      <trkpt lat="42.80403" lon="1.74411">
        <ele>1459.213</ele>
        <time>2021-03-23T08:58:41Z</time>
      </trkpt>
      <trkpt lat="42.80403" lon="1.7441">
        <ele>1459.558</ele>
        <time>2021-03-23T08:58:43Z</time>
      </trkpt>
      <trkpt lat="42.80403" lon="1.74408">
        <ele>1460.126</ele>
        <time>2021-03-23T08:58:45Z</time>
      </trkpt>
      <trkpt lat="42.80402" lon="1.74406">
        <ele>1460.765</ele>
        <time>2021-03-23T08:58:47Z</time>
      </trkpt>
      <trkpt lat="42.80402" lon="1.74404">
        <ele>1461.043</ele>
        <time>2021-03-23T08:58:49Z</time>
      </trkpt>
      <trkpt lat="42.80403" lon="1.74403">
        <ele>1461.452</ele>
        <time>2021-03-23T08:58:51Z</time>
      </trkpt>
      <trkpt lat="42.80403" lon="1.74401">
        <ele>1461.581</ele>
        <time>2021-03-23T08:58:53Z</time>
      </trkpt>
      <trkpt lat="42.80403" lon="1.744">
        <ele>1461.346</ele>
        <time>2021-03-23T08:58:55Z</time>
      </trkpt>
      <trkpt lat="42.80404" lon="1.744">
        <ele>1462.489</ele>
        <time>2021-03-23T08:58:57Z</time>
      </trkpt>
      <trkpt lat="42.80405" lon="1.74399">
        <ele>1462.754</ele>
        <time>2021-03-23T08:58:59Z</time>
      </trkpt>
      <trkpt lat="42.80406" lon="1.74398">
        <ele>1463.134</ele>
        <time>2021-03-23T08:59:01Z</time>
      </trkpt>
      <trkpt lat="42.80407" lon="1.74397">
        <ele>1463.447</ele>
        <time>2021-03-23T08:59:03Z</time>
      </trkpt>
      <trkpt lat="42.80407" lon="1.74396">
        <ele>1463.662</ele>
        <time>2021-03-23T08:59:05Z</time>
      </trkpt>
      <trkpt lat="42.80407" lon="1.74394">
        <ele>1464.369</ele>
        <time>2021-03-23T08:59:07Z</time>
      </trkpt>
      <trkpt lat="42.80408" lon="1.74393">
        <ele>1464.748</ele>
        <time>2021-03-23T08:59:09Z</time>
      </trkpt>
      <trkpt lat="42.80408" lon="1.74391">
        <ele>1465.41</ele>
        <time>2021-03-23T08:59:11Z</time>
      </trkpt>
      <trkpt lat="42.80408" lon="1.74389">
        <ele>1464.781</ele>
        <time>2021-03-23T08:59:13Z</time>
      </trkpt>
      <trkpt lat="42.80407" lon="1.74387">
        <ele>1464.943</ele>
        <time>2021-03-23T08:59:15Z</time>
      </trkpt>
      <trkpt lat="42.80406" lon="1.74384">
        <ele>1465.666</ele>
        <time>2021-03-23T08:59:17Z</time>
      </trkpt>
      <trkpt lat="42.80406" lon="1.74381">
        <ele>1465.842</ele>
        <time>2021-03-23T08:59:19Z</time>
      </trkpt>
      <trkpt lat="42.80406" lon="1.7438">
        <ele>1465.7</ele>
        <time>2021-03-23T08:59:21Z</time>
      </trkpt>
      <trkpt lat="42.80408" lon="1.7438">
        <ele>1466.533</ele>
        <time>2021-03-23T08:59:23Z</time>
      </trkpt>
      <trkpt lat="42.80409" lon="1.74381">
        <ele>1466.873</ele>
        <time>2021-03-23T08:59:25Z</time>
      </trkpt>
      <trkpt lat="42.8041" lon="1.74382">
        <ele>1466.662</ele>
        <time>2021-03-23T08:59:27Z</time>
      </trkpt>
      <trkpt lat="42.80411" lon="1.74383">
        <ele>1466.862</ele>
        <time>2021-03-23T08:59:29Z</time>
      </trkpt>
      <trkpt lat="42.80412" lon="1.74384">
        <ele>1467.189</ele>
        <time>2021-03-23T08:59:31Z</time>
      </trkpt>
      <trkpt lat="42.80413" lon="1.74385">
        <ele>1467.878</ele>
        <time>2021-03-23T08:59:33Z</time>
      </trkpt>
      <trkpt lat="42.80414" lon="1.74386">
        <ele>1467.465</ele>
        <time>2021-03-23T08:59:35Z</time>
      </trkpt>
      <trkpt lat="42.80415" lon="1.74387">
        <ele>1468.093</ele>
        <time>2021-03-23T08:59:37Z</time>
      </trkpt>
      <trkpt lat="42.80416" lon="1.74387">
        <ele>1468.397</ele>
        <time>2021-03-23T08:59:39Z</time>
      </trkpt>
      <trkpt lat="42.80417" lon="1.74387">
        <ele>1468.833</ele>
        <time>2021-03-23T08:59:41Z</time>
      </trkpt>
      <trkpt lat="42.80418" lon="1.74387">
        <ele>1469.613</ele>
        <time>2021-03-23T08:59:43Z</time>
      </trkpt>
      <trkpt lat="42.8042" lon="1.74387">
        <ele>1469.604</ele>
        <time>2021-03-23T08:59:45Z</time>
      </trkpt>
      <trkpt lat="42.8042" lon="1.74388">
        <ele>1470.499</ele>
        <time>2021-03-23T08:59:47Z</time>
      </trkpt>
      <trkpt lat="42.80421" lon="1.7439">
        <ele>1470.463</ele>
        <time>2021-03-23T08:59:49Z</time>
      </trkpt>
      <trkpt lat="42.80421" lon="1.74391">
        <ele>1470.488</ele>
        <time>2021-03-23T08:59:51Z</time>
      </trkpt>
      <trkpt lat="42.80422" lon="1.74392">
        <ele>1470.83</ele>
        <time>2021-03-23T08:59:53Z</time>
      </trkpt>
      <trkpt lat="42.80423" lon="1.74394">
        <ele>1471.05</ele>
        <time>2021-03-23T08:59:55Z</time>
      </trkpt>
      <trkpt lat="42.80424" lon="1.74395">
        <ele>1471.477</ele>
        <time>2021-03-23T08:59:57Z</time>
      </trkpt>
      <trkpt lat="42.80425" lon="1.74396">
        <ele>1472.272</ele>
        <time>2021-03-23T08:59:59Z</time>
      </trkpt>
      <trkpt lat="42.80426" lon="1.74396">
        <ele>1472.923</ele>
        <time>2021-03-23T09:00:01Z</time>
      </trkpt>
      <trkpt lat="42.80427" lon="1.74397">
        <ele>1474.658</ele>
        <time>2021-03-23T09:00:03Z</time>
      </trkpt>
      <trkpt lat="42.80428" lon="1.74397">
        <ele>1475.155</ele>
        <time>2021-03-23T09:00:05Z</time>
      </trkpt>
      <trkpt lat="42.80429" lon="1.74397">
        <ele>1475.586</ele>
        <time>2021-03-23T09:00:07Z</time>
      </trkpt>
      <trkpt lat="42.8043" lon="1.74396">
        <ele>1475.709</ele>
        <time>2021-03-23T09:00:09Z</time>
      </trkpt>
      <trkpt lat="42.80432" lon="1.74396">
        <ele>1476.279</ele>
        <time>2021-03-23T09:00:11Z</time>
      </trkpt>
      <trkpt lat="42.80433" lon="1.74396">
        <ele>1476.52</ele>
        <time>2021-03-23T09:00:13Z</time>
      </trkpt>
      <trkpt lat="42.80434" lon="1.74396">
        <ele>1476.848</ele>
        <time>2021-03-23T09:00:15Z</time>
      </trkpt>
      <trkpt lat="42.80435" lon="1.74396">
        <ele>1477.494</ele>
        <time>2021-03-23T09:00:17Z</time>
      </trkpt>
      <trkpt lat="42.80436" lon="1.74396">
        <ele>1477.865</ele>
        <time>2021-03-23T09:00:19Z</time>
      </trkpt>
      <trkpt lat="42.80437" lon="1.74397">
        <ele>1478.231</ele>
        <time>2021-03-23T09:00:21Z</time>
      </trkpt>
      <trkpt lat="42.80438" lon="1.74398">
        <ele>1478.488</ele>
        <time>2021-03-23T09:00:23Z</time>
      </trkpt>
      <trkpt lat="42.80439" lon="1.74398">
        <ele>1478.219</ele>
        <time>2021-03-23T09:00:25Z</time>
      </trkpt>
      <trkpt lat="42.8044" lon="1.74398">
        <ele>1478.169</ele>
        <time>2021-03-23T09:00:27Z</time>
      </trkpt>
      <trkpt lat="42.8044" lon="1.74398">
        <ele>1478.877</ele>
        <time>2021-03-23T09:00:29Z</time>
      </trkpt>
      <trkpt lat="42.80441" lon="1.74399">
        <ele>1480.487</ele>
        <time>2021-03-23T09:00:31Z</time>
      </trkpt>
      <trkpt lat="42.80442" lon="1.744">
        <ele>1480.488</ele>
        <time>2021-03-23T09:00:33Z</time>
      </trkpt>
      <trkpt lat="42.80442" lon="1.74399">
        <ele>1481.014</ele>
        <time>2021-03-23T09:00:35Z</time>
      </trkpt>
      <trkpt lat="42.80443" lon="1.74397">
        <ele>1481.398</ele>
        <time>2021-03-23T09:00:37Z</time>
      </trkpt>
      <trkpt lat="42.80442" lon="1.74395">
        <ele>1481.784</ele>
        <time>2021-03-23T09:00:39Z</time>
      </trkpt>
      <trkpt lat="42.80442" lon="1.74393">
        <ele>1481.309</ele>
        <time>2021-03-23T09:00:41Z</time>
      </trkpt>
      <trkpt lat="42.80441" lon="1.74391">
        <ele>1481.413</ele>
        <time>2021-03-23T09:00:43Z</time>
      </trkpt>
      <trkpt lat="42.80441" lon="1.74389">
        <ele>1480.696</ele>
        <time>2021-03-23T09:00:45Z</time>
      </trkpt>
      <trkpt lat="42.8044" lon="1.74387">
        <ele>1479.743</ele>
        <time>2021-03-23T09:00:47Z</time>
      </trkpt>
      <trkpt lat="42.8044" lon="1.74384">
        <ele>1479.386</ele>
        <time>2021-03-23T09:00:49Z</time>
      </trkpt>
      <trkpt lat="42.8044" lon="1.74382">
        <ele>1479.592</ele>
        <time>2021-03-23T09:00:51Z</time>
      </trkpt>
      <trkpt lat="42.8044" lon="1.7438">
        <ele>1479.773</ele>
        <time>2021-03-23T09:00:53Z</time>
      </trkpt>
      <trkpt lat="42.80439" lon="1.74378">
        <ele>1479.963</ele>
        <time>2021-03-23T09:00:55Z</time>
      </trkpt>
      <trkpt lat="42.80439" lon="1.74377">
        <ele>1479.69</ele>
        <time>2021-03-23T09:00:57Z</time>
      </trkpt>
      <trkpt lat="42.80438" lon="1.74374">
        <ele>1479.856</ele>
        <time>2021-03-23T09:00:59Z</time>
      </trkpt>
      <trkpt lat="42.80438" lon="1.74372">
        <ele>1479.141</ele>
        <time>2021-03-23T09:01:01Z</time>
      </trkpt>
      <trkpt lat="42.80437" lon="1.74369">
        <ele>1478.015</ele>
        <time>2021-03-23T09:01:03Z</time>
      </trkpt>
      <trkpt lat="42.80436" lon="1.74366">
        <ele>1478.273</ele>
        <time>2021-03-23T09:01:05Z</time>
      </trkpt>
      <trkpt lat="42.80435" lon="1.74363">
        <ele>1479.337</ele>
        <time>2021-03-23T09:01:07Z</time>
      </trkpt>
      <trkpt lat="42.80435" lon="1.74361">
        <ele>1479.675</ele>
        <time>2021-03-23T09:01:09Z</time>
      </trkpt>
      <trkpt lat="42.80435" lon="1.74358">
        <ele>1479.716</ele>
        <time>2021-03-23T09:01:11Z</time>
      </trkpt>
      <trkpt lat="42.80434" lon="1.74356">
        <ele>1480.085</ele>
        <time>2021-03-23T09:01:13Z</time>
      </trkpt>
      <trkpt lat="42.80434" lon="1.74353">
        <ele>1480.421</ele>
        <time>2021-03-23T09:01:15Z</time>
      </trkpt>
      <trkpt lat="42.80435" lon="1.74352">
        <ele>1481.115</ele>
        <time>2021-03-23T09:01:17Z</time>
      </trkpt>
      <trkpt lat="42.80436" lon="1.7435">
        <ele>1481.498</ele>
        <time>2021-03-23T09:01:19Z</time>
      </trkpt>
      <trkpt lat="42.80436" lon="1.74348">
        <ele>1482.471</ele>
        <time>2021-03-23T09:01:21Z</time>
      </trkpt>
      <trkpt lat="42.80436" lon="1.74346">
        <ele>1482.62</ele>
        <time>2021-03-23T09:01:23Z</time>
      </trkpt>
      <trkpt lat="42.80435" lon="1.74344">
        <ele>1482.468</ele>
        <time>2021-03-23T09:01:25Z</time>
      </trkpt>
      <trkpt lat="42.80434" lon="1.74343">
        <ele>1482.234</ele>
        <time>2021-03-23T09:01:27Z</time>
      </trkpt>
      <trkpt lat="42.80433" lon="1.74341">
        <ele>1482.784</ele>
        <time>2021-03-23T09:01:29Z</time>
      </trkpt>
      <trkpt lat="42.80433" lon="1.74339">
        <ele>1482.515</ele>
        <time>2021-03-23T09:01:31Z</time>
      </trkpt>
      <trkpt lat="42.80433" lon="1.74336">
        <ele>1483.945</ele>
        <time>2021-03-23T09:01:33Z</time>
      </trkpt>
      <trkpt lat="42.80433" lon="1.74334">
        <ele>1484.413</ele>
        <time>2021-03-23T09:01:35Z</time>
      </trkpt>
      <trkpt lat="42.80433" lon="1.74332">
        <ele>1484.869</ele>
        <time>2021-03-23T09:01:37Z</time>
      </trkpt>
      <trkpt lat="42.80433" lon="1.74331">
        <ele>1485.345</ele>
        <time>2021-03-23T09:01:39Z</time>
      </trkpt>
      <trkpt lat="42.80433" lon="1.74329">
        <ele>1485.613</ele>
        <time>2021-03-23T09:01:41Z</time>
      </trkpt>
      <trkpt lat="42.80433" lon="1.74327">
        <ele>1485.931</ele>
        <time>2021-03-23T09:01:43Z</time>
      </trkpt>
      <trkpt lat="42.80433" lon="1.74326">
        <ele>1485.741</ele>
        <time>2021-03-23T09:01:45Z</time>
      </trkpt>
      <trkpt lat="42.80434" lon="1.74324">
        <ele>1486.203</ele>
        <time>2021-03-23T09:01:47Z</time>
      </trkpt>
      <trkpt lat="42.80435" lon="1.74323">
        <ele>1487.073</ele>
        <time>2021-03-23T09:01:49Z</time>
      </trkpt>
      <trkpt lat="42.80436" lon="1.74324">
        <ele>1486.869</ele>
        <time>2021-03-23T09:01:51Z</time>
      </trkpt>
      <trkpt lat="42.80437" lon="1.74325">
        <ele>1487.502</ele>
        <time>2021-03-23T09:01:53Z</time>
      </trkpt>
      <trkpt lat="42.80438" lon="1.74326">
        <ele>1486.989</ele>
        <time>2021-03-23T09:01:55Z</time>
      </trkpt>
      <trkpt lat="42.80439" lon="1.74327">
        <ele>1487.457</ele>
        <time>2021-03-23T09:01:57Z</time>
      </trkpt>
      <trkpt lat="42.8044" lon="1.74328">
        <ele>1487.509</ele>
        <time>2021-03-23T09:01:59Z</time>
      </trkpt>
      <trkpt lat="42.80441" lon="1.74328">
        <ele>1488.046</ele>
        <time>2021-03-23T09:02:01Z</time>
      </trkpt>
      <trkpt lat="42.80442" lon="1.74328">
        <ele>1488.82</ele>
        <time>2021-03-23T09:02:03Z</time>
      </trkpt>
      <trkpt lat="42.80443" lon="1.74329">
        <ele>1489.787</ele>
        <time>2021-03-23T09:02:05Z</time>
      </trkpt>
      <trkpt lat="42.80444" lon="1.74331">
        <ele>1489.54</ele>
        <time>2021-03-23T09:02:07Z</time>
      </trkpt>
      <trkpt lat="42.80444" lon="1.74332">
        <ele>1489.584</ele>
        <time>2021-03-23T09:02:09Z</time>
      </trkpt>
      <trkpt lat="42.80445" lon="1.74333">
        <ele>1489.972</ele>
        <time>2021-03-23T09:02:11Z</time>
      </trkpt>
      <trkpt lat="42.80446" lon="1.74333">
        <ele>1490.332</ele>
        <time>2021-03-23T09:02:13Z</time>
      </trkpt>
      <trkpt lat="42.80447" lon="1.74334">
        <ele>1490.597</ele>
        <time>2021-03-23T09:02:15Z</time>
      </trkpt>
      <trkpt lat="42.80448" lon="1.74336">
        <ele>1490.367</ele>
        <time>2021-03-23T09:02:17Z</time>
      </trkpt>
      <trkpt lat="42.80449" lon="1.74337">
        <ele>1490.439</ele>
        <time>2021-03-23T09:02:19Z</time>
      </trkpt>
      <trkpt lat="42.8045" lon="1.74338">
        <ele>1491.05</ele>
        <time>2021-03-23T09:02:21Z</time>
      </trkpt>
      <trkpt lat="42.80451" lon="1.74339">
        <ele>1490.924</ele>
        <time>2021-03-23T09:02:23Z</time>
      </trkpt>
      <trkpt lat="42.80452" lon="1.74341">
        <ele>1491.169</ele>
        <time>2021-03-23T09:02:25Z</time>
      </trkpt>
      <trkpt lat="42.80453" lon="1.74342">
        <ele>1491.692</ele>
        <time>2021-03-23T09:02:27Z</time>
      </trkpt>
      <trkpt lat="42.80453" lon="1.74343">
        <ele>1491.915</ele>
        <time>2021-03-23T09:02:29Z</time>
      </trkpt>
      <trkpt lat="42.80454" lon="1.74344">
        <ele>1492.147</ele>
        <time>2021-03-23T09:02:31Z</time>
      </trkpt>
      <trkpt lat="42.80455" lon="1.74344">
        <ele>1492.76</ele>
        <time>2021-03-23T09:02:33Z</time>
      </trkpt>
      <trkpt lat="42.80456" lon="1.74346">
        <ele>1492.79</ele>
        <time>2021-03-23T09:02:35Z</time>
      </trkpt>
      <trkpt lat="42.80457" lon="1.74346">
        <ele>1493.113</ele>
        <time>2021-03-23T09:02:37Z</time>
      </trkpt>
      <trkpt lat="42.80458" lon="1.74347">
        <ele>1493.164</ele>
        <time>2021-03-23T09:02:39Z</time>
      </trkpt>
      <trkpt lat="42.80459" lon="1.74347">
        <ele>1493.115</ele>
        <time>2021-03-23T09:02:41Z</time>
      </trkpt>
      <trkpt lat="42.8046" lon="1.74349">
        <ele>1494.116</ele>
        <time>2021-03-23T09:02:43Z</time>
      </trkpt>
      <trkpt lat="42.80461" lon="1.74351">
        <ele>1494.467</ele>
        <time>2021-03-23T09:02:45Z</time>
      </trkpt>
      <trkpt lat="42.80462" lon="1.74352">
        <ele>1495.117</ele>
        <time>2021-03-23T09:02:47Z</time>
      </trkpt>
      <trkpt lat="42.80463" lon="1.74353">
        <ele>1494.817</ele>
        <time>2021-03-23T09:02:49Z</time>
      </trkpt>
      <trkpt lat="42.80464" lon="1.74354">
        <ele>1494.482</ele>
        <time>2021-03-23T09:02:51Z</time>
      </trkpt>
      <trkpt lat="42.80465" lon="1.74355">
        <ele>1493.981</ele>
        <time>2021-03-23T09:02:53Z</time>
      </trkpt>
      <trkpt lat="42.80466" lon="1.74356">
        <ele>1494.302</ele>
        <time>2021-03-23T09:02:55Z</time>
      </trkpt>
      <trkpt lat="42.80467" lon="1.74357">
        <ele>1494.463</ele>
        <time>2021-03-23T09:02:57Z</time>
      </trkpt>
      <trkpt lat="42.80468" lon="1.74358">
        <ele>1494.49</ele>
        <time>2021-03-23T09:02:59Z</time>
      </trkpt>
      <trkpt lat="42.80469" lon="1.74359">
        <ele>1494.524</ele>
        <time>2021-03-23T09:03:01Z</time>
      </trkpt>
      <trkpt lat="42.8047" lon="1.7436">
        <ele>1494.483</ele>
        <time>2021-03-23T09:03:03Z</time>
      </trkpt>
      <trkpt lat="42.80472" lon="1.7436">
        <ele>1495.007</ele>
        <time>2021-03-23T09:03:05Z</time>
      </trkpt>
      <trkpt lat="42.80473" lon="1.74361">
        <ele>1495.319</ele>
        <time>2021-03-23T09:03:07Z</time>
      </trkpt>
      <trkpt lat="42.80474" lon="1.74361">
        <ele>1495.073</ele>
        <time>2021-03-23T09:03:09Z</time>
      </trkpt>
      <trkpt lat="42.80475" lon="1.74362">
        <ele>1494.828</ele>
        <time>2021-03-23T09:03:11Z</time>
      </trkpt>
      <trkpt lat="42.80475" lon="1.74363">
        <ele>1495.474</ele>
        <time>2021-03-23T09:03:13Z</time>
      </trkpt>
      <trkpt lat="42.80476" lon="1.74364">
        <ele>1496.029</ele>
        <time>2021-03-23T09:03:15Z</time>
      </trkpt>
      <trkpt lat="42.80477" lon="1.74365">
        <ele>1496.423</ele>
        <time>2021-03-23T09:03:17Z</time>
      </trkpt>
      <trkpt lat="42.80478" lon="1.74365">
        <ele>1496.846</ele>
        <time>2021-03-23T09:03:19Z</time>
      </trkpt>
      <trkpt lat="42.80479" lon="1.74367">
        <ele>1496.533</ele>
        <time>2021-03-23T09:03:21Z</time>
      </trkpt>
      <trkpt lat="42.8048" lon="1.74368">
        <ele>1496.066</ele>
        <time>2021-03-23T09:03:23Z</time>
      </trkpt>
      <trkpt lat="42.8048" lon="1.74369">
        <ele>1496.068</ele>
        <time>2021-03-23T09:03:25Z</time>
      </trkpt>
      <trkpt lat="42.80481" lon="1.74371">
        <ele>1497.277</ele>
        <time>2021-03-23T09:03:27Z</time>
      </trkpt>
      <trkpt lat="42.80483" lon="1.74372">
        <ele>1496.965</ele>
        <time>2021-03-23T09:03:29Z</time>
      </trkpt>
      <trkpt lat="42.80484" lon="1.74374">
        <ele>1497.034</ele>
        <time>2021-03-23T09:03:31Z</time>
      </trkpt>
      <trkpt lat="42.80485" lon="1.74375">
        <ele>1497.424</ele>
        <time>2021-03-23T09:03:33Z</time>
      </trkpt>
      <trkpt lat="42.80486" lon="1.74375">
        <ele>1497.864</ele>
        <time>2021-03-23T09:03:35Z</time>
      </trkpt>
      <trkpt lat="42.80487" lon="1.74377">
        <ele>1497.784</ele>
        <time>2021-03-23T09:03:37Z</time>
      </trkpt>
      <trkpt lat="42.80487" lon="1.74378">
        <ele>1498.35</ele>
        <time>2021-03-23T09:03:39Z</time>
      </trkpt>
      <trkpt lat="42.80488" lon="1.74378">
        <ele>1498.773</ele>
        <time>2021-03-23T09:03:41Z</time>
      </trkpt>
      <trkpt lat="42.80489" lon="1.74379">
        <ele>1499.618</ele>
        <time>2021-03-23T09:03:43Z</time>
      </trkpt>
      <trkpt lat="42.80489" lon="1.74381">
        <ele>1500.322</ele>
        <time>2021-03-23T09:03:45Z</time>
      </trkpt>
      <trkpt lat="42.8049" lon="1.74382">
        <ele>1500.697</ele>
        <time>2021-03-23T09:03:47Z</time>
      </trkpt>
      <trkpt lat="42.80492" lon="1.74383">
        <ele>1500.441</ele>
        <time>2021-03-23T09:03:49Z</time>
      </trkpt>
      <trkpt lat="42.80492" lon="1.74384">
        <ele>1501.598</ele>
        <time>2021-03-23T09:03:51Z</time>
      </trkpt>
      <trkpt lat="42.80493" lon="1.74386">
        <ele>1501.159</ele>
        <time>2021-03-23T09:03:53Z</time>
      </trkpt>
      <trkpt lat="42.80494" lon="1.74387">
        <ele>1501.868</ele>
        <time>2021-03-23T09:03:55Z</time>
      </trkpt>
      <trkpt lat="42.80495" lon="1.74387">
        <ele>1501.835</ele>
        <time>2021-03-23T09:03:57Z</time>
      </trkpt>
      <trkpt lat="42.80496" lon="1.74388">
        <ele>1502.079</ele>
        <time>2021-03-23T09:03:59Z</time>
      </trkpt>
      <trkpt lat="42.80496" lon="1.7439">
        <ele>1503.065</ele>
        <time>2021-03-23T09:04:01Z</time>
      </trkpt>
      <trkpt lat="42.80497" lon="1.74391">
        <ele>1503.366</ele>
        <time>2021-03-23T09:04:03Z</time>
      </trkpt>
      <trkpt lat="42.80499" lon="1.74391">
        <ele>1503.911</ele>
        <time>2021-03-23T09:04:05Z</time>
      </trkpt>
      <trkpt lat="42.80499" lon="1.74392">
        <ele>1503.965</ele>
        <time>2021-03-23T09:04:07Z</time>
      </trkpt>
      <trkpt lat="42.805" lon="1.74392">
        <ele>1504.314</ele>
        <time>2021-03-23T09:04:09Z</time>
      </trkpt>
      <trkpt lat="42.80501" lon="1.74393">
        <ele>1504.185</ele>
        <time>2021-03-23T09:04:11Z</time>
      </trkpt>
      <trkpt lat="42.80501" lon="1.74394">
        <ele>1504.742</ele>
        <time>2021-03-23T09:04:13Z</time>
      </trkpt>
      <trkpt lat="42.80503" lon="1.74395">
        <ele>1505.69</ele>
        <time>2021-03-23T09:04:15Z</time>
      </trkpt>
      <trkpt lat="42.80504" lon="1.74397">
        <ele>1507.173</ele>
        <time>2021-03-23T09:04:17Z</time>
      </trkpt>
      <trkpt lat="42.80504" lon="1.74398">
        <ele>1507.762</ele>
        <time>2021-03-23T09:04:19Z</time>
      </trkpt>
      <trkpt lat="42.80505" lon="1.74399">
        <ele>1508.004</ele>
        <time>2021-03-23T09:04:21Z</time>
      </trkpt>
      <trkpt lat="42.80505" lon="1.74399">
        <ele>1508.094</ele>
        <time>2021-03-23T09:04:23Z</time>
      </trkpt>
      <trkpt lat="42.80506" lon="1.74401">
        <ele>1507.547</ele>
        <time>2021-03-23T09:04:25Z</time>
      </trkpt>
      <trkpt lat="42.80507" lon="1.74402">
        <ele>1507.822</ele>
        <time>2021-03-23T09:04:27Z</time>
      </trkpt>
      <trkpt lat="42.80508" lon="1.74403">
        <ele>1507.418</ele>
        <time>2021-03-23T09:04:29Z</time>
      </trkpt>
      <trkpt lat="42.80509" lon="1.74404">
        <ele>1507.959</ele>
        <time>2021-03-23T09:04:31Z</time>
      </trkpt>
      <trkpt lat="42.8051" lon="1.74405">
        <ele>1508.378</ele>
        <time>2021-03-23T09:04:33Z</time>
      </trkpt>
      <trkpt lat="42.80511" lon="1.74406">
        <ele>1509.291</ele>
        <time>2021-03-23T09:04:35Z</time>
      </trkpt>
      <trkpt lat="42.80512" lon="1.74407">
        <ele>1510.047</ele>
        <time>2021-03-23T09:04:37Z</time>
      </trkpt>
      <trkpt lat="42.80513" lon="1.74408">
        <ele>1511.067</ele>
        <time>2021-03-23T09:04:39Z</time>
      </trkpt>
      <trkpt lat="42.80514" lon="1.74409">
        <ele>1511.517</ele>
        <time>2021-03-23T09:04:41Z</time>
      </trkpt>
      <trkpt lat="42.80516" lon="1.7441">
        <ele>1511.78</ele>
        <time>2021-03-23T09:04:43Z</time>
      </trkpt>
      <trkpt lat="42.80517" lon="1.74411">
        <ele>1512.544</ele>
        <time>2021-03-23T09:04:45Z</time>
      </trkpt>
      <trkpt lat="42.80518" lon="1.74412">
        <ele>1512.931</ele>
        <time>2021-03-23T09:04:47Z</time>
      </trkpt>
      <trkpt lat="42.80519" lon="1.74413">
        <ele>1513.249</ele>
        <time>2021-03-23T09:04:49Z</time>
      </trkpt>
      <trkpt lat="42.8052" lon="1.74414">
        <ele>1513.495</ele>
        <time>2021-03-23T09:04:51Z</time>
      </trkpt>
      <trkpt lat="42.80521" lon="1.74414">
        <ele>1512.897</ele>
        <time>2021-03-23T09:04:53Z</time>
      </trkpt>
      <trkpt lat="42.80521" lon="1.74415">
        <ele>1512.905</ele>
        <time>2021-03-23T09:04:55Z</time>
      </trkpt>
      <trkpt lat="42.80523" lon="1.74416">
        <ele>1513.398</ele>
        <time>2021-03-23T09:04:57Z</time>
      </trkpt>
      <trkpt lat="42.80523" lon="1.74417">
        <ele>1513.536</ele>
        <time>2021-03-23T09:04:59Z</time>
      </trkpt>
      <trkpt lat="42.80524" lon="1.74417">
        <ele>1512.545</ele>
        <time>2021-03-23T09:05:01Z</time>
      </trkpt>
      <trkpt lat="42.80524" lon="1.74417">
        <ele>1512.549</ele>
        <time>2021-03-23T09:05:03Z</time>
      </trkpt>
      <trkpt lat="42.80524" lon="1.74417">
        <ele>1512.563</ele>
        <time>2021-03-23T09:05:05Z</time>
      </trkpt>
      <trkpt lat="42.80524" lon="1.74417">
        <ele>1512.57</ele>
        <time>2021-03-23T09:05:07Z</time>
      </trkpt>
      <trkpt lat="42.80524" lon="1.74417">
        <ele>1513.498</ele>
        <time>2021-03-23T09:05:09Z</time>
      </trkpt>
      <trkpt lat="42.80524" lon="1.74417">
        <ele>1513.507</ele>
        <time>2021-03-23T09:05:11Z</time>
      </trkpt>
      <trkpt lat="42.80524" lon="1.74417">
        <ele>1513.503</ele>
        <time>2021-03-23T09:05:13Z</time>
      </trkpt>
      <trkpt lat="42.80524" lon="1.74417">
        <ele>1513.497</ele>
        <time>2021-03-23T09:05:15Z</time>
      </trkpt>
      <trkpt lat="42.80524" lon="1.74417">
        <ele>1513.496</ele>
        <time>2021-03-23T09:05:17Z</time>
      </trkpt>
      <trkpt lat="42.80524" lon="1.74417">
        <ele>1513.488</ele>
        <time>2021-03-23T09:05:19Z</time>
      </trkpt>
      <trkpt lat="42.80524" lon="1.74417">
        <ele>1513.489</ele>
        <time>2021-03-23T09:05:21Z</time>
      </trkpt>
      <trkpt lat="42.80524" lon="1.74417">
        <ele>1513.488</ele>
        <time>2021-03-23T09:05:23Z</time>
      </trkpt>
      <trkpt lat="42.80524" lon="1.74417">
        <ele>1513.494</ele>
        <time>2021-03-23T09:05:25Z</time>
      </trkpt>
      <trkpt lat="42.80524" lon="1.74417">
        <ele>1513.484</ele>
        <time>2021-03-23T09:05:27Z</time>
      </trkpt>
      <trkpt lat="42.80524" lon="1.74417">
        <ele>1513.47</ele>
        <time>2021-03-23T09:05:29Z</time>
      </trkpt>
      <trkpt lat="42.80524" lon="1.74417">
        <ele>1513.463</ele>
        <time>2021-03-23T09:05:31Z</time>
      </trkpt>
      <trkpt lat="42.80524" lon="1.74417">
        <ele>1513.468</ele>
        <time>2021-03-23T09:05:33Z</time>
      </trkpt>
      <trkpt lat="42.80524" lon="1.74417">
        <ele>1513.494</ele>
        <time>2021-03-23T09:05:35Z</time>
      </trkpt>
      <trkpt lat="42.80524" lon="1.74417">
        <ele>1513.503</ele>
        <time>2021-03-23T09:05:37Z</time>
      </trkpt>
      <trkpt lat="42.80524" lon="1.74417">
        <ele>1513.502</ele>
        <time>2021-03-23T09:05:39Z</time>
      </trkpt>
      <trkpt lat="42.80524" lon="1.74417">
        <ele>1513.491</ele>
        <time>2021-03-23T09:05:41Z</time>
      </trkpt>
      <trkpt lat="42.80524" lon="1.74417">
        <ele>1513.488</ele>
        <time>2021-03-23T09:05:43Z</time>
      </trkpt>
      <trkpt lat="42.80524" lon="1.74417">
        <ele>1513.492</ele>
        <time>2021-03-23T09:05:45Z</time>
      </trkpt>
      <trkpt lat="42.80524" lon="1.74417">
        <ele>1513.505</ele>
        <time>2021-03-23T09:05:47Z</time>
      </trkpt>
      <trkpt lat="42.80524" lon="1.74417">
        <ele>1513.505</ele>
        <time>2021-03-23T09:05:49Z</time>
      </trkpt>
      <trkpt lat="42.80524" lon="1.74417">
        <ele>1513.514</ele>
        <time>2021-03-23T09:05:51Z</time>
      </trkpt>
      <trkpt lat="42.80524" lon="1.74417">
        <ele>1513.524</ele>
        <time>2021-03-23T09:05:53Z</time>
      </trkpt>
      <trkpt lat="42.80524" lon="1.74417">
        <ele>1513.533</ele>
        <time>2021-03-23T09:05:55Z</time>
      </trkpt>
      <trkpt lat="42.80524" lon="1.74417">
        <ele>1513.541</ele>
        <time>2021-03-23T09:05:57Z</time>
      </trkpt>
      <trkpt lat="42.80524" lon="1.74417">
        <ele>1513.547</ele>
        <time>2021-03-23T09:05:59Z</time>
      </trkpt>
      <trkpt lat="42.80524" lon="1.74417">
        <ele>1513.555</ele>
        <time>2021-03-23T09:06:01Z</time>
      </trkpt>
      <trkpt lat="42.80524" lon="1.74417">
        <ele>1513.557</ele>
        <time>2021-03-23T09:06:03Z</time>
      </trkpt>
      <trkpt lat="42.80524" lon="1.74417">
        <ele>1513.554</ele>
        <time>2021-03-23T09:06:05Z</time>
      </trkpt>
      <trkpt lat="42.80524" lon="1.74417">
        <ele>1513.551</ele>
        <time>2021-03-23T09:06:07Z</time>
      </trkpt>
      <trkpt lat="42.80524" lon="1.74417">
        <ele>1513.548</ele>
        <time>2021-03-23T09:06:09Z</time>
      </trkpt>
      <trkpt lat="42.80524" lon="1.74417">
        <ele>1513.531</ele>
        <time>2021-03-23T09:06:11Z</time>
      </trkpt>
      <trkpt lat="42.80524" lon="1.74417">
        <ele>1513.511</ele>
        <time>2021-03-23T09:06:13Z</time>
      </trkpt>
      <trkpt lat="42.80524" lon="1.74417">
        <ele>1513.494</ele>
        <time>2021-03-23T09:06:15Z</time>
      </trkpt>
      <trkpt lat="42.80524" lon="1.74417">
        <ele>1513.493</ele>
        <time>2021-03-23T09:06:17Z</time>
      </trkpt>
      <trkpt lat="42.80524" lon="1.74417">
        <ele>1513.498</ele>
        <time>2021-03-23T09:06:19Z</time>
      </trkpt>
      <trkpt lat="42.80523" lon="1.74417">
        <ele>1513.492</ele>
        <time>2021-03-23T09:06:21Z</time>
      </trkpt>
      <trkpt lat="42.80523" lon="1.74417">
        <ele>1513.47</ele>
        <time>2021-03-23T09:06:23Z</time>
      </trkpt>
      <trkpt lat="42.80523" lon="1.74417">
        <ele>1513.464</ele>
        <time>2021-03-23T09:06:25Z</time>
      </trkpt>
      <trkpt lat="42.80523" lon="1.74417">
        <ele>1513.438</ele>
        <time>2021-03-23T09:06:27Z</time>
      </trkpt>
      <trkpt lat="42.80523" lon="1.74417">
        <ele>1513.442</ele>
        <time>2021-03-23T09:06:29Z</time>
      </trkpt>
      <trkpt lat="42.80523" lon="1.74417">
        <ele>1513.44</ele>
        <time>2021-03-23T09:06:31Z</time>
      </trkpt>
      <trkpt lat="42.80523" lon="1.74417">
        <ele>1513.438</ele>
        <time>2021-03-23T09:06:33Z</time>
      </trkpt>
      <trkpt lat="42.80523" lon="1.74417">
        <ele>1513.434</ele>
        <time>2021-03-23T09:06:35Z</time>
      </trkpt>
      <trkpt lat="42.80523" lon="1.74417">
        <ele>1513.414</ele>
        <time>2021-03-23T09:06:37Z</time>
      </trkpt>
      <trkpt lat="42.80523" lon="1.74417">
        <ele>1513.417</ele>
        <time>2021-03-23T09:06:39Z</time>
      </trkpt>
      <trkpt lat="42.80523" lon="1.74417">
        <ele>1513.419</ele>
        <time>2021-03-23T09:06:41Z</time>
      </trkpt>
      <trkpt lat="42.80523" lon="1.74417">
        <ele>1513.417</ele>
        <time>2021-03-23T09:06:43Z</time>
      </trkpt>
      <trkpt lat="42.80523" lon="1.74417">
        <ele>1513.423</ele>
        <time>2021-03-23T09:06:45Z</time>
      </trkpt>
      <trkpt lat="42.80523" lon="1.74417">
        <ele>1513.425</ele>
        <time>2021-03-23T09:06:47Z</time>
      </trkpt>
      <trkpt lat="42.80523" lon="1.74417">
        <ele>1513.421</ele>
        <time>2021-03-23T09:06:49Z</time>
      </trkpt>
      <trkpt lat="42.80523" lon="1.74417">
        <ele>1513.411</ele>
        <time>2021-03-23T09:06:51Z</time>
      </trkpt>
      <trkpt lat="42.80523" lon="1.74417">
        <ele>1513.406</ele>
        <time>2021-03-23T09:06:53Z</time>
      </trkpt>
      <trkpt lat="42.80523" lon="1.74417">
        <ele>1513.404</ele>
        <time>2021-03-23T09:06:55Z</time>
      </trkpt>
      <trkpt lat="42.80523" lon="1.74417">
        <ele>1513.403</ele>
        <time>2021-03-23T09:06:57Z</time>
      </trkpt>
      <trkpt lat="42.80523" lon="1.74417">
        <ele>1513.41</ele>
        <time>2021-03-23T09:06:59Z</time>
      </trkpt>
      <trkpt lat="42.80523" lon="1.74417">
        <ele>1513.413</ele>
        <time>2021-03-23T09:07:01Z</time>
      </trkpt>
      <trkpt lat="42.80523" lon="1.74417">
        <ele>1513.407</ele>
        <time>2021-03-23T09:07:03Z</time>
      </trkpt>
      <trkpt lat="42.80523" lon="1.74417">
        <ele>1513.404</ele>
        <time>2021-03-23T09:07:05Z</time>
      </trkpt>
      <trkpt lat="42.80523" lon="1.74417">
        <ele>1513.391</ele>
        <time>2021-03-23T09:07:07Z</time>
      </trkpt>
      <trkpt lat="42.80523" lon="1.74417">
        <ele>1513.387</ele>
        <time>2021-03-23T09:07:09Z</time>
      </trkpt>
      <trkpt lat="42.80523" lon="1.74417">
        <ele>1513.385</ele>
        <time>2021-03-23T09:07:11Z</time>
      </trkpt>
      <trkpt lat="42.80523" lon="1.74417">
        <ele>1513.384</ele>
        <time>2021-03-23T09:07:13Z</time>
      </trkpt>
      <trkpt lat="42.80523" lon="1.74417">
        <ele>1513.391</ele>
        <time>2021-03-23T09:07:15Z</time>
      </trkpt>
      <trkpt lat="42.80523" lon="1.74417">
        <ele>1513.396</ele>
        <time>2021-03-23T09:07:17Z</time>
      </trkpt>
      <trkpt lat="42.80523" lon="1.74417">
        <ele>1513.397</ele>
        <time>2021-03-23T09:07:19Z</time>
      </trkpt>
      <trkpt lat="42.80523" lon="1.74417">
        <ele>1513.409</ele>
        <time>2021-03-23T09:07:21Z</time>
      </trkpt>
      <trkpt lat="42.80523" lon="1.74417">
        <ele>1513.407</ele>
        <time>2021-03-23T09:07:23Z</time>
      </trkpt>
      <trkpt lat="42.80523" lon="1.74417">
        <ele>1513.404</ele>
        <time>2021-03-23T09:07:25Z</time>
      </trkpt>
      <trkpt lat="42.80523" lon="1.74417">
        <ele>1513.399</ele>
        <time>2021-03-23T09:07:27Z</time>
      </trkpt>
      <trkpt lat="42.80523" lon="1.74417">
        <ele>1513.384</ele>
        <time>2021-03-23T09:07:29Z</time>
      </trkpt>
      <trkpt lat="42.80523" lon="1.74417">
        <ele>1513.376</ele>
        <time>2021-03-23T09:07:31Z</time>
      </trkpt>
      <trkpt lat="42.80523" lon="1.74417">
        <ele>1513.36</ele>
        <time>2021-03-23T09:07:33Z</time>
      </trkpt>
      <trkpt lat="42.80523" lon="1.74417">
        <ele>1513.359</ele>
        <time>2021-03-23T09:07:35Z</time>
      </trkpt>
      <trkpt lat="42.80523" lon="1.74417">
        <ele>1513.355</ele>
        <time>2021-03-23T09:07:37Z</time>
      </trkpt>
      <trkpt lat="42.80523" lon="1.74417">
        <ele>1513.356</ele>
        <time>2021-03-23T09:07:39Z</time>
      </trkpt>
      <trkpt lat="42.80523" lon="1.74417">
        <ele>1513.349</ele>
        <time>2021-03-23T09:07:41Z</time>
      </trkpt>
      <trkpt lat="42.80523" lon="1.74417">
        <ele>1513.342</ele>
        <time>2021-03-23T09:07:43Z</time>
      </trkpt>
      <trkpt lat="42.80523" lon="1.74417">
        <ele>1513.338</ele>
        <time>2021-03-23T09:07:45Z</time>
      </trkpt>
      <trkpt lat="42.80523" lon="1.74417">
        <ele>1513.344</ele>
        <time>2021-03-23T09:07:47Z</time>
      </trkpt>
      <trkpt lat="42.80523" lon="1.74417">
        <ele>1513.334</ele>
        <time>2021-03-23T09:07:49Z</time>
      </trkpt>
      <trkpt lat="42.80523" lon="1.74417">
        <ele>1513.331</ele>
        <time>2021-03-23T09:07:51Z</time>
      </trkpt>
      <trkpt lat="42.80523" lon="1.74417">
        <ele>1513.333</ele>
        <time>2021-03-23T09:07:53Z</time>
      </trkpt>
      <trkpt lat="42.80523" lon="1.74417">
        <ele>1513.338</ele>
        <time>2021-03-23T09:07:55Z</time>
      </trkpt>
      <trkpt lat="42.80523" lon="1.74417">
        <ele>1513.34</ele>
        <time>2021-03-23T09:07:57Z</time>
      </trkpt>
      <trkpt lat="42.80523" lon="1.74417">
        <ele>1513.34</ele>
        <time>2021-03-23T09:07:59Z</time>
      </trkpt>
      <trkpt lat="42.80523" lon="1.74417">
        <ele>1513.339</ele>
        <time>2021-03-23T09:08:01Z</time>
      </trkpt>
      <trkpt lat="42.80523" lon="1.74417">
        <ele>1513.33</ele>
        <time>2021-03-23T09:08:03Z</time>
      </trkpt>
      <trkpt lat="42.80523" lon="1.74417">
        <ele>1513.33</ele>
        <time>2021-03-23T09:08:05Z</time>
      </trkpt>
      <trkpt lat="42.80523" lon="1.74417">
        <ele>1513.321</ele>
        <time>2021-03-23T09:08:07Z</time>
      </trkpt>
      <trkpt lat="42.80523" lon="1.74417">
        <ele>1513.308</ele>
        <time>2021-03-23T09:08:09Z</time>
      </trkpt>
      <trkpt lat="42.80523" lon="1.74417">
        <ele>1513.306</ele>
        <time>2021-03-23T09:08:11Z</time>
      </trkpt>
      <trkpt lat="42.80523" lon="1.74417">
        <ele>1513.313</ele>
        <time>2021-03-23T09:08:13Z</time>
      </trkpt>
      <trkpt lat="42.80523" lon="1.74417">
        <ele>1513.317</ele>
        <time>2021-03-23T09:08:15Z</time>
      </trkpt>
      <trkpt lat="42.80523" lon="1.74417">
        <ele>1513.317</ele>
        <time>2021-03-23T09:08:17Z</time>
      </trkpt>
      <trkpt lat="42.80523" lon="1.74417">
        <ele>1513.698</ele>
        <time>2021-03-23T09:08:19Z</time>
      </trkpt>
      <trkpt lat="42.80523" lon="1.74417">
        <ele>1513.694</ele>
        <time>2021-03-23T09:08:21Z</time>
      </trkpt>
      <trkpt lat="42.80523" lon="1.74417">
        <ele>1513.694</ele>
        <time>2021-03-23T09:08:23Z</time>
      </trkpt>
      <trkpt lat="42.80523" lon="1.74417">
        <ele>1513.651</ele>
        <time>2021-03-23T09:08:25Z</time>
      </trkpt>
      <trkpt lat="42.80523" lon="1.74417">
        <ele>1513.918</ele>
        <time>2021-03-23T09:08:27Z</time>
      </trkpt>
      <trkpt lat="42.80522" lon="1.74417">
        <ele>1514.202</ele>
        <time>2021-03-23T09:08:29Z</time>
      </trkpt>
      <trkpt lat="42.80522" lon="1.74417">
        <ele>1514.201</ele>
        <time>2021-03-23T09:08:31Z</time>
      </trkpt>
      <trkpt lat="42.80522" lon="1.74417">
        <ele>1513.905</ele>
        <time>2021-03-23T09:08:33Z</time>
      </trkpt>
      <trkpt lat="42.80522" lon="1.74417">
        <ele>1513.916</ele>
        <time>2021-03-23T09:08:35Z</time>
      </trkpt>
      <trkpt lat="42.80522" lon="1.74417">
        <ele>1513.912</ele>
        <time>2021-03-23T09:08:37Z</time>
      </trkpt>
      <trkpt lat="42.80522" lon="1.74417">
        <ele>1513.912</ele>
        <time>2021-03-23T09:08:39Z</time>
      </trkpt>
      <trkpt lat="42.80522" lon="1.74417">
        <ele>1513.905</ele>
        <time>2021-03-23T09:08:41Z</time>
      </trkpt>
      <trkpt lat="42.80522" lon="1.74417">
        <ele>1513.909</ele>
        <time>2021-03-23T09:08:43Z</time>
      </trkpt>
      <trkpt lat="42.80522" lon="1.74417">
        <ele>1513.909</ele>
        <time>2021-03-23T09:08:45Z</time>
      </trkpt>
      <trkpt lat="42.80522" lon="1.74417">
        <ele>1513.91</ele>
        <time>2021-03-23T09:08:47Z</time>
      </trkpt>
      <trkpt lat="42.80522" lon="1.74417">
        <ele>1513.904</ele>
        <time>2021-03-23T09:08:49Z</time>
      </trkpt>
      <trkpt lat="42.80522" lon="1.74417">
        <ele>1513.904</ele>
        <time>2021-03-23T09:08:51Z</time>
      </trkpt>
      <trkpt lat="42.80522" lon="1.74417">
        <ele>1513.917</ele>
        <time>2021-03-23T09:08:53Z</time>
      </trkpt>
      <trkpt lat="42.80522" lon="1.74416">
        <ele>1513.405</ele>
        <time>2021-03-23T09:08:55Z</time>
      </trkpt>
      <trkpt lat="42.80523" lon="1.74416">
        <ele>1512.85</ele>
        <time>2021-03-23T09:08:57Z</time>
      </trkpt>
      <trkpt lat="42.80523" lon="1.74416">
        <ele>1511.936</ele>
        <time>2021-03-23T09:08:59Z</time>
      </trkpt>
      <trkpt lat="42.80523" lon="1.74416">
        <ele>1511.567</ele>
        <time>2021-03-23T09:09:01Z</time>
      </trkpt>
      <trkpt lat="42.80522" lon="1.74416">
        <ele>1511.522</ele>
        <time>2021-03-23T09:09:03Z</time>
      </trkpt>
      <trkpt lat="42.80522" lon="1.74416">
        <ele>1511.522</ele>
        <time>2021-03-23T09:09:05Z</time>
      </trkpt>
      <trkpt lat="42.80522" lon="1.74417">
        <ele>1511.295</ele>
        <time>2021-03-23T09:09:07Z</time>
      </trkpt>
      <trkpt lat="42.80523" lon="1.74417">
        <ele>1511.934</ele>
        <time>2021-03-23T09:09:09Z</time>
      </trkpt>
      <trkpt lat="42.80524" lon="1.74418">
        <ele>1512.165</ele>
        <time>2021-03-23T09:09:11Z</time>
      </trkpt>
      <trkpt lat="42.80524" lon="1.74419">
        <ele>1511.717</ele>
        <time>2021-03-23T09:09:13Z</time>
      </trkpt>
      <trkpt lat="42.80525" lon="1.7442">
        <ele>1511.435</ele>
        <time>2021-03-23T09:09:15Z</time>
      </trkpt>
      <trkpt lat="42.80526" lon="1.74422">
        <ele>1511.949</ele>
        <time>2021-03-23T09:09:17Z</time>
      </trkpt>
      <trkpt lat="42.80528" lon="1.74422">
        <ele>1512.239</ele>
        <time>2021-03-23T09:09:19Z</time>
      </trkpt>
      <trkpt lat="42.80529" lon="1.74424">
        <ele>1512.406</ele>
        <time>2021-03-23T09:09:21Z</time>
      </trkpt>
      <trkpt lat="42.8053" lon="1.74426">
        <ele>1512.813</ele>
        <time>2021-03-23T09:09:23Z</time>
      </trkpt>
      <trkpt lat="42.80532" lon="1.74426">
        <ele>1512.612</ele>
        <time>2021-03-23T09:09:25Z</time>
      </trkpt>
      <trkpt lat="42.80534" lon="1.74427">
        <ele>1514.182</ele>
        <time>2021-03-23T09:09:27Z</time>
      </trkpt>
      <trkpt lat="42.80535" lon="1.74428">
        <ele>1514.583</ele>
        <time>2021-03-23T09:09:29Z</time>
      </trkpt>
      <trkpt lat="42.80536" lon="1.74429">
        <ele>1514.597</ele>
        <time>2021-03-23T09:09:31Z</time>
      </trkpt>
      <trkpt lat="42.80538" lon="1.74429">
        <ele>1515.625</ele>
        <time>2021-03-23T09:09:33Z</time>
      </trkpt>
      <trkpt lat="42.80539" lon="1.74429">
        <ele>1516.242</ele>
        <time>2021-03-23T09:09:35Z</time>
      </trkpt>
      <trkpt lat="42.8054" lon="1.74429">
        <ele>1516.177</ele>
        <time>2021-03-23T09:09:37Z</time>
      </trkpt>
      <trkpt lat="42.8054" lon="1.74429">
        <ele>1516.394</ele>
        <time>2021-03-23T09:09:39Z</time>
      </trkpt>
      <trkpt lat="42.80541" lon="1.7443">
        <ele>1516.261</ele>
        <time>2021-03-23T09:09:41Z</time>
      </trkpt>
      <trkpt lat="42.80542" lon="1.74431">
        <ele>1516.07</ele>
        <time>2021-03-23T09:09:43Z</time>
      </trkpt>
      <trkpt lat="42.80543" lon="1.74432">
        <ele>1517.046</ele>
        <time>2021-03-23T09:09:45Z</time>
      </trkpt>
      <trkpt lat="42.80545" lon="1.74433">
        <ele>1516.978</ele>
        <time>2021-03-23T09:09:47Z</time>
      </trkpt>
      <trkpt lat="42.80546" lon="1.74435">
        <ele>1517.187</ele>
        <time>2021-03-23T09:09:49Z</time>
      </trkpt>
      <trkpt lat="42.80548" lon="1.74436">
        <ele>1517.38</ele>
        <time>2021-03-23T09:09:51Z</time>
      </trkpt>
      <trkpt lat="42.80549" lon="1.74437">
        <ele>1517.784</ele>
        <time>2021-03-23T09:09:53Z</time>
      </trkpt>
      <trkpt lat="42.80551" lon="1.74438">
        <ele>1517.66</ele>
        <time>2021-03-23T09:09:55Z</time>
      </trkpt>
      <trkpt lat="42.80552" lon="1.7444">
        <ele>1517.954</ele>
        <time>2021-03-23T09:09:57Z</time>
      </trkpt>
      <trkpt lat="42.80553" lon="1.74442">
        <ele>1518.04</ele>
        <time>2021-03-23T09:09:59Z</time>
      </trkpt>
      <trkpt lat="42.80554" lon="1.74444">
        <ele>1519.081</ele>
        <time>2021-03-23T09:10:01Z</time>
      </trkpt>
      <trkpt lat="42.80556" lon="1.74446">
        <ele>1519.539</ele>
        <time>2021-03-23T09:10:03Z</time>
      </trkpt>
      <trkpt lat="42.80557" lon="1.74448">
        <ele>1519.836</ele>
        <time>2021-03-23T09:10:05Z</time>
      </trkpt>
      <trkpt lat="42.80558" lon="1.7445">
        <ele>1520.115</ele>
        <time>2021-03-23T09:10:07Z</time>
      </trkpt>
      <trkpt lat="42.8056" lon="1.74452">
        <ele>1519.781</ele>
        <time>2021-03-23T09:10:09Z</time>
      </trkpt>
      <trkpt lat="42.80561" lon="1.74453">
        <ele>1520.051</ele>
        <time>2021-03-23T09:10:11Z</time>
      </trkpt>
      <trkpt lat="42.80562" lon="1.74454">
        <ele>1520.465</ele>
        <time>2021-03-23T09:10:13Z</time>
      </trkpt>
      <trkpt lat="42.80564" lon="1.74455">
        <ele>1520.163</ele>
        <time>2021-03-23T09:10:15Z</time>
      </trkpt>
      <trkpt lat="42.80565" lon="1.74456">
        <ele>1520.134</ele>
        <time>2021-03-23T09:10:17Z</time>
      </trkpt>
      <trkpt lat="42.80566" lon="1.74456">
        <ele>1520.087</ele>
        <time>2021-03-23T09:10:19Z</time>
      </trkpt>
      <trkpt lat="42.80567" lon="1.74457">
        <ele>1519.633</ele>
        <time>2021-03-23T09:10:21Z</time>
      </trkpt>
      <trkpt lat="42.80569" lon="1.74458">
        <ele>1519.801</ele>
        <time>2021-03-23T09:10:23Z</time>
      </trkpt>
      <trkpt lat="42.8057" lon="1.74459">
        <ele>1520.315</ele>
        <time>2021-03-23T09:10:25Z</time>
      </trkpt>
      <trkpt lat="42.80571" lon="1.7446">
        <ele>1520.588</ele>
        <time>2021-03-23T09:10:27Z</time>
      </trkpt>
      <trkpt lat="42.80573" lon="1.7446">
        <ele>1521.406</ele>
        <time>2021-03-23T09:10:29Z</time>
      </trkpt>
      <trkpt lat="42.80573" lon="1.7446">
        <ele>1521.627</ele>
        <time>2021-03-23T09:10:31Z</time>
      </trkpt>
      <trkpt lat="42.80575" lon="1.7446">
        <ele>1522.306</ele>
        <time>2021-03-23T09:10:33Z</time>
      </trkpt>
      <trkpt lat="42.80576" lon="1.74461">
        <ele>1523.116</ele>
        <time>2021-03-23T09:10:35Z</time>
      </trkpt>
      <trkpt lat="42.80577" lon="1.74461">
        <ele>1523.907</ele>
        <time>2021-03-23T09:10:37Z</time>
      </trkpt>
      <trkpt lat="42.80578" lon="1.74461">
        <ele>1524.635</ele>
        <time>2021-03-23T09:10:39Z</time>
      </trkpt>
      <trkpt lat="42.80579" lon="1.74461">
        <ele>1524.911</ele>
        <time>2021-03-23T09:10:41Z</time>
      </trkpt>
      <trkpt lat="42.8058" lon="1.7446">
        <ele>1525.856</ele>
        <time>2021-03-23T09:10:43Z</time>
      </trkpt>
      <trkpt lat="42.80581" lon="1.74461">
        <ele>1526.351</ele>
        <time>2021-03-23T09:10:45Z</time>
      </trkpt>
      <trkpt lat="42.80583" lon="1.74461">
        <ele>1526.687</ele>
        <time>2021-03-23T09:10:47Z</time>
      </trkpt>
      <trkpt lat="42.80584" lon="1.74462">
        <ele>1527.675</ele>
        <time>2021-03-23T09:10:49Z</time>
      </trkpt>
      <trkpt lat="42.80585" lon="1.74461">
        <ele>1528.22</ele>
        <time>2021-03-23T09:10:51Z</time>
      </trkpt>
      <trkpt lat="42.80586" lon="1.74461">
        <ele>1528.372</ele>
        <time>2021-03-23T09:10:53Z</time>
      </trkpt>
      <trkpt lat="42.80587" lon="1.74461">
        <ele>1528.499</ele>
        <time>2021-03-23T09:10:55Z</time>
      </trkpt>
      <trkpt lat="42.80588" lon="1.74462">
        <ele>1528.12</ele>
        <time>2021-03-23T09:10:57Z</time>
      </trkpt>
      <trkpt lat="42.80589" lon="1.74463">
        <ele>1527.832</ele>
        <time>2021-03-23T09:10:59Z</time>
      </trkpt>
      <trkpt lat="42.8059" lon="1.74463">
        <ele>1527.769</ele>
        <time>2021-03-23T09:11:01Z</time>
      </trkpt>
      <trkpt lat="42.80591" lon="1.74464">
        <ele>1528.208</ele>
        <time>2021-03-23T09:11:03Z</time>
      </trkpt>
      <trkpt lat="42.80591" lon="1.74464">
        <ele>1528.388</ele>
        <time>2021-03-23T09:11:05Z</time>
      </trkpt>
      <trkpt lat="42.80592" lon="1.74464">
        <ele>1529.972</ele>
        <time>2021-03-23T09:11:07Z</time>
      </trkpt>
      <trkpt lat="42.80593" lon="1.74465">
        <ele>1530.411</ele>
        <time>2021-03-23T09:11:09Z</time>
      </trkpt>
      <trkpt lat="42.80595" lon="1.74466">
        <ele>1531.271</ele>
        <time>2021-03-23T09:11:11Z</time>
      </trkpt>
      <trkpt lat="42.80596" lon="1.74467">
        <ele>1531.119</ele>
        <time>2021-03-23T09:11:13Z</time>
      </trkpt>
      <trkpt lat="42.80597" lon="1.74468">
        <ele>1531.15</ele>
        <time>2021-03-23T09:11:15Z</time>
      </trkpt>
      <trkpt lat="42.80598" lon="1.74469">
        <ele>1531.439</ele>
        <time>2021-03-23T09:11:17Z</time>
      </trkpt>
      <trkpt lat="42.80599" lon="1.74468">
        <ele>1531.346</ele>
        <time>2021-03-23T09:11:19Z</time>
      </trkpt>
      <trkpt lat="42.80601" lon="1.74469">
        <ele>1531.131</ele>
        <time>2021-03-23T09:11:21Z</time>
      </trkpt>
      <trkpt lat="42.80602" lon="1.74469">
        <ele>1531.252</ele>
        <time>2021-03-23T09:11:23Z</time>
      </trkpt>
      <trkpt lat="42.80603" lon="1.74469">
        <ele>1531.455</ele>
        <time>2021-03-23T09:11:25Z</time>
      </trkpt>
      <trkpt lat="42.80604" lon="1.7447">
        <ele>1532.935</ele>
        <time>2021-03-23T09:11:27Z</time>
      </trkpt>
      <trkpt lat="42.80605" lon="1.7447">
        <ele>1532.475</ele>
        <time>2021-03-23T09:11:29Z</time>
      </trkpt>
      <trkpt lat="42.80606" lon="1.7447">
        <ele>1532.718</ele>
        <time>2021-03-23T09:11:31Z</time>
      </trkpt>
      <trkpt lat="42.80608" lon="1.7447">
        <ele>1532.609</ele>
        <time>2021-03-23T09:11:33Z</time>
      </trkpt>
      <trkpt lat="42.80609" lon="1.74471">
        <ele>1533.453</ele>
        <time>2021-03-23T09:11:35Z</time>
      </trkpt>
      <trkpt lat="42.8061" lon="1.74472">
        <ele>1533.156</ele>
        <time>2021-03-23T09:11:37Z</time>
      </trkpt>
      <trkpt lat="42.80612" lon="1.74473">
        <ele>1532.992</ele>
        <time>2021-03-23T09:11:39Z</time>
      </trkpt>
      <trkpt lat="42.80613" lon="1.74474">
        <ele>1532.944</ele>
        <time>2021-03-23T09:11:41Z</time>
      </trkpt>
      <trkpt lat="42.80615" lon="1.74475">
        <ele>1533.783</ele>
        <time>2021-03-23T09:11:43Z</time>
      </trkpt>
      <trkpt lat="42.80616" lon="1.74476">
        <ele>1534.093</ele>
        <time>2021-03-23T09:11:45Z</time>
      </trkpt>
      <trkpt lat="42.80618" lon="1.74477">
        <ele>1534.376</ele>
        <time>2021-03-23T09:11:47Z</time>
      </trkpt>
      <trkpt lat="42.80619" lon="1.74477">
        <ele>1534.99</ele>
        <time>2021-03-23T09:11:49Z</time>
      </trkpt>
      <trkpt lat="42.80621" lon="1.74478">
        <ele>1535.026</ele>
        <time>2021-03-23T09:11:51Z</time>
      </trkpt>
      <trkpt lat="42.80622" lon="1.74477">
        <ele>1536.251</ele>
        <time>2021-03-23T09:11:53Z</time>
      </trkpt>
      <trkpt lat="42.80623" lon="1.74477">
        <ele>1536.921</ele>
        <time>2021-03-23T09:11:55Z</time>
      </trkpt>
      <trkpt lat="42.80624" lon="1.74478">
        <ele>1537.485</ele>
        <time>2021-03-23T09:11:57Z</time>
      </trkpt>
      <trkpt lat="42.80625" lon="1.7448">
        <ele>1537.746</ele>
        <time>2021-03-23T09:11:59Z</time>
      </trkpt>
      <trkpt lat="42.80627" lon="1.74481">
        <ele>1536.977</ele>
        <time>2021-03-23T09:12:01Z</time>
      </trkpt>
      <trkpt lat="42.80628" lon="1.74482">
        <ele>1538.043</ele>
        <time>2021-03-23T09:12:03Z</time>
      </trkpt>
      <trkpt lat="42.8063" lon="1.74482">
        <ele>1538.194</ele>
        <time>2021-03-23T09:12:05Z</time>
      </trkpt>
      <trkpt lat="42.80631" lon="1.74482">
        <ele>1538.68</ele>
        <time>2021-03-23T09:12:07Z</time>
      </trkpt>
      <trkpt lat="42.80633" lon="1.74482">
        <ele>1540.5</ele>
        <time>2021-03-23T09:12:09Z</time>
      </trkpt>
      <trkpt lat="42.80635" lon="1.74483">
        <ele>1541.805</ele>
        <time>2021-03-23T09:12:11Z</time>
      </trkpt>
      <trkpt lat="42.80637" lon="1.74482">
        <ele>1542.828</ele>
        <time>2021-03-23T09:12:13Z</time>
      </trkpt>
      <trkpt lat="42.80638" lon="1.74482">
        <ele>1543.493</ele>
        <time>2021-03-23T09:12:15Z</time>
      </trkpt>
      <trkpt lat="42.80639" lon="1.74483">
        <ele>1544.525</ele>
        <time>2021-03-23T09:12:17Z</time>
      </trkpt>
      <trkpt lat="42.80639" lon="1.74483">
        <ele>1546.462</ele>
        <time>2021-03-23T09:12:19Z</time>
      </trkpt>
      <trkpt lat="42.80639" lon="1.74483">
        <ele>1546.952</ele>
        <time>2021-03-23T09:12:21Z</time>
      </trkpt>
      <trkpt lat="42.80639" lon="1.74482">
        <ele>1548.112</ele>
        <time>2021-03-23T09:12:23Z</time>
      </trkpt>
      <trkpt lat="42.80639" lon="1.74482">
        <ele>1548.55</ele>
        <time>2021-03-23T09:12:25Z</time>
      </trkpt>
      <trkpt lat="42.8064" lon="1.74482">
        <ele>1550.291</ele>
        <time>2021-03-23T09:12:27Z</time>
      </trkpt>
      <trkpt lat="42.8064" lon="1.74481">
        <ele>1549.759</ele>
        <time>2021-03-23T09:12:29Z</time>
      </trkpt>
      <trkpt lat="42.80641" lon="1.74482">
        <ele>1549.828</ele>
        <time>2021-03-23T09:12:31Z</time>
      </trkpt>
      <trkpt lat="42.80641" lon="1.7448">
        <ele>1549.186</ele>
        <time>2021-03-23T09:12:33Z</time>
      </trkpt>
      <trkpt lat="42.80641" lon="1.74478">
        <ele>1548.218</ele>
        <time>2021-03-23T09:12:35Z</time>
      </trkpt>
      <trkpt lat="42.80642" lon="1.74477">
        <ele>1547.576</ele>
        <time>2021-03-23T09:12:37Z</time>
      </trkpt>
      <trkpt lat="42.80643" lon="1.74475">
        <ele>1547.588</ele>
        <time>2021-03-23T09:12:39Z</time>
      </trkpt>
      <trkpt lat="42.80644" lon="1.74473">
        <ele>1548.195</ele>
        <time>2021-03-23T09:12:41Z</time>
      </trkpt>
      <trkpt lat="42.80644" lon="1.74471">
        <ele>1548.475</ele>
        <time>2021-03-23T09:12:43Z</time>
      </trkpt>
      <trkpt lat="42.80644" lon="1.74469">
        <ele>1548.179</ele>
        <time>2021-03-23T09:12:45Z</time>
      </trkpt>
      <trkpt lat="42.80644" lon="1.74467">
        <ele>1548.477</ele>
        <time>2021-03-23T09:12:47Z</time>
      </trkpt>
      <trkpt lat="42.80644" lon="1.74466">
        <ele>1549.339</ele>
        <time>2021-03-23T09:12:49Z</time>
      </trkpt>
      <trkpt lat="42.80645" lon="1.74464">
        <ele>1549.406</ele>
        <time>2021-03-23T09:12:51Z</time>
      </trkpt>
      <trkpt lat="42.80645" lon="1.74463">
        <ele>1549.715</ele>
        <time>2021-03-23T09:12:53Z</time>
      </trkpt>
      <trkpt lat="42.80645" lon="1.74462">
        <ele>1551.365</ele>
        <time>2021-03-23T09:12:55Z</time>
      </trkpt>
      <trkpt lat="42.80646" lon="1.7446">
        <ele>1551.416</ele>
        <time>2021-03-23T09:12:57Z</time>
      </trkpt>
      <trkpt lat="42.80647" lon="1.74458">
        <ele>1551.888</ele>
        <time>2021-03-23T09:12:59Z</time>
      </trkpt>
      <trkpt lat="42.80648" lon="1.74457">
        <ele>1552.557</ele>
        <time>2021-03-23T09:13:01Z</time>
      </trkpt>
      <trkpt lat="42.80649" lon="1.74456">
        <ele>1553.557</ele>
        <time>2021-03-23T09:13:03Z</time>
      </trkpt>
      <trkpt lat="42.80649" lon="1.74455">
        <ele>1554.275</ele>
        <time>2021-03-23T09:13:04Z</time>
      </trkpt>
      <trkpt lat="42.8065" lon="1.74452">
        <ele>1555.128</ele>
        <time>2021-03-23T09:13:07Z</time>
      </trkpt>
      <trkpt lat="42.8065" lon="1.74451">
        <ele>1554.408</ele>
        <time>2021-03-23T09:13:09Z</time>
      </trkpt>
      <trkpt lat="42.80649" lon="1.74449">
        <ele>1554.502</ele>
        <time>2021-03-23T09:13:11Z</time>
      </trkpt>
      <trkpt lat="42.80648" lon="1.74448">
        <ele>1554.778</ele>
        <time>2021-03-23T09:13:13Z</time>
      </trkpt>
      <trkpt lat="42.80647" lon="1.74447">
        <ele>1554.283</ele>
        <time>2021-03-23T09:13:15Z</time>
      </trkpt>
      <trkpt lat="42.80646" lon="1.74445">
        <ele>1553.806</ele>
        <time>2021-03-23T09:13:17Z</time>
      </trkpt>
      <trkpt lat="42.80645" lon="1.74445">
        <ele>1553.969</ele>
        <time>2021-03-23T09:13:19Z</time>
      </trkpt>
      <trkpt lat="42.80643" lon="1.74444">
        <ele>1554.631</ele>
        <time>2021-03-23T09:13:21Z</time>
      </trkpt>
      <trkpt lat="42.80642" lon="1.74443">
        <ele>1554.9</ele>
        <time>2021-03-23T09:13:23Z</time>
      </trkpt>
      <trkpt lat="42.80641" lon="1.74442">
        <ele>1555.131</ele>
        <time>2021-03-23T09:13:25Z</time>
      </trkpt>
      <trkpt lat="42.8064" lon="1.74441">
        <ele>1555.049</ele>
        <time>2021-03-23T09:13:27Z</time>
      </trkpt>
      <trkpt lat="42.8064" lon="1.74439">
        <ele>1555.195</ele>
        <time>2021-03-23T09:13:29Z</time>
      </trkpt>
      <trkpt lat="42.80639" lon="1.74438">
        <ele>1556.08</ele>
        <time>2021-03-23T09:13:31Z</time>
      </trkpt>
      <trkpt lat="42.80638" lon="1.74437">
        <ele>1554.959</ele>
        <time>2021-03-23T09:13:33Z</time>
      </trkpt>
      <trkpt lat="42.80638" lon="1.74435">
        <ele>1555.53</ele>
        <time>2021-03-23T09:13:35Z</time>
      </trkpt>
      <trkpt lat="42.80638" lon="1.74434">
        <ele>1556.554</ele>
        <time>2021-03-23T09:13:37Z</time>
      </trkpt>
      <trkpt lat="42.80638" lon="1.74433">
        <ele>1557.109</ele>
        <time>2021-03-23T09:13:39Z</time>
      </trkpt>
      <trkpt lat="42.80637" lon="1.74431">
        <ele>1557.623</ele>
        <time>2021-03-23T09:13:41Z</time>
      </trkpt>
      <trkpt lat="42.80637" lon="1.7443">
        <ele>1557.987</ele>
        <time>2021-03-23T09:13:43Z</time>
      </trkpt>
      <trkpt lat="42.80637" lon="1.74428">
        <ele>1558.716</ele>
        <time>2021-03-23T09:13:45Z</time>
      </trkpt>
      <trkpt lat="42.80637" lon="1.74426">
        <ele>1559.282</ele>
        <time>2021-03-23T09:13:47Z</time>
      </trkpt>
      <trkpt lat="42.80637" lon="1.74425">
        <ele>1559.61</ele>
        <time>2021-03-23T09:13:49Z</time>
      </trkpt>
      <trkpt lat="42.80636" lon="1.74423">
        <ele>1560.177</ele>
        <time>2021-03-23T09:13:51Z</time>
      </trkpt>
      <trkpt lat="42.80636" lon="1.74422">
        <ele>1560.644</ele>
        <time>2021-03-23T09:13:53Z</time>
      </trkpt>
      <trkpt lat="42.80635" lon="1.7442">
        <ele>1560.926</ele>
        <time>2021-03-23T09:13:55Z</time>
      </trkpt>
      <trkpt lat="42.80635" lon="1.74418">
        <ele>1561.585</ele>
        <time>2021-03-23T09:13:57Z</time>
      </trkpt>
      <trkpt lat="42.80635" lon="1.74417">
        <ele>1561.864</ele>
        <time>2021-03-23T09:13:59Z</time>
      </trkpt>
      <trkpt lat="42.80634" lon="1.74416">
        <ele>1561.963</ele>
        <time>2021-03-23T09:14:01Z</time>
      </trkpt>
      <trkpt lat="42.80634" lon="1.74414">
        <ele>1562.609</ele>
        <time>2021-03-23T09:14:03Z</time>
      </trkpt>
      <trkpt lat="42.80634" lon="1.74413">
        <ele>1562.943</ele>
        <time>2021-03-23T09:14:05Z</time>
      </trkpt>
      <trkpt lat="42.80634" lon="1.74412">
        <ele>1562.592</ele>
        <time>2021-03-23T09:14:07Z</time>
      </trkpt>
      <trkpt lat="42.80634" lon="1.7441">
        <ele>1563.293</ele>
        <time>2021-03-23T09:14:09Z</time>
      </trkpt>
      <trkpt lat="42.80633" lon="1.74409">
        <ele>1563.837</ele>
        <time>2021-03-23T09:14:11Z</time>
      </trkpt>
      <trkpt lat="42.80633" lon="1.74409">
        <ele>1563.915</ele>
        <time>2021-03-23T09:14:13Z</time>
      </trkpt>
      <trkpt lat="42.80633" lon="1.74407">
        <ele>1563.817</ele>
        <time>2021-03-23T09:14:15Z</time>
      </trkpt>
      <trkpt lat="42.80634" lon="1.74406">
        <ele>1564.505</ele>
        <time>2021-03-23T09:14:17Z</time>
      </trkpt>
      <trkpt lat="42.80634" lon="1.74405">
        <ele>1564.284</ele>
        <time>2021-03-23T09:14:19Z</time>
      </trkpt>
      <trkpt lat="42.80634" lon="1.74403">
        <ele>1564.464</ele>
        <time>2021-03-23T09:14:21Z</time>
      </trkpt>
      <trkpt lat="42.80634" lon="1.74402">
        <ele>1564.872</ele>
        <time>2021-03-23T09:14:23Z</time>
      </trkpt>
      <trkpt lat="42.80634" lon="1.74401">
        <ele>1564.98</ele>
        <time>2021-03-23T09:14:25Z</time>
      </trkpt>
      <trkpt lat="42.80634" lon="1.74401">
        <ele>1565.009</ele>
        <time>2021-03-23T09:14:27Z</time>
      </trkpt>
      <trkpt lat="42.80634" lon="1.74399">
        <ele>1566.305</ele>
        <time>2021-03-23T09:14:29Z</time>
      </trkpt>
      <trkpt lat="42.80634" lon="1.74398">
        <ele>1566.331</ele>
        <time>2021-03-23T09:14:31Z</time>
      </trkpt>
      <trkpt lat="42.80634" lon="1.74397">
        <ele>1567.082</ele>
        <time>2021-03-23T09:14:33Z</time>
      </trkpt>
      <trkpt lat="42.80633" lon="1.74396">
        <ele>1566.756</ele>
        <time>2021-03-23T09:14:35Z</time>
      </trkpt>
      <trkpt lat="42.80633" lon="1.74395">
        <ele>1567.635</ele>
        <time>2021-03-23T09:14:37Z</time>
      </trkpt>
      <trkpt lat="42.80632" lon="1.74394">
        <ele>1568.243</ele>
        <time>2021-03-23T09:14:39Z</time>
      </trkpt>
      <trkpt lat="42.80632" lon="1.74393">
        <ele>1568.921</ele>
        <time>2021-03-23T09:14:41Z</time>
      </trkpt>
      <trkpt lat="42.80632" lon="1.74392">
        <ele>1569.288</ele>
        <time>2021-03-23T09:14:43Z</time>
      </trkpt>
      <trkpt lat="42.80632" lon="1.74391">
        <ele>1569.159</ele>
        <time>2021-03-23T09:14:45Z</time>
      </trkpt>
      <trkpt lat="42.80632" lon="1.7439">
        <ele>1569.465</ele>
        <time>2021-03-23T09:14:47Z</time>
      </trkpt>
      <trkpt lat="42.80632" lon="1.74389">
        <ele>1569.285</ele>
        <time>2021-03-23T09:14:49Z</time>
      </trkpt>
      <trkpt lat="42.80632" lon="1.74388">
        <ele>1568.986</ele>
        <time>2021-03-23T09:14:51Z</time>
      </trkpt>
      <trkpt lat="42.80633" lon="1.74387">
        <ele>1569.201</ele>
        <time>2021-03-23T09:14:53Z</time>
      </trkpt>
      <trkpt lat="42.80633" lon="1.74385">
        <ele>1569.505</ele>
        <time>2021-03-23T09:14:55Z</time>
      </trkpt>
      <trkpt lat="42.80633" lon="1.74384">
        <ele>1569.958</ele>
        <time>2021-03-23T09:14:57Z</time>
      </trkpt>
      <trkpt lat="42.80632" lon="1.74383">
        <ele>1570.162</ele>
        <time>2021-03-23T09:14:59Z</time>
      </trkpt>
      <trkpt lat="42.80632" lon="1.74383">
        <ele>1570.115</ele>
        <time>2021-03-23T09:15:01Z</time>
      </trkpt>
      <trkpt lat="42.80632" lon="1.74382">
        <ele>1569.841</ele>
        <time>2021-03-23T09:15:03Z</time>
      </trkpt>
      <trkpt lat="42.80632" lon="1.74382">
        <ele>1569.841</ele>
        <time>2021-03-23T09:15:05Z</time>
      </trkpt>
      <trkpt lat="42.80632" lon="1.74382">
        <ele>1569.827</ele>
        <time>2021-03-23T09:15:07Z</time>
      </trkpt>
      <trkpt lat="42.80631" lon="1.74381">
        <ele>1570.219</ele>
        <time>2021-03-23T09:15:09Z</time>
      </trkpt>
      <trkpt lat="42.80631" lon="1.7438">
        <ele>1570.33</ele>
        <time>2021-03-23T09:15:11Z</time>
      </trkpt>
      <trkpt lat="42.80631" lon="1.74379">
        <ele>1571.212</ele>
        <time>2021-03-23T09:15:13Z</time>
      </trkpt>
      <trkpt lat="42.80631" lon="1.74378">
        <ele>1571.699</ele>
        <time>2021-03-23T09:15:15Z</time>
      </trkpt>
      <trkpt lat="42.80632" lon="1.74376">
        <ele>1572.215</ele>
        <time>2021-03-23T09:15:17Z</time>
      </trkpt>
      <trkpt lat="42.80632" lon="1.74375">
        <ele>1573.557</ele>
        <time>2021-03-23T09:15:19Z</time>
      </trkpt>
      <trkpt lat="42.80632" lon="1.74374">
        <ele>1573.291</ele>
        <time>2021-03-23T09:15:21Z</time>
      </trkpt>
      <trkpt lat="42.80632" lon="1.74373">
        <ele>1573.166</ele>
        <time>2021-03-23T09:15:23Z</time>
      </trkpt>
      <trkpt lat="42.80631" lon="1.74373">
        <ele>1573.225</ele>
        <time>2021-03-23T09:15:25Z</time>
      </trkpt>
      <trkpt lat="42.80631" lon="1.74372">
        <ele>1573.052</ele>
        <time>2021-03-23T09:15:27Z</time>
      </trkpt>
      <trkpt lat="42.8063" lon="1.74371">
        <ele>1573.955</ele>
        <time>2021-03-23T09:15:29Z</time>
      </trkpt>
      <trkpt lat="42.8063" lon="1.74369">
        <ele>1574.689</ele>
        <time>2021-03-23T09:15:31Z</time>
      </trkpt>
      <trkpt lat="42.8063" lon="1.74368">
        <ele>1574.617</ele>
        <time>2021-03-23T09:15:33Z</time>
      </trkpt>
      <trkpt lat="42.8063" lon="1.74367">
        <ele>1574.46</ele>
        <time>2021-03-23T09:15:35Z</time>
      </trkpt>
      <trkpt lat="42.8063" lon="1.74365">
        <ele>1575.385</ele>
        <time>2021-03-23T09:15:37Z</time>
      </trkpt>
      <trkpt lat="42.8063" lon="1.74364">
        <ele>1575.394</ele>
        <time>2021-03-23T09:15:39Z</time>
      </trkpt>
      <trkpt lat="42.80629" lon="1.74363">
        <ele>1576.903</ele>
        <time>2021-03-23T09:15:41Z</time>
      </trkpt>
      <trkpt lat="42.80629" lon="1.74362">
        <ele>1577.025</ele>
        <time>2021-03-23T09:15:43Z</time>
      </trkpt>
      <trkpt lat="42.80628" lon="1.74361">
        <ele>1577.356</ele>
        <time>2021-03-23T09:15:45Z</time>
      </trkpt>
      <trkpt lat="42.80628" lon="1.7436">
        <ele>1577.811</ele>
        <time>2021-03-23T09:15:47Z</time>
      </trkpt>
      <trkpt lat="42.80628" lon="1.74359">
        <ele>1578.257</ele>
        <time>2021-03-23T09:15:49Z</time>
      </trkpt>
      <trkpt lat="42.80628" lon="1.74358">
        <ele>1579.104</ele>
        <time>2021-03-23T09:15:51Z</time>
      </trkpt>
      <trkpt lat="42.80628" lon="1.74356">
        <ele>1579.538</ele>
        <time>2021-03-23T09:15:53Z</time>
      </trkpt>
      <trkpt lat="42.80628" lon="1.74355">
        <ele>1580.06</ele>
        <time>2021-03-23T09:15:55Z</time>
      </trkpt>
      <trkpt lat="42.80628" lon="1.74354">
        <ele>1579.874</ele>
        <time>2021-03-23T09:15:57Z</time>
      </trkpt>
      <trkpt lat="42.80627" lon="1.74353">
        <ele>1579.988</ele>
        <time>2021-03-23T09:15:59Z</time>
      </trkpt>
      <trkpt lat="42.80626" lon="1.74353">
        <ele>1580.223</ele>
        <time>2021-03-23T09:16:01Z</time>
      </trkpt>
      <trkpt lat="42.80626" lon="1.74352">
        <ele>1580.085</ele>
        <time>2021-03-23T09:16:03Z</time>
      </trkpt>
      <trkpt lat="42.80626" lon="1.74351">
        <ele>1580.86</ele>
        <time>2021-03-23T09:16:05Z</time>
      </trkpt>
      <trkpt lat="42.80626" lon="1.7435">
        <ele>1581.052</ele>
        <time>2021-03-23T09:16:07Z</time>
      </trkpt>
      <trkpt lat="42.80627" lon="1.74349">
        <ele>1581.531</ele>
        <time>2021-03-23T09:16:09Z</time>
      </trkpt>
      <trkpt lat="42.80628" lon="1.74348">
        <ele>1582.124</ele>
        <time>2021-03-23T09:16:11Z</time>
      </trkpt>
      <trkpt lat="42.80628" lon="1.74347">
        <ele>1582.551</ele>
        <time>2021-03-23T09:16:13Z</time>
      </trkpt>
      <trkpt lat="42.80629" lon="1.74346">
        <ele>1583.401</ele>
        <time>2021-03-23T09:16:15Z</time>
      </trkpt>
      <trkpt lat="42.8063" lon="1.74345">
        <ele>1584.473</ele>
        <time>2021-03-23T09:16:17Z</time>
      </trkpt>
      <trkpt lat="42.80631" lon="1.74344">
        <ele>1584.847</ele>
        <time>2021-03-23T09:16:19Z</time>
      </trkpt>
      <trkpt lat="42.80632" lon="1.74344">
        <ele>1584.842</ele>
        <time>2021-03-23T09:16:21Z</time>
      </trkpt>
      <trkpt lat="42.80633" lon="1.74344">
        <ele>1585.524</ele>
        <time>2021-03-23T09:16:23Z</time>
      </trkpt>
      <trkpt lat="42.80634" lon="1.74343">
        <ele>1586.539</ele>
        <time>2021-03-23T09:16:25Z</time>
      </trkpt>
      <trkpt lat="42.80634" lon="1.74342">
        <ele>1587.161</ele>
        <time>2021-03-23T09:16:27Z</time>
      </trkpt>
      <trkpt lat="42.80635" lon="1.74341">
        <ele>1587.495</ele>
        <time>2021-03-23T09:16:29Z</time>
      </trkpt>
      <trkpt lat="42.80635" lon="1.74341">
        <ele>1588.714</ele>
        <time>2021-03-23T09:16:31Z</time>
      </trkpt>
      <trkpt lat="42.80635" lon="1.74341">
        <ele>1588.755</ele>
        <time>2021-03-23T09:16:33Z</time>
      </trkpt>
      <trkpt lat="42.80636" lon="1.7434">
        <ele>1589.308</ele>
        <time>2021-03-23T09:16:35Z</time>
      </trkpt>
      <trkpt lat="42.80636" lon="1.7434">
        <ele>1589.364</ele>
        <time>2021-03-23T09:16:37Z</time>
      </trkpt>
      <trkpt lat="42.80637" lon="1.74339">
        <ele>1589.937</ele>
        <time>2021-03-23T09:16:39Z</time>
      </trkpt>
      <trkpt lat="42.80637" lon="1.74338">
        <ele>1589.785</ele>
        <time>2021-03-23T09:16:41Z</time>
      </trkpt>
      <trkpt lat="42.80638" lon="1.74338">
        <ele>1589.791</ele>
        <time>2021-03-23T09:16:43Z</time>
      </trkpt>
      <trkpt lat="42.80638" lon="1.74337">
        <ele>1589</ele>
        <time>2021-03-23T09:16:45Z</time>
      </trkpt>
      <trkpt lat="42.80639" lon="1.74336">
        <ele>1588.796</ele>
        <time>2021-03-23T09:16:47Z</time>
      </trkpt>
      <trkpt lat="42.80638" lon="1.74335">
        <ele>1588.664</ele>
        <time>2021-03-23T09:16:49Z</time>
      </trkpt>
      <trkpt lat="42.80638" lon="1.74334">
        <ele>1588.66</ele>
        <time>2021-03-23T09:16:51Z</time>
      </trkpt>
      <trkpt lat="42.80638" lon="1.74334">
        <ele>1588.668</ele>
        <time>2021-03-23T09:16:53Z</time>
      </trkpt>
      <trkpt lat="42.80638" lon="1.74334">
        <ele>1588.672</ele>
        <time>2021-03-23T09:16:55Z</time>
      </trkpt>
      <trkpt lat="42.80638" lon="1.74334">
        <ele>1588.658</ele>
        <time>2021-03-23T09:16:57Z</time>
      </trkpt>
      <trkpt lat="42.80638" lon="1.74334">
        <ele>1588.653</ele>
        <time>2021-03-23T09:16:59Z</time>
      </trkpt>
      <trkpt lat="42.80638" lon="1.74334">
        <ele>1588.656</ele>
        <time>2021-03-23T09:17:01Z</time>
      </trkpt>
      <trkpt lat="42.80638" lon="1.74334">
        <ele>1588.658</ele>
        <time>2021-03-23T09:17:03Z</time>
      </trkpt>
      <trkpt lat="42.80638" lon="1.74334">
        <ele>1588.66</ele>
        <time>2021-03-23T09:17:05Z</time>
      </trkpt>
      <trkpt lat="42.80638" lon="1.74334">
        <ele>1588.664</ele>
        <time>2021-03-23T09:17:07Z</time>
      </trkpt>
      <trkpt lat="42.80638" lon="1.74334">
        <ele>1588.668</ele>
        <time>2021-03-23T09:17:09Z</time>
      </trkpt>
      <trkpt lat="42.80638" lon="1.74334">
        <ele>1588.671</ele>
        <time>2021-03-23T09:17:11Z</time>
      </trkpt>
      <trkpt lat="42.80638" lon="1.74334">
        <ele>1588.679</ele>
        <time>2021-03-23T09:17:13Z</time>
      </trkpt>
      <trkpt lat="42.80638" lon="1.74333">
        <ele>1588.951</ele>
        <time>2021-03-23T09:17:15Z</time>
      </trkpt>
      <trkpt lat="42.80638" lon="1.74332">
        <ele>1588.785</ele>
        <time>2021-03-23T09:17:17Z</time>
      </trkpt>
      <trkpt lat="42.80638" lon="1.74331">
        <ele>1588.529</ele>
        <time>2021-03-23T09:17:19Z</time>
      </trkpt>
      <trkpt lat="42.80638" lon="1.74329">
        <ele>1588.759</ele>
        <time>2021-03-23T09:17:21Z</time>
      </trkpt>
      <trkpt lat="42.80638" lon="1.74329">
        <ele>1589.456</ele>
        <time>2021-03-23T09:17:23Z</time>
      </trkpt>
      <trkpt lat="42.80639" lon="1.74327">
        <ele>1590.08</ele>
        <time>2021-03-23T09:17:25Z</time>
      </trkpt>
      <trkpt lat="42.8064" lon="1.74326">
        <ele>1590.952</ele>
        <time>2021-03-23T09:17:27Z</time>
      </trkpt>
      <trkpt lat="42.8064" lon="1.74325">
        <ele>1591.509</ele>
        <time>2021-03-23T09:17:29Z</time>
      </trkpt>
      <trkpt lat="42.80641" lon="1.74324">
        <ele>1592.174</ele>
        <time>2021-03-23T09:17:31Z</time>
      </trkpt>
      <trkpt lat="42.80642" lon="1.74323">
        <ele>1592.437</ele>
        <time>2021-03-23T09:17:33Z</time>
      </trkpt>
      <trkpt lat="42.80642" lon="1.74321">
        <ele>1592.583</ele>
        <time>2021-03-23T09:17:35Z</time>
      </trkpt>
      <trkpt lat="42.80643" lon="1.7432">
        <ele>1593.13</ele>
        <time>2021-03-23T09:17:37Z</time>
      </trkpt>
      <trkpt lat="42.80644" lon="1.74318">
        <ele>1593.408</ele>
        <time>2021-03-23T09:17:39Z</time>
      </trkpt>
      <trkpt lat="42.80645" lon="1.74317">
        <ele>1593.237</ele>
        <time>2021-03-23T09:17:41Z</time>
      </trkpt>
      <trkpt lat="42.80646" lon="1.74316">
        <ele>1593.628</ele>
        <time>2021-03-23T09:17:43Z</time>
      </trkpt>
      <trkpt lat="42.80647" lon="1.74314">
        <ele>1594.121</ele>
        <time>2021-03-23T09:17:45Z</time>
      </trkpt>
      <trkpt lat="42.80648" lon="1.74313">
        <ele>1595.344</ele>
        <time>2021-03-23T09:17:47Z</time>
      </trkpt>
      <trkpt lat="42.80649" lon="1.74312">
        <ele>1595.082</ele>
        <time>2021-03-23T09:17:49Z</time>
      </trkpt>
      <trkpt lat="42.8065" lon="1.74311">
        <ele>1595.685</ele>
        <time>2021-03-23T09:17:51Z</time>
      </trkpt>
      <trkpt lat="42.80652" lon="1.74311">
        <ele>1596.204</ele>
        <time>2021-03-23T09:17:53Z</time>
      </trkpt>
      <trkpt lat="42.80653" lon="1.74311">
        <ele>1596.172</ele>
        <time>2021-03-23T09:17:55Z</time>
      </trkpt>
      <trkpt lat="42.80655" lon="1.7431">
        <ele>1597.013</ele>
        <time>2021-03-23T09:17:57Z</time>
      </trkpt>
      <trkpt lat="42.80656" lon="1.7431">
        <ele>1597.656</ele>
        <time>2021-03-23T09:17:59Z</time>
      </trkpt>
      <trkpt lat="42.80657" lon="1.74309">
        <ele>1598.375</ele>
        <time>2021-03-23T09:18:01Z</time>
      </trkpt>
      <trkpt lat="42.80657" lon="1.74308">
        <ele>1598.605</ele>
        <time>2021-03-23T09:18:03Z</time>
      </trkpt>
      <trkpt lat="42.80657" lon="1.74307">
        <ele>1598.755</ele>
        <time>2021-03-23T09:18:05Z</time>
      </trkpt>
      <trkpt lat="42.80657" lon="1.74306">
        <ele>1599.473</ele>
        <time>2021-03-23T09:18:07Z</time>
      </trkpt>
      <trkpt lat="42.80658" lon="1.74305">
        <ele>1599.231</ele>
        <time>2021-03-23T09:18:09Z</time>
      </trkpt>
      <trkpt lat="42.80659" lon="1.74304">
        <ele>1599.772</ele>
        <time>2021-03-23T09:18:11Z</time>
      </trkpt>
      <trkpt lat="42.80659" lon="1.74303">
        <ele>1600.688</ele>
        <time>2021-03-23T09:18:13Z</time>
      </trkpt>
      <trkpt lat="42.8066" lon="1.74302">
        <ele>1601.28</ele>
        <time>2021-03-23T09:18:15Z</time>
      </trkpt>
      <trkpt lat="42.80661" lon="1.74301">
        <ele>1602.027</ele>
        <time>2021-03-23T09:18:17Z</time>
      </trkpt>
      <trkpt lat="42.80662" lon="1.743">
        <ele>1602.26</ele>
        <time>2021-03-23T09:18:19Z</time>
      </trkpt>
      <trkpt lat="42.80663" lon="1.74299">
        <ele>1601.166</ele>
        <time>2021-03-23T09:18:21Z</time>
      </trkpt>
      <trkpt lat="42.80664" lon="1.74299">
        <ele>1602.098</ele>
        <time>2021-03-23T09:18:23Z</time>
      </trkpt>
      <trkpt lat="42.80665" lon="1.74298">
        <ele>1602.219</ele>
        <time>2021-03-23T09:18:25Z</time>
      </trkpt>
      <trkpt lat="42.80666" lon="1.74297">
        <ele>1602.338</ele>
        <time>2021-03-23T09:18:27Z</time>
      </trkpt>
      <trkpt lat="42.80666" lon="1.74296">
        <ele>1603.562</ele>
        <time>2021-03-23T09:18:29Z</time>
      </trkpt>
      <trkpt lat="42.80667" lon="1.74295">
        <ele>1603.858</ele>
        <time>2021-03-23T09:18:31Z</time>
      </trkpt>
      <trkpt lat="42.80667" lon="1.74294">
        <ele>1604.039</ele>
        <time>2021-03-23T09:18:33Z</time>
      </trkpt>
      <trkpt lat="42.80668" lon="1.74293">
        <ele>1604.808</ele>
        <time>2021-03-23T09:18:35Z</time>
      </trkpt>
      <trkpt lat="42.80669" lon="1.74292">
        <ele>1605.639</ele>
        <time>2021-03-23T09:18:37Z</time>
      </trkpt>
      <trkpt lat="42.8067" lon="1.74291">
        <ele>1605.733</ele>
        <time>2021-03-23T09:18:39Z</time>
      </trkpt>
      <trkpt lat="42.80671" lon="1.7429">
        <ele>1606.006</ele>
        <time>2021-03-23T09:18:41Z</time>
      </trkpt>
      <trkpt lat="42.80672" lon="1.74289">
        <ele>1606.64</ele>
        <time>2021-03-23T09:18:43Z</time>
      </trkpt>
      <trkpt lat="42.80673" lon="1.74288">
        <ele>1607.042</ele>
        <time>2021-03-23T09:18:45Z</time>
      </trkpt>
      <trkpt lat="42.80674" lon="1.74288">
        <ele>1607.503</ele>
        <time>2021-03-23T09:18:47Z</time>
      </trkpt>
      <trkpt lat="42.80676" lon="1.74288">
        <ele>1608.189</ele>
        <time>2021-03-23T09:18:49Z</time>
      </trkpt>
      <trkpt lat="42.80677" lon="1.74287">
        <ele>1607.975</ele>
        <time>2021-03-23T09:18:51Z</time>
      </trkpt>
      <trkpt lat="42.80678" lon="1.74287">
        <ele>1608.455</ele>
        <time>2021-03-23T09:18:53Z</time>
      </trkpt>
      <trkpt lat="42.80678" lon="1.74286">
        <ele>1608.676</ele>
        <time>2021-03-23T09:18:55Z</time>
      </trkpt>
      <trkpt lat="42.80679" lon="1.74285">
        <ele>1608.947</ele>
        <time>2021-03-23T09:18:57Z</time>
      </trkpt>
      <trkpt lat="42.80679" lon="1.74285">
        <ele>1609.371</ele>
        <time>2021-03-23T09:18:59Z</time>
      </trkpt>
      <trkpt lat="42.8068" lon="1.74284">
        <ele>1609.378</ele>
        <time>2021-03-23T09:19:01Z</time>
      </trkpt>
      <trkpt lat="42.80681" lon="1.74283">
        <ele>1610.217</ele>
        <time>2021-03-23T09:19:03Z</time>
      </trkpt>
      <trkpt lat="42.80682" lon="1.74283">
        <ele>1611.505</ele>
        <time>2021-03-23T09:19:05Z</time>
      </trkpt>
      <trkpt lat="42.80683" lon="1.74282">
        <ele>1611.954</ele>
        <time>2021-03-23T09:19:07Z</time>
      </trkpt>
      <trkpt lat="42.80684" lon="1.74282">
        <ele>1612.157</ele>
        <time>2021-03-23T09:19:09Z</time>
      </trkpt>
      <trkpt lat="42.80685" lon="1.74281">
        <ele>1612.874</ele>
        <time>2021-03-23T09:19:11Z</time>
      </trkpt>
      <trkpt lat="42.80685" lon="1.7428">
        <ele>1612.912</ele>
        <time>2021-03-23T09:19:13Z</time>
      </trkpt>
      <trkpt lat="42.80687" lon="1.7428">
        <ele>1613.17</ele>
        <time>2021-03-23T09:19:15Z</time>
      </trkpt>
      <trkpt lat="42.80687" lon="1.74279">
        <ele>1613.455</ele>
        <time>2021-03-23T09:19:17Z</time>
      </trkpt>
      <trkpt lat="42.80688" lon="1.74278">
        <ele>1612.603</ele>
        <time>2021-03-23T09:19:19Z</time>
      </trkpt>
      <trkpt lat="42.80689" lon="1.74277">
        <ele>1612.867</ele>
        <time>2021-03-23T09:19:21Z</time>
      </trkpt>
      <trkpt lat="42.80691" lon="1.74277">
        <ele>1612.914</ele>
        <time>2021-03-23T09:19:23Z</time>
      </trkpt>
      <trkpt lat="42.80691" lon="1.74276">
        <ele>1612.956</ele>
        <time>2021-03-23T09:19:25Z</time>
      </trkpt>
      <trkpt lat="42.80691" lon="1.74274">
        <ele>1612.215</ele>
        <time>2021-03-23T09:19:27Z</time>
      </trkpt>
      <trkpt lat="42.80692" lon="1.74273">
        <ele>1612.304</ele>
        <time>2021-03-23T09:19:29Z</time>
      </trkpt>
      <trkpt lat="42.80692" lon="1.74272">
        <ele>1612.831</ele>
        <time>2021-03-23T09:19:31Z</time>
      </trkpt>
      <trkpt lat="42.80694" lon="1.74271">
        <ele>1613.298</ele>
        <time>2021-03-23T09:19:33Z</time>
      </trkpt>
      <trkpt lat="42.80694" lon="1.7427">
        <ele>1613.747</ele>
        <time>2021-03-23T09:19:35Z</time>
      </trkpt>
      <trkpt lat="42.80695" lon="1.74269">
        <ele>1614.527</ele>
        <time>2021-03-23T09:19:37Z</time>
      </trkpt>
      <trkpt lat="42.80696" lon="1.74268">
        <ele>1615.355</ele>
        <time>2021-03-23T09:19:39Z</time>
      </trkpt>
      <trkpt lat="42.80697" lon="1.74267">
        <ele>1616.112</ele>
        <time>2021-03-23T09:19:41Z</time>
      </trkpt>
      <trkpt lat="42.80698" lon="1.74266">
        <ele>1616.504</ele>
        <time>2021-03-23T09:19:43Z</time>
      </trkpt>
      <trkpt lat="42.80699" lon="1.74265">
        <ele>1616.667</ele>
        <time>2021-03-23T09:19:45Z</time>
      </trkpt>
      <trkpt lat="42.807" lon="1.74265">
        <ele>1617.06</ele>
        <time>2021-03-23T09:19:47Z</time>
      </trkpt>
      <trkpt lat="42.80701" lon="1.74265">
        <ele>1617.923</ele>
        <time>2021-03-23T09:19:49Z</time>
      </trkpt>
      <trkpt lat="42.80701" lon="1.74265">
        <ele>1618.243</ele>
        <time>2021-03-23T09:19:51Z</time>
      </trkpt>
      <trkpt lat="42.80702" lon="1.74264">
        <ele>1618.268</ele>
        <time>2021-03-23T09:19:53Z</time>
      </trkpt>
      <trkpt lat="42.80703" lon="1.74263">
        <ele>1618.28</ele>
        <time>2021-03-23T09:19:55Z</time>
      </trkpt>
      <trkpt lat="42.80704" lon="1.74261">
        <ele>1619.517</ele>
        <time>2021-03-23T09:19:58Z</time>
      </trkpt>
      <trkpt lat="42.80705" lon="1.74261">
        <ele>1620.66</ele>
        <time>2021-03-23T09:20:00Z</time>
      </trkpt>
      <trkpt lat="42.80706" lon="1.7426">
        <ele>1621.25</ele>
        <time>2021-03-23T09:20:02Z</time>
      </trkpt>
      <trkpt lat="42.80707" lon="1.7426">
        <ele>1622.208</ele>
        <time>2021-03-23T09:20:04Z</time>
      </trkpt>
      <trkpt lat="42.80708" lon="1.74259">
        <ele>1622.473</ele>
        <time>2021-03-23T09:20:06Z</time>
      </trkpt>
      <trkpt lat="42.80708" lon="1.74259">
        <ele>1623.14</ele>
        <time>2021-03-23T09:20:08Z</time>
      </trkpt>
      <trkpt lat="42.80709" lon="1.74258">
        <ele>1623.005</ele>
        <time>2021-03-23T09:20:10Z</time>
      </trkpt>
      <trkpt lat="42.8071" lon="1.74257">
        <ele>1624.228</ele>
        <time>2021-03-23T09:20:12Z</time>
      </trkpt>
      <trkpt lat="42.80711" lon="1.74256">
        <ele>1624.057</ele>
        <time>2021-03-23T09:20:14Z</time>
      </trkpt>
      <trkpt lat="42.80712" lon="1.74257">
        <ele>1624.286</ele>
        <time>2021-03-23T09:20:16Z</time>
      </trkpt>
      <trkpt lat="42.80713" lon="1.74257">
        <ele>1624.568</ele>
        <time>2021-03-23T09:20:18Z</time>
      </trkpt>
      <trkpt lat="42.80714" lon="1.74257">
        <ele>1625.033</ele>
        <time>2021-03-23T09:20:20Z</time>
      </trkpt>
      <trkpt lat="42.80714" lon="1.74257">
        <ele>1624.907</ele>
        <time>2021-03-23T09:20:22Z</time>
      </trkpt>
      <trkpt lat="42.80715" lon="1.74257">
        <ele>1625.217</ele>
        <time>2021-03-23T09:20:24Z</time>
      </trkpt>
      <trkpt lat="42.80716" lon="1.74258">
        <ele>1625.971</ele>
        <time>2021-03-23T09:20:26Z</time>
      </trkpt>
      <trkpt lat="42.80717" lon="1.74259">
        <ele>1626.103</ele>
        <time>2021-03-23T09:20:28Z</time>
      </trkpt>
      <trkpt lat="42.80718" lon="1.74258">
        <ele>1625.998</ele>
        <time>2021-03-23T09:20:30Z</time>
      </trkpt>
      <trkpt lat="42.8072" lon="1.74257">
        <ele>1625.719</ele>
        <time>2021-03-23T09:20:32Z</time>
      </trkpt>
      <trkpt lat="42.80721" lon="1.74256">
        <ele>1625.209</ele>
        <time>2021-03-23T09:20:34Z</time>
      </trkpt>
      <trkpt lat="42.80722" lon="1.74255">
        <ele>1625.688</ele>
        <time>2021-03-23T09:20:36Z</time>
      </trkpt>
      <trkpt lat="42.80723" lon="1.74254">
        <ele>1625.822</ele>
        <time>2021-03-23T09:20:38Z</time>
      </trkpt>
      <trkpt lat="42.80723" lon="1.74253">
        <ele>1626.026</ele>
        <time>2021-03-23T09:20:40Z</time>
      </trkpt>
      <trkpt lat="42.80724" lon="1.74253">
        <ele>1626.994</ele>
        <time>2021-03-23T09:20:42Z</time>
      </trkpt>
      <trkpt lat="42.80725" lon="1.74253">
        <ele>1627.738</ele>
        <time>2021-03-23T09:20:44Z</time>
      </trkpt>
      <trkpt lat="42.80726" lon="1.74252">
        <ele>1628.309</ele>
        <time>2021-03-23T09:20:46Z</time>
      </trkpt>
      <trkpt lat="42.80727" lon="1.7425">
        <ele>1628.789</ele>
        <time>2021-03-23T09:20:48Z</time>
      </trkpt>
      <trkpt lat="42.80727" lon="1.7425">
        <ele>1629.151</ele>
        <time>2021-03-23T09:20:50Z</time>
      </trkpt>
      <trkpt lat="42.80728" lon="1.74249">
        <ele>1629.097</ele>
        <time>2021-03-23T09:20:52Z</time>
      </trkpt>
      <trkpt lat="42.80728" lon="1.74249">
        <ele>1629.341</ele>
        <time>2021-03-23T09:20:54Z</time>
      </trkpt>
      <trkpt lat="42.80728" lon="1.74248">
        <ele>1629.992</ele>
        <time>2021-03-23T09:20:56Z</time>
      </trkpt>
      <trkpt lat="42.80729" lon="1.74248">
        <ele>1630.337</ele>
        <time>2021-03-23T09:20:58Z</time>
      </trkpt>
      <trkpt lat="42.8073" lon="1.74247">
        <ele>1630.302</ele>
        <time>2021-03-23T09:21:00Z</time>
      </trkpt>
      <trkpt lat="42.80731" lon="1.74245">
        <ele>1630.028</ele>
        <time>2021-03-23T09:21:02Z</time>
      </trkpt>
      <trkpt lat="42.80731" lon="1.74245">
        <ele>1630.523</ele>
        <time>2021-03-23T09:21:04Z</time>
      </trkpt>
      <trkpt lat="42.80732" lon="1.74244">
        <ele>1630.401</ele>
        <time>2021-03-23T09:21:06Z</time>
      </trkpt>
      <trkpt lat="42.80734" lon="1.74244">
        <ele>1630.182</ele>
        <time>2021-03-23T09:21:08Z</time>
      </trkpt>
      <trkpt lat="42.80735" lon="1.74244">
        <ele>1630.012</ele>
        <time>2021-03-23T09:21:10Z</time>
      </trkpt>
      <trkpt lat="42.80735" lon="1.74243">
        <ele>1630.227</ele>
        <time>2021-03-23T09:21:12Z</time>
      </trkpt>
      <trkpt lat="42.80736" lon="1.74242">
        <ele>1631.226</ele>
        <time>2021-03-23T09:21:14Z</time>
      </trkpt>
      <trkpt lat="42.80737" lon="1.74241">
        <ele>1631.299</ele>
        <time>2021-03-23T09:21:16Z</time>
      </trkpt>
      <trkpt lat="42.80738" lon="1.74241">
        <ele>1631.974</ele>
        <time>2021-03-23T09:21:18Z</time>
      </trkpt>
      <trkpt lat="42.80739" lon="1.7424">
        <ele>1631.695</ele>
        <time>2021-03-23T09:21:20Z</time>
      </trkpt>
      <trkpt lat="42.8074" lon="1.74239">
        <ele>1631.444</ele>
        <time>2021-03-23T09:21:22Z</time>
      </trkpt>
      <trkpt lat="42.8074" lon="1.74238">
        <ele>1632.07</ele>
        <time>2021-03-23T09:21:24Z</time>
      </trkpt>
      <trkpt lat="42.80741" lon="1.74237">
        <ele>1632.017</ele>
        <time>2021-03-23T09:21:26Z</time>
      </trkpt>
      <trkpt lat="42.80742" lon="1.74237">
        <ele>1631.721</ele>
        <time>2021-03-23T09:21:28Z</time>
      </trkpt>
      <trkpt lat="42.80743" lon="1.74236">
        <ele>1632.282</ele>
        <time>2021-03-23T09:21:30Z</time>
      </trkpt>
      <trkpt lat="42.80743" lon="1.74235">
        <ele>1632.548</ele>
        <time>2021-03-23T09:21:32Z</time>
      </trkpt>
      <trkpt lat="42.80744" lon="1.74234">
        <ele>1633.362</ele>
        <time>2021-03-23T09:21:34Z</time>
      </trkpt>
      <trkpt lat="42.80744" lon="1.74232">
        <ele>1632.09</ele>
        <time>2021-03-23T09:21:36Z</time>
      </trkpt>
      <trkpt lat="42.80745" lon="1.74231">
        <ele>1632.137</ele>
        <time>2021-03-23T09:21:38Z</time>
      </trkpt>
      <trkpt lat="42.80745" lon="1.74229">
        <ele>1632.947</ele>
        <time>2021-03-23T09:21:40Z</time>
      </trkpt>
      <trkpt lat="42.80746" lon="1.74228">
        <ele>1633.409</ele>
        <time>2021-03-23T09:21:42Z</time>
      </trkpt>
      <trkpt lat="42.80747" lon="1.74227">
        <ele>1633.532</ele>
        <time>2021-03-23T09:21:44Z</time>
      </trkpt>
      <trkpt lat="42.80748" lon="1.74226">
        <ele>1634.247</ele>
        <time>2021-03-23T09:21:46Z</time>
      </trkpt>
      <trkpt lat="42.80749" lon="1.74226">
        <ele>1634.26</ele>
        <time>2021-03-23T09:21:48Z</time>
      </trkpt>
      <trkpt lat="42.8075" lon="1.74225">
        <ele>1634.888</ele>
        <time>2021-03-23T09:21:50Z</time>
      </trkpt>
      <trkpt lat="42.8075" lon="1.74224">
        <ele>1634.969</ele>
        <time>2021-03-23T09:21:52Z</time>
      </trkpt>
      <trkpt lat="42.80751" lon="1.74223">
        <ele>1635.981</ele>
        <time>2021-03-23T09:21:54Z</time>
      </trkpt>
      <trkpt lat="42.80752" lon="1.74222">
        <ele>1636.247</ele>
        <time>2021-03-23T09:21:56Z</time>
      </trkpt>
      <trkpt lat="42.80752" lon="1.74221">
        <ele>1637.077</ele>
        <time>2021-03-23T09:21:58Z</time>
      </trkpt>
      <trkpt lat="42.80753" lon="1.7422">
        <ele>1637.688</ele>
        <time>2021-03-23T09:22:00Z</time>
      </trkpt>
      <trkpt lat="42.80754" lon="1.74218">
        <ele>1638.36</ele>
        <time>2021-03-23T09:22:02Z</time>
      </trkpt>
      <trkpt lat="42.80755" lon="1.74216">
        <ele>1638.583</ele>
        <time>2021-03-23T09:22:04Z</time>
      </trkpt>
      <trkpt lat="42.80756" lon="1.74215">
        <ele>1638.665</ele>
        <time>2021-03-23T09:22:06Z</time>
      </trkpt>
      <trkpt lat="42.80757" lon="1.74215">
        <ele>1639.469</ele>
        <time>2021-03-23T09:22:08Z</time>
      </trkpt>
      <trkpt lat="42.80757" lon="1.74214">
        <ele>1639.435</ele>
        <time>2021-03-23T09:22:10Z</time>
      </trkpt>
      <trkpt lat="42.80758" lon="1.74213">
        <ele>1639.591</ele>
        <time>2021-03-23T09:22:12Z</time>
      </trkpt>
      <trkpt lat="42.80758" lon="1.74211">
        <ele>1639.744</ele>
        <time>2021-03-23T09:22:14Z</time>
      </trkpt>
      <trkpt lat="42.80759" lon="1.7421">
        <ele>1639.957</ele>
        <time>2021-03-23T09:22:16Z</time>
      </trkpt>
      <trkpt lat="42.80759" lon="1.74209">
        <ele>1640.414</ele>
        <time>2021-03-23T09:22:18Z</time>
      </trkpt>
      <trkpt lat="42.8076" lon="1.74208">
        <ele>1640.919</ele>
        <time>2021-03-23T09:22:20Z</time>
      </trkpt>
      <trkpt lat="42.8076" lon="1.74207">
        <ele>1640.813</ele>
        <time>2021-03-23T09:22:22Z</time>
      </trkpt>
      <trkpt lat="42.8076" lon="1.74206">
        <ele>1640.969</ele>
        <time>2021-03-23T09:22:24Z</time>
      </trkpt>
      <trkpt lat="42.80761" lon="1.74205">
        <ele>1641.455</ele>
        <time>2021-03-23T09:22:26Z</time>
      </trkpt>
      <trkpt lat="42.80762" lon="1.74205">
        <ele>1641.979</ele>
        <time>2021-03-23T09:22:28Z</time>
      </trkpt>
      <trkpt lat="42.80763" lon="1.74204">
        <ele>1642.554</ele>
        <time>2021-03-23T09:22:30Z</time>
      </trkpt>
      <trkpt lat="42.80763" lon="1.74203">
        <ele>1642.439</ele>
        <time>2021-03-23T09:22:32Z</time>
      </trkpt>
      <trkpt lat="42.80763" lon="1.74202">
        <ele>1642.376</ele>
        <time>2021-03-23T09:22:34Z</time>
      </trkpt>
      <trkpt lat="42.80764" lon="1.74201">
        <ele>1643.283</ele>
        <time>2021-03-23T09:22:36Z</time>
      </trkpt>
      <trkpt lat="42.80765" lon="1.742">
        <ele>1644.075</ele>
        <time>2021-03-23T09:22:38Z</time>
      </trkpt>
      <trkpt lat="42.80766" lon="1.74198">
        <ele>1643.534</ele>
        <time>2021-03-23T09:22:40Z</time>
      </trkpt>
      <trkpt lat="42.80766" lon="1.74197">
        <ele>1643.913</ele>
        <time>2021-03-23T09:22:42Z</time>
      </trkpt>
      <trkpt lat="42.80767" lon="1.74195">
        <ele>1645.133</ele>
        <time>2021-03-23T09:22:44Z</time>
      </trkpt>
      <trkpt lat="42.80767" lon="1.74193">
        <ele>1644.518</ele>
        <time>2021-03-23T09:22:46Z</time>
      </trkpt>
      <trkpt lat="42.80768" lon="1.74191">
        <ele>1644.625</ele>
        <time>2021-03-23T09:22:48Z</time>
      </trkpt>
      <trkpt lat="42.80769" lon="1.74189">
        <ele>1644.94</ele>
        <time>2021-03-23T09:22:50Z</time>
      </trkpt>
      <trkpt lat="42.80769" lon="1.74188">
        <ele>1644.741</ele>
        <time>2021-03-23T09:22:52Z</time>
      </trkpt>
      <trkpt lat="42.80769" lon="1.74186">
        <ele>1644.961</ele>
        <time>2021-03-23T09:22:54Z</time>
      </trkpt>
      <trkpt lat="42.8077" lon="1.74184">
        <ele>1645.097</ele>
        <time>2021-03-23T09:22:56Z</time>
      </trkpt>
      <trkpt lat="42.8077" lon="1.74183">
        <ele>1645.145</ele>
        <time>2021-03-23T09:22:58Z</time>
      </trkpt>
      <trkpt lat="42.80771" lon="1.74181">
        <ele>1645.607</ele>
        <time>2021-03-23T09:23:00Z</time>
      </trkpt>
      <trkpt lat="42.80771" lon="1.7418">
        <ele>1646.012</ele>
        <time>2021-03-23T09:23:02Z</time>
      </trkpt>
      <trkpt lat="42.80771" lon="1.74179">
        <ele>1646.49</ele>
        <time>2021-03-23T09:23:04Z</time>
      </trkpt>
      <trkpt lat="42.80772" lon="1.74178">
        <ele>1646.489</ele>
        <time>2021-03-23T09:23:06Z</time>
      </trkpt>
      <trkpt lat="42.80773" lon="1.74177">
        <ele>1646.768</ele>
        <time>2021-03-23T09:23:08Z</time>
      </trkpt>
      <trkpt lat="42.80774" lon="1.74176">
        <ele>1647.9</ele>
        <time>2021-03-23T09:23:10Z</time>
      </trkpt>
      <trkpt lat="42.80775" lon="1.74175">
        <ele>1648.914</ele>
        <time>2021-03-23T09:23:12Z</time>
      </trkpt>
      <trkpt lat="42.80776" lon="1.74174">
        <ele>1648.346</ele>
        <time>2021-03-23T09:23:14Z</time>
      </trkpt>
      <trkpt lat="42.80776" lon="1.74174">
        <ele>1648.354</ele>
        <time>2021-03-23T09:23:16Z</time>
      </trkpt>
      <trkpt lat="42.80776" lon="1.74174">
        <ele>1648.348</ele>
        <time>2021-03-23T09:23:18Z</time>
      </trkpt>
      <trkpt lat="42.80776" lon="1.74174">
        <ele>1648.348</ele>
        <time>2021-03-23T09:23:20Z</time>
      </trkpt>
      <trkpt lat="42.80776" lon="1.74174">
        <ele>1648.334</ele>
        <time>2021-03-23T09:23:22Z</time>
      </trkpt>
      <trkpt lat="42.80776" lon="1.74174">
        <ele>1648.324</ele>
        <time>2021-03-23T09:23:24Z</time>
      </trkpt>
      <trkpt lat="42.80776" lon="1.74174">
        <ele>1648.319</ele>
        <time>2021-03-23T09:23:26Z</time>
      </trkpt>
      <trkpt lat="42.80776" lon="1.74174">
        <ele>1648.306</ele>
        <time>2021-03-23T09:23:28Z</time>
      </trkpt>
      <trkpt lat="42.80776" lon="1.74174">
        <ele>1647.98</ele>
        <time>2021-03-23T09:23:30Z</time>
      </trkpt>
      <trkpt lat="42.80776" lon="1.74174">
        <ele>1648.029</ele>
        <time>2021-03-23T09:23:32Z</time>
      </trkpt>
      <trkpt lat="42.80776" lon="1.74174">
        <ele>1648.019</ele>
        <time>2021-03-23T09:23:34Z</time>
      </trkpt>
      <trkpt lat="42.80776" lon="1.74174">
        <ele>1648.015</ele>
        <time>2021-03-23T09:23:36Z</time>
      </trkpt>
      <trkpt lat="42.80776" lon="1.74174">
        <ele>1648.015</ele>
        <time>2021-03-23T09:23:38Z</time>
      </trkpt>
      <trkpt lat="42.80776" lon="1.74174">
        <ele>1648.019</ele>
        <time>2021-03-23T09:23:40Z</time>
      </trkpt>
      <trkpt lat="42.80776" lon="1.74174">
        <ele>1648.027</ele>
        <time>2021-03-23T09:23:42Z</time>
      </trkpt>
      <trkpt lat="42.80776" lon="1.74174">
        <ele>1648.035</ele>
        <time>2021-03-23T09:23:44Z</time>
      </trkpt>
      <trkpt lat="42.80776" lon="1.74174">
        <ele>1648.032</ele>
        <time>2021-03-23T09:23:46Z</time>
      </trkpt>
      <trkpt lat="42.80776" lon="1.74174">
        <ele>1648.031</ele>
        <time>2021-03-23T09:23:48Z</time>
      </trkpt>
      <trkpt lat="42.80776" lon="1.74174">
        <ele>1648.04</ele>
        <time>2021-03-23T09:23:50Z</time>
      </trkpt>
      <trkpt lat="42.80776" lon="1.74174">
        <ele>1648.05</ele>
        <time>2021-03-23T09:23:52Z</time>
      </trkpt>
      <trkpt lat="42.80776" lon="1.74174">
        <ele>1648.053</ele>
        <time>2021-03-23T09:23:54Z</time>
      </trkpt>
      <trkpt lat="42.80776" lon="1.74174">
        <ele>1648.057</ele>
        <time>2021-03-23T09:23:56Z</time>
      </trkpt>
      <trkpt lat="42.80776" lon="1.74174">
        <ele>1648.058</ele>
        <time>2021-03-23T09:23:58Z</time>
      </trkpt>
      <trkpt lat="42.80776" lon="1.74174">
        <ele>1648.058</ele>
        <time>2021-03-23T09:24:00Z</time>
      </trkpt>
      <trkpt lat="42.80776" lon="1.74174">
        <ele>1648.061</ele>
        <time>2021-03-23T09:24:02Z</time>
      </trkpt>
      <trkpt lat="42.80776" lon="1.74174">
        <ele>1648.065</ele>
        <time>2021-03-23T09:24:04Z</time>
      </trkpt>
      <trkpt lat="42.80776" lon="1.74174">
        <ele>1648.073</ele>
        <time>2021-03-23T09:24:06Z</time>
      </trkpt>
      <trkpt lat="42.80776" lon="1.74174">
        <ele>1648.079</ele>
        <time>2021-03-23T09:24:08Z</time>
      </trkpt>
      <trkpt lat="42.80776" lon="1.74174">
        <ele>1648.093</ele>
        <time>2021-03-23T09:24:10Z</time>
      </trkpt>
      <trkpt lat="42.80776" lon="1.74174">
        <ele>1648.095</ele>
        <time>2021-03-23T09:24:12Z</time>
      </trkpt>
      <trkpt lat="42.80776" lon="1.74174">
        <ele>1648.17</ele>
        <time>2021-03-23T09:24:14Z</time>
      </trkpt>
      <trkpt lat="42.80776" lon="1.74174">
        <ele>1648.656</ele>
        <time>2021-03-23T09:24:16Z</time>
      </trkpt>
      <trkpt lat="42.80776" lon="1.74174">
        <ele>1648.66</ele>
        <time>2021-03-23T09:24:18Z</time>
      </trkpt>
      <trkpt lat="42.80776" lon="1.74174">
        <ele>1648.657</ele>
        <time>2021-03-23T09:24:20Z</time>
      </trkpt>
      <trkpt lat="42.80776" lon="1.74174">
        <ele>1648.65</ele>
        <time>2021-03-23T09:24:22Z</time>
      </trkpt>
      <trkpt lat="42.80776" lon="1.74174">
        <ele>1648.647</ele>
        <time>2021-03-23T09:24:24Z</time>
      </trkpt>
      <trkpt lat="42.80776" lon="1.74174">
        <ele>1648.646</ele>
        <time>2021-03-23T09:24:26Z</time>
      </trkpt>
      <trkpt lat="42.80776" lon="1.74174">
        <ele>1648.65</ele>
        <time>2021-03-23T09:24:28Z</time>
      </trkpt>
      <trkpt lat="42.80776" lon="1.74174">
        <ele>1648.652</ele>
        <time>2021-03-23T09:24:30Z</time>
      </trkpt>
      <trkpt lat="42.80776" lon="1.74174">
        <ele>1648.648</ele>
        <time>2021-03-23T09:24:32Z</time>
      </trkpt>
      <trkpt lat="42.80776" lon="1.74174">
        <ele>1648.654</ele>
        <time>2021-03-23T09:24:34Z</time>
      </trkpt>
      <trkpt lat="42.80776" lon="1.74174">
        <ele>1648.667</ele>
        <time>2021-03-23T09:24:36Z</time>
      </trkpt>
      <trkpt lat="42.80776" lon="1.74174">
        <ele>1648.68</ele>
        <time>2021-03-23T09:24:38Z</time>
      </trkpt>
      <trkpt lat="42.80776" lon="1.74174">
        <ele>1648.682</ele>
        <time>2021-03-23T09:24:40Z</time>
      </trkpt>
      <trkpt lat="42.80776" lon="1.74174">
        <ele>1648.665</ele>
        <time>2021-03-23T09:24:42Z</time>
      </trkpt>
      <trkpt lat="42.80776" lon="1.74174">
        <ele>1648.862</ele>
        <time>2021-03-23T09:24:44Z</time>
      </trkpt>
      <trkpt lat="42.80776" lon="1.74174">
        <ele>1648.84</ele>
        <time>2021-03-23T09:24:46Z</time>
      </trkpt>
      <trkpt lat="42.80776" lon="1.74173">
        <ele>1648.829</ele>
        <time>2021-03-23T09:24:48Z</time>
      </trkpt>
      <trkpt lat="42.80776" lon="1.74173">
        <ele>1648.819</ele>
        <time>2021-03-23T09:24:50Z</time>
      </trkpt>
      <trkpt lat="42.80776" lon="1.74173">
        <ele>1648.823</ele>
        <time>2021-03-23T09:24:52Z</time>
      </trkpt>
      <trkpt lat="42.80776" lon="1.74173">
        <ele>1648.837</ele>
        <time>2021-03-23T09:24:54Z</time>
      </trkpt>
      <trkpt lat="42.80776" lon="1.74173">
        <ele>1648.83</ele>
        <time>2021-03-23T09:24:56Z</time>
      </trkpt>
      <trkpt lat="42.80776" lon="1.74173">
        <ele>1648.811</ele>
        <time>2021-03-23T09:24:58Z</time>
      </trkpt>
      <trkpt lat="42.80776" lon="1.74173">
        <ele>1648.748</ele>
        <time>2021-03-23T09:25:00Z</time>
      </trkpt>
      <trkpt lat="42.80777" lon="1.74172">
        <ele>1649.642</ele>
        <time>2021-03-23T09:25:02Z</time>
      </trkpt>
      <trkpt lat="42.80778" lon="1.74172">
        <ele>1650.346</ele>
        <time>2021-03-23T09:25:04Z</time>
      </trkpt>
      <trkpt lat="42.80779" lon="1.74171">
        <ele>1650.881</ele>
        <time>2021-03-23T09:25:06Z</time>
      </trkpt>
      <trkpt lat="42.8078" lon="1.7417">
        <ele>1650.961</ele>
        <time>2021-03-23T09:25:08Z</time>
      </trkpt>
      <trkpt lat="42.8078" lon="1.74169">
        <ele>1651.015</ele>
        <time>2021-03-23T09:25:10Z</time>
      </trkpt>
      <trkpt lat="42.8078" lon="1.74167">
        <ele>1652.182</ele>
        <time>2021-03-23T09:25:12Z</time>
      </trkpt>
      <trkpt lat="42.80781" lon="1.74166">
        <ele>1652.18</ele>
        <time>2021-03-23T09:25:14Z</time>
      </trkpt>
      <trkpt lat="42.80781" lon="1.74164">
        <ele>1652.871</ele>
        <time>2021-03-23T09:25:16Z</time>
      </trkpt>
      <trkpt lat="42.80782" lon="1.74163">
        <ele>1652.943</ele>
        <time>2021-03-23T09:25:18Z</time>
      </trkpt>
      <trkpt lat="42.80783" lon="1.74161">
        <ele>1653.063</ele>
        <time>2021-03-23T09:25:20Z</time>
      </trkpt>
      <trkpt lat="42.80783" lon="1.74161">
        <ele>1653.688</ele>
        <time>2021-03-23T09:25:22Z</time>
      </trkpt>
      <trkpt lat="42.80784" lon="1.7416">
        <ele>1654.124</ele>
        <time>2021-03-23T09:25:24Z</time>
      </trkpt>
      <trkpt lat="42.80784" lon="1.74159">
        <ele>1654.356</ele>
        <time>2021-03-23T09:25:26Z</time>
      </trkpt>
      <trkpt lat="42.80785" lon="1.74157">
        <ele>1654.5</ele>
        <time>2021-03-23T09:25:28Z</time>
      </trkpt>
      <trkpt lat="42.80785" lon="1.74156">
        <ele>1654.68</ele>
        <time>2021-03-23T09:25:30Z</time>
      </trkpt>
      <trkpt lat="42.80785" lon="1.74154">
        <ele>1655.116</ele>
        <time>2021-03-23T09:25:32Z</time>
      </trkpt>
      <trkpt lat="42.80786" lon="1.74154">
        <ele>1654.905</ele>
        <time>2021-03-23T09:25:34Z</time>
      </trkpt>
      <trkpt lat="42.80786" lon="1.74153">
        <ele>1654.98</ele>
        <time>2021-03-23T09:25:36Z</time>
      </trkpt>
      <trkpt lat="42.80787" lon="1.74152">
        <ele>1655.002</ele>
        <time>2021-03-23T09:25:38Z</time>
      </trkpt>
      <trkpt lat="42.80787" lon="1.7415">
        <ele>1655.266</ele>
        <time>2021-03-23T09:25:40Z</time>
      </trkpt>
      <trkpt lat="42.80788" lon="1.74148">
        <ele>1655.68</ele>
        <time>2021-03-23T09:25:42Z</time>
      </trkpt>
      <trkpt lat="42.80788" lon="1.74147">
        <ele>1655.933</ele>
        <time>2021-03-23T09:25:44Z</time>
      </trkpt>
      <trkpt lat="42.80789" lon="1.74145">
        <ele>1656.464</ele>
        <time>2021-03-23T09:25:46Z</time>
      </trkpt>
      <trkpt lat="42.80789" lon="1.74144">
        <ele>1656.13</ele>
        <time>2021-03-23T09:25:48Z</time>
      </trkpt>
      <trkpt lat="42.8079" lon="1.74143">
        <ele>1656.342</ele>
        <time>2021-03-23T09:25:50Z</time>
      </trkpt>
      <trkpt lat="42.80791" lon="1.74142">
        <ele>1656.39</ele>
        <time>2021-03-23T09:25:52Z</time>
      </trkpt>
      <trkpt lat="42.80792" lon="1.74142">
        <ele>1657.429</ele>
        <time>2021-03-23T09:25:54Z</time>
      </trkpt>
      <trkpt lat="42.80793" lon="1.74141">
        <ele>1656.99</ele>
        <time>2021-03-23T09:25:56Z</time>
      </trkpt>
      <trkpt lat="42.80793" lon="1.7414">
        <ele>1656.876</ele>
        <time>2021-03-23T09:25:58Z</time>
      </trkpt>
      <trkpt lat="42.80794" lon="1.7414">
        <ele>1657.037</ele>
        <time>2021-03-23T09:26:00Z</time>
      </trkpt>
      <trkpt lat="42.80794" lon="1.74139">
        <ele>1657.245</ele>
        <time>2021-03-23T09:26:02Z</time>
      </trkpt>
      <trkpt lat="42.80795" lon="1.74138">
        <ele>1657.53</ele>
        <time>2021-03-23T09:26:04Z</time>
      </trkpt>
      <trkpt lat="42.80794" lon="1.74137">
        <ele>1657.649</ele>
        <time>2021-03-23T09:26:06Z</time>
      </trkpt>
      <trkpt lat="42.80795" lon="1.74137">
        <ele>1658.185</ele>
        <time>2021-03-23T09:26:08Z</time>
      </trkpt>
      <trkpt lat="42.80795" lon="1.74136">
        <ele>1658.502</ele>
        <time>2021-03-23T09:26:10Z</time>
      </trkpt>
      <trkpt lat="42.80796" lon="1.74135">
        <ele>1659.411</ele>
        <time>2021-03-23T09:26:12Z</time>
      </trkpt>
      <trkpt lat="42.80796" lon="1.74134">
        <ele>1659.563</ele>
        <time>2021-03-23T09:26:14Z</time>
      </trkpt>
      <trkpt lat="42.80797" lon="1.74133">
        <ele>1659.612</ele>
        <time>2021-03-23T09:26:16Z</time>
      </trkpt>
      <trkpt lat="42.80797" lon="1.74132">
        <ele>1659.872</ele>
        <time>2021-03-23T09:26:18Z</time>
      </trkpt>
      <trkpt lat="42.80797" lon="1.74131">
        <ele>1660.041</ele>
        <time>2021-03-23T09:26:20Z</time>
      </trkpt>
      <trkpt lat="42.80797" lon="1.74131">
        <ele>1660.627</ele>
        <time>2021-03-23T09:26:22Z</time>
      </trkpt>
      <trkpt lat="42.80798" lon="1.74129">
        <ele>1661.26</ele>
        <time>2021-03-23T09:26:24Z</time>
      </trkpt>
      <trkpt lat="42.80798" lon="1.74128">
        <ele>1661.814</ele>
        <time>2021-03-23T09:26:26Z</time>
      </trkpt>
      <trkpt lat="42.80799" lon="1.74127">
        <ele>1661.899</ele>
        <time>2021-03-23T09:26:28Z</time>
      </trkpt>
      <trkpt lat="42.808" lon="1.74125">
        <ele>1663.27</ele>
        <time>2021-03-23T09:26:30Z</time>
      </trkpt>
      <trkpt lat="42.808" lon="1.74124">
        <ele>1663.041</ele>
        <time>2021-03-23T09:26:32Z</time>
      </trkpt>
      <trkpt lat="42.808" lon="1.74123">
        <ele>1663.873</ele>
        <time>2021-03-23T09:26:34Z</time>
      </trkpt>
      <trkpt lat="42.80801" lon="1.74121">
        <ele>1664.069</ele>
        <time>2021-03-23T09:26:36Z</time>
      </trkpt>
      <trkpt lat="42.80801" lon="1.7412">
        <ele>1664.206</ele>
        <time>2021-03-23T09:26:38Z</time>
      </trkpt>
      <trkpt lat="42.80801" lon="1.74119">
        <ele>1664.502</ele>
        <time>2021-03-23T09:26:40Z</time>
      </trkpt>
      <trkpt lat="42.80802" lon="1.74119">
        <ele>1665.318</ele>
        <time>2021-03-23T09:26:42Z</time>
      </trkpt>
      <trkpt lat="42.80803" lon="1.74118">
        <ele>1665.618</ele>
        <time>2021-03-23T09:26:44Z</time>
      </trkpt>
      <trkpt lat="42.80803" lon="1.74116">
        <ele>1666.453</ele>
        <time>2021-03-23T09:26:46Z</time>
      </trkpt>
      <trkpt lat="42.80804" lon="1.74116">
        <ele>1666.512</ele>
        <time>2021-03-23T09:26:48Z</time>
      </trkpt>
      <trkpt lat="42.80804" lon="1.74115">
        <ele>1666.81</ele>
        <time>2021-03-23T09:26:50Z</time>
      </trkpt>
      <trkpt lat="42.80805" lon="1.74114">
        <ele>1667.419</ele>
        <time>2021-03-23T09:26:52Z</time>
      </trkpt>
      <trkpt lat="42.80806" lon="1.74113">
        <ele>1667.642</ele>
        <time>2021-03-23T09:26:54Z</time>
      </trkpt>
      <trkpt lat="42.80806" lon="1.74112">
        <ele>1668.086</ele>
        <time>2021-03-23T09:26:56Z</time>
      </trkpt>
      <trkpt lat="42.80807" lon="1.74111">
        <ele>1667.786</ele>
        <time>2021-03-23T09:26:58Z</time>
      </trkpt>
      <trkpt lat="42.80807" lon="1.7411">
        <ele>1668.113</ele>
        <time>2021-03-23T09:27:00Z</time>
      </trkpt>
      <trkpt lat="42.80808" lon="1.74108">
        <ele>1668.397</ele>
        <time>2021-03-23T09:27:02Z</time>
      </trkpt>
      <trkpt lat="42.80808" lon="1.74107">
        <ele>1668.357</ele>
        <time>2021-03-23T09:27:04Z</time>
      </trkpt>
      <trkpt lat="42.80808" lon="1.74105">
        <ele>1667.923</ele>
        <time>2021-03-23T09:27:06Z</time>
      </trkpt>
      <trkpt lat="42.80808" lon="1.74104">
        <ele>1667.261</ele>
        <time>2021-03-23T09:27:08Z</time>
      </trkpt>
      <trkpt lat="42.80808" lon="1.74102">
        <ele>1667.252</ele>
        <time>2021-03-23T09:27:10Z</time>
      </trkpt>
      <trkpt lat="42.80808" lon="1.74101">
        <ele>1667.809</ele>
        <time>2021-03-23T09:27:12Z</time>
      </trkpt>
      <trkpt lat="42.80808" lon="1.741">
        <ele>1668.182</ele>
        <time>2021-03-23T09:27:14Z</time>
      </trkpt>
      <trkpt lat="42.80808" lon="1.74099">
        <ele>1668.61</ele>
        <time>2021-03-23T09:27:16Z</time>
      </trkpt>
      <trkpt lat="42.80808" lon="1.74097">
        <ele>1668.832</ele>
        <time>2021-03-23T09:27:18Z</time>
      </trkpt>
      <trkpt lat="42.80808" lon="1.74096">
        <ele>1668.585</ele>
        <time>2021-03-23T09:27:20Z</time>
      </trkpt>
      <trkpt lat="42.80809" lon="1.74094">
        <ele>1668.792</ele>
        <time>2021-03-23T09:27:22Z</time>
      </trkpt>
      <trkpt lat="42.80808" lon="1.74092">
        <ele>1668.642</ele>
        <time>2021-03-23T09:27:24Z</time>
      </trkpt>
      <trkpt lat="42.80808" lon="1.74091">
        <ele>1669.014</ele>
        <time>2021-03-23T09:27:26Z</time>
      </trkpt>
      <trkpt lat="42.80808" lon="1.7409">
        <ele>1669.198</ele>
        <time>2021-03-23T09:27:28Z</time>
      </trkpt>
      <trkpt lat="42.80808" lon="1.74089">
        <ele>1669.363</ele>
        <time>2021-03-23T09:27:30Z</time>
      </trkpt>
      <trkpt lat="42.80808" lon="1.74087">
        <ele>1669.747</ele>
        <time>2021-03-23T09:27:32Z</time>
      </trkpt>
      <trkpt lat="42.80809" lon="1.74086">
        <ele>1669.879</ele>
        <time>2021-03-23T09:27:34Z</time>
      </trkpt>
      <trkpt lat="42.80809" lon="1.74084">
        <ele>1670.127</ele>
        <time>2021-03-23T09:27:36Z</time>
      </trkpt>
      <trkpt lat="42.80809" lon="1.74082">
        <ele>1670.212</ele>
        <time>2021-03-23T09:27:38Z</time>
      </trkpt>
      <trkpt lat="42.80809" lon="1.74081">
        <ele>1670.627</ele>
        <time>2021-03-23T09:27:40Z</time>
      </trkpt>
      <trkpt lat="42.80809" lon="1.74079">
        <ele>1670.917</ele>
        <time>2021-03-23T09:27:42Z</time>
      </trkpt>
      <trkpt lat="42.80809" lon="1.74078">
        <ele>1671.355</ele>
        <time>2021-03-23T09:27:44Z</time>
      </trkpt>
      <trkpt lat="42.80809" lon="1.74076">
        <ele>1671.264</ele>
        <time>2021-03-23T09:27:46Z</time>
      </trkpt>
      <trkpt lat="42.80809" lon="1.74075">
        <ele>1671.631</ele>
        <time>2021-03-23T09:27:48Z</time>
      </trkpt>
      <trkpt lat="42.80809" lon="1.74074">
        <ele>1671.881</ele>
        <time>2021-03-23T09:27:50Z</time>
      </trkpt>
      <trkpt lat="42.80809" lon="1.74072">
        <ele>1672.144</ele>
        <time>2021-03-23T09:27:52Z</time>
      </trkpt>
      <trkpt lat="42.8081" lon="1.74071">
        <ele>1672.57</ele>
        <time>2021-03-23T09:27:54Z</time>
      </trkpt>
      <trkpt lat="42.8081" lon="1.7407">
        <ele>1672.952</ele>
        <time>2021-03-23T09:27:56Z</time>
      </trkpt>
      <trkpt lat="42.8081" lon="1.74069">
        <ele>1673.281</ele>
        <time>2021-03-23T09:27:58Z</time>
      </trkpt>
      <trkpt lat="42.8081" lon="1.74068">
        <ele>1673.14</ele>
        <time>2021-03-23T09:28:00Z</time>
      </trkpt>
      <trkpt lat="42.8081" lon="1.74067">
        <ele>1673.991</ele>
        <time>2021-03-23T09:28:02Z</time>
      </trkpt>
      <trkpt lat="42.8081" lon="1.74065">
        <ele>1674.167</ele>
        <time>2021-03-23T09:28:04Z</time>
      </trkpt>
      <trkpt lat="42.8081" lon="1.74064">
        <ele>1674.187</ele>
        <time>2021-03-23T09:28:06Z</time>
      </trkpt>
      <trkpt lat="42.80809" lon="1.74063">
        <ele>1674.281</ele>
        <time>2021-03-23T09:28:08Z</time>
      </trkpt>
      <trkpt lat="42.80809" lon="1.74061">
        <ele>1673.977</ele>
        <time>2021-03-23T09:28:10Z</time>
      </trkpt>
      <trkpt lat="42.80809" lon="1.74059">
        <ele>1674.143</ele>
        <time>2021-03-23T09:28:12Z</time>
      </trkpt>
      <trkpt lat="42.80809" lon="1.74057">
        <ele>1675.305</ele>
        <time>2021-03-23T09:28:14Z</time>
      </trkpt>
      <trkpt lat="42.80809" lon="1.74056">
        <ele>1675.417</ele>
        <time>2021-03-23T09:28:16Z</time>
      </trkpt>
      <trkpt lat="42.8081" lon="1.74054">
        <ele>1675.792</ele>
        <time>2021-03-23T09:28:18Z</time>
      </trkpt>
      <trkpt lat="42.8081" lon="1.74052">
        <ele>1676.394</ele>
        <time>2021-03-23T09:28:20Z</time>
      </trkpt>
      <trkpt lat="42.80811" lon="1.74051">
        <ele>1676.969</ele>
        <time>2021-03-23T09:28:22Z</time>
      </trkpt>
      <trkpt lat="42.80811" lon="1.74049">
        <ele>1677.046</ele>
        <time>2021-03-23T09:28:24Z</time>
      </trkpt>
      <trkpt lat="42.80811" lon="1.74048">
        <ele>1677.232</ele>
        <time>2021-03-23T09:28:26Z</time>
      </trkpt>
      <trkpt lat="42.80811" lon="1.74046">
        <ele>1677.775</ele>
        <time>2021-03-23T09:28:28Z</time>
      </trkpt>
      <trkpt lat="42.80812" lon="1.74045">
        <ele>1678.34</ele>
        <time>2021-03-23T09:28:30Z</time>
      </trkpt>
      <trkpt lat="42.80812" lon="1.74044">
        <ele>1679.504</ele>
        <time>2021-03-23T09:28:32Z</time>
      </trkpt>
      <trkpt lat="42.80812" lon="1.74042">
        <ele>1679.843</ele>
        <time>2021-03-23T09:28:34Z</time>
      </trkpt>
      <trkpt lat="42.80812" lon="1.74041">
        <ele>1680.444</ele>
        <time>2021-03-23T09:28:36Z</time>
      </trkpt>
      <trkpt lat="42.80812" lon="1.7404">
        <ele>1680.446</ele>
        <time>2021-03-23T09:28:38Z</time>
      </trkpt>
      <trkpt lat="42.80812" lon="1.74038">
        <ele>1680.556</ele>
        <time>2021-03-23T09:28:40Z</time>
      </trkpt>
      <trkpt lat="42.80812" lon="1.74036">
        <ele>1681.295</ele>
        <time>2021-03-23T09:28:42Z</time>
      </trkpt>
      <trkpt lat="42.80812" lon="1.74035">
        <ele>1681.765</ele>
        <time>2021-03-23T09:28:44Z</time>
      </trkpt>
      <trkpt lat="42.80812" lon="1.74034">
        <ele>1682.583</ele>
        <time>2021-03-23T09:28:46Z</time>
      </trkpt>
      <trkpt lat="42.80813" lon="1.74032">
        <ele>1682.425</ele>
        <time>2021-03-23T09:28:48Z</time>
      </trkpt>
      <trkpt lat="42.80813" lon="1.74031">
        <ele>1682.671</ele>
        <time>2021-03-23T09:28:50Z</time>
      </trkpt>
      <trkpt lat="42.80813" lon="1.74029">
        <ele>1682.811</ele>
        <time>2021-03-23T09:28:52Z</time>
      </trkpt>
      <trkpt lat="42.80813" lon="1.74028">
        <ele>1683.213</ele>
        <time>2021-03-23T09:28:54Z</time>
      </trkpt>
      <trkpt lat="42.80814" lon="1.74028">
        <ele>1683.731</ele>
        <time>2021-03-23T09:28:56Z</time>
      </trkpt>
      <trkpt lat="42.80814" lon="1.74027">
        <ele>1684.119</ele>
        <time>2021-03-23T09:28:58Z</time>
      </trkpt>
      <trkpt lat="42.80815" lon="1.74027">
        <ele>1684.392</ele>
        <time>2021-03-23T09:29:00Z</time>
      </trkpt>
      <trkpt lat="42.80816" lon="1.74027">
        <ele>1684.582</ele>
        <time>2021-03-23T09:29:02Z</time>
      </trkpt>
      <trkpt lat="42.80817" lon="1.74027">
        <ele>1684.986</ele>
        <time>2021-03-23T09:29:04Z</time>
      </trkpt>
      <trkpt lat="42.80818" lon="1.74027">
        <ele>1685.694</ele>
        <time>2021-03-23T09:29:06Z</time>
      </trkpt>
      <trkpt lat="42.80819" lon="1.74028">
        <ele>1686.42</ele>
        <time>2021-03-23T09:29:08Z</time>
      </trkpt>
      <trkpt lat="42.8082" lon="1.74028">
        <ele>1687.147</ele>
        <time>2021-03-23T09:29:10Z</time>
      </trkpt>
      <trkpt lat="42.80821" lon="1.74027">
        <ele>1687.757</ele>
        <time>2021-03-23T09:29:12Z</time>
      </trkpt>
      <trkpt lat="42.80822" lon="1.74026">
        <ele>1687.941</ele>
        <time>2021-03-23T09:29:14Z</time>
      </trkpt>
      <trkpt lat="42.80822" lon="1.74026">
        <ele>1687.912</ele>
        <time>2021-03-23T09:29:16Z</time>
      </trkpt>
      <trkpt lat="42.80822" lon="1.74027">
        <ele>1687.912</ele>
        <time>2021-03-23T09:29:18Z</time>
      </trkpt>
      <trkpt lat="42.80822" lon="1.74027">
        <ele>1687.913</ele>
        <time>2021-03-23T09:29:20Z</time>
      </trkpt>
      <trkpt lat="42.80823" lon="1.74026">
        <ele>1687.599</ele>
        <time>2021-03-23T09:29:22Z</time>
      </trkpt>
      <trkpt lat="42.80824" lon="1.74025">
        <ele>1688.101</ele>
        <time>2021-03-23T09:29:24Z</time>
      </trkpt>
      <trkpt lat="42.80825" lon="1.74025">
        <ele>1688.364</ele>
        <time>2021-03-23T09:29:26Z</time>
      </trkpt>
      <trkpt lat="42.80826" lon="1.74024">
        <ele>1688.362</ele>
        <time>2021-03-23T09:29:28Z</time>
      </trkpt>
      <trkpt lat="42.80827" lon="1.74024">
        <ele>1688.098</ele>
        <time>2021-03-23T09:29:30Z</time>
      </trkpt>
      <trkpt lat="42.80828" lon="1.74024">
        <ele>1688.092</ele>
        <time>2021-03-23T09:29:32Z</time>
      </trkpt>
      <trkpt lat="42.80829" lon="1.74025">
        <ele>1687.866</ele>
        <time>2021-03-23T09:29:34Z</time>
      </trkpt>
      <trkpt lat="42.8083" lon="1.74024">
        <ele>1687.84</ele>
        <time>2021-03-23T09:29:36Z</time>
      </trkpt>
      <trkpt lat="42.80831" lon="1.74024">
        <ele>1687.667</ele>
        <time>2021-03-23T09:29:38Z</time>
      </trkpt>
      <trkpt lat="42.80832" lon="1.74023">
        <ele>1687.719</ele>
        <time>2021-03-23T09:29:40Z</time>
      </trkpt>
      <trkpt lat="42.80834" lon="1.74022">
        <ele>1688.799</ele>
        <time>2021-03-23T09:29:42Z</time>
      </trkpt>
      <trkpt lat="42.80835" lon="1.74022">
        <ele>1688.671</ele>
        <time>2021-03-23T09:29:44Z</time>
      </trkpt>
      <trkpt lat="42.80836" lon="1.74021">
        <ele>1688.531</ele>
        <time>2021-03-23T09:29:46Z</time>
      </trkpt>
      <trkpt lat="42.80838" lon="1.74021">
        <ele>1688.86</ele>
        <time>2021-03-23T09:29:48Z</time>
      </trkpt>
      <trkpt lat="42.80839" lon="1.74021">
        <ele>1689.134</ele>
        <time>2021-03-23T09:29:50Z</time>
      </trkpt>
      <trkpt lat="42.8084" lon="1.74021">
        <ele>1691.252</ele>
        <time>2021-03-23T09:29:52Z</time>
      </trkpt>
      <trkpt lat="42.80841" lon="1.74021">
        <ele>1691.017</ele>
        <time>2021-03-23T09:29:54Z</time>
      </trkpt>
      <trkpt lat="42.80842" lon="1.74022">
        <ele>1691.011</ele>
        <time>2021-03-23T09:29:56Z</time>
      </trkpt>
      <trkpt lat="42.80843" lon="1.74022">
        <ele>1691.454</ele>
        <time>2021-03-23T09:29:58Z</time>
      </trkpt>
      <trkpt lat="42.80844" lon="1.74022">
        <ele>1691.484</ele>
        <time>2021-03-23T09:30:00Z</time>
      </trkpt>
      <trkpt lat="42.80845" lon="1.74022">
        <ele>1692.213</ele>
        <time>2021-03-23T09:30:02Z</time>
      </trkpt>
      <trkpt lat="42.80844" lon="1.74022">
        <ele>1692.222</ele>
        <time>2021-03-23T09:30:04Z</time>
      </trkpt>
      <trkpt lat="42.80844" lon="1.74022">
        <ele>1692.225</ele>
        <time>2021-03-23T09:30:06Z</time>
      </trkpt>
      <trkpt lat="42.80845" lon="1.74022">
        <ele>1692.277</ele>
        <time>2021-03-23T09:30:08Z</time>
      </trkpt>
      <trkpt lat="42.80846" lon="1.74022">
        <ele>1692.444</ele>
        <time>2021-03-23T09:30:10Z</time>
      </trkpt>
      <trkpt lat="42.80848" lon="1.74022">
        <ele>1691.714</ele>
        <time>2021-03-23T09:30:12Z</time>
      </trkpt>
      <trkpt lat="42.80849" lon="1.74021">
        <ele>1691.581</ele>
        <time>2021-03-23T09:30:14Z</time>
      </trkpt>
      <trkpt lat="42.80851" lon="1.74021">
        <ele>1692.04</ele>
        <time>2021-03-23T09:30:16Z</time>
      </trkpt>
      <trkpt lat="42.80853" lon="1.74021">
        <ele>1692.438</ele>
        <time>2021-03-23T09:30:18Z</time>
      </trkpt>
      <trkpt lat="42.80853" lon="1.74021">
        <ele>1692.453</ele>
        <time>2021-03-23T09:30:20Z</time>
      </trkpt>
      <trkpt lat="42.80855" lon="1.74022">
        <ele>1691.741</ele>
        <time>2021-03-23T09:30:22Z</time>
      </trkpt>
      <trkpt lat="42.80856" lon="1.74023">
        <ele>1691.587</ele>
        <time>2021-03-23T09:30:24Z</time>
      </trkpt>
      <trkpt lat="42.80857" lon="1.74025">
        <ele>1692.16</ele>
        <time>2021-03-23T09:30:26Z</time>
      </trkpt>
      <trkpt lat="42.80859" lon="1.74026">
        <ele>1692.457</ele>
        <time>2021-03-23T09:30:28Z</time>
      </trkpt>
      <trkpt lat="42.8086" lon="1.74027">
        <ele>1693.179</ele>
        <time>2021-03-23T09:30:30Z</time>
      </trkpt>
      <trkpt lat="42.8086" lon="1.74029">
        <ele>1693.389</ele>
        <time>2021-03-23T09:30:32Z</time>
      </trkpt>
      <trkpt lat="42.80861" lon="1.74029">
        <ele>1693.001</ele>
        <time>2021-03-23T09:30:34Z</time>
      </trkpt>
      <trkpt lat="42.80861" lon="1.74031">
        <ele>1692.889</ele>
        <time>2021-03-23T09:30:36Z</time>
      </trkpt>
      <trkpt lat="42.80861" lon="1.74033">
        <ele>1693.187</ele>
        <time>2021-03-23T09:30:38Z</time>
      </trkpt>
      <trkpt lat="42.80861" lon="1.74034">
        <ele>1693.099</ele>
        <time>2021-03-23T09:30:40Z</time>
      </trkpt>
      <trkpt lat="42.80861" lon="1.74033">
        <ele>1692.557</ele>
        <time>2021-03-23T09:30:42Z</time>
      </trkpt>
      <trkpt lat="42.80861" lon="1.74033">
        <ele>1692.53</ele>
        <time>2021-03-23T09:30:44Z</time>
      </trkpt>
      <trkpt lat="42.80861" lon="1.74033">
        <ele>1692.48</ele>
        <time>2021-03-23T09:30:46Z</time>
      </trkpt>
      <trkpt lat="42.8086" lon="1.74033">
        <ele>1692.48</ele>
        <time>2021-03-23T09:30:48Z</time>
      </trkpt>
      <trkpt lat="42.8086" lon="1.74033">
        <ele>1692.484</ele>
        <time>2021-03-23T09:30:50Z</time>
      </trkpt>
      <trkpt lat="42.8086" lon="1.74033">
        <ele>1692.499</ele>
        <time>2021-03-23T09:30:52Z</time>
      </trkpt>
      <trkpt lat="42.8086" lon="1.74033">
        <ele>1692.501</ele>
        <time>2021-03-23T09:30:54Z</time>
      </trkpt>
      <trkpt lat="42.8086" lon="1.74033">
        <ele>1692.508</ele>
        <time>2021-03-23T09:30:56Z</time>
      </trkpt>
      <trkpt lat="42.8086" lon="1.74033">
        <ele>1692.516</ele>
        <time>2021-03-23T09:30:58Z</time>
      </trkpt>
      <trkpt lat="42.8086" lon="1.74033">
        <ele>1692.52</ele>
        <time>2021-03-23T09:31:00Z</time>
      </trkpt>
      <trkpt lat="42.8086" lon="1.74033">
        <ele>1692.518</ele>
        <time>2021-03-23T09:31:02Z</time>
      </trkpt>
      <trkpt lat="42.8086" lon="1.74033">
        <ele>1691.929</ele>
        <time>2021-03-23T09:31:04Z</time>
      </trkpt>
      <trkpt lat="42.8086" lon="1.74033">
        <ele>1691.909</ele>
        <time>2021-03-23T09:31:06Z</time>
      </trkpt>
      <trkpt lat="42.8086" lon="1.74033">
        <ele>1691.898</ele>
        <time>2021-03-23T09:31:08Z</time>
      </trkpt>
      <trkpt lat="42.8086" lon="1.74033">
        <ele>1691.896</ele>
        <time>2021-03-23T09:31:10Z</time>
      </trkpt>
      <trkpt lat="42.8086" lon="1.74033">
        <ele>1691.891</ele>
        <time>2021-03-23T09:31:12Z</time>
      </trkpt>
      <trkpt lat="42.8086" lon="1.74033">
        <ele>1691.884</ele>
        <time>2021-03-23T09:31:14Z</time>
      </trkpt>
      <trkpt lat="42.8086" lon="1.74033">
        <ele>1691.88</ele>
        <time>2021-03-23T09:31:16Z</time>
      </trkpt>
      <trkpt lat="42.8086" lon="1.74033">
        <ele>1691.876</ele>
        <time>2021-03-23T09:31:18Z</time>
      </trkpt>
      <trkpt lat="42.8086" lon="1.74033">
        <ele>1691.867</ele>
        <time>2021-03-23T09:31:20Z</time>
      </trkpt>
      <trkpt lat="42.8086" lon="1.74033">
        <ele>1691.861</ele>
        <time>2021-03-23T09:31:22Z</time>
      </trkpt>
      <trkpt lat="42.8086" lon="1.74033">
        <ele>1691.861</ele>
        <time>2021-03-23T09:31:24Z</time>
      </trkpt>
      <trkpt lat="42.8086" lon="1.74033">
        <ele>1691.409</ele>
        <time>2021-03-23T09:31:26Z</time>
      </trkpt>
      <trkpt lat="42.8086" lon="1.74032">
        <ele>1691.842</ele>
        <time>2021-03-23T09:31:28Z</time>
      </trkpt>
      <trkpt lat="42.8086" lon="1.74033">
        <ele>1691.849</ele>
        <time>2021-03-23T09:31:30Z</time>
      </trkpt>
      <trkpt lat="42.8086" lon="1.74033">
        <ele>1691.846</ele>
        <time>2021-03-23T09:31:32Z</time>
      </trkpt>
      <trkpt lat="42.8086" lon="1.74033">
        <ele>1691.85</ele>
        <time>2021-03-23T09:31:34Z</time>
      </trkpt>
      <trkpt lat="42.8086" lon="1.74032">
        <ele>1691.899</ele>
        <time>2021-03-23T09:31:36Z</time>
      </trkpt>
      <trkpt lat="42.8086" lon="1.74032">
        <ele>1691.903</ele>
        <time>2021-03-23T09:31:38Z</time>
      </trkpt>
      <trkpt lat="42.8086" lon="1.74032">
        <ele>1692.064</ele>
        <time>2021-03-23T09:31:40Z</time>
      </trkpt>
      <trkpt lat="42.8086" lon="1.74032">
        <ele>1692.075</ele>
        <time>2021-03-23T09:31:42Z</time>
      </trkpt>
      <trkpt lat="42.8086" lon="1.74032">
        <ele>1692.083</ele>
        <time>2021-03-23T09:31:44Z</time>
      </trkpt>
      <trkpt lat="42.8086" lon="1.74032">
        <ele>1692.089</ele>
        <time>2021-03-23T09:31:46Z</time>
      </trkpt>
      <trkpt lat="42.8086" lon="1.74032">
        <ele>1691.881</ele>
        <time>2021-03-23T09:31:48Z</time>
      </trkpt>
      <trkpt lat="42.80861" lon="1.74032">
        <ele>1692.202</ele>
        <time>2021-03-23T09:31:50Z</time>
      </trkpt>
      <trkpt lat="42.80862" lon="1.74033">
        <ele>1692.254</ele>
        <time>2021-03-23T09:31:52Z</time>
      </trkpt>
      <trkpt lat="42.80864" lon="1.74033">
        <ele>1692.468</ele>
        <time>2021-03-23T09:31:54Z</time>
      </trkpt>
      <trkpt lat="42.80865" lon="1.74034">
        <ele>1692.801</ele>
        <time>2021-03-23T09:31:56Z</time>
      </trkpt>
      <trkpt lat="42.80867" lon="1.74035">
        <ele>1693.415</ele>
        <time>2021-03-23T09:31:58Z</time>
      </trkpt>
      <trkpt lat="42.80868" lon="1.74036">
        <ele>1693.41</ele>
        <time>2021-03-23T09:32:00Z</time>
      </trkpt>
      <trkpt lat="42.80869" lon="1.74037">
        <ele>1693.406</ele>
        <time>2021-03-23T09:32:02Z</time>
      </trkpt>
      <trkpt lat="42.80871" lon="1.74038">
        <ele>1693.885</ele>
        <time>2021-03-23T09:32:04Z</time>
      </trkpt>
      <trkpt lat="42.80873" lon="1.74039">
        <ele>1694.078</ele>
        <time>2021-03-23T09:32:06Z</time>
      </trkpt>
      <trkpt lat="42.80875" lon="1.74039">
        <ele>1694.583</ele>
        <time>2021-03-23T09:32:08Z</time>
      </trkpt>
      <trkpt lat="42.80877" lon="1.74039">
        <ele>1694.946</ele>
        <time>2021-03-23T09:32:10Z</time>
      </trkpt>
      <trkpt lat="42.80879" lon="1.7404">
        <ele>1694.638</ele>
        <time>2021-03-23T09:32:12Z</time>
      </trkpt>
      <trkpt lat="42.80882" lon="1.7404">
        <ele>1694.79</ele>
        <time>2021-03-23T09:32:14Z</time>
      </trkpt>
      <trkpt lat="42.80884" lon="1.7404">
        <ele>1695.055</ele>
        <time>2021-03-23T09:32:16Z</time>
      </trkpt>
      <trkpt lat="42.80886" lon="1.7404">
        <ele>1695.422</ele>
        <time>2021-03-23T09:32:18Z</time>
      </trkpt>
      <trkpt lat="42.80888" lon="1.74041">
        <ele>1695.787</ele>
        <time>2021-03-23T09:32:20Z</time>
      </trkpt>
      <trkpt lat="42.80891" lon="1.74042">
        <ele>1696.171</ele>
        <time>2021-03-23T09:32:22Z</time>
      </trkpt>
      <trkpt lat="42.80893" lon="1.74042">
        <ele>1696.146</ele>
        <time>2021-03-23T09:32:24Z</time>
      </trkpt>
      <trkpt lat="42.80894" lon="1.74043">
        <ele>1696.322</ele>
        <time>2021-03-23T09:32:26Z</time>
      </trkpt>
      <trkpt lat="42.80896" lon="1.74044">
        <ele>1696.526</ele>
        <time>2021-03-23T09:32:28Z</time>
      </trkpt>
      <trkpt lat="42.80897" lon="1.74045">
        <ele>1697.098</ele>
        <time>2021-03-23T09:32:30Z</time>
      </trkpt>
      <trkpt lat="42.80899" lon="1.74047">
        <ele>1697.544</ele>
        <time>2021-03-23T09:32:32Z</time>
      </trkpt>
      <trkpt lat="42.809" lon="1.74047">
        <ele>1697.812</ele>
        <time>2021-03-23T09:32:34Z</time>
      </trkpt>
      <trkpt lat="42.80901" lon="1.74047">
        <ele>1697.794</ele>
        <time>2021-03-23T09:32:35Z</time>
      </trkpt>
      <trkpt lat="42.80904" lon="1.74047">
        <ele>1697.929</ele>
        <time>2021-03-23T09:32:38Z</time>
      </trkpt>
      <trkpt lat="42.80906" lon="1.74048">
        <ele>1697.604</ele>
        <time>2021-03-23T09:32:40Z</time>
      </trkpt>
      <trkpt lat="42.80908" lon="1.74047">
        <ele>1697.302</ele>
        <time>2021-03-23T09:32:42Z</time>
      </trkpt>
      <trkpt lat="42.80909" lon="1.74047">
        <ele>1697.593</ele>
        <time>2021-03-23T09:32:44Z</time>
      </trkpt>
      <trkpt lat="42.80911" lon="1.74048">
        <ele>1697.764</ele>
        <time>2021-03-23T09:32:46Z</time>
      </trkpt>
      <trkpt lat="42.80913" lon="1.74048">
        <ele>1697.864</ele>
        <time>2021-03-23T09:32:48Z</time>
      </trkpt>
      <trkpt lat="42.80914" lon="1.74049">
        <ele>1698.502</ele>
        <time>2021-03-23T09:32:50Z</time>
      </trkpt>
      <trkpt lat="42.80915" lon="1.7405">
        <ele>1699.203</ele>
        <time>2021-03-23T09:32:52Z</time>
      </trkpt>
      <trkpt lat="42.80916" lon="1.74052">
        <ele>1699.599</ele>
        <time>2021-03-23T09:32:54Z</time>
      </trkpt>
      <trkpt lat="42.80917" lon="1.74054">
        <ele>1699.764</ele>
        <time>2021-03-23T09:32:56Z</time>
      </trkpt>
      <trkpt lat="42.80918" lon="1.74056">
        <ele>1699.926</ele>
        <time>2021-03-23T09:32:58Z</time>
      </trkpt>
      <trkpt lat="42.8092" lon="1.74057">
        <ele>1699.888</ele>
        <time>2021-03-23T09:33:00Z</time>
      </trkpt>
      <trkpt lat="42.80921" lon="1.74057">
        <ele>1699.56</ele>
        <time>2021-03-23T09:33:02Z</time>
      </trkpt>
      <trkpt lat="42.80923" lon="1.74057">
        <ele>1699.936</ele>
        <time>2021-03-23T09:33:04Z</time>
      </trkpt>
      <trkpt lat="42.80924" lon="1.74057">
        <ele>1699.98</ele>
        <time>2021-03-23T09:33:06Z</time>
      </trkpt>
      <trkpt lat="42.80926" lon="1.74057">
        <ele>1700.085</ele>
        <time>2021-03-23T09:33:08Z</time>
      </trkpt>
      <trkpt lat="42.80926" lon="1.74057">
        <ele>1700.219</ele>
        <time>2021-03-23T09:33:10Z</time>
      </trkpt>
      <trkpt lat="42.80926" lon="1.74057">
        <ele>1700.232</ele>
        <time>2021-03-23T09:33:12Z</time>
      </trkpt>
      <trkpt lat="42.80926" lon="1.74057">
        <ele>1700.234</ele>
        <time>2021-03-23T09:33:14Z</time>
      </trkpt>
      <trkpt lat="42.80926" lon="1.74057">
        <ele>1700.236</ele>
        <time>2021-03-23T09:33:16Z</time>
      </trkpt>
      <trkpt lat="42.80926" lon="1.74057">
        <ele>1700.233</ele>
        <time>2021-03-23T09:33:18Z</time>
      </trkpt>
      <trkpt lat="42.80926" lon="1.74057">
        <ele>1700.23</ele>
        <time>2021-03-23T09:33:20Z</time>
      </trkpt>
      <trkpt lat="42.80926" lon="1.74057">
        <ele>1700.242</ele>
        <time>2021-03-23T09:33:22Z</time>
      </trkpt>
      <trkpt lat="42.80926" lon="1.74057">
        <ele>1700.246</ele>
        <time>2021-03-23T09:33:24Z</time>
      </trkpt>
      <trkpt lat="42.80926" lon="1.74057">
        <ele>1700.251</ele>
        <time>2021-03-23T09:33:26Z</time>
      </trkpt>
      <trkpt lat="42.80926" lon="1.74057">
        <ele>1700.25</ele>
        <time>2021-03-23T09:33:28Z</time>
      </trkpt>
      <trkpt lat="42.80926" lon="1.74057">
        <ele>1700.251</ele>
        <time>2021-03-23T09:33:30Z</time>
      </trkpt>
      <trkpt lat="42.80927" lon="1.74057">
        <ele>1700.218</ele>
        <time>2021-03-23T09:33:32Z</time>
      </trkpt>
      <trkpt lat="42.80928" lon="1.74057">
        <ele>1700.136</ele>
        <time>2021-03-23T09:33:34Z</time>
      </trkpt>
      <trkpt lat="42.8093" lon="1.74057">
        <ele>1700.427</ele>
        <time>2021-03-23T09:33:36Z</time>
      </trkpt>
      <trkpt lat="42.80932" lon="1.74058">
        <ele>1700.706</ele>
        <time>2021-03-23T09:33:38Z</time>
      </trkpt>
      <trkpt lat="42.80935" lon="1.74058">
        <ele>1700.87</ele>
        <time>2021-03-23T09:33:40Z</time>
      </trkpt>
      <trkpt lat="42.80936" lon="1.74058">
        <ele>1700.598</ele>
        <time>2021-03-23T09:33:42Z</time>
      </trkpt>
      <trkpt lat="42.80938" lon="1.74059">
        <ele>1701.212</ele>
        <time>2021-03-23T09:33:44Z</time>
      </trkpt>
      <trkpt lat="42.80939" lon="1.7406">
        <ele>1702.146</ele>
        <time>2021-03-23T09:33:46Z</time>
      </trkpt>
      <trkpt lat="42.80941" lon="1.74062">
        <ele>1702.228</ele>
        <time>2021-03-23T09:33:48Z</time>
      </trkpt>
      <trkpt lat="42.80943" lon="1.74063">
        <ele>1702.663</ele>
        <time>2021-03-23T09:33:50Z</time>
      </trkpt>
      <trkpt lat="42.80945" lon="1.74064">
        <ele>1702.71</ele>
        <time>2021-03-23T09:33:52Z</time>
      </trkpt>
      <trkpt lat="42.80946" lon="1.74065">
        <ele>1702.864</ele>
        <time>2021-03-23T09:33:54Z</time>
      </trkpt>
      <trkpt lat="42.80949" lon="1.74066">
        <ele>1702.881</ele>
        <time>2021-03-23T09:33:56Z</time>
      </trkpt>
      <trkpt lat="42.8095" lon="1.74067">
        <ele>1703.958</ele>
        <time>2021-03-23T09:33:58Z</time>
      </trkpt>
      <trkpt lat="42.80952" lon="1.74068">
        <ele>1704.136</ele>
        <time>2021-03-23T09:34:00Z</time>
      </trkpt>
      <trkpt lat="42.80954" lon="1.74069">
        <ele>1704.135</ele>
        <time>2021-03-23T09:34:02Z</time>
      </trkpt>
      <trkpt lat="42.80956" lon="1.7407">
        <ele>1704.509</ele>
        <time>2021-03-23T09:34:04Z</time>
      </trkpt>
      <trkpt lat="42.80958" lon="1.74071">
        <ele>1704.963</ele>
        <time>2021-03-23T09:34:06Z</time>
      </trkpt>
      <trkpt lat="42.8096" lon="1.74071">
        <ele>1705.233</ele>
        <time>2021-03-23T09:34:08Z</time>
      </trkpt>
      <trkpt lat="42.80962" lon="1.74071">
        <ele>1705.2</ele>
        <time>2021-03-23T09:34:10Z</time>
      </trkpt>
      <trkpt lat="42.80963" lon="1.74071">
        <ele>1704.811</ele>
        <time>2021-03-23T09:34:12Z</time>
      </trkpt>
      <trkpt lat="42.80964" lon="1.74071">
        <ele>1704.64</ele>
        <time>2021-03-23T09:34:14Z</time>
      </trkpt>
      <trkpt lat="42.80966" lon="1.74071">
        <ele>1704.916</ele>
        <time>2021-03-23T09:34:16Z</time>
      </trkpt>
      <trkpt lat="42.80968" lon="1.74072">
        <ele>1704.826</ele>
        <time>2021-03-23T09:34:18Z</time>
      </trkpt>
      <trkpt lat="42.80969" lon="1.74073">
        <ele>1705.317</ele>
        <time>2021-03-23T09:34:20Z</time>
      </trkpt>
      <trkpt lat="42.8097" lon="1.74074">
        <ele>1705.35</ele>
        <time>2021-03-23T09:34:22Z</time>
      </trkpt>
      <trkpt lat="42.80971" lon="1.74075">
        <ele>1705.827</ele>
        <time>2021-03-23T09:34:24Z</time>
      </trkpt>
      <trkpt lat="42.80974" lon="1.74076">
        <ele>1705.524</ele>
        <time>2021-03-23T09:34:26Z</time>
      </trkpt>
      <trkpt lat="42.80976" lon="1.74077">
        <ele>1706.186</ele>
        <time>2021-03-23T09:34:28Z</time>
      </trkpt>
      <trkpt lat="42.80977" lon="1.74078">
        <ele>1706.244</ele>
        <time>2021-03-23T09:34:30Z</time>
      </trkpt>
      <trkpt lat="42.80979" lon="1.7408">
        <ele>1706.224</ele>
        <time>2021-03-23T09:34:32Z</time>
      </trkpt>
      <trkpt lat="42.80981" lon="1.74081">
        <ele>1706.056</ele>
        <time>2021-03-23T09:34:34Z</time>
      </trkpt>
      <trkpt lat="42.80983" lon="1.74082">
        <ele>1706.41</ele>
        <time>2021-03-23T09:34:36Z</time>
      </trkpt>
      <trkpt lat="42.80984" lon="1.74083">
        <ele>1706.448</ele>
        <time>2021-03-23T09:34:38Z</time>
      </trkpt>
      <trkpt lat="42.80986" lon="1.74084">
        <ele>1706.543</ele>
        <time>2021-03-23T09:34:40Z</time>
      </trkpt>
      <trkpt lat="42.80988" lon="1.74086">
        <ele>1707.073</ele>
        <time>2021-03-23T09:34:42Z</time>
      </trkpt>
      <trkpt lat="42.8099" lon="1.74087">
        <ele>1707.534</ele>
        <time>2021-03-23T09:34:44Z</time>
      </trkpt>
      <trkpt lat="42.80991" lon="1.74087">
        <ele>1707.484</ele>
        <time>2021-03-23T09:34:46Z</time>
      </trkpt>
      <trkpt lat="42.80993" lon="1.74087">
        <ele>1707.601</ele>
        <time>2021-03-23T09:34:48Z</time>
      </trkpt>
      <trkpt lat="42.80995" lon="1.74087">
        <ele>1707.552</ele>
        <time>2021-03-23T09:34:50Z</time>
      </trkpt>
      <trkpt lat="42.80997" lon="1.74087">
        <ele>1707.782</ele>
        <time>2021-03-23T09:34:52Z</time>
      </trkpt>
      <trkpt lat="42.80998" lon="1.74088">
        <ele>1708.296</ele>
        <time>2021-03-23T09:34:54Z</time>
      </trkpt>
      <trkpt lat="42.81" lon="1.7409">
        <ele>1708.58</ele>
        <time>2021-03-23T09:34:56Z</time>
      </trkpt>
      <trkpt lat="42.81001" lon="1.74091">
        <ele>1709.087</ele>
        <time>2021-03-23T09:34:58Z</time>
      </trkpt>
      <trkpt lat="42.81003" lon="1.74091">
        <ele>1709.151</ele>
        <time>2021-03-23T09:35:00Z</time>
      </trkpt>
      <trkpt lat="42.81005" lon="1.74091">
        <ele>1709.705</ele>
        <time>2021-03-23T09:35:02Z</time>
      </trkpt>
      <trkpt lat="42.81007" lon="1.74092">
        <ele>1710.042</ele>
        <time>2021-03-23T09:35:04Z</time>
      </trkpt>
      <trkpt lat="42.81008" lon="1.74092">
        <ele>1710.064</ele>
        <time>2021-03-23T09:35:06Z</time>
      </trkpt>
      <trkpt lat="42.8101" lon="1.74092">
        <ele>1710.251</ele>
        <time>2021-03-23T09:35:08Z</time>
      </trkpt>
      <trkpt lat="42.81012" lon="1.74093">
        <ele>1710.602</ele>
        <time>2021-03-23T09:35:10Z</time>
      </trkpt>
      <trkpt lat="42.81013" lon="1.74093">
        <ele>1710.547</ele>
        <time>2021-03-23T09:35:12Z</time>
      </trkpt>
      <trkpt lat="42.81015" lon="1.74094">
        <ele>1710.429</ele>
        <time>2021-03-23T09:35:14Z</time>
      </trkpt>
      <trkpt lat="42.81016" lon="1.74094">
        <ele>1710.761</ele>
        <time>2021-03-23T09:35:16Z</time>
      </trkpt>
      <trkpt lat="42.81017" lon="1.74095">
        <ele>1710.857</ele>
        <time>2021-03-23T09:35:18Z</time>
      </trkpt>
      <trkpt lat="42.81018" lon="1.74096">
        <ele>1711.375</ele>
        <time>2021-03-23T09:35:20Z</time>
      </trkpt>
      <trkpt lat="42.81019" lon="1.74098">
        <ele>1711.209</ele>
        <time>2021-03-23T09:35:22Z</time>
      </trkpt>
      <trkpt lat="42.8102" lon="1.74098">
        <ele>1711.031</ele>
        <time>2021-03-23T09:35:24Z</time>
      </trkpt>
      <trkpt lat="42.81021" lon="1.74098">
        <ele>1710.688</ele>
        <time>2021-03-23T09:35:26Z</time>
      </trkpt>
      <trkpt lat="42.81022" lon="1.74097">
        <ele>1710.473</ele>
        <time>2021-03-23T09:35:28Z</time>
      </trkpt>
      <trkpt lat="42.81024" lon="1.74097">
        <ele>1710.382</ele>
        <time>2021-03-23T09:35:30Z</time>
      </trkpt>
      <trkpt lat="42.81026" lon="1.74097">
        <ele>1710.51</ele>
        <time>2021-03-23T09:35:32Z</time>
      </trkpt>
      <trkpt lat="42.81027" lon="1.74098">
        <ele>1710.393</ele>
        <time>2021-03-23T09:35:34Z</time>
      </trkpt>
      <trkpt lat="42.81029" lon="1.74098">
        <ele>1710.579</ele>
        <time>2021-03-23T09:35:36Z</time>
      </trkpt>
      <trkpt lat="42.8103" lon="1.74099">
        <ele>1710.98</ele>
        <time>2021-03-23T09:35:38Z</time>
      </trkpt>
      <trkpt lat="42.81032" lon="1.74099">
        <ele>1711.266</ele>
        <time>2021-03-23T09:35:40Z</time>
      </trkpt>
      <trkpt lat="42.81033" lon="1.74099">
        <ele>1710.982</ele>
        <time>2021-03-23T09:35:42Z</time>
      </trkpt>
      <trkpt lat="42.81035" lon="1.74098">
        <ele>1710.921</ele>
        <time>2021-03-23T09:35:44Z</time>
      </trkpt>
      <trkpt lat="42.81036" lon="1.74098">
        <ele>1711.272</ele>
        <time>2021-03-23T09:35:46Z</time>
      </trkpt>
      <trkpt lat="42.81038" lon="1.74098">
        <ele>1711.773</ele>
        <time>2021-03-23T09:35:48Z</time>
      </trkpt>
      <trkpt lat="42.8104" lon="1.74099">
        <ele>1712.019</ele>
        <time>2021-03-23T09:35:50Z</time>
      </trkpt>
      <trkpt lat="42.81042" lon="1.74099">
        <ele>1712.444</ele>
        <time>2021-03-23T09:35:52Z</time>
      </trkpt>
      <trkpt lat="42.81044" lon="1.74099">
        <ele>1712.607</ele>
        <time>2021-03-23T09:35:54Z</time>
      </trkpt>
      <trkpt lat="42.81045" lon="1.74099">
        <ele>1712.646</ele>
        <time>2021-03-23T09:35:56Z</time>
      </trkpt>
      <trkpt lat="42.81047" lon="1.741">
        <ele>1713.431</ele>
        <time>2021-03-23T09:35:58Z</time>
      </trkpt>
      <trkpt lat="42.81048" lon="1.74101">
        <ele>1713.288</ele>
        <time>2021-03-23T09:36:00Z</time>
      </trkpt>
      <trkpt lat="42.8105" lon="1.74101">
        <ele>1713.325</ele>
        <time>2021-03-23T09:36:02Z</time>
      </trkpt>
      <trkpt lat="42.81051" lon="1.74101">
        <ele>1713.279</ele>
        <time>2021-03-23T09:36:04Z</time>
      </trkpt>
      <trkpt lat="42.81053" lon="1.74101">
        <ele>1713.087</ele>
        <time>2021-03-23T09:36:06Z</time>
      </trkpt>
      <trkpt lat="42.81055" lon="1.74102">
        <ele>1712.9</ele>
        <time>2021-03-23T09:36:08Z</time>
      </trkpt>
      <trkpt lat="42.81057" lon="1.74102">
        <ele>1713.394</ele>
        <time>2021-03-23T09:36:10Z</time>
      </trkpt>
      <trkpt lat="42.81059" lon="1.74103">
        <ele>1713.339</ele>
        <time>2021-03-23T09:36:12Z</time>
      </trkpt>
      <trkpt lat="42.8106" lon="1.74103">
        <ele>1713.431</ele>
        <time>2021-03-23T09:36:14Z</time>
      </trkpt>
      <trkpt lat="42.81061" lon="1.74103">
        <ele>1713.543</ele>
        <time>2021-03-23T09:36:16Z</time>
      </trkpt>
      <trkpt lat="42.81062" lon="1.74104">
        <ele>1713.784</ele>
        <time>2021-03-23T09:36:18Z</time>
      </trkpt>
      <trkpt lat="42.81064" lon="1.74104">
        <ele>1713.876</ele>
        <time>2021-03-23T09:36:20Z</time>
      </trkpt>
      <trkpt lat="42.81065" lon="1.74105">
        <ele>1714.145</ele>
        <time>2021-03-23T09:36:22Z</time>
      </trkpt>
      <trkpt lat="42.81066" lon="1.74106">
        <ele>1714.434</ele>
        <time>2021-03-23T09:36:24Z</time>
      </trkpt>
      <trkpt lat="42.81067" lon="1.74106">
        <ele>1714.502</ele>
        <time>2021-03-23T09:36:26Z</time>
      </trkpt>
      <trkpt lat="42.81069" lon="1.74106">
        <ele>1714.712</ele>
        <time>2021-03-23T09:36:28Z</time>
      </trkpt>
      <trkpt lat="42.8107" lon="1.74106">
        <ele>1714.764</ele>
        <time>2021-03-23T09:36:30Z</time>
      </trkpt>
      <trkpt lat="42.81071" lon="1.74105">
        <ele>1715.272</ele>
        <time>2021-03-23T09:36:32Z</time>
      </trkpt>
      <trkpt lat="42.81071" lon="1.74105">
        <ele>1715.251</ele>
        <time>2021-03-23T09:36:34Z</time>
      </trkpt>
      <trkpt lat="42.81071" lon="1.74105">
        <ele>1715.258</ele>
        <time>2021-03-23T09:36:36Z</time>
      </trkpt>
      <trkpt lat="42.81071" lon="1.74105">
        <ele>1715.222</ele>
        <time>2021-03-23T09:36:38Z</time>
      </trkpt>
      <trkpt lat="42.81071" lon="1.74105">
        <ele>1715.243</ele>
        <time>2021-03-23T09:36:40Z</time>
      </trkpt>
      <trkpt lat="42.81071" lon="1.74105">
        <ele>1715.247</ele>
        <time>2021-03-23T09:36:42Z</time>
      </trkpt>
      <trkpt lat="42.81071" lon="1.74105">
        <ele>1715.251</ele>
        <time>2021-03-23T09:36:44Z</time>
      </trkpt>
      <trkpt lat="42.81071" lon="1.74105">
        <ele>1715.255</ele>
        <time>2021-03-23T09:36:46Z</time>
      </trkpt>
      <trkpt lat="42.81071" lon="1.74105">
        <ele>1715.253</ele>
        <time>2021-03-23T09:36:48Z</time>
      </trkpt>
      <trkpt lat="42.81071" lon="1.74105">
        <ele>1715.251</ele>
        <time>2021-03-23T09:36:50Z</time>
      </trkpt>
      <trkpt lat="42.81071" lon="1.74105">
        <ele>1715.256</ele>
        <time>2021-03-23T09:36:52Z</time>
      </trkpt>
      <trkpt lat="42.81071" lon="1.74105">
        <ele>1715.256</ele>
        <time>2021-03-23T09:36:54Z</time>
      </trkpt>
      <trkpt lat="42.81071" lon="1.74105">
        <ele>1715.254</ele>
        <time>2021-03-23T09:36:56Z</time>
      </trkpt>
      <trkpt lat="42.81071" lon="1.74105">
        <ele>1715.256</ele>
        <time>2021-03-23T09:36:58Z</time>
      </trkpt>
      <trkpt lat="42.81071" lon="1.74105">
        <ele>1715.253</ele>
        <time>2021-03-23T09:37:00Z</time>
      </trkpt>
      <trkpt lat="42.81071" lon="1.74105">
        <ele>1715.25</ele>
        <time>2021-03-23T09:37:02Z</time>
      </trkpt>
      <trkpt lat="42.81071" lon="1.74105">
        <ele>1715.242</ele>
        <time>2021-03-23T09:37:04Z</time>
      </trkpt>
      <trkpt lat="42.81071" lon="1.74105">
        <ele>1715.246</ele>
        <time>2021-03-23T09:37:06Z</time>
      </trkpt>
      <trkpt lat="42.81071" lon="1.74105">
        <ele>1715.245</ele>
        <time>2021-03-23T09:37:08Z</time>
      </trkpt>
      <trkpt lat="42.81071" lon="1.74105">
        <ele>1715.238</ele>
        <time>2021-03-23T09:37:10Z</time>
      </trkpt>
      <trkpt lat="42.81071" lon="1.74105">
        <ele>1715.235</ele>
        <time>2021-03-23T09:37:12Z</time>
      </trkpt>
      <trkpt lat="42.81071" lon="1.74105">
        <ele>1715.235</ele>
        <time>2021-03-23T09:37:14Z</time>
      </trkpt>
      <trkpt lat="42.81071" lon="1.74105">
        <ele>1715.233</ele>
        <time>2021-03-23T09:37:16Z</time>
      </trkpt>
      <trkpt lat="42.81071" lon="1.74105">
        <ele>1715.238</ele>
        <time>2021-03-23T09:37:18Z</time>
      </trkpt>
      <trkpt lat="42.81071" lon="1.74105">
        <ele>1715.24</ele>
        <time>2021-03-23T09:37:20Z</time>
      </trkpt>
      <trkpt lat="42.81071" lon="1.74106">
        <ele>1715.244</ele>
        <time>2021-03-23T09:37:22Z</time>
      </trkpt>
      <trkpt lat="42.81071" lon="1.74106">
        <ele>1715.257</ele>
        <time>2021-03-23T09:37:24Z</time>
      </trkpt>
      <trkpt lat="42.81071" lon="1.74106">
        <ele>1715.257</ele>
        <time>2021-03-23T09:37:26Z</time>
      </trkpt>
      <trkpt lat="42.81071" lon="1.74106">
        <ele>1715.254</ele>
        <time>2021-03-23T09:37:28Z</time>
      </trkpt>
      <trkpt lat="42.81071" lon="1.74106">
        <ele>1715.255</ele>
        <time>2021-03-23T09:37:30Z</time>
      </trkpt>
      <trkpt lat="42.81071" lon="1.74106">
        <ele>1715.252</ele>
        <time>2021-03-23T09:37:32Z</time>
      </trkpt>
      <trkpt lat="42.81071" lon="1.74105">
        <ele>1715.245</ele>
        <time>2021-03-23T09:37:34Z</time>
      </trkpt>
      <trkpt lat="42.81071" lon="1.74105">
        <ele>1715.243</ele>
        <time>2021-03-23T09:37:36Z</time>
      </trkpt>
      <trkpt lat="42.81071" lon="1.74105">
        <ele>1715.238</ele>
        <time>2021-03-23T09:37:38Z</time>
      </trkpt>
      <trkpt lat="42.81071" lon="1.74105">
        <ele>1715.247</ele>
        <time>2021-03-23T09:37:40Z</time>
      </trkpt>
      <trkpt lat="42.81071" lon="1.74105">
        <ele>1715.257</ele>
        <time>2021-03-23T09:37:42Z</time>
      </trkpt>
      <trkpt lat="42.81071" lon="1.74106">
        <ele>1715.265</ele>
        <time>2021-03-23T09:37:44Z</time>
      </trkpt>
      <trkpt lat="42.81071" lon="1.74106">
        <ele>1715.279</ele>
        <time>2021-03-23T09:37:46Z</time>
      </trkpt>
      <trkpt lat="42.81071" lon="1.74106">
        <ele>1715.286</ele>
        <time>2021-03-23T09:37:48Z</time>
      </trkpt>
      <trkpt lat="42.81071" lon="1.74106">
        <ele>1715.286</ele>
        <time>2021-03-23T09:37:50Z</time>
      </trkpt>
      <trkpt lat="42.81071" lon="1.74106">
        <ele>1715.288</ele>
        <time>2021-03-23T09:37:52Z</time>
      </trkpt>
      <trkpt lat="42.81071" lon="1.74106">
        <ele>1715.29</ele>
        <time>2021-03-23T09:37:54Z</time>
      </trkpt>
      <trkpt lat="42.81071" lon="1.74106">
        <ele>1715.295</ele>
        <time>2021-03-23T09:37:56Z</time>
      </trkpt>
      <trkpt lat="42.81071" lon="1.74106">
        <ele>1715.296</ele>
        <time>2021-03-23T09:37:58Z</time>
      </trkpt>
      <trkpt lat="42.81071" lon="1.74106">
        <ele>1715.29</ele>
        <time>2021-03-23T09:38:00Z</time>
      </trkpt>
      <trkpt lat="42.81071" lon="1.74106">
        <ele>1715.293</ele>
        <time>2021-03-23T09:38:02Z</time>
      </trkpt>
      <trkpt lat="42.81071" lon="1.74106">
        <ele>1715.297</ele>
        <time>2021-03-23T09:38:04Z</time>
      </trkpt>
      <trkpt lat="42.81071" lon="1.74106">
        <ele>1715.298</ele>
        <time>2021-03-23T09:38:06Z</time>
      </trkpt>
      <trkpt lat="42.81071" lon="1.74106">
        <ele>1715.297</ele>
        <time>2021-03-23T09:38:08Z</time>
      </trkpt>
      <trkpt lat="42.81071" lon="1.74106">
        <ele>1715.303</ele>
        <time>2021-03-23T09:38:10Z</time>
      </trkpt>
      <trkpt lat="42.81071" lon="1.74106">
        <ele>1715.306</ele>
        <time>2021-03-23T09:38:12Z</time>
      </trkpt>
      <trkpt lat="42.81071" lon="1.74106">
        <ele>1715.311</ele>
        <time>2021-03-23T09:38:14Z</time>
      </trkpt>
      <trkpt lat="42.81071" lon="1.74106">
        <ele>1715.313</ele>
        <time>2021-03-23T09:38:16Z</time>
      </trkpt>
      <trkpt lat="42.81071" lon="1.74106">
        <ele>1715.318</ele>
        <time>2021-03-23T09:38:18Z</time>
      </trkpt>
      <trkpt lat="42.81071" lon="1.74106">
        <ele>1715.318</ele>
        <time>2021-03-23T09:38:20Z</time>
      </trkpt>
      <trkpt lat="42.81071" lon="1.74106">
        <ele>1715.319</ele>
        <time>2021-03-23T09:38:22Z</time>
      </trkpt>
      <trkpt lat="42.81071" lon="1.74106">
        <ele>1715.321</ele>
        <time>2021-03-23T09:38:24Z</time>
      </trkpt>
      <trkpt lat="42.81071" lon="1.74106">
        <ele>1715.316</ele>
        <time>2021-03-23T09:38:26Z</time>
      </trkpt>
      <trkpt lat="42.81071" lon="1.74106">
        <ele>1715.313</ele>
        <time>2021-03-23T09:38:28Z</time>
      </trkpt>
      <trkpt lat="42.81071" lon="1.74106">
        <ele>1715.307</ele>
        <time>2021-03-23T09:38:30Z</time>
      </trkpt>
      <trkpt lat="42.81071" lon="1.74106">
        <ele>1715.297</ele>
        <time>2021-03-23T09:38:32Z</time>
      </trkpt>
      <trkpt lat="42.81071" lon="1.74106">
        <ele>1715.297</ele>
        <time>2021-03-23T09:38:34Z</time>
      </trkpt>
      <trkpt lat="42.81071" lon="1.74106">
        <ele>1715.301</ele>
        <time>2021-03-23T09:38:36Z</time>
      </trkpt>
      <trkpt lat="42.81071" lon="1.74106">
        <ele>1715.297</ele>
        <time>2021-03-23T09:38:38Z</time>
      </trkpt>
      <trkpt lat="42.81071" lon="1.74106">
        <ele>1715.294</ele>
        <time>2021-03-23T09:38:40Z</time>
      </trkpt>
      <trkpt lat="42.81072" lon="1.74106">
        <ele>1715.144</ele>
        <time>2021-03-23T09:38:42Z</time>
      </trkpt>
      <trkpt lat="42.81073" lon="1.74105">
        <ele>1715.071</ele>
        <time>2021-03-23T09:38:44Z</time>
      </trkpt>
      <trkpt lat="42.81074" lon="1.74105">
        <ele>1714.604</ele>
        <time>2021-03-23T09:38:46Z</time>
      </trkpt>
      <trkpt lat="42.81076" lon="1.74105">
        <ele>1714.634</ele>
        <time>2021-03-23T09:38:48Z</time>
      </trkpt>
      <trkpt lat="42.81077" lon="1.74106">
        <ele>1715.11</ele>
        <time>2021-03-23T09:38:50Z</time>
      </trkpt>
      <trkpt lat="42.81078" lon="1.74107">
        <ele>1714.99</ele>
        <time>2021-03-23T09:38:52Z</time>
      </trkpt>
      <trkpt lat="42.8108" lon="1.74107">
        <ele>1714.945</ele>
        <time>2021-03-23T09:38:54Z</time>
      </trkpt>
      <trkpt lat="42.81082" lon="1.74107">
        <ele>1715.024</ele>
        <time>2021-03-23T09:38:56Z</time>
      </trkpt>
      <trkpt lat="42.81083" lon="1.74107">
        <ele>1715.277</ele>
        <time>2021-03-23T09:38:58Z</time>
      </trkpt>
      <trkpt lat="42.81085" lon="1.74108">
        <ele>1715.094</ele>
        <time>2021-03-23T09:39:00Z</time>
      </trkpt>
      <trkpt lat="42.81087" lon="1.74108">
        <ele>1715.597</ele>
        <time>2021-03-23T09:39:02Z</time>
      </trkpt>
      <trkpt lat="42.81088" lon="1.74109">
        <ele>1715.747</ele>
        <time>2021-03-23T09:39:04Z</time>
      </trkpt>
      <trkpt lat="42.81089" lon="1.7411">
        <ele>1716.167</ele>
        <time>2021-03-23T09:39:06Z</time>
      </trkpt>
      <trkpt lat="42.8109" lon="1.74111">
        <ele>1717.12</ele>
        <time>2021-03-23T09:39:08Z</time>
      </trkpt>
      <trkpt lat="42.81091" lon="1.74113">
        <ele>1717.982</ele>
        <time>2021-03-23T09:39:10Z</time>
      </trkpt>
      <trkpt lat="42.81093" lon="1.74114">
        <ele>1717.808</ele>
        <time>2021-03-23T09:39:12Z</time>
      </trkpt>
      <trkpt lat="42.81094" lon="1.74114">
        <ele>1717.507</ele>
        <time>2021-03-23T09:39:14Z</time>
      </trkpt>
      <trkpt lat="42.81095" lon="1.74114">
        <ele>1717.835</ele>
        <time>2021-03-23T09:39:16Z</time>
      </trkpt>
      <trkpt lat="42.81096" lon="1.74115">
        <ele>1718.056</ele>
        <time>2021-03-23T09:39:18Z</time>
      </trkpt>
      <trkpt lat="42.81098" lon="1.74115">
        <ele>1717.608</ele>
        <time>2021-03-23T09:39:20Z</time>
      </trkpt>
      <trkpt lat="42.81099" lon="1.74115">
        <ele>1718.078</ele>
        <time>2021-03-23T09:39:22Z</time>
      </trkpt>
      <trkpt lat="42.811" lon="1.74116">
        <ele>1718.16</ele>
        <time>2021-03-23T09:39:24Z</time>
      </trkpt>
      <trkpt lat="42.81101" lon="1.74117">
        <ele>1718.365</ele>
        <time>2021-03-23T09:39:26Z</time>
      </trkpt>
      <trkpt lat="42.81102" lon="1.74118">
        <ele>1718.557</ele>
        <time>2021-03-23T09:39:28Z</time>
      </trkpt>
      <trkpt lat="42.81103" lon="1.74119">
        <ele>1719.075</ele>
        <time>2021-03-23T09:39:30Z</time>
      </trkpt>
      <trkpt lat="42.81104" lon="1.7412">
        <ele>1719.491</ele>
        <time>2021-03-23T09:39:32Z</time>
      </trkpt>
      <trkpt lat="42.81105" lon="1.74121">
        <ele>1720.023</ele>
        <time>2021-03-23T09:39:34Z</time>
      </trkpt>
      <trkpt lat="42.81106" lon="1.74121">
        <ele>1719.818</ele>
        <time>2021-03-23T09:39:36Z</time>
      </trkpt>
      <trkpt lat="42.81107" lon="1.74122">
        <ele>1720.247</ele>
        <time>2021-03-23T09:39:38Z</time>
      </trkpt>
      <trkpt lat="42.81107" lon="1.74123">
        <ele>1720.597</ele>
        <time>2021-03-23T09:39:40Z</time>
      </trkpt>
      <trkpt lat="42.81108" lon="1.74124">
        <ele>1720.777</ele>
        <time>2021-03-23T09:39:42Z</time>
      </trkpt>
      <trkpt lat="42.81109" lon="1.74124">
        <ele>1721.197</ele>
        <time>2021-03-23T09:39:44Z</time>
      </trkpt>
      <trkpt lat="42.8111" lon="1.74124">
        <ele>1721.408</ele>
        <time>2021-03-23T09:39:46Z</time>
      </trkpt>
      <trkpt lat="42.81112" lon="1.74124">
        <ele>1721.601</ele>
        <time>2021-03-23T09:39:48Z</time>
      </trkpt>
      <trkpt lat="42.81113" lon="1.74124">
        <ele>1722.059</ele>
        <time>2021-03-23T09:39:50Z</time>
      </trkpt>
      <trkpt lat="42.81115" lon="1.74123">
        <ele>1722.528</ele>
        <time>2021-03-23T09:39:52Z</time>
      </trkpt>
      <trkpt lat="42.81116" lon="1.74123">
        <ele>1721.902</ele>
        <time>2021-03-23T09:39:54Z</time>
      </trkpt>
      <trkpt lat="42.81118" lon="1.74123">
        <ele>1722.388</ele>
        <time>2021-03-23T09:39:56Z</time>
      </trkpt>
      <trkpt lat="42.81119" lon="1.74123">
        <ele>1722.724</ele>
        <time>2021-03-23T09:39:58Z</time>
      </trkpt>
      <trkpt lat="42.8112" lon="1.74123">
        <ele>1722.724</ele>
        <time>2021-03-23T09:40:00Z</time>
      </trkpt>
      <trkpt lat="42.81121" lon="1.74124">
        <ele>1723.112</ele>
        <time>2021-03-23T09:40:02Z</time>
      </trkpt>
      <trkpt lat="42.81123" lon="1.74124">
        <ele>1723.387</ele>
        <time>2021-03-23T09:40:04Z</time>
      </trkpt>
      <trkpt lat="42.81125" lon="1.74124">
        <ele>1723.035</ele>
        <time>2021-03-23T09:40:06Z</time>
      </trkpt>
      <trkpt lat="42.81126" lon="1.74125">
        <ele>1723.027</ele>
        <time>2021-03-23T09:40:08Z</time>
      </trkpt>
      <trkpt lat="42.81128" lon="1.74126">
        <ele>1723.844</ele>
        <time>2021-03-23T09:40:10Z</time>
      </trkpt>
      <trkpt lat="42.81128" lon="1.74128">
        <ele>1724.374</ele>
        <time>2021-03-23T09:40:12Z</time>
      </trkpt>
      <trkpt lat="42.8113" lon="1.74129">
        <ele>1724.679</ele>
        <time>2021-03-23T09:40:14Z</time>
      </trkpt>
      <trkpt lat="42.81131" lon="1.7413">
        <ele>1724.646</ele>
        <time>2021-03-23T09:40:16Z</time>
      </trkpt>
      <trkpt lat="42.81132" lon="1.7413">
        <ele>1724.645</ele>
        <time>2021-03-23T09:40:18Z</time>
      </trkpt>
      <trkpt lat="42.81133" lon="1.74131">
        <ele>1724.866</ele>
        <time>2021-03-23T09:40:20Z</time>
      </trkpt>
      <trkpt lat="42.81134" lon="1.74132">
        <ele>1725.981</ele>
        <time>2021-03-23T09:40:22Z</time>
      </trkpt>
      <trkpt lat="42.81135" lon="1.74134">
        <ele>1725.353</ele>
        <time>2021-03-23T09:40:24Z</time>
      </trkpt>
      <trkpt lat="42.81136" lon="1.74134">
        <ele>1725.37</ele>
        <time>2021-03-23T09:40:26Z</time>
      </trkpt>
      <trkpt lat="42.81136" lon="1.74135">
        <ele>1725.607</ele>
        <time>2021-03-23T09:40:28Z</time>
      </trkpt>
      <trkpt lat="42.81137" lon="1.74135">
        <ele>1725.629</ele>
        <time>2021-03-23T09:40:30Z</time>
      </trkpt>
      <trkpt lat="42.81137" lon="1.74135">
        <ele>1726.055</ele>
        <time>2021-03-23T09:40:32Z</time>
      </trkpt>
      <trkpt lat="42.81137" lon="1.74136">
        <ele>1725.675</ele>
        <time>2021-03-23T09:40:34Z</time>
      </trkpt>
      <trkpt lat="42.81137" lon="1.74135">
        <ele>1725.674</ele>
        <time>2021-03-23T09:40:36Z</time>
      </trkpt>
      <trkpt lat="42.81138" lon="1.74135">
        <ele>1724.828</ele>
        <time>2021-03-23T09:40:38Z</time>
      </trkpt>
      <trkpt lat="42.8114" lon="1.74136">
        <ele>1724.842</ele>
        <time>2021-03-23T09:40:40Z</time>
      </trkpt>
      <trkpt lat="42.8114" lon="1.74137">
        <ele>1724.327</ele>
        <time>2021-03-23T09:40:42Z</time>
      </trkpt>
      <trkpt lat="42.81141" lon="1.74137">
        <ele>1723.856</ele>
        <time>2021-03-23T09:40:44Z</time>
      </trkpt>
      <trkpt lat="42.81142" lon="1.74138">
        <ele>1722.944</ele>
        <time>2021-03-23T09:40:46Z</time>
      </trkpt>
      <trkpt lat="42.81143" lon="1.74138">
        <ele>1722.766</ele>
        <time>2021-03-23T09:40:48Z</time>
      </trkpt>
      <trkpt lat="42.81145" lon="1.74139">
        <ele>1722.79</ele>
        <time>2021-03-23T09:40:50Z</time>
      </trkpt>
      <trkpt lat="42.81147" lon="1.7414">
        <ele>1722.584</ele>
        <time>2021-03-23T09:40:52Z</time>
      </trkpt>
      <trkpt lat="42.81148" lon="1.74141">
        <ele>1721.726</ele>
        <time>2021-03-23T09:40:54Z</time>
      </trkpt>
      <trkpt lat="42.81148" lon="1.74141">
        <ele>1721.809</ele>
        <time>2021-03-23T09:40:56Z</time>
      </trkpt>
      <trkpt lat="42.81148" lon="1.74142">
        <ele>1721.782</ele>
        <time>2021-03-23T09:40:58Z</time>
      </trkpt>
      <trkpt lat="42.81149" lon="1.74143">
        <ele>1722.746</ele>
        <time>2021-03-23T09:41:00Z</time>
      </trkpt>
      <trkpt lat="42.8115" lon="1.74143">
        <ele>1723.263</ele>
        <time>2021-03-23T09:41:02Z</time>
      </trkpt>
      <trkpt lat="42.81151" lon="1.74144">
        <ele>1723.271</ele>
        <time>2021-03-23T09:41:04Z</time>
      </trkpt>
      <trkpt lat="42.81152" lon="1.74145">
        <ele>1721.647</ele>
        <time>2021-03-23T09:41:06Z</time>
      </trkpt>
      <trkpt lat="42.81154" lon="1.74146">
        <ele>1720.851</ele>
        <time>2021-03-23T09:41:08Z</time>
      </trkpt>
      <trkpt lat="42.81155" lon="1.74147">
        <ele>1721.614</ele>
        <time>2021-03-23T09:41:10Z</time>
      </trkpt>
      <trkpt lat="42.81157" lon="1.74148">
        <ele>1723.148</ele>
        <time>2021-03-23T09:41:12Z</time>
      </trkpt>
      <trkpt lat="42.81159" lon="1.7415">
        <ele>1722.694</ele>
        <time>2021-03-23T09:41:14Z</time>
      </trkpt>
      <trkpt lat="42.81161" lon="1.74151">
        <ele>1721.268</ele>
        <time>2021-03-23T09:41:16Z</time>
      </trkpt>
      <trkpt lat="42.81163" lon="1.74153">
        <ele>1720.864</ele>
        <time>2021-03-23T09:41:18Z</time>
      </trkpt>
      <trkpt lat="42.81165" lon="1.74154">
        <ele>1720.18</ele>
        <time>2021-03-23T09:41:20Z</time>
      </trkpt>
      <trkpt lat="42.81166" lon="1.74155">
        <ele>1720.87</ele>
        <time>2021-03-23T09:41:22Z</time>
      </trkpt>
      <trkpt lat="42.81168" lon="1.74157">
        <ele>1720.877</ele>
        <time>2021-03-23T09:41:24Z</time>
      </trkpt>
      <trkpt lat="42.81169" lon="1.74157">
        <ele>1720.467</ele>
        <time>2021-03-23T09:41:26Z</time>
      </trkpt>
      <trkpt lat="42.81171" lon="1.74158">
        <ele>1720.587</ele>
        <time>2021-03-23T09:41:28Z</time>
      </trkpt>
      <trkpt lat="42.81173" lon="1.74159">
        <ele>1720.409</ele>
        <time>2021-03-23T09:41:30Z</time>
      </trkpt>
      <trkpt lat="42.81175" lon="1.7416">
        <ele>1720.555</ele>
        <time>2021-03-23T09:41:32Z</time>
      </trkpt>
      <trkpt lat="42.81177" lon="1.7416">
        <ele>1720.482</ele>
        <time>2021-03-23T09:41:34Z</time>
      </trkpt>
      <trkpt lat="42.81179" lon="1.74162">
        <ele>1720.703</ele>
        <time>2021-03-23T09:41:36Z</time>
      </trkpt>
      <trkpt lat="42.8118" lon="1.74162">
        <ele>1720.647</ele>
        <time>2021-03-23T09:41:38Z</time>
      </trkpt>
      <trkpt lat="42.81182" lon="1.74162">
        <ele>1721.178</ele>
        <time>2021-03-23T09:41:40Z</time>
      </trkpt>
      <trkpt lat="42.81183" lon="1.74163">
        <ele>1722.848</ele>
        <time>2021-03-23T09:41:42Z</time>
      </trkpt>
      <trkpt lat="42.81184" lon="1.74164">
        <ele>1722.716</ele>
        <time>2021-03-23T09:41:44Z</time>
      </trkpt>
      <trkpt lat="42.81186" lon="1.74164">
        <ele>1722.869</ele>
        <time>2021-03-23T09:41:46Z</time>
      </trkpt>
      <trkpt lat="42.81187" lon="1.74165">
        <ele>1722.49</ele>
        <time>2021-03-23T09:41:48Z</time>
      </trkpt>
      <trkpt lat="42.81188" lon="1.74166">
        <ele>1723.237</ele>
        <time>2021-03-23T09:41:50Z</time>
      </trkpt>
      <trkpt lat="42.81189" lon="1.74167">
        <ele>1723.238</ele>
        <time>2021-03-23T09:41:52Z</time>
      </trkpt>
      <trkpt lat="42.8119" lon="1.74168">
        <ele>1723.804</ele>
        <time>2021-03-23T09:41:54Z</time>
      </trkpt>
      <trkpt lat="42.8119" lon="1.74169">
        <ele>1724.774</ele>
        <time>2021-03-23T09:41:56Z</time>
      </trkpt>
      <trkpt lat="42.81191" lon="1.7417">
        <ele>1725.157</ele>
        <time>2021-03-23T09:41:58Z</time>
      </trkpt>
      <trkpt lat="42.81193" lon="1.74171">
        <ele>1724.951</ele>
        <time>2021-03-23T09:42:00Z</time>
      </trkpt>
      <trkpt lat="42.81194" lon="1.74171">
        <ele>1725.027</ele>
        <time>2021-03-23T09:42:02Z</time>
      </trkpt>
      <trkpt lat="42.81196" lon="1.74171">
        <ele>1725.296</ele>
        <time>2021-03-23T09:42:04Z</time>
      </trkpt>
      <trkpt lat="42.81197" lon="1.74172">
        <ele>1725.195</ele>
        <time>2021-03-23T09:42:06Z</time>
      </trkpt>
      <trkpt lat="42.81198" lon="1.74173">
        <ele>1724.759</ele>
        <time>2021-03-23T09:42:08Z</time>
      </trkpt>
      <trkpt lat="42.81199" lon="1.74175">
        <ele>1724.994</ele>
        <time>2021-03-23T09:42:10Z</time>
      </trkpt>
      <trkpt lat="42.812" lon="1.74176">
        <ele>1725.21</ele>
        <time>2021-03-23T09:42:12Z</time>
      </trkpt>
      <trkpt lat="42.81202" lon="1.74177">
        <ele>1725.291</ele>
        <time>2021-03-23T09:42:14Z</time>
      </trkpt>
      <trkpt lat="42.81203" lon="1.74177">
        <ele>1725.389</ele>
        <time>2021-03-23T09:42:16Z</time>
      </trkpt>
      <trkpt lat="42.81204" lon="1.74177">
        <ele>1726.238</ele>
        <time>2021-03-23T09:42:18Z</time>
      </trkpt>
      <trkpt lat="42.81205" lon="1.74178">
        <ele>1726.287</ele>
        <time>2021-03-23T09:42:20Z</time>
      </trkpt>
      <trkpt lat="42.81206" lon="1.74179">
        <ele>1726.309</ele>
        <time>2021-03-23T09:42:22Z</time>
      </trkpt>
      <trkpt lat="42.81208" lon="1.7418">
        <ele>1726.792</ele>
        <time>2021-03-23T09:42:24Z</time>
      </trkpt>
      <trkpt lat="42.81209" lon="1.7418">
        <ele>1726.854</ele>
        <time>2021-03-23T09:42:26Z</time>
      </trkpt>
      <trkpt lat="42.8121" lon="1.74181">
        <ele>1727.278</ele>
        <time>2021-03-23T09:42:28Z</time>
      </trkpt>
      <trkpt lat="42.81211" lon="1.74182">
        <ele>1726.955</ele>
        <time>2021-03-23T09:42:30Z</time>
      </trkpt>
      <trkpt lat="42.81212" lon="1.74183">
        <ele>1727.676</ele>
        <time>2021-03-23T09:42:32Z</time>
      </trkpt>
      <trkpt lat="42.81213" lon="1.74185">
        <ele>1729.166</ele>
        <time>2021-03-23T09:42:34Z</time>
      </trkpt>
      <trkpt lat="42.81215" lon="1.74187">
        <ele>1728.993</ele>
        <time>2021-03-23T09:42:36Z</time>
      </trkpt>
      <trkpt lat="42.81216" lon="1.74188">
        <ele>1729.539</ele>
        <time>2021-03-23T09:42:38Z</time>
      </trkpt>
      <trkpt lat="42.81217" lon="1.74189">
        <ele>1729.352</ele>
        <time>2021-03-23T09:42:40Z</time>
      </trkpt>
      <trkpt lat="42.81219" lon="1.7419">
        <ele>1729.501</ele>
        <time>2021-03-23T09:42:42Z</time>
      </trkpt>
      <trkpt lat="42.81221" lon="1.7419">
        <ele>1729.629</ele>
        <time>2021-03-23T09:42:44Z</time>
      </trkpt>
      <trkpt lat="42.81223" lon="1.7419">
        <ele>1729.495</ele>
        <time>2021-03-23T09:42:46Z</time>
      </trkpt>
      <trkpt lat="42.81225" lon="1.7419">
        <ele>1729.11</ele>
        <time>2021-03-23T09:42:48Z</time>
      </trkpt>
      <trkpt lat="42.81227" lon="1.7419">
        <ele>1729.552</ele>
        <time>2021-03-23T09:42:50Z</time>
      </trkpt>
      <trkpt lat="42.81229" lon="1.74191">
        <ele>1729.106</ele>
        <time>2021-03-23T09:42:52Z</time>
      </trkpt>
      <trkpt lat="42.8123" lon="1.74191">
        <ele>1729.428</ele>
        <time>2021-03-23T09:42:54Z</time>
      </trkpt>
      <trkpt lat="42.81232" lon="1.74192">
        <ele>1729.22</ele>
        <time>2021-03-23T09:42:56Z</time>
      </trkpt>
      <trkpt lat="42.81233" lon="1.74193">
        <ele>1729.798</ele>
        <time>2021-03-23T09:42:58Z</time>
      </trkpt>
      <trkpt lat="42.81235" lon="1.74195">
        <ele>1729.79</ele>
        <time>2021-03-23T09:43:00Z</time>
      </trkpt>
      <trkpt lat="42.81236" lon="1.74197">
        <ele>1729.702</ele>
        <time>2021-03-23T09:43:02Z</time>
      </trkpt>
      <trkpt lat="42.81237" lon="1.74199">
        <ele>1729.321</ele>
        <time>2021-03-23T09:43:04Z</time>
      </trkpt>
      <trkpt lat="42.81238" lon="1.74202">
        <ele>1729.991</ele>
        <time>2021-03-23T09:43:06Z</time>
      </trkpt>
      <trkpt lat="42.81239" lon="1.74204">
        <ele>1729.634</ele>
        <time>2021-03-23T09:43:08Z</time>
      </trkpt>
      <trkpt lat="42.81241" lon="1.74206">
        <ele>1730.179</ele>
        <time>2021-03-23T09:43:10Z</time>
      </trkpt>
      <trkpt lat="42.81243" lon="1.74207">
        <ele>1729.72</ele>
        <time>2021-03-23T09:43:12Z</time>
      </trkpt>
      <trkpt lat="42.81244" lon="1.74207">
        <ele>1728.869</ele>
        <time>2021-03-23T09:43:14Z</time>
      </trkpt>
      <trkpt lat="42.81245" lon="1.74208">
        <ele>1728.507</ele>
        <time>2021-03-23T09:43:16Z</time>
      </trkpt>
      <trkpt lat="42.81247" lon="1.74209">
        <ele>1728.551</ele>
        <time>2021-03-23T09:43:18Z</time>
      </trkpt>
      <trkpt lat="42.81249" lon="1.74209">
        <ele>1728.393</ele>
        <time>2021-03-23T09:43:20Z</time>
      </trkpt>
      <trkpt lat="42.81251" lon="1.74209">
        <ele>1727.288</ele>
        <time>2021-03-23T09:43:22Z</time>
      </trkpt>
      <trkpt lat="42.81252" lon="1.7421">
        <ele>1726.47</ele>
        <time>2021-03-23T09:43:24Z</time>
      </trkpt>
      <trkpt lat="42.81254" lon="1.7421">
        <ele>1726.899</ele>
        <time>2021-03-23T09:43:26Z</time>
      </trkpt>
      <trkpt lat="42.81256" lon="1.7421">
        <ele>1726.889</ele>
        <time>2021-03-23T09:43:28Z</time>
      </trkpt>
      <trkpt lat="42.81259" lon="1.74211">
        <ele>1726.513</ele>
        <time>2021-03-23T09:43:30Z</time>
      </trkpt>
      <trkpt lat="42.81261" lon="1.74211">
        <ele>1725.619</ele>
        <time>2021-03-23T09:43:32Z</time>
      </trkpt>
      <trkpt lat="42.81262" lon="1.74212">
        <ele>1724.897</ele>
        <time>2021-03-23T09:43:34Z</time>
      </trkpt>
      <trkpt lat="42.81264" lon="1.74213">
        <ele>1724.239</ele>
        <time>2021-03-23T09:43:36Z</time>
      </trkpt>
      <trkpt lat="42.81266" lon="1.74214">
        <ele>1723.64</ele>
        <time>2021-03-23T09:43:38Z</time>
      </trkpt>
      <trkpt lat="42.81268" lon="1.74215">
        <ele>1722.699</ele>
        <time>2021-03-23T09:43:40Z</time>
      </trkpt>
      <trkpt lat="42.8127" lon="1.74216">
        <ele>1722.863</ele>
        <time>2021-03-23T09:43:42Z</time>
      </trkpt>
      <trkpt lat="42.81272" lon="1.74218">
        <ele>1722.163</ele>
        <time>2021-03-23T09:43:44Z</time>
      </trkpt>
      <trkpt lat="42.81274" lon="1.74219">
        <ele>1721.815</ele>
        <time>2021-03-23T09:43:46Z</time>
      </trkpt>
      <trkpt lat="42.81276" lon="1.7422">
        <ele>1722.2</ele>
        <time>2021-03-23T09:43:48Z</time>
      </trkpt>
      <trkpt lat="42.81277" lon="1.74221">
        <ele>1721.676</ele>
        <time>2021-03-23T09:43:50Z</time>
      </trkpt>
      <trkpt lat="42.81279" lon="1.74223">
        <ele>1721.683</ele>
        <time>2021-03-23T09:43:52Z</time>
      </trkpt>
      <trkpt lat="42.81281" lon="1.74224">
        <ele>1721.251</ele>
        <time>2021-03-23T09:43:54Z</time>
      </trkpt>
      <trkpt lat="42.81283" lon="1.74225">
        <ele>1721.479</ele>
        <time>2021-03-23T09:43:56Z</time>
      </trkpt>
      <trkpt lat="42.81285" lon="1.74227">
        <ele>1721.197</ele>
        <time>2021-03-23T09:43:58Z</time>
      </trkpt>
      <trkpt lat="42.81287" lon="1.74228">
        <ele>1721.228</ele>
        <time>2021-03-23T09:44:00Z</time>
      </trkpt>
      <trkpt lat="42.81288" lon="1.7423">
        <ele>1721.315</ele>
        <time>2021-03-23T09:44:02Z</time>
      </trkpt>
      <trkpt lat="42.8129" lon="1.74231">
        <ele>1721.623</ele>
        <time>2021-03-23T09:44:04Z</time>
      </trkpt>
      <trkpt lat="42.81292" lon="1.74233">
        <ele>1721.737</ele>
        <time>2021-03-23T09:44:06Z</time>
      </trkpt>
      <trkpt lat="42.81293" lon="1.74234">
        <ele>1721.334</ele>
        <time>2021-03-23T09:44:08Z</time>
      </trkpt>
      <trkpt lat="42.81294" lon="1.74235">
        <ele>1721.774</ele>
        <time>2021-03-23T09:44:10Z</time>
      </trkpt>
      <trkpt lat="42.81296" lon="1.74237">
        <ele>1722.129</ele>
        <time>2021-03-23T09:44:12Z</time>
      </trkpt>
      <trkpt lat="42.81298" lon="1.74238">
        <ele>1722.084</ele>
        <time>2021-03-23T09:44:14Z</time>
      </trkpt>
      <trkpt lat="42.813" lon="1.74239">
        <ele>1721.574</ele>
        <time>2021-03-23T09:44:16Z</time>
      </trkpt>
      <trkpt lat="42.81302" lon="1.74239">
        <ele>1722.241</ele>
        <time>2021-03-23T09:44:18Z</time>
      </trkpt>
      <trkpt lat="42.81304" lon="1.7424">
        <ele>1722.882</ele>
        <time>2021-03-23T09:44:20Z</time>
      </trkpt>
      <trkpt lat="42.81306" lon="1.74241">
        <ele>1723.08</ele>
        <time>2021-03-23T09:44:22Z</time>
      </trkpt>
      <trkpt lat="42.81307" lon="1.74243">
        <ele>1723.453</ele>
        <time>2021-03-23T09:44:24Z</time>
      </trkpt>
      <trkpt lat="42.81308" lon="1.74245">
        <ele>1722.743</ele>
        <time>2021-03-23T09:44:26Z</time>
      </trkpt>
      <trkpt lat="42.81309" lon="1.74247">
        <ele>1722.806</ele>
        <time>2021-03-23T09:44:28Z</time>
      </trkpt>
      <trkpt lat="42.8131" lon="1.74248">
        <ele>1722.058</ele>
        <time>2021-03-23T09:44:30Z</time>
      </trkpt>
      <trkpt lat="42.81311" lon="1.7425">
        <ele>1722.352</ele>
        <time>2021-03-23T09:44:32Z</time>
      </trkpt>
      <trkpt lat="42.81312" lon="1.74251">
        <ele>1723.564</ele>
        <time>2021-03-23T09:44:34Z</time>
      </trkpt>
      <trkpt lat="42.81313" lon="1.74252">
        <ele>1724.212</ele>
        <time>2021-03-23T09:44:36Z</time>
      </trkpt>
      <trkpt lat="42.81314" lon="1.74253">
        <ele>1724.441</ele>
        <time>2021-03-23T09:44:38Z</time>
      </trkpt>
      <trkpt lat="42.81316" lon="1.74254">
        <ele>1724.778</ele>
        <time>2021-03-23T09:44:40Z</time>
      </trkpt>
      <trkpt lat="42.81317" lon="1.74255">
        <ele>1725.018</ele>
        <time>2021-03-23T09:44:42Z</time>
      </trkpt>
      <trkpt lat="42.81318" lon="1.74256">
        <ele>1725.509</ele>
        <time>2021-03-23T09:44:44Z</time>
      </trkpt>
      <trkpt lat="42.8132" lon="1.74258">
        <ele>1725.872</ele>
        <time>2021-03-23T09:44:46Z</time>
      </trkpt>
      <trkpt lat="42.81321" lon="1.74259">
        <ele>1725.982</ele>
        <time>2021-03-23T09:44:48Z</time>
      </trkpt>
      <trkpt lat="42.81322" lon="1.7426">
        <ele>1725.597</ele>
        <time>2021-03-23T09:44:50Z</time>
      </trkpt>
      <trkpt lat="42.81323" lon="1.74261">
        <ele>1725.116</ele>
        <time>2021-03-23T09:44:52Z</time>
      </trkpt>
      <trkpt lat="42.81323" lon="1.74262">
        <ele>1725.15</ele>
        <time>2021-03-23T09:44:54Z</time>
      </trkpt>
      <trkpt lat="42.81324" lon="1.74263">
        <ele>1726.126</ele>
        <time>2021-03-23T09:44:56Z</time>
      </trkpt>
      <trkpt lat="42.81326" lon="1.74264">
        <ele>1725.632</ele>
        <time>2021-03-23T09:44:58Z</time>
      </trkpt>
      <trkpt lat="42.81327" lon="1.74264">
        <ele>1726.394</ele>
        <time>2021-03-23T09:45:00Z</time>
      </trkpt>
      <trkpt lat="42.81329" lon="1.74264">
        <ele>1726.609</ele>
        <time>2021-03-23T09:45:02Z</time>
      </trkpt>
      <trkpt lat="42.8133" lon="1.74264">
        <ele>1726.477</ele>
        <time>2021-03-23T09:45:04Z</time>
      </trkpt>
      <trkpt lat="42.81334" lon="1.74265">
        <ele>1725.975</ele>
        <time>2021-03-23T09:45:11Z</time>
      </trkpt>
      <trkpt lat="42.81336" lon="1.74266">
        <ele>1726.457</ele>
        <time>2021-03-23T09:45:13Z</time>
      </trkpt>
      <trkpt lat="42.81338" lon="1.74266">
        <ele>1726.903</ele>
        <time>2021-03-23T09:45:15Z</time>
      </trkpt>
      <trkpt lat="42.8134" lon="1.74266">
        <ele>1727.417</ele>
        <time>2021-03-23T09:45:17Z</time>
      </trkpt>
      <trkpt lat="42.81342" lon="1.74267">
        <ele>1727.914</ele>
        <time>2021-03-23T09:45:19Z</time>
      </trkpt>
      <trkpt lat="42.81344" lon="1.74268">
        <ele>1728.734</ele>
        <time>2021-03-23T09:45:21Z</time>
      </trkpt>
      <trkpt lat="42.81345" lon="1.74269">
        <ele>1729.514</ele>
        <time>2021-03-23T09:45:23Z</time>
      </trkpt>
      <trkpt lat="42.81347" lon="1.7427">
        <ele>1730.074</ele>
        <time>2021-03-23T09:45:25Z</time>
      </trkpt>
      <trkpt lat="42.81348" lon="1.7427">
        <ele>1730.187</ele>
        <time>2021-03-23T09:45:27Z</time>
      </trkpt>
      <trkpt lat="42.8135" lon="1.74271">
        <ele>1729.929</ele>
        <time>2021-03-23T09:45:29Z</time>
      </trkpt>
      <trkpt lat="42.81351" lon="1.74272">
        <ele>1730.96</ele>
        <time>2021-03-23T09:45:31Z</time>
      </trkpt>
      <trkpt lat="42.81353" lon="1.74273">
        <ele>1731.704</ele>
        <time>2021-03-23T09:45:33Z</time>
      </trkpt>
      <trkpt lat="42.81355" lon="1.74274">
        <ele>1731.193</ele>
        <time>2021-03-23T09:45:35Z</time>
      </trkpt>
      <trkpt lat="42.81356" lon="1.74275">
        <ele>1731.302</ele>
        <time>2021-03-23T09:45:37Z</time>
      </trkpt>
      <trkpt lat="42.81357" lon="1.74276">
        <ele>1732.885</ele>
        <time>2021-03-23T09:45:39Z</time>
      </trkpt>
      <trkpt lat="42.81358" lon="1.74277">
        <ele>1732.575</ele>
        <time>2021-03-23T09:45:41Z</time>
      </trkpt>
      <trkpt lat="42.8136" lon="1.74279">
        <ele>1732.784</ele>
        <time>2021-03-23T09:45:43Z</time>
      </trkpt>
      <trkpt lat="42.81365" lon="1.74284">
        <ele>1733.352</ele>
        <time>2021-03-23T09:45:50Z</time>
      </trkpt>
      <trkpt lat="42.81366" lon="1.74285">
        <ele>1733.524</ele>
        <time>2021-03-23T09:45:52Z</time>
      </trkpt>
      <trkpt lat="42.81368" lon="1.74286">
        <ele>1733.781</ele>
        <time>2021-03-23T09:45:54Z</time>
      </trkpt>
      <trkpt lat="42.8137" lon="1.74287">
        <ele>1734.136</ele>
        <time>2021-03-23T09:45:56Z</time>
      </trkpt>
      <trkpt lat="42.81371" lon="1.74289">
        <ele>1734.154</ele>
        <time>2021-03-23T09:45:58Z</time>
      </trkpt>
      <trkpt lat="42.81371" lon="1.74291">
        <ele>1734.268</ele>
        <time>2021-03-23T09:46:00Z</time>
      </trkpt>
      <trkpt lat="42.81373" lon="1.74293">
        <ele>1734.741</ele>
        <time>2021-03-23T09:46:02Z</time>
      </trkpt>
      <trkpt lat="42.81374" lon="1.74294">
        <ele>1735.164</ele>
        <time>2021-03-23T09:46:04Z</time>
      </trkpt>
      <trkpt lat="42.81375" lon="1.74296">
        <ele>1734.851</ele>
        <time>2021-03-23T09:46:06Z</time>
      </trkpt>
      <trkpt lat="42.81376" lon="1.74296">
        <ele>1734.619</ele>
        <time>2021-03-23T09:46:08Z</time>
      </trkpt>
      <trkpt lat="42.81377" lon="1.74297">
        <ele>1734.91</ele>
        <time>2021-03-23T09:46:10Z</time>
      </trkpt>
      <trkpt lat="42.81378" lon="1.74299">
        <ele>1735.021</ele>
        <time>2021-03-23T09:46:12Z</time>
      </trkpt>
      <trkpt lat="42.81379" lon="1.743">
        <ele>1734.876</ele>
        <time>2021-03-23T09:46:14Z</time>
      </trkpt>
      <trkpt lat="42.8138" lon="1.74302">
        <ele>1734.755</ele>
        <time>2021-03-23T09:46:16Z</time>
      </trkpt>
      <trkpt lat="42.8138" lon="1.74305">
        <ele>1735.165</ele>
        <time>2021-03-23T09:46:18Z</time>
      </trkpt>
      <trkpt lat="42.81382" lon="1.74307">
        <ele>1735.154</ele>
        <time>2021-03-23T09:46:21Z</time>
      </trkpt>
      <trkpt lat="42.81383" lon="1.74308">
        <ele>1734.708</ele>
        <time>2021-03-23T09:46:23Z</time>
      </trkpt>
      <trkpt lat="42.81384" lon="1.7431">
        <ele>1734.015</ele>
        <time>2021-03-23T09:46:25Z</time>
      </trkpt>
      <trkpt lat="42.81385" lon="1.74311">
        <ele>1734.752</ele>
        <time>2021-03-23T09:46:27Z</time>
      </trkpt>
      <trkpt lat="42.81387" lon="1.74312">
        <ele>1734.308</ele>
        <time>2021-03-23T09:46:29Z</time>
      </trkpt>
      <trkpt lat="42.81388" lon="1.74313">
        <ele>1735.179</ele>
        <time>2021-03-23T09:46:31Z</time>
      </trkpt>
      <trkpt lat="42.81389" lon="1.74314">
        <ele>1735.49</ele>
        <time>2021-03-23T09:46:33Z</time>
      </trkpt>
      <trkpt lat="42.81391" lon="1.74315">
        <ele>1736.67</ele>
        <time>2021-03-23T09:46:35Z</time>
      </trkpt>
      <trkpt lat="42.81392" lon="1.74315">
        <ele>1737.231</ele>
        <time>2021-03-23T09:46:37Z</time>
      </trkpt>
      <trkpt lat="42.81392" lon="1.74315">
        <ele>1737.224</ele>
        <time>2021-03-23T09:46:39Z</time>
      </trkpt>
      <trkpt lat="42.81392" lon="1.74316">
        <ele>1737.216</ele>
        <time>2021-03-23T09:46:41Z</time>
      </trkpt>
      <trkpt lat="42.81392" lon="1.74316">
        <ele>1737.22</ele>
        <time>2021-03-23T09:46:43Z</time>
      </trkpt>
      <trkpt lat="42.81393" lon="1.74317">
        <ele>1737.423</ele>
        <time>2021-03-23T09:46:45Z</time>
      </trkpt>
      <trkpt lat="42.81394" lon="1.74318">
        <ele>1738.272</ele>
        <time>2021-03-23T09:46:47Z</time>
      </trkpt>
      <trkpt lat="42.81395" lon="1.74319">
        <ele>1737.679</ele>
        <time>2021-03-23T09:46:49Z</time>
      </trkpt>
      <trkpt lat="42.81397" lon="1.7432">
        <ele>1737.473</ele>
        <time>2021-03-23T09:46:51Z</time>
      </trkpt>
      <trkpt lat="42.81398" lon="1.7432">
        <ele>1737.352</ele>
        <time>2021-03-23T09:46:53Z</time>
      </trkpt>
      <trkpt lat="42.81402" lon="1.7432">
        <ele>1737.208</ele>
        <time>2021-03-23T09:46:59Z</time>
      </trkpt>
      <trkpt lat="42.81403" lon="1.7432">
        <ele>1736.628</ele>
        <time>2021-03-23T09:47:01Z</time>
      </trkpt>
      <trkpt lat="42.81408" lon="1.74318">
        <ele>1737.323</ele>
        <time>2021-03-23T09:47:08Z</time>
      </trkpt>
      <trkpt lat="42.8141" lon="1.74318">
        <ele>1737.756</ele>
        <time>2021-03-23T09:47:10Z</time>
      </trkpt>
      <trkpt lat="42.81412" lon="1.74317">
        <ele>1737.825</ele>
        <time>2021-03-23T09:47:12Z</time>
      </trkpt>
      <trkpt lat="42.81414" lon="1.74316">
        <ele>1737.805</ele>
        <time>2021-03-23T09:47:14Z</time>
      </trkpt>
      <trkpt lat="42.81416" lon="1.74315">
        <ele>1738.054</ele>
        <time>2021-03-23T09:47:16Z</time>
      </trkpt>
      <trkpt lat="42.81418" lon="1.74315">
        <ele>1738.467</ele>
        <time>2021-03-23T09:47:18Z</time>
      </trkpt>
      <trkpt lat="42.8142" lon="1.74314">
        <ele>1738.714</ele>
        <time>2021-03-23T09:47:20Z</time>
      </trkpt>
      <trkpt lat="42.81422" lon="1.74313">
        <ele>1739.389</ele>
        <time>2021-03-23T09:47:22Z</time>
      </trkpt>
      <trkpt lat="42.81425" lon="1.74313">
        <ele>1739.836</ele>
        <time>2021-03-23T09:47:25Z</time>
      </trkpt>
      <trkpt lat="42.81428" lon="1.74313">
        <ele>1740.095</ele>
        <time>2021-03-23T09:47:27Z</time>
      </trkpt>
      <trkpt lat="42.8143" lon="1.74313">
        <ele>1739.585</ele>
        <time>2021-03-23T09:47:29Z</time>
      </trkpt>
      <trkpt lat="42.81431" lon="1.74313">
        <ele>1739.398</ele>
        <time>2021-03-23T09:47:30Z</time>
      </trkpt>
      <trkpt lat="42.81436" lon="1.74312">
        <ele>1740.363</ele>
        <time>2021-03-23T09:47:36Z</time>
      </trkpt>
      <trkpt lat="42.81438" lon="1.74311">
        <ele>1740.835</ele>
        <time>2021-03-23T09:47:42Z</time>
      </trkpt>
      <trkpt lat="42.81439" lon="1.7431">
        <ele>1741.059</ele>
        <time>2021-03-23T09:47:44Z</time>
      </trkpt>
      <trkpt lat="42.8144" lon="1.74308">
        <ele>1741.497</ele>
        <time>2021-03-23T09:47:46Z</time>
      </trkpt>
      <trkpt lat="42.81442" lon="1.74308">
        <ele>1741.636</ele>
        <time>2021-03-23T09:47:48Z</time>
      </trkpt>
      <trkpt lat="42.81443" lon="1.74308">
        <ele>1741.701</ele>
        <time>2021-03-23T09:47:50Z</time>
      </trkpt>
      <trkpt lat="42.81445" lon="1.74308">
        <ele>1741.716</ele>
        <time>2021-03-23T09:47:56Z</time>
      </trkpt>
      <trkpt lat="42.81446" lon="1.74308">
        <ele>1741.987</ele>
        <time>2021-03-23T09:47:58Z</time>
      </trkpt>
      <trkpt lat="42.81446" lon="1.74308">
        <ele>1742.185</ele>
        <time>2021-03-23T09:47:59Z</time>
      </trkpt>
      <trkpt lat="42.81446" lon="1.74309">
        <ele>1741.859</ele>
        <time>2021-03-23T09:48:03Z</time>
      </trkpt>
      <trkpt lat="42.81447" lon="1.74309">
        <ele>1741.218</ele>
        <time>2021-03-23T09:48:05Z</time>
      </trkpt>
      <trkpt lat="42.81449" lon="1.74309">
        <ele>1741.861</ele>
        <time>2021-03-23T09:48:07Z</time>
      </trkpt>
      <trkpt lat="42.81451" lon="1.74309">
        <ele>1741.823</ele>
        <time>2021-03-23T09:48:09Z</time>
      </trkpt>
      <trkpt lat="42.81453" lon="1.7431">
        <ele>1741.082</ele>
        <time>2021-03-23T09:48:11Z</time>
      </trkpt>
      <trkpt lat="42.81455" lon="1.7431">
        <ele>1740.943</ele>
        <time>2021-03-23T09:48:13Z</time>
      </trkpt>
      <trkpt lat="42.81456" lon="1.74312">
        <ele>1740.092</ele>
        <time>2021-03-23T09:48:15Z</time>
      </trkpt>
      <trkpt lat="42.81458" lon="1.74313">
        <ele>1740.932</ele>
        <time>2021-03-23T09:48:17Z</time>
      </trkpt>
      <trkpt lat="42.81461" lon="1.74313">
        <ele>1741.133</ele>
        <time>2021-03-23T09:48:19Z</time>
      </trkpt>
      <trkpt lat="42.81463" lon="1.74314">
        <ele>1740.424</ele>
        <time>2021-03-23T09:48:21Z</time>
      </trkpt>
      <trkpt lat="42.81466" lon="1.74315">
        <ele>1740.805</ele>
        <time>2021-03-23T09:48:23Z</time>
      </trkpt>
      <trkpt lat="42.81468" lon="1.74314">
        <ele>1741.145</ele>
        <time>2021-03-23T09:48:25Z</time>
      </trkpt>
      <trkpt lat="42.8147" lon="1.74314">
        <ele>1741.184</ele>
        <time>2021-03-23T09:48:27Z</time>
      </trkpt>
      <trkpt lat="42.81471" lon="1.74314">
        <ele>1741.015</ele>
        <time>2021-03-23T09:48:29Z</time>
      </trkpt>
      <trkpt lat="42.81473" lon="1.74315">
        <ele>1740.786</ele>
        <time>2021-03-23T09:48:31Z</time>
      </trkpt>
      <trkpt lat="42.81474" lon="1.74315">
        <ele>1741.235</ele>
        <time>2021-03-23T09:48:33Z</time>
      </trkpt>
      <trkpt lat="42.81476" lon="1.74315">
        <ele>1741.155</ele>
        <time>2021-03-23T09:48:35Z</time>
      </trkpt>
      <trkpt lat="42.81477" lon="1.74315">
        <ele>1741.856</ele>
        <time>2021-03-23T09:48:37Z</time>
      </trkpt>
      <trkpt lat="42.81478" lon="1.74316">
        <ele>1742.228</ele>
        <time>2021-03-23T09:48:39Z</time>
      </trkpt>
      <trkpt lat="42.81479" lon="1.74316">
        <ele>1742.002</ele>
        <time>2021-03-23T09:48:41Z</time>
      </trkpt>
      <trkpt lat="42.81481" lon="1.74317">
        <ele>1741.122</ele>
        <time>2021-03-23T09:48:43Z</time>
      </trkpt>
      <trkpt lat="42.81482" lon="1.74319">
        <ele>1742.378</ele>
        <time>2021-03-23T09:48:45Z</time>
      </trkpt>
      <trkpt lat="42.81484" lon="1.74319">
        <ele>1742.052</ele>
        <time>2021-03-23T09:48:47Z</time>
      </trkpt>
      <trkpt lat="42.81486" lon="1.74321">
        <ele>1741.45</ele>
        <time>2021-03-23T09:48:49Z</time>
      </trkpt>
      <trkpt lat="42.81487" lon="1.74322">
        <ele>1741.513</ele>
        <time>2021-03-23T09:48:51Z</time>
      </trkpt>
      <trkpt lat="42.81489" lon="1.74324">
        <ele>1741.434</ele>
        <time>2021-03-23T09:48:53Z</time>
      </trkpt>
      <trkpt lat="42.81491" lon="1.74326">
        <ele>1741.47</ele>
        <time>2021-03-23T09:48:55Z</time>
      </trkpt>
      <trkpt lat="42.81492" lon="1.74328">
        <ele>1741.145</ele>
        <time>2021-03-23T09:48:57Z</time>
      </trkpt>
      <trkpt lat="42.81494" lon="1.7433">
        <ele>1741.249</ele>
        <time>2021-03-23T09:48:59Z</time>
      </trkpt>
      <trkpt lat="42.81496" lon="1.74331">
        <ele>1741.056</ele>
        <time>2021-03-23T09:49:01Z</time>
      </trkpt>
      <trkpt lat="42.81497" lon="1.74332">
        <ele>1740.902</ele>
        <time>2021-03-23T09:49:03Z</time>
      </trkpt>
      <trkpt lat="42.81499" lon="1.74333">
        <ele>1740.984</ele>
        <time>2021-03-23T09:49:05Z</time>
      </trkpt>
      <trkpt lat="42.81501" lon="1.74334">
        <ele>1740.828</ele>
        <time>2021-03-23T09:49:07Z</time>
      </trkpt>
      <trkpt lat="42.81503" lon="1.74336">
        <ele>1740.794</ele>
        <time>2021-03-23T09:49:09Z</time>
      </trkpt>
      <trkpt lat="42.81504" lon="1.74336">
        <ele>1741.244</ele>
        <time>2021-03-23T09:49:11Z</time>
      </trkpt>
      <trkpt lat="42.81506" lon="1.74337">
        <ele>1741.033</ele>
        <time>2021-03-23T09:49:13Z</time>
      </trkpt>
      <trkpt lat="42.81508" lon="1.74338">
        <ele>1741.3</ele>
        <time>2021-03-23T09:49:15Z</time>
      </trkpt>
      <trkpt lat="42.81508" lon="1.74339">
        <ele>1740.964</ele>
        <time>2021-03-23T09:49:16Z</time>
      </trkpt>
      <trkpt lat="42.81513" lon="1.74341">
        <ele>1742.933</ele>
        <time>2021-03-23T09:49:23Z</time>
      </trkpt>
      <trkpt lat="42.81515" lon="1.74342">
        <ele>1741.808</ele>
        <time>2021-03-23T09:49:25Z</time>
      </trkpt>
      <trkpt lat="42.81517" lon="1.74343">
        <ele>1741.553</ele>
        <time>2021-03-23T09:49:27Z</time>
      </trkpt>
      <trkpt lat="42.81518" lon="1.74343">
        <ele>1741.445</ele>
        <time>2021-03-23T09:49:29Z</time>
      </trkpt>
      <trkpt lat="42.81519" lon="1.74344">
        <ele>1741.233</ele>
        <time>2021-03-23T09:49:31Z</time>
      </trkpt>
      <trkpt lat="42.81519" lon="1.74344">
        <ele>1741.225</ele>
        <time>2021-03-23T09:49:33Z</time>
      </trkpt>
      <trkpt lat="42.81519" lon="1.74344">
        <ele>1741.216</ele>
        <time>2021-03-23T09:49:35Z</time>
      </trkpt>
      <trkpt lat="42.81519" lon="1.74344">
        <ele>1741.217</ele>
        <time>2021-03-23T09:49:37Z</time>
      </trkpt>
      <trkpt lat="42.81519" lon="1.74344">
        <ele>1741.223</ele>
        <time>2021-03-23T09:49:39Z</time>
      </trkpt>
      <trkpt lat="42.81519" lon="1.74344">
        <ele>1741.213</ele>
        <time>2021-03-23T09:49:41Z</time>
      </trkpt>
      <trkpt lat="42.81519" lon="1.74344">
        <ele>1741.192</ele>
        <time>2021-03-23T09:49:43Z</time>
      </trkpt>
      <trkpt lat="42.81519" lon="1.74344">
        <ele>1741.171</ele>
        <time>2021-03-23T09:49:45Z</time>
      </trkpt>
      <trkpt lat="42.81519" lon="1.74344">
        <ele>1741.16</ele>
        <time>2021-03-23T09:49:47Z</time>
      </trkpt>
      <trkpt lat="42.81519" lon="1.74344">
        <ele>1741.17</ele>
        <time>2021-03-23T09:49:49Z</time>
      </trkpt>
      <trkpt lat="42.81519" lon="1.74344">
        <ele>1741.183</ele>
        <time>2021-03-23T09:49:51Z</time>
      </trkpt>
      <trkpt lat="42.81519" lon="1.74344">
        <ele>1741.168</ele>
        <time>2021-03-23T09:49:53Z</time>
      </trkpt>
      <trkpt lat="42.81519" lon="1.74344">
        <ele>1741.153</ele>
        <time>2021-03-23T09:49:55Z</time>
      </trkpt>
      <trkpt lat="42.81519" lon="1.74344">
        <ele>1741.153</ele>
        <time>2021-03-23T09:49:57Z</time>
      </trkpt>
      <trkpt lat="42.81519" lon="1.74344">
        <ele>1741.147</ele>
        <time>2021-03-23T09:49:59Z</time>
      </trkpt>
      <trkpt lat="42.81519" lon="1.74344">
        <ele>1741.137</ele>
        <time>2021-03-23T09:50:01Z</time>
      </trkpt>
      <trkpt lat="42.81519" lon="1.74344">
        <ele>1741.132</ele>
        <time>2021-03-23T09:50:03Z</time>
      </trkpt>
      <trkpt lat="42.81519" lon="1.74344">
        <ele>1741.132</ele>
        <time>2021-03-23T09:50:05Z</time>
      </trkpt>
      <trkpt lat="42.81519" lon="1.74344">
        <ele>1741.13</ele>
        <time>2021-03-23T09:50:07Z</time>
      </trkpt>
      <trkpt lat="42.81519" lon="1.74344">
        <ele>1741.117</ele>
        <time>2021-03-23T09:50:09Z</time>
      </trkpt>
      <trkpt lat="42.81519" lon="1.74344">
        <ele>1741.092</ele>
        <time>2021-03-23T09:50:11Z</time>
      </trkpt>
      <trkpt lat="42.81519" lon="1.74344">
        <ele>1741.104</ele>
        <time>2021-03-23T09:50:13Z</time>
      </trkpt>
      <trkpt lat="42.81519" lon="1.74344">
        <ele>1741.089</ele>
        <time>2021-03-23T09:50:15Z</time>
      </trkpt>
      <trkpt lat="42.81519" lon="1.74344">
        <ele>1741.089</ele>
        <time>2021-03-23T09:50:17Z</time>
      </trkpt>
      <trkpt lat="42.81519" lon="1.74344">
        <ele>1741.091</ele>
        <time>2021-03-23T09:50:19Z</time>
      </trkpt>
      <trkpt lat="42.81519" lon="1.74344">
        <ele>1741.065</ele>
        <time>2021-03-23T09:50:21Z</time>
      </trkpt>
      <trkpt lat="42.81519" lon="1.74344">
        <ele>1741.05</ele>
        <time>2021-03-23T09:50:23Z</time>
      </trkpt>
      <trkpt lat="42.81519" lon="1.74344">
        <ele>1741.041</ele>
        <time>2021-03-23T09:50:25Z</time>
      </trkpt>
      <trkpt lat="42.81519" lon="1.74344">
        <ele>1741.03</ele>
        <time>2021-03-23T09:50:27Z</time>
      </trkpt>
      <trkpt lat="42.81519" lon="1.74344">
        <ele>1741.023</ele>
        <time>2021-03-23T09:50:29Z</time>
      </trkpt>
      <trkpt lat="42.8152" lon="1.74345">
        <ele>1741.349</ele>
        <time>2021-03-23T09:50:31Z</time>
      </trkpt>
      <trkpt lat="42.81521" lon="1.74345">
        <ele>1742.089</ele>
        <time>2021-03-23T09:50:33Z</time>
      </trkpt>
      <trkpt lat="42.81523" lon="1.74346">
        <ele>1741.489</ele>
        <time>2021-03-23T09:50:35Z</time>
      </trkpt>
      <trkpt lat="42.81524" lon="1.74347">
        <ele>1741.806</ele>
        <time>2021-03-23T09:50:37Z</time>
      </trkpt>
      <trkpt lat="42.81526" lon="1.74348">
        <ele>1742.137</ele>
        <time>2021-03-23T09:50:39Z</time>
      </trkpt>
      <trkpt lat="42.81527" lon="1.74349">
        <ele>1741.283</ele>
        <time>2021-03-23T09:50:41Z</time>
      </trkpt>
      <trkpt lat="42.81528" lon="1.74349">
        <ele>1740.784</ele>
        <time>2021-03-23T09:50:43Z</time>
      </trkpt>
      <trkpt lat="42.8153" lon="1.74349">
        <ele>1741.653</ele>
        <time>2021-03-23T09:50:45Z</time>
      </trkpt>
      <trkpt lat="42.81531" lon="1.7435">
        <ele>1741.626</ele>
        <time>2021-03-23T09:50:47Z</time>
      </trkpt>
      <trkpt lat="42.81533" lon="1.7435">
        <ele>1742.571</ele>
        <time>2021-03-23T09:50:49Z</time>
      </trkpt>
      <trkpt lat="42.81534" lon="1.7435">
        <ele>1742.34</ele>
        <time>2021-03-23T09:50:51Z</time>
      </trkpt>
      <trkpt lat="42.81536" lon="1.7435">
        <ele>1742.806</ele>
        <time>2021-03-23T09:50:53Z</time>
      </trkpt>
      <trkpt lat="42.81537" lon="1.7435">
        <ele>1742.949</ele>
        <time>2021-03-23T09:50:55Z</time>
      </trkpt>
      <trkpt lat="42.81538" lon="1.7435">
        <ele>1742.561</ele>
        <time>2021-03-23T09:50:57Z</time>
      </trkpt>
      <trkpt lat="42.81539" lon="1.74351">
        <ele>1742.055</ele>
        <time>2021-03-23T09:50:59Z</time>
      </trkpt>
      <trkpt lat="42.81541" lon="1.74351">
        <ele>1742.824</ele>
        <time>2021-03-23T09:51:01Z</time>
      </trkpt>
      <trkpt lat="42.81541" lon="1.74352">
        <ele>1743.272</ele>
        <time>2021-03-23T09:51:03Z</time>
      </trkpt>
      <trkpt lat="42.81541" lon="1.74351">
        <ele>1743.458</ele>
        <time>2021-03-23T09:51:05Z</time>
      </trkpt>
      <trkpt lat="42.81541" lon="1.74351">
        <ele>1743.46</ele>
        <time>2021-03-23T09:51:07Z</time>
      </trkpt>
      <trkpt lat="42.81541" lon="1.74351">
        <ele>1743.463</ele>
        <time>2021-03-23T09:51:09Z</time>
      </trkpt>
      <trkpt lat="42.81541" lon="1.74351">
        <ele>1743.606</ele>
        <time>2021-03-23T09:51:11Z</time>
      </trkpt>
      <trkpt lat="42.81541" lon="1.74351">
        <ele>1743.927</ele>
        <time>2021-03-23T09:51:13Z</time>
      </trkpt>
      <trkpt lat="42.81543" lon="1.7435">
        <ele>1744.735</ele>
        <time>2021-03-23T09:51:15Z</time>
      </trkpt>
      <trkpt lat="42.81544" lon="1.74348">
        <ele>1744.427</ele>
        <time>2021-03-23T09:51:17Z</time>
      </trkpt>
      <trkpt lat="42.81544" lon="1.74348">
        <ele>1745.388</ele>
        <time>2021-03-23T09:51:19Z</time>
      </trkpt>
      <trkpt lat="42.81544" lon="1.74348">
        <ele>1745.379</ele>
        <time>2021-03-23T09:51:21Z</time>
      </trkpt>
      <trkpt lat="42.81544" lon="1.74347">
        <ele>1745.268</ele>
        <time>2021-03-23T09:51:23Z</time>
      </trkpt>
      <trkpt lat="42.81544" lon="1.74347">
        <ele>1745.259</ele>
        <time>2021-03-23T09:51:25Z</time>
      </trkpt>
      <trkpt lat="42.81543" lon="1.74347">
        <ele>1745.258</ele>
        <time>2021-03-23T09:51:27Z</time>
      </trkpt>
      <trkpt lat="42.81543" lon="1.74347">
        <ele>1745.248</ele>
        <time>2021-03-23T09:51:29Z</time>
      </trkpt>
      <trkpt lat="42.81543" lon="1.74347">
        <ele>1745.237</ele>
        <time>2021-03-23T09:51:31Z</time>
      </trkpt>
      <trkpt lat="42.81543" lon="1.74347">
        <ele>1745.234</ele>
        <time>2021-03-23T09:51:33Z</time>
      </trkpt>
      <trkpt lat="42.81543" lon="1.74347">
        <ele>1745.219</ele>
        <time>2021-03-23T09:51:35Z</time>
      </trkpt>
      <trkpt lat="42.81543" lon="1.74347">
        <ele>1745.203</ele>
        <time>2021-03-23T09:51:37Z</time>
      </trkpt>
      <trkpt lat="42.81543" lon="1.74347">
        <ele>1745.632</ele>
        <time>2021-03-23T09:51:39Z</time>
      </trkpt>
      <trkpt lat="42.81544" lon="1.74347">
        <ele>1746.901</ele>
        <time>2021-03-23T09:51:41Z</time>
      </trkpt>
      <trkpt lat="42.81544" lon="1.74347">
        <ele>1746.876</ele>
        <time>2021-03-23T09:51:43Z</time>
      </trkpt>
      <trkpt lat="42.81544" lon="1.74347">
        <ele>1746.883</ele>
        <time>2021-03-23T09:51:45Z</time>
      </trkpt>
      <trkpt lat="42.81544" lon="1.74347">
        <ele>1746.896</ele>
        <time>2021-03-23T09:51:47Z</time>
      </trkpt>
      <trkpt lat="42.81544" lon="1.74347">
        <ele>1746.497</ele>
        <time>2021-03-23T09:51:49Z</time>
      </trkpt>
      <trkpt lat="42.81545" lon="1.74347">
        <ele>1746.711</ele>
        <time>2021-03-23T09:51:51Z</time>
      </trkpt>
      <trkpt lat="42.81545" lon="1.74347">
        <ele>1746.902</ele>
        <time>2021-03-23T09:51:53Z</time>
      </trkpt>
      <trkpt lat="42.81545" lon="1.74347">
        <ele>1746.917</ele>
        <time>2021-03-23T09:51:55Z</time>
      </trkpt>
      <trkpt lat="42.81545" lon="1.74347">
        <ele>1746.914</ele>
        <time>2021-03-23T09:51:57Z</time>
      </trkpt>
      <trkpt lat="42.81545" lon="1.74347">
        <ele>1746.914</ele>
        <time>2021-03-23T09:51:59Z</time>
      </trkpt>
      <trkpt lat="42.81545" lon="1.74347">
        <ele>1746.782</ele>
        <time>2021-03-23T09:52:01Z</time>
      </trkpt>
      <trkpt lat="42.81545" lon="1.74346">
        <ele>1746.491</ele>
        <time>2021-03-23T09:52:03Z</time>
      </trkpt>
      <trkpt lat="42.81546" lon="1.74345">
        <ele>1746.363</ele>
        <time>2021-03-23T09:52:05Z</time>
      </trkpt>
      <trkpt lat="42.81547" lon="1.74344">
        <ele>1746.556</ele>
        <time>2021-03-23T09:52:07Z</time>
      </trkpt>
      <trkpt lat="42.81547" lon="1.74344">
        <ele>1746.557</ele>
        <time>2021-03-23T09:52:09Z</time>
      </trkpt>
      <trkpt lat="42.81547" lon="1.74344">
        <ele>1746.556</ele>
        <time>2021-03-23T09:52:11Z</time>
      </trkpt>
      <trkpt lat="42.81547" lon="1.74344">
        <ele>1746.558</ele>
        <time>2021-03-23T09:52:13Z</time>
      </trkpt>
      <trkpt lat="42.81547" lon="1.74344">
        <ele>1746.563</ele>
        <time>2021-03-23T09:52:15Z</time>
      </trkpt>
      <trkpt lat="42.81547" lon="1.74344">
        <ele>1746.569</ele>
        <time>2021-03-23T09:52:17Z</time>
      </trkpt>
      <trkpt lat="42.81547" lon="1.74344">
        <ele>1746.546</ele>
        <time>2021-03-23T09:52:19Z</time>
      </trkpt>
      <trkpt lat="42.81547" lon="1.74344">
        <ele>1746.547</ele>
        <time>2021-03-23T09:52:21Z</time>
      </trkpt>
      <trkpt lat="42.81547" lon="1.74344">
        <ele>1746.542</ele>
        <time>2021-03-23T09:52:23Z</time>
      </trkpt>
      <trkpt lat="42.81547" lon="1.74344">
        <ele>1746.545</ele>
        <time>2021-03-23T09:52:25Z</time>
      </trkpt>
      <trkpt lat="42.81547" lon="1.74344">
        <ele>1746.725</ele>
        <time>2021-03-23T09:52:27Z</time>
      </trkpt>
      <trkpt lat="42.81547" lon="1.74345">
        <ele>1747.089</ele>
        <time>2021-03-23T09:52:29Z</time>
      </trkpt>
      <trkpt lat="42.81546" lon="1.74346">
        <ele>1747.566</ele>
        <time>2021-03-23T09:52:31Z</time>
      </trkpt>
      <trkpt lat="42.81545" lon="1.74346">
        <ele>1747.8</ele>
        <time>2021-03-23T09:52:33Z</time>
      </trkpt>
      <trkpt lat="42.81545" lon="1.74346">
        <ele>1748.108</ele>
        <time>2021-03-23T09:52:35Z</time>
      </trkpt>
      <trkpt lat="42.81545" lon="1.74347">
        <ele>1747.62</ele>
        <time>2021-03-23T09:52:37Z</time>
      </trkpt>
      <trkpt lat="42.81545" lon="1.74347">
        <ele>1747.817</ele>
        <time>2021-03-23T09:52:39Z</time>
      </trkpt>
      <trkpt lat="42.81544" lon="1.74347">
        <ele>1748.287</ele>
        <time>2021-03-23T09:52:41Z</time>
      </trkpt>
      <trkpt lat="42.81544" lon="1.74347">
        <ele>1748.284</ele>
        <time>2021-03-23T09:52:43Z</time>
      </trkpt>
      <trkpt lat="42.81544" lon="1.74347">
        <ele>1748.278</ele>
        <time>2021-03-23T09:52:45Z</time>
      </trkpt>
      <trkpt lat="42.81544" lon="1.74347">
        <ele>1748.267</ele>
        <time>2021-03-23T09:52:47Z</time>
      </trkpt>
      <trkpt lat="42.81544" lon="1.74347">
        <ele>1748.255</ele>
        <time>2021-03-23T09:52:49Z</time>
      </trkpt>
      <trkpt lat="42.81544" lon="1.74347">
        <ele>1748.255</ele>
        <time>2021-03-23T09:52:51Z</time>
      </trkpt>
      <trkpt lat="42.81544" lon="1.74347">
        <ele>1748.239</ele>
        <time>2021-03-23T09:52:53Z</time>
      </trkpt>
      <trkpt lat="42.81544" lon="1.74347">
        <ele>1748.14</ele>
        <time>2021-03-23T09:52:55Z</time>
      </trkpt>
      <trkpt lat="42.81545" lon="1.74347">
        <ele>1748.153</ele>
        <time>2021-03-23T09:52:57Z</time>
      </trkpt>
      <trkpt lat="42.81545" lon="1.74347">
        <ele>1748.157</ele>
        <time>2021-03-23T09:52:59Z</time>
      </trkpt>
      <trkpt lat="42.81545" lon="1.74347">
        <ele>1748.16</ele>
        <time>2021-03-23T09:53:01Z</time>
      </trkpt>
      <trkpt lat="42.81545" lon="1.74347">
        <ele>1748.16</ele>
        <time>2021-03-23T09:53:03Z</time>
      </trkpt>
      <trkpt lat="42.81545" lon="1.74347">
        <ele>1748.16</ele>
        <time>2021-03-23T09:53:05Z</time>
      </trkpt>
      <trkpt lat="42.81545" lon="1.74347">
        <ele>1748.153</ele>
        <time>2021-03-23T09:53:07Z</time>
      </trkpt>
      <trkpt lat="42.81545" lon="1.74347">
        <ele>1748.139</ele>
        <time>2021-03-23T09:53:09Z</time>
      </trkpt>
      <trkpt lat="42.81544" lon="1.74347">
        <ele>1747.801</ele>
        <time>2021-03-23T09:53:11Z</time>
      </trkpt>
      <trkpt lat="42.81544" lon="1.74348">
        <ele>1748.168</ele>
        <time>2021-03-23T09:53:13Z</time>
      </trkpt>
      <trkpt lat="42.81543" lon="1.74348">
        <ele>1747.882</ele>
        <time>2021-03-23T09:53:15Z</time>
      </trkpt>
      <trkpt lat="42.81543" lon="1.74348">
        <ele>1747.975</ele>
        <time>2021-03-23T09:53:17Z</time>
      </trkpt>
      <trkpt lat="42.81543" lon="1.74348">
        <ele>1747.973</ele>
        <time>2021-03-23T09:53:19Z</time>
      </trkpt>
      <trkpt lat="42.81543" lon="1.74348">
        <ele>1747.969</ele>
        <time>2021-03-23T09:53:21Z</time>
      </trkpt>
      <trkpt lat="42.81543" lon="1.74348">
        <ele>1747.962</ele>
        <time>2021-03-23T09:53:23Z</time>
      </trkpt>
      <trkpt lat="42.81543" lon="1.74348">
        <ele>1747.963</ele>
        <time>2021-03-23T09:53:25Z</time>
      </trkpt>
      <trkpt lat="42.81543" lon="1.74348">
        <ele>1747.961</ele>
        <time>2021-03-23T09:53:27Z</time>
      </trkpt>
      <trkpt lat="42.81543" lon="1.74348">
        <ele>1747.957</ele>
        <time>2021-03-23T09:53:29Z</time>
      </trkpt>
      <trkpt lat="42.81543" lon="1.74348">
        <ele>1747.953</ele>
        <time>2021-03-23T09:53:31Z</time>
      </trkpt>
      <trkpt lat="42.81543" lon="1.74348">
        <ele>1747.952</ele>
        <time>2021-03-23T09:53:33Z</time>
      </trkpt>
      <trkpt lat="42.81543" lon="1.74348">
        <ele>1747.937</ele>
        <time>2021-03-23T09:53:35Z</time>
      </trkpt>
      <trkpt lat="42.81543" lon="1.74348">
        <ele>1747.918</ele>
        <time>2021-03-23T09:53:37Z</time>
      </trkpt>
      <trkpt lat="42.81543" lon="1.74348">
        <ele>1747.914</ele>
        <time>2021-03-23T09:53:39Z</time>
      </trkpt>
      <trkpt lat="42.81543" lon="1.74348">
        <ele>1747.914</ele>
        <time>2021-03-23T09:53:41Z</time>
      </trkpt>
      <trkpt lat="42.81543" lon="1.74348">
        <ele>1747.91</ele>
        <time>2021-03-23T09:53:43Z</time>
      </trkpt>
      <trkpt lat="42.81543" lon="1.74348">
        <ele>1747.917</ele>
        <time>2021-03-23T09:53:45Z</time>
      </trkpt>
      <trkpt lat="42.81543" lon="1.74348">
        <ele>1747.91</ele>
        <time>2021-03-23T09:53:47Z</time>
      </trkpt>
      <trkpt lat="42.81543" lon="1.74348">
        <ele>1747.906</ele>
        <time>2021-03-23T09:53:49Z</time>
      </trkpt>
      <trkpt lat="42.81543" lon="1.74348">
        <ele>1747.894</ele>
        <time>2021-03-23T09:53:51Z</time>
      </trkpt>
      <trkpt lat="42.81543" lon="1.74348">
        <ele>1747.9</ele>
        <time>2021-03-23T09:53:53Z</time>
      </trkpt>
      <trkpt lat="42.81543" lon="1.74348">
        <ele>1747.903</ele>
        <time>2021-03-23T09:53:55Z</time>
      </trkpt>
      <trkpt lat="42.81543" lon="1.74348">
        <ele>1747.898</ele>
        <time>2021-03-23T09:53:57Z</time>
      </trkpt>
      <trkpt lat="42.81543" lon="1.74348">
        <ele>1747.897</ele>
        <time>2021-03-23T09:53:59Z</time>
      </trkpt>
      <trkpt lat="42.81543" lon="1.74348">
        <ele>1747.892</ele>
        <time>2021-03-23T09:54:01Z</time>
      </trkpt>
      <trkpt lat="42.81543" lon="1.74348">
        <ele>1747.886</ele>
        <time>2021-03-23T09:54:03Z</time>
      </trkpt>
      <trkpt lat="42.81543" lon="1.74348">
        <ele>1747.889</ele>
        <time>2021-03-23T09:54:05Z</time>
      </trkpt>
      <trkpt lat="42.81543" lon="1.74348">
        <ele>1747.886</ele>
        <time>2021-03-23T09:54:07Z</time>
      </trkpt>
      <trkpt lat="42.81543" lon="1.74348">
        <ele>1747.874</ele>
        <time>2021-03-23T09:54:09Z</time>
      </trkpt>
      <trkpt lat="42.81543" lon="1.74348">
        <ele>1747.852</ele>
        <time>2021-03-23T09:54:11Z</time>
      </trkpt>
      <trkpt lat="42.81543" lon="1.74348">
        <ele>1747.862</ele>
        <time>2021-03-23T09:54:13Z</time>
      </trkpt>
      <trkpt lat="42.81543" lon="1.74348">
        <ele>1747.859</ele>
        <time>2021-03-23T09:54:15Z</time>
      </trkpt>
      <trkpt lat="42.81543" lon="1.74348">
        <ele>1747.859</ele>
        <time>2021-03-23T09:54:17Z</time>
      </trkpt>
      <trkpt lat="42.81543" lon="1.74348">
        <ele>1747.858</ele>
        <time>2021-03-23T09:54:19Z</time>
      </trkpt>
      <trkpt lat="42.81543" lon="1.74348">
        <ele>1747.859</ele>
        <time>2021-03-23T09:54:21Z</time>
      </trkpt>
      <trkpt lat="42.81543" lon="1.74348">
        <ele>1747.848</ele>
        <time>2021-03-23T09:54:23Z</time>
      </trkpt>
      <trkpt lat="42.81543" lon="1.74348">
        <ele>1747.836</ele>
        <time>2021-03-23T09:54:25Z</time>
      </trkpt>
      <trkpt lat="42.81543" lon="1.74348">
        <ele>1747.827</ele>
        <time>2021-03-23T09:54:27Z</time>
      </trkpt>
      <trkpt lat="42.81543" lon="1.74348">
        <ele>1747.837</ele>
        <time>2021-03-23T09:54:29Z</time>
      </trkpt>
      <trkpt lat="42.81543" lon="1.74348">
        <ele>1747.825</ele>
        <time>2021-03-23T09:54:31Z</time>
      </trkpt>
      <trkpt lat="42.81543" lon="1.74348">
        <ele>1747.816</ele>
        <time>2021-03-23T09:54:33Z</time>
      </trkpt>
      <trkpt lat="42.81543" lon="1.74348">
        <ele>1747.818</ele>
        <time>2021-03-23T09:54:35Z</time>
      </trkpt>
      <trkpt lat="42.81543" lon="1.74348">
        <ele>1747.817</ele>
        <time>2021-03-23T09:54:37Z</time>
      </trkpt>
      <trkpt lat="42.81543" lon="1.74348">
        <ele>1747.813</ele>
        <time>2021-03-23T09:54:39Z</time>
      </trkpt>
      <trkpt lat="42.81543" lon="1.74348">
        <ele>1747.814</ele>
        <time>2021-03-23T09:54:41Z</time>
      </trkpt>
      <trkpt lat="42.81543" lon="1.74348">
        <ele>1747.81</ele>
        <time>2021-03-23T09:54:43Z</time>
      </trkpt>
      <trkpt lat="42.81543" lon="1.74348">
        <ele>1747.807</ele>
        <time>2021-03-23T09:54:45Z</time>
      </trkpt>
      <trkpt lat="42.81543" lon="1.74348">
        <ele>1747.813</ele>
        <time>2021-03-23T09:54:47Z</time>
      </trkpt>
      <trkpt lat="42.81543" lon="1.74348">
        <ele>1747.813</ele>
        <time>2021-03-23T09:54:49Z</time>
      </trkpt>
      <trkpt lat="42.81543" lon="1.74348">
        <ele>1747.807</ele>
        <time>2021-03-23T09:54:51Z</time>
      </trkpt>
      <trkpt lat="42.81543" lon="1.74348">
        <ele>1747.808</ele>
        <time>2021-03-23T09:54:53Z</time>
      </trkpt>
      <trkpt lat="42.81543" lon="1.74348">
        <ele>1747.809</ele>
        <time>2021-03-23T09:54:55Z</time>
      </trkpt>
      <trkpt lat="42.81543" lon="1.74348">
        <ele>1747.803</ele>
        <time>2021-03-23T09:54:57Z</time>
      </trkpt>
      <trkpt lat="42.81543" lon="1.74348">
        <ele>1747.797</ele>
        <time>2021-03-23T09:54:59Z</time>
      </trkpt>
      <trkpt lat="42.81543" lon="1.74348">
        <ele>1747.799</ele>
        <time>2021-03-23T09:55:01Z</time>
      </trkpt>
      <trkpt lat="42.81543" lon="1.74348">
        <ele>1747.799</ele>
        <time>2021-03-23T09:55:03Z</time>
      </trkpt>
      <trkpt lat="42.81543" lon="1.74348">
        <ele>1747.796</ele>
        <time>2021-03-23T09:55:05Z</time>
      </trkpt>
      <trkpt lat="42.81543" lon="1.74348">
        <ele>1747.788</ele>
        <time>2021-03-23T09:55:07Z</time>
      </trkpt>
      <trkpt lat="42.81543" lon="1.74348">
        <ele>1747.509</ele>
        <time>2021-03-23T09:55:09Z</time>
      </trkpt>
      <trkpt lat="42.81543" lon="1.74348">
        <ele>1747.507</ele>
        <time>2021-03-23T09:55:11Z</time>
      </trkpt>
      <trkpt lat="42.81543" lon="1.74348">
        <ele>1747.511</ele>
        <time>2021-03-23T09:55:13Z</time>
      </trkpt>
      <trkpt lat="42.81543" lon="1.74348">
        <ele>1747.51</ele>
        <time>2021-03-23T09:55:15Z</time>
      </trkpt>
      <trkpt lat="42.81543" lon="1.74348">
        <ele>1747.502</ele>
        <time>2021-03-23T09:55:17Z</time>
      </trkpt>
      <trkpt lat="42.81543" lon="1.74348">
        <ele>1747.505</ele>
        <time>2021-03-23T09:55:19Z</time>
      </trkpt>
      <trkpt lat="42.81543" lon="1.74348">
        <ele>1747.503</ele>
        <time>2021-03-23T09:55:21Z</time>
      </trkpt>
      <trkpt lat="42.81543" lon="1.74348">
        <ele>1747.5</ele>
        <time>2021-03-23T09:55:23Z</time>
      </trkpt>
      <trkpt lat="42.81543" lon="1.74348">
        <ele>1747.501</ele>
        <time>2021-03-23T09:55:25Z</time>
      </trkpt>
      <trkpt lat="42.81543" lon="1.74348">
        <ele>1747.495</ele>
        <time>2021-03-23T09:55:27Z</time>
      </trkpt>
      <trkpt lat="42.81543" lon="1.74348">
        <ele>1747.481</ele>
        <time>2021-03-23T09:55:29Z</time>
      </trkpt>
      <trkpt lat="42.81543" lon="1.74348">
        <ele>1747.481</ele>
        <time>2021-03-23T09:55:31Z</time>
      </trkpt>
      <trkpt lat="42.81543" lon="1.74348">
        <ele>1747.482</ele>
        <time>2021-03-23T09:55:33Z</time>
      </trkpt>
      <trkpt lat="42.81543" lon="1.74348">
        <ele>1747.479</ele>
        <time>2021-03-23T09:55:35Z</time>
      </trkpt>
      <trkpt lat="42.81543" lon="1.74348">
        <ele>1747.472</ele>
        <time>2021-03-23T09:55:37Z</time>
      </trkpt>
      <trkpt lat="42.81543" lon="1.74348">
        <ele>1747.47</ele>
        <time>2021-03-23T09:55:39Z</time>
      </trkpt>
      <trkpt lat="42.81543" lon="1.74348">
        <ele>1747.473</ele>
        <time>2021-03-23T09:55:41Z</time>
      </trkpt>
      <trkpt lat="42.81543" lon="1.74348">
        <ele>1747.475</ele>
        <time>2021-03-23T09:55:43Z</time>
      </trkpt>
      <trkpt lat="42.81543" lon="1.74348">
        <ele>1747.476</ele>
        <time>2021-03-23T09:55:45Z</time>
      </trkpt>
      <trkpt lat="42.81543" lon="1.74348">
        <ele>1747.48</ele>
        <time>2021-03-23T09:55:47Z</time>
      </trkpt>
      <trkpt lat="42.81542" lon="1.74348">
        <ele>1746.877</ele>
        <time>2021-03-23T09:55:49Z</time>
      </trkpt>
      <trkpt lat="42.81543" lon="1.74349">
        <ele>1746.708</ele>
        <time>2021-03-23T09:55:51Z</time>
      </trkpt>
      <trkpt lat="42.81543" lon="1.74349">
        <ele>1746.677</ele>
        <time>2021-03-23T09:55:53Z</time>
      </trkpt>
      <trkpt lat="42.81543" lon="1.74349">
        <ele>1746.663</ele>
        <time>2021-03-23T09:55:55Z</time>
      </trkpt>
      <trkpt lat="42.81543" lon="1.74349">
        <ele>1746.734</ele>
        <time>2021-03-23T09:55:57Z</time>
      </trkpt>
      <trkpt lat="42.81543" lon="1.74349">
        <ele>1746.731</ele>
        <time>2021-03-23T09:55:59Z</time>
      </trkpt>
      <trkpt lat="42.81543" lon="1.74349">
        <ele>1746.72</ele>
        <time>2021-03-23T09:56:01Z</time>
      </trkpt>
      <trkpt lat="42.81543" lon="1.74349">
        <ele>1746.732</ele>
        <time>2021-03-23T09:56:03Z</time>
      </trkpt>
      <trkpt lat="42.81543" lon="1.74349">
        <ele>1746.738</ele>
        <time>2021-03-23T09:56:05Z</time>
      </trkpt>
      <trkpt lat="42.81543" lon="1.74349">
        <ele>1746.747</ele>
        <time>2021-03-23T09:56:07Z</time>
      </trkpt>
      <trkpt lat="42.81543" lon="1.74349">
        <ele>1746.749</ele>
        <time>2021-03-23T09:56:09Z</time>
      </trkpt>
      <trkpt lat="42.81543" lon="1.74349">
        <ele>1746.746</ele>
        <time>2021-03-23T09:56:11Z</time>
      </trkpt>
      <trkpt lat="42.81543" lon="1.74349">
        <ele>1746.736</ele>
        <time>2021-03-23T09:56:13Z</time>
      </trkpt>
      <trkpt lat="42.81543" lon="1.74349">
        <ele>1746.735</ele>
        <time>2021-03-23T09:56:15Z</time>
      </trkpt>
      <trkpt lat="42.81543" lon="1.74349">
        <ele>1746.744</ele>
        <time>2021-03-23T09:56:17Z</time>
      </trkpt>
      <trkpt lat="42.81543" lon="1.74349">
        <ele>1746.748</ele>
        <time>2021-03-23T09:56:19Z</time>
      </trkpt>
      <trkpt lat="42.81543" lon="1.74349">
        <ele>1746.748</ele>
        <time>2021-03-23T09:56:21Z</time>
      </trkpt>
      <trkpt lat="42.81543" lon="1.74349">
        <ele>1746.547</ele>
        <time>2021-03-23T09:56:23Z</time>
      </trkpt>
      <trkpt lat="42.81543" lon="1.7435">
        <ele>1746.542</ele>
        <time>2021-03-23T09:56:25Z</time>
      </trkpt>
      <trkpt lat="42.81543" lon="1.7435">
        <ele>1746.536</ele>
        <time>2021-03-23T09:56:27Z</time>
      </trkpt>
      <trkpt lat="42.81543" lon="1.7435">
        <ele>1746.54</ele>
        <time>2021-03-23T09:56:29Z</time>
      </trkpt>
      <trkpt lat="42.81543" lon="1.7435">
        <ele>1747.013</ele>
        <time>2021-03-23T09:56:31Z</time>
      </trkpt>
      <trkpt lat="42.81543" lon="1.74349">
        <ele>1746.413</ele>
        <time>2021-03-23T09:56:33Z</time>
      </trkpt>
      <trkpt lat="42.81543" lon="1.74349">
        <ele>1746.405</ele>
        <time>2021-03-23T09:56:35Z</time>
      </trkpt>
      <trkpt lat="42.81543" lon="1.74349">
        <ele>1746.41</ele>
        <time>2021-03-23T09:56:37Z</time>
      </trkpt>
      <trkpt lat="42.81543" lon="1.74349">
        <ele>1746.404</ele>
        <time>2021-03-23T09:56:39Z</time>
      </trkpt>
      <trkpt lat="42.81543" lon="1.74349">
        <ele>1746.392</ele>
        <time>2021-03-23T09:56:41Z</time>
      </trkpt>
      <trkpt lat="42.81543" lon="1.74349">
        <ele>1746.392</ele>
        <time>2021-03-23T09:56:43Z</time>
      </trkpt>
      <trkpt lat="42.81543" lon="1.74349">
        <ele>1746.389</ele>
        <time>2021-03-23T09:56:45Z</time>
      </trkpt>
      <trkpt lat="42.81543" lon="1.74349">
        <ele>1746.391</ele>
        <time>2021-03-23T09:56:47Z</time>
      </trkpt>
      <trkpt lat="42.81543" lon="1.74349">
        <ele>1746.39</ele>
        <time>2021-03-23T09:56:49Z</time>
      </trkpt>
      <trkpt lat="42.81543" lon="1.74349">
        <ele>1746.388</ele>
        <time>2021-03-23T09:56:51Z</time>
      </trkpt>
      <trkpt lat="42.81543" lon="1.74349">
        <ele>1746.388</ele>
        <time>2021-03-23T09:56:53Z</time>
      </trkpt>
      <trkpt lat="42.81543" lon="1.74349">
        <ele>1746.389</ele>
        <time>2021-03-23T09:56:55Z</time>
      </trkpt>
      <trkpt lat="42.81543" lon="1.74349">
        <ele>1746.387</ele>
        <time>2021-03-23T09:56:57Z</time>
      </trkpt>
      <trkpt lat="42.81543" lon="1.74349">
        <ele>1746.391</ele>
        <time>2021-03-23T09:56:59Z</time>
      </trkpt>
      <trkpt lat="42.81543" lon="1.74349">
        <ele>1746.39</ele>
        <time>2021-03-23T09:57:01Z</time>
      </trkpt>
      <trkpt lat="42.81543" lon="1.74349">
        <ele>1746.391</ele>
        <time>2021-03-23T09:57:03Z</time>
      </trkpt>
      <trkpt lat="42.81543" lon="1.74349">
        <ele>1746.387</ele>
        <time>2021-03-23T09:57:05Z</time>
      </trkpt>
      <trkpt lat="42.81543" lon="1.74349">
        <ele>1746.38</ele>
        <time>2021-03-23T09:57:07Z</time>
      </trkpt>
      <trkpt lat="42.81543" lon="1.74349">
        <ele>1746.385</ele>
        <time>2021-03-23T09:57:09Z</time>
      </trkpt>
      <trkpt lat="42.81543" lon="1.74349">
        <ele>1746.386</ele>
        <time>2021-03-23T09:57:11Z</time>
      </trkpt>
      <trkpt lat="42.81543" lon="1.74349">
        <ele>1746.384</ele>
        <time>2021-03-23T09:57:13Z</time>
      </trkpt>
      <trkpt lat="42.81543" lon="1.74349">
        <ele>1746.38</ele>
        <time>2021-03-23T09:57:15Z</time>
      </trkpt>
      <trkpt lat="42.81543" lon="1.74349">
        <ele>1746.373</ele>
        <time>2021-03-23T09:57:17Z</time>
      </trkpt>
      <trkpt lat="42.81543" lon="1.74349">
        <ele>1746.376</ele>
        <time>2021-03-23T09:57:19Z</time>
      </trkpt>
      <trkpt lat="42.81543" lon="1.74349">
        <ele>1746.375</ele>
        <time>2021-03-23T09:57:21Z</time>
      </trkpt>
      <trkpt lat="42.81543" lon="1.74349">
        <ele>1746.374</ele>
        <time>2021-03-23T09:57:23Z</time>
      </trkpt>
      <trkpt lat="42.81543" lon="1.74349">
        <ele>1746.378</ele>
        <time>2021-03-23T09:57:25Z</time>
      </trkpt>
      <trkpt lat="42.81543" lon="1.74349">
        <ele>1746.38</ele>
        <time>2021-03-23T09:57:27Z</time>
      </trkpt>
      <trkpt lat="42.81543" lon="1.74349">
        <ele>1746.383</ele>
        <time>2021-03-23T09:57:29Z</time>
      </trkpt>
      <trkpt lat="42.81543" lon="1.74349">
        <ele>1746.382</ele>
        <time>2021-03-23T09:57:31Z</time>
      </trkpt>
      <trkpt lat="42.81543" lon="1.74349">
        <ele>1746.381</ele>
        <time>2021-03-23T09:57:33Z</time>
      </trkpt>
      <trkpt lat="42.81543" lon="1.74349">
        <ele>1746.383</ele>
        <time>2021-03-23T09:57:35Z</time>
      </trkpt>
      <trkpt lat="42.81543" lon="1.74349">
        <ele>1746.385</ele>
        <time>2021-03-23T09:57:37Z</time>
      </trkpt>
      <trkpt lat="42.81543" lon="1.74349">
        <ele>1746.387</ele>
        <time>2021-03-23T09:57:39Z</time>
      </trkpt>
      <trkpt lat="42.81543" lon="1.74349">
        <ele>1746.38</ele>
        <time>2021-03-23T09:57:41Z</time>
      </trkpt>
      <trkpt lat="42.81543" lon="1.74349">
        <ele>1746.375</ele>
        <time>2021-03-23T09:57:43Z</time>
      </trkpt>
      <trkpt lat="42.81543" lon="1.74349">
        <ele>1746.369</ele>
        <time>2021-03-23T09:57:45Z</time>
      </trkpt>
      <trkpt lat="42.81543" lon="1.74349">
        <ele>1746.363</ele>
        <time>2021-03-23T09:57:47Z</time>
      </trkpt>
      <trkpt lat="42.81543" lon="1.74349">
        <ele>1746.352</ele>
        <time>2021-03-23T09:57:49Z</time>
      </trkpt>
      <trkpt lat="42.81543" lon="1.74349">
        <ele>1746.35</ele>
        <time>2021-03-23T09:57:51Z</time>
      </trkpt>
      <trkpt lat="42.81543" lon="1.74349">
        <ele>1746.353</ele>
        <time>2021-03-23T09:57:53Z</time>
      </trkpt>
      <trkpt lat="42.81543" lon="1.74349">
        <ele>1746.352</ele>
        <time>2021-03-23T09:57:55Z</time>
      </trkpt>
      <trkpt lat="42.81543" lon="1.74349">
        <ele>1746.343</ele>
        <time>2021-03-23T09:57:57Z</time>
      </trkpt>
      <trkpt lat="42.81543" lon="1.74349">
        <ele>1746.338</ele>
        <time>2021-03-23T09:57:59Z</time>
      </trkpt>
      <trkpt lat="42.81543" lon="1.74349">
        <ele>1746.336</ele>
        <time>2021-03-23T09:58:01Z</time>
      </trkpt>
      <trkpt lat="42.81543" lon="1.74349">
        <ele>1746.334</ele>
        <time>2021-03-23T09:58:03Z</time>
      </trkpt>
      <trkpt lat="42.81543" lon="1.74349">
        <ele>1746.329</ele>
        <time>2021-03-23T09:58:05Z</time>
      </trkpt>
      <trkpt lat="42.81543" lon="1.74349">
        <ele>1746.326</ele>
        <time>2021-03-23T09:58:07Z</time>
      </trkpt>
      <trkpt lat="42.81543" lon="1.74349">
        <ele>1746.324</ele>
        <time>2021-03-23T09:58:09Z</time>
      </trkpt>
      <trkpt lat="42.81543" lon="1.74349">
        <ele>1746.329</ele>
        <time>2021-03-23T09:58:11Z</time>
      </trkpt>
      <trkpt lat="42.81543" lon="1.74349">
        <ele>1746.331</ele>
        <time>2021-03-23T09:58:13Z</time>
      </trkpt>
      <trkpt lat="42.81543" lon="1.74349">
        <ele>1746.328</ele>
        <time>2021-03-23T09:58:15Z</time>
      </trkpt>
      <trkpt lat="42.81543" lon="1.74349">
        <ele>1746.325</ele>
        <time>2021-03-23T09:58:17Z</time>
      </trkpt>
      <trkpt lat="42.81543" lon="1.74349">
        <ele>1746.325</ele>
        <time>2021-03-23T09:58:19Z</time>
      </trkpt>
      <trkpt lat="42.81543" lon="1.74349">
        <ele>1746.323</ele>
        <time>2021-03-23T09:58:21Z</time>
      </trkpt>
      <trkpt lat="42.81543" lon="1.74349">
        <ele>1746.321</ele>
        <time>2021-03-23T09:58:23Z</time>
      </trkpt>
      <trkpt lat="42.81543" lon="1.74349">
        <ele>1746.32</ele>
        <time>2021-03-23T09:58:25Z</time>
      </trkpt>
      <trkpt lat="42.81543" lon="1.74349">
        <ele>1746.319</ele>
        <time>2021-03-23T09:58:27Z</time>
      </trkpt>
      <trkpt lat="42.81543" lon="1.74349">
        <ele>1746.319</ele>
        <time>2021-03-23T09:58:29Z</time>
      </trkpt>
      <trkpt lat="42.81543" lon="1.74349">
        <ele>1746.318</ele>
        <time>2021-03-23T09:58:31Z</time>
      </trkpt>
      <trkpt lat="42.81543" lon="1.74349">
        <ele>1746.319</ele>
        <time>2021-03-23T09:58:33Z</time>
      </trkpt>
      <trkpt lat="42.81543" lon="1.74349">
        <ele>1746.317</ele>
        <time>2021-03-23T09:58:35Z</time>
      </trkpt>
      <trkpt lat="42.81543" lon="1.74349">
        <ele>1746.317</ele>
        <time>2021-03-23T09:58:37Z</time>
      </trkpt>
      <trkpt lat="42.81543" lon="1.74349">
        <ele>1746.318</ele>
        <time>2021-03-23T09:58:39Z</time>
      </trkpt>
      <trkpt lat="42.81543" lon="1.74349">
        <ele>1746.318</ele>
        <time>2021-03-23T09:58:41Z</time>
      </trkpt>
      <trkpt lat="42.81543" lon="1.74349">
        <ele>1746.318</ele>
        <time>2021-03-23T09:58:43Z</time>
      </trkpt>
      <trkpt lat="42.81543" lon="1.74349">
        <ele>1746.317</ele>
        <time>2021-03-23T09:58:45Z</time>
      </trkpt>
      <trkpt lat="42.81543" lon="1.74349">
        <ele>1746.369</ele>
        <time>2021-03-23T09:58:47Z</time>
      </trkpt>
      <trkpt lat="42.81543" lon="1.7435">
        <ele>1746.284</ele>
        <time>2021-03-23T09:58:49Z</time>
      </trkpt>
      <trkpt lat="42.81543" lon="1.7435">
        <ele>1746.287</ele>
        <time>2021-03-23T09:58:51Z</time>
      </trkpt>
      <trkpt lat="42.81543" lon="1.7435">
        <ele>1746.296</ele>
        <time>2021-03-23T09:58:53Z</time>
      </trkpt>
      <trkpt lat="42.81543" lon="1.7435">
        <ele>1746.305</ele>
        <time>2021-03-23T09:58:55Z</time>
      </trkpt>
      <trkpt lat="42.81543" lon="1.7435">
        <ele>1746.304</ele>
        <time>2021-03-23T09:58:57Z</time>
      </trkpt>
      <trkpt lat="42.81543" lon="1.7435">
        <ele>1746.315</ele>
        <time>2021-03-23T09:58:59Z</time>
      </trkpt>
      <trkpt lat="42.81543" lon="1.7435">
        <ele>1746.312</ele>
        <time>2021-03-23T09:59:01Z</time>
      </trkpt>
      <trkpt lat="42.81543" lon="1.7435">
        <ele>1746.477</ele>
        <time>2021-03-23T09:59:03Z</time>
      </trkpt>
      <trkpt lat="42.81543" lon="1.7435">
        <ele>1746.471</ele>
        <time>2021-03-23T09:59:05Z</time>
      </trkpt>
      <trkpt lat="42.81543" lon="1.7435">
        <ele>1746.47</ele>
        <time>2021-03-23T09:59:07Z</time>
      </trkpt>
      <trkpt lat="42.81543" lon="1.7435">
        <ele>1746.469</ele>
        <time>2021-03-23T09:59:09Z</time>
      </trkpt>
      <trkpt lat="42.81543" lon="1.7435">
        <ele>1746.468</ele>
        <time>2021-03-23T09:59:11Z</time>
      </trkpt>
      <trkpt lat="42.81543" lon="1.7435">
        <ele>1746.469</ele>
        <time>2021-03-23T09:59:13Z</time>
      </trkpt>
      <trkpt lat="42.81543" lon="1.7435">
        <ele>1746.476</ele>
        <time>2021-03-23T09:59:15Z</time>
      </trkpt>
      <trkpt lat="42.81543" lon="1.7435">
        <ele>1746.481</ele>
        <time>2021-03-23T09:59:17Z</time>
      </trkpt>
      <trkpt lat="42.81543" lon="1.7435">
        <ele>1746.484</ele>
        <time>2021-03-23T09:59:19Z</time>
      </trkpt>
      <trkpt lat="42.81543" lon="1.7435">
        <ele>1746.48</ele>
        <time>2021-03-23T09:59:21Z</time>
      </trkpt>
      <trkpt lat="42.81543" lon="1.7435">
        <ele>1746.487</ele>
        <time>2021-03-23T09:59:23Z</time>
      </trkpt>
      <trkpt lat="42.81543" lon="1.7435">
        <ele>1746.49</ele>
        <time>2021-03-23T09:59:25Z</time>
      </trkpt>
      <trkpt lat="42.81543" lon="1.7435">
        <ele>1746.481</ele>
        <time>2021-03-23T09:59:27Z</time>
      </trkpt>
      <trkpt lat="42.81543" lon="1.7435">
        <ele>1746.475</ele>
        <time>2021-03-23T09:59:29Z</time>
      </trkpt>
      <trkpt lat="42.81543" lon="1.7435">
        <ele>1746.481</ele>
        <time>2021-03-23T09:59:31Z</time>
      </trkpt>
      <trkpt lat="42.81543" lon="1.7435">
        <ele>1746.482</ele>
        <time>2021-03-23T09:59:33Z</time>
      </trkpt>
      <trkpt lat="42.81543" lon="1.7435">
        <ele>1746.686</ele>
        <time>2021-03-23T09:59:35Z</time>
      </trkpt>
      <trkpt lat="42.81543" lon="1.7435">
        <ele>1746.236</ele>
        <time>2021-03-23T09:59:37Z</time>
      </trkpt>
      <trkpt lat="42.81543" lon="1.7435">
        <ele>1746.222</ele>
        <time>2021-03-23T09:59:39Z</time>
      </trkpt>
      <trkpt lat="42.81543" lon="1.7435">
        <ele>1746.211</ele>
        <time>2021-03-23T09:59:41Z</time>
      </trkpt>
      <trkpt lat="42.81543" lon="1.7435">
        <ele>1746.207</ele>
        <time>2021-03-23T09:59:43Z</time>
      </trkpt>
      <trkpt lat="42.81543" lon="1.7435">
        <ele>1746.199</ele>
        <time>2021-03-23T09:59:45Z</time>
      </trkpt>
      <trkpt lat="42.81543" lon="1.7435">
        <ele>1745.912</ele>
        <time>2021-03-23T09:59:47Z</time>
      </trkpt>
      <trkpt lat="42.81543" lon="1.74349">
        <ele>1745.497</ele>
        <time>2021-03-23T09:59:49Z</time>
      </trkpt>
      <trkpt lat="42.81543" lon="1.74349">
        <ele>1745.49</ele>
        <time>2021-03-23T09:59:51Z</time>
      </trkpt>
      <trkpt lat="42.81543" lon="1.74349">
        <ele>1745.326</ele>
        <time>2021-03-23T09:59:53Z</time>
      </trkpt>
      <trkpt lat="42.81543" lon="1.74349">
        <ele>1745.317</ele>
        <time>2021-03-23T09:59:55Z</time>
      </trkpt>
      <trkpt lat="42.81543" lon="1.74349">
        <ele>1745.309</ele>
        <time>2021-03-23T09:59:57Z</time>
      </trkpt>
      <trkpt lat="42.81543" lon="1.74349">
        <ele>1745.301</ele>
        <time>2021-03-23T09:59:59Z</time>
      </trkpt>
      <trkpt lat="42.81543" lon="1.74349">
        <ele>1745.3</ele>
        <time>2021-03-23T10:00:01Z</time>
      </trkpt>
      <trkpt lat="42.81543" lon="1.74349">
        <ele>1745.289</ele>
        <time>2021-03-23T10:00:03Z</time>
      </trkpt>
      <trkpt lat="42.81543" lon="1.74349">
        <ele>1745.299</ele>
        <time>2021-03-23T10:00:05Z</time>
      </trkpt>
      <trkpt lat="42.81543" lon="1.74349">
        <ele>1745.286</ele>
        <time>2021-03-23T10:00:07Z</time>
      </trkpt>
      <trkpt lat="42.81543" lon="1.74349">
        <ele>1745.28</ele>
        <time>2021-03-23T10:00:09Z</time>
      </trkpt>
      <trkpt lat="42.81543" lon="1.74349">
        <ele>1745.27</ele>
        <time>2021-03-23T10:00:11Z</time>
      </trkpt>
      <trkpt lat="42.81543" lon="1.74349">
        <ele>1745.27</ele>
        <time>2021-03-23T10:00:13Z</time>
      </trkpt>
      <trkpt lat="42.81543" lon="1.74349">
        <ele>1745.274</ele>
        <time>2021-03-23T10:00:15Z</time>
      </trkpt>
      <trkpt lat="42.81543" lon="1.74349">
        <ele>1745.259</ele>
        <time>2021-03-23T10:00:17Z</time>
      </trkpt>
      <trkpt lat="42.81543" lon="1.74349">
        <ele>1745.243</ele>
        <time>2021-03-23T10:00:19Z</time>
      </trkpt>
      <trkpt lat="42.81543" lon="1.74349">
        <ele>1745.265</ele>
        <time>2021-03-23T10:00:21Z</time>
      </trkpt>
      <trkpt lat="42.81543" lon="1.74349">
        <ele>1745.266</ele>
        <time>2021-03-23T10:00:23Z</time>
      </trkpt>
      <trkpt lat="42.81543" lon="1.74349">
        <ele>1745.271</ele>
        <time>2021-03-23T10:00:25Z</time>
      </trkpt>
      <trkpt lat="42.81543" lon="1.74349">
        <ele>1745.272</ele>
        <time>2021-03-23T10:00:27Z</time>
      </trkpt>
      <trkpt lat="42.81543" lon="1.74349">
        <ele>1745.274</ele>
        <time>2021-03-23T10:00:29Z</time>
      </trkpt>
      <trkpt lat="42.81543" lon="1.74349">
        <ele>1745.271</ele>
        <time>2021-03-23T10:00:31Z</time>
      </trkpt>
      <trkpt lat="42.81543" lon="1.74349">
        <ele>1745.279</ele>
        <time>2021-03-23T10:00:33Z</time>
      </trkpt>
      <trkpt lat="42.81543" lon="1.74349">
        <ele>1745.269</ele>
        <time>2021-03-23T10:00:35Z</time>
      </trkpt>
      <trkpt lat="42.81543" lon="1.74349">
        <ele>1745.259</ele>
        <time>2021-03-23T10:00:37Z</time>
      </trkpt>
      <trkpt lat="42.81543" lon="1.74349">
        <ele>1745.246</ele>
        <time>2021-03-23T10:00:39Z</time>
      </trkpt>
      <trkpt lat="42.81543" lon="1.74349">
        <ele>1745.237</ele>
        <time>2021-03-23T10:00:41Z</time>
      </trkpt>
      <trkpt lat="42.81543" lon="1.74349">
        <ele>1745.213</ele>
        <time>2021-03-23T10:00:43Z</time>
      </trkpt>
      <trkpt lat="42.81543" lon="1.74349">
        <ele>1744.861</ele>
        <time>2021-03-23T10:00:45Z</time>
      </trkpt>
      <trkpt lat="42.81543" lon="1.74349">
        <ele>1744.845</ele>
        <time>2021-03-23T10:00:47Z</time>
      </trkpt>
      <trkpt lat="42.81543" lon="1.74349">
        <ele>1744.85</ele>
        <time>2021-03-23T10:00:49Z</time>
      </trkpt>
      <trkpt lat="42.81543" lon="1.7435">
        <ele>1744.398</ele>
        <time>2021-03-23T10:00:51Z</time>
      </trkpt>
      <trkpt lat="42.81543" lon="1.7435">
        <ele>1744.928</ele>
        <time>2021-03-23T10:00:53Z</time>
      </trkpt>
      <trkpt lat="42.81543" lon="1.7435">
        <ele>1744.934</ele>
        <time>2021-03-23T10:00:55Z</time>
      </trkpt>
      <trkpt lat="42.81543" lon="1.74349">
        <ele>1744.933</ele>
        <time>2021-03-23T10:00:57Z</time>
      </trkpt>
      <trkpt lat="42.81543" lon="1.74349">
        <ele>1744.931</ele>
        <time>2021-03-23T10:00:59Z</time>
      </trkpt>
      <trkpt lat="42.81543" lon="1.74349">
        <ele>1744.928</ele>
        <time>2021-03-23T10:01:01Z</time>
      </trkpt>
      <trkpt lat="42.81543" lon="1.74349">
        <ele>1744.926</ele>
        <time>2021-03-23T10:01:03Z</time>
      </trkpt>
      <trkpt lat="42.81543" lon="1.74349">
        <ele>1744.929</ele>
        <time>2021-03-23T10:01:05Z</time>
      </trkpt>
      <trkpt lat="42.81543" lon="1.74349">
        <ele>1744.927</ele>
        <time>2021-03-23T10:01:07Z</time>
      </trkpt>
      <trkpt lat="42.81543" lon="1.74349">
        <ele>1744.924</ele>
        <time>2021-03-23T10:01:09Z</time>
      </trkpt>
      <trkpt lat="42.81543" lon="1.74349">
        <ele>1744.995</ele>
        <time>2021-03-23T10:01:11Z</time>
      </trkpt>
      <trkpt lat="42.81544" lon="1.74349">
        <ele>1744.995</ele>
        <time>2021-03-23T10:01:13Z</time>
      </trkpt>
      <trkpt lat="42.81544" lon="1.7435">
        <ele>1745.004</ele>
        <time>2021-03-23T10:01:15Z</time>
      </trkpt>
      <trkpt lat="42.81544" lon="1.7435">
        <ele>1745.001</ele>
        <time>2021-03-23T10:01:17Z</time>
      </trkpt>
      <trkpt lat="42.81544" lon="1.7435">
        <ele>1744.996</ele>
        <time>2021-03-23T10:01:19Z</time>
      </trkpt>
      <trkpt lat="42.81544" lon="1.7435">
        <ele>1744.984</ele>
        <time>2021-03-23T10:01:21Z</time>
      </trkpt>
      <trkpt lat="42.81544" lon="1.7435">
        <ele>1744.964</ele>
        <time>2021-03-23T10:01:23Z</time>
      </trkpt>
      <trkpt lat="42.81544" lon="1.7435">
        <ele>1744.951</ele>
        <time>2021-03-23T10:01:25Z</time>
      </trkpt>
      <trkpt lat="42.81544" lon="1.7435">
        <ele>1744.939</ele>
        <time>2021-03-23T10:01:27Z</time>
      </trkpt>
      <trkpt lat="42.81544" lon="1.7435">
        <ele>1744.921</ele>
        <time>2021-03-23T10:01:29Z</time>
      </trkpt>
      <trkpt lat="42.81544" lon="1.74349">
        <ele>1744.837</ele>
        <time>2021-03-23T10:01:31Z</time>
      </trkpt>
      <trkpt lat="42.81544" lon="1.74349">
        <ele>1744.832</ele>
        <time>2021-03-23T10:01:33Z</time>
      </trkpt>
      <trkpt lat="42.81544" lon="1.74349">
        <ele>1745.047</ele>
        <time>2021-03-23T10:01:35Z</time>
      </trkpt>
      <trkpt lat="42.81544" lon="1.74349">
        <ele>1745.05</ele>
        <time>2021-03-23T10:01:37Z</time>
      </trkpt>
      <trkpt lat="42.81544" lon="1.74349">
        <ele>1745.043</ele>
        <time>2021-03-23T10:01:39Z</time>
      </trkpt>
      <trkpt lat="42.81544" lon="1.74349">
        <ele>1744.683</ele>
        <time>2021-03-23T10:01:41Z</time>
      </trkpt>
      <trkpt lat="42.81544" lon="1.74349">
        <ele>1744.675</ele>
        <time>2021-03-23T10:01:43Z</time>
      </trkpt>
      <trkpt lat="42.81544" lon="1.74349">
        <ele>1744.713</ele>
        <time>2021-03-23T10:01:45Z</time>
      </trkpt>
      <trkpt lat="42.81544" lon="1.74349">
        <ele>1744.703</ele>
        <time>2021-03-23T10:01:47Z</time>
      </trkpt>
      <trkpt lat="42.81543" lon="1.74349">
        <ele>1744.699</ele>
        <time>2021-03-23T10:01:49Z</time>
      </trkpt>
      <trkpt lat="42.81543" lon="1.74349">
        <ele>1744.415</ele>
        <time>2021-03-23T10:01:51Z</time>
      </trkpt>
      <trkpt lat="42.81543" lon="1.74349">
        <ele>1744.409</ele>
        <time>2021-03-23T10:01:53Z</time>
      </trkpt>
      <trkpt lat="42.81543" lon="1.74349">
        <ele>1744.412</ele>
        <time>2021-03-23T10:01:55Z</time>
      </trkpt>
      <trkpt lat="42.81543" lon="1.74349">
        <ele>1744.418</ele>
        <time>2021-03-23T10:01:57Z</time>
      </trkpt>
      <trkpt lat="42.81543" lon="1.74349">
        <ele>1744.421</ele>
        <time>2021-03-23T10:01:59Z</time>
      </trkpt>
      <trkpt lat="42.81543" lon="1.74349">
        <ele>1744.425</ele>
        <time>2021-03-23T10:02:01Z</time>
      </trkpt>
      <trkpt lat="42.81543" lon="1.74349">
        <ele>1744.423</ele>
        <time>2021-03-23T10:02:03Z</time>
      </trkpt>
      <trkpt lat="42.81543" lon="1.74349">
        <ele>1744.42</ele>
        <time>2021-03-23T10:02:05Z</time>
      </trkpt>
      <trkpt lat="42.81543" lon="1.74349">
        <ele>1744.421</ele>
        <time>2021-03-23T10:02:07Z</time>
      </trkpt>
      <trkpt lat="42.81543" lon="1.74349">
        <ele>1744.412</ele>
        <time>2021-03-23T10:02:09Z</time>
      </trkpt>
      <trkpt lat="42.81543" lon="1.74349">
        <ele>1744.419</ele>
        <time>2021-03-23T10:02:11Z</time>
      </trkpt>
      <trkpt lat="42.81543" lon="1.74349">
        <ele>1744.422</ele>
        <time>2021-03-23T10:02:13Z</time>
      </trkpt>
      <trkpt lat="42.81543" lon="1.74349">
        <ele>1744.427</ele>
        <time>2021-03-23T10:02:15Z</time>
      </trkpt>
      <trkpt lat="42.81543" lon="1.74349">
        <ele>1744.43</ele>
        <time>2021-03-23T10:02:17Z</time>
      </trkpt>
      <trkpt lat="42.81543" lon="1.74349">
        <ele>1744.434</ele>
        <time>2021-03-23T10:02:19Z</time>
      </trkpt>
      <trkpt lat="42.81543" lon="1.74349">
        <ele>1744.442</ele>
        <time>2021-03-23T10:02:21Z</time>
      </trkpt>
      <trkpt lat="42.81543" lon="1.74349">
        <ele>1744.442</ele>
        <time>2021-03-23T10:02:23Z</time>
      </trkpt>
      <trkpt lat="42.81543" lon="1.74349">
        <ele>1744.444</ele>
        <time>2021-03-23T10:02:25Z</time>
      </trkpt>
      <trkpt lat="42.81543" lon="1.74349">
        <ele>1744.482</ele>
        <time>2021-03-23T10:02:27Z</time>
      </trkpt>
      <trkpt lat="42.81543" lon="1.74349">
        <ele>1744.483</ele>
        <time>2021-03-23T10:02:29Z</time>
      </trkpt>
      <trkpt lat="42.81543" lon="1.74349">
        <ele>1744.488</ele>
        <time>2021-03-23T10:02:31Z</time>
      </trkpt>
      <trkpt lat="42.81543" lon="1.74349">
        <ele>1744.497</ele>
        <time>2021-03-23T10:02:33Z</time>
      </trkpt>
      <trkpt lat="42.81543" lon="1.74349">
        <ele>1744.498</ele>
        <time>2021-03-23T10:02:35Z</time>
      </trkpt>
      <trkpt lat="42.81543" lon="1.74348">
        <ele>1744.629</ele>
        <time>2021-03-23T10:02:37Z</time>
      </trkpt>
      <trkpt lat="42.81543" lon="1.74348">
        <ele>1744.632</ele>
        <time>2021-03-23T10:02:39Z</time>
      </trkpt>
      <trkpt lat="42.81543" lon="1.74348">
        <ele>1744.626</ele>
        <time>2021-03-23T10:02:41Z</time>
      </trkpt>
      <trkpt lat="42.81543" lon="1.74348">
        <ele>1744.629</ele>
        <time>2021-03-23T10:02:43Z</time>
      </trkpt>
      <trkpt lat="42.81543" lon="1.74348">
        <ele>1744.626</ele>
        <time>2021-03-23T10:02:45Z</time>
      </trkpt>
      <trkpt lat="42.81543" lon="1.74348">
        <ele>1744.627</ele>
        <time>2021-03-23T10:02:47Z</time>
      </trkpt>
      <trkpt lat="42.81543" lon="1.74348">
        <ele>1744.627</ele>
        <time>2021-03-23T10:02:49Z</time>
      </trkpt>
      <trkpt lat="42.81543" lon="1.74348">
        <ele>1744.625</ele>
        <time>2021-03-23T10:02:51Z</time>
      </trkpt>
      <trkpt lat="42.81543" lon="1.74348">
        <ele>1744.625</ele>
        <time>2021-03-23T10:02:53Z</time>
      </trkpt>
      <trkpt lat="42.81543" lon="1.74348">
        <ele>1744.626</ele>
        <time>2021-03-23T10:02:55Z</time>
      </trkpt>
      <trkpt lat="42.81543" lon="1.74348">
        <ele>1744.626</ele>
        <time>2021-03-23T10:02:57Z</time>
      </trkpt>
      <trkpt lat="42.81543" lon="1.74348">
        <ele>1744.625</ele>
        <time>2021-03-23T10:02:59Z</time>
      </trkpt>
      <trkpt lat="42.81543" lon="1.74348">
        <ele>1744.63</ele>
        <time>2021-03-23T10:03:01Z</time>
      </trkpt>
      <trkpt lat="42.81543" lon="1.74348">
        <ele>1744.631</ele>
        <time>2021-03-23T10:03:03Z</time>
      </trkpt>
      <trkpt lat="42.81543" lon="1.74348">
        <ele>1744.627</ele>
        <time>2021-03-23T10:03:05Z</time>
      </trkpt>
      <trkpt lat="42.81543" lon="1.74348">
        <ele>1744.626</ele>
        <time>2021-03-23T10:03:07Z</time>
      </trkpt>
      <trkpt lat="42.81543" lon="1.74348">
        <ele>1744.622</ele>
        <time>2021-03-23T10:03:09Z</time>
      </trkpt>
      <trkpt lat="42.81543" lon="1.74348">
        <ele>1744.623</ele>
        <time>2021-03-23T10:03:11Z</time>
      </trkpt>
      <trkpt lat="42.81543" lon="1.74348">
        <ele>1744.628</ele>
        <time>2021-03-23T10:03:13Z</time>
      </trkpt>
      <trkpt lat="42.81543" lon="1.74348">
        <ele>1744.631</ele>
        <time>2021-03-23T10:03:15Z</time>
      </trkpt>
      <trkpt lat="42.81543" lon="1.74348">
        <ele>1744.635</ele>
        <time>2021-03-23T10:03:17Z</time>
      </trkpt>
      <trkpt lat="42.81543" lon="1.74348">
        <ele>1744.641</ele>
        <time>2021-03-23T10:03:19Z</time>
      </trkpt>
      <trkpt lat="42.81543" lon="1.74348">
        <ele>1744.638</ele>
        <time>2021-03-23T10:03:21Z</time>
      </trkpt>
      <trkpt lat="42.81543" lon="1.74348">
        <ele>1744.604</ele>
        <time>2021-03-23T10:03:23Z</time>
      </trkpt>
      <trkpt lat="42.81543" lon="1.74348">
        <ele>1744.602</ele>
        <time>2021-03-23T10:03:25Z</time>
      </trkpt>
      <trkpt lat="42.81543" lon="1.74348">
        <ele>1744.589</ele>
        <time>2021-03-23T10:03:27Z</time>
      </trkpt>
      <trkpt lat="42.81543" lon="1.74348">
        <ele>1744.597</ele>
        <time>2021-03-23T10:03:29Z</time>
      </trkpt>
      <trkpt lat="42.81543" lon="1.74348">
        <ele>1744.602</ele>
        <time>2021-03-23T10:03:31Z</time>
      </trkpt>
      <trkpt lat="42.81543" lon="1.74348">
        <ele>1744.588</ele>
        <time>2021-03-23T10:03:33Z</time>
      </trkpt>
      <trkpt lat="42.81543" lon="1.74348">
        <ele>1744.579</ele>
        <time>2021-03-23T10:03:35Z</time>
      </trkpt>
      <trkpt lat="42.81543" lon="1.74348">
        <ele>1744.576</ele>
        <time>2021-03-23T10:03:37Z</time>
      </trkpt>
      <trkpt lat="42.81543" lon="1.74348">
        <ele>1744.565</ele>
        <time>2021-03-23T10:03:39Z</time>
      </trkpt>
      <trkpt lat="42.81543" lon="1.74348">
        <ele>1744.896</ele>
        <time>2021-03-23T10:03:41Z</time>
      </trkpt>
      <trkpt lat="42.81543" lon="1.74349">
        <ele>1744.883</ele>
        <time>2021-03-23T10:03:43Z</time>
      </trkpt>
      <trkpt lat="42.81543" lon="1.74349">
        <ele>1744.863</ele>
        <time>2021-03-23T10:03:45Z</time>
      </trkpt>
      <trkpt lat="42.81543" lon="1.74348">
        <ele>1744.921</ele>
        <time>2021-03-23T10:03:47Z</time>
      </trkpt>
      <trkpt lat="42.81543" lon="1.74348">
        <ele>1744.339</ele>
        <time>2021-03-23T10:03:49Z</time>
      </trkpt>
      <trkpt lat="42.81543" lon="1.74348">
        <ele>1744.07</ele>
        <time>2021-03-23T10:03:51Z</time>
      </trkpt>
      <trkpt lat="42.81543" lon="1.74348">
        <ele>1744.061</ele>
        <time>2021-03-23T10:03:53Z</time>
      </trkpt>
      <trkpt lat="42.81543" lon="1.74348">
        <ele>1743.236</ele>
        <time>2021-03-23T10:03:55Z</time>
      </trkpt>
      <trkpt lat="42.81543" lon="1.74348">
        <ele>1743.228</ele>
        <time>2021-03-23T10:03:57Z</time>
      </trkpt>
      <trkpt lat="42.81543" lon="1.74348">
        <ele>1742.897</ele>
        <time>2021-03-23T10:03:59Z</time>
      </trkpt>
      <trkpt lat="42.81543" lon="1.74348">
        <ele>1742.879</ele>
        <time>2021-03-23T10:04:01Z</time>
      </trkpt>
      <trkpt lat="42.81543" lon="1.74348">
        <ele>1742.874</ele>
        <time>2021-03-23T10:04:03Z</time>
      </trkpt>
      <trkpt lat="42.81543" lon="1.74348">
        <ele>1742.872</ele>
        <time>2021-03-23T10:04:05Z</time>
      </trkpt>
      <trkpt lat="42.81543" lon="1.74348">
        <ele>1742.87</ele>
        <time>2021-03-23T10:04:07Z</time>
      </trkpt>
      <trkpt lat="42.81543" lon="1.74348">
        <ele>1742.866</ele>
        <time>2021-03-23T10:04:09Z</time>
      </trkpt>
      <trkpt lat="42.81543" lon="1.74348">
        <ele>1742.861</ele>
        <time>2021-03-23T10:04:11Z</time>
      </trkpt>
      <trkpt lat="42.81543" lon="1.74348">
        <ele>1742.862</ele>
        <time>2021-03-23T10:04:13Z</time>
      </trkpt>
      <trkpt lat="42.81543" lon="1.74348">
        <ele>1742.825</ele>
        <time>2021-03-23T10:04:15Z</time>
      </trkpt>
      <trkpt lat="42.81543" lon="1.74348">
        <ele>1742.786</ele>
        <time>2021-03-23T10:04:17Z</time>
      </trkpt>
      <trkpt lat="42.81543" lon="1.74348">
        <ele>1742.77</ele>
        <time>2021-03-23T10:04:19Z</time>
      </trkpt>
      <trkpt lat="42.81543" lon="1.74348">
        <ele>1742.749</ele>
        <time>2021-03-23T10:04:21Z</time>
      </trkpt>
      <trkpt lat="42.81543" lon="1.74348">
        <ele>1742.723</ele>
        <time>2021-03-23T10:04:23Z</time>
      </trkpt>
      <trkpt lat="42.81543" lon="1.74348">
        <ele>1742.71</ele>
        <time>2021-03-23T10:04:25Z</time>
      </trkpt>
      <trkpt lat="42.81543" lon="1.74348">
        <ele>1742.706</ele>
        <time>2021-03-23T10:04:27Z</time>
      </trkpt>
      <trkpt lat="42.81543" lon="1.74348">
        <ele>1742.689</ele>
        <time>2021-03-23T10:04:29Z</time>
      </trkpt>
      <trkpt lat="42.81543" lon="1.74348">
        <ele>1742.676</ele>
        <time>2021-03-23T10:04:31Z</time>
      </trkpt>
      <trkpt lat="42.81543" lon="1.74348">
        <ele>1742.671</ele>
        <time>2021-03-23T10:04:33Z</time>
      </trkpt>
      <trkpt lat="42.81543" lon="1.74348">
        <ele>1742.638</ele>
        <time>2021-03-23T10:04:35Z</time>
      </trkpt>
      <trkpt lat="42.81543" lon="1.74348">
        <ele>1742.632</ele>
        <time>2021-03-23T10:04:37Z</time>
      </trkpt>
      <trkpt lat="42.81543" lon="1.74348">
        <ele>1742.603</ele>
        <time>2021-03-23T10:04:39Z</time>
      </trkpt>
      <trkpt lat="42.81543" lon="1.74348">
        <ele>1742.583</ele>
        <time>2021-03-23T10:04:41Z</time>
      </trkpt>
      <trkpt lat="42.81543" lon="1.74348">
        <ele>1742.579</ele>
        <time>2021-03-23T10:04:43Z</time>
      </trkpt>
      <trkpt lat="42.81543" lon="1.74348">
        <ele>1742.581</ele>
        <time>2021-03-23T10:04:45Z</time>
      </trkpt>
      <trkpt lat="42.81543" lon="1.74348">
        <ele>1742.587</ele>
        <time>2021-03-23T10:04:47Z</time>
      </trkpt>
      <trkpt lat="42.81543" lon="1.74348">
        <ele>1742.585</ele>
        <time>2021-03-23T10:04:49Z</time>
      </trkpt>
      <trkpt lat="42.81543" lon="1.74348">
        <ele>1742.582</ele>
        <time>2021-03-23T10:04:51Z</time>
      </trkpt>
      <trkpt lat="42.81543" lon="1.74348">
        <ele>1742.581</ele>
        <time>2021-03-23T10:04:53Z</time>
      </trkpt>
      <trkpt lat="42.81543" lon="1.74348">
        <ele>1742.662</ele>
        <time>2021-03-23T10:04:55Z</time>
      </trkpt>
      <trkpt lat="42.81543" lon="1.74348">
        <ele>1742.659</ele>
        <time>2021-03-23T10:04:57Z</time>
      </trkpt>
      <trkpt lat="42.81543" lon="1.74348">
        <ele>1742.661</ele>
        <time>2021-03-23T10:04:59Z</time>
      </trkpt>
      <trkpt lat="42.81543" lon="1.74348">
        <ele>1742.654</ele>
        <time>2021-03-23T10:05:01Z</time>
      </trkpt>
      <trkpt lat="42.81543" lon="1.74348">
        <ele>1742.654</ele>
        <time>2021-03-23T10:05:03Z</time>
      </trkpt>
      <trkpt lat="42.81543" lon="1.74348">
        <ele>1742.745</ele>
        <time>2021-03-23T10:05:05Z</time>
      </trkpt>
      <trkpt lat="42.81543" lon="1.74349">
        <ele>1742.654</ele>
        <time>2021-03-23T10:05:07Z</time>
      </trkpt>
      <trkpt lat="42.81543" lon="1.74349">
        <ele>1742.616</ele>
        <time>2021-03-23T10:05:09Z</time>
      </trkpt>
      <trkpt lat="42.81543" lon="1.74349">
        <ele>1742.615</ele>
        <time>2021-03-23T10:05:11Z</time>
      </trkpt>
      <trkpt lat="42.81543" lon="1.74349">
        <ele>1742.613</ele>
        <time>2021-03-23T10:05:13Z</time>
      </trkpt>
      <trkpt lat="42.81543" lon="1.74349">
        <ele>1742.594</ele>
        <time>2021-03-23T10:05:15Z</time>
      </trkpt>
      <trkpt lat="42.81543" lon="1.74349">
        <ele>1742.564</ele>
        <time>2021-03-23T10:05:17Z</time>
      </trkpt>
      <trkpt lat="42.81543" lon="1.74349">
        <ele>1742.558</ele>
        <time>2021-03-23T10:05:19Z</time>
      </trkpt>
      <trkpt lat="42.81543" lon="1.74349">
        <ele>1742.534</ele>
        <time>2021-03-23T10:05:21Z</time>
      </trkpt>
      <trkpt lat="42.81543" lon="1.74349">
        <ele>1742.528</ele>
        <time>2021-03-23T10:05:23Z</time>
      </trkpt>
      <trkpt lat="42.81543" lon="1.74349">
        <ele>1742.537</ele>
        <time>2021-03-23T10:05:25Z</time>
      </trkpt>
      <trkpt lat="42.81543" lon="1.74349">
        <ele>1742.532</ele>
        <time>2021-03-23T10:05:27Z</time>
      </trkpt>
      <trkpt lat="42.81543" lon="1.74349">
        <ele>1742.535</ele>
        <time>2021-03-23T10:05:29Z</time>
      </trkpt>
      <trkpt lat="42.81543" lon="1.74349">
        <ele>1742.524</ele>
        <time>2021-03-23T10:05:31Z</time>
      </trkpt>
      <trkpt lat="42.81543" lon="1.74349">
        <ele>1742.517</ele>
        <time>2021-03-23T10:05:33Z</time>
      </trkpt>
      <trkpt lat="42.81543" lon="1.74349">
        <ele>1742.515</ele>
        <time>2021-03-23T10:05:35Z</time>
      </trkpt>
      <trkpt lat="42.81543" lon="1.74349">
        <ele>1742.517</ele>
        <time>2021-03-23T10:05:37Z</time>
      </trkpt>
      <trkpt lat="42.81543" lon="1.74349">
        <ele>1742.195</ele>
        <time>2021-03-23T10:05:39Z</time>
      </trkpt>
      <trkpt lat="42.81542" lon="1.7435">
        <ele>1741.83</ele>
        <time>2021-03-23T10:05:41Z</time>
      </trkpt>
      <trkpt lat="42.81542" lon="1.7435">
        <ele>1740.738</ele>
        <time>2021-03-23T10:05:44Z</time>
      </trkpt>
      <trkpt lat="42.81542" lon="1.7435">
        <ele>1740.719</ele>
        <time>2021-03-23T10:05:46Z</time>
      </trkpt>
      <trkpt lat="42.81542" lon="1.7435">
        <ele>1740.721</ele>
        <time>2021-03-23T10:05:48Z</time>
      </trkpt>
      <trkpt lat="42.81543" lon="1.7435">
        <ele>1740.868</ele>
        <time>2021-03-23T10:05:50Z</time>
      </trkpt>
      <trkpt lat="42.81543" lon="1.7435">
        <ele>1740.851</ele>
        <time>2021-03-23T10:05:52Z</time>
      </trkpt>
      <trkpt lat="42.81543" lon="1.7435">
        <ele>1740.85</ele>
        <time>2021-03-23T10:05:54Z</time>
      </trkpt>
      <trkpt lat="42.81543" lon="1.7435">
        <ele>1740.851</ele>
        <time>2021-03-23T10:05:56Z</time>
      </trkpt>
      <trkpt lat="42.81543" lon="1.7435">
        <ele>1740.837</ele>
        <time>2021-03-23T10:05:58Z</time>
      </trkpt>
      <trkpt lat="42.81543" lon="1.7435">
        <ele>1740.824</ele>
        <time>2021-03-23T10:06:00Z</time>
      </trkpt>
      <trkpt lat="42.81543" lon="1.7435">
        <ele>1741.305</ele>
        <time>2021-03-23T10:06:02Z</time>
      </trkpt>
      <trkpt lat="42.81543" lon="1.7435">
        <ele>1741.284</ele>
        <time>2021-03-23T10:06:04Z</time>
      </trkpt>
      <trkpt lat="42.81543" lon="1.7435">
        <ele>1741.294</ele>
        <time>2021-03-23T10:06:06Z</time>
      </trkpt>
      <trkpt lat="42.81543" lon="1.7435">
        <ele>1741.306</ele>
        <time>2021-03-23T10:06:08Z</time>
      </trkpt>
      <trkpt lat="42.81543" lon="1.7435">
        <ele>1741.298</ele>
        <time>2021-03-23T10:06:10Z</time>
      </trkpt>
      <trkpt lat="42.81543" lon="1.7435">
        <ele>1741.288</ele>
        <time>2021-03-23T10:06:12Z</time>
      </trkpt>
      <trkpt lat="42.81543" lon="1.7435">
        <ele>1741.275</ele>
        <time>2021-03-23T10:06:14Z</time>
      </trkpt>
      <trkpt lat="42.81543" lon="1.7435">
        <ele>1740.887</ele>
        <time>2021-03-23T10:06:16Z</time>
      </trkpt>
      <trkpt lat="42.81543" lon="1.7435">
        <ele>1740.642</ele>
        <time>2021-03-23T10:06:18Z</time>
      </trkpt>
      <trkpt lat="42.81544" lon="1.7435">
        <ele>1740.694</ele>
        <time>2021-03-23T10:06:20Z</time>
      </trkpt>
      <trkpt lat="42.81544" lon="1.7435">
        <ele>1740.696</ele>
        <time>2021-03-23T10:06:22Z</time>
      </trkpt>
      <trkpt lat="42.81544" lon="1.74351">
        <ele>1740.701</ele>
        <time>2021-03-23T10:06:24Z</time>
      </trkpt>
      <trkpt lat="42.81544" lon="1.74351">
        <ele>1740.857</ele>
        <time>2021-03-23T10:06:26Z</time>
      </trkpt>
      <trkpt lat="42.81544" lon="1.74351">
        <ele>1740.94</ele>
        <time>2021-03-23T10:06:28Z</time>
      </trkpt>
      <trkpt lat="42.81544" lon="1.74351">
        <ele>1740.941</ele>
        <time>2021-03-23T10:06:30Z</time>
      </trkpt>
      <trkpt lat="42.81544" lon="1.74351">
        <ele>1740.936</ele>
        <time>2021-03-23T10:06:32Z</time>
      </trkpt>
      <trkpt lat="42.81544" lon="1.74351">
        <ele>1740.933</ele>
        <time>2021-03-23T10:06:34Z</time>
      </trkpt>
      <trkpt lat="42.81544" lon="1.74351">
        <ele>1740.933</ele>
        <time>2021-03-23T10:06:36Z</time>
      </trkpt>
      <trkpt lat="42.81544" lon="1.74351">
        <ele>1740.945</ele>
        <time>2021-03-23T10:06:38Z</time>
      </trkpt>
      <trkpt lat="42.81544" lon="1.74351">
        <ele>1740.951</ele>
        <time>2021-03-23T10:06:40Z</time>
      </trkpt>
      <trkpt lat="42.81544" lon="1.74351">
        <ele>1740.956</ele>
        <time>2021-03-23T10:06:42Z</time>
      </trkpt>
      <trkpt lat="42.81544" lon="1.74351">
        <ele>1740.937</ele>
        <time>2021-03-23T10:06:44Z</time>
      </trkpt>
      <trkpt lat="42.81544" lon="1.74351">
        <ele>1740.925</ele>
        <time>2021-03-23T10:06:46Z</time>
      </trkpt>
      <trkpt lat="42.81544" lon="1.74351">
        <ele>1740.917</ele>
        <time>2021-03-23T10:06:48Z</time>
      </trkpt>
      <trkpt lat="42.81544" lon="1.74351">
        <ele>1740.915</ele>
        <time>2021-03-23T10:06:50Z</time>
      </trkpt>
      <trkpt lat="42.81544" lon="1.74351">
        <ele>1740.932</ele>
        <time>2021-03-23T10:06:52Z</time>
      </trkpt>
      <trkpt lat="42.81544" lon="1.74351">
        <ele>1740.928</ele>
        <time>2021-03-23T10:06:54Z</time>
      </trkpt>
      <trkpt lat="42.81544" lon="1.74351">
        <ele>1741.017</ele>
        <time>2021-03-23T10:06:56Z</time>
      </trkpt>
      <trkpt lat="42.81544" lon="1.74351">
        <ele>1741.238</ele>
        <time>2021-03-23T10:06:58Z</time>
      </trkpt>
      <trkpt lat="42.81544" lon="1.74351">
        <ele>1741.224</ele>
        <time>2021-03-23T10:07:00Z</time>
      </trkpt>
      <trkpt lat="42.81544" lon="1.74351">
        <ele>1741.211</ele>
        <time>2021-03-23T10:07:02Z</time>
      </trkpt>
      <trkpt lat="42.81544" lon="1.74351">
        <ele>1741.002</ele>
        <time>2021-03-23T10:07:04Z</time>
      </trkpt>
      <trkpt lat="42.81544" lon="1.74352">
        <ele>1740.984</ele>
        <time>2021-03-23T10:07:06Z</time>
      </trkpt>
      <trkpt lat="42.81544" lon="1.74352">
        <ele>1740.974</ele>
        <time>2021-03-23T10:07:08Z</time>
      </trkpt>
      <trkpt lat="42.81544" lon="1.74352">
        <ele>1741.156</ele>
        <time>2021-03-23T10:07:10Z</time>
      </trkpt>
      <trkpt lat="42.81544" lon="1.74352">
        <ele>1741.155</ele>
        <time>2021-03-23T10:07:12Z</time>
      </trkpt>
      <trkpt lat="42.81544" lon="1.74352">
        <ele>1741.153</ele>
        <time>2021-03-23T10:07:14Z</time>
      </trkpt>
      <trkpt lat="42.81544" lon="1.74352">
        <ele>1741.14</ele>
        <time>2021-03-23T10:07:16Z</time>
      </trkpt>
      <trkpt lat="42.81544" lon="1.74352">
        <ele>1741.148</ele>
        <time>2021-03-23T10:07:18Z</time>
      </trkpt>
      <trkpt lat="42.81544" lon="1.74352">
        <ele>1741.147</ele>
        <time>2021-03-23T10:07:20Z</time>
      </trkpt>
      <trkpt lat="42.81544" lon="1.74352">
        <ele>1741.148</ele>
        <time>2021-03-23T10:07:22Z</time>
      </trkpt>
      <trkpt lat="42.81544" lon="1.74352">
        <ele>1741.138</ele>
        <time>2021-03-23T10:07:24Z</time>
      </trkpt>
      <trkpt lat="42.81544" lon="1.74352">
        <ele>1741.134</ele>
        <time>2021-03-23T10:07:26Z</time>
      </trkpt>
      <trkpt lat="42.81544" lon="1.74352">
        <ele>1741.629</ele>
        <time>2021-03-23T10:07:28Z</time>
      </trkpt>
      <trkpt lat="42.81543" lon="1.74353">
        <ele>1741.155</ele>
        <time>2021-03-23T10:07:30Z</time>
      </trkpt>
      <trkpt lat="42.81544" lon="1.74353">
        <ele>1741.275</ele>
        <time>2021-03-23T10:07:32Z</time>
      </trkpt>
      <trkpt lat="42.81544" lon="1.74353">
        <ele>1741.256</ele>
        <time>2021-03-23T10:07:34Z</time>
      </trkpt>
      <trkpt lat="42.81544" lon="1.74353">
        <ele>1741.259</ele>
        <time>2021-03-23T10:07:36Z</time>
      </trkpt>
      <trkpt lat="42.81544" lon="1.74353">
        <ele>1741.255</ele>
        <time>2021-03-23T10:07:38Z</time>
      </trkpt>
      <trkpt lat="42.81544" lon="1.74354">
        <ele>1741.196</ele>
        <time>2021-03-23T10:07:40Z</time>
      </trkpt>
      <trkpt lat="42.81544" lon="1.74354">
        <ele>1741.72</ele>
        <time>2021-03-23T10:07:42Z</time>
      </trkpt>
      <trkpt lat="42.81544" lon="1.74353">
        <ele>1741.718</ele>
        <time>2021-03-23T10:07:44Z</time>
      </trkpt>
      <trkpt lat="42.81544" lon="1.74353">
        <ele>1741.722</ele>
        <time>2021-03-23T10:07:46Z</time>
      </trkpt>
      <trkpt lat="42.81544" lon="1.74353">
        <ele>1741.73</ele>
        <time>2021-03-23T10:07:48Z</time>
      </trkpt>
      <trkpt lat="42.81544" lon="1.74353">
        <ele>1741.729</ele>
        <time>2021-03-23T10:07:50Z</time>
      </trkpt>
      <trkpt lat="42.81544" lon="1.74353">
        <ele>1741.734</ele>
        <time>2021-03-23T10:07:52Z</time>
      </trkpt>
      <trkpt lat="42.81544" lon="1.74353">
        <ele>1741.731</ele>
        <time>2021-03-23T10:07:54Z</time>
      </trkpt>
      <trkpt lat="42.81544" lon="1.74353">
        <ele>1741.726</ele>
        <time>2021-03-23T10:07:56Z</time>
      </trkpt>
      <trkpt lat="42.81545" lon="1.74354">
        <ele>1741.425</ele>
        <time>2021-03-23T10:07:58Z</time>
      </trkpt>
      <trkpt lat="42.81545" lon="1.74355">
        <ele>1742.602</ele>
        <time>2021-03-23T10:08:00Z</time>
      </trkpt>
      <trkpt lat="42.81546" lon="1.74357">
        <ele>1742.468</ele>
        <time>2021-03-23T10:08:02Z</time>
      </trkpt>
      <trkpt lat="42.81546" lon="1.74359">
        <ele>1742.343</ele>
        <time>2021-03-23T10:08:04Z</time>
      </trkpt>
      <trkpt lat="42.81547" lon="1.74361">
        <ele>1742.893</ele>
        <time>2021-03-23T10:08:06Z</time>
      </trkpt>
      <trkpt lat="42.81547" lon="1.74362">
        <ele>1742.127</ele>
        <time>2021-03-23T10:08:08Z</time>
      </trkpt>
      <trkpt lat="42.81548" lon="1.74364">
        <ele>1742.989</ele>
        <time>2021-03-23T10:08:10Z</time>
      </trkpt>
      <trkpt lat="42.81548" lon="1.74365">
        <ele>1744.003</ele>
        <time>2021-03-23T10:08:12Z</time>
      </trkpt>
      <trkpt lat="42.81548" lon="1.74365">
        <ele>1743.997</ele>
        <time>2021-03-23T10:08:14Z</time>
      </trkpt>
      <trkpt lat="42.81549" lon="1.74366">
        <ele>1744.208</ele>
        <time>2021-03-23T10:08:16Z</time>
      </trkpt>
      <trkpt lat="42.81549" lon="1.74367">
        <ele>1744.664</ele>
        <time>2021-03-23T10:08:18Z</time>
      </trkpt>
      <trkpt lat="42.81549" lon="1.74369">
        <ele>1746.026</ele>
        <time>2021-03-23T10:08:20Z</time>
      </trkpt>
      <trkpt lat="42.8155" lon="1.7437">
        <ele>1746.295</ele>
        <time>2021-03-23T10:08:22Z</time>
      </trkpt>
      <trkpt lat="42.81551" lon="1.74372">
        <ele>1747.295</ele>
        <time>2021-03-23T10:08:24Z</time>
      </trkpt>
      <trkpt lat="42.81551" lon="1.74374">
        <ele>1747.707</ele>
        <time>2021-03-23T10:08:26Z</time>
      </trkpt>
      <trkpt lat="42.81552" lon="1.74375">
        <ele>1748.014</ele>
        <time>2021-03-23T10:08:28Z</time>
      </trkpt>
      <trkpt lat="42.81553" lon="1.74377">
        <ele>1748.383</ele>
        <time>2021-03-23T10:08:30Z</time>
      </trkpt>
      <trkpt lat="42.81553" lon="1.74379">
        <ele>1748.668</ele>
        <time>2021-03-23T10:08:32Z</time>
      </trkpt>
      <trkpt lat="42.81553" lon="1.74381">
        <ele>1749.412</ele>
        <time>2021-03-23T10:08:34Z</time>
      </trkpt>
      <trkpt lat="42.81554" lon="1.74383">
        <ele>1750.154</ele>
        <time>2021-03-23T10:08:36Z</time>
      </trkpt>
      <trkpt lat="42.81554" lon="1.74385">
        <ele>1750.079</ele>
        <time>2021-03-23T10:08:38Z</time>
      </trkpt>
      <trkpt lat="42.81554" lon="1.74386">
        <ele>1751.26</ele>
        <time>2021-03-23T10:08:40Z</time>
      </trkpt>
      <trkpt lat="42.81555" lon="1.74387">
        <ele>1750.672</ele>
        <time>2021-03-23T10:08:42Z</time>
      </trkpt>
      <trkpt lat="42.81556" lon="1.74389">
        <ele>1749.792</ele>
        <time>2021-03-23T10:08:44Z</time>
      </trkpt>
      <trkpt lat="42.81556" lon="1.7439">
        <ele>1750.276</ele>
        <time>2021-03-23T10:08:46Z</time>
      </trkpt>
      <trkpt lat="42.81557" lon="1.7439">
        <ele>1749.361</ele>
        <time>2021-03-23T10:08:48Z</time>
      </trkpt>
      <trkpt lat="42.81558" lon="1.74391">
        <ele>1749.694</ele>
        <time>2021-03-23T10:08:50Z</time>
      </trkpt>
      <trkpt lat="42.8156" lon="1.74392">
        <ele>1750.903</ele>
        <time>2021-03-23T10:08:52Z</time>
      </trkpt>
      <trkpt lat="42.8156" lon="1.74394">
        <ele>1751.562</ele>
        <time>2021-03-23T10:08:54Z</time>
      </trkpt>
      <trkpt lat="42.81561" lon="1.74395">
        <ele>1751.928</ele>
        <time>2021-03-23T10:08:56Z</time>
      </trkpt>
      <trkpt lat="42.81561" lon="1.74395">
        <ele>1751.826</ele>
        <time>2021-03-23T10:08:58Z</time>
      </trkpt>
      <trkpt lat="42.81562" lon="1.74396">
        <ele>1751.675</ele>
        <time>2021-03-23T10:09:00Z</time>
      </trkpt>
      <trkpt lat="42.81563" lon="1.74397">
        <ele>1751.983</ele>
        <time>2021-03-23T10:09:02Z</time>
      </trkpt>
      <trkpt lat="42.81564" lon="1.74398">
        <ele>1752.051</ele>
        <time>2021-03-23T10:09:04Z</time>
      </trkpt>
      <trkpt lat="42.81564" lon="1.744">
        <ele>1751.389</ele>
        <time>2021-03-23T10:09:06Z</time>
      </trkpt>
      <trkpt lat="42.81565" lon="1.74401">
        <ele>1751.448</ele>
        <time>2021-03-23T10:09:08Z</time>
      </trkpt>
      <trkpt lat="42.81566" lon="1.74402">
        <ele>1751.829</ele>
        <time>2021-03-23T10:09:10Z</time>
      </trkpt>
      <trkpt lat="42.81567" lon="1.74403">
        <ele>1752.419</ele>
        <time>2021-03-23T10:09:12Z</time>
      </trkpt>
      <trkpt lat="42.81568" lon="1.74404">
        <ele>1753.5</ele>
        <time>2021-03-23T10:09:14Z</time>
      </trkpt>
      <trkpt lat="42.8157" lon="1.74405">
        <ele>1753.413</ele>
        <time>2021-03-23T10:09:16Z</time>
      </trkpt>
      <trkpt lat="42.8157" lon="1.74406">
        <ele>1753.091</ele>
        <time>2021-03-23T10:09:18Z</time>
      </trkpt>
      <trkpt lat="42.81571" lon="1.74407">
        <ele>1753.988</ele>
        <time>2021-03-23T10:09:20Z</time>
      </trkpt>
      <trkpt lat="42.81573" lon="1.74408">
        <ele>1754.079</ele>
        <time>2021-03-23T10:09:22Z</time>
      </trkpt>
      <trkpt lat="42.81574" lon="1.74409">
        <ele>1755.355</ele>
        <time>2021-03-23T10:09:24Z</time>
      </trkpt>
      <trkpt lat="42.81575" lon="1.7441">
        <ele>1755.58</ele>
        <time>2021-03-23T10:09:26Z</time>
      </trkpt>
      <trkpt lat="42.81576" lon="1.74411">
        <ele>1755.459</ele>
        <time>2021-03-23T10:09:28Z</time>
      </trkpt>
      <trkpt lat="42.81577" lon="1.74413">
        <ele>1755.281</ele>
        <time>2021-03-23T10:09:30Z</time>
      </trkpt>
      <trkpt lat="42.81578" lon="1.74414">
        <ele>1754.959</ele>
        <time>2021-03-23T10:09:32Z</time>
      </trkpt>
      <trkpt lat="42.81579" lon="1.74415">
        <ele>1754.683</ele>
        <time>2021-03-23T10:09:34Z</time>
      </trkpt>
      <trkpt lat="42.8158" lon="1.74416">
        <ele>1754.644</ele>
        <time>2021-03-23T10:09:36Z</time>
      </trkpt>
      <trkpt lat="42.81581" lon="1.74417">
        <ele>1755.577</ele>
        <time>2021-03-23T10:09:38Z</time>
      </trkpt>
      <trkpt lat="42.81582" lon="1.74418">
        <ele>1754.749</ele>
        <time>2021-03-23T10:09:40Z</time>
      </trkpt>
      <trkpt lat="42.81582" lon="1.74419">
        <ele>1755.801</ele>
        <time>2021-03-23T10:09:42Z</time>
      </trkpt>
      <trkpt lat="42.81583" lon="1.7442">
        <ele>1756.475</ele>
        <time>2021-03-23T10:09:44Z</time>
      </trkpt>
      <trkpt lat="42.81584" lon="1.74421">
        <ele>1756.811</ele>
        <time>2021-03-23T10:09:46Z</time>
      </trkpt>
      <trkpt lat="42.81585" lon="1.74422">
        <ele>1757.312</ele>
        <time>2021-03-23T10:09:48Z</time>
      </trkpt>
      <trkpt lat="42.81586" lon="1.74423">
        <ele>1757.971</ele>
        <time>2021-03-23T10:09:50Z</time>
      </trkpt>
      <trkpt lat="42.81587" lon="1.74424">
        <ele>1757.994</ele>
        <time>2021-03-23T10:09:52Z</time>
      </trkpt>
      <trkpt lat="42.81588" lon="1.74425">
        <ele>1758.407</ele>
        <time>2021-03-23T10:09:54Z</time>
      </trkpt>
      <trkpt lat="42.81589" lon="1.74426">
        <ele>1759.052</ele>
        <time>2021-03-23T10:09:56Z</time>
      </trkpt>
      <trkpt lat="42.8159" lon="1.74427">
        <ele>1759.104</ele>
        <time>2021-03-23T10:09:58Z</time>
      </trkpt>
      <trkpt lat="42.8159" lon="1.74427">
        <ele>1759.134</ele>
        <time>2021-03-23T10:10:00Z</time>
      </trkpt>
      <trkpt lat="42.81591" lon="1.74428">
        <ele>1759.326</ele>
        <time>2021-03-23T10:10:02Z</time>
      </trkpt>
      <trkpt lat="42.81592" lon="1.74429">
        <ele>1759.349</ele>
        <time>2021-03-23T10:10:04Z</time>
      </trkpt>
      <trkpt lat="42.81592" lon="1.7443">
        <ele>1759.753</ele>
        <time>2021-03-23T10:10:06Z</time>
      </trkpt>
      <trkpt lat="42.81592" lon="1.7443">
        <ele>1760.386</ele>
        <time>2021-03-23T10:10:08Z</time>
      </trkpt>
      <trkpt lat="42.81592" lon="1.74431">
        <ele>1760.959</ele>
        <time>2021-03-23T10:10:10Z</time>
      </trkpt>
      <trkpt lat="42.81593" lon="1.74433">
        <ele>1761.184</ele>
        <time>2021-03-23T10:10:13Z</time>
      </trkpt>
      <trkpt lat="42.81594" lon="1.74433">
        <ele>1761.321</ele>
        <time>2021-03-23T10:10:15Z</time>
      </trkpt>
      <trkpt lat="42.81594" lon="1.74434">
        <ele>1761.318</ele>
        <time>2021-03-23T10:10:17Z</time>
      </trkpt>
      <trkpt lat="42.81595" lon="1.74436">
        <ele>1761.543</ele>
        <time>2021-03-23T10:10:20Z</time>
      </trkpt>
      <trkpt lat="42.81596" lon="1.74437">
        <ele>1761.709</ele>
        <time>2021-03-23T10:10:22Z</time>
      </trkpt>
      <trkpt lat="42.81596" lon="1.74437">
        <ele>1762.518</ele>
        <time>2021-03-23T10:10:24Z</time>
      </trkpt>
      <trkpt lat="42.81597" lon="1.74438">
        <ele>1762.497</ele>
        <time>2021-03-23T10:10:26Z</time>
      </trkpt>
      <trkpt lat="42.81597" lon="1.74439">
        <ele>1763.01</ele>
        <time>2021-03-23T10:10:28Z</time>
      </trkpt>
      <trkpt lat="42.81598" lon="1.7444">
        <ele>1763.175</ele>
        <time>2021-03-23T10:10:30Z</time>
      </trkpt>
      <trkpt lat="42.81597" lon="1.74441">
        <ele>1763.217</ele>
        <time>2021-03-23T10:10:32Z</time>
      </trkpt>
      <trkpt lat="42.81597" lon="1.74441">
        <ele>1764.227</ele>
        <time>2021-03-23T10:10:34Z</time>
      </trkpt>
      <trkpt lat="42.81597" lon="1.74442">
        <ele>1764.925</ele>
        <time>2021-03-23T10:10:36Z</time>
      </trkpt>
      <trkpt lat="42.81598" lon="1.74442">
        <ele>1764.577</ele>
        <time>2021-03-23T10:10:38Z</time>
      </trkpt>
      <trkpt lat="42.81598" lon="1.74442">
        <ele>1764.877</ele>
        <time>2021-03-23T10:10:40Z</time>
      </trkpt>
      <trkpt lat="42.81599" lon="1.74443">
        <ele>1764.347</ele>
        <time>2021-03-23T10:10:42Z</time>
      </trkpt>
      <trkpt lat="42.816" lon="1.74443">
        <ele>1764.406</ele>
        <time>2021-03-23T10:10:44Z</time>
      </trkpt>
      <trkpt lat="42.81601" lon="1.74444">
        <ele>1764.486</ele>
        <time>2021-03-23T10:10:46Z</time>
      </trkpt>
      <trkpt lat="42.81602" lon="1.74445">
        <ele>1765.467</ele>
        <time>2021-03-23T10:10:48Z</time>
      </trkpt>
      <trkpt lat="42.81603" lon="1.74445">
        <ele>1765.804</ele>
        <time>2021-03-23T10:10:50Z</time>
      </trkpt>
      <trkpt lat="42.81604" lon="1.74446">
        <ele>1765.359</ele>
        <time>2021-03-23T10:10:52Z</time>
      </trkpt>
      <trkpt lat="42.81605" lon="1.74448">
        <ele>1764.899</ele>
        <time>2021-03-23T10:10:54Z</time>
      </trkpt>
      <trkpt lat="42.81606" lon="1.74449">
        <ele>1764.866</ele>
        <time>2021-03-23T10:10:56Z</time>
      </trkpt>
      <trkpt lat="42.81606" lon="1.7445">
        <ele>1765.191</ele>
        <time>2021-03-23T10:10:58Z</time>
      </trkpt>
      <trkpt lat="42.81607" lon="1.74451">
        <ele>1766.092</ele>
        <time>2021-03-23T10:11:00Z</time>
      </trkpt>
      <trkpt lat="42.81607" lon="1.74452">
        <ele>1766.606</ele>
        <time>2021-03-23T10:11:02Z</time>
      </trkpt>
      <trkpt lat="42.81608" lon="1.74453">
        <ele>1767.462</ele>
        <time>2021-03-23T10:11:04Z</time>
      </trkpt>
      <trkpt lat="42.81608" lon="1.74454">
        <ele>1767.202</ele>
        <time>2021-03-23T10:11:06Z</time>
      </trkpt>
      <trkpt lat="42.81608" lon="1.74455">
        <ele>1768.554</ele>
        <time>2021-03-23T10:11:08Z</time>
      </trkpt>
      <trkpt lat="42.81609" lon="1.74456">
        <ele>1767.965</ele>
        <time>2021-03-23T10:11:10Z</time>
      </trkpt>
      <trkpt lat="42.8161" lon="1.74457">
        <ele>1768.176</ele>
        <time>2021-03-23T10:11:12Z</time>
      </trkpt>
      <trkpt lat="42.8161" lon="1.74458">
        <ele>1767.734</ele>
        <time>2021-03-23T10:11:14Z</time>
      </trkpt>
      <trkpt lat="42.81611" lon="1.74459">
        <ele>1768.246</ele>
        <time>2021-03-23T10:11:16Z</time>
      </trkpt>
      <trkpt lat="42.81612" lon="1.7446">
        <ele>1768.258</ele>
        <time>2021-03-23T10:11:18Z</time>
      </trkpt>
      <trkpt lat="42.81613" lon="1.74461">
        <ele>1768.75</ele>
        <time>2021-03-23T10:11:20Z</time>
      </trkpt>
      <trkpt lat="42.81613" lon="1.74461">
        <ele>1768.742</ele>
        <time>2021-03-23T10:11:22Z</time>
      </trkpt>
      <trkpt lat="42.81613" lon="1.74461">
        <ele>1768.73</ele>
        <time>2021-03-23T10:11:24Z</time>
      </trkpt>
      <trkpt lat="42.81613" lon="1.74461">
        <ele>1768.711</ele>
        <time>2021-03-23T10:11:26Z</time>
      </trkpt>
      <trkpt lat="42.81613" lon="1.7446">
        <ele>1769.675</ele>
        <time>2021-03-23T10:11:28Z</time>
      </trkpt>
      <trkpt lat="42.81613" lon="1.7446">
        <ele>1769.656</ele>
        <time>2021-03-23T10:11:30Z</time>
      </trkpt>
      <trkpt lat="42.81613" lon="1.7446">
        <ele>1769.634</ele>
        <time>2021-03-23T10:11:32Z</time>
      </trkpt>
      <trkpt lat="42.81613" lon="1.7446">
        <ele>1769.614</ele>
        <time>2021-03-23T10:11:34Z</time>
      </trkpt>
      <trkpt lat="42.81613" lon="1.7446">
        <ele>1769.62</ele>
        <time>2021-03-23T10:11:36Z</time>
      </trkpt>
      <trkpt lat="42.81613" lon="1.7446">
        <ele>1769.647</ele>
        <time>2021-03-23T10:11:38Z</time>
      </trkpt>
      <trkpt lat="42.81613" lon="1.7446">
        <ele>1769.644</ele>
        <time>2021-03-23T10:11:40Z</time>
      </trkpt>
      <trkpt lat="42.81614" lon="1.74461">
        <ele>1770.113</ele>
        <time>2021-03-23T10:11:42Z</time>
      </trkpt>
      <trkpt lat="42.81615" lon="1.74462">
        <ele>1770.092</ele>
        <time>2021-03-23T10:11:44Z</time>
      </trkpt>
      <trkpt lat="42.81616" lon="1.74464">
        <ele>1769.385</ele>
        <time>2021-03-23T10:11:47Z</time>
      </trkpt>
      <trkpt lat="42.81617" lon="1.74466">
        <ele>1769.211</ele>
        <time>2021-03-23T10:11:49Z</time>
      </trkpt>
      <trkpt lat="42.81618" lon="1.74467">
        <ele>1768.432</ele>
        <time>2021-03-23T10:11:51Z</time>
      </trkpt>
      <trkpt lat="42.81619" lon="1.74468">
        <ele>1769.517</ele>
        <time>2021-03-23T10:11:53Z</time>
      </trkpt>
      <trkpt lat="42.8162" lon="1.74469">
        <ele>1769.656</ele>
        <time>2021-03-23T10:11:55Z</time>
      </trkpt>
      <trkpt lat="42.81622" lon="1.7447">
        <ele>1769.058</ele>
        <time>2021-03-23T10:11:57Z</time>
      </trkpt>
      <trkpt lat="42.81623" lon="1.74472">
        <ele>1769.162</ele>
        <time>2021-03-23T10:11:59Z</time>
      </trkpt>
      <trkpt lat="42.81624" lon="1.74473">
        <ele>1769.124</ele>
        <time>2021-03-23T10:12:01Z</time>
      </trkpt>
      <trkpt lat="42.81625" lon="1.74474">
        <ele>1769.072</ele>
        <time>2021-03-23T10:12:03Z</time>
      </trkpt>
      <trkpt lat="42.81627" lon="1.74476">
        <ele>1769.065</ele>
        <time>2021-03-23T10:12:05Z</time>
      </trkpt>
      <trkpt lat="42.81628" lon="1.74477">
        <ele>1769.501</ele>
        <time>2021-03-23T10:12:07Z</time>
      </trkpt>
      <trkpt lat="42.81628" lon="1.74478">
        <ele>1768.797</ele>
        <time>2021-03-23T10:12:08Z</time>
      </trkpt>
      <trkpt lat="42.8163" lon="1.74481">
        <ele>1768.391</ele>
        <time>2021-03-23T10:12:11Z</time>
      </trkpt>
      <trkpt lat="42.81631" lon="1.74483">
        <ele>1768.043</ele>
        <time>2021-03-23T10:12:13Z</time>
      </trkpt>
      <trkpt lat="42.81632" lon="1.74485">
        <ele>1767.58</ele>
        <time>2021-03-23T10:12:16Z</time>
      </trkpt>
      <trkpt lat="42.81633" lon="1.74486">
        <ele>1768.104</ele>
        <time>2021-03-23T10:12:18Z</time>
      </trkpt>
      <trkpt lat="42.81635" lon="1.74487">
        <ele>1768.493</ele>
        <time>2021-03-23T10:12:20Z</time>
      </trkpt>
      <trkpt lat="42.81636" lon="1.74489">
        <ele>1768.547</ele>
        <time>2021-03-23T10:12:23Z</time>
      </trkpt>
      <trkpt lat="42.81637" lon="1.74491">
        <ele>1769.054</ele>
        <time>2021-03-23T10:12:25Z</time>
      </trkpt>
      <trkpt lat="42.81638" lon="1.74491">
        <ele>1769.08</ele>
        <time>2021-03-23T10:12:26Z</time>
      </trkpt>
      <trkpt lat="42.81638" lon="1.74492">
        <ele>1769.79</ele>
        <time>2021-03-23T10:12:29Z</time>
      </trkpt>
      <trkpt lat="42.81639" lon="1.74494">
        <ele>1769.849</ele>
        <time>2021-03-23T10:12:31Z</time>
      </trkpt>
      <trkpt lat="42.81639" lon="1.74494">
        <ele>1769.954</ele>
        <time>2021-03-23T10:12:34Z</time>
      </trkpt>
      <trkpt lat="42.81639" lon="1.74494">
        <ele>1769.961</ele>
        <time>2021-03-23T10:12:36Z</time>
      </trkpt>
      <trkpt lat="42.81639" lon="1.74494">
        <ele>1769.958</ele>
        <time>2021-03-23T10:12:38Z</time>
      </trkpt>
      <trkpt lat="42.81639" lon="1.74494">
        <ele>1769.949</ele>
        <time>2021-03-23T10:12:40Z</time>
      </trkpt>
      <trkpt lat="42.81639" lon="1.74495">
        <ele>1769.612</ele>
        <time>2021-03-23T10:12:42Z</time>
      </trkpt>
      <trkpt lat="42.8164" lon="1.74496">
        <ele>1768.795</ele>
        <time>2021-03-23T10:12:44Z</time>
      </trkpt>
      <trkpt lat="42.81641" lon="1.74497">
        <ele>1768.879</ele>
        <time>2021-03-23T10:12:46Z</time>
      </trkpt>
      <trkpt lat="42.81644" lon="1.74499">
        <ele>1769.318</ele>
        <time>2021-03-23T10:12:49Z</time>
      </trkpt>
      <trkpt lat="42.81645" lon="1.74501">
        <ele>1769.315</ele>
        <time>2021-03-23T10:12:51Z</time>
      </trkpt>
      <trkpt lat="42.81646" lon="1.74503">
        <ele>1768.347</ele>
        <time>2021-03-23T10:12:54Z</time>
      </trkpt>
      <trkpt lat="42.81646" lon="1.74504">
        <ele>1767.994</ele>
        <time>2021-03-23T10:12:56Z</time>
      </trkpt>
      <trkpt lat="42.81647" lon="1.74505">
        <ele>1768.189</ele>
        <time>2021-03-23T10:12:58Z</time>
      </trkpt>
      <trkpt lat="42.81649" lon="1.74507">
        <ele>1768.044</ele>
        <time>2021-03-23T10:13:01Z</time>
      </trkpt>
      <trkpt lat="42.8165" lon="1.7451">
        <ele>1767.634</ele>
        <time>2021-03-23T10:13:04Z</time>
      </trkpt>
      <trkpt lat="42.81651" lon="1.74511">
        <ele>1767.13</ele>
        <time>2021-03-23T10:13:06Z</time>
      </trkpt>
      <trkpt lat="42.81652" lon="1.74512">
        <ele>1766.997</ele>
        <time>2021-03-23T10:13:08Z</time>
      </trkpt>
      <trkpt lat="42.81653" lon="1.74514">
        <ele>1768.029</ele>
        <time>2021-03-23T10:13:10Z</time>
      </trkpt>
      <trkpt lat="42.81654" lon="1.74515">
        <ele>1768.564</ele>
        <time>2021-03-23T10:13:12Z</time>
      </trkpt>
      <trkpt lat="42.81655" lon="1.74516">
        <ele>1768.738</ele>
        <time>2021-03-23T10:13:14Z</time>
      </trkpt>
      <trkpt lat="42.81657" lon="1.74517">
        <ele>1769.23</ele>
        <time>2021-03-23T10:13:16Z</time>
      </trkpt>
      <trkpt lat="42.81658" lon="1.74518">
        <ele>1769.097</ele>
        <time>2021-03-23T10:13:18Z</time>
      </trkpt>
      <trkpt lat="42.81658" lon="1.74519">
        <ele>1770.419</ele>
        <time>2021-03-23T10:13:20Z</time>
      </trkpt>
      <trkpt lat="42.8166" lon="1.7452">
        <ele>1769.465</ele>
        <time>2021-03-23T10:13:22Z</time>
      </trkpt>
      <trkpt lat="42.81661" lon="1.74522">
        <ele>1771.154</ele>
        <time>2021-03-23T10:13:25Z</time>
      </trkpt>
      <trkpt lat="42.81663" lon="1.74524">
        <ele>1771.755</ele>
        <time>2021-03-23T10:13:28Z</time>
      </trkpt>
      <trkpt lat="42.81665" lon="1.74525">
        <ele>1771.064</ele>
        <time>2021-03-23T10:13:30Z</time>
      </trkpt>
      <trkpt lat="42.81666" lon="1.74526">
        <ele>1770.991</ele>
        <time>2021-03-23T10:13:32Z</time>
      </trkpt>
      <trkpt lat="42.81666" lon="1.74527">
        <ele>1770.59</ele>
        <time>2021-03-23T10:13:33Z</time>
      </trkpt>
      <trkpt lat="42.81668" lon="1.74528">
        <ele>1771.735</ele>
        <time>2021-03-23T10:13:36Z</time>
      </trkpt>
      <trkpt lat="42.8167" lon="1.7453">
        <ele>1772.115</ele>
        <time>2021-03-23T10:13:39Z</time>
      </trkpt>
      <trkpt lat="42.81671" lon="1.74531">
        <ele>1771.986</ele>
        <time>2021-03-23T10:13:41Z</time>
      </trkpt>
      <trkpt lat="42.81672" lon="1.74533">
        <ele>1771.77</ele>
        <time>2021-03-23T10:13:43Z</time>
      </trkpt>
      <trkpt lat="42.81673" lon="1.74534">
        <ele>1771.879</ele>
        <time>2021-03-23T10:13:45Z</time>
      </trkpt>
      <trkpt lat="42.81675" lon="1.74536">
        <ele>1770.68</ele>
        <time>2021-03-23T10:13:48Z</time>
      </trkpt>
      <trkpt lat="42.81676" lon="1.74538">
        <ele>1771.257</ele>
        <time>2021-03-23T10:13:50Z</time>
      </trkpt>
      <trkpt lat="42.81677" lon="1.74539">
        <ele>1770.88</ele>
        <time>2021-03-23T10:13:52Z</time>
      </trkpt>
      <trkpt lat="42.81679" lon="1.74542">
        <ele>1771.303</ele>
        <time>2021-03-23T10:13:55Z</time>
      </trkpt>
      <trkpt lat="42.8168" lon="1.74543">
        <ele>1771.186</ele>
        <time>2021-03-23T10:13:57Z</time>
      </trkpt>
      <trkpt lat="42.81682" lon="1.74545">
        <ele>1770.709</ele>
        <time>2021-03-23T10:14:00Z</time>
      </trkpt>
      <trkpt lat="42.81683" lon="1.74547">
        <ele>1770.275</ele>
        <time>2021-03-23T10:14:02Z</time>
      </trkpt>
      <trkpt lat="42.81684" lon="1.74549">
        <ele>1771.76</ele>
        <time>2021-03-23T10:14:04Z</time>
      </trkpt>
      <trkpt lat="42.81685" lon="1.74551">
        <ele>1771.42</ele>
        <time>2021-03-23T10:14:07Z</time>
      </trkpt>
      <trkpt lat="42.81687" lon="1.74551">
        <ele>1773.115</ele>
        <time>2021-03-23T10:14:09Z</time>
      </trkpt>
      <trkpt lat="42.81689" lon="1.74552">
        <ele>1773.198</ele>
        <time>2021-03-23T10:14:11Z</time>
      </trkpt>
      <trkpt lat="42.81691" lon="1.74553">
        <ele>1773.208</ele>
        <time>2021-03-23T10:14:13Z</time>
      </trkpt>
      <trkpt lat="42.81692" lon="1.74554">
        <ele>1772.617</ele>
        <time>2021-03-23T10:14:15Z</time>
      </trkpt>
      <trkpt lat="42.81694" lon="1.74555">
        <ele>1773.236</ele>
        <time>2021-03-23T10:14:17Z</time>
      </trkpt>
      <trkpt lat="42.81695" lon="1.74556">
        <ele>1773.221</ele>
        <time>2021-03-23T10:14:19Z</time>
      </trkpt>
      <trkpt lat="42.81696" lon="1.74558">
        <ele>1774.27</ele>
        <time>2021-03-23T10:14:21Z</time>
      </trkpt>
      <trkpt lat="42.81697" lon="1.74559">
        <ele>1773.921</ele>
        <time>2021-03-23T10:14:23Z</time>
      </trkpt>
      <trkpt lat="42.81698" lon="1.7456">
        <ele>1774.24</ele>
        <time>2021-03-23T10:14:25Z</time>
      </trkpt>
      <trkpt lat="42.81699" lon="1.74562">
        <ele>1773.437</ele>
        <time>2021-03-23T10:14:27Z</time>
      </trkpt>
      <trkpt lat="42.817" lon="1.74562">
        <ele>1774.091</ele>
        <time>2021-03-23T10:14:28Z</time>
      </trkpt>
      <trkpt lat="42.81701" lon="1.74564">
        <ele>1772.909</ele>
        <time>2021-03-23T10:14:31Z</time>
      </trkpt>
      <trkpt lat="42.81702" lon="1.74565">
        <ele>1774.095</ele>
        <time>2021-03-23T10:14:32Z</time>
      </trkpt>
      <trkpt lat="42.81703" lon="1.74567">
        <ele>1773.463</ele>
        <time>2021-03-23T10:14:35Z</time>
      </trkpt>
      <trkpt lat="42.81704" lon="1.74568">
        <ele>1772.8</ele>
        <time>2021-03-23T10:14:37Z</time>
      </trkpt>
      <trkpt lat="42.81704" lon="1.74569">
        <ele>1773.284</ele>
        <time>2021-03-23T10:14:39Z</time>
      </trkpt>
      <trkpt lat="42.81705" lon="1.7457">
        <ele>1773.276</ele>
        <time>2021-03-23T10:14:41Z</time>
      </trkpt>
      <trkpt lat="42.81706" lon="1.74572">
        <ele>1772.518</ele>
        <time>2021-03-23T10:14:44Z</time>
      </trkpt>
      <trkpt lat="42.81706" lon="1.74573">
        <ele>1772.027</ele>
        <time>2021-03-23T10:14:46Z</time>
      </trkpt>
      <trkpt lat="42.81707" lon="1.74574">
        <ele>1772.233</ele>
        <time>2021-03-23T10:14:48Z</time>
      </trkpt>
      <trkpt lat="42.81708" lon="1.74576">
        <ele>1771.867</ele>
        <time>2021-03-23T10:14:50Z</time>
      </trkpt>
      <trkpt lat="42.81709" lon="1.74577">
        <ele>1770.739</ele>
        <time>2021-03-23T10:14:52Z</time>
      </trkpt>
      <trkpt lat="42.81709" lon="1.74578">
        <ele>1772.126</ele>
        <time>2021-03-23T10:14:54Z</time>
      </trkpt>
      <trkpt lat="42.8171" lon="1.74579">
        <ele>1773.39</ele>
        <time>2021-03-23T10:14:56Z</time>
      </trkpt>
      <trkpt lat="42.81711" lon="1.7458">
        <ele>1772.919</ele>
        <time>2021-03-23T10:14:58Z</time>
      </trkpt>
      <trkpt lat="42.81712" lon="1.74581">
        <ele>1773.951</ele>
        <time>2021-03-23T10:15:00Z</time>
      </trkpt>
      <trkpt lat="42.81712" lon="1.74582">
        <ele>1774.129</ele>
        <time>2021-03-23T10:15:02Z</time>
      </trkpt>
      <trkpt lat="42.81713" lon="1.74584">
        <ele>1774.553</ele>
        <time>2021-03-23T10:15:04Z</time>
      </trkpt>
      <trkpt lat="42.81714" lon="1.74585">
        <ele>1776.194</ele>
        <time>2021-03-23T10:15:06Z</time>
      </trkpt>
      <trkpt lat="42.81715" lon="1.74586">
        <ele>1777.818</ele>
        <time>2021-03-23T10:15:08Z</time>
      </trkpt>
      <trkpt lat="42.81716" lon="1.74587">
        <ele>1777.822</ele>
        <time>2021-03-23T10:15:10Z</time>
      </trkpt>
      <trkpt lat="42.81717" lon="1.74588">
        <ele>1777.832</ele>
        <time>2021-03-23T10:15:12Z</time>
      </trkpt>
      <trkpt lat="42.81718" lon="1.74589">
        <ele>1777.372</ele>
        <time>2021-03-23T10:15:14Z</time>
      </trkpt>
      <trkpt lat="42.81719" lon="1.7459">
        <ele>1776.858</ele>
        <time>2021-03-23T10:15:16Z</time>
      </trkpt>
      <trkpt lat="42.81719" lon="1.74591">
        <ele>1777.485</ele>
        <time>2021-03-23T10:15:18Z</time>
      </trkpt>
      <trkpt lat="42.8172" lon="1.74592">
        <ele>1777.84</ele>
        <time>2021-03-23T10:15:20Z</time>
      </trkpt>
      <trkpt lat="42.81721" lon="1.74593">
        <ele>1778.871</ele>
        <time>2021-03-23T10:15:22Z</time>
      </trkpt>
      <trkpt lat="42.81722" lon="1.74594">
        <ele>1778.641</ele>
        <time>2021-03-23T10:15:24Z</time>
      </trkpt>
      <trkpt lat="42.81722" lon="1.74595">
        <ele>1778.13</ele>
        <time>2021-03-23T10:15:25Z</time>
      </trkpt>
      <trkpt lat="42.81723" lon="1.74597">
        <ele>1778.726</ele>
        <time>2021-03-23T10:15:28Z</time>
      </trkpt>
      <trkpt lat="42.81724" lon="1.74597">
        <ele>1778.665</ele>
        <time>2021-03-23T10:15:30Z</time>
      </trkpt>
      <trkpt lat="42.81724" lon="1.74598">
        <ele>1778.599</ele>
        <time>2021-03-23T10:15:32Z</time>
      </trkpt>
      <trkpt lat="42.81724" lon="1.74598">
        <ele>1778.575</ele>
        <time>2021-03-23T10:15:34Z</time>
      </trkpt>
      <trkpt lat="42.81724" lon="1.74598">
        <ele>1778.428</ele>
        <time>2021-03-23T10:15:36Z</time>
      </trkpt>
      <trkpt lat="42.81724" lon="1.74599">
        <ele>1778.423</ele>
        <time>2021-03-23T10:15:38Z</time>
      </trkpt>
      <trkpt lat="42.81724" lon="1.74599">
        <ele>1778.678</ele>
        <time>2021-03-23T10:15:40Z</time>
      </trkpt>
      <trkpt lat="42.81724" lon="1.74599">
        <ele>1778.687</ele>
        <time>2021-03-23T10:15:42Z</time>
      </trkpt>
      <trkpt lat="42.81724" lon="1.74599">
        <ele>1778.652</ele>
        <time>2021-03-23T10:15:44Z</time>
      </trkpt>
      <trkpt lat="42.81724" lon="1.74599">
        <ele>1778.185</ele>
        <time>2021-03-23T10:15:46Z</time>
      </trkpt>
      <trkpt lat="42.81724" lon="1.74599">
        <ele>1778.197</ele>
        <time>2021-03-23T10:15:48Z</time>
      </trkpt>
      <trkpt lat="42.81724" lon="1.74599">
        <ele>1778.198</ele>
        <time>2021-03-23T10:15:50Z</time>
      </trkpt>
      <trkpt lat="42.81724" lon="1.74599">
        <ele>1778.191</ele>
        <time>2021-03-23T10:15:52Z</time>
      </trkpt>
      <trkpt lat="42.81724" lon="1.74599">
        <ele>1778.198</ele>
        <time>2021-03-23T10:15:54Z</time>
      </trkpt>
      <trkpt lat="42.81724" lon="1.74599">
        <ele>1778.2</ele>
        <time>2021-03-23T10:15:56Z</time>
      </trkpt>
      <trkpt lat="42.81724" lon="1.74599">
        <ele>1778.197</ele>
        <time>2021-03-23T10:15:58Z</time>
      </trkpt>
      <trkpt lat="42.81724" lon="1.74599">
        <ele>1778.192</ele>
        <time>2021-03-23T10:16:00Z</time>
      </trkpt>
      <trkpt lat="42.81724" lon="1.74599">
        <ele>1778.178</ele>
        <time>2021-03-23T10:16:02Z</time>
      </trkpt>
      <trkpt lat="42.81724" lon="1.74599">
        <ele>1778.187</ele>
        <time>2021-03-23T10:16:04Z</time>
      </trkpt>
      <trkpt lat="42.81724" lon="1.74599">
        <ele>1778.178</ele>
        <time>2021-03-23T10:16:06Z</time>
      </trkpt>
      <trkpt lat="42.81724" lon="1.74599">
        <ele>1778.155</ele>
        <time>2021-03-23T10:16:08Z</time>
      </trkpt>
      <trkpt lat="42.81724" lon="1.74599">
        <ele>1778.107</ele>
        <time>2021-03-23T10:16:10Z</time>
      </trkpt>
      <trkpt lat="42.81724" lon="1.74599">
        <ele>1778.105</ele>
        <time>2021-03-23T10:16:12Z</time>
      </trkpt>
      <trkpt lat="42.81724" lon="1.74599">
        <ele>1778.095</ele>
        <time>2021-03-23T10:16:14Z</time>
      </trkpt>
      <trkpt lat="42.81724" lon="1.74599">
        <ele>1778.092</ele>
        <time>2021-03-23T10:16:16Z</time>
      </trkpt>
      <trkpt lat="42.81724" lon="1.74599">
        <ele>1778.097</ele>
        <time>2021-03-23T10:16:18Z</time>
      </trkpt>
      <trkpt lat="42.81724" lon="1.74599">
        <ele>1778.094</ele>
        <time>2021-03-23T10:16:20Z</time>
      </trkpt>
      <trkpt lat="42.81724" lon="1.74599">
        <ele>1778.087</ele>
        <time>2021-03-23T10:16:22Z</time>
      </trkpt>
      <trkpt lat="42.81724" lon="1.74599">
        <ele>1778.086</ele>
        <time>2021-03-23T10:16:24Z</time>
      </trkpt>
      <trkpt lat="42.81724" lon="1.74599">
        <ele>1778.079</ele>
        <time>2021-03-23T10:16:26Z</time>
      </trkpt>
      <trkpt lat="42.81724" lon="1.74599">
        <ele>1778.092</ele>
        <time>2021-03-23T10:16:28Z</time>
      </trkpt>
      <trkpt lat="42.81724" lon="1.74599">
        <ele>1778.084</ele>
        <time>2021-03-23T10:16:30Z</time>
      </trkpt>
      <trkpt lat="42.81724" lon="1.74599">
        <ele>1778.077</ele>
        <time>2021-03-23T10:16:32Z</time>
      </trkpt>
      <trkpt lat="42.81724" lon="1.74599">
        <ele>1778.084</ele>
        <time>2021-03-23T10:16:34Z</time>
      </trkpt>
      <trkpt lat="42.81724" lon="1.74599">
        <ele>1778.076</ele>
        <time>2021-03-23T10:16:36Z</time>
      </trkpt>
      <trkpt lat="42.81725" lon="1.74599">
        <ele>1778.58</ele>
        <time>2021-03-23T10:16:38Z</time>
      </trkpt>
      <trkpt lat="42.81725" lon="1.74599">
        <ele>1778.393</ele>
        <time>2021-03-23T10:16:40Z</time>
      </trkpt>
      <trkpt lat="42.81725" lon="1.74599">
        <ele>1778.352</ele>
        <time>2021-03-23T10:16:42Z</time>
      </trkpt>
      <trkpt lat="42.81725" lon="1.74599">
        <ele>1778.692</ele>
        <time>2021-03-23T10:16:44Z</time>
      </trkpt>
      <trkpt lat="42.81725" lon="1.74599">
        <ele>1780.831</ele>
        <time>2021-03-23T10:16:46Z</time>
      </trkpt>
      <trkpt lat="42.81725" lon="1.74598">
        <ele>1780.275</ele>
        <time>2021-03-23T10:16:48Z</time>
      </trkpt>
      <trkpt lat="42.81726" lon="1.74599">
        <ele>1779.692</ele>
        <time>2021-03-23T10:16:50Z</time>
      </trkpt>
      <trkpt lat="42.81727" lon="1.74601">
        <ele>1779.083</ele>
        <time>2021-03-23T10:16:52Z</time>
      </trkpt>
      <trkpt lat="42.81728" lon="1.74602">
        <ele>1778.869</ele>
        <time>2021-03-23T10:16:54Z</time>
      </trkpt>
      <trkpt lat="42.81729" lon="1.74604">
        <ele>1779.558</ele>
        <time>2021-03-23T10:16:56Z</time>
      </trkpt>
      <trkpt lat="42.8173" lon="1.74605">
        <ele>1779.318</ele>
        <time>2021-03-23T10:16:58Z</time>
      </trkpt>
      <trkpt lat="42.81731" lon="1.74607">
        <ele>1778.71</ele>
        <time>2021-03-23T10:17:00Z</time>
      </trkpt>
      <trkpt lat="42.81731" lon="1.74608">
        <ele>1778.583</ele>
        <time>2021-03-23T10:17:02Z</time>
      </trkpt>
      <trkpt lat="42.81732" lon="1.74609">
        <ele>1778.952</ele>
        <time>2021-03-23T10:17:04Z</time>
      </trkpt>
      <trkpt lat="42.81733" lon="1.7461">
        <ele>1778.328</ele>
        <time>2021-03-23T10:17:06Z</time>
      </trkpt>
      <trkpt lat="42.81733" lon="1.74611">
        <ele>1777.91</ele>
        <time>2021-03-23T10:17:08Z</time>
      </trkpt>
      <trkpt lat="42.81734" lon="1.74612">
        <ele>1777.927</ele>
        <time>2021-03-23T10:17:10Z</time>
      </trkpt>
      <trkpt lat="42.81735" lon="1.74614">
        <ele>1778.709</ele>
        <time>2021-03-23T10:17:12Z</time>
      </trkpt>
      <trkpt lat="42.81736" lon="1.74614">
        <ele>1779.344</ele>
        <time>2021-03-23T10:17:14Z</time>
      </trkpt>
      <trkpt lat="42.81737" lon="1.74615">
        <ele>1780.157</ele>
        <time>2021-03-23T10:17:16Z</time>
      </trkpt>
      <trkpt lat="42.81738" lon="1.74616">
        <ele>1780.315</ele>
        <time>2021-03-23T10:17:18Z</time>
      </trkpt>
      <trkpt lat="42.81739" lon="1.74616">
        <ele>1780.698</ele>
        <time>2021-03-23T10:17:20Z</time>
      </trkpt>
      <trkpt lat="42.81739" lon="1.74617">
        <ele>1780.644</ele>
        <time>2021-03-23T10:17:22Z</time>
      </trkpt>
      <trkpt lat="42.8174" lon="1.74618">
        <ele>1781.201</ele>
        <time>2021-03-23T10:17:24Z</time>
      </trkpt>
      <trkpt lat="42.81742" lon="1.74619">
        <ele>1782.51</ele>
        <time>2021-03-23T10:17:26Z</time>
      </trkpt>
      <trkpt lat="42.81742" lon="1.7462">
        <ele>1781.619</ele>
        <time>2021-03-23T10:17:28Z</time>
      </trkpt>
      <trkpt lat="42.81743" lon="1.74621">
        <ele>1782.207</ele>
        <time>2021-03-23T10:17:30Z</time>
      </trkpt>
      <trkpt lat="42.81744" lon="1.74622">
        <ele>1784.486</ele>
        <time>2021-03-23T10:17:32Z</time>
      </trkpt>
      <trkpt lat="42.81745" lon="1.74622">
        <ele>1785.048</ele>
        <time>2021-03-23T10:17:34Z</time>
      </trkpt>
      <trkpt lat="42.81746" lon="1.74623">
        <ele>1784.384</ele>
        <time>2021-03-23T10:17:36Z</time>
      </trkpt>
      <trkpt lat="42.81747" lon="1.74625">
        <ele>1784.855</ele>
        <time>2021-03-23T10:17:38Z</time>
      </trkpt>
      <trkpt lat="42.81748" lon="1.74625">
        <ele>1785.597</ele>
        <time>2021-03-23T10:17:40Z</time>
      </trkpt>
      <trkpt lat="42.81749" lon="1.74626">
        <ele>1785.588</ele>
        <time>2021-03-23T10:17:42Z</time>
      </trkpt>
      <trkpt lat="42.8175" lon="1.74627">
        <ele>1785.354</ele>
        <time>2021-03-23T10:17:44Z</time>
      </trkpt>
      <trkpt lat="42.81752" lon="1.74628">
        <ele>1785.377</ele>
        <time>2021-03-23T10:17:46Z</time>
      </trkpt>
      <trkpt lat="42.81752" lon="1.74629">
        <ele>1784.738</ele>
        <time>2021-03-23T10:17:48Z</time>
      </trkpt>
      <trkpt lat="42.81753" lon="1.7463">
        <ele>1785.723</ele>
        <time>2021-03-23T10:17:50Z</time>
      </trkpt>
      <trkpt lat="42.81755" lon="1.74631">
        <ele>1786.005</ele>
        <time>2021-03-23T10:17:52Z</time>
      </trkpt>
      <trkpt lat="42.81756" lon="1.74632">
        <ele>1785.802</ele>
        <time>2021-03-23T10:17:54Z</time>
      </trkpt>
      <trkpt lat="42.81757" lon="1.74633">
        <ele>1786.719</ele>
        <time>2021-03-23T10:17:56Z</time>
      </trkpt>
      <trkpt lat="42.81758" lon="1.74634">
        <ele>1785.917</ele>
        <time>2021-03-23T10:17:58Z</time>
      </trkpt>
      <trkpt lat="42.81758" lon="1.74635">
        <ele>1785.577</ele>
        <time>2021-03-23T10:18:00Z</time>
      </trkpt>
      <trkpt lat="42.81759" lon="1.74636">
        <ele>1786.442</ele>
        <time>2021-03-23T10:18:02Z</time>
      </trkpt>
      <trkpt lat="42.81759" lon="1.74637">
        <ele>1785.751</ele>
        <time>2021-03-23T10:18:04Z</time>
      </trkpt>
      <trkpt lat="42.8176" lon="1.74638">
        <ele>1785.978</ele>
        <time>2021-03-23T10:18:06Z</time>
      </trkpt>
      <trkpt lat="42.8176" lon="1.74639">
        <ele>1785.91</ele>
        <time>2021-03-23T10:18:08Z</time>
      </trkpt>
      <trkpt lat="42.8176" lon="1.74639">
        <ele>1787.404</ele>
        <time>2021-03-23T10:18:10Z</time>
      </trkpt>
      <trkpt lat="42.81761" lon="1.7464">
        <ele>1787.409</ele>
        <time>2021-03-23T10:18:12Z</time>
      </trkpt>
      <trkpt lat="42.81762" lon="1.7464">
        <ele>1787.745</ele>
        <time>2021-03-23T10:18:14Z</time>
      </trkpt>
      <trkpt lat="42.81762" lon="1.7464">
        <ele>1787.665</ele>
        <time>2021-03-23T10:18:16Z</time>
      </trkpt>
      <trkpt lat="42.81763" lon="1.74641">
        <ele>1787.847</ele>
        <time>2021-03-23T10:18:18Z</time>
      </trkpt>
      <trkpt lat="42.81764" lon="1.74641">
        <ele>1788.971</ele>
        <time>2021-03-23T10:18:20Z</time>
      </trkpt>
      <trkpt lat="42.81765" lon="1.74642">
        <ele>1789.461</ele>
        <time>2021-03-23T10:18:22Z</time>
      </trkpt>
      <trkpt lat="42.81766" lon="1.74642">
        <ele>1789.71</ele>
        <time>2021-03-23T10:18:24Z</time>
      </trkpt>
      <trkpt lat="42.81766" lon="1.74643">
        <ele>1790.054</ele>
        <time>2021-03-23T10:18:26Z</time>
      </trkpt>
      <trkpt lat="42.81766" lon="1.74643">
        <ele>1790.322</ele>
        <time>2021-03-23T10:18:28Z</time>
      </trkpt>
      <trkpt lat="42.81767" lon="1.74644">
        <ele>1790.947</ele>
        <time>2021-03-23T10:18:30Z</time>
      </trkpt>
      <trkpt lat="42.81767" lon="1.74644">
        <ele>1791.489</ele>
        <time>2021-03-23T10:18:32Z</time>
      </trkpt>
      <trkpt lat="42.81768" lon="1.74644">
        <ele>1791.891</ele>
        <time>2021-03-23T10:18:34Z</time>
      </trkpt>
      <trkpt lat="42.81769" lon="1.74645">
        <ele>1793.522</ele>
        <time>2021-03-23T10:18:36Z</time>
      </trkpt>
      <trkpt lat="42.81769" lon="1.74645">
        <ele>1792.352</ele>
        <time>2021-03-23T10:18:38Z</time>
      </trkpt>
      <trkpt lat="42.8177" lon="1.74646">
        <ele>1792.684</ele>
        <time>2021-03-23T10:18:40Z</time>
      </trkpt>
      <trkpt lat="42.81771" lon="1.74646">
        <ele>1793.183</ele>
        <time>2021-03-23T10:18:42Z</time>
      </trkpt>
      <trkpt lat="42.81771" lon="1.74647">
        <ele>1793.689</ele>
        <time>2021-03-23T10:18:44Z</time>
      </trkpt>
      <trkpt lat="42.81772" lon="1.74648">
        <ele>1794.515</ele>
        <time>2021-03-23T10:18:46Z</time>
      </trkpt>
      <trkpt lat="42.81773" lon="1.74648">
        <ele>1794.578</ele>
        <time>2021-03-23T10:18:48Z</time>
      </trkpt>
      <trkpt lat="42.81773" lon="1.74649">
        <ele>1794.179</ele>
        <time>2021-03-23T10:18:50Z</time>
      </trkpt>
      <trkpt lat="42.81772" lon="1.74649">
        <ele>1794.023</ele>
        <time>2021-03-23T10:18:52Z</time>
      </trkpt>
      <trkpt lat="42.81772" lon="1.74649">
        <ele>1793.978</ele>
        <time>2021-03-23T10:18:54Z</time>
      </trkpt>
      <trkpt lat="42.81773" lon="1.74649">
        <ele>1794.227</ele>
        <time>2021-03-23T10:18:56Z</time>
      </trkpt>
      <trkpt lat="42.81773" lon="1.74649">
        <ele>1794.197</ele>
        <time>2021-03-23T10:18:58Z</time>
      </trkpt>
      <trkpt lat="42.81773" lon="1.7465">
        <ele>1793.557</ele>
        <time>2021-03-23T10:19:00Z</time>
      </trkpt>
      <trkpt lat="42.81774" lon="1.7465">
        <ele>1793.962</ele>
        <time>2021-03-23T10:19:02Z</time>
      </trkpt>
      <trkpt lat="42.81775" lon="1.74651">
        <ele>1796.528</ele>
        <time>2021-03-23T10:19:04Z</time>
      </trkpt>
      <trkpt lat="42.81775" lon="1.74651">
        <ele>1797.414</ele>
        <time>2021-03-23T10:19:06Z</time>
      </trkpt>
      <trkpt lat="42.81776" lon="1.74652">
        <ele>1797.968</ele>
        <time>2021-03-23T10:19:08Z</time>
      </trkpt>
      <trkpt lat="42.81777" lon="1.74652">
        <ele>1798.17</ele>
        <time>2021-03-23T10:19:10Z</time>
      </trkpt>
      <trkpt lat="42.81778" lon="1.74653">
        <ele>1797.631</ele>
        <time>2021-03-23T10:19:12Z</time>
      </trkpt>
      <trkpt lat="42.81778" lon="1.74654">
        <ele>1797.845</ele>
        <time>2021-03-23T10:19:14Z</time>
      </trkpt>
      <trkpt lat="42.81779" lon="1.74654">
        <ele>1798.211</ele>
        <time>2021-03-23T10:19:16Z</time>
      </trkpt>
      <trkpt lat="42.8178" lon="1.74654">
        <ele>1799.368</ele>
        <time>2021-03-23T10:19:18Z</time>
      </trkpt>
      <trkpt lat="42.81781" lon="1.74655">
        <ele>1798.912</ele>
        <time>2021-03-23T10:19:20Z</time>
      </trkpt>
      <trkpt lat="42.81781" lon="1.74655">
        <ele>1798.769</ele>
        <time>2021-03-23T10:19:22Z</time>
      </trkpt>
      <trkpt lat="42.81782" lon="1.74656">
        <ele>1798.709</ele>
        <time>2021-03-23T10:19:24Z</time>
      </trkpt>
      <trkpt lat="42.81783" lon="1.74657">
        <ele>1799.141</ele>
        <time>2021-03-23T10:19:26Z</time>
      </trkpt>
      <trkpt lat="42.81784" lon="1.74658">
        <ele>1798.743</ele>
        <time>2021-03-23T10:19:28Z</time>
      </trkpt>
      <trkpt lat="42.81785" lon="1.74658">
        <ele>1798.517</ele>
        <time>2021-03-23T10:19:30Z</time>
      </trkpt>
      <trkpt lat="42.81786" lon="1.74659">
        <ele>1799.45</ele>
        <time>2021-03-23T10:19:32Z</time>
      </trkpt>
      <trkpt lat="42.81786" lon="1.74659">
        <ele>1801.675</ele>
        <time>2021-03-23T10:19:34Z</time>
      </trkpt>
      <trkpt lat="42.81787" lon="1.7466">
        <ele>1801.287</ele>
        <time>2021-03-23T10:19:36Z</time>
      </trkpt>
      <trkpt lat="42.81788" lon="1.74661">
        <ele>1801.25</ele>
        <time>2021-03-23T10:19:38Z</time>
      </trkpt>
      <trkpt lat="42.81789" lon="1.74662">
        <ele>1802.494</ele>
        <time>2021-03-23T10:19:40Z</time>
      </trkpt>
      <trkpt lat="42.8179" lon="1.74663">
        <ele>1802.845</ele>
        <time>2021-03-23T10:19:42Z</time>
      </trkpt>
      <trkpt lat="42.8179" lon="1.74663">
        <ele>1802.976</ele>
        <time>2021-03-23T10:19:44Z</time>
      </trkpt>
      <trkpt lat="42.81791" lon="1.74664">
        <ele>1802.756</ele>
        <time>2021-03-23T10:19:46Z</time>
      </trkpt>
      <trkpt lat="42.81792" lon="1.74665">
        <ele>1802.969</ele>
        <time>2021-03-23T10:19:48Z</time>
      </trkpt>
      <trkpt lat="42.81792" lon="1.74666">
        <ele>1804.78</ele>
        <time>2021-03-23T10:19:50Z</time>
      </trkpt>
      <trkpt lat="42.81793" lon="1.74667">
        <ele>1805.427</ele>
        <time>2021-03-23T10:19:52Z</time>
      </trkpt>
      <trkpt lat="42.81794" lon="1.74668">
        <ele>1805.698</ele>
        <time>2021-03-23T10:19:54Z</time>
      </trkpt>
      <trkpt lat="42.81795" lon="1.74669">
        <ele>1805.022</ele>
        <time>2021-03-23T10:19:56Z</time>
      </trkpt>
      <trkpt lat="42.81796" lon="1.7467">
        <ele>1804.346</ele>
        <time>2021-03-23T10:19:58Z</time>
      </trkpt>
      <trkpt lat="42.81797" lon="1.74671">
        <ele>1804.673</ele>
        <time>2021-03-23T10:20:00Z</time>
      </trkpt>
      <trkpt lat="42.81798" lon="1.74672">
        <ele>1804.526</ele>
        <time>2021-03-23T10:20:02Z</time>
      </trkpt>
      <trkpt lat="42.81799" lon="1.74673">
        <ele>1804.906</ele>
        <time>2021-03-23T10:20:04Z</time>
      </trkpt>
      <trkpt lat="42.818" lon="1.74674">
        <ele>1805.93</ele>
        <time>2021-03-23T10:20:06Z</time>
      </trkpt>
      <trkpt lat="42.818" lon="1.74675">
        <ele>1806.619</ele>
        <time>2021-03-23T10:20:08Z</time>
      </trkpt>
      <trkpt lat="42.818" lon="1.74675">
        <ele>1806.466</ele>
        <time>2021-03-23T10:20:10Z</time>
      </trkpt>
      <trkpt lat="42.818" lon="1.74676">
        <ele>1806.019</ele>
        <time>2021-03-23T10:20:12Z</time>
      </trkpt>
      <trkpt lat="42.81801" lon="1.74676">
        <ele>1805.693</ele>
        <time>2021-03-23T10:20:14Z</time>
      </trkpt>
      <trkpt lat="42.81801" lon="1.74677">
        <ele>1807.049</ele>
        <time>2021-03-23T10:20:16Z</time>
      </trkpt>
      <trkpt lat="42.81801" lon="1.74678">
        <ele>1807.073</ele>
        <time>2021-03-23T10:20:18Z</time>
      </trkpt>
      <trkpt lat="42.81802" lon="1.74679">
        <ele>1808.01</ele>
        <time>2021-03-23T10:20:20Z</time>
      </trkpt>
      <trkpt lat="42.81802" lon="1.74679">
        <ele>1808.042</ele>
        <time>2021-03-23T10:20:22Z</time>
      </trkpt>
      <trkpt lat="42.81803" lon="1.7468">
        <ele>1808.483</ele>
        <time>2021-03-23T10:20:24Z</time>
      </trkpt>
      <trkpt lat="42.81804" lon="1.74681">
        <ele>1808.233</ele>
        <time>2021-03-23T10:20:26Z</time>
      </trkpt>
      <trkpt lat="42.81804" lon="1.74683">
        <ele>1808.179</ele>
        <time>2021-03-23T10:20:28Z</time>
      </trkpt>
      <trkpt lat="42.81805" lon="1.74684">
        <ele>1808.683</ele>
        <time>2021-03-23T10:20:30Z</time>
      </trkpt>
      <trkpt lat="42.81806" lon="1.74685">
        <ele>1808.521</ele>
        <time>2021-03-23T10:20:32Z</time>
      </trkpt>
      <trkpt lat="42.81806" lon="1.74686">
        <ele>1809.203</ele>
        <time>2021-03-23T10:20:34Z</time>
      </trkpt>
      <trkpt lat="42.81806" lon="1.74686">
        <ele>1809.188</ele>
        <time>2021-03-23T10:20:36Z</time>
      </trkpt>
      <trkpt lat="42.81807" lon="1.74687">
        <ele>1809.762</ele>
        <time>2021-03-23T10:20:38Z</time>
      </trkpt>
      <trkpt lat="42.81807" lon="1.74688">
        <ele>1809.997</ele>
        <time>2021-03-23T10:20:40Z</time>
      </trkpt>
      <trkpt lat="42.81807" lon="1.7469">
        <ele>1810.613</ele>
        <time>2021-03-23T10:20:42Z</time>
      </trkpt>
      <trkpt lat="42.81807" lon="1.74691">
        <ele>1811.723</ele>
        <time>2021-03-23T10:20:44Z</time>
      </trkpt>
      <trkpt lat="42.81807" lon="1.74692">
        <ele>1811.386</ele>
        <time>2021-03-23T10:20:46Z</time>
      </trkpt>
      <trkpt lat="42.81807" lon="1.74692">
        <ele>1811.386</ele>
        <time>2021-03-23T10:20:48Z</time>
      </trkpt>
      <trkpt lat="42.81807" lon="1.74692">
        <ele>1811.21</ele>
        <time>2021-03-23T10:20:50Z</time>
      </trkpt>
      <trkpt lat="42.81808" lon="1.74693">
        <ele>1811.762</ele>
        <time>2021-03-23T10:20:52Z</time>
      </trkpt>
      <trkpt lat="42.81809" lon="1.74695">
        <ele>1811.532</ele>
        <time>2021-03-23T10:20:54Z</time>
      </trkpt>
      <trkpt lat="42.81809" lon="1.74696">
        <ele>1811.424</ele>
        <time>2021-03-23T10:20:56Z</time>
      </trkpt>
      <trkpt lat="42.8181" lon="1.74697">
        <ele>1811.688</ele>
        <time>2021-03-23T10:20:58Z</time>
      </trkpt>
      <trkpt lat="42.8181" lon="1.74699">
        <ele>1811.212</ele>
        <time>2021-03-23T10:21:00Z</time>
      </trkpt>
      <trkpt lat="42.8181" lon="1.747">
        <ele>1810.943</ele>
        <time>2021-03-23T10:21:02Z</time>
      </trkpt>
      <trkpt lat="42.81811" lon="1.747">
        <ele>1811.632</ele>
        <time>2021-03-23T10:21:04Z</time>
      </trkpt>
      <trkpt lat="42.81811" lon="1.74701">
        <ele>1811.952</ele>
        <time>2021-03-23T10:21:06Z</time>
      </trkpt>
      <trkpt lat="42.81812" lon="1.74702">
        <ele>1812.907</ele>
        <time>2021-03-23T10:21:08Z</time>
      </trkpt>
      <trkpt lat="42.81813" lon="1.74703">
        <ele>1812.968</ele>
        <time>2021-03-23T10:21:10Z</time>
      </trkpt>
      <trkpt lat="42.81814" lon="1.74704">
        <ele>1812.742</ele>
        <time>2021-03-23T10:21:12Z</time>
      </trkpt>
      <trkpt lat="42.81815" lon="1.74705">
        <ele>1812.855</ele>
        <time>2021-03-23T10:21:14Z</time>
      </trkpt>
      <trkpt lat="42.81816" lon="1.74705">
        <ele>1812.396</ele>
        <time>2021-03-23T10:21:16Z</time>
      </trkpt>
      <trkpt lat="42.81817" lon="1.74706">
        <ele>1813.123</ele>
        <time>2021-03-23T10:21:18Z</time>
      </trkpt>
      <trkpt lat="42.81818" lon="1.74707">
        <ele>1813.332</ele>
        <time>2021-03-23T10:21:20Z</time>
      </trkpt>
      <trkpt lat="42.81819" lon="1.74708">
        <ele>1813.02</ele>
        <time>2021-03-23T10:21:22Z</time>
      </trkpt>
      <trkpt lat="42.8182" lon="1.74709">
        <ele>1813.105</ele>
        <time>2021-03-23T10:21:24Z</time>
      </trkpt>
      <trkpt lat="42.8182" lon="1.7471">
        <ele>1813.804</ele>
        <time>2021-03-23T10:21:26Z</time>
      </trkpt>
      <trkpt lat="42.81821" lon="1.74711">
        <ele>1813.706</ele>
        <time>2021-03-23T10:21:28Z</time>
      </trkpt>
      <trkpt lat="42.81822" lon="1.74712">
        <ele>1813.647</ele>
        <time>2021-03-23T10:21:30Z</time>
      </trkpt>
      <trkpt lat="42.81822" lon="1.74713">
        <ele>1814.183</ele>
        <time>2021-03-23T10:21:32Z</time>
      </trkpt>
      <trkpt lat="42.81823" lon="1.74714">
        <ele>1814.48</ele>
        <time>2021-03-23T10:21:34Z</time>
      </trkpt>
      <trkpt lat="42.81824" lon="1.74715">
        <ele>1815.04</ele>
        <time>2021-03-23T10:21:36Z</time>
      </trkpt>
      <trkpt lat="42.81825" lon="1.74715">
        <ele>1815.348</ele>
        <time>2021-03-23T10:21:38Z</time>
      </trkpt>
      <trkpt lat="42.81825" lon="1.74716">
        <ele>1815.245</ele>
        <time>2021-03-23T10:21:40Z</time>
      </trkpt>
      <trkpt lat="42.81826" lon="1.74717">
        <ele>1816.187</ele>
        <time>2021-03-23T10:21:42Z</time>
      </trkpt>
      <trkpt lat="42.81827" lon="1.74718">
        <ele>1815.434</ele>
        <time>2021-03-23T10:21:44Z</time>
      </trkpt>
      <trkpt lat="42.81827" lon="1.74718">
        <ele>1815.255</ele>
        <time>2021-03-23T10:21:46Z</time>
      </trkpt>
      <trkpt lat="42.81827" lon="1.74719">
        <ele>1814.146</ele>
        <time>2021-03-23T10:21:48Z</time>
      </trkpt>
      <trkpt lat="42.81828" lon="1.74721">
        <ele>1814.719</ele>
        <time>2021-03-23T10:21:50Z</time>
      </trkpt>
      <trkpt lat="42.81829" lon="1.74722">
        <ele>1815.01</ele>
        <time>2021-03-23T10:21:52Z</time>
      </trkpt>
      <trkpt lat="42.8183" lon="1.74723">
        <ele>1814.679</ele>
        <time>2021-03-23T10:21:55Z</time>
      </trkpt>
      <trkpt lat="42.8183" lon="1.74724">
        <ele>1814.637</ele>
        <time>2021-03-23T10:21:57Z</time>
      </trkpt>
      <trkpt lat="42.8183" lon="1.74724">
        <ele>1814.612</ele>
        <time>2021-03-23T10:21:59Z</time>
      </trkpt>
      <trkpt lat="42.8183" lon="1.74724">
        <ele>1814.591</ele>
        <time>2021-03-23T10:22:01Z</time>
      </trkpt>
      <trkpt lat="42.8183" lon="1.74725">
        <ele>1814.584</ele>
        <time>2021-03-23T10:22:03Z</time>
      </trkpt>
      <trkpt lat="42.8183" lon="1.74725">
        <ele>1814.545</ele>
        <time>2021-03-23T10:22:05Z</time>
      </trkpt>
      <trkpt lat="42.8183" lon="1.74725">
        <ele>1814.532</ele>
        <time>2021-03-23T10:22:07Z</time>
      </trkpt>
      <trkpt lat="42.8183" lon="1.74725">
        <ele>1814.498</ele>
        <time>2021-03-23T10:22:09Z</time>
      </trkpt>
      <trkpt lat="42.8183" lon="1.74725">
        <ele>1815.047</ele>
        <time>2021-03-23T10:22:11Z</time>
      </trkpt>
      <trkpt lat="42.8183" lon="1.74725">
        <ele>1815.027</ele>
        <time>2021-03-23T10:22:13Z</time>
      </trkpt>
      <trkpt lat="42.8183" lon="1.74726">
        <ele>1815.04</ele>
        <time>2021-03-23T10:22:15Z</time>
      </trkpt>
      <trkpt lat="42.8183" lon="1.74726">
        <ele>1815.078</ele>
        <time>2021-03-23T10:22:17Z</time>
      </trkpt>
      <trkpt lat="42.8183" lon="1.74726">
        <ele>1815.087</ele>
        <time>2021-03-23T10:22:19Z</time>
      </trkpt>
      <trkpt lat="42.8183" lon="1.74726">
        <ele>1815.066</ele>
        <time>2021-03-23T10:22:21Z</time>
      </trkpt>
      <trkpt lat="42.8183" lon="1.74726">
        <ele>1815.231</ele>
        <time>2021-03-23T10:22:23Z</time>
      </trkpt>
      <trkpt lat="42.81829" lon="1.74726">
        <ele>1816.47</ele>
        <time>2021-03-23T10:22:25Z</time>
      </trkpt>
      <trkpt lat="42.81829" lon="1.74725">
        <ele>1816.484</ele>
        <time>2021-03-23T10:22:27Z</time>
      </trkpt>
      <trkpt lat="42.81829" lon="1.74725">
        <ele>1816.519</ele>
        <time>2021-03-23T10:22:29Z</time>
      </trkpt>
      <trkpt lat="42.81829" lon="1.74725">
        <ele>1816.516</ele>
        <time>2021-03-23T10:22:31Z</time>
      </trkpt>
      <trkpt lat="42.81829" lon="1.74725">
        <ele>1816.722</ele>
        <time>2021-03-23T10:22:33Z</time>
      </trkpt>
      <trkpt lat="42.81829" lon="1.74725">
        <ele>1816.771</ele>
        <time>2021-03-23T10:22:35Z</time>
      </trkpt>
      <trkpt lat="42.81829" lon="1.74725">
        <ele>1816.746</ele>
        <time>2021-03-23T10:22:37Z</time>
      </trkpt>
      <trkpt lat="42.81829" lon="1.74725">
        <ele>1816.731</ele>
        <time>2021-03-23T10:22:40Z</time>
      </trkpt>
      <trkpt lat="42.81829" lon="1.74725">
        <ele>1816.729</ele>
        <time>2021-03-23T10:22:42Z</time>
      </trkpt>
      <trkpt lat="42.81829" lon="1.74725">
        <ele>1816.727</ele>
        <time>2021-03-23T10:22:44Z</time>
      </trkpt>
      <trkpt lat="42.81829" lon="1.74726">
        <ele>1817.141</ele>
        <time>2021-03-23T10:22:46Z</time>
      </trkpt>
      <trkpt lat="42.81829" lon="1.74726">
        <ele>1817.152</ele>
        <time>2021-03-23T10:22:48Z</time>
      </trkpt>
      <trkpt lat="42.8183" lon="1.74726">
        <ele>1817.166</ele>
        <time>2021-03-23T10:22:50Z</time>
      </trkpt>
      <trkpt lat="42.8183" lon="1.74726">
        <ele>1817.207</ele>
        <time>2021-03-23T10:22:52Z</time>
      </trkpt>
      <trkpt lat="42.81829" lon="1.74726">
        <ele>1817.352</ele>
        <time>2021-03-23T10:22:54Z</time>
      </trkpt>
      <trkpt lat="42.8183" lon="1.74726">
        <ele>1818.238</ele>
        <time>2021-03-23T10:22:56Z</time>
      </trkpt>
      <trkpt lat="42.8183" lon="1.74726">
        <ele>1819.381</ele>
        <time>2021-03-23T10:22:58Z</time>
      </trkpt>
      <trkpt lat="42.8183" lon="1.74725">
        <ele>1819.398</ele>
        <time>2021-03-23T10:23:00Z</time>
      </trkpt>
      <trkpt lat="42.8183" lon="1.74725">
        <ele>1819.398</ele>
        <time>2021-03-23T10:23:02Z</time>
      </trkpt>
      <trkpt lat="42.8183" lon="1.74725">
        <ele>1819.382</ele>
        <time>2021-03-23T10:23:04Z</time>
      </trkpt>
      <trkpt lat="42.8183" lon="1.74725">
        <ele>1819.379</ele>
        <time>2021-03-23T10:23:06Z</time>
      </trkpt>
      <trkpt lat="42.8183" lon="1.74726">
        <ele>1819.381</ele>
        <time>2021-03-23T10:23:08Z</time>
      </trkpt>
      <trkpt lat="42.8183" lon="1.74727">
        <ele>1819.073</ele>
        <time>2021-03-23T10:23:10Z</time>
      </trkpt>
      <trkpt lat="42.81831" lon="1.74729">
        <ele>1819.502</ele>
        <time>2021-03-23T10:23:12Z</time>
      </trkpt>
      <trkpt lat="42.81831" lon="1.74731">
        <ele>1819.587</ele>
        <time>2021-03-23T10:23:14Z</time>
      </trkpt>
      <trkpt lat="42.8183" lon="1.74731">
        <ele>1819.975</ele>
        <time>2021-03-23T10:23:16Z</time>
      </trkpt>
      <trkpt lat="42.81829" lon="1.7473">
        <ele>1820.355</ele>
        <time>2021-03-23T10:23:18Z</time>
      </trkpt>
      <trkpt lat="42.81827" lon="1.7473">
        <ele>1821.267</ele>
        <time>2021-03-23T10:23:20Z</time>
      </trkpt>
      <trkpt lat="42.81825" lon="1.7473">
        <ele>1821.912</ele>
        <time>2021-03-23T10:23:22Z</time>
      </trkpt>
      <trkpt lat="42.81824" lon="1.7473">
        <ele>1823.244</ele>
        <time>2021-03-23T10:23:24Z</time>
      </trkpt>
      <trkpt lat="42.81824" lon="1.74731">
        <ele>1822.382</ele>
        <time>2021-03-23T10:23:26Z</time>
      </trkpt>
      <trkpt lat="42.81824" lon="1.74732">
        <ele>1822.507</ele>
        <time>2021-03-23T10:23:28Z</time>
      </trkpt>
      <trkpt lat="42.81824" lon="1.74733">
        <ele>1822.729</ele>
        <time>2021-03-23T10:23:29Z</time>
      </trkpt>
      <trkpt lat="42.81825" lon="1.74735">
        <ele>1822.168</ele>
        <time>2021-03-23T10:23:32Z</time>
      </trkpt>
      <trkpt lat="42.81826" lon="1.74736">
        <ele>1821.551</ele>
        <time>2021-03-23T10:23:34Z</time>
      </trkpt>
      <trkpt lat="42.81827" lon="1.74737">
        <ele>1822.487</ele>
        <time>2021-03-23T10:23:36Z</time>
      </trkpt>
      <trkpt lat="42.81827" lon="1.74737">
        <ele>1823.326</ele>
        <time>2021-03-23T10:23:38Z</time>
      </trkpt>
      <trkpt lat="42.81828" lon="1.74739">
        <ele>1823.71</ele>
        <time>2021-03-23T10:23:40Z</time>
      </trkpt>
      <trkpt lat="42.81828" lon="1.7474">
        <ele>1824.105</ele>
        <time>2021-03-23T10:23:42Z</time>
      </trkpt>
      <trkpt lat="42.81829" lon="1.7474">
        <ele>1824.871</ele>
        <time>2021-03-23T10:23:44Z</time>
      </trkpt>
      <trkpt lat="42.81829" lon="1.74741">
        <ele>1824.909</ele>
        <time>2021-03-23T10:23:46Z</time>
      </trkpt>
      <trkpt lat="42.8183" lon="1.74741">
        <ele>1826.207</ele>
        <time>2021-03-23T10:23:48Z</time>
      </trkpt>
      <trkpt lat="42.8183" lon="1.74742">
        <ele>1825.563</ele>
        <time>2021-03-23T10:23:50Z</time>
      </trkpt>
      <trkpt lat="42.81831" lon="1.74743">
        <ele>1825.955</ele>
        <time>2021-03-23T10:23:52Z</time>
      </trkpt>
      <trkpt lat="42.81831" lon="1.74745">
        <ele>1826.467</ele>
        <time>2021-03-23T10:23:54Z</time>
      </trkpt>
      <trkpt lat="42.81832" lon="1.74745">
        <ele>1827.132</ele>
        <time>2021-03-23T10:23:56Z</time>
      </trkpt>
      <trkpt lat="42.81833" lon="1.74746">
        <ele>1827.797</ele>
        <time>2021-03-23T10:23:58Z</time>
      </trkpt>
      <trkpt lat="42.81834" lon="1.74747">
        <ele>1827.828</ele>
        <time>2021-03-23T10:24:00Z</time>
      </trkpt>
      <trkpt lat="42.81834" lon="1.74748">
        <ele>1827.101</ele>
        <time>2021-03-23T10:24:02Z</time>
      </trkpt>
      <trkpt lat="42.81834" lon="1.74748">
        <ele>1826.716</ele>
        <time>2021-03-23T10:24:04Z</time>
      </trkpt>
      <trkpt lat="42.81835" lon="1.7475">
        <ele>1826.792</ele>
        <time>2021-03-23T10:24:06Z</time>
      </trkpt>
      <trkpt lat="42.81836" lon="1.7475">
        <ele>1827.304</ele>
        <time>2021-03-23T10:24:08Z</time>
      </trkpt>
      <trkpt lat="42.81837" lon="1.7475">
        <ele>1826.754</ele>
        <time>2021-03-23T10:24:10Z</time>
      </trkpt>
      <trkpt lat="42.81838" lon="1.74751">
        <ele>1827.123</ele>
        <time>2021-03-23T10:24:12Z</time>
      </trkpt>
      <trkpt lat="42.81839" lon="1.74752">
        <ele>1827.595</ele>
        <time>2021-03-23T10:24:14Z</time>
      </trkpt>
      <trkpt lat="42.81839" lon="1.74752">
        <ele>1828.528</ele>
        <time>2021-03-23T10:24:16Z</time>
      </trkpt>
      <trkpt lat="42.8184" lon="1.74753">
        <ele>1828.735</ele>
        <time>2021-03-23T10:24:18Z</time>
      </trkpt>
      <trkpt lat="42.8184" lon="1.74753">
        <ele>1829.724</ele>
        <time>2021-03-23T10:24:20Z</time>
      </trkpt>
      <trkpt lat="42.8184" lon="1.74754">
        <ele>1829.744</ele>
        <time>2021-03-23T10:24:22Z</time>
      </trkpt>
      <trkpt lat="42.81841" lon="1.74755">
        <ele>1830.092</ele>
        <time>2021-03-23T10:24:24Z</time>
      </trkpt>
      <trkpt lat="42.81841" lon="1.74755">
        <ele>1830.115</ele>
        <time>2021-03-23T10:24:26Z</time>
      </trkpt>
      <trkpt lat="42.81841" lon="1.74756">
        <ele>1830.702</ele>
        <time>2021-03-23T10:24:28Z</time>
      </trkpt>
      <trkpt lat="42.81841" lon="1.74756">
        <ele>1830.746</ele>
        <time>2021-03-23T10:24:30Z</time>
      </trkpt>
      <trkpt lat="42.81842" lon="1.74757">
        <ele>1830.84</ele>
        <time>2021-03-23T10:24:32Z</time>
      </trkpt>
      <trkpt lat="42.81842" lon="1.74758">
        <ele>1831.018</ele>
        <time>2021-03-23T10:24:34Z</time>
      </trkpt>
      <trkpt lat="42.81842" lon="1.74759">
        <ele>1830.715</ele>
        <time>2021-03-23T10:24:36Z</time>
      </trkpt>
      <trkpt lat="42.81842" lon="1.7476">
        <ele>1831.836</ele>
        <time>2021-03-23T10:24:38Z</time>
      </trkpt>
      <trkpt lat="42.81842" lon="1.74761">
        <ele>1830.922</ele>
        <time>2021-03-23T10:24:40Z</time>
      </trkpt>
      <trkpt lat="42.81842" lon="1.74762">
        <ele>1831.752</ele>
        <time>2021-03-23T10:24:42Z</time>
      </trkpt>
      <trkpt lat="42.81843" lon="1.74763">
        <ele>1831.971</ele>
        <time>2021-03-23T10:24:44Z</time>
      </trkpt>
      <trkpt lat="42.81843" lon="1.74764">
        <ele>1833.294</ele>
        <time>2021-03-23T10:24:46Z</time>
      </trkpt>
      <trkpt lat="42.81843" lon="1.74765">
        <ele>1833.203</ele>
        <time>2021-03-23T10:24:48Z</time>
      </trkpt>
      <trkpt lat="42.81844" lon="1.74765">
        <ele>1833.201</ele>
        <time>2021-03-23T10:24:50Z</time>
      </trkpt>
      <trkpt lat="42.81844" lon="1.74767">
        <ele>1833.287</ele>
        <time>2021-03-23T10:24:52Z</time>
      </trkpt>
      <trkpt lat="42.81844" lon="1.74768">
        <ele>1834.65</ele>
        <time>2021-03-23T10:24:54Z</time>
      </trkpt>
      <trkpt lat="42.81845" lon="1.74769">
        <ele>1834.045</ele>
        <time>2021-03-23T10:24:56Z</time>
      </trkpt>
      <trkpt lat="42.81845" lon="1.7477">
        <ele>1834.305</ele>
        <time>2021-03-23T10:24:58Z</time>
      </trkpt>
      <trkpt lat="42.81845" lon="1.7477">
        <ele>1834.282</ele>
        <time>2021-03-23T10:24:59Z</time>
      </trkpt>
      <trkpt lat="42.81846" lon="1.74772">
        <ele>1834.856</ele>
        <time>2021-03-23T10:25:02Z</time>
      </trkpt>
      <trkpt lat="42.81846" lon="1.74773">
        <ele>1833.442</ele>
        <time>2021-03-23T10:25:04Z</time>
      </trkpt>
      <trkpt lat="42.81845" lon="1.74774">
        <ele>1832.573</ele>
        <time>2021-03-23T10:25:06Z</time>
      </trkpt>
      <trkpt lat="42.81845" lon="1.74775">
        <ele>1832.599</ele>
        <time>2021-03-23T10:25:08Z</time>
      </trkpt>
      <trkpt lat="42.81846" lon="1.74776">
        <ele>1832.219</ele>
        <time>2021-03-23T10:25:10Z</time>
      </trkpt>
      <trkpt lat="42.81846" lon="1.74776">
        <ele>1832.069</ele>
        <time>2021-03-23T10:25:11Z</time>
      </trkpt>
      <trkpt lat="42.81845" lon="1.74779">
        <ele>1832.536</ele>
        <time>2021-03-23T10:25:14Z</time>
      </trkpt>
      <trkpt lat="42.81845" lon="1.7478">
        <ele>1833.821</ele>
        <time>2021-03-23T10:25:16Z</time>
      </trkpt>
      <trkpt lat="42.81845" lon="1.74781">
        <ele>1834.063</ele>
        <time>2021-03-23T10:25:18Z</time>
      </trkpt>
      <trkpt lat="42.81845" lon="1.74783">
        <ele>1833.895</ele>
        <time>2021-03-23T10:25:20Z</time>
      </trkpt>
      <trkpt lat="42.81845" lon="1.74784">
        <ele>1833.697</ele>
        <time>2021-03-23T10:25:22Z</time>
      </trkpt>
      <trkpt lat="42.81844" lon="1.74785">
        <ele>1834.021</ele>
        <time>2021-03-23T10:25:24Z</time>
      </trkpt>
      <trkpt lat="42.81844" lon="1.74785">
        <ele>1833.996</ele>
        <time>2021-03-23T10:25:26Z</time>
      </trkpt>
      <trkpt lat="42.81844" lon="1.74785">
        <ele>1833.956</ele>
        <time>2021-03-23T10:25:28Z</time>
      </trkpt>
      <trkpt lat="42.81844" lon="1.74785">
        <ele>1834.056</ele>
        <time>2021-03-23T10:25:30Z</time>
      </trkpt>
      <trkpt lat="42.81844" lon="1.74787">
        <ele>1834.674</ele>
        <time>2021-03-23T10:25:32Z</time>
      </trkpt>
      <trkpt lat="42.81845" lon="1.74787">
        <ele>1834.619</ele>
        <time>2021-03-23T10:25:34Z</time>
      </trkpt>
      <trkpt lat="42.81845" lon="1.74788">
        <ele>1834.984</ele>
        <time>2021-03-23T10:25:36Z</time>
      </trkpt>
      <trkpt lat="42.81845" lon="1.7479">
        <ele>1835.359</ele>
        <time>2021-03-23T10:25:38Z</time>
      </trkpt>
      <trkpt lat="42.81846" lon="1.74791">
        <ele>1834.615</ele>
        <time>2021-03-23T10:25:40Z</time>
      </trkpt>
      <trkpt lat="42.81847" lon="1.74792">
        <ele>1834.755</ele>
        <time>2021-03-23T10:25:42Z</time>
      </trkpt>
      <trkpt lat="42.81848" lon="1.74792">
        <ele>1835.838</ele>
        <time>2021-03-23T10:25:44Z</time>
      </trkpt>
      <trkpt lat="42.81848" lon="1.74793">
        <ele>1835.844</ele>
        <time>2021-03-23T10:25:46Z</time>
      </trkpt>
      <trkpt lat="42.81849" lon="1.74793">
        <ele>1836.57</ele>
        <time>2021-03-23T10:25:48Z</time>
      </trkpt>
      <trkpt lat="42.8185" lon="1.74793">
        <ele>1836.497</ele>
        <time>2021-03-23T10:25:50Z</time>
      </trkpt>
      <trkpt lat="42.81851" lon="1.74794">
        <ele>1836.716</ele>
        <time>2021-03-23T10:25:52Z</time>
      </trkpt>
      <trkpt lat="42.81852" lon="1.74794">
        <ele>1836.546</ele>
        <time>2021-03-23T10:25:54Z</time>
      </trkpt>
      <trkpt lat="42.81852" lon="1.74795">
        <ele>1837.137</ele>
        <time>2021-03-23T10:25:56Z</time>
      </trkpt>
      <trkpt lat="42.81853" lon="1.74796">
        <ele>1836.175</ele>
        <time>2021-03-23T10:25:58Z</time>
      </trkpt>
      <trkpt lat="42.81854" lon="1.74797">
        <ele>1836.375</ele>
        <time>2021-03-23T10:26:00Z</time>
      </trkpt>
      <trkpt lat="42.81855" lon="1.74798">
        <ele>1836.921</ele>
        <time>2021-03-23T10:26:02Z</time>
      </trkpt>
      <trkpt lat="42.81855" lon="1.74799">
        <ele>1837.993</ele>
        <time>2021-03-23T10:26:04Z</time>
      </trkpt>
      <trkpt lat="42.81855" lon="1.74799">
        <ele>1838.979</ele>
        <time>2021-03-23T10:26:06Z</time>
      </trkpt>
      <trkpt lat="42.81855" lon="1.74799">
        <ele>1838.976</ele>
        <time>2021-03-23T10:26:08Z</time>
      </trkpt>
      <trkpt lat="42.81855" lon="1.74799">
        <ele>1838.984</ele>
        <time>2021-03-23T10:26:10Z</time>
      </trkpt>
      <trkpt lat="42.81855" lon="1.74799">
        <ele>1839.609</ele>
        <time>2021-03-23T10:26:12Z</time>
      </trkpt>
      <trkpt lat="42.81856" lon="1.748">
        <ele>1840.417</ele>
        <time>2021-03-23T10:26:14Z</time>
      </trkpt>
      <trkpt lat="42.81857" lon="1.748">
        <ele>1840.564</ele>
        <time>2021-03-23T10:26:16Z</time>
      </trkpt>
      <trkpt lat="42.81857" lon="1.74801">
        <ele>1841.09</ele>
        <time>2021-03-23T10:26:18Z</time>
      </trkpt>
      <trkpt lat="42.81858" lon="1.74802">
        <ele>1841.073</ele>
        <time>2021-03-23T10:26:20Z</time>
      </trkpt>
      <trkpt lat="42.81858" lon="1.74803">
        <ele>1841.301</ele>
        <time>2021-03-23T10:26:22Z</time>
      </trkpt>
      <trkpt lat="42.81859" lon="1.74804">
        <ele>1840.188</ele>
        <time>2021-03-23T10:26:24Z</time>
      </trkpt>
      <trkpt lat="42.81859" lon="1.74806">
        <ele>1840.972</ele>
        <time>2021-03-23T10:26:26Z</time>
      </trkpt>
      <trkpt lat="42.8186" lon="1.74807">
        <ele>1842.397</ele>
        <time>2021-03-23T10:26:28Z</time>
      </trkpt>
      <trkpt lat="42.8186" lon="1.74808">
        <ele>1842.489</ele>
        <time>2021-03-23T10:26:30Z</time>
      </trkpt>
      <trkpt lat="42.8186" lon="1.74808">
        <ele>1842.861</ele>
        <time>2021-03-23T10:26:32Z</time>
      </trkpt>
      <trkpt lat="42.81861" lon="1.74809">
        <ele>1843.078</ele>
        <time>2021-03-23T10:26:34Z</time>
      </trkpt>
      <trkpt lat="42.81861" lon="1.7481">
        <ele>1843.682</ele>
        <time>2021-03-23T10:26:36Z</time>
      </trkpt>
      <trkpt lat="42.81862" lon="1.74811">
        <ele>1844.286</ele>
        <time>2021-03-23T10:26:38Z</time>
      </trkpt>
      <trkpt lat="42.81862" lon="1.74812">
        <ele>1843.693</ele>
        <time>2021-03-23T10:26:40Z</time>
      </trkpt>
      <trkpt lat="42.81863" lon="1.74812">
        <ele>1844.214</ele>
        <time>2021-03-23T10:26:42Z</time>
      </trkpt>
      <trkpt lat="42.81864" lon="1.74813">
        <ele>1845.304</ele>
        <time>2021-03-23T10:26:44Z</time>
      </trkpt>
      <trkpt lat="42.81864" lon="1.74814">
        <ele>1845.017</ele>
        <time>2021-03-23T10:26:46Z</time>
      </trkpt>
      <trkpt lat="42.81864" lon="1.74815">
        <ele>1845.264</ele>
        <time>2021-03-23T10:26:48Z</time>
      </trkpt>
      <trkpt lat="42.81865" lon="1.74817">
        <ele>1845.523</ele>
        <time>2021-03-23T10:26:50Z</time>
      </trkpt>
      <trkpt lat="42.81865" lon="1.74818">
        <ele>1846.009</ele>
        <time>2021-03-23T10:26:52Z</time>
      </trkpt>
      <trkpt lat="42.81865" lon="1.74819">
        <ele>1846.228</ele>
        <time>2021-03-23T10:26:54Z</time>
      </trkpt>
      <trkpt lat="42.81866" lon="1.7482">
        <ele>1847.207</ele>
        <time>2021-03-23T10:26:56Z</time>
      </trkpt>
      <trkpt lat="42.81867" lon="1.74821">
        <ele>1847.502</ele>
        <time>2021-03-23T10:26:58Z</time>
      </trkpt>
      <trkpt lat="42.81867" lon="1.74822">
        <ele>1847.159</ele>
        <time>2021-03-23T10:27:00Z</time>
      </trkpt>
      <trkpt lat="42.81867" lon="1.74823">
        <ele>1847.744</ele>
        <time>2021-03-23T10:27:02Z</time>
      </trkpt>
      <trkpt lat="42.81867" lon="1.74822">
        <ele>1848.85</ele>
        <time>2021-03-23T10:27:04Z</time>
      </trkpt>
      <trkpt lat="42.81867" lon="1.74822">
        <ele>1848.86</ele>
        <time>2021-03-23T10:27:06Z</time>
      </trkpt>
      <trkpt lat="42.81867" lon="1.74822">
        <ele>1848.833</ele>
        <time>2021-03-23T10:27:08Z</time>
      </trkpt>
      <trkpt lat="42.81867" lon="1.74822">
        <ele>1848.822</ele>
        <time>2021-03-23T10:27:10Z</time>
      </trkpt>
      <trkpt lat="42.81867" lon="1.74823">
        <ele>1848.365</ele>
        <time>2021-03-23T10:27:12Z</time>
      </trkpt>
      <trkpt lat="42.81867" lon="1.74825">
        <ele>1848.095</ele>
        <time>2021-03-23T10:27:14Z</time>
      </trkpt>
      <trkpt lat="42.81867" lon="1.74826">
        <ele>1847.507</ele>
        <time>2021-03-23T10:27:16Z</time>
      </trkpt>
      <trkpt lat="42.81867" lon="1.74827">
        <ele>1847.228</ele>
        <time>2021-03-23T10:27:18Z</time>
      </trkpt>
      <trkpt lat="42.81867" lon="1.74829">
        <ele>1848</ele>
        <time>2021-03-23T10:27:20Z</time>
      </trkpt>
      <trkpt lat="42.81868" lon="1.74831">
        <ele>1848.314</ele>
        <time>2021-03-23T10:27:23Z</time>
      </trkpt>
      <trkpt lat="42.81868" lon="1.74832">
        <ele>1848.5</ele>
        <time>2021-03-23T10:27:25Z</time>
      </trkpt>
      <trkpt lat="42.81868" lon="1.74834">
        <ele>1851.021</ele>
        <time>2021-03-23T10:27:28Z</time>
      </trkpt>
      <trkpt lat="42.81868" lon="1.74836">
        <ele>1851.84</ele>
        <time>2021-03-23T10:27:31Z</time>
      </trkpt>
      <trkpt lat="42.81868" lon="1.74837">
        <ele>1851.84</ele>
        <time>2021-03-23T10:27:33Z</time>
      </trkpt>
      <trkpt lat="42.81868" lon="1.74838">
        <ele>1851.778</ele>
        <time>2021-03-23T10:27:35Z</time>
      </trkpt>
      <trkpt lat="42.81868" lon="1.74839">
        <ele>1851.316</ele>
        <time>2021-03-23T10:27:37Z</time>
      </trkpt>
      <trkpt lat="42.81868" lon="1.74841">
        <ele>1851.56</ele>
        <time>2021-03-23T10:27:39Z</time>
      </trkpt>
      <trkpt lat="42.81868" lon="1.74842">
        <ele>1851.046</ele>
        <time>2021-03-23T10:27:41Z</time>
      </trkpt>
      <trkpt lat="42.81868" lon="1.74843">
        <ele>1850.264</ele>
        <time>2021-03-23T10:27:43Z</time>
      </trkpt>
      <trkpt lat="42.81868" lon="1.74843">
        <ele>1852.441</ele>
        <time>2021-03-23T10:27:45Z</time>
      </trkpt>
      <trkpt lat="42.81869" lon="1.74844">
        <ele>1852.323</ele>
        <time>2021-03-23T10:27:47Z</time>
      </trkpt>
      <trkpt lat="42.81869" lon="1.74844">
        <ele>1851.125</ele>
        <time>2021-03-23T10:27:49Z</time>
      </trkpt>
      <trkpt lat="42.81869" lon="1.74845">
        <ele>1850.106</ele>
        <time>2021-03-23T10:27:51Z</time>
      </trkpt>
      <trkpt lat="42.81869" lon="1.74846">
        <ele>1850.44</ele>
        <time>2021-03-23T10:27:53Z</time>
      </trkpt>
      <trkpt lat="42.81868" lon="1.74847">
        <ele>1849.938</ele>
        <time>2021-03-23T10:27:55Z</time>
      </trkpt>
      <trkpt lat="42.81868" lon="1.74848">
        <ele>1850.26</ele>
        <time>2021-03-23T10:27:57Z</time>
      </trkpt>
      <trkpt lat="42.81868" lon="1.7485">
        <ele>1850.027</ele>
        <time>2021-03-23T10:27:59Z</time>
      </trkpt>
      <trkpt lat="42.81867" lon="1.74851">
        <ele>1849.857</ele>
        <time>2021-03-23T10:28:01Z</time>
      </trkpt>
      <trkpt lat="42.81866" lon="1.74852">
        <ele>1847.844</ele>
        <time>2021-03-23T10:28:03Z</time>
      </trkpt>
      <trkpt lat="42.81866" lon="1.74853">
        <ele>1847.195</ele>
        <time>2021-03-23T10:28:05Z</time>
      </trkpt>
      <trkpt lat="42.81865" lon="1.74854">
        <ele>1848.286</ele>
        <time>2021-03-23T10:28:07Z</time>
      </trkpt>
      <trkpt lat="42.81865" lon="1.74855">
        <ele>1848.608</ele>
        <time>2021-03-23T10:28:09Z</time>
      </trkpt>
      <trkpt lat="42.81865" lon="1.74854">
        <ele>1847.629</ele>
        <time>2021-03-23T10:28:11Z</time>
      </trkpt>
      <trkpt lat="42.81865" lon="1.74855">
        <ele>1848.459</ele>
        <time>2021-03-23T10:28:13Z</time>
      </trkpt>
      <trkpt lat="42.81864" lon="1.74856">
        <ele>1847.074</ele>
        <time>2021-03-23T10:28:15Z</time>
      </trkpt>
      <trkpt lat="42.81864" lon="1.74856">
        <ele>1847.605</ele>
        <time>2021-03-23T10:28:17Z</time>
      </trkpt>
      <trkpt lat="42.81863" lon="1.74857">
        <ele>1847.838</ele>
        <time>2021-03-23T10:28:19Z</time>
      </trkpt>
      <trkpt lat="42.81863" lon="1.74858">
        <ele>1848.094</ele>
        <time>2021-03-23T10:28:21Z</time>
      </trkpt>
      <trkpt lat="42.81863" lon="1.74859">
        <ele>1848.951</ele>
        <time>2021-03-23T10:28:23Z</time>
      </trkpt>
      <trkpt lat="42.81863" lon="1.7486">
        <ele>1849.696</ele>
        <time>2021-03-23T10:28:25Z</time>
      </trkpt>
      <trkpt lat="42.81863" lon="1.74861">
        <ele>1851.282</ele>
        <time>2021-03-23T10:28:27Z</time>
      </trkpt>
      <trkpt lat="42.81863" lon="1.74863">
        <ele>1852.43</ele>
        <time>2021-03-23T10:28:30Z</time>
      </trkpt>
      <trkpt lat="42.81863" lon="1.74864">
        <ele>1852.447</ele>
        <time>2021-03-23T10:28:32Z</time>
      </trkpt>
      <trkpt lat="42.81863" lon="1.74865">
        <ele>1852.752</ele>
        <time>2021-03-23T10:28:34Z</time>
      </trkpt>
      <trkpt lat="42.81863" lon="1.74865">
        <ele>1852.767</ele>
        <time>2021-03-23T10:28:36Z</time>
      </trkpt>
      <trkpt lat="42.81863" lon="1.74867">
        <ele>1852.747</ele>
        <time>2021-03-23T10:28:38Z</time>
      </trkpt>
      <trkpt lat="42.81863" lon="1.74868">
        <ele>1854.556</ele>
        <time>2021-03-23T10:28:40Z</time>
      </trkpt>
      <trkpt lat="42.81864" lon="1.7487">
        <ele>1855.124</ele>
        <time>2021-03-23T10:28:42Z</time>
      </trkpt>
      <trkpt lat="42.81864" lon="1.74871">
        <ele>1855.245</ele>
        <time>2021-03-23T10:28:44Z</time>
      </trkpt>
      <trkpt lat="42.81864" lon="1.74871">
        <ele>1855.802</ele>
        <time>2021-03-23T10:28:47Z</time>
      </trkpt>
      <trkpt lat="42.81864" lon="1.74872">
        <ele>1856.178</ele>
        <time>2021-03-23T10:28:49Z</time>
      </trkpt>
      <trkpt lat="42.81864" lon="1.74872">
        <ele>1856.912</ele>
        <time>2021-03-23T10:28:51Z</time>
      </trkpt>
      <trkpt lat="42.81865" lon="1.74873">
        <ele>1856.787</ele>
        <time>2021-03-23T10:28:53Z</time>
      </trkpt>
      <trkpt lat="42.81864" lon="1.74875">
        <ele>1857.129</ele>
        <time>2021-03-23T10:28:55Z</time>
      </trkpt>
      <trkpt lat="42.81864" lon="1.74875">
        <ele>1858.862</ele>
        <time>2021-03-23T10:28:57Z</time>
      </trkpt>
      <trkpt lat="42.81863" lon="1.74876">
        <ele>1859.012</ele>
        <time>2021-03-23T10:28:59Z</time>
      </trkpt>
      <trkpt lat="42.81862" lon="1.74876">
        <ele>1859.14</ele>
        <time>2021-03-23T10:29:01Z</time>
      </trkpt>
      <trkpt lat="42.81862" lon="1.74877">
        <ele>1859.037</ele>
        <time>2021-03-23T10:29:03Z</time>
      </trkpt>
      <trkpt lat="42.81861" lon="1.74878">
        <ele>1859.568</ele>
        <time>2021-03-23T10:29:05Z</time>
      </trkpt>
      <trkpt lat="42.81861" lon="1.74879">
        <ele>1859.92</ele>
        <time>2021-03-23T10:29:07Z</time>
      </trkpt>
      <trkpt lat="42.81861" lon="1.74879">
        <ele>1860.996</ele>
        <time>2021-03-23T10:29:09Z</time>
      </trkpt>
      <trkpt lat="42.81861" lon="1.7488">
        <ele>1861.055</ele>
        <time>2021-03-23T10:29:11Z</time>
      </trkpt>
      <trkpt lat="42.81861" lon="1.74881">
        <ele>1861.774</ele>
        <time>2021-03-23T10:29:13Z</time>
      </trkpt>
      <trkpt lat="42.81862" lon="1.74881">
        <ele>1864.145</ele>
        <time>2021-03-23T10:29:15Z</time>
      </trkpt>
      <trkpt lat="42.81862" lon="1.74881">
        <ele>1863.807</ele>
        <time>2021-03-23T10:29:17Z</time>
      </trkpt>
      <trkpt lat="42.81862" lon="1.74882">
        <ele>1865.219</ele>
        <time>2021-03-23T10:29:19Z</time>
      </trkpt>
      <trkpt lat="42.81862" lon="1.74883">
        <ele>1865.879</ele>
        <time>2021-03-23T10:29:21Z</time>
      </trkpt>
      <trkpt lat="42.81863" lon="1.74883">
        <ele>1866.41</ele>
        <time>2021-03-23T10:29:23Z</time>
      </trkpt>
      <trkpt lat="42.81863" lon="1.74883">
        <ele>1866.241</ele>
        <time>2021-03-23T10:29:25Z</time>
      </trkpt>
      <trkpt lat="42.81863" lon="1.74883">
        <ele>1867.22</ele>
        <time>2021-03-23T10:29:27Z</time>
      </trkpt>
      <trkpt lat="42.81864" lon="1.74885">
        <ele>1866.457</ele>
        <time>2021-03-23T10:29:29Z</time>
      </trkpt>
      <trkpt lat="42.81864" lon="1.74885">
        <ele>1867.377</ele>
        <time>2021-03-23T10:29:31Z</time>
      </trkpt>
      <trkpt lat="42.81865" lon="1.74886">
        <ele>1867.255</ele>
        <time>2021-03-23T10:29:33Z</time>
      </trkpt>
      <trkpt lat="42.81865" lon="1.74886">
        <ele>1867.236</ele>
        <time>2021-03-23T10:29:35Z</time>
      </trkpt>
      <trkpt lat="42.81865" lon="1.74886">
        <ele>1867.227</ele>
        <time>2021-03-23T10:29:37Z</time>
      </trkpt>
      <trkpt lat="42.81865" lon="1.74886">
        <ele>1867.258</ele>
        <time>2021-03-23T10:29:39Z</time>
      </trkpt>
      <trkpt lat="42.81865" lon="1.74886">
        <ele>1867.307</ele>
        <time>2021-03-23T10:29:41Z</time>
      </trkpt>
      <trkpt lat="42.81865" lon="1.74886">
        <ele>1867.33</ele>
        <time>2021-03-23T10:29:43Z</time>
      </trkpt>
      <trkpt lat="42.81865" lon="1.74886">
        <ele>1867.323</ele>
        <time>2021-03-23T10:29:45Z</time>
      </trkpt>
      <trkpt lat="42.81865" lon="1.74886">
        <ele>1867.32</ele>
        <time>2021-03-23T10:29:47Z</time>
      </trkpt>
      <trkpt lat="42.81865" lon="1.74886">
        <ele>1867.318</ele>
        <time>2021-03-23T10:29:49Z</time>
      </trkpt>
      <trkpt lat="42.81865" lon="1.74886">
        <ele>1867.307</ele>
        <time>2021-03-23T10:29:51Z</time>
      </trkpt>
      <trkpt lat="42.81865" lon="1.74886">
        <ele>1867.311</ele>
        <time>2021-03-23T10:29:53Z</time>
      </trkpt>
      <trkpt lat="42.81865" lon="1.74886">
        <ele>1867.329</ele>
        <time>2021-03-23T10:29:55Z</time>
      </trkpt>
      <trkpt lat="42.81865" lon="1.74886">
        <ele>1867.317</ele>
        <time>2021-03-23T10:29:57Z</time>
      </trkpt>
      <trkpt lat="42.81865" lon="1.74886">
        <ele>1867.295</ele>
        <time>2021-03-23T10:29:59Z</time>
      </trkpt>
      <trkpt lat="42.81865" lon="1.74886">
        <ele>1867.646</ele>
        <time>2021-03-23T10:30:01Z</time>
      </trkpt>
      <trkpt lat="42.81865" lon="1.74886">
        <ele>1867.598</ele>
        <time>2021-03-23T10:30:03Z</time>
      </trkpt>
      <trkpt lat="42.81865" lon="1.74886">
        <ele>1867.605</ele>
        <time>2021-03-23T10:30:05Z</time>
      </trkpt>
      <trkpt lat="42.81865" lon="1.74886">
        <ele>1867.607</ele>
        <time>2021-03-23T10:30:07Z</time>
      </trkpt>
      <trkpt lat="42.81865" lon="1.74886">
        <ele>1867.623</ele>
        <time>2021-03-23T10:30:09Z</time>
      </trkpt>
      <trkpt lat="42.81865" lon="1.74886">
        <ele>1867.63</ele>
        <time>2021-03-23T10:30:11Z</time>
      </trkpt>
      <trkpt lat="42.81866" lon="1.74886">
        <ele>1867.448</ele>
        <time>2021-03-23T10:30:13Z</time>
      </trkpt>
      <trkpt lat="42.81866" lon="1.74886">
        <ele>1867.459</ele>
        <time>2021-03-23T10:30:15Z</time>
      </trkpt>
      <trkpt lat="42.81866" lon="1.74886">
        <ele>1867.463</ele>
        <time>2021-03-23T10:30:17Z</time>
      </trkpt>
      <trkpt lat="42.81866" lon="1.74886">
        <ele>1867.774</ele>
        <time>2021-03-23T10:30:19Z</time>
      </trkpt>
      <trkpt lat="42.81866" lon="1.74886">
        <ele>1867.769</ele>
        <time>2021-03-23T10:30:21Z</time>
      </trkpt>
      <trkpt lat="42.81866" lon="1.74886">
        <ele>1867.756</ele>
        <time>2021-03-23T10:30:23Z</time>
      </trkpt>
      <trkpt lat="42.81866" lon="1.74886">
        <ele>1867.742</ele>
        <time>2021-03-23T10:30:25Z</time>
      </trkpt>
      <trkpt lat="42.81866" lon="1.74886">
        <ele>1867.712</ele>
        <time>2021-03-23T10:30:27Z</time>
      </trkpt>
      <trkpt lat="42.81866" lon="1.74886">
        <ele>1867.304</ele>
        <time>2021-03-23T10:30:29Z</time>
      </trkpt>
      <trkpt lat="42.81865" lon="1.74886">
        <ele>1867.386</ele>
        <time>2021-03-23T10:30:31Z</time>
      </trkpt>
      <trkpt lat="42.81865" lon="1.74887">
        <ele>1867.37</ele>
        <time>2021-03-23T10:30:33Z</time>
      </trkpt>
      <trkpt lat="42.81865" lon="1.74887">
        <ele>1867.363</ele>
        <time>2021-03-23T10:30:35Z</time>
      </trkpt>
      <trkpt lat="42.81865" lon="1.74887">
        <ele>1867.349</ele>
        <time>2021-03-23T10:30:37Z</time>
      </trkpt>
      <trkpt lat="42.81865" lon="1.74887">
        <ele>1867.336</ele>
        <time>2021-03-23T10:30:39Z</time>
      </trkpt>
      <trkpt lat="42.81865" lon="1.74887">
        <ele>1867.316</ele>
        <time>2021-03-23T10:30:41Z</time>
      </trkpt>
      <trkpt lat="42.81865" lon="1.74887">
        <ele>1867.315</ele>
        <time>2021-03-23T10:30:43Z</time>
      </trkpt>
      <trkpt lat="42.81865" lon="1.74887">
        <ele>1867.286</ele>
        <time>2021-03-23T10:30:45Z</time>
      </trkpt>
      <trkpt lat="42.81865" lon="1.74887">
        <ele>1867.289</ele>
        <time>2021-03-23T10:30:47Z</time>
      </trkpt>
      <trkpt lat="42.81865" lon="1.74887">
        <ele>1867.271</ele>
        <time>2021-03-23T10:30:49Z</time>
      </trkpt>
      <trkpt lat="42.81865" lon="1.74887">
        <ele>1867.278</ele>
        <time>2021-03-23T10:30:51Z</time>
      </trkpt>
      <trkpt lat="42.81865" lon="1.74887">
        <ele>1867.273</ele>
        <time>2021-03-23T10:30:53Z</time>
      </trkpt>
      <trkpt lat="42.81865" lon="1.74887">
        <ele>1867.277</ele>
        <time>2021-03-23T10:30:55Z</time>
      </trkpt>
      <trkpt lat="42.81865" lon="1.74887">
        <ele>1867.251</ele>
        <time>2021-03-23T10:30:57Z</time>
      </trkpt>
      <trkpt lat="42.81865" lon="1.74887">
        <ele>1867.236</ele>
        <time>2021-03-23T10:30:59Z</time>
      </trkpt>
      <trkpt lat="42.81865" lon="1.74887">
        <ele>1866.979</ele>
        <time>2021-03-23T10:31:01Z</time>
      </trkpt>
      <trkpt lat="42.81865" lon="1.74887">
        <ele>1866.948</ele>
        <time>2021-03-23T10:31:03Z</time>
      </trkpt>
      <trkpt lat="42.81865" lon="1.74887">
        <ele>1866.967</ele>
        <time>2021-03-23T10:31:05Z</time>
      </trkpt>
      <trkpt lat="42.81865" lon="1.74887">
        <ele>1866.947</ele>
        <time>2021-03-23T10:31:07Z</time>
      </trkpt>
      <trkpt lat="42.81865" lon="1.74887">
        <ele>1866.952</ele>
        <time>2021-03-23T10:31:09Z</time>
      </trkpt>
      <trkpt lat="42.81865" lon="1.74887">
        <ele>1866.955</ele>
        <time>2021-03-23T10:31:11Z</time>
      </trkpt>
      <trkpt lat="42.81865" lon="1.74887">
        <ele>1866.951</ele>
        <time>2021-03-23T10:31:13Z</time>
      </trkpt>
      <trkpt lat="42.81865" lon="1.74887">
        <ele>1866.953</ele>
        <time>2021-03-23T10:31:15Z</time>
      </trkpt>
      <trkpt lat="42.81865" lon="1.74887">
        <ele>1866.94</ele>
        <time>2021-03-23T10:31:17Z</time>
      </trkpt>
      <trkpt lat="42.81865" lon="1.74887">
        <ele>1866.933</ele>
        <time>2021-03-23T10:31:19Z</time>
      </trkpt>
      <trkpt lat="42.81865" lon="1.74887">
        <ele>1866.92</ele>
        <time>2021-03-23T10:31:21Z</time>
      </trkpt>
      <trkpt lat="42.81865" lon="1.74887">
        <ele>1866.901</ele>
        <time>2021-03-23T10:31:23Z</time>
      </trkpt>
      <trkpt lat="42.81865" lon="1.74887">
        <ele>1866.572</ele>
        <time>2021-03-23T10:31:25Z</time>
      </trkpt>
      <trkpt lat="42.81865" lon="1.74887">
        <ele>1866.592</ele>
        <time>2021-03-23T10:31:27Z</time>
      </trkpt>
      <trkpt lat="42.81865" lon="1.74887">
        <ele>1866.585</ele>
        <time>2021-03-23T10:31:29Z</time>
      </trkpt>
      <trkpt lat="42.81865" lon="1.74887">
        <ele>1866.801</ele>
        <time>2021-03-23T10:31:31Z</time>
      </trkpt>
      <trkpt lat="42.81865" lon="1.74887">
        <ele>1866.807</ele>
        <time>2021-03-23T10:31:33Z</time>
      </trkpt>
      <trkpt lat="42.81865" lon="1.74887">
        <ele>1866.792</ele>
        <time>2021-03-23T10:31:35Z</time>
      </trkpt>
      <trkpt lat="42.81865" lon="1.74887">
        <ele>1866.666</ele>
        <time>2021-03-23T10:31:37Z</time>
      </trkpt>
      <trkpt lat="42.81865" lon="1.74887">
        <ele>1866.675</ele>
        <time>2021-03-23T10:31:39Z</time>
      </trkpt>
      <trkpt lat="42.81866" lon="1.74888">
        <ele>1866.957</ele>
        <time>2021-03-23T10:31:41Z</time>
      </trkpt>
      <trkpt lat="42.81866" lon="1.74888">
        <ele>1866.972</ele>
        <time>2021-03-23T10:31:43Z</time>
      </trkpt>
      <trkpt lat="42.81866" lon="1.74888">
        <ele>1866.975</ele>
        <time>2021-03-23T10:31:45Z</time>
      </trkpt>
      <trkpt lat="42.81866" lon="1.74888">
        <ele>1868.176</ele>
        <time>2021-03-23T10:31:47Z</time>
      </trkpt>
      <trkpt lat="42.81866" lon="1.74888">
        <ele>1868.392</ele>
        <time>2021-03-23T10:31:49Z</time>
      </trkpt>
      <trkpt lat="42.81866" lon="1.74888">
        <ele>1868.391</ele>
        <time>2021-03-23T10:31:51Z</time>
      </trkpt>
      <trkpt lat="42.81866" lon="1.74888">
        <ele>1868.401</ele>
        <time>2021-03-23T10:31:53Z</time>
      </trkpt>
      <trkpt lat="42.81866" lon="1.74887">
        <ele>1868.669</ele>
        <time>2021-03-23T10:31:55Z</time>
      </trkpt>
      <trkpt lat="42.81866" lon="1.74887">
        <ele>1868.544</ele>
        <time>2021-03-23T10:31:57Z</time>
      </trkpt>
      <trkpt lat="42.81866" lon="1.74887">
        <ele>1868.513</ele>
        <time>2021-03-23T10:31:59Z</time>
      </trkpt>
      <trkpt lat="42.81866" lon="1.74887">
        <ele>1868.971</ele>
        <time>2021-03-23T10:32:01Z</time>
      </trkpt>
      <trkpt lat="42.81866" lon="1.74887">
        <ele>1868.972</ele>
        <time>2021-03-23T10:32:03Z</time>
      </trkpt>
      <trkpt lat="42.81867" lon="1.74888">
        <ele>1867.523</ele>
        <time>2021-03-23T10:32:05Z</time>
      </trkpt>
      <trkpt lat="42.81867" lon="1.74888">
        <ele>1868.858</ele>
        <time>2021-03-23T10:32:07Z</time>
      </trkpt>
      <trkpt lat="42.81866" lon="1.74887">
        <ele>1869.281</ele>
        <time>2021-03-23T10:32:09Z</time>
      </trkpt>
      <trkpt lat="42.81866" lon="1.74886">
        <ele>1869.585</ele>
        <time>2021-03-23T10:32:11Z</time>
      </trkpt>
      <trkpt lat="42.81866" lon="1.74886">
        <ele>1869.599</ele>
        <time>2021-03-23T10:32:13Z</time>
      </trkpt>
      <trkpt lat="42.81866" lon="1.74886">
        <ele>1869.605</ele>
        <time>2021-03-23T10:32:15Z</time>
      </trkpt>
      <trkpt lat="42.81866" lon="1.74886">
        <ele>1869.591</ele>
        <time>2021-03-23T10:32:17Z</time>
      </trkpt>
      <trkpt lat="42.81867" lon="1.74886">
        <ele>1869.558</ele>
        <time>2021-03-23T10:32:19Z</time>
      </trkpt>
      <trkpt lat="42.81867" lon="1.74887">
        <ele>1869.496</ele>
        <time>2021-03-23T10:32:21Z</time>
      </trkpt>
      <trkpt lat="42.81867" lon="1.74887">
        <ele>1869.485</ele>
        <time>2021-03-23T10:32:23Z</time>
      </trkpt>
      <trkpt lat="42.81867" lon="1.74887">
        <ele>1869.474</ele>
        <time>2021-03-23T10:32:25Z</time>
      </trkpt>
      <trkpt lat="42.81867" lon="1.74887">
        <ele>1869.572</ele>
        <time>2021-03-23T10:32:27Z</time>
      </trkpt>
      <trkpt lat="42.81868" lon="1.74888">
        <ele>1869.578</ele>
        <time>2021-03-23T10:32:29Z</time>
      </trkpt>
      <trkpt lat="42.81868" lon="1.74888">
        <ele>1869.567</ele>
        <time>2021-03-23T10:32:31Z</time>
      </trkpt>
      <trkpt lat="42.81868" lon="1.74888">
        <ele>1869.573</ele>
        <time>2021-03-23T10:32:33Z</time>
      </trkpt>
      <trkpt lat="42.81868" lon="1.74888">
        <ele>1869.313</ele>
        <time>2021-03-23T10:32:35Z</time>
      </trkpt>
      <trkpt lat="42.81868" lon="1.74889">
        <ele>1869.349</ele>
        <time>2021-03-23T10:32:37Z</time>
      </trkpt>
      <trkpt lat="42.81869" lon="1.74889">
        <ele>1869.275</ele>
        <time>2021-03-23T10:32:39Z</time>
      </trkpt>
      <trkpt lat="42.81869" lon="1.7489">
        <ele>1869.753</ele>
        <time>2021-03-23T10:32:41Z</time>
      </trkpt>
      <trkpt lat="42.81869" lon="1.74891">
        <ele>1869.827</ele>
        <time>2021-03-23T10:32:43Z</time>
      </trkpt>
      <trkpt lat="42.8187" lon="1.74892">
        <ele>1869.37</ele>
        <time>2021-03-23T10:32:45Z</time>
      </trkpt>
      <trkpt lat="42.81871" lon="1.74893">
        <ele>1869.143</ele>
        <time>2021-03-23T10:32:47Z</time>
      </trkpt>
      <trkpt lat="42.81872" lon="1.74895">
        <ele>1869.309</ele>
        <time>2021-03-23T10:32:49Z</time>
      </trkpt>
      <trkpt lat="42.81873" lon="1.74896">
        <ele>1869.047</ele>
        <time>2021-03-23T10:32:51Z</time>
      </trkpt>
      <trkpt lat="42.81874" lon="1.74897">
        <ele>1869.522</ele>
        <time>2021-03-23T10:32:53Z</time>
      </trkpt>
      <trkpt lat="42.81875" lon="1.74898">
        <ele>1869.836</ele>
        <time>2021-03-23T10:32:55Z</time>
      </trkpt>
      <trkpt lat="42.81877" lon="1.74899">
        <ele>1871.015</ele>
        <time>2021-03-23T10:32:57Z</time>
      </trkpt>
      <trkpt lat="42.81877" lon="1.749">
        <ele>1870.688</ele>
        <time>2021-03-23T10:32:59Z</time>
      </trkpt>
      <trkpt lat="42.81878" lon="1.74901">
        <ele>1871.133</ele>
        <time>2021-03-23T10:33:01Z</time>
      </trkpt>
      <trkpt lat="42.81879" lon="1.74902">
        <ele>1872.142</ele>
        <time>2021-03-23T10:33:03Z</time>
      </trkpt>
      <trkpt lat="42.8188" lon="1.74903">
        <ele>1871.751</ele>
        <time>2021-03-23T10:33:05Z</time>
      </trkpt>
      <trkpt lat="42.81881" lon="1.74904">
        <ele>1872.257</ele>
        <time>2021-03-23T10:33:07Z</time>
      </trkpt>
      <trkpt lat="42.81881" lon="1.74905">
        <ele>1872.099</ele>
        <time>2021-03-23T10:33:09Z</time>
      </trkpt>
      <trkpt lat="42.81882" lon="1.74905">
        <ele>1872.831</ele>
        <time>2021-03-23T10:33:11Z</time>
      </trkpt>
      <trkpt lat="42.81883" lon="1.74906">
        <ele>1872.502</ele>
        <time>2021-03-23T10:33:13Z</time>
      </trkpt>
      <trkpt lat="42.81884" lon="1.74907">
        <ele>1872.305</ele>
        <time>2021-03-23T10:33:15Z</time>
      </trkpt>
      <trkpt lat="42.81886" lon="1.74907">
        <ele>1871.935</ele>
        <time>2021-03-23T10:33:17Z</time>
      </trkpt>
      <trkpt lat="42.81887" lon="1.74908">
        <ele>1872.166</ele>
        <time>2021-03-23T10:33:19Z</time>
      </trkpt>
      <trkpt lat="42.81887" lon="1.74909">
        <ele>1872.588</ele>
        <time>2021-03-23T10:33:21Z</time>
      </trkpt>
      <trkpt lat="42.81888" lon="1.7491">
        <ele>1873.515</ele>
        <time>2021-03-23T10:33:23Z</time>
      </trkpt>
      <trkpt lat="42.81889" lon="1.74911">
        <ele>1874.459</ele>
        <time>2021-03-23T10:33:25Z</time>
      </trkpt>
      <trkpt lat="42.81889" lon="1.74912">
        <ele>1874.496</ele>
        <time>2021-03-23T10:33:27Z</time>
      </trkpt>
      <trkpt lat="42.8189" lon="1.74912">
        <ele>1874.835</ele>
        <time>2021-03-23T10:33:29Z</time>
      </trkpt>
      <trkpt lat="42.81892" lon="1.74913">
        <ele>1874.734</ele>
        <time>2021-03-23T10:33:31Z</time>
      </trkpt>
      <trkpt lat="42.81893" lon="1.74913">
        <ele>1874.335</ele>
        <time>2021-03-23T10:33:33Z</time>
      </trkpt>
      <trkpt lat="42.81894" lon="1.74914">
        <ele>1874.121</ele>
        <time>2021-03-23T10:33:35Z</time>
      </trkpt>
      <trkpt lat="42.81895" lon="1.74915">
        <ele>1875.54</ele>
        <time>2021-03-23T10:33:37Z</time>
      </trkpt>
      <trkpt lat="42.81896" lon="1.74916">
        <ele>1875.292</ele>
        <time>2021-03-23T10:33:39Z</time>
      </trkpt>
      <trkpt lat="42.81896" lon="1.74916">
        <ele>1875.036</ele>
        <time>2021-03-23T10:33:41Z</time>
      </trkpt>
      <trkpt lat="42.81897" lon="1.74915">
        <ele>1877.004</ele>
        <time>2021-03-23T10:33:43Z</time>
      </trkpt>
      <trkpt lat="42.81898" lon="1.74916">
        <ele>1877.526</ele>
        <time>2021-03-23T10:33:45Z</time>
      </trkpt>
      <trkpt lat="42.819" lon="1.74916">
        <ele>1876.971</ele>
        <time>2021-03-23T10:33:47Z</time>
      </trkpt>
      <trkpt lat="42.81901" lon="1.74917">
        <ele>1877.348</ele>
        <time>2021-03-23T10:33:49Z</time>
      </trkpt>
      <trkpt lat="42.81902" lon="1.74917">
        <ele>1877.769</ele>
        <time>2021-03-23T10:33:51Z</time>
      </trkpt>
      <trkpt lat="42.81903" lon="1.74917">
        <ele>1878.052</ele>
        <time>2021-03-23T10:33:53Z</time>
      </trkpt>
      <trkpt lat="42.81903" lon="1.74918">
        <ele>1877.812</ele>
        <time>2021-03-23T10:33:55Z</time>
      </trkpt>
      <trkpt lat="42.81905" lon="1.74919">
        <ele>1879.402</ele>
        <time>2021-03-23T10:33:58Z</time>
      </trkpt>
      <trkpt lat="42.81906" lon="1.7492">
        <ele>1878.809</ele>
        <time>2021-03-23T10:34:01Z</time>
      </trkpt>
      <trkpt lat="42.81907" lon="1.7492">
        <ele>1878.716</ele>
        <time>2021-03-23T10:34:03Z</time>
      </trkpt>
      <trkpt lat="42.81908" lon="1.74921">
        <ele>1878.187</ele>
        <time>2021-03-23T10:34:05Z</time>
      </trkpt>
      <trkpt lat="42.81909" lon="1.74922">
        <ele>1877.934</ele>
        <time>2021-03-23T10:34:07Z</time>
      </trkpt>
      <trkpt lat="42.8191" lon="1.74922">
        <ele>1879.211</ele>
        <time>2021-03-23T10:34:09Z</time>
      </trkpt>
      <trkpt lat="42.8191" lon="1.74923">
        <ele>1878.255</ele>
        <time>2021-03-23T10:34:11Z</time>
      </trkpt>
      <trkpt lat="42.81911" lon="1.74923">
        <ele>1877.827</ele>
        <time>2021-03-23T10:34:13Z</time>
      </trkpt>
      <trkpt lat="42.81912" lon="1.74923">
        <ele>1878.044</ele>
        <time>2021-03-23T10:34:15Z</time>
      </trkpt>
      <trkpt lat="42.81913" lon="1.74924">
        <ele>1878.84</ele>
        <time>2021-03-23T10:34:17Z</time>
      </trkpt>
      <trkpt lat="42.81914" lon="1.74924">
        <ele>1878.996</ele>
        <time>2021-03-23T10:34:19Z</time>
      </trkpt>
      <trkpt lat="42.81914" lon="1.74924">
        <ele>1879.045</ele>
        <time>2021-03-23T10:34:21Z</time>
      </trkpt>
      <trkpt lat="42.81915" lon="1.74925">
        <ele>1879.081</ele>
        <time>2021-03-23T10:34:23Z</time>
      </trkpt>
      <trkpt lat="42.81915" lon="1.74925">
        <ele>1878.509</ele>
        <time>2021-03-23T10:34:25Z</time>
      </trkpt>
      <trkpt lat="42.81916" lon="1.74926">
        <ele>1878.813</ele>
        <time>2021-03-23T10:34:27Z</time>
      </trkpt>
      <trkpt lat="42.81916" lon="1.74926">
        <ele>1879.786</ele>
        <time>2021-03-23T10:34:29Z</time>
      </trkpt>
      <trkpt lat="42.81917" lon="1.74927">
        <ele>1879.947</ele>
        <time>2021-03-23T10:34:31Z</time>
      </trkpt>
      <trkpt lat="42.81917" lon="1.74928">
        <ele>1880.859</ele>
        <time>2021-03-23T10:34:33Z</time>
      </trkpt>
      <trkpt lat="42.81918" lon="1.74928">
        <ele>1882.389</ele>
        <time>2021-03-23T10:34:35Z</time>
      </trkpt>
      <trkpt lat="42.81919" lon="1.74929">
        <ele>1883.529</ele>
        <time>2021-03-23T10:34:37Z</time>
      </trkpt>
      <trkpt lat="42.8192" lon="1.74929">
        <ele>1883.938</ele>
        <time>2021-03-23T10:34:39Z</time>
      </trkpt>
      <trkpt lat="42.8192" lon="1.7493">
        <ele>1883.773</ele>
        <time>2021-03-23T10:34:41Z</time>
      </trkpt>
      <trkpt lat="42.81921" lon="1.74931">
        <ele>1884.773</ele>
        <time>2021-03-23T10:34:43Z</time>
      </trkpt>
      <trkpt lat="42.81922" lon="1.74931">
        <ele>1885.01</ele>
        <time>2021-03-23T10:34:45Z</time>
      </trkpt>
      <trkpt lat="42.81922" lon="1.74932">
        <ele>1884.628</ele>
        <time>2021-03-23T10:34:47Z</time>
      </trkpt>
      <trkpt lat="42.81923" lon="1.74933">
        <ele>1884.728</ele>
        <time>2021-03-23T10:34:49Z</time>
      </trkpt>
      <trkpt lat="42.81925" lon="1.74933">
        <ele>1884.544</ele>
        <time>2021-03-23T10:34:51Z</time>
      </trkpt>
      <trkpt lat="42.81926" lon="1.74934">
        <ele>1885.356</ele>
        <time>2021-03-23T10:34:53Z</time>
      </trkpt>
      <trkpt lat="42.81927" lon="1.74935">
        <ele>1884.912</ele>
        <time>2021-03-23T10:34:55Z</time>
      </trkpt>
      <trkpt lat="42.81928" lon="1.74936">
        <ele>1885.66</ele>
        <time>2021-03-23T10:34:57Z</time>
      </trkpt>
      <trkpt lat="42.81928" lon="1.74936">
        <ele>1887.031</ele>
        <time>2021-03-23T10:34:59Z</time>
      </trkpt>
      <trkpt lat="42.81929" lon="1.74937">
        <ele>1886.782</ele>
        <time>2021-03-23T10:35:01Z</time>
      </trkpt>
      <trkpt lat="42.81929" lon="1.74937">
        <ele>1887.677</ele>
        <time>2021-03-23T10:35:02Z</time>
      </trkpt>
      <trkpt lat="42.8193" lon="1.74938">
        <ele>1887.827</ele>
        <time>2021-03-23T10:35:05Z</time>
      </trkpt>
      <trkpt lat="42.8193" lon="1.74939">
        <ele>1887.927</ele>
        <time>2021-03-23T10:35:07Z</time>
      </trkpt>
      <trkpt lat="42.8193" lon="1.7494">
        <ele>1887.665</ele>
        <time>2021-03-23T10:35:09Z</time>
      </trkpt>
      <trkpt lat="42.81931" lon="1.74941">
        <ele>1887.195</ele>
        <time>2021-03-23T10:35:11Z</time>
      </trkpt>
      <trkpt lat="42.81931" lon="1.74941">
        <ele>1887.407</ele>
        <time>2021-03-23T10:35:13Z</time>
      </trkpt>
      <trkpt lat="42.81932" lon="1.74942">
        <ele>1888.308</ele>
        <time>2021-03-23T10:35:15Z</time>
      </trkpt>
      <trkpt lat="42.81932" lon="1.74943">
        <ele>1888.829</ele>
        <time>2021-03-23T10:35:17Z</time>
      </trkpt>
      <trkpt lat="42.81933" lon="1.74944">
        <ele>1888.808</ele>
        <time>2021-03-23T10:35:19Z</time>
      </trkpt>
      <trkpt lat="42.81933" lon="1.74945">
        <ele>1889.479</ele>
        <time>2021-03-23T10:35:21Z</time>
      </trkpt>
      <trkpt lat="42.81934" lon="1.74946">
        <ele>1889.547</ele>
        <time>2021-03-23T10:35:23Z</time>
      </trkpt>
      <trkpt lat="42.81935" lon="1.74946">
        <ele>1890.006</ele>
        <time>2021-03-23T10:35:25Z</time>
      </trkpt>
      <trkpt lat="42.81936" lon="1.74946">
        <ele>1889.922</ele>
        <time>2021-03-23T10:35:27Z</time>
      </trkpt>
      <trkpt lat="42.81936" lon="1.74947">
        <ele>1890.856</ele>
        <time>2021-03-23T10:35:29Z</time>
      </trkpt>
      <trkpt lat="42.81937" lon="1.74947">
        <ele>1891.245</ele>
        <time>2021-03-23T10:35:31Z</time>
      </trkpt>
      <trkpt lat="42.81937" lon="1.74948">
        <ele>1891.082</ele>
        <time>2021-03-23T10:35:33Z</time>
      </trkpt>
      <trkpt lat="42.81937" lon="1.74948">
        <ele>1891.206</ele>
        <time>2021-03-23T10:35:35Z</time>
      </trkpt>
      <trkpt lat="42.81938" lon="1.74949">
        <ele>1890.154</ele>
        <time>2021-03-23T10:35:37Z</time>
      </trkpt>
      <trkpt lat="42.81939" lon="1.7495">
        <ele>1889.284</ele>
        <time>2021-03-23T10:35:39Z</time>
      </trkpt>
      <trkpt lat="42.8194" lon="1.74951">
        <ele>1889.715</ele>
        <time>2021-03-23T10:35:41Z</time>
      </trkpt>
      <trkpt lat="42.81941" lon="1.74952">
        <ele>1889.22</ele>
        <time>2021-03-23T10:35:43Z</time>
      </trkpt>
      <trkpt lat="42.8194" lon="1.74952">
        <ele>1890.455</ele>
        <time>2021-03-23T10:35:45Z</time>
      </trkpt>
      <trkpt lat="42.81939" lon="1.74952">
        <ele>1888.088</ele>
        <time>2021-03-23T10:35:47Z</time>
      </trkpt>
      <trkpt lat="42.81939" lon="1.74952">
        <ele>1888.159</ele>
        <time>2021-03-23T10:35:49Z</time>
      </trkpt>
      <trkpt lat="42.81939" lon="1.74952">
        <ele>1888.132</ele>
        <time>2021-03-23T10:35:51Z</time>
      </trkpt>
      <trkpt lat="42.8194" lon="1.74953">
        <ele>1887.185</ele>
        <time>2021-03-23T10:35:53Z</time>
      </trkpt>
      <trkpt lat="42.81941" lon="1.74953">
        <ele>1887.476</ele>
        <time>2021-03-23T10:35:55Z</time>
      </trkpt>
      <trkpt lat="42.81942" lon="1.74954">
        <ele>1887.618</ele>
        <time>2021-03-23T10:35:58Z</time>
      </trkpt>
      <trkpt lat="42.81943" lon="1.74955">
        <ele>1887.72</ele>
        <time>2021-03-23T10:36:00Z</time>
      </trkpt>
      <trkpt lat="42.81944" lon="1.74955">
        <ele>1887.811</ele>
        <time>2021-03-23T10:36:02Z</time>
      </trkpt>
      <trkpt lat="42.81945" lon="1.74956">
        <ele>1887.19</ele>
        <time>2021-03-23T10:36:04Z</time>
      </trkpt>
      <trkpt lat="42.81946" lon="1.74956">
        <ele>1887.601</ele>
        <time>2021-03-23T10:36:06Z</time>
      </trkpt>
      <trkpt lat="42.81946" lon="1.74956">
        <ele>1887.872</ele>
        <time>2021-03-23T10:36:08Z</time>
      </trkpt>
      <trkpt lat="42.81947" lon="1.74957">
        <ele>1889.434</ele>
        <time>2021-03-23T10:36:11Z</time>
      </trkpt>
      <trkpt lat="42.81948" lon="1.74958">
        <ele>1890.34</ele>
        <time>2021-03-23T10:36:13Z</time>
      </trkpt>
      <trkpt lat="42.81948" lon="1.74958">
        <ele>1889.73</ele>
        <time>2021-03-23T10:36:15Z</time>
      </trkpt>
      <trkpt lat="42.81949" lon="1.74958">
        <ele>1889.917</ele>
        <time>2021-03-23T10:36:17Z</time>
      </trkpt>
      <trkpt lat="42.81948" lon="1.74958">
        <ele>1890.169</ele>
        <time>2021-03-23T10:36:19Z</time>
      </trkpt>
      <trkpt lat="42.81949" lon="1.74959">
        <ele>1890.215</ele>
        <time>2021-03-23T10:36:21Z</time>
      </trkpt>
      <trkpt lat="42.8195" lon="1.74959">
        <ele>1890.732</ele>
        <time>2021-03-23T10:36:23Z</time>
      </trkpt>
      <trkpt lat="42.81951" lon="1.7496">
        <ele>1891.814</ele>
        <time>2021-03-23T10:36:25Z</time>
      </trkpt>
      <trkpt lat="42.81952" lon="1.7496">
        <ele>1893.352</ele>
        <time>2021-03-23T10:36:27Z</time>
      </trkpt>
      <trkpt lat="42.81952" lon="1.7496">
        <ele>1893.535</ele>
        <time>2021-03-23T10:36:29Z</time>
      </trkpt>
      <trkpt lat="42.81953" lon="1.7496">
        <ele>1893.977</ele>
        <time>2021-03-23T10:36:31Z</time>
      </trkpt>
      <trkpt lat="42.81954" lon="1.7496">
        <ele>1893.988</ele>
        <time>2021-03-23T10:36:33Z</time>
      </trkpt>
      <trkpt lat="42.81954" lon="1.74961">
        <ele>1893.469</ele>
        <time>2021-03-23T10:36:35Z</time>
      </trkpt>
      <trkpt lat="42.81955" lon="1.74962">
        <ele>1893.237</ele>
        <time>2021-03-23T10:36:38Z</time>
      </trkpt>
      <trkpt lat="42.81956" lon="1.74962">
        <ele>1894.824</ele>
        <time>2021-03-23T10:36:40Z</time>
      </trkpt>
      <trkpt lat="42.81955" lon="1.7496">
        <ele>1895.821</ele>
        <time>2021-03-23T10:36:42Z</time>
      </trkpt>
      <trkpt lat="42.81955" lon="1.7496">
        <ele>1895.539</ele>
        <time>2021-03-23T10:36:44Z</time>
      </trkpt>
      <trkpt lat="42.81956" lon="1.7496">
        <ele>1895.44</ele>
        <time>2021-03-23T10:36:46Z</time>
      </trkpt>
      <trkpt lat="42.81956" lon="1.7496">
        <ele>1895.597</ele>
        <time>2021-03-23T10:36:48Z</time>
      </trkpt>
      <trkpt lat="42.81957" lon="1.74961">
        <ele>1894.738</ele>
        <time>2021-03-23T10:36:50Z</time>
      </trkpt>
      <trkpt lat="42.81957" lon="1.74962">
        <ele>1894.718</ele>
        <time>2021-03-23T10:36:52Z</time>
      </trkpt>
      <trkpt lat="42.81958" lon="1.74963">
        <ele>1893.684</ele>
        <time>2021-03-23T10:36:55Z</time>
      </trkpt>
      <trkpt lat="42.81959" lon="1.74964">
        <ele>1893.623</ele>
        <time>2021-03-23T10:36:57Z</time>
      </trkpt>
      <trkpt lat="42.81959" lon="1.74964">
        <ele>1893.117</ele>
        <time>2021-03-23T10:36:59Z</time>
      </trkpt>
      <trkpt lat="42.8196" lon="1.74964">
        <ele>1892.528</ele>
        <time>2021-03-23T10:37:01Z</time>
      </trkpt>
      <trkpt lat="42.81961" lon="1.74965">
        <ele>1891.809</ele>
        <time>2021-03-23T10:37:03Z</time>
      </trkpt>
      <trkpt lat="42.81962" lon="1.74965">
        <ele>1892.356</ele>
        <time>2021-03-23T10:37:05Z</time>
      </trkpt>
      <trkpt lat="42.81962" lon="1.74966">
        <ele>1891.619</ele>
        <time>2021-03-23T10:37:07Z</time>
      </trkpt>
      <trkpt lat="42.81963" lon="1.74967">
        <ele>1891.685</ele>
        <time>2021-03-23T10:37:09Z</time>
      </trkpt>
      <trkpt lat="42.81964" lon="1.74967">
        <ele>1891.445</ele>
        <time>2021-03-23T10:37:11Z</time>
      </trkpt>
      <trkpt lat="42.81964" lon="1.74968">
        <ele>1891.847</ele>
        <time>2021-03-23T10:37:13Z</time>
      </trkpt>
      <trkpt lat="42.81965" lon="1.74968">
        <ele>1890.961</ele>
        <time>2021-03-23T10:37:15Z</time>
      </trkpt>
      <trkpt lat="42.81966" lon="1.74969">
        <ele>1889.936</ele>
        <time>2021-03-23T10:37:17Z</time>
      </trkpt>
      <trkpt lat="42.81966" lon="1.74969">
        <ele>1891.382</ele>
        <time>2021-03-23T10:37:19Z</time>
      </trkpt>
      <trkpt lat="42.81968" lon="1.7497">
        <ele>1892.497</ele>
        <time>2021-03-23T10:37:21Z</time>
      </trkpt>
      <trkpt lat="42.81969" lon="1.7497">
        <ele>1891.97</ele>
        <time>2021-03-23T10:37:23Z</time>
      </trkpt>
      <trkpt lat="42.8197" lon="1.74971">
        <ele>1891.914</ele>
        <time>2021-03-23T10:37:25Z</time>
      </trkpt>
      <trkpt lat="42.8197" lon="1.74971">
        <ele>1891.966</ele>
        <time>2021-03-23T10:37:26Z</time>
      </trkpt>
      <trkpt lat="42.81971" lon="1.74971">
        <ele>1892.35</ele>
        <time>2021-03-23T10:37:30Z</time>
      </trkpt>
      <trkpt lat="42.81972" lon="1.74971">
        <ele>1892.205</ele>
        <time>2021-03-23T10:37:32Z</time>
      </trkpt>
      <trkpt lat="42.81972" lon="1.74972">
        <ele>1892.575</ele>
        <time>2021-03-23T10:37:34Z</time>
      </trkpt>
      <trkpt lat="42.81972" lon="1.74972">
        <ele>1893.342</ele>
        <time>2021-03-23T10:37:36Z</time>
      </trkpt>
      <trkpt lat="42.81972" lon="1.74972">
        <ele>1893.322</ele>
        <time>2021-03-23T10:37:38Z</time>
      </trkpt>
      <trkpt lat="42.81972" lon="1.74972">
        <ele>1893.326</ele>
        <time>2021-03-23T10:37:40Z</time>
      </trkpt>
      <trkpt lat="42.81972" lon="1.74972">
        <ele>1893.318</ele>
        <time>2021-03-23T10:37:42Z</time>
      </trkpt>
      <trkpt lat="42.81972" lon="1.74972">
        <ele>1893.298</ele>
        <time>2021-03-23T10:37:44Z</time>
      </trkpt>
      <trkpt lat="42.81972" lon="1.74972">
        <ele>1893.283</ele>
        <time>2021-03-23T10:37:46Z</time>
      </trkpt>
      <trkpt lat="42.81972" lon="1.74972">
        <ele>1893.523</ele>
        <time>2021-03-23T10:37:48Z</time>
      </trkpt>
      <trkpt lat="42.81973" lon="1.74972">
        <ele>1893.245</ele>
        <time>2021-03-23T10:37:50Z</time>
      </trkpt>
      <trkpt lat="42.81973" lon="1.74973">
        <ele>1893.097</ele>
        <time>2021-03-23T10:37:52Z</time>
      </trkpt>
      <trkpt lat="42.81974" lon="1.74973">
        <ele>1893.195</ele>
        <time>2021-03-23T10:37:54Z</time>
      </trkpt>
      <trkpt lat="42.81975" lon="1.74974">
        <ele>1893.12</ele>
        <time>2021-03-23T10:37:57Z</time>
      </trkpt>
      <trkpt lat="42.81976" lon="1.74975">
        <ele>1891.966</ele>
        <time>2021-03-23T10:37:59Z</time>
      </trkpt>
      <trkpt lat="42.81977" lon="1.74975">
        <ele>1892.168</ele>
        <time>2021-03-23T10:38:01Z</time>
      </trkpt>
      <trkpt lat="42.81977" lon="1.74975">
        <ele>1892.256</ele>
        <time>2021-03-23T10:38:03Z</time>
      </trkpt>
      <trkpt lat="42.81978" lon="1.74976">
        <ele>1891.165</ele>
        <time>2021-03-23T10:38:06Z</time>
      </trkpt>
      <trkpt lat="42.81979" lon="1.74976">
        <ele>1891.392</ele>
        <time>2021-03-23T10:38:08Z</time>
      </trkpt>
      <trkpt lat="42.8198" lon="1.74976">
        <ele>1892.222</ele>
        <time>2021-03-23T10:38:10Z</time>
      </trkpt>
      <trkpt lat="42.8198" lon="1.74975">
        <ele>1892.245</ele>
        <time>2021-03-23T10:38:12Z</time>
      </trkpt>
      <trkpt lat="42.81981" lon="1.74976">
        <ele>1892.921</ele>
        <time>2021-03-23T10:38:14Z</time>
      </trkpt>
      <trkpt lat="42.81982" lon="1.74976">
        <ele>1892.352</ele>
        <time>2021-03-23T10:38:16Z</time>
      </trkpt>
      <trkpt lat="42.81983" lon="1.74977">
        <ele>1891.841</ele>
        <time>2021-03-23T10:38:18Z</time>
      </trkpt>
      <trkpt lat="42.81984" lon="1.74978">
        <ele>1892.844</ele>
        <time>2021-03-23T10:38:20Z</time>
      </trkpt>
      <trkpt lat="42.81985" lon="1.74978">
        <ele>1893.157</ele>
        <time>2021-03-23T10:38:22Z</time>
      </trkpt>
      <trkpt lat="42.81985" lon="1.74978">
        <ele>1895.59</ele>
        <time>2021-03-23T10:38:24Z</time>
      </trkpt>
      <trkpt lat="42.81986" lon="1.74979">
        <ele>1895.25</ele>
        <time>2021-03-23T10:38:26Z</time>
      </trkpt>
      <trkpt lat="42.81986" lon="1.7498">
        <ele>1896.012</ele>
        <time>2021-03-23T10:38:29Z</time>
      </trkpt>
      <trkpt lat="42.81986" lon="1.7498">
        <ele>1896.215</ele>
        <time>2021-03-23T10:38:31Z</time>
      </trkpt>
      <trkpt lat="42.81987" lon="1.7498">
        <ele>1896.393</ele>
        <time>2021-03-23T10:38:33Z</time>
      </trkpt>
      <trkpt lat="42.81988" lon="1.74981">
        <ele>1897.181</ele>
        <time>2021-03-23T10:38:35Z</time>
      </trkpt>
      <trkpt lat="42.81989" lon="1.74981">
        <ele>1896.974</ele>
        <time>2021-03-23T10:38:37Z</time>
      </trkpt>
      <trkpt lat="42.81989" lon="1.74981">
        <ele>1896.878</ele>
        <time>2021-03-23T10:38:39Z</time>
      </trkpt>
      <trkpt lat="42.8199" lon="1.74982">
        <ele>1897.453</ele>
        <time>2021-03-23T10:38:41Z</time>
      </trkpt>
      <trkpt lat="42.81992" lon="1.74982">
        <ele>1897.536</ele>
        <time>2021-03-23T10:38:43Z</time>
      </trkpt>
      <trkpt lat="42.81992" lon="1.74982">
        <ele>1897.126</ele>
        <time>2021-03-23T10:38:45Z</time>
      </trkpt>
      <trkpt lat="42.81993" lon="1.74982">
        <ele>1897.731</ele>
        <time>2021-03-23T10:38:46Z</time>
      </trkpt>
      <trkpt lat="42.81993" lon="1.74983">
        <ele>1898.614</ele>
        <time>2021-03-23T10:38:49Z</time>
      </trkpt>
      <trkpt lat="42.81993" lon="1.74983">
        <ele>1899.401</ele>
        <time>2021-03-23T10:38:51Z</time>
      </trkpt>
      <trkpt lat="42.81994" lon="1.74984">
        <ele>1899.011</ele>
        <time>2021-03-23T10:38:53Z</time>
      </trkpt>
      <trkpt lat="42.81994" lon="1.74983">
        <ele>1900.181</ele>
        <time>2021-03-23T10:38:55Z</time>
      </trkpt>
      <trkpt lat="42.81995" lon="1.74984">
        <ele>1900.732</ele>
        <time>2021-03-23T10:38:58Z</time>
      </trkpt>
      <trkpt lat="42.81996" lon="1.74984">
        <ele>1900.958</ele>
        <time>2021-03-23T10:39:00Z</time>
      </trkpt>
      <trkpt lat="42.81997" lon="1.74984">
        <ele>1901.336</ele>
        <time>2021-03-23T10:39:02Z</time>
      </trkpt>
      <trkpt lat="42.81998" lon="1.74985">
        <ele>1902.676</ele>
        <time>2021-03-23T10:39:04Z</time>
      </trkpt>
      <trkpt lat="42.81998" lon="1.74985">
        <ele>1902.452</ele>
        <time>2021-03-23T10:39:06Z</time>
      </trkpt>
      <trkpt lat="42.81998" lon="1.74985">
        <ele>1902.651</ele>
        <time>2021-03-23T10:39:07Z</time>
      </trkpt>
      <trkpt lat="42.81999" lon="1.74985">
        <ele>1902.502</ele>
        <time>2021-03-23T10:39:10Z</time>
      </trkpt>
      <trkpt lat="42.81998" lon="1.74985">
        <ele>1902.996</ele>
        <time>2021-03-23T10:39:13Z</time>
      </trkpt>
      <trkpt lat="42.81999" lon="1.74986">
        <ele>1903.56</ele>
        <time>2021-03-23T10:39:15Z</time>
      </trkpt>
      <trkpt lat="42.81999" lon="1.74987">
        <ele>1903.769</ele>
        <time>2021-03-23T10:39:17Z</time>
      </trkpt>
      <trkpt lat="42.82" lon="1.74987">
        <ele>1904.001</ele>
        <time>2021-03-23T10:39:19Z</time>
      </trkpt>
      <trkpt lat="42.82001" lon="1.74987">
        <ele>1904.948</ele>
        <time>2021-03-23T10:39:21Z</time>
      </trkpt>
      <trkpt lat="42.82001" lon="1.74988">
        <ele>1905.663</ele>
        <time>2021-03-23T10:39:23Z</time>
      </trkpt>
      <trkpt lat="42.82002" lon="1.74988">
        <ele>1906.751</ele>
        <time>2021-03-23T10:39:25Z</time>
      </trkpt>
      <trkpt lat="42.82003" lon="1.74989">
        <ele>1907.214</ele>
        <time>2021-03-23T10:39:27Z</time>
      </trkpt>
      <trkpt lat="42.82003" lon="1.74989">
        <ele>1907.837</ele>
        <time>2021-03-23T10:39:30Z</time>
      </trkpt>
      <trkpt lat="42.82004" lon="1.7499">
        <ele>1908.117</ele>
        <time>2021-03-23T10:39:32Z</time>
      </trkpt>
      <trkpt lat="42.82004" lon="1.74991">
        <ele>1907.999</ele>
        <time>2021-03-23T10:39:34Z</time>
      </trkpt>
      <trkpt lat="42.82005" lon="1.74991">
        <ele>1909.287</ele>
        <time>2021-03-23T10:39:36Z</time>
      </trkpt>
      <trkpt lat="42.82006" lon="1.74991">
        <ele>1909.876</ele>
        <time>2021-03-23T10:39:38Z</time>
      </trkpt>
      <trkpt lat="42.82007" lon="1.74991">
        <ele>1909.997</ele>
        <time>2021-03-23T10:39:40Z</time>
      </trkpt>
      <trkpt lat="42.82007" lon="1.74991">
        <ele>1910.566</ele>
        <time>2021-03-23T10:39:42Z</time>
      </trkpt>
      <trkpt lat="42.82008" lon="1.74991">
        <ele>1911.603</ele>
        <time>2021-03-23T10:39:45Z</time>
      </trkpt>
      <trkpt lat="42.82008" lon="1.74991">
        <ele>1911.635</ele>
        <time>2021-03-23T10:39:47Z</time>
      </trkpt>
      <trkpt lat="42.82008" lon="1.74991">
        <ele>1911.626</ele>
        <time>2021-03-23T10:39:49Z</time>
      </trkpt>
      <trkpt lat="42.82008" lon="1.74991">
        <ele>1911.841</ele>
        <time>2021-03-23T10:39:51Z</time>
      </trkpt>
      <trkpt lat="42.82009" lon="1.74992">
        <ele>1912.185</ele>
        <time>2021-03-23T10:39:53Z</time>
      </trkpt>
      <trkpt lat="42.82009" lon="1.74993">
        <ele>1912.55</ele>
        <time>2021-03-23T10:39:55Z</time>
      </trkpt>
      <trkpt lat="42.82009" lon="1.74994">
        <ele>1911.587</ele>
        <time>2021-03-23T10:39:57Z</time>
      </trkpt>
      <trkpt lat="42.82008" lon="1.74995">
        <ele>1911.528</ele>
        <time>2021-03-23T10:39:59Z</time>
      </trkpt>
      <trkpt lat="42.82007" lon="1.74996">
        <ele>1911.95</ele>
        <time>2021-03-23T10:40:01Z</time>
      </trkpt>
      <trkpt lat="42.82006" lon="1.74996">
        <ele>1911.292</ele>
        <time>2021-03-23T10:40:03Z</time>
      </trkpt>
      <trkpt lat="42.82006" lon="1.74996">
        <ele>1911.249</ele>
        <time>2021-03-23T10:40:05Z</time>
      </trkpt>
      <trkpt lat="42.82005" lon="1.74998">
        <ele>1911.374</ele>
        <time>2021-03-23T10:40:08Z</time>
      </trkpt>
      <trkpt lat="42.82005" lon="1.75">
        <ele>1912.022</ele>
        <time>2021-03-23T10:40:10Z</time>
      </trkpt>
      <trkpt lat="42.82005" lon="1.75001">
        <ele>1913.644</ele>
        <time>2021-03-23T10:40:12Z</time>
      </trkpt>
      <trkpt lat="42.82005" lon="1.75001">
        <ele>1913.841</ele>
        <time>2021-03-23T10:40:14Z</time>
      </trkpt>
      <trkpt lat="42.82006" lon="1.75002">
        <ele>1912.818</ele>
        <time>2021-03-23T10:40:17Z</time>
      </trkpt>
      <trkpt lat="42.82007" lon="1.75003">
        <ele>1913.601</ele>
        <time>2021-03-23T10:40:20Z</time>
      </trkpt>
      <trkpt lat="42.82008" lon="1.75004">
        <ele>1913.169</ele>
        <time>2021-03-23T10:40:23Z</time>
      </trkpt>
      <trkpt lat="42.82008" lon="1.75004">
        <ele>1913.143</ele>
        <time>2021-03-23T10:40:25Z</time>
      </trkpt>
      <trkpt lat="42.82009" lon="1.75004">
        <ele>1913.175</ele>
        <time>2021-03-23T10:40:27Z</time>
      </trkpt>
      <trkpt lat="42.82009" lon="1.75005">
        <ele>1913.585</ele>
        <time>2021-03-23T10:40:29Z</time>
      </trkpt>
      <trkpt lat="42.8201" lon="1.75005">
        <ele>1914.574</ele>
        <time>2021-03-23T10:40:31Z</time>
      </trkpt>
      <trkpt lat="42.82011" lon="1.75006">
        <ele>1914.696</ele>
        <time>2021-03-23T10:40:33Z</time>
      </trkpt>
      <trkpt lat="42.82011" lon="1.75007">
        <ele>1914.273</ele>
        <time>2021-03-23T10:40:35Z</time>
      </trkpt>
      <trkpt lat="42.82012" lon="1.75007">
        <ele>1916.346</ele>
        <time>2021-03-23T10:40:38Z</time>
      </trkpt>
      <trkpt lat="42.82011" lon="1.75006">
        <ele>1916.418</ele>
        <time>2021-03-23T10:40:41Z</time>
      </trkpt>
      <trkpt lat="42.82012" lon="1.75007">
        <ele>1916.614</ele>
        <time>2021-03-23T10:40:43Z</time>
      </trkpt>
      <trkpt lat="42.82012" lon="1.75007">
        <ele>1918.378</ele>
        <time>2021-03-23T10:40:45Z</time>
      </trkpt>
      <trkpt lat="42.82012" lon="1.75008">
        <ele>1918.218</ele>
        <time>2021-03-23T10:40:47Z</time>
      </trkpt>
      <trkpt lat="42.82013" lon="1.75007">
        <ele>1918.399</ele>
        <time>2021-03-23T10:40:49Z</time>
      </trkpt>
      <trkpt lat="42.82014" lon="1.75007">
        <ele>1919.772</ele>
        <time>2021-03-23T10:40:51Z</time>
      </trkpt>
      <trkpt lat="42.82014" lon="1.75007">
        <ele>1919.637</ele>
        <time>2021-03-23T10:40:52Z</time>
      </trkpt>
      <trkpt lat="42.82015" lon="1.75007">
        <ele>1920.734</ele>
        <time>2021-03-23T10:40:55Z</time>
      </trkpt>
      <trkpt lat="42.82015" lon="1.75008">
        <ele>1920.509</ele>
        <time>2021-03-23T10:40:57Z</time>
      </trkpt>
      <trkpt lat="42.82015" lon="1.75009">
        <ele>1921.451</ele>
        <time>2021-03-23T10:40:59Z</time>
      </trkpt>
      <trkpt lat="42.82016" lon="1.7501">
        <ele>1921.311</ele>
        <time>2021-03-23T10:41:01Z</time>
      </trkpt>
      <trkpt lat="42.82016" lon="1.7501">
        <ele>1921.854</ele>
        <time>2021-03-23T10:41:03Z</time>
      </trkpt>
      <trkpt lat="42.82016" lon="1.7501">
        <ele>1921.743</ele>
        <time>2021-03-23T10:41:05Z</time>
      </trkpt>
      <trkpt lat="42.82017" lon="1.75011">
        <ele>1922.122</ele>
        <time>2021-03-23T10:41:07Z</time>
      </trkpt>
      <trkpt lat="42.82018" lon="1.75011">
        <ele>1922.613</ele>
        <time>2021-03-23T10:41:09Z</time>
      </trkpt>
      <trkpt lat="42.82018" lon="1.75012">
        <ele>1922.739</ele>
        <time>2021-03-23T10:41:11Z</time>
      </trkpt>
      <trkpt lat="42.82019" lon="1.75013">
        <ele>1922.934</ele>
        <time>2021-03-23T10:41:13Z</time>
      </trkpt>
      <trkpt lat="42.8202" lon="1.75014">
        <ele>1923.196</ele>
        <time>2021-03-23T10:41:15Z</time>
      </trkpt>
      <trkpt lat="42.82021" lon="1.75015">
        <ele>1923.685</ele>
        <time>2021-03-23T10:41:17Z</time>
      </trkpt>
      <trkpt lat="42.82021" lon="1.75016">
        <ele>1923.617</ele>
        <time>2021-03-23T10:41:19Z</time>
      </trkpt>
      <trkpt lat="42.82023" lon="1.75016">
        <ele>1923.896</ele>
        <time>2021-03-23T10:41:21Z</time>
      </trkpt>
      <trkpt lat="42.82024" lon="1.75016">
        <ele>1925.887</ele>
        <time>2021-03-23T10:41:23Z</time>
      </trkpt>
      <trkpt lat="42.82025" lon="1.75016">
        <ele>1926.792</ele>
        <time>2021-03-23T10:41:25Z</time>
      </trkpt>
      <trkpt lat="42.82025" lon="1.75016">
        <ele>1926.927</ele>
        <time>2021-03-23T10:41:27Z</time>
      </trkpt>
      <trkpt lat="42.82025" lon="1.75016">
        <ele>1926.919</ele>
        <time>2021-03-23T10:41:29Z</time>
      </trkpt>
      <trkpt lat="42.82025" lon="1.75016">
        <ele>1927.006</ele>
        <time>2021-03-23T10:41:31Z</time>
      </trkpt>
      <trkpt lat="42.82026" lon="1.75017">
        <ele>1927.053</ele>
        <time>2021-03-23T10:41:33Z</time>
      </trkpt>
      <trkpt lat="42.82027" lon="1.75017">
        <ele>1927.121</ele>
        <time>2021-03-23T10:41:34Z</time>
      </trkpt>
      <trkpt lat="42.82028" lon="1.75017">
        <ele>1928.514</ele>
        <time>2021-03-23T10:41:37Z</time>
      </trkpt>
      <trkpt lat="42.82028" lon="1.75017">
        <ele>1928.502</ele>
        <time>2021-03-23T10:41:39Z</time>
      </trkpt>
      <trkpt lat="42.82028" lon="1.75017">
        <ele>1928.509</ele>
        <time>2021-03-23T10:41:41Z</time>
      </trkpt>
      <trkpt lat="42.82029" lon="1.75018">
        <ele>1929.293</ele>
        <time>2021-03-23T10:41:43Z</time>
      </trkpt>
      <trkpt lat="42.8203" lon="1.7502">
        <ele>1929.16</ele>
        <time>2021-03-23T10:41:45Z</time>
      </trkpt>
      <trkpt lat="42.82031" lon="1.75022">
        <ele>1928.779</ele>
        <time>2021-03-23T10:41:47Z</time>
      </trkpt>
      <trkpt lat="42.82031" lon="1.75022">
        <ele>1928.241</ele>
        <time>2021-03-23T10:41:48Z</time>
      </trkpt>
      <trkpt lat="42.82032" lon="1.75024">
        <ele>1927.149</ele>
        <time>2021-03-23T10:41:51Z</time>
      </trkpt>
      <trkpt lat="42.82032" lon="1.75024">
        <ele>1928.561</ele>
        <time>2021-03-23T10:41:53Z</time>
      </trkpt>
      <trkpt lat="42.82033" lon="1.75025">
        <ele>1929.082</ele>
        <time>2021-03-23T10:41:55Z</time>
      </trkpt>
      <trkpt lat="42.82034" lon="1.75026">
        <ele>1927.93</ele>
        <time>2021-03-23T10:41:57Z</time>
      </trkpt>
      <trkpt lat="42.82034" lon="1.75026">
        <ele>1928.695</ele>
        <time>2021-03-23T10:41:59Z</time>
      </trkpt>
      <trkpt lat="42.82035" lon="1.75026">
        <ele>1928.697</ele>
        <time>2021-03-23T10:42:01Z</time>
      </trkpt>
      <trkpt lat="42.82035" lon="1.75027">
        <ele>1928.541</ele>
        <time>2021-03-23T10:42:03Z</time>
      </trkpt>
      <trkpt lat="42.82035" lon="1.75028">
        <ele>1928.255</ele>
        <time>2021-03-23T10:42:05Z</time>
      </trkpt>
      <trkpt lat="42.82036" lon="1.75028">
        <ele>1929.121</ele>
        <time>2021-03-23T10:42:07Z</time>
      </trkpt>
      <trkpt lat="42.82037" lon="1.75029">
        <ele>1928.235</ele>
        <time>2021-03-23T10:42:09Z</time>
      </trkpt>
      <trkpt lat="42.82038" lon="1.7503">
        <ele>1928.83</ele>
        <time>2021-03-23T10:42:11Z</time>
      </trkpt>
      <trkpt lat="42.82038" lon="1.75031">
        <ele>1929.08</ele>
        <time>2021-03-23T10:42:13Z</time>
      </trkpt>
      <trkpt lat="42.82039" lon="1.75031">
        <ele>1929.316</ele>
        <time>2021-03-23T10:42:15Z</time>
      </trkpt>
      <trkpt lat="42.8204" lon="1.75032">
        <ele>1928.996</ele>
        <time>2021-03-23T10:42:17Z</time>
      </trkpt>
      <trkpt lat="42.82041" lon="1.75033">
        <ele>1929.32</ele>
        <time>2021-03-23T10:42:19Z</time>
      </trkpt>
      <trkpt lat="42.82042" lon="1.75033">
        <ele>1928.906</ele>
        <time>2021-03-23T10:42:21Z</time>
      </trkpt>
      <trkpt lat="42.82043" lon="1.75034">
        <ele>1929.846</ele>
        <time>2021-03-23T10:42:23Z</time>
      </trkpt>
      <trkpt lat="42.82043" lon="1.75034">
        <ele>1929.667</ele>
        <time>2021-03-23T10:42:25Z</time>
      </trkpt>
      <trkpt lat="42.82044" lon="1.75034">
        <ele>1929.923</ele>
        <time>2021-03-23T10:42:27Z</time>
      </trkpt>
      <trkpt lat="42.82044" lon="1.75033">
        <ele>1929.792</ele>
        <time>2021-03-23T10:42:29Z</time>
      </trkpt>
      <trkpt lat="42.82046" lon="1.75034">
        <ele>1929.693</ele>
        <time>2021-03-23T10:42:31Z</time>
      </trkpt>
      <trkpt lat="42.82047" lon="1.75034">
        <ele>1929.952</ele>
        <time>2021-03-23T10:42:33Z</time>
      </trkpt>
      <trkpt lat="42.82048" lon="1.75034">
        <ele>1931.377</ele>
        <time>2021-03-23T10:42:35Z</time>
      </trkpt>
      <trkpt lat="42.82048" lon="1.75034">
        <ele>1931.7</ele>
        <time>2021-03-23T10:42:37Z</time>
      </trkpt>
      <trkpt lat="42.82048" lon="1.75034">
        <ele>1931.68</ele>
        <time>2021-03-23T10:42:39Z</time>
      </trkpt>
      <trkpt lat="42.82049" lon="1.75034">
        <ele>1930.965</ele>
        <time>2021-03-23T10:42:41Z</time>
      </trkpt>
      <trkpt lat="42.82049" lon="1.75034">
        <ele>1930.939</ele>
        <time>2021-03-23T10:42:43Z</time>
      </trkpt>
      <trkpt lat="42.82049" lon="1.75034">
        <ele>1930.978</ele>
        <time>2021-03-23T10:42:45Z</time>
      </trkpt>
      <trkpt lat="42.8205" lon="1.75034">
        <ele>1931.043</ele>
        <time>2021-03-23T10:42:47Z</time>
      </trkpt>
      <trkpt lat="42.82051" lon="1.75035">
        <ele>1930.729</ele>
        <time>2021-03-23T10:42:49Z</time>
      </trkpt>
      <trkpt lat="42.82053" lon="1.75035">
        <ele>1930.483</ele>
        <time>2021-03-23T10:42:51Z</time>
      </trkpt>
      <trkpt lat="42.82054" lon="1.75035">
        <ele>1931.879</ele>
        <time>2021-03-23T10:42:53Z</time>
      </trkpt>
      <trkpt lat="42.82055" lon="1.75035">
        <ele>1931.691</ele>
        <time>2021-03-23T10:42:55Z</time>
      </trkpt>
      <trkpt lat="42.82056" lon="1.75035">
        <ele>1932.099</ele>
        <time>2021-03-23T10:42:57Z</time>
      </trkpt>
      <trkpt lat="42.82057" lon="1.75036">
        <ele>1933.062</ele>
        <time>2021-03-23T10:42:59Z</time>
      </trkpt>
      <trkpt lat="42.82058" lon="1.75037">
        <ele>1933.517</ele>
        <time>2021-03-23T10:43:01Z</time>
      </trkpt>
      <trkpt lat="42.82059" lon="1.75038">
        <ele>1932.856</ele>
        <time>2021-03-23T10:43:04Z</time>
      </trkpt>
      <trkpt lat="42.8206" lon="1.75038">
        <ele>1933.281</ele>
        <time>2021-03-23T10:43:06Z</time>
      </trkpt>
      <trkpt lat="42.82061" lon="1.75038">
        <ele>1933.776</ele>
        <time>2021-03-23T10:43:08Z</time>
      </trkpt>
      <trkpt lat="42.82062" lon="1.75038">
        <ele>1934.822</ele>
        <time>2021-03-23T10:43:10Z</time>
      </trkpt>
      <trkpt lat="42.82063" lon="1.75038">
        <ele>1934.787</ele>
        <time>2021-03-23T10:43:12Z</time>
      </trkpt>
      <trkpt lat="42.82064" lon="1.75038">
        <ele>1934.786</ele>
        <time>2021-03-23T10:43:14Z</time>
      </trkpt>
      <trkpt lat="42.82065" lon="1.75038">
        <ele>1935.146</ele>
        <time>2021-03-23T10:43:16Z</time>
      </trkpt>
      <trkpt lat="42.82066" lon="1.75039">
        <ele>1935.817</ele>
        <time>2021-03-23T10:43:18Z</time>
      </trkpt>
      <trkpt lat="42.82067" lon="1.7504">
        <ele>1936.05</ele>
        <time>2021-03-23T10:43:20Z</time>
      </trkpt>
      <trkpt lat="42.82068" lon="1.7504">
        <ele>1936.628</ele>
        <time>2021-03-23T10:43:22Z</time>
      </trkpt>
      <trkpt lat="42.82069" lon="1.75041">
        <ele>1937.192</ele>
        <time>2021-03-23T10:43:24Z</time>
      </trkpt>
      <trkpt lat="42.8207" lon="1.75041">
        <ele>1937.784</ele>
        <time>2021-03-23T10:43:26Z</time>
      </trkpt>
      <trkpt lat="42.82071" lon="1.75042">
        <ele>1938.672</ele>
        <time>2021-03-23T10:43:28Z</time>
      </trkpt>
      <trkpt lat="42.82072" lon="1.75042">
        <ele>1938.714</ele>
        <time>2021-03-23T10:43:30Z</time>
      </trkpt>
      <trkpt lat="42.82073" lon="1.75043">
        <ele>1939.46</ele>
        <time>2021-03-23T10:43:32Z</time>
      </trkpt>
      <trkpt lat="42.82074" lon="1.75043">
        <ele>1940.235</ele>
        <time>2021-03-23T10:43:34Z</time>
      </trkpt>
      <trkpt lat="42.82075" lon="1.75043">
        <ele>1940.333</ele>
        <time>2021-03-23T10:43:36Z</time>
      </trkpt>
      <trkpt lat="42.82077" lon="1.75044">
        <ele>1940.655</ele>
        <time>2021-03-23T10:43:38Z</time>
      </trkpt>
      <trkpt lat="42.82078" lon="1.75044">
        <ele>1940.588</ele>
        <time>2021-03-23T10:43:40Z</time>
      </trkpt>
      <trkpt lat="42.82079" lon="1.75045">
        <ele>1940.711</ele>
        <time>2021-03-23T10:43:42Z</time>
      </trkpt>
      <trkpt lat="42.8208" lon="1.75045">
        <ele>1940.774</ele>
        <time>2021-03-23T10:43:44Z</time>
      </trkpt>
      <trkpt lat="42.8208" lon="1.75045">
        <ele>1941.234</ele>
        <time>2021-03-23T10:43:46Z</time>
      </trkpt>
      <trkpt lat="42.82081" lon="1.75046">
        <ele>1941.115</ele>
        <time>2021-03-23T10:43:48Z</time>
      </trkpt>
      <trkpt lat="42.82082" lon="1.75046">
        <ele>1941.376</ele>
        <time>2021-03-23T10:43:50Z</time>
      </trkpt>
      <trkpt lat="42.82083" lon="1.75047">
        <ele>1941.364</ele>
        <time>2021-03-23T10:43:52Z</time>
      </trkpt>
      <trkpt lat="42.82083" lon="1.75048">
        <ele>1941.486</ele>
        <time>2021-03-23T10:43:54Z</time>
      </trkpt>
      <trkpt lat="42.82084" lon="1.75049">
        <ele>1941.767</ele>
        <time>2021-03-23T10:43:56Z</time>
      </trkpt>
      <trkpt lat="42.82085" lon="1.75049">
        <ele>1942.546</ele>
        <time>2021-03-23T10:43:58Z</time>
      </trkpt>
      <trkpt lat="42.82085" lon="1.75049">
        <ele>1942.39</ele>
        <time>2021-03-23T10:44:00Z</time>
      </trkpt>
      <trkpt lat="42.82086" lon="1.7505">
        <ele>1942.227</ele>
        <time>2021-03-23T10:44:02Z</time>
      </trkpt>
      <trkpt lat="42.82087" lon="1.75051">
        <ele>1942.864</ele>
        <time>2021-03-23T10:44:04Z</time>
      </trkpt>
      <trkpt lat="42.82087" lon="1.75051">
        <ele>1943.71</ele>
        <time>2021-03-23T10:44:06Z</time>
      </trkpt>
      <trkpt lat="42.82088" lon="1.75052">
        <ele>1943.982</ele>
        <time>2021-03-23T10:44:08Z</time>
      </trkpt>
      <trkpt lat="42.82089" lon="1.75053">
        <ele>1943.985</ele>
        <time>2021-03-23T10:44:10Z</time>
      </trkpt>
      <trkpt lat="42.8209" lon="1.75053">
        <ele>1943.91</ele>
        <time>2021-03-23T10:44:12Z</time>
      </trkpt>
      <trkpt lat="42.82091" lon="1.75054">
        <ele>1943.393</ele>
        <time>2021-03-23T10:44:14Z</time>
      </trkpt>
      <trkpt lat="42.82092" lon="1.75054">
        <ele>1943.476</ele>
        <time>2021-03-23T10:44:16Z</time>
      </trkpt>
      <trkpt lat="42.82093" lon="1.75055">
        <ele>1944.213</ele>
        <time>2021-03-23T10:44:18Z</time>
      </trkpt>
      <trkpt lat="42.82094" lon="1.75056">
        <ele>1944.912</ele>
        <time>2021-03-23T10:44:20Z</time>
      </trkpt>
      <trkpt lat="42.82095" lon="1.75057">
        <ele>1945.163</ele>
        <time>2021-03-23T10:44:22Z</time>
      </trkpt>
      <trkpt lat="42.82096" lon="1.75057">
        <ele>1944.715</ele>
        <time>2021-03-23T10:44:24Z</time>
      </trkpt>
      <trkpt lat="42.82097" lon="1.75058">
        <ele>1944.718</ele>
        <time>2021-03-23T10:44:26Z</time>
      </trkpt>
      <trkpt lat="42.82098" lon="1.75058">
        <ele>1945.247</ele>
        <time>2021-03-23T10:44:28Z</time>
      </trkpt>
      <trkpt lat="42.82099" lon="1.75059">
        <ele>1945.059</ele>
        <time>2021-03-23T10:44:30Z</time>
      </trkpt>
      <trkpt lat="42.821" lon="1.75059">
        <ele>1944.212</ele>
        <time>2021-03-23T10:44:32Z</time>
      </trkpt>
      <trkpt lat="42.82101" lon="1.7506">
        <ele>1945.506</ele>
        <time>2021-03-23T10:44:34Z</time>
      </trkpt>
      <trkpt lat="42.82102" lon="1.75061">
        <ele>1946.079</ele>
        <time>2021-03-23T10:44:36Z</time>
      </trkpt>
      <trkpt lat="42.82102" lon="1.75061">
        <ele>1946.845</ele>
        <time>2021-03-23T10:44:38Z</time>
      </trkpt>
      <trkpt lat="42.82103" lon="1.75061">
        <ele>1946.879</ele>
        <time>2021-03-23T10:44:40Z</time>
      </trkpt>
      <trkpt lat="42.82104" lon="1.75062">
        <ele>1947.002</ele>
        <time>2021-03-23T10:44:42Z</time>
      </trkpt>
      <trkpt lat="42.82104" lon="1.75063">
        <ele>1946.75</ele>
        <time>2021-03-23T10:44:44Z</time>
      </trkpt>
      <trkpt lat="42.82105" lon="1.75063">
        <ele>1947.672</ele>
        <time>2021-03-23T10:44:46Z</time>
      </trkpt>
      <trkpt lat="42.82105" lon="1.75064">
        <ele>1947.378</ele>
        <time>2021-03-23T10:44:48Z</time>
      </trkpt>
      <trkpt lat="42.82107" lon="1.75064">
        <ele>1947.427</ele>
        <time>2021-03-23T10:44:50Z</time>
      </trkpt>
      <trkpt lat="42.82108" lon="1.75065">
        <ele>1947.671</ele>
        <time>2021-03-23T10:44:52Z</time>
      </trkpt>
      <trkpt lat="42.82108" lon="1.75065">
        <ele>1948.006</ele>
        <time>2021-03-23T10:44:53Z</time>
      </trkpt>
      <trkpt lat="42.82109" lon="1.75066">
        <ele>1948.958</ele>
        <time>2021-03-23T10:44:56Z</time>
      </trkpt>
      <trkpt lat="42.8211" lon="1.75066">
        <ele>1948.889</ele>
        <time>2021-03-23T10:44:58Z</time>
      </trkpt>
      <trkpt lat="42.8211" lon="1.75067">
        <ele>1948.676</ele>
        <time>2021-03-23T10:45:00Z</time>
      </trkpt>
      <trkpt lat="42.82111" lon="1.75067">
        <ele>1949.631</ele>
        <time>2021-03-23T10:45:02Z</time>
      </trkpt>
      <trkpt lat="42.82112" lon="1.75068">
        <ele>1949.816</ele>
        <time>2021-03-23T10:45:04Z</time>
      </trkpt>
      <trkpt lat="42.82112" lon="1.75068">
        <ele>1949.21</ele>
        <time>2021-03-23T10:45:06Z</time>
      </trkpt>
      <trkpt lat="42.82113" lon="1.75069">
        <ele>1949.503</ele>
        <time>2021-03-23T10:45:08Z</time>
      </trkpt>
      <trkpt lat="42.82114" lon="1.7507">
        <ele>1949.538</ele>
        <time>2021-03-23T10:45:10Z</time>
      </trkpt>
      <trkpt lat="42.82114" lon="1.7507">
        <ele>1950.482</ele>
        <time>2021-03-23T10:45:12Z</time>
      </trkpt>
      <trkpt lat="42.82114" lon="1.7507">
        <ele>1950.5</ele>
        <time>2021-03-23T10:45:14Z</time>
      </trkpt>
      <trkpt lat="42.82115" lon="1.75069">
        <ele>1950.755</ele>
        <time>2021-03-23T10:45:16Z</time>
      </trkpt>
      <trkpt lat="42.82116" lon="1.7507">
        <ele>1950.888</ele>
        <time>2021-03-23T10:45:18Z</time>
      </trkpt>
      <trkpt lat="42.82117" lon="1.7507">
        <ele>1952.372</ele>
        <time>2021-03-23T10:45:20Z</time>
      </trkpt>
      <trkpt lat="42.82118" lon="1.75071">
        <ele>1951.919</ele>
        <time>2021-03-23T10:45:22Z</time>
      </trkpt>
      <trkpt lat="42.82119" lon="1.75071">
        <ele>1953.471</ele>
        <time>2021-03-23T10:45:24Z</time>
      </trkpt>
      <trkpt lat="42.8212" lon="1.75071">
        <ele>1953.163</ele>
        <time>2021-03-23T10:45:26Z</time>
      </trkpt>
      <trkpt lat="42.82121" lon="1.75072">
        <ele>1953.007</ele>
        <time>2021-03-23T10:45:28Z</time>
      </trkpt>
      <trkpt lat="42.82121" lon="1.75073">
        <ele>1952.634</ele>
        <time>2021-03-23T10:45:30Z</time>
      </trkpt>
      <trkpt lat="42.82122" lon="1.75073">
        <ele>1953.873</ele>
        <time>2021-03-23T10:45:32Z</time>
      </trkpt>
      <trkpt lat="42.82123" lon="1.75073">
        <ele>1954.608</ele>
        <time>2021-03-23T10:45:34Z</time>
      </trkpt>
      <trkpt lat="42.82123" lon="1.75073">
        <ele>1954.683</ele>
        <time>2021-03-23T10:45:36Z</time>
      </trkpt>
      <trkpt lat="42.82124" lon="1.75073">
        <ele>1954.645</ele>
        <time>2021-03-23T10:45:38Z</time>
      </trkpt>
      <trkpt lat="42.82125" lon="1.75074">
        <ele>1954.206</ele>
        <time>2021-03-23T10:45:40Z</time>
      </trkpt>
      <trkpt lat="42.82126" lon="1.75074">
        <ele>1955.455</ele>
        <time>2021-03-23T10:45:42Z</time>
      </trkpt>
      <trkpt lat="42.82127" lon="1.75075">
        <ele>1955.88</ele>
        <time>2021-03-23T10:45:45Z</time>
      </trkpt>
      <trkpt lat="42.82128" lon="1.75075">
        <ele>1956.196</ele>
        <time>2021-03-23T10:45:47Z</time>
      </trkpt>
      <trkpt lat="42.82129" lon="1.75076">
        <ele>1956.381</ele>
        <time>2021-03-23T10:45:50Z</time>
      </trkpt>
      <trkpt lat="42.82129" lon="1.75076">
        <ele>1956.388</ele>
        <time>2021-03-23T10:45:52Z</time>
      </trkpt>
      <trkpt lat="42.8213" lon="1.75076">
        <ele>1956.658</ele>
        <time>2021-03-23T10:45:54Z</time>
      </trkpt>
      <trkpt lat="42.8213" lon="1.75076">
        <ele>1956.964</ele>
        <time>2021-03-23T10:45:56Z</time>
      </trkpt>
      <trkpt lat="42.82131" lon="1.75076">
        <ele>1955.954</ele>
        <time>2021-03-23T10:45:58Z</time>
      </trkpt>
      <trkpt lat="42.82132" lon="1.75077">
        <ele>1956.517</ele>
        <time>2021-03-23T10:46:00Z</time>
      </trkpt>
      <trkpt lat="42.82132" lon="1.75077">
        <ele>1956.525</ele>
        <time>2021-03-23T10:46:02Z</time>
      </trkpt>
      <trkpt lat="42.82132" lon="1.75077">
        <ele>1956.433</ele>
        <time>2021-03-23T10:46:04Z</time>
      </trkpt>
      <trkpt lat="42.82133" lon="1.75077">
        <ele>1956.308</ele>
        <time>2021-03-23T10:46:06Z</time>
      </trkpt>
      <trkpt lat="42.82134" lon="1.75077">
        <ele>1955.258</ele>
        <time>2021-03-23T10:46:08Z</time>
      </trkpt>
      <trkpt lat="42.82135" lon="1.75077">
        <ele>1953.94</ele>
        <time>2021-03-23T10:46:10Z</time>
      </trkpt>
      <trkpt lat="42.82135" lon="1.75077">
        <ele>1954.049</ele>
        <time>2021-03-23T10:46:12Z</time>
      </trkpt>
      <trkpt lat="42.82136" lon="1.75078">
        <ele>1954.212</ele>
        <time>2021-03-23T10:46:14Z</time>
      </trkpt>
      <trkpt lat="42.82136" lon="1.75078">
        <ele>1955.149</ele>
        <time>2021-03-23T10:46:16Z</time>
      </trkpt>
      <trkpt lat="42.82137" lon="1.75078">
        <ele>1954.776</ele>
        <time>2021-03-23T10:46:18Z</time>
      </trkpt>
      <trkpt lat="42.82137" lon="1.75078">
        <ele>1954.874</ele>
        <time>2021-03-23T10:46:20Z</time>
      </trkpt>
      <trkpt lat="42.82138" lon="1.75078">
        <ele>1955.222</ele>
        <time>2021-03-23T10:46:22Z</time>
      </trkpt>
      <trkpt lat="42.82138" lon="1.75079">
        <ele>1955.775</ele>
        <time>2021-03-23T10:46:24Z</time>
      </trkpt>
      <trkpt lat="42.82138" lon="1.75079">
        <ele>1955.515</ele>
        <time>2021-03-23T10:46:26Z</time>
      </trkpt>
      <trkpt lat="42.82138" lon="1.75079">
        <ele>1955.699</ele>
        <time>2021-03-23T10:46:28Z</time>
      </trkpt>
      <trkpt lat="42.82138" lon="1.75079">
        <ele>1955.699</ele>
        <time>2021-03-23T10:46:30Z</time>
      </trkpt>
      <trkpt lat="42.82138" lon="1.75079">
        <ele>1955.71</ele>
        <time>2021-03-23T10:46:32Z</time>
      </trkpt>
      <trkpt lat="42.82138" lon="1.75079">
        <ele>1955.699</ele>
        <time>2021-03-23T10:46:34Z</time>
      </trkpt>
      <trkpt lat="42.82138" lon="1.75079">
        <ele>1955.217</ele>
        <time>2021-03-23T10:46:36Z</time>
      </trkpt>
      <trkpt lat="42.82139" lon="1.7508">
        <ele>1955.912</ele>
        <time>2021-03-23T10:46:38Z</time>
      </trkpt>
      <trkpt lat="42.82139" lon="1.75079">
        <ele>1955.159</ele>
        <time>2021-03-23T10:46:40Z</time>
      </trkpt>
      <trkpt lat="42.82139" lon="1.7508">
        <ele>1955.009</ele>
        <time>2021-03-23T10:46:42Z</time>
      </trkpt>
      <trkpt lat="42.8214" lon="1.75081">
        <ele>1957.239</ele>
        <time>2021-03-23T10:46:44Z</time>
      </trkpt>
      <trkpt lat="42.82141" lon="1.75082">
        <ele>1959.206</ele>
        <time>2021-03-23T10:46:46Z</time>
      </trkpt>
      <trkpt lat="42.82141" lon="1.75082">
        <ele>1959.248</ele>
        <time>2021-03-23T10:46:49Z</time>
      </trkpt>
      <trkpt lat="42.82141" lon="1.75082">
        <ele>1959.356</ele>
        <time>2021-03-23T10:46:51Z</time>
      </trkpt>
      <trkpt lat="42.82141" lon="1.75082">
        <ele>1959.392</ele>
        <time>2021-03-23T10:46:53Z</time>
      </trkpt>
      <trkpt lat="42.82141" lon="1.75082">
        <ele>1959.59</ele>
        <time>2021-03-23T10:46:55Z</time>
      </trkpt>
      <trkpt lat="42.82141" lon="1.75082">
        <ele>1959.515</ele>
        <time>2021-03-23T10:46:57Z</time>
      </trkpt>
      <trkpt lat="42.82141" lon="1.75082">
        <ele>1959.868</ele>
        <time>2021-03-23T10:46:59Z</time>
      </trkpt>
      <trkpt lat="42.82141" lon="1.75082">
        <ele>1961.62</ele>
        <time>2021-03-23T10:47:01Z</time>
      </trkpt>
      <trkpt lat="42.82142" lon="1.75082">
        <ele>1962.479</ele>
        <time>2021-03-23T10:47:03Z</time>
      </trkpt>
      <trkpt lat="42.82143" lon="1.75082">
        <ele>1962.282</ele>
        <time>2021-03-23T10:47:05Z</time>
      </trkpt>
      <trkpt lat="42.82144" lon="1.75083">
        <ele>1962.265</ele>
        <time>2021-03-23T10:47:07Z</time>
      </trkpt>
      <trkpt lat="42.82145" lon="1.75083">
        <ele>1961.73</ele>
        <time>2021-03-23T10:47:09Z</time>
      </trkpt>
      <trkpt lat="42.82145" lon="1.75084">
        <ele>1962.565</ele>
        <time>2021-03-23T10:47:11Z</time>
      </trkpt>
      <trkpt lat="42.82145" lon="1.75084">
        <ele>1962.535</ele>
        <time>2021-03-23T10:47:13Z</time>
      </trkpt>
      <trkpt lat="42.82147" lon="1.75084">
        <ele>1962.666</ele>
        <time>2021-03-23T10:47:15Z</time>
      </trkpt>
      <trkpt lat="42.82148" lon="1.75085">
        <ele>1963.076</ele>
        <time>2021-03-23T10:47:17Z</time>
      </trkpt>
      <trkpt lat="42.82149" lon="1.75085">
        <ele>1963.678</ele>
        <time>2021-03-23T10:47:19Z</time>
      </trkpt>
      <trkpt lat="42.8215" lon="1.75086">
        <ele>1963.868</ele>
        <time>2021-03-23T10:47:21Z</time>
      </trkpt>
      <trkpt lat="42.82151" lon="1.75086">
        <ele>1964.6</ele>
        <time>2021-03-23T10:47:23Z</time>
      </trkpt>
      <trkpt lat="42.82151" lon="1.75087">
        <ele>1964.213</ele>
        <time>2021-03-23T10:47:25Z</time>
      </trkpt>
      <trkpt lat="42.82152" lon="1.75087">
        <ele>1963.969</ele>
        <time>2021-03-23T10:47:27Z</time>
      </trkpt>
      <trkpt lat="42.82153" lon="1.75088">
        <ele>1963.702</ele>
        <time>2021-03-23T10:47:29Z</time>
      </trkpt>
      <trkpt lat="42.82154" lon="1.75088">
        <ele>1963.934</ele>
        <time>2021-03-23T10:47:31Z</time>
      </trkpt>
      <trkpt lat="42.82154" lon="1.75088">
        <ele>1964.408</ele>
        <time>2021-03-23T10:47:33Z</time>
      </trkpt>
      <trkpt lat="42.82154" lon="1.75087">
        <ele>1964.426</ele>
        <time>2021-03-23T10:47:35Z</time>
      </trkpt>
      <trkpt lat="42.82155" lon="1.75088">
        <ele>1964.346</ele>
        <time>2021-03-23T10:47:37Z</time>
      </trkpt>
      <trkpt lat="42.82156" lon="1.75088">
        <ele>1965.136</ele>
        <time>2021-03-23T10:47:39Z</time>
      </trkpt>
      <trkpt lat="42.82157" lon="1.75089">
        <ele>1964.199</ele>
        <time>2021-03-23T10:47:41Z</time>
      </trkpt>
      <trkpt lat="42.82157" lon="1.75089">
        <ele>1964.52</ele>
        <time>2021-03-23T10:47:43Z</time>
      </trkpt>
      <trkpt lat="42.82158" lon="1.75089">
        <ele>1965.631</ele>
        <time>2021-03-23T10:47:45Z</time>
      </trkpt>
      <trkpt lat="42.82159" lon="1.7509">
        <ele>1966.26</ele>
        <time>2021-03-23T10:47:47Z</time>
      </trkpt>
      <trkpt lat="42.8216" lon="1.7509">
        <ele>1967.164</ele>
        <time>2021-03-23T10:47:49Z</time>
      </trkpt>
      <trkpt lat="42.8216" lon="1.7509">
        <ele>1968.187</ele>
        <time>2021-03-23T10:47:51Z</time>
      </trkpt>
      <trkpt lat="42.8216" lon="1.7509">
        <ele>1967.648</ele>
        <time>2021-03-23T10:47:53Z</time>
      </trkpt>
      <trkpt lat="42.82161" lon="1.7509">
        <ele>1967.615</ele>
        <time>2021-03-23T10:47:55Z</time>
      </trkpt>
      <trkpt lat="42.82161" lon="1.7509">
        <ele>1967.665</ele>
        <time>2021-03-23T10:47:57Z</time>
      </trkpt>
      <trkpt lat="42.82161" lon="1.7509">
        <ele>1968.288</ele>
        <time>2021-03-23T10:47:59Z</time>
      </trkpt>
      <trkpt lat="42.82162" lon="1.7509">
        <ele>1968.379</ele>
        <time>2021-03-23T10:48:01Z</time>
      </trkpt>
      <trkpt lat="42.82164" lon="1.75091">
        <ele>1968.47</ele>
        <time>2021-03-23T10:48:04Z</time>
      </trkpt>
      <trkpt lat="42.82164" lon="1.75092">
        <ele>1968.722</ele>
        <time>2021-03-23T10:48:06Z</time>
      </trkpt>
      <trkpt lat="42.82165" lon="1.75092">
        <ele>1968.932</ele>
        <time>2021-03-23T10:48:08Z</time>
      </trkpt>
      <trkpt lat="42.82166" lon="1.75092">
        <ele>1969.318</ele>
        <time>2021-03-23T10:48:10Z</time>
      </trkpt>
      <trkpt lat="42.82167" lon="1.75093">
        <ele>1969.651</ele>
        <time>2021-03-23T10:48:12Z</time>
      </trkpt>
      <trkpt lat="42.82167" lon="1.75093">
        <ele>1970.292</ele>
        <time>2021-03-23T10:48:14Z</time>
      </trkpt>
      <trkpt lat="42.82168" lon="1.75093">
        <ele>1970.762</ele>
        <time>2021-03-23T10:48:16Z</time>
      </trkpt>
      <trkpt lat="42.82168" lon="1.75094">
        <ele>1971.025</ele>
        <time>2021-03-23T10:48:18Z</time>
      </trkpt>
      <trkpt lat="42.82168" lon="1.75095">
        <ele>1971.583</ele>
        <time>2021-03-23T10:48:20Z</time>
      </trkpt>
      <trkpt lat="42.82169" lon="1.75095">
        <ele>1972.657</ele>
        <time>2021-03-23T10:48:22Z</time>
      </trkpt>
      <trkpt lat="42.82169" lon="1.75096">
        <ele>1973.2</ele>
        <time>2021-03-23T10:48:24Z</time>
      </trkpt>
      <trkpt lat="42.8217" lon="1.75096">
        <ele>1974.297</ele>
        <time>2021-03-23T10:48:26Z</time>
      </trkpt>
      <trkpt lat="42.8217" lon="1.75096">
        <ele>1974.335</ele>
        <time>2021-03-23T10:48:28Z</time>
      </trkpt>
      <trkpt lat="42.82171" lon="1.75097">
        <ele>1975.098</ele>
        <time>2021-03-23T10:48:30Z</time>
      </trkpt>
      <trkpt lat="42.8217" lon="1.75097">
        <ele>1974.051</ele>
        <time>2021-03-23T10:48:32Z</time>
      </trkpt>
      <trkpt lat="42.8217" lon="1.75097">
        <ele>1974.129</ele>
        <time>2021-03-23T10:48:34Z</time>
      </trkpt>
      <trkpt lat="42.8217" lon="1.75097">
        <ele>1974.576</ele>
        <time>2021-03-23T10:48:35Z</time>
      </trkpt>
      <trkpt lat="42.82171" lon="1.75098">
        <ele>1974.911</ele>
        <time>2021-03-23T10:48:38Z</time>
      </trkpt>
      <trkpt lat="42.82171" lon="1.75098">
        <ele>1974.413</ele>
        <time>2021-03-23T10:48:40Z</time>
      </trkpt>
      <trkpt lat="42.82171" lon="1.75098">
        <ele>1974.662</ele>
        <time>2021-03-23T10:48:42Z</time>
      </trkpt>
      <trkpt lat="42.8217" lon="1.75099">
        <ele>1974.461</ele>
        <time>2021-03-23T10:48:44Z</time>
      </trkpt>
      <trkpt lat="42.82171" lon="1.75099">
        <ele>1974.714</ele>
        <time>2021-03-23T10:48:46Z</time>
      </trkpt>
      <trkpt lat="42.82171" lon="1.75099">
        <ele>1974.678</ele>
        <time>2021-03-23T10:48:48Z</time>
      </trkpt>
      <trkpt lat="42.82171" lon="1.75099">
        <ele>1975.338</ele>
        <time>2021-03-23T10:48:50Z</time>
      </trkpt>
      <trkpt lat="42.82173" lon="1.75099">
        <ele>1976.009</ele>
        <time>2021-03-23T10:48:52Z</time>
      </trkpt>
      <trkpt lat="42.82174" lon="1.751">
        <ele>1976.34</ele>
        <time>2021-03-23T10:48:54Z</time>
      </trkpt>
      <trkpt lat="42.82175" lon="1.75101">
        <ele>1976.816</ele>
        <time>2021-03-23T10:48:56Z</time>
      </trkpt>
      <trkpt lat="42.82176" lon="1.75101">
        <ele>1977.747</ele>
        <time>2021-03-23T10:48:58Z</time>
      </trkpt>
      <trkpt lat="42.82176" lon="1.75102">
        <ele>1978.695</ele>
        <time>2021-03-23T10:49:00Z</time>
      </trkpt>
      <trkpt lat="42.82177" lon="1.75103">
        <ele>1979.111</ele>
        <time>2021-03-23T10:49:02Z</time>
      </trkpt>
      <trkpt lat="42.82178" lon="1.75103">
        <ele>1980.556</ele>
        <time>2021-03-23T10:49:04Z</time>
      </trkpt>
      <trkpt lat="42.82178" lon="1.75104">
        <ele>1980.228</ele>
        <time>2021-03-23T10:49:07Z</time>
      </trkpt>
      <trkpt lat="42.82179" lon="1.75104">
        <ele>1979.867</ele>
        <time>2021-03-23T10:49:09Z</time>
      </trkpt>
      <trkpt lat="42.82179" lon="1.75105">
        <ele>1980.881</ele>
        <time>2021-03-23T10:49:11Z</time>
      </trkpt>
      <trkpt lat="42.8218" lon="1.75106">
        <ele>1981.087</ele>
        <time>2021-03-23T10:49:13Z</time>
      </trkpt>
      <trkpt lat="42.8218" lon="1.75107">
        <ele>1980.815</ele>
        <time>2021-03-23T10:49:15Z</time>
      </trkpt>
      <trkpt lat="42.82181" lon="1.75108">
        <ele>1981.172</ele>
        <time>2021-03-23T10:49:17Z</time>
      </trkpt>
      <trkpt lat="42.82182" lon="1.75109">
        <ele>1981.895</ele>
        <time>2021-03-23T10:49:19Z</time>
      </trkpt>
      <trkpt lat="42.82183" lon="1.75109">
        <ele>1982.115</ele>
        <time>2021-03-23T10:49:21Z</time>
      </trkpt>
      <trkpt lat="42.82184" lon="1.7511">
        <ele>1982.568</ele>
        <time>2021-03-23T10:49:23Z</time>
      </trkpt>
      <trkpt lat="42.82184" lon="1.75111">
        <ele>1982.969</ele>
        <time>2021-03-23T10:49:25Z</time>
      </trkpt>
      <trkpt lat="42.82185" lon="1.75111">
        <ele>1983.908</ele>
        <time>2021-03-23T10:49:27Z</time>
      </trkpt>
      <trkpt lat="42.82186" lon="1.75112">
        <ele>1983.798</ele>
        <time>2021-03-23T10:49:29Z</time>
      </trkpt>
      <trkpt lat="42.82187" lon="1.75113">
        <ele>1983.594</ele>
        <time>2021-03-23T10:49:31Z</time>
      </trkpt>
      <trkpt lat="42.82188" lon="1.75114">
        <ele>1984.062</ele>
        <time>2021-03-23T10:49:33Z</time>
      </trkpt>
      <trkpt lat="42.82188" lon="1.75114">
        <ele>1984.009</ele>
        <time>2021-03-23T10:49:35Z</time>
      </trkpt>
      <trkpt lat="42.82188" lon="1.75114">
        <ele>1983.182</ele>
        <time>2021-03-23T10:49:37Z</time>
      </trkpt>
      <trkpt lat="42.82189" lon="1.75115">
        <ele>1983.527</ele>
        <time>2021-03-23T10:49:39Z</time>
      </trkpt>
      <trkpt lat="42.82189" lon="1.75115">
        <ele>1983.013</ele>
        <time>2021-03-23T10:49:41Z</time>
      </trkpt>
      <trkpt lat="42.8219" lon="1.75115">
        <ele>1982.726</ele>
        <time>2021-03-23T10:49:43Z</time>
      </trkpt>
      <trkpt lat="42.82191" lon="1.75116">
        <ele>1982.686</ele>
        <time>2021-03-23T10:49:45Z</time>
      </trkpt>
      <trkpt lat="42.82191" lon="1.75117">
        <ele>1983.32</ele>
        <time>2021-03-23T10:49:47Z</time>
      </trkpt>
      <trkpt lat="42.82192" lon="1.75118">
        <ele>1983.227</ele>
        <time>2021-03-23T10:49:49Z</time>
      </trkpt>
      <trkpt lat="42.82192" lon="1.75118">
        <ele>1982.77</ele>
        <time>2021-03-23T10:49:51Z</time>
      </trkpt>
      <trkpt lat="42.82193" lon="1.75118">
        <ele>1982.548</ele>
        <time>2021-03-23T10:49:53Z</time>
      </trkpt>
      <trkpt lat="42.82193" lon="1.75119">
        <ele>1982.636</ele>
        <time>2021-03-23T10:49:55Z</time>
      </trkpt>
      <trkpt lat="42.82194" lon="1.7512">
        <ele>1982.763</ele>
        <time>2021-03-23T10:49:57Z</time>
      </trkpt>
      <trkpt lat="42.82195" lon="1.7512">
        <ele>1982.917</ele>
        <time>2021-03-23T10:49:59Z</time>
      </trkpt>
      <trkpt lat="42.82195" lon="1.75121">
        <ele>1982.759</ele>
        <time>2021-03-23T10:50:01Z</time>
      </trkpt>
      <trkpt lat="42.82195" lon="1.75121">
        <ele>1982.77</ele>
        <time>2021-03-23T10:50:03Z</time>
      </trkpt>
      <trkpt lat="42.82195" lon="1.75121">
        <ele>1982.771</ele>
        <time>2021-03-23T10:50:05Z</time>
      </trkpt>
      <trkpt lat="42.82195" lon="1.75121">
        <ele>1982.35</ele>
        <time>2021-03-23T10:50:07Z</time>
      </trkpt>
      <trkpt lat="42.82195" lon="1.75122">
        <ele>1982.293</ele>
        <time>2021-03-23T10:50:09Z</time>
      </trkpt>
      <trkpt lat="42.82196" lon="1.75123">
        <ele>1981.771</ele>
        <time>2021-03-23T10:50:11Z</time>
      </trkpt>
      <trkpt lat="42.82196" lon="1.75123">
        <ele>1982.076</ele>
        <time>2021-03-23T10:50:13Z</time>
      </trkpt>
      <trkpt lat="42.82197" lon="1.75124">
        <ele>1981.636</ele>
        <time>2021-03-23T10:50:15Z</time>
      </trkpt>
      <trkpt lat="42.82197" lon="1.75124">
        <ele>1981.484</ele>
        <time>2021-03-23T10:50:17Z</time>
      </trkpt>
      <trkpt lat="42.82198" lon="1.75125">
        <ele>1979.983</ele>
        <time>2021-03-23T10:50:19Z</time>
      </trkpt>
      <trkpt lat="42.82199" lon="1.75126">
        <ele>1979.94</ele>
        <time>2021-03-23T10:50:21Z</time>
      </trkpt>
      <trkpt lat="42.822" lon="1.75127">
        <ele>1979.757</ele>
        <time>2021-03-23T10:50:24Z</time>
      </trkpt>
      <trkpt lat="42.82201" lon="1.75128">
        <ele>1979.833</ele>
        <time>2021-03-23T10:50:26Z</time>
      </trkpt>
      <trkpt lat="42.82201" lon="1.75128">
        <ele>1980.018</ele>
        <time>2021-03-23T10:50:28Z</time>
      </trkpt>
      <trkpt lat="42.82202" lon="1.75129">
        <ele>1980.632</ele>
        <time>2021-03-23T10:50:30Z</time>
      </trkpt>
      <trkpt lat="42.82202" lon="1.75129">
        <ele>1980.637</ele>
        <time>2021-03-23T10:50:32Z</time>
      </trkpt>
      <trkpt lat="42.82203" lon="1.75129">
        <ele>1980.492</ele>
        <time>2021-03-23T10:50:34Z</time>
      </trkpt>
      <trkpt lat="42.82203" lon="1.7513">
        <ele>1980.609</ele>
        <time>2021-03-23T10:50:36Z</time>
      </trkpt>
      <trkpt lat="42.82204" lon="1.75131">
        <ele>1980.341</ele>
        <time>2021-03-23T10:50:38Z</time>
      </trkpt>
      <trkpt lat="42.82203" lon="1.75131">
        <ele>1980.023</ele>
        <time>2021-03-23T10:50:40Z</time>
      </trkpt>
      <trkpt lat="42.82203" lon="1.75132">
        <ele>1980.085</ele>
        <time>2021-03-23T10:50:42Z</time>
      </trkpt>
      <trkpt lat="42.82203" lon="1.75132">
        <ele>1980.092</ele>
        <time>2021-03-23T10:50:44Z</time>
      </trkpt>
      <trkpt lat="42.82204" lon="1.75132">
        <ele>1980.094</ele>
        <time>2021-03-23T10:50:46Z</time>
      </trkpt>
      <trkpt lat="42.82204" lon="1.75132">
        <ele>1980.334</ele>
        <time>2021-03-23T10:50:48Z</time>
      </trkpt>
      <trkpt lat="42.82205" lon="1.75133">
        <ele>1980.83</ele>
        <time>2021-03-23T10:50:50Z</time>
      </trkpt>
      <trkpt lat="42.82205" lon="1.75134">
        <ele>1981.289</ele>
        <time>2021-03-23T10:50:52Z</time>
      </trkpt>
      <trkpt lat="42.82206" lon="1.75134">
        <ele>1980.827</ele>
        <time>2021-03-23T10:50:54Z</time>
      </trkpt>
      <trkpt lat="42.82205" lon="1.75134">
        <ele>1981.007</ele>
        <time>2021-03-23T10:50:56Z</time>
      </trkpt>
      <trkpt lat="42.82205" lon="1.75134">
        <ele>1981.013</ele>
        <time>2021-03-23T10:50:58Z</time>
      </trkpt>
      <trkpt lat="42.82206" lon="1.75134">
        <ele>1981.237</ele>
        <time>2021-03-23T10:51:00Z</time>
      </trkpt>
      <trkpt lat="42.82206" lon="1.75134">
        <ele>1981.222</ele>
        <time>2021-03-23T10:51:02Z</time>
      </trkpt>
      <trkpt lat="42.82207" lon="1.75135">
        <ele>1980.532</ele>
        <time>2021-03-23T10:51:04Z</time>
      </trkpt>
      <trkpt lat="42.82207" lon="1.75136">
        <ele>1980.625</ele>
        <time>2021-03-23T10:51:06Z</time>
      </trkpt>
      <trkpt lat="42.82208" lon="1.75137">
        <ele>1981.343</ele>
        <time>2021-03-23T10:51:08Z</time>
      </trkpt>
      <trkpt lat="42.82209" lon="1.75137">
        <ele>1981.394</ele>
        <time>2021-03-23T10:51:10Z</time>
      </trkpt>
      <trkpt lat="42.8221" lon="1.75138">
        <ele>1981.077</ele>
        <time>2021-03-23T10:51:12Z</time>
      </trkpt>
      <trkpt lat="42.82211" lon="1.75139">
        <ele>1981.299</ele>
        <time>2021-03-23T10:51:14Z</time>
      </trkpt>
      <trkpt lat="42.82212" lon="1.7514">
        <ele>1982.004</ele>
        <time>2021-03-23T10:51:16Z</time>
      </trkpt>
      <trkpt lat="42.82213" lon="1.7514">
        <ele>1983.459</ele>
        <time>2021-03-23T10:51:18Z</time>
      </trkpt>
      <trkpt lat="42.82213" lon="1.75141">
        <ele>1983.586</ele>
        <time>2021-03-23T10:51:20Z</time>
      </trkpt>
      <trkpt lat="42.82214" lon="1.75141">
        <ele>1984.238</ele>
        <time>2021-03-23T10:51:22Z</time>
      </trkpt>
      <trkpt lat="42.82214" lon="1.75142">
        <ele>1984.107</ele>
        <time>2021-03-23T10:51:24Z</time>
      </trkpt>
      <trkpt lat="42.82215" lon="1.75142">
        <ele>1983.992</ele>
        <time>2021-03-23T10:51:26Z</time>
      </trkpt>
      <trkpt lat="42.82215" lon="1.75142">
        <ele>1983.999</ele>
        <time>2021-03-23T10:51:28Z</time>
      </trkpt>
      <trkpt lat="42.82215" lon="1.75142">
        <ele>1983.994</ele>
        <time>2021-03-23T10:51:30Z</time>
      </trkpt>
      <trkpt lat="42.82215" lon="1.75142">
        <ele>1984.004</ele>
        <time>2021-03-23T10:51:32Z</time>
      </trkpt>
      <trkpt lat="42.82215" lon="1.75142">
        <ele>1984.011</ele>
        <time>2021-03-23T10:51:34Z</time>
      </trkpt>
      <trkpt lat="42.82215" lon="1.75142">
        <ele>1984.011</ele>
        <time>2021-03-23T10:51:36Z</time>
      </trkpt>
      <trkpt lat="42.82215" lon="1.75142">
        <ele>1984.012</ele>
        <time>2021-03-23T10:51:38Z</time>
      </trkpt>
      <trkpt lat="42.82215" lon="1.75142">
        <ele>1984.013</ele>
        <time>2021-03-23T10:51:40Z</time>
      </trkpt>
      <trkpt lat="42.82215" lon="1.75142">
        <ele>1984.017</ele>
        <time>2021-03-23T10:51:42Z</time>
      </trkpt>
      <trkpt lat="42.82215" lon="1.75142">
        <ele>1984.02</ele>
        <time>2021-03-23T10:51:44Z</time>
      </trkpt>
      <trkpt lat="42.82215" lon="1.75142">
        <ele>1984.023</ele>
        <time>2021-03-23T10:51:46Z</time>
      </trkpt>
      <trkpt lat="42.82215" lon="1.75142">
        <ele>1984.025</ele>
        <time>2021-03-23T10:51:48Z</time>
      </trkpt>
      <trkpt lat="42.82215" lon="1.75142">
        <ele>1984.019</ele>
        <time>2021-03-23T10:51:50Z</time>
      </trkpt>
      <trkpt lat="42.82216" lon="1.75143">
        <ele>1983.772</ele>
        <time>2021-03-23T10:51:52Z</time>
      </trkpt>
      <trkpt lat="42.82216" lon="1.75144">
        <ele>1983.904</ele>
        <time>2021-03-23T10:51:54Z</time>
      </trkpt>
      <trkpt lat="42.82217" lon="1.75145">
        <ele>1983.971</ele>
        <time>2021-03-23T10:51:56Z</time>
      </trkpt>
      <trkpt lat="42.82218" lon="1.75146">
        <ele>1983.917</ele>
        <time>2021-03-23T10:51:58Z</time>
      </trkpt>
      <trkpt lat="42.82218" lon="1.75146">
        <ele>1984.829</ele>
        <time>2021-03-23T10:52:00Z</time>
      </trkpt>
      <trkpt lat="42.82218" lon="1.75147">
        <ele>1985.071</ele>
        <time>2021-03-23T10:52:02Z</time>
      </trkpt>
      <trkpt lat="42.82219" lon="1.75148">
        <ele>1985.225</ele>
        <time>2021-03-23T10:52:04Z</time>
      </trkpt>
      <trkpt lat="42.82219" lon="1.75149">
        <ele>1985.725</ele>
        <time>2021-03-23T10:52:06Z</time>
      </trkpt>
      <trkpt lat="42.82219" lon="1.75149">
        <ele>1986.503</ele>
        <time>2021-03-23T10:52:08Z</time>
      </trkpt>
      <trkpt lat="42.8222" lon="1.7515">
        <ele>1986.269</ele>
        <time>2021-03-23T10:52:10Z</time>
      </trkpt>
      <trkpt lat="42.8222" lon="1.7515">
        <ele>1986.065</ele>
        <time>2021-03-23T10:52:12Z</time>
      </trkpt>
      <trkpt lat="42.8222" lon="1.75151">
        <ele>1986.864</ele>
        <time>2021-03-23T10:52:14Z</time>
      </trkpt>
      <trkpt lat="42.8222" lon="1.75151">
        <ele>1987.398</ele>
        <time>2021-03-23T10:52:16Z</time>
      </trkpt>
      <trkpt lat="42.82221" lon="1.75152">
        <ele>1987.125</ele>
        <time>2021-03-23T10:52:18Z</time>
      </trkpt>
      <trkpt lat="42.82221" lon="1.75153">
        <ele>1988.203</ele>
        <time>2021-03-23T10:52:20Z</time>
      </trkpt>
      <trkpt lat="42.82221" lon="1.75154">
        <ele>1988.577</ele>
        <time>2021-03-23T10:52:22Z</time>
      </trkpt>
      <trkpt lat="42.82221" lon="1.75155">
        <ele>1989.253</ele>
        <time>2021-03-23T10:52:24Z</time>
      </trkpt>
      <trkpt lat="42.82222" lon="1.75155">
        <ele>1990.08</ele>
        <time>2021-03-23T10:52:26Z</time>
      </trkpt>
      <trkpt lat="42.82222" lon="1.75155">
        <ele>1989.633</ele>
        <time>2021-03-23T10:52:28Z</time>
      </trkpt>
      <trkpt lat="42.82223" lon="1.75155">
        <ele>1990.394</ele>
        <time>2021-03-23T10:52:30Z</time>
      </trkpt>
      <trkpt lat="42.82224" lon="1.75156">
        <ele>1989.944</ele>
        <time>2021-03-23T10:52:32Z</time>
      </trkpt>
      <trkpt lat="42.82224" lon="1.75157">
        <ele>1989.977</ele>
        <time>2021-03-23T10:52:34Z</time>
      </trkpt>
      <trkpt lat="42.82224" lon="1.75157">
        <ele>1990.311</ele>
        <time>2021-03-23T10:52:36Z</time>
      </trkpt>
      <trkpt lat="42.82225" lon="1.75158">
        <ele>1990.133</ele>
        <time>2021-03-23T10:52:38Z</time>
      </trkpt>
      <trkpt lat="42.82225" lon="1.75158">
        <ele>1990.11</ele>
        <time>2021-03-23T10:52:40Z</time>
      </trkpt>
      <trkpt lat="42.82225" lon="1.75158">
        <ele>1990.469</ele>
        <time>2021-03-23T10:52:42Z</time>
      </trkpt>
      <trkpt lat="42.82226" lon="1.75159">
        <ele>1990.707</ele>
        <time>2021-03-23T10:52:44Z</time>
      </trkpt>
      <trkpt lat="42.82226" lon="1.7516">
        <ele>1990.911</ele>
        <time>2021-03-23T10:52:46Z</time>
      </trkpt>
      <trkpt lat="42.82226" lon="1.75161">
        <ele>1990.984</ele>
        <time>2021-03-23T10:52:48Z</time>
      </trkpt>
      <trkpt lat="42.82226" lon="1.75161">
        <ele>1991.991</ele>
        <time>2021-03-23T10:52:50Z</time>
      </trkpt>
      <trkpt lat="42.82226" lon="1.75162">
        <ele>1991.847</ele>
        <time>2021-03-23T10:52:52Z</time>
      </trkpt>
      <trkpt lat="42.82225" lon="1.75163">
        <ele>1992.451</ele>
        <time>2021-03-23T10:52:54Z</time>
      </trkpt>
      <trkpt lat="42.82226" lon="1.75163">
        <ele>1992.439</ele>
        <time>2021-03-23T10:52:56Z</time>
      </trkpt>
      <trkpt lat="42.82226" lon="1.75164">
        <ele>1993.226</ele>
        <time>2021-03-23T10:52:58Z</time>
      </trkpt>
      <trkpt lat="42.82227" lon="1.75165">
        <ele>1992.214</ele>
        <time>2021-03-23T10:53:00Z</time>
      </trkpt>
      <trkpt lat="42.82227" lon="1.75165">
        <ele>1992.334</ele>
        <time>2021-03-23T10:53:02Z</time>
      </trkpt>
      <trkpt lat="42.82227" lon="1.75166">
        <ele>1991.742</ele>
        <time>2021-03-23T10:53:04Z</time>
      </trkpt>
      <trkpt lat="42.82227" lon="1.75167">
        <ele>1991.751</ele>
        <time>2021-03-23T10:53:06Z</time>
      </trkpt>
      <trkpt lat="42.82227" lon="1.75167">
        <ele>1991.762</ele>
        <time>2021-03-23T10:53:08Z</time>
      </trkpt>
      <trkpt lat="42.82228" lon="1.75166">
        <ele>1992.316</ele>
        <time>2021-03-23T10:53:10Z</time>
      </trkpt>
      <trkpt lat="42.82228" lon="1.75167">
        <ele>1992.271</ele>
        <time>2021-03-23T10:53:12Z</time>
      </trkpt>
      <trkpt lat="42.82229" lon="1.75167">
        <ele>1992.864</ele>
        <time>2021-03-23T10:53:14Z</time>
      </trkpt>
      <trkpt lat="42.8223" lon="1.75168">
        <ele>1992.814</ele>
        <time>2021-03-23T10:53:16Z</time>
      </trkpt>
      <trkpt lat="42.82231" lon="1.75168">
        <ele>1994.511</ele>
        <time>2021-03-23T10:53:18Z</time>
      </trkpt>
      <trkpt lat="42.82231" lon="1.75168">
        <ele>1994.493</ele>
        <time>2021-03-23T10:53:20Z</time>
      </trkpt>
      <trkpt lat="42.82231" lon="1.75168">
        <ele>1995.242</ele>
        <time>2021-03-23T10:53:22Z</time>
      </trkpt>
      <trkpt lat="42.82232" lon="1.75169">
        <ele>1994.728</ele>
        <time>2021-03-23T10:53:24Z</time>
      </trkpt>
      <trkpt lat="42.82233" lon="1.75169">
        <ele>1995.255</ele>
        <time>2021-03-23T10:53:26Z</time>
      </trkpt>
      <trkpt lat="42.82234" lon="1.7517">
        <ele>1995.684</ele>
        <time>2021-03-23T10:53:28Z</time>
      </trkpt>
      <trkpt lat="42.82234" lon="1.75171">
        <ele>1996.111</ele>
        <time>2021-03-23T10:53:30Z</time>
      </trkpt>
      <trkpt lat="42.82233" lon="1.75172">
        <ele>1996.95</ele>
        <time>2021-03-23T10:53:32Z</time>
      </trkpt>
      <trkpt lat="42.82233" lon="1.75172">
        <ele>1997.168</ele>
        <time>2021-03-23T10:53:34Z</time>
      </trkpt>
      <trkpt lat="42.82233" lon="1.75172">
        <ele>1997.173</ele>
        <time>2021-03-23T10:53:36Z</time>
      </trkpt>
      <trkpt lat="42.82233" lon="1.75172">
        <ele>1997.544</ele>
        <time>2021-03-23T10:53:38Z</time>
      </trkpt>
      <trkpt lat="42.82232" lon="1.75173">
        <ele>1998.215</ele>
        <time>2021-03-23T10:53:40Z</time>
      </trkpt>
      <trkpt lat="42.82232" lon="1.75173">
        <ele>1998.133</ele>
        <time>2021-03-23T10:53:42Z</time>
      </trkpt>
      <trkpt lat="42.82233" lon="1.75174">
        <ele>1996.825</ele>
        <time>2021-03-23T10:53:44Z</time>
      </trkpt>
      <trkpt lat="42.82233" lon="1.75175">
        <ele>1996.673</ele>
        <time>2021-03-23T10:53:46Z</time>
      </trkpt>
      <trkpt lat="42.82233" lon="1.75175">
        <ele>1996.63</ele>
        <time>2021-03-23T10:53:48Z</time>
      </trkpt>
      <trkpt lat="42.82233" lon="1.75176">
        <ele>1997.439</ele>
        <time>2021-03-23T10:53:50Z</time>
      </trkpt>
      <trkpt lat="42.82233" lon="1.75176">
        <ele>1997.995</ele>
        <time>2021-03-23T10:53:52Z</time>
      </trkpt>
      <trkpt lat="42.82234" lon="1.75177">
        <ele>1997.548</ele>
        <time>2021-03-23T10:53:54Z</time>
      </trkpt>
      <trkpt lat="42.82235" lon="1.75178">
        <ele>1996.909</ele>
        <time>2021-03-23T10:53:56Z</time>
      </trkpt>
      <trkpt lat="42.82235" lon="1.75179">
        <ele>1996.895</ele>
        <time>2021-03-23T10:53:58Z</time>
      </trkpt>
      <trkpt lat="42.82235" lon="1.75179">
        <ele>1997.492</ele>
        <time>2021-03-23T10:54:00Z</time>
      </trkpt>
      <trkpt lat="42.82235" lon="1.75179">
        <ele>1997.737</ele>
        <time>2021-03-23T10:54:02Z</time>
      </trkpt>
      <trkpt lat="42.82235" lon="1.7518">
        <ele>1997.677</ele>
        <time>2021-03-23T10:54:04Z</time>
      </trkpt>
      <trkpt lat="42.82235" lon="1.7518">
        <ele>1998.337</ele>
        <time>2021-03-23T10:54:06Z</time>
      </trkpt>
      <trkpt lat="42.82235" lon="1.7518">
        <ele>1998.511</ele>
        <time>2021-03-23T10:54:08Z</time>
      </trkpt>
      <trkpt lat="42.82235" lon="1.7518">
        <ele>2000.776</ele>
        <time>2021-03-23T10:54:10Z</time>
      </trkpt>
      <trkpt lat="42.82234" lon="1.7518">
        <ele>2001.5</ele>
        <time>2021-03-23T10:54:12Z</time>
      </trkpt>
      <trkpt lat="42.82234" lon="1.75181">
        <ele>2000.868</ele>
        <time>2021-03-23T10:54:14Z</time>
      </trkpt>
      <trkpt lat="42.82234" lon="1.75181">
        <ele>2000.919</ele>
        <time>2021-03-23T10:54:16Z</time>
      </trkpt>
      <trkpt lat="42.82234" lon="1.75182">
        <ele>2000.175</ele>
        <time>2021-03-23T10:54:18Z</time>
      </trkpt>
      <trkpt lat="42.82234" lon="1.75183">
        <ele>2001.461</ele>
        <time>2021-03-23T10:54:20Z</time>
      </trkpt>
      <trkpt lat="42.82233" lon="1.75183">
        <ele>2002.235</ele>
        <time>2021-03-23T10:54:22Z</time>
      </trkpt>
      <trkpt lat="42.82234" lon="1.75184">
        <ele>2002.091</ele>
        <time>2021-03-23T10:54:24Z</time>
      </trkpt>
      <trkpt lat="42.82234" lon="1.75185">
        <ele>2002.646</ele>
        <time>2021-03-23T10:54:26Z</time>
      </trkpt>
      <trkpt lat="42.82234" lon="1.75185">
        <ele>2002.628</ele>
        <time>2021-03-23T10:54:28Z</time>
      </trkpt>
      <trkpt lat="42.82235" lon="1.75185">
        <ele>2003.679</ele>
        <time>2021-03-23T10:54:30Z</time>
      </trkpt>
      <trkpt lat="42.82236" lon="1.75185">
        <ele>2004.435</ele>
        <time>2021-03-23T10:54:32Z</time>
      </trkpt>
      <trkpt lat="42.82237" lon="1.75185">
        <ele>2004.025</ele>
        <time>2021-03-23T10:54:34Z</time>
      </trkpt>
      <trkpt lat="42.82238" lon="1.75185">
        <ele>2004.745</ele>
        <time>2021-03-23T10:54:36Z</time>
      </trkpt>
      <trkpt lat="42.82239" lon="1.75185">
        <ele>2004.872</ele>
        <time>2021-03-23T10:54:38Z</time>
      </trkpt>
      <trkpt lat="42.82239" lon="1.75184">
        <ele>2006.405</ele>
        <time>2021-03-23T10:54:40Z</time>
      </trkpt>
      <trkpt lat="42.8224" lon="1.75184">
        <ele>2006.651</ele>
        <time>2021-03-23T10:54:42Z</time>
      </trkpt>
      <trkpt lat="42.82241" lon="1.75183">
        <ele>2006.821</ele>
        <time>2021-03-23T10:54:44Z</time>
      </trkpt>
      <trkpt lat="42.82242" lon="1.75183">
        <ele>2007.842</ele>
        <time>2021-03-23T10:54:46Z</time>
      </trkpt>
      <trkpt lat="42.82243" lon="1.75183">
        <ele>2008.609</ele>
        <time>2021-03-23T10:54:48Z</time>
      </trkpt>
      <trkpt lat="42.82244" lon="1.75182">
        <ele>2009.653</ele>
        <time>2021-03-23T10:54:50Z</time>
      </trkpt>
      <trkpt lat="42.82245" lon="1.75182">
        <ele>2010.238</ele>
        <time>2021-03-23T10:54:52Z</time>
      </trkpt>
      <trkpt lat="42.82245" lon="1.75181">
        <ele>2011.643</ele>
        <time>2021-03-23T10:54:54Z</time>
      </trkpt>
      <trkpt lat="42.82246" lon="1.7518">
        <ele>2013.069</ele>
        <time>2021-03-23T10:54:56Z</time>
      </trkpt>
      <trkpt lat="42.82247" lon="1.7518">
        <ele>2014.374</ele>
        <time>2021-03-23T10:54:58Z</time>
      </trkpt>
      <trkpt lat="42.82247" lon="1.75179">
        <ele>2014.515</ele>
        <time>2021-03-23T10:55:00Z</time>
      </trkpt>
      <trkpt lat="42.82248" lon="1.75179">
        <ele>2014.664</ele>
        <time>2021-03-23T10:55:02Z</time>
      </trkpt>
      <trkpt lat="42.82249" lon="1.75179">
        <ele>2014.999</ele>
        <time>2021-03-23T10:55:04Z</time>
      </trkpt>
      <trkpt lat="42.82249" lon="1.75179">
        <ele>2015.503</ele>
        <time>2021-03-23T10:55:06Z</time>
      </trkpt>
      <trkpt lat="42.82249" lon="1.75178">
        <ele>2016.073</ele>
        <time>2021-03-23T10:55:08Z</time>
      </trkpt>
      <trkpt lat="42.8225" lon="1.75178">
        <ele>2017.153</ele>
        <time>2021-03-23T10:55:10Z</time>
      </trkpt>
      <trkpt lat="42.8225" lon="1.75177">
        <ele>2018.225</ele>
        <time>2021-03-23T10:55:12Z</time>
      </trkpt>
      <trkpt lat="42.8225" lon="1.75177">
        <ele>2019.462</ele>
        <time>2021-03-23T10:55:14Z</time>
      </trkpt>
      <trkpt lat="42.82251" lon="1.75176">
        <ele>2020.233</ele>
        <time>2021-03-23T10:55:16Z</time>
      </trkpt>
      <trkpt lat="42.82252" lon="1.75176">
        <ele>2021.137</ele>
        <time>2021-03-23T10:55:18Z</time>
      </trkpt>
      <trkpt lat="42.82252" lon="1.75176">
        <ele>2021.616</ele>
        <time>2021-03-23T10:55:20Z</time>
      </trkpt>
      <trkpt lat="42.82253" lon="1.75176">
        <ele>2022.952</ele>
        <time>2021-03-23T10:55:22Z</time>
      </trkpt>
      <trkpt lat="42.82254" lon="1.75176">
        <ele>2023.583</ele>
        <time>2021-03-23T10:55:24Z</time>
      </trkpt>
      <trkpt lat="42.82255" lon="1.75177">
        <ele>2023.728</ele>
        <time>2021-03-23T10:55:26Z</time>
      </trkpt>
      <trkpt lat="42.82254" lon="1.75176">
        <ele>2024.8</ele>
        <time>2021-03-23T10:55:28Z</time>
      </trkpt>
      <trkpt lat="42.82254" lon="1.75176">
        <ele>2024.805</ele>
        <time>2021-03-23T10:55:30Z</time>
      </trkpt>
      <trkpt lat="42.82254" lon="1.75176">
        <ele>2024.808</ele>
        <time>2021-03-23T10:55:32Z</time>
      </trkpt>
      <trkpt lat="42.82254" lon="1.75176">
        <ele>2024.812</ele>
        <time>2021-03-23T10:55:34Z</time>
      </trkpt>
      <trkpt lat="42.82254" lon="1.75176">
        <ele>2024.815</ele>
        <time>2021-03-23T10:55:36Z</time>
      </trkpt>
      <trkpt lat="42.82255" lon="1.75177">
        <ele>2025.196</ele>
        <time>2021-03-23T10:55:38Z</time>
      </trkpt>
      <trkpt lat="42.82255" lon="1.75177">
        <ele>2025.206</ele>
        <time>2021-03-23T10:55:40Z</time>
      </trkpt>
      <trkpt lat="42.82255" lon="1.75177">
        <ele>2025.47</ele>
        <time>2021-03-23T10:55:42Z</time>
      </trkpt>
      <trkpt lat="42.82256" lon="1.75177">
        <ele>2026.322</ele>
        <time>2021-03-23T10:55:44Z</time>
      </trkpt>
      <trkpt lat="42.82257" lon="1.75178">
        <ele>2026.444</ele>
        <time>2021-03-23T10:55:46Z</time>
      </trkpt>
      <trkpt lat="42.82257" lon="1.75178">
        <ele>2026.658</ele>
        <time>2021-03-23T10:55:48Z</time>
      </trkpt>
      <trkpt lat="42.82258" lon="1.75178">
        <ele>2027.126</ele>
        <time>2021-03-23T10:55:50Z</time>
      </trkpt>
      <trkpt lat="42.82259" lon="1.75177">
        <ele>2027.592</ele>
        <time>2021-03-23T10:55:52Z</time>
      </trkpt>
      <trkpt lat="42.82259" lon="1.75177">
        <ele>2027.601</ele>
        <time>2021-03-23T10:55:54Z</time>
      </trkpt>
      <trkpt lat="42.8226" lon="1.75177">
        <ele>2027.303</ele>
        <time>2021-03-23T10:55:56Z</time>
      </trkpt>
      <trkpt lat="42.82261" lon="1.75176">
        <ele>2027.771</ele>
        <time>2021-03-23T10:55:58Z</time>
      </trkpt>
      <trkpt lat="42.82262" lon="1.75176">
        <ele>2028.138</ele>
        <time>2021-03-23T10:56:00Z</time>
      </trkpt>
      <trkpt lat="42.82263" lon="1.75176">
        <ele>2028.469</ele>
        <time>2021-03-23T10:56:02Z</time>
      </trkpt>
      <trkpt lat="42.82263" lon="1.75177">
        <ele>2028.276</ele>
        <time>2021-03-23T10:56:04Z</time>
      </trkpt>
      <trkpt lat="42.82264" lon="1.75177">
        <ele>2029.111</ele>
        <time>2021-03-23T10:56:06Z</time>
      </trkpt>
      <trkpt lat="42.82265" lon="1.75177">
        <ele>2029.501</ele>
        <time>2021-03-23T10:56:08Z</time>
      </trkpt>
      <trkpt lat="42.82267" lon="1.75178">
        <ele>2029.466</ele>
        <time>2021-03-23T10:56:10Z</time>
      </trkpt>
      <trkpt lat="42.82268" lon="1.75178">
        <ele>2029.267</ele>
        <time>2021-03-23T10:56:12Z</time>
      </trkpt>
      <trkpt lat="42.82268" lon="1.75178">
        <ele>2029.445</ele>
        <time>2021-03-23T10:56:14Z</time>
      </trkpt>
      <trkpt lat="42.8227" lon="1.75178">
        <ele>2029.7</ele>
        <time>2021-03-23T10:56:16Z</time>
      </trkpt>
      <trkpt lat="42.8227" lon="1.75178">
        <ele>2029.18</ele>
        <time>2021-03-23T10:56:18Z</time>
      </trkpt>
      <trkpt lat="42.8227" lon="1.75178">
        <ele>2029.52</ele>
        <time>2021-03-23T10:56:20Z</time>
      </trkpt>
      <trkpt lat="42.82271" lon="1.75178">
        <ele>2029.604</ele>
        <time>2021-03-23T10:56:22Z</time>
      </trkpt>
      <trkpt lat="42.82271" lon="1.75178">
        <ele>2029.608</ele>
        <time>2021-03-23T10:56:24Z</time>
      </trkpt>
      <trkpt lat="42.82271" lon="1.75178">
        <ele>2029.61</ele>
        <time>2021-03-23T10:56:26Z</time>
      </trkpt>
      <trkpt lat="42.82271" lon="1.75178">
        <ele>2029.611</ele>
        <time>2021-03-23T10:56:28Z</time>
      </trkpt>
      <trkpt lat="42.82271" lon="1.75178">
        <ele>2029.614</ele>
        <time>2021-03-23T10:56:30Z</time>
      </trkpt>
      <trkpt lat="42.82271" lon="1.75178">
        <ele>2029.615</ele>
        <time>2021-03-23T10:56:32Z</time>
      </trkpt>
      <trkpt lat="42.82271" lon="1.75178">
        <ele>2029.616</ele>
        <time>2021-03-23T10:56:34Z</time>
      </trkpt>
      <trkpt lat="42.82271" lon="1.75178">
        <ele>2029.611</ele>
        <time>2021-03-23T10:56:36Z</time>
      </trkpt>
      <trkpt lat="42.82271" lon="1.75178">
        <ele>2029.61</ele>
        <time>2021-03-23T10:56:38Z</time>
      </trkpt>
      <trkpt lat="42.82271" lon="1.75178">
        <ele>2029.619</ele>
        <time>2021-03-23T10:56:40Z</time>
      </trkpt>
      <trkpt lat="42.82271" lon="1.75178">
        <ele>2029.634</ele>
        <time>2021-03-23T10:56:42Z</time>
      </trkpt>
      <trkpt lat="42.82271" lon="1.75178">
        <ele>2029.64</ele>
        <time>2021-03-23T10:56:44Z</time>
      </trkpt>
      <trkpt lat="42.82271" lon="1.75178">
        <ele>2029.64</ele>
        <time>2021-03-23T10:56:46Z</time>
      </trkpt>
      <trkpt lat="42.82271" lon="1.75178">
        <ele>2029.635</ele>
        <time>2021-03-23T10:56:48Z</time>
      </trkpt>
      <trkpt lat="42.82271" lon="1.75178">
        <ele>2029.632</ele>
        <time>2021-03-23T10:56:50Z</time>
      </trkpt>
      <trkpt lat="42.82271" lon="1.75178">
        <ele>2029.627</ele>
        <time>2021-03-23T10:56:52Z</time>
      </trkpt>
      <trkpt lat="42.82271" lon="1.75178">
        <ele>2029.628</ele>
        <time>2021-03-23T10:56:54Z</time>
      </trkpt>
      <trkpt lat="42.8227" lon="1.75178">
        <ele>2029.626</ele>
        <time>2021-03-23T10:56:56Z</time>
      </trkpt>
      <trkpt lat="42.8227" lon="1.75178">
        <ele>2029.622</ele>
        <time>2021-03-23T10:56:58Z</time>
      </trkpt>
      <trkpt lat="42.82271" lon="1.75178">
        <ele>2029.713</ele>
        <time>2021-03-23T10:57:00Z</time>
      </trkpt>
      <trkpt lat="42.82271" lon="1.75178">
        <ele>2029.54</ele>
        <time>2021-03-23T10:57:02Z</time>
      </trkpt>
      <trkpt lat="42.82272" lon="1.75178">
        <ele>2029.472</ele>
        <time>2021-03-23T10:57:04Z</time>
      </trkpt>
      <trkpt lat="42.82273" lon="1.75178">
        <ele>2029.308</ele>
        <time>2021-03-23T10:57:06Z</time>
      </trkpt>
      <trkpt lat="42.82273" lon="1.75178">
        <ele>2029.305</ele>
        <time>2021-03-23T10:57:08Z</time>
      </trkpt>
      <trkpt lat="42.82273" lon="1.75178">
        <ele>2029.345</ele>
        <time>2021-03-23T10:57:10Z</time>
      </trkpt>
      <trkpt lat="42.82273" lon="1.75178">
        <ele>2029.334</ele>
        <time>2021-03-23T10:57:12Z</time>
      </trkpt>
      <trkpt lat="42.82273" lon="1.75178">
        <ele>2029.32</ele>
        <time>2021-03-23T10:57:14Z</time>
      </trkpt>
      <trkpt lat="42.82273" lon="1.75178">
        <ele>2029.32</ele>
        <time>2021-03-23T10:57:16Z</time>
      </trkpt>
      <trkpt lat="42.82273" lon="1.75178">
        <ele>2029.316</ele>
        <time>2021-03-23T10:57:18Z</time>
      </trkpt>
      <trkpt lat="42.82273" lon="1.75178">
        <ele>2029.32</ele>
        <time>2021-03-23T10:57:20Z</time>
      </trkpt>
      <trkpt lat="42.82273" lon="1.75178">
        <ele>2029.319</ele>
        <time>2021-03-23T10:57:21Z</time>
      </trkpt>
      <trkpt lat="42.82273" lon="1.75178">
        <ele>2029.336</ele>
        <time>2021-03-23T10:57:24Z</time>
      </trkpt>
      <trkpt lat="42.82273" lon="1.75179">
        <ele>2029.207</ele>
        <time>2021-03-23T10:57:26Z</time>
      </trkpt>
      <trkpt lat="42.82273" lon="1.75179">
        <ele>2029.202</ele>
        <time>2021-03-23T10:57:28Z</time>
      </trkpt>
      <trkpt lat="42.82273" lon="1.75179">
        <ele>2029.203</ele>
        <time>2021-03-23T10:57:30Z</time>
      </trkpt>
      <trkpt lat="42.82273" lon="1.75179">
        <ele>2029.201</ele>
        <time>2021-03-23T10:57:32Z</time>
      </trkpt>
      <trkpt lat="42.82273" lon="1.75179">
        <ele>2029.203</ele>
        <time>2021-03-23T10:57:34Z</time>
      </trkpt>
      <trkpt lat="42.82273" lon="1.75179">
        <ele>2029.203</ele>
        <time>2021-03-23T10:57:36Z</time>
      </trkpt>
      <trkpt lat="42.82273" lon="1.75179">
        <ele>2029.198</ele>
        <time>2021-03-23T10:57:38Z</time>
      </trkpt>
      <trkpt lat="42.82273" lon="1.75179">
        <ele>2029.603</ele>
        <time>2021-03-23T10:57:40Z</time>
      </trkpt>
      <trkpt lat="42.82273" lon="1.75181">
        <ele>2029.888</ele>
        <time>2021-03-23T10:57:42Z</time>
      </trkpt>
      <trkpt lat="42.82273" lon="1.75181">
        <ele>2029.538</ele>
        <time>2021-03-23T10:57:44Z</time>
      </trkpt>
      <trkpt lat="42.82272" lon="1.75182">
        <ele>2029.679</ele>
        <time>2021-03-23T10:57:46Z</time>
      </trkpt>
      <trkpt lat="42.82272" lon="1.75182">
        <ele>2029.678</ele>
        <time>2021-03-23T10:57:48Z</time>
      </trkpt>
      <trkpt lat="42.82272" lon="1.75182">
        <ele>2029.675</ele>
        <time>2021-03-23T10:57:50Z</time>
      </trkpt>
      <trkpt lat="42.82272" lon="1.75182">
        <ele>2029.673</ele>
        <time>2021-03-23T10:57:52Z</time>
      </trkpt>
      <trkpt lat="42.82272" lon="1.75182">
        <ele>2029.677</ele>
        <time>2021-03-23T10:57:54Z</time>
      </trkpt>
      <trkpt lat="42.82272" lon="1.75182">
        <ele>2029.678</ele>
        <time>2021-03-23T10:57:56Z</time>
      </trkpt>
      <trkpt lat="42.82272" lon="1.75182">
        <ele>2029.677</ele>
        <time>2021-03-23T10:57:58Z</time>
      </trkpt>
      <trkpt lat="42.82272" lon="1.75182">
        <ele>2029.678</ele>
        <time>2021-03-23T10:58:00Z</time>
      </trkpt>
      <trkpt lat="42.82272" lon="1.75182">
        <ele>2029.68</ele>
        <time>2021-03-23T10:58:02Z</time>
      </trkpt>
      <trkpt lat="42.82272" lon="1.75182">
        <ele>2029.671</ele>
        <time>2021-03-23T10:58:04Z</time>
      </trkpt>
      <trkpt lat="42.82273" lon="1.75182">
        <ele>2029.318</ele>
        <time>2021-03-23T10:58:06Z</time>
      </trkpt>
      <trkpt lat="42.82273" lon="1.75182">
        <ele>2029.352</ele>
        <time>2021-03-23T10:58:08Z</time>
      </trkpt>
      <trkpt lat="42.82273" lon="1.75182">
        <ele>2029.357</ele>
        <time>2021-03-23T10:58:10Z</time>
      </trkpt>
      <trkpt lat="42.82273" lon="1.75181">
        <ele>2029.494</ele>
        <time>2021-03-23T10:58:12Z</time>
      </trkpt>
      <trkpt lat="42.82273" lon="1.75181">
        <ele>2029.392</ele>
        <time>2021-03-23T10:58:14Z</time>
      </trkpt>
      <trkpt lat="42.82273" lon="1.75181">
        <ele>2029.482</ele>
        <time>2021-03-23T10:58:16Z</time>
      </trkpt>
      <trkpt lat="42.82273" lon="1.75181">
        <ele>2029.485</ele>
        <time>2021-03-23T10:58:18Z</time>
      </trkpt>
      <trkpt lat="42.82273" lon="1.75181">
        <ele>2029.485</ele>
        <time>2021-03-23T10:58:20Z</time>
      </trkpt>
      <trkpt lat="42.82273" lon="1.75181">
        <ele>2029.482</ele>
        <time>2021-03-23T10:58:22Z</time>
      </trkpt>
      <trkpt lat="42.82273" lon="1.75181">
        <ele>2029.485</ele>
        <time>2021-03-23T10:58:24Z</time>
      </trkpt>
      <trkpt lat="42.82273" lon="1.75181">
        <ele>2029.484</ele>
        <time>2021-03-23T10:58:26Z</time>
      </trkpt>
      <trkpt lat="42.82272" lon="1.75181">
        <ele>2029.314</ele>
        <time>2021-03-23T10:58:28Z</time>
      </trkpt>
      <trkpt lat="42.82272" lon="1.75181">
        <ele>2029.301</ele>
        <time>2021-03-23T10:58:30Z</time>
      </trkpt>
      <trkpt lat="42.82272" lon="1.75181">
        <ele>2029.298</ele>
        <time>2021-03-23T10:58:32Z</time>
      </trkpt>
      <trkpt lat="42.82272" lon="1.75181">
        <ele>2029.296</ele>
        <time>2021-03-23T10:58:34Z</time>
      </trkpt>
      <trkpt lat="42.82272" lon="1.75181">
        <ele>2029.295</ele>
        <time>2021-03-23T10:58:36Z</time>
      </trkpt>
      <trkpt lat="42.82272" lon="1.75181">
        <ele>2029.289</ele>
        <time>2021-03-23T10:58:38Z</time>
      </trkpt>
      <trkpt lat="42.82272" lon="1.75181">
        <ele>2029.284</ele>
        <time>2021-03-23T10:58:40Z</time>
      </trkpt>
      <trkpt lat="42.82272" lon="1.75181">
        <ele>2029.276</ele>
        <time>2021-03-23T10:58:42Z</time>
      </trkpt>
      <trkpt lat="42.82272" lon="1.75181">
        <ele>2029.274</ele>
        <time>2021-03-23T10:58:44Z</time>
      </trkpt>
      <trkpt lat="42.82272" lon="1.75181">
        <ele>2029.268</ele>
        <time>2021-03-23T10:58:46Z</time>
      </trkpt>
      <trkpt lat="42.82272" lon="1.75181">
        <ele>2029.266</ele>
        <time>2021-03-23T10:58:48Z</time>
      </trkpt>
      <trkpt lat="42.82272" lon="1.75181">
        <ele>2029.264</ele>
        <time>2021-03-23T10:58:50Z</time>
      </trkpt>
      <trkpt lat="42.82272" lon="1.75181">
        <ele>2029.262</ele>
        <time>2021-03-23T10:58:52Z</time>
      </trkpt>
      <trkpt lat="42.82272" lon="1.75181">
        <ele>2029.267</ele>
        <time>2021-03-23T10:58:54Z</time>
      </trkpt>
      <trkpt lat="42.82272" lon="1.75181">
        <ele>2029.267</ele>
        <time>2021-03-23T10:58:56Z</time>
      </trkpt>
      <trkpt lat="42.82272" lon="1.75181">
        <ele>2029.264</ele>
        <time>2021-03-23T10:58:58Z</time>
      </trkpt>
      <trkpt lat="42.82272" lon="1.75181">
        <ele>2029.268</ele>
        <time>2021-03-23T10:59:00Z</time>
      </trkpt>
      <trkpt lat="42.82272" lon="1.75181">
        <ele>2029.269</ele>
        <time>2021-03-23T10:59:02Z</time>
      </trkpt>
      <trkpt lat="42.82272" lon="1.75181">
        <ele>2029.265</ele>
        <time>2021-03-23T10:59:04Z</time>
      </trkpt>
      <trkpt lat="42.82272" lon="1.75181">
        <ele>2029.26</ele>
        <time>2021-03-23T10:59:06Z</time>
      </trkpt>
      <trkpt lat="42.82272" lon="1.75181">
        <ele>2029.257</ele>
        <time>2021-03-23T10:59:08Z</time>
      </trkpt>
      <trkpt lat="42.82272" lon="1.75181">
        <ele>2029.254</ele>
        <time>2021-03-23T10:59:10Z</time>
      </trkpt>
      <trkpt lat="42.82272" lon="1.75181">
        <ele>2029.249</ele>
        <time>2021-03-23T10:59:12Z</time>
      </trkpt>
      <trkpt lat="42.82272" lon="1.75181">
        <ele>2029.245</ele>
        <time>2021-03-23T10:59:14Z</time>
      </trkpt>
      <trkpt lat="42.82272" lon="1.75181">
        <ele>2029.238</ele>
        <time>2021-03-23T10:59:16Z</time>
      </trkpt>
      <trkpt lat="42.82272" lon="1.75181">
        <ele>2029.24</ele>
        <time>2021-03-23T10:59:18Z</time>
      </trkpt>
      <trkpt lat="42.82272" lon="1.75181">
        <ele>2029.238</ele>
        <time>2021-03-23T10:59:20Z</time>
      </trkpt>
      <trkpt lat="42.82272" lon="1.75181">
        <ele>2029.233</ele>
        <time>2021-03-23T10:59:22Z</time>
      </trkpt>
      <trkpt lat="42.82272" lon="1.75181">
        <ele>2029.235</ele>
        <time>2021-03-23T10:59:24Z</time>
      </trkpt>
      <trkpt lat="42.82272" lon="1.75181">
        <ele>2029.229</ele>
        <time>2021-03-23T10:59:26Z</time>
      </trkpt>
      <trkpt lat="42.82272" lon="1.75181">
        <ele>2029.226</ele>
        <time>2021-03-23T10:59:28Z</time>
      </trkpt>
      <trkpt lat="42.82272" lon="1.75181">
        <ele>2029.227</ele>
        <time>2021-03-23T10:59:30Z</time>
      </trkpt>
      <trkpt lat="42.82272" lon="1.75181">
        <ele>2029.181</ele>
        <time>2021-03-23T10:59:32Z</time>
      </trkpt>
      <trkpt lat="42.82271" lon="1.75181">
        <ele>2029.351</ele>
        <time>2021-03-23T10:59:34Z</time>
      </trkpt>
      <trkpt lat="42.82271" lon="1.75181">
        <ele>2029.215</ele>
        <time>2021-03-23T10:59:36Z</time>
      </trkpt>
      <trkpt lat="42.82271" lon="1.7518">
        <ele>2029.21</ele>
        <time>2021-03-23T10:59:38Z</time>
      </trkpt>
      <trkpt lat="42.82271" lon="1.7518">
        <ele>2029.215</ele>
        <time>2021-03-23T10:59:40Z</time>
      </trkpt>
      <trkpt lat="42.82271" lon="1.7518">
        <ele>2029.216</ele>
        <time>2021-03-23T10:59:42Z</time>
      </trkpt>
      <trkpt lat="42.82271" lon="1.7518">
        <ele>2029.206</ele>
        <time>2021-03-23T10:59:44Z</time>
      </trkpt>
      <trkpt lat="42.82271" lon="1.7518">
        <ele>2029.208</ele>
        <time>2021-03-23T10:59:46Z</time>
      </trkpt>
      <trkpt lat="42.82271" lon="1.7518">
        <ele>2029.206</ele>
        <time>2021-03-23T10:59:48Z</time>
      </trkpt>
      <trkpt lat="42.82271" lon="1.7518">
        <ele>2029.206</ele>
        <time>2021-03-23T10:59:50Z</time>
      </trkpt>
      <trkpt lat="42.82271" lon="1.7518">
        <ele>2029.205</ele>
        <time>2021-03-23T10:59:52Z</time>
      </trkpt>
      <trkpt lat="42.82271" lon="1.7518">
        <ele>2029.204</ele>
        <time>2021-03-23T10:59:54Z</time>
      </trkpt>
      <trkpt lat="42.82271" lon="1.7518">
        <ele>2029.197</ele>
        <time>2021-03-23T10:59:56Z</time>
      </trkpt>
      <trkpt lat="42.82271" lon="1.7518">
        <ele>2029.198</ele>
        <time>2021-03-23T10:59:58Z</time>
      </trkpt>
      <trkpt lat="42.82271" lon="1.7518">
        <ele>2029.195</ele>
        <time>2021-03-23T11:00:00Z</time>
      </trkpt>
      <trkpt lat="42.82271" lon="1.7518">
        <ele>2029.191</ele>
        <time>2021-03-23T11:00:02Z</time>
      </trkpt>
      <trkpt lat="42.82271" lon="1.7518">
        <ele>2029.186</ele>
        <time>2021-03-23T11:00:04Z</time>
      </trkpt>
      <trkpt lat="42.82271" lon="1.7518">
        <ele>2029.182</ele>
        <time>2021-03-23T11:00:06Z</time>
      </trkpt>
      <trkpt lat="42.82271" lon="1.7518">
        <ele>2029.177</ele>
        <time>2021-03-23T11:00:08Z</time>
      </trkpt>
      <trkpt lat="42.82271" lon="1.7518">
        <ele>2029.174</ele>
        <time>2021-03-23T11:00:10Z</time>
      </trkpt>
      <trkpt lat="42.82271" lon="1.7518">
        <ele>2029.173</ele>
        <time>2021-03-23T11:00:12Z</time>
      </trkpt>
      <trkpt lat="42.82271" lon="1.7518">
        <ele>2029.176</ele>
        <time>2021-03-23T11:00:14Z</time>
      </trkpt>
      <trkpt lat="42.82271" lon="1.7518">
        <ele>2029.176</ele>
        <time>2021-03-23T11:00:16Z</time>
      </trkpt>
      <trkpt lat="42.82271" lon="1.7518">
        <ele>2029.178</ele>
        <time>2021-03-23T11:00:18Z</time>
      </trkpt>
      <trkpt lat="42.82271" lon="1.7518">
        <ele>2029.178</ele>
        <time>2021-03-23T11:00:20Z</time>
      </trkpt>
      <trkpt lat="42.82271" lon="1.7518">
        <ele>2029.174</ele>
        <time>2021-03-23T11:00:22Z</time>
      </trkpt>
      <trkpt lat="42.82271" lon="1.7518">
        <ele>2029.173</ele>
        <time>2021-03-23T11:00:24Z</time>
      </trkpt>
      <trkpt lat="42.82271" lon="1.7518">
        <ele>2029.174</ele>
        <time>2021-03-23T11:00:26Z</time>
      </trkpt>
      <trkpt lat="42.82271" lon="1.7518">
        <ele>2029.178</ele>
        <time>2021-03-23T11:00:28Z</time>
      </trkpt>
      <trkpt lat="42.82271" lon="1.7518">
        <ele>2029.177</ele>
        <time>2021-03-23T11:00:30Z</time>
      </trkpt>
      <trkpt lat="42.82271" lon="1.7518">
        <ele>2029.174</ele>
        <time>2021-03-23T11:00:32Z</time>
      </trkpt>
      <trkpt lat="42.82271" lon="1.7518">
        <ele>2029.178</ele>
        <time>2021-03-23T11:00:34Z</time>
      </trkpt>
      <trkpt lat="42.82271" lon="1.7518">
        <ele>2029.18</ele>
        <time>2021-03-23T11:00:36Z</time>
      </trkpt>
      <trkpt lat="42.82271" lon="1.7518">
        <ele>2029.056</ele>
        <time>2021-03-23T11:00:38Z</time>
      </trkpt>
      <trkpt lat="42.82271" lon="1.7518">
        <ele>2029.051</ele>
        <time>2021-03-23T11:00:40Z</time>
      </trkpt>
      <trkpt lat="42.8227" lon="1.75181">
        <ele>2029.257</ele>
        <time>2021-03-23T11:00:42Z</time>
      </trkpt>
      <trkpt lat="42.82269" lon="1.75181">
        <ele>2029.308</ele>
        <time>2021-03-23T11:00:44Z</time>
      </trkpt>
      <trkpt lat="42.82269" lon="1.7518">
        <ele>2029.117</ele>
        <time>2021-03-23T11:00:46Z</time>
      </trkpt>
      <trkpt lat="42.82269" lon="1.7518">
        <ele>2029.382</ele>
        <time>2021-03-23T11:00:48Z</time>
      </trkpt>
      <trkpt lat="42.82269" lon="1.75179">
        <ele>2029.389</ele>
        <time>2021-03-23T11:00:50Z</time>
      </trkpt>
      <trkpt lat="42.82269" lon="1.75179">
        <ele>2029.387</ele>
        <time>2021-03-23T11:00:52Z</time>
      </trkpt>
      <trkpt lat="42.82269" lon="1.75179">
        <ele>2029.769</ele>
        <time>2021-03-23T11:00:54Z</time>
      </trkpt>
      <trkpt lat="42.82269" lon="1.7518">
        <ele>2029.76</ele>
        <time>2021-03-23T11:00:56Z</time>
      </trkpt>
      <trkpt lat="42.82269" lon="1.7518">
        <ele>2029.756</ele>
        <time>2021-03-23T11:00:58Z</time>
      </trkpt>
      <trkpt lat="42.82269" lon="1.7518">
        <ele>2029.75</ele>
        <time>2021-03-23T11:01:00Z</time>
      </trkpt>
      <trkpt lat="42.82269" lon="1.7518">
        <ele>2029.745</ele>
        <time>2021-03-23T11:01:02Z</time>
      </trkpt>
      <trkpt lat="42.82269" lon="1.7518">
        <ele>2029.743</ele>
        <time>2021-03-23T11:01:04Z</time>
      </trkpt>
      <trkpt lat="42.82269" lon="1.7518">
        <ele>2029.735</ele>
        <time>2021-03-23T11:01:06Z</time>
      </trkpt>
      <trkpt lat="42.82269" lon="1.7518">
        <ele>2029.733</ele>
        <time>2021-03-23T11:01:08Z</time>
      </trkpt>
      <trkpt lat="42.82269" lon="1.7518">
        <ele>2029.731</ele>
        <time>2021-03-23T11:01:10Z</time>
      </trkpt>
      <trkpt lat="42.82269" lon="1.7518">
        <ele>2029.729</ele>
        <time>2021-03-23T11:01:12Z</time>
      </trkpt>
      <trkpt lat="42.82269" lon="1.7518">
        <ele>2029.723</ele>
        <time>2021-03-23T11:01:14Z</time>
      </trkpt>
      <trkpt lat="42.82269" lon="1.7518">
        <ele>2029.724</ele>
        <time>2021-03-23T11:01:16Z</time>
      </trkpt>
      <trkpt lat="42.82269" lon="1.7518">
        <ele>2029.722</ele>
        <time>2021-03-23T11:01:18Z</time>
      </trkpt>
      <trkpt lat="42.82269" lon="1.7518">
        <ele>2029.719</ele>
        <time>2021-03-23T11:01:20Z</time>
      </trkpt>
      <trkpt lat="42.82269" lon="1.7518">
        <ele>2029.716</ele>
        <time>2021-03-23T11:01:22Z</time>
      </trkpt>
      <trkpt lat="42.82269" lon="1.7518">
        <ele>2029.711</ele>
        <time>2021-03-23T11:01:24Z</time>
      </trkpt>
      <trkpt lat="42.82269" lon="1.7518">
        <ele>2029.709</ele>
        <time>2021-03-23T11:01:26Z</time>
      </trkpt>
      <trkpt lat="42.82269" lon="1.7518">
        <ele>2029.709</ele>
        <time>2021-03-23T11:01:28Z</time>
      </trkpt>
      <trkpt lat="42.82269" lon="1.7518">
        <ele>2029.709</ele>
        <time>2021-03-23T11:01:30Z</time>
      </trkpt>
      <trkpt lat="42.82269" lon="1.7518">
        <ele>2029.708</ele>
        <time>2021-03-23T11:01:32Z</time>
      </trkpt>
      <trkpt lat="42.82269" lon="1.7518">
        <ele>2029.7</ele>
        <time>2021-03-23T11:01:34Z</time>
      </trkpt>
      <trkpt lat="42.82269" lon="1.7518">
        <ele>2029.694</ele>
        <time>2021-03-23T11:01:36Z</time>
      </trkpt>
      <trkpt lat="42.82269" lon="1.7518">
        <ele>2029.688</ele>
        <time>2021-03-23T11:01:38Z</time>
      </trkpt>
      <trkpt lat="42.82269" lon="1.7518">
        <ele>2029.681</ele>
        <time>2021-03-23T11:01:40Z</time>
      </trkpt>
      <trkpt lat="42.82269" lon="1.7518">
        <ele>2029.68</ele>
        <time>2021-03-23T11:01:42Z</time>
      </trkpt>
      <trkpt lat="42.82269" lon="1.7518">
        <ele>2029.678</ele>
        <time>2021-03-23T11:01:44Z</time>
      </trkpt>
      <trkpt lat="42.82269" lon="1.7518">
        <ele>2029.68</ele>
        <time>2021-03-23T11:01:46Z</time>
      </trkpt>
      <trkpt lat="42.82269" lon="1.7518">
        <ele>2029.678</ele>
        <time>2021-03-23T11:01:48Z</time>
      </trkpt>
      <trkpt lat="42.82269" lon="1.7518">
        <ele>2029.673</ele>
        <time>2021-03-23T11:01:50Z</time>
      </trkpt>
      <trkpt lat="42.82269" lon="1.7518">
        <ele>2029.674</ele>
        <time>2021-03-23T11:01:52Z</time>
      </trkpt>
      <trkpt lat="42.82269" lon="1.7518">
        <ele>2029.669</ele>
        <time>2021-03-23T11:01:54Z</time>
      </trkpt>
      <trkpt lat="42.82269" lon="1.7518">
        <ele>2029.673</ele>
        <time>2021-03-23T11:01:56Z</time>
      </trkpt>
      <trkpt lat="42.82269" lon="1.7518">
        <ele>2029.672</ele>
        <time>2021-03-23T11:01:58Z</time>
      </trkpt>
      <trkpt lat="42.82269" lon="1.7518">
        <ele>2029.674</ele>
        <time>2021-03-23T11:01:59Z</time>
      </trkpt>
      <trkpt lat="42.82269" lon="1.7518">
        <ele>2029.677</ele>
        <time>2021-03-23T11:02:02Z</time>
      </trkpt>
      <trkpt lat="42.82269" lon="1.7518">
        <ele>2029.677</ele>
        <time>2021-03-23T11:02:04Z</time>
      </trkpt>
      <trkpt lat="42.82269" lon="1.7518">
        <ele>2029.678</ele>
        <time>2021-03-23T11:02:06Z</time>
      </trkpt>
      <trkpt lat="42.82269" lon="1.7518">
        <ele>2029.64</ele>
        <time>2021-03-23T11:02:08Z</time>
      </trkpt>
      <trkpt lat="42.82269" lon="1.7518">
        <ele>2029.635</ele>
        <time>2021-03-23T11:02:10Z</time>
      </trkpt>
      <trkpt lat="42.82269" lon="1.7518">
        <ele>2029.627</ele>
        <time>2021-03-23T11:02:12Z</time>
      </trkpt>
      <trkpt lat="42.82269" lon="1.7518">
        <ele>2029.627</ele>
        <time>2021-03-23T11:02:14Z</time>
      </trkpt>
      <trkpt lat="42.82269" lon="1.7518">
        <ele>2029.625</ele>
        <time>2021-03-23T11:02:16Z</time>
      </trkpt>
      <trkpt lat="42.82269" lon="1.7518">
        <ele>2029.622</ele>
        <time>2021-03-23T11:02:18Z</time>
      </trkpt>
      <trkpt lat="42.82269" lon="1.7518">
        <ele>2029.62</ele>
        <time>2021-03-23T11:02:20Z</time>
      </trkpt>
      <trkpt lat="42.82269" lon="1.7518">
        <ele>2029.615</ele>
        <time>2021-03-23T11:02:22Z</time>
      </trkpt>
      <trkpt lat="42.82269" lon="1.7518">
        <ele>2029.609</ele>
        <time>2021-03-23T11:02:24Z</time>
      </trkpt>
      <trkpt lat="42.82269" lon="1.75179">
        <ele>2029.524</ele>
        <time>2021-03-23T11:02:26Z</time>
      </trkpt>
      <trkpt lat="42.82269" lon="1.75179">
        <ele>2029.326</ele>
        <time>2021-03-23T11:02:28Z</time>
      </trkpt>
      <trkpt lat="42.8227" lon="1.75179">
        <ele>2028.89</ele>
        <time>2021-03-23T11:02:30Z</time>
      </trkpt>
      <trkpt lat="42.8227" lon="1.75179">
        <ele>2028.892</ele>
        <time>2021-03-23T11:02:32Z</time>
      </trkpt>
      <trkpt lat="42.82271" lon="1.75179">
        <ele>2028.826</ele>
        <time>2021-03-23T11:02:34Z</time>
      </trkpt>
      <trkpt lat="42.8227" lon="1.75179">
        <ele>2029.086</ele>
        <time>2021-03-23T11:02:36Z</time>
      </trkpt>
      <trkpt lat="42.82269" lon="1.75179">
        <ele>2029.335</ele>
        <time>2021-03-23T11:02:39Z</time>
      </trkpt>
      <trkpt lat="42.82268" lon="1.75179">
        <ele>2029.631</ele>
        <time>2021-03-23T11:02:41Z</time>
      </trkpt>
      <trkpt lat="42.82267" lon="1.75179">
        <ele>2029.419</ele>
        <time>2021-03-23T11:02:43Z</time>
      </trkpt>
      <trkpt lat="42.82267" lon="1.7518">
        <ele>2029.198</ele>
        <time>2021-03-23T11:02:45Z</time>
      </trkpt>
      <trkpt lat="42.82267" lon="1.7518">
        <ele>2028.971</ele>
        <time>2021-03-23T11:02:47Z</time>
      </trkpt>
      <trkpt lat="42.82267" lon="1.7518">
        <ele>2028.968</ele>
        <time>2021-03-23T11:02:49Z</time>
      </trkpt>
      <trkpt lat="42.82267" lon="1.7518">
        <ele>2028.972</ele>
        <time>2021-03-23T11:02:51Z</time>
      </trkpt>
      <trkpt lat="42.82267" lon="1.7518">
        <ele>2028.976</ele>
        <time>2021-03-23T11:02:53Z</time>
      </trkpt>
      <trkpt lat="42.82267" lon="1.7518">
        <ele>2028.977</ele>
        <time>2021-03-23T11:02:55Z</time>
      </trkpt>
      <trkpt lat="42.82267" lon="1.7518">
        <ele>2028.98</ele>
        <time>2021-03-23T11:02:57Z</time>
      </trkpt>
      <trkpt lat="42.82267" lon="1.7518">
        <ele>2028.982</ele>
        <time>2021-03-23T11:02:59Z</time>
      </trkpt>
      <trkpt lat="42.82267" lon="1.7518">
        <ele>2029.119</ele>
        <time>2021-03-23T11:03:01Z</time>
      </trkpt>
      <trkpt lat="42.82266" lon="1.75181">
        <ele>2029.245</ele>
        <time>2021-03-23T11:03:03Z</time>
      </trkpt>
      <trkpt lat="42.82266" lon="1.7518">
        <ele>2029.348</ele>
        <time>2021-03-23T11:03:05Z</time>
      </trkpt>
      <trkpt lat="42.82266" lon="1.7518">
        <ele>2029.345</ele>
        <time>2021-03-23T11:03:07Z</time>
      </trkpt>
      <trkpt lat="42.82266" lon="1.7518">
        <ele>2029.343</ele>
        <time>2021-03-23T11:03:09Z</time>
      </trkpt>
      <trkpt lat="42.82266" lon="1.7518">
        <ele>2029.339</ele>
        <time>2021-03-23T11:03:11Z</time>
      </trkpt>
      <trkpt lat="42.82266" lon="1.7518">
        <ele>2029.337</ele>
        <time>2021-03-23T11:03:13Z</time>
      </trkpt>
      <trkpt lat="42.82266" lon="1.7518">
        <ele>2029.342</ele>
        <time>2021-03-23T11:03:15Z</time>
      </trkpt>
      <trkpt lat="42.82266" lon="1.7518">
        <ele>2029.342</ele>
        <time>2021-03-23T11:03:17Z</time>
      </trkpt>
      <trkpt lat="42.82266" lon="1.7518">
        <ele>2029.339</ele>
        <time>2021-03-23T11:03:19Z</time>
      </trkpt>
      <trkpt lat="42.82266" lon="1.7518">
        <ele>2029.339</ele>
        <time>2021-03-23T11:03:21Z</time>
      </trkpt>
      <trkpt lat="42.82266" lon="1.7518">
        <ele>2029.34</ele>
        <time>2021-03-23T11:03:23Z</time>
      </trkpt>
      <trkpt lat="42.82266" lon="1.7518">
        <ele>2029.335</ele>
        <time>2021-03-23T11:03:25Z</time>
      </trkpt>
      <trkpt lat="42.82266" lon="1.75181">
        <ele>2029.517</ele>
        <time>2021-03-23T11:03:27Z</time>
      </trkpt>
      <trkpt lat="42.82266" lon="1.7518">
        <ele>2029.63</ele>
        <time>2021-03-23T11:03:29Z</time>
      </trkpt>
      <trkpt lat="42.82267" lon="1.75179">
        <ele>2029.699</ele>
        <time>2021-03-23T11:03:31Z</time>
      </trkpt>
      <trkpt lat="42.82267" lon="1.75178">
        <ele>2029.962</ele>
        <time>2021-03-23T11:03:33Z</time>
      </trkpt>
      <trkpt lat="42.82266" lon="1.75177">
        <ele>2030.028</ele>
        <time>2021-03-23T11:03:35Z</time>
      </trkpt>
      <trkpt lat="42.82265" lon="1.75176">
        <ele>2030.323</ele>
        <time>2021-03-23T11:03:37Z</time>
      </trkpt>
      <trkpt lat="42.82265" lon="1.75176">
        <ele>2030.308</ele>
        <time>2021-03-23T11:03:39Z</time>
      </trkpt>
      <trkpt lat="42.82265" lon="1.75176">
        <ele>2030.299</ele>
        <time>2021-03-23T11:03:41Z</time>
      </trkpt>
      <trkpt lat="42.82265" lon="1.75176">
        <ele>2030.418</ele>
        <time>2021-03-23T11:03:43Z</time>
      </trkpt>
      <trkpt lat="42.82265" lon="1.75176">
        <ele>2030.435</ele>
        <time>2021-03-23T11:03:45Z</time>
      </trkpt>
      <trkpt lat="42.82264" lon="1.75176">
        <ele>2030.717</ele>
        <time>2021-03-23T11:03:47Z</time>
      </trkpt>
      <trkpt lat="42.82264" lon="1.75175">
        <ele>2030.79</ele>
        <time>2021-03-23T11:03:49Z</time>
      </trkpt>
      <trkpt lat="42.82263" lon="1.75175">
        <ele>2030.998</ele>
        <time>2021-03-23T11:03:51Z</time>
      </trkpt>
      <trkpt lat="42.82262" lon="1.75174">
        <ele>2031.644</ele>
        <time>2021-03-23T11:03:53Z</time>
      </trkpt>
      <trkpt lat="42.82262" lon="1.75173">
        <ele>2031.786</ele>
        <time>2021-03-23T11:03:55Z</time>
      </trkpt>
      <trkpt lat="42.82262" lon="1.75173">
        <ele>2032.489</ele>
        <time>2021-03-23T11:03:56Z</time>
      </trkpt>
      <trkpt lat="42.82261" lon="1.75173">
        <ele>2032.776</ele>
        <time>2021-03-23T11:03:59Z</time>
      </trkpt>
      <trkpt lat="42.82261" lon="1.75173">
        <ele>2032.773</ele>
        <time>2021-03-23T11:04:01Z</time>
      </trkpt>
      <trkpt lat="42.82261" lon="1.75173">
        <ele>2032.775</ele>
        <time>2021-03-23T11:04:03Z</time>
      </trkpt>
      <trkpt lat="42.82261" lon="1.75173">
        <ele>2032.771</ele>
        <time>2021-03-23T11:04:05Z</time>
      </trkpt>
      <trkpt lat="42.82261" lon="1.75173">
        <ele>2032.769</ele>
        <time>2021-03-23T11:04:08Z</time>
      </trkpt>
      <trkpt lat="42.82261" lon="1.75173">
        <ele>2032.764</ele>
        <time>2021-03-23T11:04:10Z</time>
      </trkpt>
      <trkpt lat="42.82261" lon="1.75173">
        <ele>2032.768</ele>
        <time>2021-03-23T11:04:12Z</time>
      </trkpt>
      <trkpt lat="42.82261" lon="1.75173">
        <ele>2032.77</ele>
        <time>2021-03-23T11:04:14Z</time>
      </trkpt>
      <trkpt lat="42.82261" lon="1.75173">
        <ele>2032.773</ele>
        <time>2021-03-23T11:04:16Z</time>
      </trkpt>
      <trkpt lat="42.82261" lon="1.75173">
        <ele>2032.769</ele>
        <time>2021-03-23T11:04:18Z</time>
      </trkpt>
      <trkpt lat="42.82261" lon="1.75173">
        <ele>2032.761</ele>
        <time>2021-03-23T11:04:20Z</time>
      </trkpt>
      <trkpt lat="42.82261" lon="1.75173">
        <ele>2032.75</ele>
        <time>2021-03-23T11:04:22Z</time>
      </trkpt>
      <trkpt lat="42.82261" lon="1.75173">
        <ele>2032.745</ele>
        <time>2021-03-23T11:04:24Z</time>
      </trkpt>
      <trkpt lat="42.82261" lon="1.75173">
        <ele>2032.743</ele>
        <time>2021-03-23T11:04:26Z</time>
      </trkpt>
      <trkpt lat="42.82261" lon="1.75173">
        <ele>2032.744</ele>
        <time>2021-03-23T11:04:28Z</time>
      </trkpt>
      <trkpt lat="42.82261" lon="1.75173">
        <ele>2032.747</ele>
        <time>2021-03-23T11:04:30Z</time>
      </trkpt>
      <trkpt lat="42.82261" lon="1.75173">
        <ele>2032.742</ele>
        <time>2021-03-23T11:04:32Z</time>
      </trkpt>
      <trkpt lat="42.82261" lon="1.75173">
        <ele>2032.74</ele>
        <time>2021-03-23T11:04:34Z</time>
      </trkpt>
      <trkpt lat="42.82261" lon="1.75173">
        <ele>2032.741</ele>
        <time>2021-03-23T11:04:36Z</time>
      </trkpt>
      <trkpt lat="42.82261" lon="1.75173">
        <ele>2032.739</ele>
        <time>2021-03-23T11:04:38Z</time>
      </trkpt>
      <trkpt lat="42.82261" lon="1.75174">
        <ele>2032.918</ele>
        <time>2021-03-23T11:04:40Z</time>
      </trkpt>
      <trkpt lat="42.82262" lon="1.75174">
        <ele>2032.92</ele>
        <time>2021-03-23T11:04:42Z</time>
      </trkpt>
      <trkpt lat="42.82262" lon="1.75174">
        <ele>2032.922</ele>
        <time>2021-03-23T11:04:44Z</time>
      </trkpt>
      <trkpt lat="42.82262" lon="1.75174">
        <ele>2032.746</ele>
        <time>2021-03-23T11:04:46Z</time>
      </trkpt>
      <trkpt lat="42.82262" lon="1.75174">
        <ele>2032.744</ele>
        <time>2021-03-23T11:04:48Z</time>
      </trkpt>
      <trkpt lat="42.82262" lon="1.75174">
        <ele>2032.746</ele>
        <time>2021-03-23T11:04:50Z</time>
      </trkpt>
      <trkpt lat="42.82262" lon="1.75174">
        <ele>2032.745</ele>
        <time>2021-03-23T11:04:52Z</time>
      </trkpt>
      <trkpt lat="42.82262" lon="1.75174">
        <ele>2032.743</ele>
        <time>2021-03-23T11:04:54Z</time>
      </trkpt>
      <trkpt lat="42.82262" lon="1.75174">
        <ele>2032.709</ele>
        <time>2021-03-23T11:04:56Z</time>
      </trkpt>
      <trkpt lat="42.82262" lon="1.75174">
        <ele>2032.7</ele>
        <time>2021-03-23T11:04:58Z</time>
      </trkpt>
      <trkpt lat="42.82262" lon="1.75174">
        <ele>2032.692</ele>
        <time>2021-03-23T11:05:00Z</time>
      </trkpt>
      <trkpt lat="42.82262" lon="1.75174">
        <ele>2032.686</ele>
        <time>2021-03-23T11:05:02Z</time>
      </trkpt>
      <trkpt lat="42.82262" lon="1.75174">
        <ele>2032.682</ele>
        <time>2021-03-23T11:05:04Z</time>
      </trkpt>
      <trkpt lat="42.82262" lon="1.75174">
        <ele>2032.676</ele>
        <time>2021-03-23T11:05:06Z</time>
      </trkpt>
      <trkpt lat="42.82262" lon="1.75174">
        <ele>2032.672</ele>
        <time>2021-03-23T11:05:08Z</time>
      </trkpt>
      <trkpt lat="42.82262" lon="1.75174">
        <ele>2032.67</ele>
        <time>2021-03-23T11:05:10Z</time>
      </trkpt>
      <trkpt lat="42.82262" lon="1.75174">
        <ele>2032.664</ele>
        <time>2021-03-23T11:05:12Z</time>
      </trkpt>
      <trkpt lat="42.82262" lon="1.75174">
        <ele>2032.658</ele>
        <time>2021-03-23T11:05:14Z</time>
      </trkpt>
      <trkpt lat="42.82262" lon="1.75174">
        <ele>2032.653</ele>
        <time>2021-03-23T11:05:16Z</time>
      </trkpt>
      <trkpt lat="42.82262" lon="1.75174">
        <ele>2032.649</ele>
        <time>2021-03-23T11:05:18Z</time>
      </trkpt>
      <trkpt lat="42.82262" lon="1.75174">
        <ele>2032.646</ele>
        <time>2021-03-23T11:05:20Z</time>
      </trkpt>
      <trkpt lat="42.82262" lon="1.75174">
        <ele>2032.645</ele>
        <time>2021-03-23T11:05:22Z</time>
      </trkpt>
      <trkpt lat="42.82262" lon="1.75174">
        <ele>2032.647</ele>
        <time>2021-03-23T11:05:24Z</time>
      </trkpt>
      <trkpt lat="42.82262" lon="1.75174">
        <ele>2032.643</ele>
        <time>2021-03-23T11:05:26Z</time>
      </trkpt>
      <trkpt lat="42.82262" lon="1.75174">
        <ele>2032.639</ele>
        <time>2021-03-23T11:05:28Z</time>
      </trkpt>
      <trkpt lat="42.82262" lon="1.75174">
        <ele>2032.638</ele>
        <time>2021-03-23T11:05:30Z</time>
      </trkpt>
      <trkpt lat="42.82262" lon="1.75174">
        <ele>2032.636</ele>
        <time>2021-03-23T11:05:32Z</time>
      </trkpt>
      <trkpt lat="42.82262" lon="1.75174">
        <ele>2032.631</ele>
        <time>2021-03-23T11:05:34Z</time>
      </trkpt>
      <trkpt lat="42.82262" lon="1.75174">
        <ele>2032.628</ele>
        <time>2021-03-23T11:05:36Z</time>
      </trkpt>
      <trkpt lat="42.82262" lon="1.75174">
        <ele>2032.619</ele>
        <time>2021-03-23T11:05:38Z</time>
      </trkpt>
      <trkpt lat="42.82262" lon="1.75174">
        <ele>2032.61</ele>
        <time>2021-03-23T11:05:40Z</time>
      </trkpt>
      <trkpt lat="42.82262" lon="1.75174">
        <ele>2032.604</ele>
        <time>2021-03-23T11:05:42Z</time>
      </trkpt>
      <trkpt lat="42.82262" lon="1.75174">
        <ele>2032.599</ele>
        <time>2021-03-23T11:05:44Z</time>
      </trkpt>
      <trkpt lat="42.82262" lon="1.75174">
        <ele>2032.596</ele>
        <time>2021-03-23T11:05:46Z</time>
      </trkpt>
      <trkpt lat="42.82262" lon="1.75174">
        <ele>2032.597</ele>
        <time>2021-03-23T11:05:48Z</time>
      </trkpt>
      <trkpt lat="42.82262" lon="1.75174">
        <ele>2032.601</ele>
        <time>2021-03-23T11:05:50Z</time>
      </trkpt>
      <trkpt lat="42.82262" lon="1.75174">
        <ele>2032.599</ele>
        <time>2021-03-23T11:05:52Z</time>
      </trkpt>
      <trkpt lat="42.82262" lon="1.75174">
        <ele>2032.598</ele>
        <time>2021-03-23T11:05:54Z</time>
      </trkpt>
      <trkpt lat="42.82262" lon="1.75174">
        <ele>2032.656</ele>
        <time>2021-03-23T11:05:56Z</time>
      </trkpt>
      <trkpt lat="42.82262" lon="1.75174">
        <ele>2032.661</ele>
        <time>2021-03-23T11:05:58Z</time>
      </trkpt>
      <trkpt lat="42.82262" lon="1.75174">
        <ele>2032.66</ele>
        <time>2021-03-23T11:06:00Z</time>
      </trkpt>
      <trkpt lat="42.82262" lon="1.75174">
        <ele>2032.962</ele>
        <time>2021-03-23T11:06:02Z</time>
      </trkpt>
      <trkpt lat="42.82262" lon="1.75174">
        <ele>2032.979</ele>
        <time>2021-03-23T11:06:04Z</time>
      </trkpt>
      <trkpt lat="42.82262" lon="1.75174">
        <ele>2032.985</ele>
        <time>2021-03-23T11:06:06Z</time>
      </trkpt>
      <trkpt lat="42.82262" lon="1.75174">
        <ele>2032.988</ele>
        <time>2021-03-23T11:06:08Z</time>
      </trkpt>
      <trkpt lat="42.82262" lon="1.75174">
        <ele>2032.986</ele>
        <time>2021-03-23T11:06:10Z</time>
      </trkpt>
      <trkpt lat="42.82262" lon="1.75174">
        <ele>2032.989</ele>
        <time>2021-03-23T11:06:12Z</time>
      </trkpt>
      <trkpt lat="42.82262" lon="1.75174">
        <ele>2033.103</ele>
        <time>2021-03-23T11:06:14Z</time>
      </trkpt>
      <trkpt lat="42.82262" lon="1.75174">
        <ele>2033.103</ele>
        <time>2021-03-23T11:06:16Z</time>
      </trkpt>
      <trkpt lat="42.82262" lon="1.75174">
        <ele>2033.106</ele>
        <time>2021-03-23T11:06:18Z</time>
      </trkpt>
      <trkpt lat="42.82262" lon="1.75174">
        <ele>2033.105</ele>
        <time>2021-03-23T11:06:20Z</time>
      </trkpt>
      <trkpt lat="42.82262" lon="1.75174">
        <ele>2033.106</ele>
        <time>2021-03-23T11:06:22Z</time>
      </trkpt>
      <trkpt lat="42.82262" lon="1.75174">
        <ele>2033.107</ele>
        <time>2021-03-23T11:06:24Z</time>
      </trkpt>
      <trkpt lat="42.82262" lon="1.75174">
        <ele>2033.107</ele>
        <time>2021-03-23T11:06:26Z</time>
      </trkpt>
      <trkpt lat="42.82262" lon="1.75174">
        <ele>2033.103</ele>
        <time>2021-03-23T11:06:28Z</time>
      </trkpt>
      <trkpt lat="42.82262" lon="1.75174">
        <ele>2033.099</ele>
        <time>2021-03-23T11:06:30Z</time>
      </trkpt>
      <trkpt lat="42.82262" lon="1.75174">
        <ele>2033.097</ele>
        <time>2021-03-23T11:06:32Z</time>
      </trkpt>
      <trkpt lat="42.82262" lon="1.75174">
        <ele>2033.094</ele>
        <time>2021-03-23T11:06:34Z</time>
      </trkpt>
      <trkpt lat="42.82262" lon="1.75175">
        <ele>2033.417</ele>
        <time>2021-03-23T11:06:36Z</time>
      </trkpt>
      <trkpt lat="42.82262" lon="1.75175">
        <ele>2033.415</ele>
        <time>2021-03-23T11:06:38Z</time>
      </trkpt>
      <trkpt lat="42.82262" lon="1.75175">
        <ele>2033.412</ele>
        <time>2021-03-23T11:06:40Z</time>
      </trkpt>
      <trkpt lat="42.82262" lon="1.75175">
        <ele>2033.482</ele>
        <time>2021-03-23T11:06:42Z</time>
      </trkpt>
      <trkpt lat="42.82262" lon="1.75175">
        <ele>2033.43</ele>
        <time>2021-03-23T11:06:44Z</time>
      </trkpt>
      <trkpt lat="42.82262" lon="1.75175">
        <ele>2033.425</ele>
        <time>2021-03-23T11:06:46Z</time>
      </trkpt>
      <trkpt lat="42.82262" lon="1.75175">
        <ele>2033.415</ele>
        <time>2021-03-23T11:06:48Z</time>
      </trkpt>
      <trkpt lat="42.82261" lon="1.75175">
        <ele>2033.493</ele>
        <time>2021-03-23T11:06:50Z</time>
      </trkpt>
      <trkpt lat="42.82261" lon="1.75175">
        <ele>2033.496</ele>
        <time>2021-03-23T11:06:52Z</time>
      </trkpt>
      <trkpt lat="42.82261" lon="1.75175">
        <ele>2033.498</ele>
        <time>2021-03-23T11:06:54Z</time>
      </trkpt>
      <trkpt lat="42.82261" lon="1.75175">
        <ele>2033.497</ele>
        <time>2021-03-23T11:06:56Z</time>
      </trkpt>
      <trkpt lat="42.82261" lon="1.75175">
        <ele>2033.494</ele>
        <time>2021-03-23T11:06:58Z</time>
      </trkpt>
      <trkpt lat="42.82261" lon="1.75176">
        <ele>2033.378</ele>
        <time>2021-03-23T11:07:00Z</time>
      </trkpt>
      <trkpt lat="42.82261" lon="1.75176">
        <ele>2033.376</ele>
        <time>2021-03-23T11:07:02Z</time>
      </trkpt>
      <trkpt lat="42.8226" lon="1.75176">
        <ele>2033.366</ele>
        <time>2021-03-23T11:07:04Z</time>
      </trkpt>
      <trkpt lat="42.8226" lon="1.75177">
        <ele>2033.306</ele>
        <time>2021-03-23T11:07:06Z</time>
      </trkpt>
      <trkpt lat="42.8226" lon="1.75177">
        <ele>2033.33</ele>
        <time>2021-03-23T11:07:08Z</time>
      </trkpt>
      <trkpt lat="42.8226" lon="1.75177">
        <ele>2033.411</ele>
        <time>2021-03-23T11:07:10Z</time>
      </trkpt>
      <trkpt lat="42.82259" lon="1.75178">
        <ele>2033.317</ele>
        <time>2021-03-23T11:07:12Z</time>
      </trkpt>
      <trkpt lat="42.82259" lon="1.75178">
        <ele>2033.664</ele>
        <time>2021-03-23T11:07:14Z</time>
      </trkpt>
      <trkpt lat="42.82259" lon="1.75178">
        <ele>2033.66</ele>
        <time>2021-03-23T11:07:16Z</time>
      </trkpt>
      <trkpt lat="42.82259" lon="1.75178">
        <ele>2033.658</ele>
        <time>2021-03-23T11:07:18Z</time>
      </trkpt>
      <trkpt lat="42.82259" lon="1.75178">
        <ele>2033.659</ele>
        <time>2021-03-23T11:07:20Z</time>
      </trkpt>
      <trkpt lat="42.82259" lon="1.75178">
        <ele>2033.721</ele>
        <time>2021-03-23T11:07:22Z</time>
      </trkpt>
      <trkpt lat="42.82259" lon="1.75178">
        <ele>2033.78</ele>
        <time>2021-03-23T11:07:24Z</time>
      </trkpt>
      <trkpt lat="42.82259" lon="1.75178">
        <ele>2033.857</ele>
        <time>2021-03-23T11:07:26Z</time>
      </trkpt>
      <trkpt lat="42.82259" lon="1.75178">
        <ele>2033.862</ele>
        <time>2021-03-23T11:07:28Z</time>
      </trkpt>
      <trkpt lat="42.82259" lon="1.75179">
        <ele>2034.732</ele>
        <time>2021-03-23T11:07:30Z</time>
      </trkpt>
      <trkpt lat="42.82259" lon="1.75179">
        <ele>2034.763</ele>
        <time>2021-03-23T11:07:32Z</time>
      </trkpt>
      <trkpt lat="42.82259" lon="1.75178">
        <ele>2034.562</ele>
        <time>2021-03-23T11:07:34Z</time>
      </trkpt>
      <trkpt lat="42.82259" lon="1.75176">
        <ele>2035.715</ele>
        <time>2021-03-23T11:07:45Z</time>
      </trkpt>
      <trkpt lat="42.82259" lon="1.75176">
        <ele>2035.712</ele>
        <time>2021-03-23T11:07:47Z</time>
      </trkpt>
      <trkpt lat="42.82259" lon="1.75176">
        <ele>2035.707</ele>
        <time>2021-03-23T11:07:49Z</time>
      </trkpt>
      <trkpt lat="42.82259" lon="1.75176">
        <ele>2035.701</ele>
        <time>2021-03-23T11:07:51Z</time>
      </trkpt>
      <trkpt lat="42.82259" lon="1.75176">
        <ele>2035.694</ele>
        <time>2021-03-23T11:07:53Z</time>
      </trkpt>
      <trkpt lat="42.82259" lon="1.75177">
        <ele>2035.655</ele>
        <time>2021-03-23T11:07:55Z</time>
      </trkpt>
      <trkpt lat="42.82259" lon="1.75177">
        <ele>2035.963</ele>
        <time>2021-03-23T11:07:57Z</time>
      </trkpt>
      <trkpt lat="42.82259" lon="1.75177">
        <ele>2035.961</ele>
        <time>2021-03-23T11:07:59Z</time>
      </trkpt>
      <trkpt lat="42.82259" lon="1.75177">
        <ele>2035.951</ele>
        <time>2021-03-23T11:08:01Z</time>
      </trkpt>
      <trkpt lat="42.82259" lon="1.75177">
        <ele>2035.944</ele>
        <time>2021-03-23T11:08:03Z</time>
      </trkpt>
      <trkpt lat="42.82259" lon="1.75177">
        <ele>2035.943</ele>
        <time>2021-03-23T11:08:05Z</time>
      </trkpt>
      <trkpt lat="42.82259" lon="1.75177">
        <ele>2035.937</ele>
        <time>2021-03-23T11:08:07Z</time>
      </trkpt>
      <trkpt lat="42.82259" lon="1.75177">
        <ele>2035.933</ele>
        <time>2021-03-23T11:08:09Z</time>
      </trkpt>
      <trkpt lat="42.82259" lon="1.75177">
        <ele>2035.92</ele>
        <time>2021-03-23T11:08:11Z</time>
      </trkpt>
      <trkpt lat="42.82259" lon="1.75178">
        <ele>2035.541</ele>
        <time>2021-03-23T11:08:13Z</time>
      </trkpt>
      <trkpt lat="42.82259" lon="1.75178">
        <ele>2035.544</ele>
        <time>2021-03-23T11:08:15Z</time>
      </trkpt>
      <trkpt lat="42.82259" lon="1.75178">
        <ele>2035.348</ele>
        <time>2021-03-23T11:08:17Z</time>
      </trkpt>
      <trkpt lat="42.82259" lon="1.75178">
        <ele>2035.354</ele>
        <time>2021-03-23T11:08:19Z</time>
      </trkpt>
      <trkpt lat="42.82259" lon="1.75178">
        <ele>2035.354</ele>
        <time>2021-03-23T11:08:21Z</time>
      </trkpt>
      <trkpt lat="42.82259" lon="1.75178">
        <ele>2035.353</ele>
        <time>2021-03-23T11:08:23Z</time>
      </trkpt>
      <trkpt lat="42.82259" lon="1.75178">
        <ele>2035.352</ele>
        <time>2021-03-23T11:08:25Z</time>
      </trkpt>
      <trkpt lat="42.82259" lon="1.75178">
        <ele>2035.354</ele>
        <time>2021-03-23T11:08:27Z</time>
      </trkpt>
      <trkpt lat="42.82259" lon="1.75178">
        <ele>2035.353</ele>
        <time>2021-03-23T11:08:29Z</time>
      </trkpt>
      <trkpt lat="42.82259" lon="1.75178">
        <ele>2035.353</ele>
        <time>2021-03-23T11:08:31Z</time>
      </trkpt>
      <trkpt lat="42.82259" lon="1.75178">
        <ele>2035.352</ele>
        <time>2021-03-23T11:08:33Z</time>
      </trkpt>
      <trkpt lat="42.82259" lon="1.75178">
        <ele>2035.351</ele>
        <time>2021-03-23T11:08:35Z</time>
      </trkpt>
      <trkpt lat="42.82259" lon="1.75178">
        <ele>2035.348</ele>
        <time>2021-03-23T11:08:37Z</time>
      </trkpt>
      <trkpt lat="42.82259" lon="1.75178">
        <ele>2035.342</ele>
        <time>2021-03-23T11:08:39Z</time>
      </trkpt>
      <trkpt lat="42.82259" lon="1.75178">
        <ele>2035.34</ele>
        <time>2021-03-23T11:08:41Z</time>
      </trkpt>
      <trkpt lat="42.82259" lon="1.75178">
        <ele>2035.333</ele>
        <time>2021-03-23T11:08:43Z</time>
      </trkpt>
      <trkpt lat="42.82259" lon="1.75178">
        <ele>2035.326</ele>
        <time>2021-03-23T11:08:45Z</time>
      </trkpt>
      <trkpt lat="42.82259" lon="1.75179">
        <ele>2035.021</ele>
        <time>2021-03-23T11:08:47Z</time>
      </trkpt>
      <trkpt lat="42.82258" lon="1.75179">
        <ele>2034.551</ele>
        <time>2021-03-23T11:08:49Z</time>
      </trkpt>
      <trkpt lat="42.82257" lon="1.75179">
        <ele>2034.603</ele>
        <time>2021-03-23T11:08:51Z</time>
      </trkpt>
      <trkpt lat="42.82256" lon="1.75179">
        <ele>2034.245</ele>
        <time>2021-03-23T11:08:53Z</time>
      </trkpt>
      <trkpt lat="42.82255" lon="1.75179">
        <ele>2034.303</ele>
        <time>2021-03-23T11:08:55Z</time>
      </trkpt>
      <trkpt lat="42.82254" lon="1.75179">
        <ele>2034.101</ele>
        <time>2021-03-23T11:08:57Z</time>
      </trkpt>
      <trkpt lat="42.82253" lon="1.75179">
        <ele>2033.728</ele>
        <time>2021-03-23T11:08:59Z</time>
      </trkpt>
      <trkpt lat="42.82252" lon="1.75178">
        <ele>2033.603</ele>
        <time>2021-03-23T11:09:01Z</time>
      </trkpt>
      <trkpt lat="42.82251" lon="1.75178">
        <ele>2034.352</ele>
        <time>2021-03-23T11:09:03Z</time>
      </trkpt>
      <trkpt lat="42.8225" lon="1.75178">
        <ele>2034.416</ele>
        <time>2021-03-23T11:09:05Z</time>
      </trkpt>
      <trkpt lat="42.82249" lon="1.75176">
        <ele>2034.201</ele>
        <time>2021-03-23T11:09:07Z</time>
      </trkpt>
      <trkpt lat="42.82249" lon="1.75175">
        <ele>2033.779</ele>
        <time>2021-03-23T11:09:09Z</time>
      </trkpt>
      <trkpt lat="42.82248" lon="1.75174">
        <ele>2033.672</ele>
        <time>2021-03-23T11:09:11Z</time>
      </trkpt>
      <trkpt lat="42.82247" lon="1.75174">
        <ele>2033.603</ele>
        <time>2021-03-23T11:09:13Z</time>
      </trkpt>
      <trkpt lat="42.82246" lon="1.75174">
        <ele>2033.354</ele>
        <time>2021-03-23T11:09:15Z</time>
      </trkpt>
      <trkpt lat="42.82245" lon="1.75174">
        <ele>2033.413</ele>
        <time>2021-03-23T11:09:17Z</time>
      </trkpt>
      <trkpt lat="42.82244" lon="1.75173">
        <ele>2033.069</ele>
        <time>2021-03-23T11:09:19Z</time>
      </trkpt>
      <trkpt lat="42.82243" lon="1.75173">
        <ele>2032.399</ele>
        <time>2021-03-23T11:09:21Z</time>
      </trkpt>
      <trkpt lat="42.82242" lon="1.75173">
        <ele>2031.923</ele>
        <time>2021-03-23T11:09:23Z</time>
      </trkpt>
      <trkpt lat="42.82241" lon="1.75174">
        <ele>2032.518</ele>
        <time>2021-03-23T11:09:25Z</time>
      </trkpt>
      <trkpt lat="42.82241" lon="1.75174">
        <ele>2032.643</ele>
        <time>2021-03-23T11:09:27Z</time>
      </trkpt>
      <trkpt lat="42.82241" lon="1.75174">
        <ele>2032.65</ele>
        <time>2021-03-23T11:09:29Z</time>
      </trkpt>
      <trkpt lat="42.82241" lon="1.75174">
        <ele>2032.872</ele>
        <time>2021-03-23T11:09:31Z</time>
      </trkpt>
      <trkpt lat="42.82241" lon="1.75174">
        <ele>2032.864</ele>
        <time>2021-03-23T11:09:33Z</time>
      </trkpt>
      <trkpt lat="42.82241" lon="1.75174">
        <ele>2032.872</ele>
        <time>2021-03-23T11:09:35Z</time>
      </trkpt>
      <trkpt lat="42.82242" lon="1.75174">
        <ele>2033.028</ele>
        <time>2021-03-23T11:09:37Z</time>
      </trkpt>
      <trkpt lat="42.82242" lon="1.75174">
        <ele>2033.01</ele>
        <time>2021-03-23T11:09:39Z</time>
      </trkpt>
      <trkpt lat="42.82242" lon="1.75174">
        <ele>2032.987</ele>
        <time>2021-03-23T11:09:41Z</time>
      </trkpt>
      <trkpt lat="42.82242" lon="1.75174">
        <ele>2032.997</ele>
        <time>2021-03-23T11:09:43Z</time>
      </trkpt>
      <trkpt lat="42.82242" lon="1.75174">
        <ele>2032.969</ele>
        <time>2021-03-23T11:09:45Z</time>
      </trkpt>
      <trkpt lat="42.82242" lon="1.75174">
        <ele>2032.951</ele>
        <time>2021-03-23T11:09:47Z</time>
      </trkpt>
      <trkpt lat="42.82242" lon="1.75174">
        <ele>2032.947</ele>
        <time>2021-03-23T11:09:49Z</time>
      </trkpt>
      <trkpt lat="42.82242" lon="1.75174">
        <ele>2032.937</ele>
        <time>2021-03-23T11:09:51Z</time>
      </trkpt>
      <trkpt lat="42.82242" lon="1.75174">
        <ele>2032.626</ele>
        <time>2021-03-23T11:09:53Z</time>
      </trkpt>
      <trkpt lat="42.82241" lon="1.75174">
        <ele>2032.055</ele>
        <time>2021-03-23T11:09:55Z</time>
      </trkpt>
      <trkpt lat="42.8224" lon="1.75174">
        <ele>2031.855</ele>
        <time>2021-03-23T11:09:57Z</time>
      </trkpt>
      <trkpt lat="42.82239" lon="1.75175">
        <ele>2030.881</ele>
        <time>2021-03-23T11:09:59Z</time>
      </trkpt>
      <trkpt lat="42.82239" lon="1.75175">
        <ele>2030.287</ele>
        <time>2021-03-23T11:10:01Z</time>
      </trkpt>
      <trkpt lat="42.82238" lon="1.75175">
        <ele>2029.761</ele>
        <time>2021-03-23T11:10:03Z</time>
      </trkpt>
      <trkpt lat="42.82237" lon="1.75176">
        <ele>2029.149</ele>
        <time>2021-03-23T11:10:05Z</time>
      </trkpt>
      <trkpt lat="42.82236" lon="1.75177">
        <ele>2029.174</ele>
        <time>2021-03-23T11:10:07Z</time>
      </trkpt>
      <trkpt lat="42.82235" lon="1.75177">
        <ele>2029.483</ele>
        <time>2021-03-23T11:10:09Z</time>
      </trkpt>
      <trkpt lat="42.82234" lon="1.75178">
        <ele>2028.979</ele>
        <time>2021-03-23T11:10:11Z</time>
      </trkpt>
      <trkpt lat="42.82233" lon="1.75178">
        <ele>2027.391</ele>
        <time>2021-03-23T11:10:13Z</time>
      </trkpt>
      <trkpt lat="42.82232" lon="1.75178">
        <ele>2026.816</ele>
        <time>2021-03-23T11:10:15Z</time>
      </trkpt>
      <trkpt lat="42.8223" lon="1.75178">
        <ele>2026.795</ele>
        <time>2021-03-23T11:10:17Z</time>
      </trkpt>
      <trkpt lat="42.8223" lon="1.75178">
        <ele>2026.218</ele>
        <time>2021-03-23T11:10:19Z</time>
      </trkpt>
      <trkpt lat="42.82228" lon="1.75178">
        <ele>2025.806</ele>
        <time>2021-03-23T11:10:21Z</time>
      </trkpt>
      <trkpt lat="42.82229" lon="1.75178">
        <ele>2024.311</ele>
        <time>2021-03-23T11:10:23Z</time>
      </trkpt>
      <trkpt lat="42.82229" lon="1.75178">
        <ele>2024.275</ele>
        <time>2021-03-23T11:10:25Z</time>
      </trkpt>
      <trkpt lat="42.82229" lon="1.75178">
        <ele>2024.247</ele>
        <time>2021-03-23T11:10:27Z</time>
      </trkpt>
      <trkpt lat="42.82228" lon="1.75177">
        <ele>2024.289</ele>
        <time>2021-03-23T11:10:29Z</time>
      </trkpt>
      <trkpt lat="42.82228" lon="1.75177">
        <ele>2023.171</ele>
        <time>2021-03-23T11:10:31Z</time>
      </trkpt>
      <trkpt lat="42.82228" lon="1.75175">
        <ele>2023.341</ele>
        <time>2021-03-23T11:10:33Z</time>
      </trkpt>
      <trkpt lat="42.82228" lon="1.75175">
        <ele>2023.603</ele>
        <time>2021-03-23T11:10:35Z</time>
      </trkpt>
      <trkpt lat="42.82229" lon="1.75175">
        <ele>2023.54</ele>
        <time>2021-03-23T11:10:37Z</time>
      </trkpt>
      <trkpt lat="42.82229" lon="1.75173">
        <ele>2024.325</ele>
        <time>2021-03-23T11:10:39Z</time>
      </trkpt>
      <trkpt lat="42.82229" lon="1.75172">
        <ele>2024.306</ele>
        <time>2021-03-23T11:10:41Z</time>
      </trkpt>
      <trkpt lat="42.82229" lon="1.75172">
        <ele>2024.28</ele>
        <time>2021-03-23T11:10:43Z</time>
      </trkpt>
      <trkpt lat="42.82229" lon="1.75172">
        <ele>2023.726</ele>
        <time>2021-03-23T11:10:45Z</time>
      </trkpt>
      <trkpt lat="42.82229" lon="1.75172">
        <ele>2023.022</ele>
        <time>2021-03-23T11:10:47Z</time>
      </trkpt>
      <trkpt lat="42.82229" lon="1.75171">
        <ele>2023.386</ele>
        <time>2021-03-23T11:10:49Z</time>
      </trkpt>
      <trkpt lat="42.82229" lon="1.75169">
        <ele>2022.409</ele>
        <time>2021-03-23T11:10:51Z</time>
      </trkpt>
      <trkpt lat="42.82229" lon="1.75168">
        <ele>2022.077</ele>
        <time>2021-03-23T11:10:53Z</time>
      </trkpt>
      <trkpt lat="42.82229" lon="1.75168">
        <ele>2022.102</ele>
        <time>2021-03-23T11:10:55Z</time>
      </trkpt>
      <trkpt lat="42.82229" lon="1.75168">
        <ele>2022.078</ele>
        <time>2021-03-23T11:10:57Z</time>
      </trkpt>
      <trkpt lat="42.82229" lon="1.75167">
        <ele>2022.042</ele>
        <time>2021-03-23T11:10:59Z</time>
      </trkpt>
      <trkpt lat="42.82228" lon="1.75167">
        <ele>2022.068</ele>
        <time>2021-03-23T11:11:01Z</time>
      </trkpt>
      <trkpt lat="42.82227" lon="1.75166">
        <ele>2023.235</ele>
        <time>2021-03-23T11:11:03Z</time>
      </trkpt>
      <trkpt lat="42.82226" lon="1.75165">
        <ele>2021.908</ele>
        <time>2021-03-23T11:11:05Z</time>
      </trkpt>
      <trkpt lat="42.82226" lon="1.75165">
        <ele>2022.093</ele>
        <time>2021-03-23T11:11:07Z</time>
      </trkpt>
      <trkpt lat="42.82225" lon="1.75164">
        <ele>2021.911</ele>
        <time>2021-03-23T11:11:09Z</time>
      </trkpt>
      <trkpt lat="42.82225" lon="1.75164">
        <ele>2021.897</ele>
        <time>2021-03-23T11:11:11Z</time>
      </trkpt>
      <trkpt lat="42.82225" lon="1.75163">
        <ele>2021.094</ele>
        <time>2021-03-23T11:11:13Z</time>
      </trkpt>
      <trkpt lat="42.82225" lon="1.75162">
        <ele>2020.848</ele>
        <time>2021-03-23T11:11:15Z</time>
      </trkpt>
      <trkpt lat="42.82225" lon="1.75161">
        <ele>2020.392</ele>
        <time>2021-03-23T11:11:17Z</time>
      </trkpt>
      <trkpt lat="42.82225" lon="1.75161">
        <ele>2019.844</ele>
        <time>2021-03-23T11:11:19Z</time>
      </trkpt>
      <trkpt lat="42.82226" lon="1.75161">
        <ele>2019.825</ele>
        <time>2021-03-23T11:11:21Z</time>
      </trkpt>
      <trkpt lat="42.82226" lon="1.75161">
        <ele>2019.549</ele>
        <time>2021-03-23T11:11:23Z</time>
      </trkpt>
      <trkpt lat="42.82226" lon="1.75161">
        <ele>2019.508</ele>
        <time>2021-03-23T11:11:25Z</time>
      </trkpt>
      <trkpt lat="42.82226" lon="1.75161">
        <ele>2019.155</ele>
        <time>2021-03-23T11:11:27Z</time>
      </trkpt>
      <trkpt lat="42.82226" lon="1.7516">
        <ele>2018.601</ele>
        <time>2021-03-23T11:11:29Z</time>
      </trkpt>
      <trkpt lat="42.82225" lon="1.7516">
        <ele>2018.841</ele>
        <time>2021-03-23T11:11:31Z</time>
      </trkpt>
      <trkpt lat="42.82223" lon="1.75158">
        <ele>2019.14</ele>
        <time>2021-03-23T11:11:33Z</time>
      </trkpt>
      <trkpt lat="42.82223" lon="1.75158">
        <ele>2019.316</ele>
        <time>2021-03-23T11:11:34Z</time>
      </trkpt>
      <trkpt lat="42.82222" lon="1.75157">
        <ele>2019.61</ele>
        <time>2021-03-23T11:11:37Z</time>
      </trkpt>
      <trkpt lat="42.8222" lon="1.75157">
        <ele>2018.982</ele>
        <time>2021-03-23T11:11:39Z</time>
      </trkpt>
      <trkpt lat="42.82219" lon="1.75157">
        <ele>2019.192</ele>
        <time>2021-03-23T11:11:41Z</time>
      </trkpt>
      <trkpt lat="42.82219" lon="1.75157">
        <ele>2018.059</ele>
        <time>2021-03-23T11:11:43Z</time>
      </trkpt>
      <trkpt lat="42.82218" lon="1.75157">
        <ele>2018.149</ele>
        <time>2021-03-23T11:11:45Z</time>
      </trkpt>
      <trkpt lat="42.82218" lon="1.75156">
        <ele>2017.724</ele>
        <time>2021-03-23T11:11:47Z</time>
      </trkpt>
      <trkpt lat="42.82218" lon="1.75155">
        <ele>2017.006</ele>
        <time>2021-03-23T11:11:49Z</time>
      </trkpt>
      <trkpt lat="42.82217" lon="1.75154">
        <ele>2016.991</ele>
        <time>2021-03-23T11:11:51Z</time>
      </trkpt>
      <trkpt lat="42.82218" lon="1.75153">
        <ele>2015.296</ele>
        <time>2021-03-23T11:11:53Z</time>
      </trkpt>
      <trkpt lat="42.82218" lon="1.75152">
        <ele>2014.356</ele>
        <time>2021-03-23T11:11:55Z</time>
      </trkpt>
      <trkpt lat="42.82219" lon="1.7515">
        <ele>2013.272</ele>
        <time>2021-03-23T11:11:57Z</time>
      </trkpt>
      <trkpt lat="42.82219" lon="1.7515">
        <ele>2012.984</ele>
        <time>2021-03-23T11:11:59Z</time>
      </trkpt>
      <trkpt lat="42.8222" lon="1.75149">
        <ele>2012.234</ele>
        <time>2021-03-23T11:12:01Z</time>
      </trkpt>
      <trkpt lat="42.8222" lon="1.75147">
        <ele>2011.177</ele>
        <time>2021-03-23T11:12:03Z</time>
      </trkpt>
      <trkpt lat="42.8222" lon="1.75146">
        <ele>2009.2</ele>
        <time>2021-03-23T11:12:05Z</time>
      </trkpt>
      <trkpt lat="42.8222" lon="1.75145">
        <ele>2009.103</ele>
        <time>2021-03-23T11:12:07Z</time>
      </trkpt>
      <trkpt lat="42.8222" lon="1.75145">
        <ele>2008.891</ele>
        <time>2021-03-23T11:12:09Z</time>
      </trkpt>
      <trkpt lat="42.82219" lon="1.75145">
        <ele>2008.345</ele>
        <time>2021-03-23T11:12:11Z</time>
      </trkpt>
      <trkpt lat="42.82218" lon="1.75145">
        <ele>2007.805</ele>
        <time>2021-03-23T11:12:13Z</time>
      </trkpt>
      <trkpt lat="42.82216" lon="1.75144">
        <ele>2007.069</ele>
        <time>2021-03-23T11:12:15Z</time>
      </trkpt>
      <trkpt lat="42.82216" lon="1.75143">
        <ele>2005.885</ele>
        <time>2021-03-23T11:12:17Z</time>
      </trkpt>
      <trkpt lat="42.82215" lon="1.75143">
        <ele>2004.534</ele>
        <time>2021-03-23T11:12:19Z</time>
      </trkpt>
      <trkpt lat="42.82214" lon="1.75142">
        <ele>2004.253</ele>
        <time>2021-03-23T11:12:21Z</time>
      </trkpt>
      <trkpt lat="42.82214" lon="1.75141">
        <ele>2002.806</ele>
        <time>2021-03-23T11:12:23Z</time>
      </trkpt>
      <trkpt lat="42.82214" lon="1.7514">
        <ele>2001.949</ele>
        <time>2021-03-23T11:12:25Z</time>
      </trkpt>
      <trkpt lat="42.82213" lon="1.75139">
        <ele>2001.528</ele>
        <time>2021-03-23T11:12:27Z</time>
      </trkpt>
      <trkpt lat="42.82213" lon="1.75138">
        <ele>2000.872</ele>
        <time>2021-03-23T11:12:29Z</time>
      </trkpt>
      <trkpt lat="42.82212" lon="1.75137">
        <ele>1999.847</ele>
        <time>2021-03-23T11:12:31Z</time>
      </trkpt>
      <trkpt lat="42.82211" lon="1.75136">
        <ele>1999.433</ele>
        <time>2021-03-23T11:12:33Z</time>
      </trkpt>
      <trkpt lat="42.8221" lon="1.75135">
        <ele>1999.95</ele>
        <time>2021-03-23T11:12:35Z</time>
      </trkpt>
      <trkpt lat="42.8221" lon="1.75136">
        <ele>2000.095</ele>
        <time>2021-03-23T11:12:37Z</time>
      </trkpt>
      <trkpt lat="42.8221" lon="1.75136">
        <ele>1999.857</ele>
        <time>2021-03-23T11:12:39Z</time>
      </trkpt>
      <trkpt lat="42.8221" lon="1.75136">
        <ele>1999.857</ele>
        <time>2021-03-23T11:12:41Z</time>
      </trkpt>
      <trkpt lat="42.8221" lon="1.75136">
        <ele>1999.773</ele>
        <time>2021-03-23T11:12:43Z</time>
      </trkpt>
      <trkpt lat="42.8221" lon="1.75135">
        <ele>1999.775</ele>
        <time>2021-03-23T11:12:45Z</time>
      </trkpt>
      <trkpt lat="42.8221" lon="1.75135">
        <ele>1999.779</ele>
        <time>2021-03-23T11:12:47Z</time>
      </trkpt>
      <trkpt lat="42.8221" lon="1.75136">
        <ele>1999.771</ele>
        <time>2021-03-23T11:12:49Z</time>
      </trkpt>
      <trkpt lat="42.8221" lon="1.75136">
        <ele>1999.767</ele>
        <time>2021-03-23T11:12:51Z</time>
      </trkpt>
      <trkpt lat="42.8221" lon="1.75135">
        <ele>1999.654</ele>
        <time>2021-03-23T11:12:53Z</time>
      </trkpt>
      <trkpt lat="42.82209" lon="1.75134">
        <ele>1999.519</ele>
        <time>2021-03-23T11:12:55Z</time>
      </trkpt>
      <trkpt lat="42.82208" lon="1.75133">
        <ele>1999.106</ele>
        <time>2021-03-23T11:12:57Z</time>
      </trkpt>
      <trkpt lat="42.82207" lon="1.75132">
        <ele>1999.091</ele>
        <time>2021-03-23T11:12:59Z</time>
      </trkpt>
      <trkpt lat="42.82206" lon="1.75131">
        <ele>1998.708</ele>
        <time>2021-03-23T11:13:01Z</time>
      </trkpt>
      <trkpt lat="42.82205" lon="1.7513">
        <ele>1998.016</ele>
        <time>2021-03-23T11:13:03Z</time>
      </trkpt>
      <trkpt lat="42.82203" lon="1.75128">
        <ele>1998.097</ele>
        <time>2021-03-23T11:13:06Z</time>
      </trkpt>
      <trkpt lat="42.82202" lon="1.75127">
        <ele>1997.61</ele>
        <time>2021-03-23T11:13:08Z</time>
      </trkpt>
      <trkpt lat="42.82201" lon="1.75127">
        <ele>1997.456</ele>
        <time>2021-03-23T11:13:10Z</time>
      </trkpt>
      <trkpt lat="42.822" lon="1.75126">
        <ele>1997.352</ele>
        <time>2021-03-23T11:13:12Z</time>
      </trkpt>
      <trkpt lat="42.822" lon="1.75125">
        <ele>1996.367</ele>
        <time>2021-03-23T11:13:14Z</time>
      </trkpt>
      <trkpt lat="42.82199" lon="1.75125">
        <ele>1995.935</ele>
        <time>2021-03-23T11:13:16Z</time>
      </trkpt>
      <trkpt lat="42.82199" lon="1.75124">
        <ele>1996.087</ele>
        <time>2021-03-23T11:13:17Z</time>
      </trkpt>
      <trkpt lat="42.82199" lon="1.75124">
        <ele>1996.078</ele>
        <time>2021-03-23T11:13:20Z</time>
      </trkpt>
      <trkpt lat="42.82199" lon="1.75124">
        <ele>1996.074</ele>
        <time>2021-03-23T11:13:22Z</time>
      </trkpt>
      <trkpt lat="42.82199" lon="1.75124">
        <ele>1996.067</ele>
        <time>2021-03-23T11:13:24Z</time>
      </trkpt>
      <trkpt lat="42.82199" lon="1.75124">
        <ele>1996.066</ele>
        <time>2021-03-23T11:13:26Z</time>
      </trkpt>
      <trkpt lat="42.82199" lon="1.75124">
        <ele>1996.065</ele>
        <time>2021-03-23T11:13:28Z</time>
      </trkpt>
      <trkpt lat="42.82199" lon="1.75124">
        <ele>1996.066</ele>
        <time>2021-03-23T11:13:30Z</time>
      </trkpt>
      <trkpt lat="42.82199" lon="1.75124">
        <ele>1996.069</ele>
        <time>2021-03-23T11:13:32Z</time>
      </trkpt>
      <trkpt lat="42.82199" lon="1.75124">
        <ele>1996.068</ele>
        <time>2021-03-23T11:13:34Z</time>
      </trkpt>
      <trkpt lat="42.82199" lon="1.75124">
        <ele>1996.063</ele>
        <time>2021-03-23T11:13:36Z</time>
      </trkpt>
      <trkpt lat="42.82199" lon="1.75124">
        <ele>1996.449</ele>
        <time>2021-03-23T11:13:38Z</time>
      </trkpt>
      <trkpt lat="42.82199" lon="1.75123">
        <ele>1997.232</ele>
        <time>2021-03-23T11:13:40Z</time>
      </trkpt>
      <trkpt lat="42.82198" lon="1.75122">
        <ele>1996.966</ele>
        <time>2021-03-23T11:13:42Z</time>
      </trkpt>
      <trkpt lat="42.82198" lon="1.75121">
        <ele>1996.205</ele>
        <time>2021-03-23T11:13:44Z</time>
      </trkpt>
      <trkpt lat="42.82197" lon="1.75121">
        <ele>1995.801</ele>
        <time>2021-03-23T11:13:46Z</time>
      </trkpt>
      <trkpt lat="42.82196" lon="1.7512">
        <ele>1995.194</ele>
        <time>2021-03-23T11:13:48Z</time>
      </trkpt>
      <trkpt lat="42.82195" lon="1.75119">
        <ele>1994.441</ele>
        <time>2021-03-23T11:13:50Z</time>
      </trkpt>
      <trkpt lat="42.82195" lon="1.75119">
        <ele>1993.381</ele>
        <time>2021-03-23T11:13:52Z</time>
      </trkpt>
      <trkpt lat="42.82194" lon="1.75118">
        <ele>1992.812</ele>
        <time>2021-03-23T11:13:54Z</time>
      </trkpt>
      <trkpt lat="42.82193" lon="1.75117">
        <ele>1992.444</ele>
        <time>2021-03-23T11:13:56Z</time>
      </trkpt>
      <trkpt lat="42.82193" lon="1.75116">
        <ele>1991.904</ele>
        <time>2021-03-23T11:13:58Z</time>
      </trkpt>
      <trkpt lat="42.82192" lon="1.75116">
        <ele>1990.817</ele>
        <time>2021-03-23T11:14:00Z</time>
      </trkpt>
      <trkpt lat="42.82191" lon="1.75115">
        <ele>1989.875</ele>
        <time>2021-03-23T11:14:02Z</time>
      </trkpt>
      <trkpt lat="42.8219" lon="1.75114">
        <ele>1989.849</ele>
        <time>2021-03-23T11:14:04Z</time>
      </trkpt>
      <trkpt lat="42.82189" lon="1.75113">
        <ele>1988.881</ele>
        <time>2021-03-23T11:14:06Z</time>
      </trkpt>
      <trkpt lat="42.82188" lon="1.75112">
        <ele>1989.054</ele>
        <time>2021-03-23T11:14:08Z</time>
      </trkpt>
      <trkpt lat="42.82188" lon="1.75112">
        <ele>1988.615</ele>
        <time>2021-03-23T11:14:10Z</time>
      </trkpt>
      <trkpt lat="42.82188" lon="1.75112">
        <ele>1988.605</ele>
        <time>2021-03-23T11:14:12Z</time>
      </trkpt>
      <trkpt lat="42.82188" lon="1.75112">
        <ele>1988.599</ele>
        <time>2021-03-23T11:14:14Z</time>
      </trkpt>
      <trkpt lat="42.82188" lon="1.75112">
        <ele>1988.585</ele>
        <time>2021-03-23T11:14:16Z</time>
      </trkpt>
      <trkpt lat="42.82188" lon="1.75112">
        <ele>1988.578</ele>
        <time>2021-03-23T11:14:18Z</time>
      </trkpt>
      <trkpt lat="42.82188" lon="1.75112">
        <ele>1988.57</ele>
        <time>2021-03-23T11:14:20Z</time>
      </trkpt>
      <trkpt lat="42.82187" lon="1.75112">
        <ele>1988.624</ele>
        <time>2021-03-23T11:14:22Z</time>
      </trkpt>
      <trkpt lat="42.82186" lon="1.75111">
        <ele>1986.965</ele>
        <time>2021-03-23T11:14:24Z</time>
      </trkpt>
      <trkpt lat="42.82185" lon="1.75109">
        <ele>1986.103</ele>
        <time>2021-03-23T11:14:26Z</time>
      </trkpt>
      <trkpt lat="42.82183" lon="1.75108">
        <ele>1986.24</ele>
        <time>2021-03-23T11:14:28Z</time>
      </trkpt>
      <trkpt lat="42.82182" lon="1.75107">
        <ele>1985.765</ele>
        <time>2021-03-23T11:14:30Z</time>
      </trkpt>
      <trkpt lat="42.82181" lon="1.75105">
        <ele>1984.92</ele>
        <time>2021-03-23T11:14:32Z</time>
      </trkpt>
      <trkpt lat="42.8218" lon="1.75104">
        <ele>1983.883</ele>
        <time>2021-03-23T11:14:34Z</time>
      </trkpt>
      <trkpt lat="42.82179" lon="1.75103">
        <ele>1982.988</ele>
        <time>2021-03-23T11:14:36Z</time>
      </trkpt>
      <trkpt lat="42.82178" lon="1.75102">
        <ele>1983.201</ele>
        <time>2021-03-23T11:14:38Z</time>
      </trkpt>
      <trkpt lat="42.82177" lon="1.75101">
        <ele>1982.743</ele>
        <time>2021-03-23T11:14:40Z</time>
      </trkpt>
      <trkpt lat="42.82175" lon="1.75099">
        <ele>1982.405</ele>
        <time>2021-03-23T11:14:42Z</time>
      </trkpt>
      <trkpt lat="42.82174" lon="1.75098">
        <ele>1982.106</ele>
        <time>2021-03-23T11:14:44Z</time>
      </trkpt>
      <trkpt lat="42.82173" lon="1.75097">
        <ele>1981.996</ele>
        <time>2021-03-23T11:14:46Z</time>
      </trkpt>
      <trkpt lat="42.82171" lon="1.75095">
        <ele>1981.9</ele>
        <time>2021-03-23T11:14:48Z</time>
      </trkpt>
      <trkpt lat="42.8217" lon="1.75094">
        <ele>1981.887</ele>
        <time>2021-03-23T11:14:50Z</time>
      </trkpt>
      <trkpt lat="42.82169" lon="1.75093">
        <ele>1981.72</ele>
        <time>2021-03-23T11:14:52Z</time>
      </trkpt>
      <trkpt lat="42.82168" lon="1.75092">
        <ele>1981.632</ele>
        <time>2021-03-23T11:14:54Z</time>
      </trkpt>
      <trkpt lat="42.82167" lon="1.75092">
        <ele>1981.866</ele>
        <time>2021-03-23T11:14:56Z</time>
      </trkpt>
      <trkpt lat="42.82166" lon="1.75091">
        <ele>1981.25</ele>
        <time>2021-03-23T11:14:58Z</time>
      </trkpt>
      <trkpt lat="42.82165" lon="1.75091">
        <ele>1980.934</ele>
        <time>2021-03-23T11:15:00Z</time>
      </trkpt>
      <trkpt lat="42.82164" lon="1.7509">
        <ele>1980.39</ele>
        <time>2021-03-23T11:15:02Z</time>
      </trkpt>
      <trkpt lat="42.82163" lon="1.75089">
        <ele>1980.439</ele>
        <time>2021-03-23T11:15:04Z</time>
      </trkpt>
      <trkpt lat="42.82162" lon="1.75088">
        <ele>1980.401</ele>
        <time>2021-03-23T11:15:06Z</time>
      </trkpt>
      <trkpt lat="42.82161" lon="1.75087">
        <ele>1980.603</ele>
        <time>2021-03-23T11:15:08Z</time>
      </trkpt>
      <trkpt lat="42.8216" lon="1.75087">
        <ele>1980.614</ele>
        <time>2021-03-23T11:15:10Z</time>
      </trkpt>
      <trkpt lat="42.82159" lon="1.75086">
        <ele>1980.096</ele>
        <time>2021-03-23T11:15:12Z</time>
      </trkpt>
      <trkpt lat="42.82158" lon="1.75085">
        <ele>1979.419</ele>
        <time>2021-03-23T11:15:14Z</time>
      </trkpt>
      <trkpt lat="42.82157" lon="1.75085">
        <ele>1979.089</ele>
        <time>2021-03-23T11:15:16Z</time>
      </trkpt>
      <trkpt lat="42.82155" lon="1.75084">
        <ele>1978.773</ele>
        <time>2021-03-23T11:15:18Z</time>
      </trkpt>
      <trkpt lat="42.82155" lon="1.75084">
        <ele>1978.287</ele>
        <time>2021-03-23T11:15:20Z</time>
      </trkpt>
      <trkpt lat="42.82153" lon="1.75083">
        <ele>1978.727</ele>
        <time>2021-03-23T11:15:22Z</time>
      </trkpt>
      <trkpt lat="42.82152" lon="1.75083">
        <ele>1978.813</ele>
        <time>2021-03-23T11:15:24Z</time>
      </trkpt>
      <trkpt lat="42.82151" lon="1.75083">
        <ele>1978.007</ele>
        <time>2021-03-23T11:15:26Z</time>
      </trkpt>
      <trkpt lat="42.8215" lon="1.75083">
        <ele>1978.293</ele>
        <time>2021-03-23T11:15:28Z</time>
      </trkpt>
      <trkpt lat="42.82149" lon="1.75082">
        <ele>1977.731</ele>
        <time>2021-03-23T11:15:30Z</time>
      </trkpt>
      <trkpt lat="42.82148" lon="1.75082">
        <ele>1977.447</ele>
        <time>2021-03-23T11:15:32Z</time>
      </trkpt>
      <trkpt lat="42.82147" lon="1.75081">
        <ele>1978.446</ele>
        <time>2021-03-23T11:15:34Z</time>
      </trkpt>
      <trkpt lat="42.82146" lon="1.7508">
        <ele>1977.085</ele>
        <time>2021-03-23T11:15:36Z</time>
      </trkpt>
      <trkpt lat="42.82145" lon="1.7508">
        <ele>1976.472</ele>
        <time>2021-03-23T11:15:38Z</time>
      </trkpt>
      <trkpt lat="42.82144" lon="1.7508">
        <ele>1976.202</ele>
        <time>2021-03-23T11:15:40Z</time>
      </trkpt>
      <trkpt lat="42.82143" lon="1.75079">
        <ele>1975.72</ele>
        <time>2021-03-23T11:15:42Z</time>
      </trkpt>
      <trkpt lat="42.82141" lon="1.75079">
        <ele>1975.851</ele>
        <time>2021-03-23T11:15:44Z</time>
      </trkpt>
      <trkpt lat="42.8214" lon="1.75078">
        <ele>1975.832</ele>
        <time>2021-03-23T11:15:46Z</time>
      </trkpt>
      <trkpt lat="42.82138" lon="1.75078">
        <ele>1976.4</ele>
        <time>2021-03-23T11:15:48Z</time>
      </trkpt>
      <trkpt lat="42.82137" lon="1.75077">
        <ele>1976.232</ele>
        <time>2021-03-23T11:15:50Z</time>
      </trkpt>
      <trkpt lat="42.82135" lon="1.75077">
        <ele>1975.659</ele>
        <time>2021-03-23T11:15:52Z</time>
      </trkpt>
      <trkpt lat="42.82134" lon="1.75076">
        <ele>1975.286</ele>
        <time>2021-03-23T11:15:54Z</time>
      </trkpt>
      <trkpt lat="42.82133" lon="1.75075">
        <ele>1974.54</ele>
        <time>2021-03-23T11:15:56Z</time>
      </trkpt>
      <trkpt lat="42.82132" lon="1.75074">
        <ele>1974.576</ele>
        <time>2021-03-23T11:15:58Z</time>
      </trkpt>
      <trkpt lat="42.82131" lon="1.75074">
        <ele>1973.787</ele>
        <time>2021-03-23T11:16:00Z</time>
      </trkpt>
      <trkpt lat="42.8213" lon="1.75073">
        <ele>1974.022</ele>
        <time>2021-03-23T11:16:02Z</time>
      </trkpt>
      <trkpt lat="42.82129" lon="1.75073">
        <ele>1973.632</ele>
        <time>2021-03-23T11:16:04Z</time>
      </trkpt>
      <trkpt lat="42.82128" lon="1.75073">
        <ele>1973.646</ele>
        <time>2021-03-23T11:16:06Z</time>
      </trkpt>
      <trkpt lat="42.82127" lon="1.75072">
        <ele>1973.067</ele>
        <time>2021-03-23T11:16:08Z</time>
      </trkpt>
      <trkpt lat="42.82127" lon="1.75072">
        <ele>1973.468</ele>
        <time>2021-03-23T11:16:10Z</time>
      </trkpt>
      <trkpt lat="42.82126" lon="1.75071">
        <ele>1972.526</ele>
        <time>2021-03-23T11:16:12Z</time>
      </trkpt>
      <trkpt lat="42.82125" lon="1.75071">
        <ele>1972.243</ele>
        <time>2021-03-23T11:16:14Z</time>
      </trkpt>
      <trkpt lat="42.82123" lon="1.7507">
        <ele>1972.752</ele>
        <time>2021-03-23T11:16:16Z</time>
      </trkpt>
      <trkpt lat="42.82122" lon="1.7507">
        <ele>1972.115</ele>
        <time>2021-03-23T11:16:18Z</time>
      </trkpt>
      <trkpt lat="42.82121" lon="1.7507">
        <ele>1972.15</ele>
        <time>2021-03-23T11:16:20Z</time>
      </trkpt>
      <trkpt lat="42.8212" lon="1.7507">
        <ele>1971.909</ele>
        <time>2021-03-23T11:16:22Z</time>
      </trkpt>
      <trkpt lat="42.8212" lon="1.7507">
        <ele>1971.474</ele>
        <time>2021-03-23T11:16:24Z</time>
      </trkpt>
      <trkpt lat="42.82119" lon="1.7507">
        <ele>1971.735</ele>
        <time>2021-03-23T11:16:26Z</time>
      </trkpt>
      <trkpt lat="42.82119" lon="1.75071">
        <ele>1971.341</ele>
        <time>2021-03-23T11:16:28Z</time>
      </trkpt>
      <trkpt lat="42.82119" lon="1.75071">
        <ele>1971.168</ele>
        <time>2021-03-23T11:16:30Z</time>
      </trkpt>
      <trkpt lat="42.82119" lon="1.75071">
        <ele>1971.166</ele>
        <time>2021-03-23T11:16:32Z</time>
      </trkpt>
      <trkpt lat="42.82119" lon="1.75071">
        <ele>1971.158</ele>
        <time>2021-03-23T11:16:34Z</time>
      </trkpt>
      <trkpt lat="42.82119" lon="1.75071">
        <ele>1971.159</ele>
        <time>2021-03-23T11:16:36Z</time>
      </trkpt>
      <trkpt lat="42.82119" lon="1.75071">
        <ele>1970.846</ele>
        <time>2021-03-23T11:16:38Z</time>
      </trkpt>
      <trkpt lat="42.82118" lon="1.7507">
        <ele>1969.747</ele>
        <time>2021-03-23T11:16:40Z</time>
      </trkpt>
      <trkpt lat="42.82116" lon="1.75069">
        <ele>1969.922</ele>
        <time>2021-03-23T11:16:42Z</time>
      </trkpt>
      <trkpt lat="42.82115" lon="1.75068">
        <ele>1969.451</ele>
        <time>2021-03-23T11:16:44Z</time>
      </trkpt>
      <trkpt lat="42.82115" lon="1.75067">
        <ele>1968.262</ele>
        <time>2021-03-23T11:16:46Z</time>
      </trkpt>
      <trkpt lat="42.82114" lon="1.75066">
        <ele>1966.702</ele>
        <time>2021-03-23T11:16:48Z</time>
      </trkpt>
      <trkpt lat="42.82114" lon="1.75065">
        <ele>1966.705</ele>
        <time>2021-03-23T11:16:50Z</time>
      </trkpt>
      <trkpt lat="42.82114" lon="1.75064">
        <ele>1966.642</ele>
        <time>2021-03-23T11:16:52Z</time>
      </trkpt>
      <trkpt lat="42.82114" lon="1.75064">
        <ele>1966.63</ele>
        <time>2021-03-23T11:16:54Z</time>
      </trkpt>
      <trkpt lat="42.82114" lon="1.75064">
        <ele>1966.191</ele>
        <time>2021-03-23T11:16:56Z</time>
      </trkpt>
      <trkpt lat="42.82113" lon="1.75064">
        <ele>1965.554</ele>
        <time>2021-03-23T11:16:58Z</time>
      </trkpt>
      <trkpt lat="42.82113" lon="1.75063">
        <ele>1964.707</ele>
        <time>2021-03-23T11:17:00Z</time>
      </trkpt>
      <trkpt lat="42.82112" lon="1.75063">
        <ele>1964.247</ele>
        <time>2021-03-23T11:17:02Z</time>
      </trkpt>
      <trkpt lat="42.82112" lon="1.75063">
        <ele>1964.607</ele>
        <time>2021-03-23T11:17:04Z</time>
      </trkpt>
      <trkpt lat="42.82111" lon="1.75062">
        <ele>1965.35</ele>
        <time>2021-03-23T11:17:06Z</time>
      </trkpt>
      <trkpt lat="42.8211" lon="1.75062">
        <ele>1964.589</ele>
        <time>2021-03-23T11:17:08Z</time>
      </trkpt>
      <trkpt lat="42.82109" lon="1.75062">
        <ele>1963.337</ele>
        <time>2021-03-23T11:17:10Z</time>
      </trkpt>
      <trkpt lat="42.82108" lon="1.75062">
        <ele>1962.171</ele>
        <time>2021-03-23T11:17:12Z</time>
      </trkpt>
      <trkpt lat="42.82107" lon="1.75062">
        <ele>1961.807</ele>
        <time>2021-03-23T11:17:14Z</time>
      </trkpt>
      <trkpt lat="42.82106" lon="1.75061">
        <ele>1961.541</ele>
        <time>2021-03-23T11:17:16Z</time>
      </trkpt>
      <trkpt lat="42.82105" lon="1.7506">
        <ele>1961.248</ele>
        <time>2021-03-23T11:17:18Z</time>
      </trkpt>
      <trkpt lat="42.82104" lon="1.75059">
        <ele>1961.799</ele>
        <time>2021-03-23T11:17:20Z</time>
      </trkpt>
      <trkpt lat="42.82103" lon="1.75058">
        <ele>1961.986</ele>
        <time>2021-03-23T11:17:22Z</time>
      </trkpt>
      <trkpt lat="42.82101" lon="1.75057">
        <ele>1960.956</ele>
        <time>2021-03-23T11:17:24Z</time>
      </trkpt>
      <trkpt lat="42.821" lon="1.75056">
        <ele>1960.591</ele>
        <time>2021-03-23T11:17:26Z</time>
      </trkpt>
      <trkpt lat="42.82099" lon="1.75056">
        <ele>1960.066</ele>
        <time>2021-03-23T11:17:27Z</time>
      </trkpt>
      <trkpt lat="42.82098" lon="1.75055">
        <ele>1958.826</ele>
        <time>2021-03-23T11:17:30Z</time>
      </trkpt>
      <trkpt lat="42.82096" lon="1.75054">
        <ele>1958.291</ele>
        <time>2021-03-23T11:17:32Z</time>
      </trkpt>
      <trkpt lat="42.82095" lon="1.75054">
        <ele>1958.117</ele>
        <time>2021-03-23T11:17:34Z</time>
      </trkpt>
      <trkpt lat="42.82094" lon="1.75053">
        <ele>1956.933</ele>
        <time>2021-03-23T11:17:36Z</time>
      </trkpt>
      <trkpt lat="42.82093" lon="1.75053">
        <ele>1956.923</ele>
        <time>2021-03-23T11:17:38Z</time>
      </trkpt>
      <trkpt lat="42.82091" lon="1.75051">
        <ele>1956.191</ele>
        <time>2021-03-23T11:17:41Z</time>
      </trkpt>
      <trkpt lat="42.8209" lon="1.7505">
        <ele>1954.962</ele>
        <time>2021-03-23T11:17:43Z</time>
      </trkpt>
      <trkpt lat="42.8209" lon="1.7505">
        <ele>1954.839</ele>
        <time>2021-03-23T11:17:45Z</time>
      </trkpt>
      <trkpt lat="42.82089" lon="1.75049">
        <ele>1953.747</ele>
        <time>2021-03-23T11:17:47Z</time>
      </trkpt>
      <trkpt lat="42.82088" lon="1.75048">
        <ele>1952.109</ele>
        <time>2021-03-23T11:17:49Z</time>
      </trkpt>
      <trkpt lat="42.82086" lon="1.75048">
        <ele>1951.954</ele>
        <time>2021-03-23T11:17:51Z</time>
      </trkpt>
      <trkpt lat="42.82085" lon="1.75047">
        <ele>1951.507</ele>
        <time>2021-03-23T11:17:53Z</time>
      </trkpt>
      <trkpt lat="42.82086" lon="1.75047">
        <ele>1950.567</ele>
        <time>2021-03-23T11:17:56Z</time>
      </trkpt>
      <trkpt lat="42.82086" lon="1.75047">
        <ele>1950.518</ele>
        <time>2021-03-23T11:17:58Z</time>
      </trkpt>
      <trkpt lat="42.82086" lon="1.75047">
        <ele>1950.485</ele>
        <time>2021-03-23T11:18:00Z</time>
      </trkpt>
      <trkpt lat="42.82086" lon="1.75047">
        <ele>1950.459</ele>
        <time>2021-03-23T11:18:02Z</time>
      </trkpt>
      <trkpt lat="42.82085" lon="1.75047">
        <ele>1950.148</ele>
        <time>2021-03-23T11:18:04Z</time>
      </trkpt>
      <trkpt lat="42.82084" lon="1.75046">
        <ele>1949.358</ele>
        <time>2021-03-23T11:18:06Z</time>
      </trkpt>
      <trkpt lat="42.82083" lon="1.75045">
        <ele>1947.898</ele>
        <time>2021-03-23T11:18:08Z</time>
      </trkpt>
      <trkpt lat="42.82082" lon="1.75044">
        <ele>1947.722</ele>
        <time>2021-03-23T11:18:10Z</time>
      </trkpt>
      <trkpt lat="42.82082" lon="1.75043">
        <ele>1945.997</ele>
        <time>2021-03-23T11:18:12Z</time>
      </trkpt>
      <trkpt lat="42.8208" lon="1.75043">
        <ele>1945.075</ele>
        <time>2021-03-23T11:18:14Z</time>
      </trkpt>
      <trkpt lat="42.82079" lon="1.75041">
        <ele>1945.613</ele>
        <time>2021-03-23T11:18:16Z</time>
      </trkpt>
      <trkpt lat="42.82077" lon="1.7504">
        <ele>1945.37</ele>
        <time>2021-03-23T11:18:18Z</time>
      </trkpt>
      <trkpt lat="42.82076" lon="1.75039">
        <ele>1944.594</ele>
        <time>2021-03-23T11:18:20Z</time>
      </trkpt>
      <trkpt lat="42.82074" lon="1.75038">
        <ele>1944.023</ele>
        <time>2021-03-23T11:18:22Z</time>
      </trkpt>
      <trkpt lat="42.82073" lon="1.75037">
        <ele>1943.364</ele>
        <time>2021-03-23T11:18:24Z</time>
      </trkpt>
      <trkpt lat="42.82071" lon="1.75036">
        <ele>1942.834</ele>
        <time>2021-03-23T11:18:26Z</time>
      </trkpt>
      <trkpt lat="42.8207" lon="1.75036">
        <ele>1942.503</ele>
        <time>2021-03-23T11:18:28Z</time>
      </trkpt>
      <trkpt lat="42.82069" lon="1.75036">
        <ele>1941.932</ele>
        <time>2021-03-23T11:18:30Z</time>
      </trkpt>
      <trkpt lat="42.82068" lon="1.75035">
        <ele>1942.093</ele>
        <time>2021-03-23T11:18:32Z</time>
      </trkpt>
      <trkpt lat="42.82067" lon="1.75035">
        <ele>1941.677</ele>
        <time>2021-03-23T11:18:34Z</time>
      </trkpt>
      <trkpt lat="42.82066" lon="1.75035">
        <ele>1941.621</ele>
        <time>2021-03-23T11:18:36Z</time>
      </trkpt>
      <trkpt lat="42.82064" lon="1.75034">
        <ele>1941.804</ele>
        <time>2021-03-23T11:18:38Z</time>
      </trkpt>
      <trkpt lat="42.82064" lon="1.75035">
        <ele>1939.49</ele>
        <time>2021-03-23T11:18:40Z</time>
      </trkpt>
      <trkpt lat="42.82064" lon="1.75035">
        <ele>1939.304</ele>
        <time>2021-03-23T11:18:42Z</time>
      </trkpt>
      <trkpt lat="42.82063" lon="1.75035">
        <ele>1939.785</ele>
        <time>2021-03-23T11:18:44Z</time>
      </trkpt>
      <trkpt lat="42.82062" lon="1.75035">
        <ele>1939.673</ele>
        <time>2021-03-23T11:18:46Z</time>
      </trkpt>
      <trkpt lat="42.8206" lon="1.75035">
        <ele>1939.838</ele>
        <time>2021-03-23T11:18:48Z</time>
      </trkpt>
      <trkpt lat="42.82059" lon="1.75035">
        <ele>1939.172</ele>
        <time>2021-03-23T11:18:50Z</time>
      </trkpt>
      <trkpt lat="42.82057" lon="1.75035">
        <ele>1938.29</ele>
        <time>2021-03-23T11:18:52Z</time>
      </trkpt>
      <trkpt lat="42.82056" lon="1.75035">
        <ele>1938.467</ele>
        <time>2021-03-23T11:18:54Z</time>
      </trkpt>
      <trkpt lat="42.82054" lon="1.75035">
        <ele>1937.871</ele>
        <time>2021-03-23T11:18:56Z</time>
      </trkpt>
      <trkpt lat="42.82053" lon="1.75035">
        <ele>1936.159</ele>
        <time>2021-03-23T11:18:58Z</time>
      </trkpt>
      <trkpt lat="42.82052" lon="1.75034">
        <ele>1934.265</ele>
        <time>2021-03-23T11:19:00Z</time>
      </trkpt>
      <trkpt lat="42.82051" lon="1.75034">
        <ele>1933.471</ele>
        <time>2021-03-23T11:19:02Z</time>
      </trkpt>
      <trkpt lat="42.82049" lon="1.75034">
        <ele>1933.853</ele>
        <time>2021-03-23T11:19:04Z</time>
      </trkpt>
      <trkpt lat="42.82048" lon="1.75033">
        <ele>1932.821</ele>
        <time>2021-03-23T11:19:06Z</time>
      </trkpt>
      <trkpt lat="42.82047" lon="1.75032">
        <ele>1933.071</ele>
        <time>2021-03-23T11:19:08Z</time>
      </trkpt>
      <trkpt lat="42.82046" lon="1.75032">
        <ele>1933.446</ele>
        <time>2021-03-23T11:19:10Z</time>
      </trkpt>
      <trkpt lat="42.82045" lon="1.75031">
        <ele>1933.116</ele>
        <time>2021-03-23T11:19:12Z</time>
      </trkpt>
      <trkpt lat="42.82044" lon="1.75029">
        <ele>1933.632</ele>
        <time>2021-03-23T11:19:14Z</time>
      </trkpt>
      <trkpt lat="42.82043" lon="1.75029">
        <ele>1933.018</ele>
        <time>2021-03-23T11:19:16Z</time>
      </trkpt>
      <trkpt lat="42.82042" lon="1.75029">
        <ele>1933.617</ele>
        <time>2021-03-23T11:19:18Z</time>
      </trkpt>
      <trkpt lat="42.82041" lon="1.75029">
        <ele>1933.09</ele>
        <time>2021-03-23T11:19:20Z</time>
      </trkpt>
      <trkpt lat="42.8204" lon="1.75028">
        <ele>1934.171</ele>
        <time>2021-03-23T11:19:22Z</time>
      </trkpt>
      <trkpt lat="42.82039" lon="1.75027">
        <ele>1934.124</ele>
        <time>2021-03-23T11:19:24Z</time>
      </trkpt>
      <trkpt lat="42.82038" lon="1.75026">
        <ele>1933.661</ele>
        <time>2021-03-23T11:19:26Z</time>
      </trkpt>
      <trkpt lat="42.82037" lon="1.75026">
        <ele>1933.909</ele>
        <time>2021-03-23T11:19:28Z</time>
      </trkpt>
      <trkpt lat="42.82037" lon="1.75025">
        <ele>1933.897</ele>
        <time>2021-03-23T11:19:30Z</time>
      </trkpt>
      <trkpt lat="42.82036" lon="1.75024">
        <ele>1932.461</ele>
        <time>2021-03-23T11:19:32Z</time>
      </trkpt>
      <trkpt lat="42.82035" lon="1.75024">
        <ele>1932.176</ele>
        <time>2021-03-23T11:19:34Z</time>
      </trkpt>
      <trkpt lat="42.82034" lon="1.75023">
        <ele>1932.259</ele>
        <time>2021-03-23T11:19:36Z</time>
      </trkpt>
      <trkpt lat="42.82033" lon="1.75022">
        <ele>1932.751</ele>
        <time>2021-03-23T11:19:38Z</time>
      </trkpt>
      <trkpt lat="42.82033" lon="1.7502">
        <ele>1932.333</ele>
        <time>2021-03-23T11:19:40Z</time>
      </trkpt>
      <trkpt lat="42.82032" lon="1.75019">
        <ele>1932.19</ele>
        <time>2021-03-23T11:19:42Z</time>
      </trkpt>
      <trkpt lat="42.82031" lon="1.75019">
        <ele>1931.73</ele>
        <time>2021-03-23T11:19:44Z</time>
      </trkpt>
      <trkpt lat="42.8203" lon="1.75019">
        <ele>1930.837</ele>
        <time>2021-03-23T11:19:46Z</time>
      </trkpt>
      <trkpt lat="42.8203" lon="1.75019">
        <ele>1929.901</ele>
        <time>2021-03-23T11:19:48Z</time>
      </trkpt>
      <trkpt lat="42.82029" lon="1.75018">
        <ele>1928.931</ele>
        <time>2021-03-23T11:19:50Z</time>
      </trkpt>
      <trkpt lat="42.82028" lon="1.75018">
        <ele>1928.138</ele>
        <time>2021-03-23T11:19:52Z</time>
      </trkpt>
      <trkpt lat="42.82027" lon="1.75017">
        <ele>1927.244</ele>
        <time>2021-03-23T11:19:54Z</time>
      </trkpt>
      <trkpt lat="42.82026" lon="1.75017">
        <ele>1926.808</ele>
        <time>2021-03-23T11:19:56Z</time>
      </trkpt>
      <trkpt lat="42.82024" lon="1.75016">
        <ele>1928.811</ele>
        <time>2021-03-23T11:19:58Z</time>
      </trkpt>
      <trkpt lat="42.82023" lon="1.75015">
        <ele>1928.509</ele>
        <time>2021-03-23T11:20:00Z</time>
      </trkpt>
      <trkpt lat="42.82022" lon="1.75014">
        <ele>1928.859</ele>
        <time>2021-03-23T11:20:02Z</time>
      </trkpt>
      <trkpt lat="42.82022" lon="1.75013">
        <ele>1927.624</ele>
        <time>2021-03-23T11:20:04Z</time>
      </trkpt>
      <trkpt lat="42.82021" lon="1.75013">
        <ele>1927</ele>
        <time>2021-03-23T11:20:06Z</time>
      </trkpt>
      <trkpt lat="42.82019" lon="1.75012">
        <ele>1927.124</ele>
        <time>2021-03-23T11:20:08Z</time>
      </trkpt>
      <trkpt lat="42.82018" lon="1.75011">
        <ele>1926.891</ele>
        <time>2021-03-23T11:20:10Z</time>
      </trkpt>
      <trkpt lat="42.82017" lon="1.7501">
        <ele>1927.367</ele>
        <time>2021-03-23T11:20:12Z</time>
      </trkpt>
      <trkpt lat="42.82016" lon="1.75009">
        <ele>1926.88</ele>
        <time>2021-03-23T11:20:14Z</time>
      </trkpt>
      <trkpt lat="42.82016" lon="1.75008">
        <ele>1927.319</ele>
        <time>2021-03-23T11:20:16Z</time>
      </trkpt>
      <trkpt lat="42.82015" lon="1.75008">
        <ele>1927.296</ele>
        <time>2021-03-23T11:20:18Z</time>
      </trkpt>
      <trkpt lat="42.82014" lon="1.75007">
        <ele>1928.123</ele>
        <time>2021-03-23T11:20:20Z</time>
      </trkpt>
      <trkpt lat="42.82014" lon="1.75006">
        <ele>1927.679</ele>
        <time>2021-03-23T11:20:22Z</time>
      </trkpt>
      <trkpt lat="42.82013" lon="1.75005">
        <ele>1926.816</ele>
        <time>2021-03-23T11:20:24Z</time>
      </trkpt>
      <trkpt lat="42.82014" lon="1.75004">
        <ele>1925.199</ele>
        <time>2021-03-23T11:20:26Z</time>
      </trkpt>
      <trkpt lat="42.82013" lon="1.75004">
        <ele>1924.638</ele>
        <time>2021-03-23T11:20:28Z</time>
      </trkpt>
      <trkpt lat="42.82013" lon="1.75003">
        <ele>1924.104</ele>
        <time>2021-03-23T11:20:30Z</time>
      </trkpt>
      <trkpt lat="42.82012" lon="1.75002">
        <ele>1923.376</ele>
        <time>2021-03-23T11:20:32Z</time>
      </trkpt>
      <trkpt lat="42.82011" lon="1.75002">
        <ele>1922.639</ele>
        <time>2021-03-23T11:20:34Z</time>
      </trkpt>
      <trkpt lat="42.8201" lon="1.75002">
        <ele>1921.565</ele>
        <time>2021-03-23T11:20:36Z</time>
      </trkpt>
      <trkpt lat="42.8201" lon="1.75001">
        <ele>1920.37</ele>
        <time>2021-03-23T11:20:38Z</time>
      </trkpt>
      <trkpt lat="42.8201" lon="1.75001">
        <ele>1920.449</ele>
        <time>2021-03-23T11:20:40Z</time>
      </trkpt>
      <trkpt lat="42.82009" lon="1.75">
        <ele>1920.605</ele>
        <time>2021-03-23T11:20:42Z</time>
      </trkpt>
      <trkpt lat="42.82009" lon="1.75">
        <ele>1919.49</ele>
        <time>2021-03-23T11:20:44Z</time>
      </trkpt>
      <trkpt lat="42.82008" lon="1.74999">
        <ele>1918.269</ele>
        <time>2021-03-23T11:20:46Z</time>
      </trkpt>
      <trkpt lat="42.82008" lon="1.74997">
        <ele>1918.149</ele>
        <time>2021-03-23T11:20:48Z</time>
      </trkpt>
      <trkpt lat="42.82008" lon="1.74996">
        <ele>1918.053</ele>
        <time>2021-03-23T11:20:50Z</time>
      </trkpt>
      <trkpt lat="42.82009" lon="1.74997">
        <ele>1917.782</ele>
        <time>2021-03-23T11:20:52Z</time>
      </trkpt>
      <trkpt lat="42.82009" lon="1.74993">
        <ele>1919.368</ele>
        <time>2021-03-23T11:20:54Z</time>
      </trkpt>
      <trkpt lat="42.82009" lon="1.74992">
        <ele>1918.935</ele>
        <time>2021-03-23T11:20:56Z</time>
      </trkpt>
      <trkpt lat="42.8201" lon="1.74992">
        <ele>1918.161</ele>
        <time>2021-03-23T11:20:58Z</time>
      </trkpt>
      <trkpt lat="42.8201" lon="1.74992">
        <ele>1918.1</ele>
        <time>2021-03-23T11:21:00Z</time>
      </trkpt>
      <trkpt lat="42.8201" lon="1.74992">
        <ele>1918.075</ele>
        <time>2021-03-23T11:21:02Z</time>
      </trkpt>
      <trkpt lat="42.8201" lon="1.74992">
        <ele>1918.021</ele>
        <time>2021-03-23T11:21:04Z</time>
      </trkpt>
      <trkpt lat="42.8201" lon="1.74992">
        <ele>1917.992</ele>
        <time>2021-03-23T11:21:06Z</time>
      </trkpt>
      <trkpt lat="42.8201" lon="1.74992">
        <ele>1918.011</ele>
        <time>2021-03-23T11:21:08Z</time>
      </trkpt>
      <trkpt lat="42.8201" lon="1.74992">
        <ele>1917.866</ele>
        <time>2021-03-23T11:21:10Z</time>
      </trkpt>
      <trkpt lat="42.8201" lon="1.74992">
        <ele>1917.764</ele>
        <time>2021-03-23T11:21:12Z</time>
      </trkpt>
      <trkpt lat="42.8201" lon="1.74992">
        <ele>1917.6</ele>
        <time>2021-03-23T11:21:14Z</time>
      </trkpt>
      <trkpt lat="42.8201" lon="1.74992">
        <ele>1917.58</ele>
        <time>2021-03-23T11:21:16Z</time>
      </trkpt>
      <trkpt lat="42.8201" lon="1.74992">
        <ele>1917.543</ele>
        <time>2021-03-23T11:21:18Z</time>
      </trkpt>
      <trkpt lat="42.8201" lon="1.74992">
        <ele>1917.599</ele>
        <time>2021-03-23T11:21:20Z</time>
      </trkpt>
      <trkpt lat="42.8201" lon="1.74991">
        <ele>1917.438</ele>
        <time>2021-03-23T11:21:22Z</time>
      </trkpt>
      <trkpt lat="42.8201" lon="1.74989">
        <ele>1917.133</ele>
        <time>2021-03-23T11:21:24Z</time>
      </trkpt>
      <trkpt lat="42.8201" lon="1.74988">
        <ele>1917.581</ele>
        <time>2021-03-23T11:21:26Z</time>
      </trkpt>
      <trkpt lat="42.82009" lon="1.74988">
        <ele>1917.05</ele>
        <time>2021-03-23T11:21:28Z</time>
      </trkpt>
      <trkpt lat="42.82008" lon="1.74988">
        <ele>1916.792</ele>
        <time>2021-03-23T11:21:30Z</time>
      </trkpt>
      <trkpt lat="42.82007" lon="1.74987">
        <ele>1916.487</ele>
        <time>2021-03-23T11:21:32Z</time>
      </trkpt>
      <trkpt lat="42.82006" lon="1.74986">
        <ele>1915.894</ele>
        <time>2021-03-23T11:21:34Z</time>
      </trkpt>
      <trkpt lat="42.82004" lon="1.74986">
        <ele>1914.892</ele>
        <time>2021-03-23T11:21:36Z</time>
      </trkpt>
      <trkpt lat="42.82004" lon="1.74985">
        <ele>1915.686</ele>
        <time>2021-03-23T11:21:38Z</time>
      </trkpt>
      <trkpt lat="42.82003" lon="1.74984">
        <ele>1914.853</ele>
        <time>2021-03-23T11:21:40Z</time>
      </trkpt>
      <trkpt lat="42.82002" lon="1.74983">
        <ele>1915.337</ele>
        <time>2021-03-23T11:21:42Z</time>
      </trkpt>
      <trkpt lat="42.82" lon="1.74982">
        <ele>1914.415</ele>
        <time>2021-03-23T11:21:44Z</time>
      </trkpt>
      <trkpt lat="42.81999" lon="1.74981">
        <ele>1913.845</ele>
        <time>2021-03-23T11:21:46Z</time>
      </trkpt>
      <trkpt lat="42.81998" lon="1.7498">
        <ele>1912.937</ele>
        <time>2021-03-23T11:21:48Z</time>
      </trkpt>
      <trkpt lat="42.81997" lon="1.74979">
        <ele>1914.727</ele>
        <time>2021-03-23T11:21:50Z</time>
      </trkpt>
      <trkpt lat="42.81996" lon="1.74978">
        <ele>1914.614</ele>
        <time>2021-03-23T11:21:52Z</time>
      </trkpt>
      <trkpt lat="42.81995" lon="1.74977">
        <ele>1915.383</ele>
        <time>2021-03-23T11:21:54Z</time>
      </trkpt>
      <trkpt lat="42.81994" lon="1.74975">
        <ele>1915.367</ele>
        <time>2021-03-23T11:21:56Z</time>
      </trkpt>
      <trkpt lat="42.81993" lon="1.74975">
        <ele>1915.029</ele>
        <time>2021-03-23T11:21:58Z</time>
      </trkpt>
      <trkpt lat="42.81992" lon="1.74975">
        <ele>1915.466</ele>
        <time>2021-03-23T11:22:00Z</time>
      </trkpt>
      <trkpt lat="42.81991" lon="1.74975">
        <ele>1915.633</ele>
        <time>2021-03-23T11:22:02Z</time>
      </trkpt>
      <trkpt lat="42.8199" lon="1.74974">
        <ele>1915.102</ele>
        <time>2021-03-23T11:22:04Z</time>
      </trkpt>
      <trkpt lat="42.81989" lon="1.74974">
        <ele>1913.449</ele>
        <time>2021-03-23T11:22:06Z</time>
      </trkpt>
      <trkpt lat="42.81989" lon="1.74973">
        <ele>1914.026</ele>
        <time>2021-03-23T11:22:08Z</time>
      </trkpt>
      <trkpt lat="42.81988" lon="1.74973">
        <ele>1913.588</ele>
        <time>2021-03-23T11:22:10Z</time>
      </trkpt>
      <trkpt lat="42.81987" lon="1.74973">
        <ele>1912.486</ele>
        <time>2021-03-23T11:22:12Z</time>
      </trkpt>
      <trkpt lat="42.81986" lon="1.74974">
        <ele>1912.17</ele>
        <time>2021-03-23T11:22:14Z</time>
      </trkpt>
      <trkpt lat="42.81985" lon="1.74973">
        <ele>1911.677</ele>
        <time>2021-03-23T11:22:16Z</time>
      </trkpt>
      <trkpt lat="42.81985" lon="1.74973">
        <ele>1910.833</ele>
        <time>2021-03-23T11:22:18Z</time>
      </trkpt>
      <trkpt lat="42.81984" lon="1.74972">
        <ele>1909.753</ele>
        <time>2021-03-23T11:22:20Z</time>
      </trkpt>
      <trkpt lat="42.81983" lon="1.74972">
        <ele>1908.524</ele>
        <time>2021-03-23T11:22:22Z</time>
      </trkpt>
      <trkpt lat="42.81983" lon="1.74971">
        <ele>1907.546</ele>
        <time>2021-03-23T11:22:24Z</time>
      </trkpt>
      <trkpt lat="42.81982" lon="1.74971">
        <ele>1907.35</ele>
        <time>2021-03-23T11:22:26Z</time>
      </trkpt>
      <trkpt lat="42.81982" lon="1.74971">
        <ele>1905.897</ele>
        <time>2021-03-23T11:22:28Z</time>
      </trkpt>
      <trkpt lat="42.81981" lon="1.7497">
        <ele>1905.233</ele>
        <time>2021-03-23T11:22:30Z</time>
      </trkpt>
      <trkpt lat="42.8198" lon="1.7497">
        <ele>1904.341</ele>
        <time>2021-03-23T11:22:32Z</time>
      </trkpt>
      <trkpt lat="42.81979" lon="1.7497">
        <ele>1904.164</ele>
        <time>2021-03-23T11:22:34Z</time>
      </trkpt>
      <trkpt lat="42.81978" lon="1.74971">
        <ele>1902.359</ele>
        <time>2021-03-23T11:22:36Z</time>
      </trkpt>
      <trkpt lat="42.81977" lon="1.74972">
        <ele>1901.322</ele>
        <time>2021-03-23T11:22:38Z</time>
      </trkpt>
      <trkpt lat="42.81976" lon="1.74971">
        <ele>1900.961</ele>
        <time>2021-03-23T11:22:40Z</time>
      </trkpt>
      <trkpt lat="42.81975" lon="1.74971">
        <ele>1900.583</ele>
        <time>2021-03-23T11:22:42Z</time>
      </trkpt>
      <trkpt lat="42.81976" lon="1.74971">
        <ele>1897.525</ele>
        <time>2021-03-23T11:22:44Z</time>
      </trkpt>
      <trkpt lat="42.81974" lon="1.7497">
        <ele>1901.407</ele>
        <time>2021-03-23T11:22:46Z</time>
      </trkpt>
      <trkpt lat="42.81972" lon="1.74969">
        <ele>1900.5</ele>
        <time>2021-03-23T11:22:48Z</time>
      </trkpt>
      <trkpt lat="42.81971" lon="1.74967">
        <ele>1902.38</ele>
        <time>2021-03-23T11:22:50Z</time>
      </trkpt>
      <trkpt lat="42.8197" lon="1.74968">
        <ele>1901.128</ele>
        <time>2021-03-23T11:22:52Z</time>
      </trkpt>
      <trkpt lat="42.8197" lon="1.74968">
        <ele>1900.675</ele>
        <time>2021-03-23T11:22:54Z</time>
      </trkpt>
      <trkpt lat="42.81969" lon="1.74968">
        <ele>1899.897</ele>
        <time>2021-03-23T11:22:56Z</time>
      </trkpt>
      <trkpt lat="42.81968" lon="1.74968">
        <ele>1899.282</ele>
        <time>2021-03-23T11:22:58Z</time>
      </trkpt>
      <trkpt lat="42.81967" lon="1.74968">
        <ele>1898.495</ele>
        <time>2021-03-23T11:23:00Z</time>
      </trkpt>
      <trkpt lat="42.81967" lon="1.74968">
        <ele>1898.184</ele>
        <time>2021-03-23T11:23:02Z</time>
      </trkpt>
      <trkpt lat="42.81967" lon="1.74968">
        <ele>1897.189</ele>
        <time>2021-03-23T11:23:04Z</time>
      </trkpt>
      <trkpt lat="42.81966" lon="1.74968">
        <ele>1895.714</ele>
        <time>2021-03-23T11:23:06Z</time>
      </trkpt>
      <trkpt lat="42.81966" lon="1.74967">
        <ele>1894.688</ele>
        <time>2021-03-23T11:23:08Z</time>
      </trkpt>
      <trkpt lat="42.81965" lon="1.74968">
        <ele>1894.59</ele>
        <time>2021-03-23T11:23:10Z</time>
      </trkpt>
      <trkpt lat="42.81964" lon="1.74968">
        <ele>1893.902</ele>
        <time>2021-03-23T11:23:12Z</time>
      </trkpt>
      <trkpt lat="42.81964" lon="1.74967">
        <ele>1894.592</ele>
        <time>2021-03-23T11:23:14Z</time>
      </trkpt>
      <trkpt lat="42.81963" lon="1.74967">
        <ele>1894.566</ele>
        <time>2021-03-23T11:23:16Z</time>
      </trkpt>
      <trkpt lat="42.81963" lon="1.74966">
        <ele>1896.979</ele>
        <time>2021-03-23T11:23:18Z</time>
      </trkpt>
      <trkpt lat="42.81962" lon="1.74964">
        <ele>1896.078</ele>
        <time>2021-03-23T11:23:20Z</time>
      </trkpt>
      <trkpt lat="42.8196" lon="1.74964">
        <ele>1896.147</ele>
        <time>2021-03-23T11:23:22Z</time>
      </trkpt>
      <trkpt lat="42.8196" lon="1.74963">
        <ele>1895.636</ele>
        <time>2021-03-23T11:23:24Z</time>
      </trkpt>
      <trkpt lat="42.81959" lon="1.74962">
        <ele>1895.051</ele>
        <time>2021-03-23T11:23:26Z</time>
      </trkpt>
      <trkpt lat="42.81958" lon="1.74962">
        <ele>1893.662</ele>
        <time>2021-03-23T11:23:28Z</time>
      </trkpt>
      <trkpt lat="42.81957" lon="1.74962">
        <ele>1893.931</ele>
        <time>2021-03-23T11:23:30Z</time>
      </trkpt>
      <trkpt lat="42.81956" lon="1.74961">
        <ele>1893.485</ele>
        <time>2021-03-23T11:23:32Z</time>
      </trkpt>
      <trkpt lat="42.81955" lon="1.74961">
        <ele>1894.119</ele>
        <time>2021-03-23T11:23:34Z</time>
      </trkpt>
      <trkpt lat="42.81955" lon="1.74961">
        <ele>1894.58</ele>
        <time>2021-03-23T11:23:36Z</time>
      </trkpt>
      <trkpt lat="42.81954" lon="1.7496">
        <ele>1893.904</ele>
        <time>2021-03-23T11:23:38Z</time>
      </trkpt>
      <trkpt lat="42.81954" lon="1.7496">
        <ele>1893.463</ele>
        <time>2021-03-23T11:23:40Z</time>
      </trkpt>
      <trkpt lat="42.81953" lon="1.74959">
        <ele>1894.115</ele>
        <time>2021-03-23T11:23:42Z</time>
      </trkpt>
      <trkpt lat="42.81952" lon="1.74959">
        <ele>1893.652</ele>
        <time>2021-03-23T11:23:44Z</time>
      </trkpt>
      <trkpt lat="42.81951" lon="1.74958">
        <ele>1893.183</ele>
        <time>2021-03-23T11:23:46Z</time>
      </trkpt>
      <trkpt lat="42.8195" lon="1.74958">
        <ele>1893.432</ele>
        <time>2021-03-23T11:23:48Z</time>
      </trkpt>
      <trkpt lat="42.8195" lon="1.74957">
        <ele>1893.625</ele>
        <time>2021-03-23T11:23:50Z</time>
      </trkpt>
      <trkpt lat="42.81949" lon="1.74957">
        <ele>1892.609</ele>
        <time>2021-03-23T11:23:52Z</time>
      </trkpt>
      <trkpt lat="42.81948" lon="1.74957">
        <ele>1892.199</ele>
        <time>2021-03-23T11:23:54Z</time>
      </trkpt>
      <trkpt lat="42.81948" lon="1.74957">
        <ele>1892.44</ele>
        <time>2021-03-23T11:23:56Z</time>
      </trkpt>
      <trkpt lat="42.81947" lon="1.74957">
        <ele>1890.998</ele>
        <time>2021-03-23T11:23:58Z</time>
      </trkpt>
      <trkpt lat="42.81947" lon="1.74957">
        <ele>1890.248</ele>
        <time>2021-03-23T11:24:00Z</time>
      </trkpt>
      <trkpt lat="42.81946" lon="1.74957">
        <ele>1888.839</ele>
        <time>2021-03-23T11:24:02Z</time>
      </trkpt>
      <trkpt lat="42.81946" lon="1.74956">
        <ele>1888.932</ele>
        <time>2021-03-23T11:24:04Z</time>
      </trkpt>
      <trkpt lat="42.81945" lon="1.74955">
        <ele>1889.061</ele>
        <time>2021-03-23T11:24:06Z</time>
      </trkpt>
      <trkpt lat="42.81944" lon="1.74954">
        <ele>1888.245</ele>
        <time>2021-03-23T11:24:08Z</time>
      </trkpt>
      <trkpt lat="42.81943" lon="1.74953">
        <ele>1889.046</ele>
        <time>2021-03-23T11:24:10Z</time>
      </trkpt>
      <trkpt lat="42.81942" lon="1.74952">
        <ele>1888.256</ele>
        <time>2021-03-23T11:24:12Z</time>
      </trkpt>
      <trkpt lat="42.81941" lon="1.74952">
        <ele>1887.549</ele>
        <time>2021-03-23T11:24:14Z</time>
      </trkpt>
      <trkpt lat="42.81941" lon="1.74951">
        <ele>1887.588</ele>
        <time>2021-03-23T11:24:16Z</time>
      </trkpt>
      <trkpt lat="42.8194" lon="1.74951">
        <ele>1886.731</ele>
        <time>2021-03-23T11:24:18Z</time>
      </trkpt>
      <trkpt lat="42.81939" lon="1.7495">
        <ele>1887.592</ele>
        <time>2021-03-23T11:24:20Z</time>
      </trkpt>
      <trkpt lat="42.81938" lon="1.74949">
        <ele>1887.096</ele>
        <time>2021-03-23T11:24:22Z</time>
      </trkpt>
      <trkpt lat="42.81938" lon="1.74949">
        <ele>1886.282</ele>
        <time>2021-03-23T11:24:24Z</time>
      </trkpt>
      <trkpt lat="42.81938" lon="1.74949">
        <ele>1886.273</ele>
        <time>2021-03-23T11:24:26Z</time>
      </trkpt>
      <trkpt lat="42.81937" lon="1.74949">
        <ele>1885.015</ele>
        <time>2021-03-23T11:24:28Z</time>
      </trkpt>
      <trkpt lat="42.81936" lon="1.74949">
        <ele>1883.785</ele>
        <time>2021-03-23T11:24:30Z</time>
      </trkpt>
      <trkpt lat="42.81937" lon="1.74948">
        <ele>1883.235</ele>
        <time>2021-03-23T11:24:32Z</time>
      </trkpt>
      <trkpt lat="42.81936" lon="1.74947">
        <ele>1885.089</ele>
        <time>2021-03-23T11:24:34Z</time>
      </trkpt>
      <trkpt lat="42.81936" lon="1.74946">
        <ele>1885.575</ele>
        <time>2021-03-23T11:24:36Z</time>
      </trkpt>
      <trkpt lat="42.81936" lon="1.74946">
        <ele>1885.423</ele>
        <time>2021-03-23T11:24:38Z</time>
      </trkpt>
      <trkpt lat="42.81935" lon="1.74945">
        <ele>1885.552</ele>
        <time>2021-03-23T11:24:40Z</time>
      </trkpt>
      <trkpt lat="42.81934" lon="1.74944">
        <ele>1885.136</ele>
        <time>2021-03-23T11:24:42Z</time>
      </trkpt>
      <trkpt lat="42.81933" lon="1.74944">
        <ele>1883.921</ele>
        <time>2021-03-23T11:24:44Z</time>
      </trkpt>
      <trkpt lat="42.81933" lon="1.74944">
        <ele>1883.153</ele>
        <time>2021-03-23T11:24:46Z</time>
      </trkpt>
      <trkpt lat="42.81932" lon="1.74945">
        <ele>1882.75</ele>
        <time>2021-03-23T11:24:48Z</time>
      </trkpt>
      <trkpt lat="42.81932" lon="1.74944">
        <ele>1882.697</ele>
        <time>2021-03-23T11:24:50Z</time>
      </trkpt>
      <trkpt lat="42.81931" lon="1.74943">
        <ele>1882.772</ele>
        <time>2021-03-23T11:24:52Z</time>
      </trkpt>
      <trkpt lat="42.8193" lon="1.74942">
        <ele>1882.721</ele>
        <time>2021-03-23T11:24:54Z</time>
      </trkpt>
      <trkpt lat="42.81929" lon="1.74942">
        <ele>1881.334</ele>
        <time>2021-03-23T11:24:56Z</time>
      </trkpt>
      <trkpt lat="42.81928" lon="1.7494">
        <ele>1881.266</ele>
        <time>2021-03-23T11:24:58Z</time>
      </trkpt>
      <trkpt lat="42.81927" lon="1.74939">
        <ele>1881.588</ele>
        <time>2021-03-23T11:25:00Z</time>
      </trkpt>
      <trkpt lat="42.81926" lon="1.74937">
        <ele>1882.592</ele>
        <time>2021-03-23T11:25:02Z</time>
      </trkpt>
      <trkpt lat="42.81925" lon="1.74935">
        <ele>1882.213</ele>
        <time>2021-03-23T11:25:04Z</time>
      </trkpt>
      <trkpt lat="42.81924" lon="1.74934">
        <ele>1882.063</ele>
        <time>2021-03-23T11:25:06Z</time>
      </trkpt>
      <trkpt lat="42.81922" lon="1.74933">
        <ele>1881.221</ele>
        <time>2021-03-23T11:25:08Z</time>
      </trkpt>
      <trkpt lat="42.81921" lon="1.74931">
        <ele>1881.251</ele>
        <time>2021-03-23T11:25:10Z</time>
      </trkpt>
      <trkpt lat="42.8192" lon="1.7493">
        <ele>1882.168</ele>
        <time>2021-03-23T11:25:12Z</time>
      </trkpt>
      <trkpt lat="42.81919" lon="1.74929">
        <ele>1883.561</ele>
        <time>2021-03-23T11:25:14Z</time>
      </trkpt>
      <trkpt lat="42.81918" lon="1.74927">
        <ele>1884.342</ele>
        <time>2021-03-23T11:25:16Z</time>
      </trkpt>
      <trkpt lat="42.81917" lon="1.74925">
        <ele>1885.327</ele>
        <time>2021-03-23T11:25:18Z</time>
      </trkpt>
      <trkpt lat="42.81916" lon="1.74922">
        <ele>1887.841</ele>
        <time>2021-03-23T11:25:20Z</time>
      </trkpt>
      <trkpt lat="42.81915" lon="1.74921">
        <ele>1887.698</ele>
        <time>2021-03-23T11:25:22Z</time>
      </trkpt>
      <trkpt lat="42.81914" lon="1.7492">
        <ele>1887.364</ele>
        <time>2021-03-23T11:25:24Z</time>
      </trkpt>
      <trkpt lat="42.81912" lon="1.7492">
        <ele>1886.784</ele>
        <time>2021-03-23T11:25:26Z</time>
      </trkpt>
      <trkpt lat="42.81911" lon="1.7492">
        <ele>1886.954</ele>
        <time>2021-03-23T11:25:28Z</time>
      </trkpt>
      <trkpt lat="42.8191" lon="1.74919">
        <ele>1887.218</ele>
        <time>2021-03-23T11:25:30Z</time>
      </trkpt>
      <trkpt lat="42.81909" lon="1.74918">
        <ele>1886.931</ele>
        <time>2021-03-23T11:25:32Z</time>
      </trkpt>
      <trkpt lat="42.81908" lon="1.74917">
        <ele>1886.394</ele>
        <time>2021-03-23T11:25:34Z</time>
      </trkpt>
      <trkpt lat="42.81907" lon="1.74916">
        <ele>1885.817</ele>
        <time>2021-03-23T11:25:36Z</time>
      </trkpt>
      <trkpt lat="42.81907" lon="1.74915">
        <ele>1885.76</ele>
        <time>2021-03-23T11:25:38Z</time>
      </trkpt>
      <trkpt lat="42.81905" lon="1.74914">
        <ele>1884.957</ele>
        <time>2021-03-23T11:25:40Z</time>
      </trkpt>
      <trkpt lat="42.81904" lon="1.74915">
        <ele>1884.317</ele>
        <time>2021-03-23T11:25:42Z</time>
      </trkpt>
      <trkpt lat="42.81903" lon="1.74915">
        <ele>1882.67</ele>
        <time>2021-03-23T11:25:44Z</time>
      </trkpt>
      <trkpt lat="42.81902" lon="1.74915">
        <ele>1882.921</ele>
        <time>2021-03-23T11:25:46Z</time>
      </trkpt>
      <trkpt lat="42.81901" lon="1.74915">
        <ele>1882.529</ele>
        <time>2021-03-23T11:25:48Z</time>
      </trkpt>
      <trkpt lat="42.819" lon="1.74914">
        <ele>1882.017</ele>
        <time>2021-03-23T11:25:50Z</time>
      </trkpt>
      <trkpt lat="42.81899" lon="1.74914">
        <ele>1881.556</ele>
        <time>2021-03-23T11:25:52Z</time>
      </trkpt>
      <trkpt lat="42.81898" lon="1.74914">
        <ele>1881.126</ele>
        <time>2021-03-23T11:25:54Z</time>
      </trkpt>
      <trkpt lat="42.81897" lon="1.74914">
        <ele>1880.052</ele>
        <time>2021-03-23T11:25:56Z</time>
      </trkpt>
      <trkpt lat="42.81897" lon="1.74913">
        <ele>1881.291</ele>
        <time>2021-03-23T11:25:58Z</time>
      </trkpt>
      <trkpt lat="42.81896" lon="1.74913">
        <ele>1881.216</ele>
        <time>2021-03-23T11:26:00Z</time>
      </trkpt>
      <trkpt lat="42.81896" lon="1.74913">
        <ele>1881.145</ele>
        <time>2021-03-23T11:26:02Z</time>
      </trkpt>
      <trkpt lat="42.81895" lon="1.74912">
        <ele>1880.867</ele>
        <time>2021-03-23T11:26:04Z</time>
      </trkpt>
      <trkpt lat="42.81894" lon="1.74912">
        <ele>1880.289</ele>
        <time>2021-03-23T11:26:06Z</time>
      </trkpt>
      <trkpt lat="42.81893" lon="1.74911">
        <ele>1881.103</ele>
        <time>2021-03-23T11:26:08Z</time>
      </trkpt>
      <trkpt lat="42.81892" lon="1.74911">
        <ele>1880.795</ele>
        <time>2021-03-23T11:26:10Z</time>
      </trkpt>
      <trkpt lat="42.81891" lon="1.7491">
        <ele>1880.524</ele>
        <time>2021-03-23T11:26:12Z</time>
      </trkpt>
      <trkpt lat="42.8189" lon="1.7491">
        <ele>1879.556</ele>
        <time>2021-03-23T11:26:14Z</time>
      </trkpt>
      <trkpt lat="42.81888" lon="1.7491">
        <ele>1878.736</ele>
        <time>2021-03-23T11:26:16Z</time>
      </trkpt>
      <trkpt lat="42.81888" lon="1.7491">
        <ele>1878.021</ele>
        <time>2021-03-23T11:26:18Z</time>
      </trkpt>
      <trkpt lat="42.81888" lon="1.74909">
        <ele>1876.815</ele>
        <time>2021-03-23T11:26:20Z</time>
      </trkpt>
      <trkpt lat="42.81887" lon="1.74909">
        <ele>1876.434</ele>
        <time>2021-03-23T11:26:22Z</time>
      </trkpt>
      <trkpt lat="42.81886" lon="1.74908">
        <ele>1876.615</ele>
        <time>2021-03-23T11:26:24Z</time>
      </trkpt>
      <trkpt lat="42.81885" lon="1.74907">
        <ele>1877.2</ele>
        <time>2021-03-23T11:26:26Z</time>
      </trkpt>
      <trkpt lat="42.81884" lon="1.74905">
        <ele>1876.802</ele>
        <time>2021-03-23T11:26:28Z</time>
      </trkpt>
      <trkpt lat="42.81883" lon="1.74905">
        <ele>1876.207</ele>
        <time>2021-03-23T11:26:30Z</time>
      </trkpt>
      <trkpt lat="42.81881" lon="1.74905">
        <ele>1875.927</ele>
        <time>2021-03-23T11:26:32Z</time>
      </trkpt>
      <trkpt lat="42.8188" lon="1.74904">
        <ele>1875.69</ele>
        <time>2021-03-23T11:26:34Z</time>
      </trkpt>
      <trkpt lat="42.81879" lon="1.74903">
        <ele>1874.706</ele>
        <time>2021-03-23T11:26:36Z</time>
      </trkpt>
      <trkpt lat="42.81879" lon="1.74902">
        <ele>1873.513</ele>
        <time>2021-03-23T11:26:38Z</time>
      </trkpt>
      <trkpt lat="42.81878" lon="1.74901">
        <ele>1872.67</ele>
        <time>2021-03-23T11:26:40Z</time>
      </trkpt>
      <trkpt lat="42.81877" lon="1.749">
        <ele>1871.38</ele>
        <time>2021-03-23T11:26:42Z</time>
      </trkpt>
      <trkpt lat="42.81876" lon="1.74899">
        <ele>1870.188</ele>
        <time>2021-03-23T11:26:44Z</time>
      </trkpt>
      <trkpt lat="42.81875" lon="1.74899">
        <ele>1869.778</ele>
        <time>2021-03-23T11:26:46Z</time>
      </trkpt>
      <trkpt lat="42.81874" lon="1.74898">
        <ele>1869.553</ele>
        <time>2021-03-23T11:26:48Z</time>
      </trkpt>
      <trkpt lat="42.81874" lon="1.74897">
        <ele>1869.769</ele>
        <time>2021-03-23T11:26:50Z</time>
      </trkpt>
      <trkpt lat="42.81873" lon="1.74896">
        <ele>1869.356</ele>
        <time>2021-03-23T11:26:52Z</time>
      </trkpt>
      <trkpt lat="42.81872" lon="1.74895">
        <ele>1868.992</ele>
        <time>2021-03-23T11:26:54Z</time>
      </trkpt>
      <trkpt lat="42.81871" lon="1.74894">
        <ele>1868.771</ele>
        <time>2021-03-23T11:26:56Z</time>
      </trkpt>
      <trkpt lat="42.81871" lon="1.74893">
        <ele>1868.449</ele>
        <time>2021-03-23T11:26:58Z</time>
      </trkpt>
      <trkpt lat="42.8187" lon="1.74891">
        <ele>1868.412</ele>
        <time>2021-03-23T11:27:00Z</time>
      </trkpt>
      <trkpt lat="42.81869" lon="1.7489">
        <ele>1867.725</ele>
        <time>2021-03-23T11:27:02Z</time>
      </trkpt>
      <trkpt lat="42.81869" lon="1.74889">
        <ele>1867.011</ele>
        <time>2021-03-23T11:27:04Z</time>
      </trkpt>
      <trkpt lat="42.81869" lon="1.74889">
        <ele>1866.36</ele>
        <time>2021-03-23T11:27:06Z</time>
      </trkpt>
      <trkpt lat="42.81869" lon="1.74888">
        <ele>1866.079</ele>
        <time>2021-03-23T11:27:08Z</time>
      </trkpt>
      <trkpt lat="42.81868" lon="1.74888">
        <ele>1865.621</ele>
        <time>2021-03-23T11:27:10Z</time>
      </trkpt>
      <trkpt lat="42.81868" lon="1.74887">
        <ele>1865.938</ele>
        <time>2021-03-23T11:27:12Z</time>
      </trkpt>
      <trkpt lat="42.81868" lon="1.74885">
        <ele>1866.564</ele>
        <time>2021-03-23T11:27:14Z</time>
      </trkpt>
      <trkpt lat="42.81868" lon="1.74884">
        <ele>1866.212</ele>
        <time>2021-03-23T11:27:16Z</time>
      </trkpt>
      <trkpt lat="42.81869" lon="1.74883">
        <ele>1865.364</ele>
        <time>2021-03-23T11:27:18Z</time>
      </trkpt>
      <trkpt lat="42.81869" lon="1.74882">
        <ele>1864.375</ele>
        <time>2021-03-23T11:27:20Z</time>
      </trkpt>
      <trkpt lat="42.8187" lon="1.74881">
        <ele>1863.301</ele>
        <time>2021-03-23T11:27:22Z</time>
      </trkpt>
      <trkpt lat="42.8187" lon="1.7488">
        <ele>1862.662</ele>
        <time>2021-03-23T11:27:24Z</time>
      </trkpt>
      <trkpt lat="42.8187" lon="1.74879">
        <ele>1861.577</ele>
        <time>2021-03-23T11:27:26Z</time>
      </trkpt>
      <trkpt lat="42.81871" lon="1.74878">
        <ele>1861.506</ele>
        <time>2021-03-23T11:27:28Z</time>
      </trkpt>
      <trkpt lat="42.81871" lon="1.74877">
        <ele>1860.939</ele>
        <time>2021-03-23T11:27:30Z</time>
      </trkpt>
      <trkpt lat="42.81871" lon="1.74876">
        <ele>1860.834</ele>
        <time>2021-03-23T11:27:32Z</time>
      </trkpt>
      <trkpt lat="42.81871" lon="1.74874">
        <ele>1860.662</ele>
        <time>2021-03-23T11:27:34Z</time>
      </trkpt>
      <trkpt lat="42.81872" lon="1.74875">
        <ele>1858.773</ele>
        <time>2021-03-23T11:27:36Z</time>
      </trkpt>
      <trkpt lat="42.81872" lon="1.74876">
        <ele>1858.73</ele>
        <time>2021-03-23T11:27:38Z</time>
      </trkpt>
      <trkpt lat="42.81872" lon="1.74876">
        <ele>1858.721</ele>
        <time>2021-03-23T11:27:40Z</time>
      </trkpt>
      <trkpt lat="42.81872" lon="1.74876">
        <ele>1858.75</ele>
        <time>2021-03-23T11:27:42Z</time>
      </trkpt>
      <trkpt lat="42.81872" lon="1.74876">
        <ele>1858.733</ele>
        <time>2021-03-23T11:27:44Z</time>
      </trkpt>
      <trkpt lat="42.81872" lon="1.74876">
        <ele>1858.724</ele>
        <time>2021-03-23T11:27:46Z</time>
      </trkpt>
      <trkpt lat="42.81872" lon="1.74876">
        <ele>1858.721</ele>
        <time>2021-03-23T11:27:48Z</time>
      </trkpt>
      <trkpt lat="42.81872" lon="1.74876">
        <ele>1858.654</ele>
        <time>2021-03-23T11:27:50Z</time>
      </trkpt>
      <trkpt lat="42.81873" lon="1.74874">
        <ele>1857.376</ele>
        <time>2021-03-23T11:27:52Z</time>
      </trkpt>
      <trkpt lat="42.81873" lon="1.74874">
        <ele>1856.543</ele>
        <time>2021-03-23T11:27:54Z</time>
      </trkpt>
      <trkpt lat="42.81874" lon="1.74872">
        <ele>1856.243</ele>
        <time>2021-03-23T11:27:56Z</time>
      </trkpt>
      <trkpt lat="42.81873" lon="1.7487">
        <ele>1856.619</ele>
        <time>2021-03-23T11:27:58Z</time>
      </trkpt>
      <trkpt lat="42.81873" lon="1.74868">
        <ele>1855.69</ele>
        <time>2021-03-23T11:28:00Z</time>
      </trkpt>
      <trkpt lat="42.81873" lon="1.74866">
        <ele>1856.306</ele>
        <time>2021-03-23T11:28:02Z</time>
      </trkpt>
      <trkpt lat="42.81873" lon="1.74866">
        <ele>1856.381</ele>
        <time>2021-03-23T11:28:04Z</time>
      </trkpt>
      <trkpt lat="42.81873" lon="1.74865">
        <ele>1855.365</ele>
        <time>2021-03-23T11:28:06Z</time>
      </trkpt>
      <trkpt lat="42.81873" lon="1.74865">
        <ele>1855.356</ele>
        <time>2021-03-23T11:28:08Z</time>
      </trkpt>
      <trkpt lat="42.81873" lon="1.74865">
        <ele>1854.589</ele>
        <time>2021-03-23T11:28:10Z</time>
      </trkpt>
      <trkpt lat="42.81874" lon="1.74863">
        <ele>1853.933</ele>
        <time>2021-03-23T11:28:12Z</time>
      </trkpt>
      <trkpt lat="42.81874" lon="1.74862">
        <ele>1853.494</ele>
        <time>2021-03-23T11:28:14Z</time>
      </trkpt>
      <trkpt lat="42.81875" lon="1.74861">
        <ele>1852.567</ele>
        <time>2021-03-23T11:28:16Z</time>
      </trkpt>
      <trkpt lat="42.81875" lon="1.74858">
        <ele>1852.261</ele>
        <time>2021-03-23T11:28:18Z</time>
      </trkpt>
      <trkpt lat="42.81875" lon="1.74857">
        <ele>1851.941</ele>
        <time>2021-03-23T11:28:20Z</time>
      </trkpt>
      <trkpt lat="42.81876" lon="1.74855">
        <ele>1851.567</ele>
        <time>2021-03-23T11:28:22Z</time>
      </trkpt>
      <trkpt lat="42.81876" lon="1.74854">
        <ele>1850.986</ele>
        <time>2021-03-23T11:28:24Z</time>
      </trkpt>
      <trkpt lat="42.81876" lon="1.74852">
        <ele>1851.548</ele>
        <time>2021-03-23T11:28:26Z</time>
      </trkpt>
      <trkpt lat="42.81877" lon="1.7485">
        <ele>1850.733</ele>
        <time>2021-03-23T11:28:28Z</time>
      </trkpt>
      <trkpt lat="42.81877" lon="1.74849">
        <ele>1850.544</ele>
        <time>2021-03-23T11:28:30Z</time>
      </trkpt>
      <trkpt lat="42.81877" lon="1.74847">
        <ele>1850.203</ele>
        <time>2021-03-23T11:28:32Z</time>
      </trkpt>
      <trkpt lat="42.81877" lon="1.74846">
        <ele>1850.009</ele>
        <time>2021-03-23T11:28:34Z</time>
      </trkpt>
      <trkpt lat="42.81877" lon="1.74845">
        <ele>1849.488</ele>
        <time>2021-03-23T11:28:36Z</time>
      </trkpt>
      <trkpt lat="42.81878" lon="1.74848">
        <ele>1847.485</ele>
        <time>2021-03-23T11:28:39Z</time>
      </trkpt>
      <trkpt lat="42.81878" lon="1.74847">
        <ele>1846.789</ele>
        <time>2021-03-23T11:28:41Z</time>
      </trkpt>
      <trkpt lat="42.81878" lon="1.74844">
        <ele>1846.192</ele>
        <time>2021-03-23T11:28:44Z</time>
      </trkpt>
      <trkpt lat="42.81877" lon="1.74843">
        <ele>1846.573</ele>
        <time>2021-03-23T11:28:46Z</time>
      </trkpt>
      <trkpt lat="42.81876" lon="1.74842">
        <ele>1846.497</ele>
        <time>2021-03-23T11:28:48Z</time>
      </trkpt>
      <trkpt lat="42.81876" lon="1.74841">
        <ele>1846.778</ele>
        <time>2021-03-23T11:28:50Z</time>
      </trkpt>
      <trkpt lat="42.81876" lon="1.7484">
        <ele>1846.312</ele>
        <time>2021-03-23T11:28:52Z</time>
      </trkpt>
      <trkpt lat="42.81875" lon="1.74838">
        <ele>1845.665</ele>
        <time>2021-03-23T11:28:54Z</time>
      </trkpt>
      <trkpt lat="42.81875" lon="1.74838">
        <ele>1845.354</ele>
        <time>2021-03-23T11:28:56Z</time>
      </trkpt>
      <trkpt lat="42.81875" lon="1.74837">
        <ele>1844.524</ele>
        <time>2021-03-23T11:28:58Z</time>
      </trkpt>
      <trkpt lat="42.81874" lon="1.74836">
        <ele>1844.694</ele>
        <time>2021-03-23T11:29:00Z</time>
      </trkpt>
      <trkpt lat="42.81874" lon="1.74834">
        <ele>1846.321</ele>
        <time>2021-03-23T11:29:02Z</time>
      </trkpt>
      <trkpt lat="42.81873" lon="1.74833">
        <ele>1846.694</ele>
        <time>2021-03-23T11:29:04Z</time>
      </trkpt>
      <trkpt lat="42.81873" lon="1.74832">
        <ele>1845.972</ele>
        <time>2021-03-23T11:29:06Z</time>
      </trkpt>
      <trkpt lat="42.81873" lon="1.74831">
        <ele>1845.77</ele>
        <time>2021-03-23T11:29:08Z</time>
      </trkpt>
      <trkpt lat="42.81873" lon="1.74829">
        <ele>1845.994</ele>
        <time>2021-03-23T11:29:10Z</time>
      </trkpt>
      <trkpt lat="42.81872" lon="1.74828">
        <ele>1846.542</ele>
        <time>2021-03-23T11:29:12Z</time>
      </trkpt>
      <trkpt lat="42.81872" lon="1.74826">
        <ele>1847.915</ele>
        <time>2021-03-23T11:29:14Z</time>
      </trkpt>
      <trkpt lat="42.81872" lon="1.74825">
        <ele>1846.872</ele>
        <time>2021-03-23T11:29:16Z</time>
      </trkpt>
      <trkpt lat="42.81871" lon="1.74825">
        <ele>1845.906</ele>
        <time>2021-03-23T11:29:18Z</time>
      </trkpt>
      <trkpt lat="42.81871" lon="1.74825">
        <ele>1845.834</ele>
        <time>2021-03-23T11:29:20Z</time>
      </trkpt>
      <trkpt lat="42.8187" lon="1.74822">
        <ele>1845.612</ele>
        <time>2021-03-23T11:29:22Z</time>
      </trkpt>
      <trkpt lat="42.81869" lon="1.7482">
        <ele>1846.263</ele>
        <time>2021-03-23T11:29:24Z</time>
      </trkpt>
      <trkpt lat="42.81869" lon="1.74818">
        <ele>1847.397</ele>
        <time>2021-03-23T11:29:26Z</time>
      </trkpt>
      <trkpt lat="42.81868" lon="1.74817">
        <ele>1846.984</ele>
        <time>2021-03-23T11:29:28Z</time>
      </trkpt>
      <trkpt lat="42.81868" lon="1.74815">
        <ele>1848.138</ele>
        <time>2021-03-23T11:29:30Z</time>
      </trkpt>
      <trkpt lat="42.81867" lon="1.74814">
        <ele>1847.934</ele>
        <time>2021-03-23T11:29:32Z</time>
      </trkpt>
      <trkpt lat="42.81867" lon="1.74814">
        <ele>1847.349</ele>
        <time>2021-03-23T11:29:34Z</time>
      </trkpt>
      <trkpt lat="42.81866" lon="1.74812">
        <ele>1847.557</ele>
        <time>2021-03-23T11:29:36Z</time>
      </trkpt>
      <trkpt lat="42.81866" lon="1.74811">
        <ele>1847.805</ele>
        <time>2021-03-23T11:29:38Z</time>
      </trkpt>
      <trkpt lat="42.81866" lon="1.7481">
        <ele>1847.563</ele>
        <time>2021-03-23T11:29:40Z</time>
      </trkpt>
      <trkpt lat="42.81865" lon="1.74809">
        <ele>1849.78</ele>
        <time>2021-03-23T11:29:42Z</time>
      </trkpt>
      <trkpt lat="42.81865" lon="1.74807">
        <ele>1849.319</ele>
        <time>2021-03-23T11:29:44Z</time>
      </trkpt>
      <trkpt lat="42.81864" lon="1.74806">
        <ele>1849.822</ele>
        <time>2021-03-23T11:29:46Z</time>
      </trkpt>
      <trkpt lat="42.81864" lon="1.74805">
        <ele>1849.443</ele>
        <time>2021-03-23T11:29:48Z</time>
      </trkpt>
      <trkpt lat="42.81863" lon="1.74804">
        <ele>1850.195</ele>
        <time>2021-03-23T11:29:50Z</time>
      </trkpt>
      <trkpt lat="42.81862" lon="1.74803">
        <ele>1850.561</ele>
        <time>2021-03-23T11:29:52Z</time>
      </trkpt>
      <trkpt lat="42.81863" lon="1.74804">
        <ele>1848.513</ele>
        <time>2021-03-23T11:29:54Z</time>
      </trkpt>
      <trkpt lat="42.81862" lon="1.74803">
        <ele>1848.083</ele>
        <time>2021-03-23T11:29:56Z</time>
      </trkpt>
      <trkpt lat="42.81862" lon="1.74803">
        <ele>1847.092</ele>
        <time>2021-03-23T11:29:58Z</time>
      </trkpt>
      <trkpt lat="42.81861" lon="1.74802">
        <ele>1846.448</ele>
        <time>2021-03-23T11:30:00Z</time>
      </trkpt>
      <trkpt lat="42.81861" lon="1.74801">
        <ele>1845.745</ele>
        <time>2021-03-23T11:30:02Z</time>
      </trkpt>
      <trkpt lat="42.81861" lon="1.74801">
        <ele>1845.367</ele>
        <time>2021-03-23T11:30:04Z</time>
      </trkpt>
      <trkpt lat="42.8186" lon="1.748">
        <ele>1845.114</ele>
        <time>2021-03-23T11:30:06Z</time>
      </trkpt>
      <trkpt lat="42.8186" lon="1.74799">
        <ele>1844.085</ele>
        <time>2021-03-23T11:30:08Z</time>
      </trkpt>
      <trkpt lat="42.8186" lon="1.74799">
        <ele>1843.509</ele>
        <time>2021-03-23T11:30:10Z</time>
      </trkpt>
      <trkpt lat="42.8186" lon="1.74798">
        <ele>1843.633</ele>
        <time>2021-03-23T11:30:12Z</time>
      </trkpt>
      <trkpt lat="42.81859" lon="1.74797">
        <ele>1842.766</ele>
        <time>2021-03-23T11:30:14Z</time>
      </trkpt>
      <trkpt lat="42.81859" lon="1.74797">
        <ele>1841.299</ele>
        <time>2021-03-23T11:30:16Z</time>
      </trkpt>
      <trkpt lat="42.81858" lon="1.74795">
        <ele>1840.092</ele>
        <time>2021-03-23T11:30:18Z</time>
      </trkpt>
      <trkpt lat="42.81858" lon="1.74795">
        <ele>1838.692</ele>
        <time>2021-03-23T11:30:20Z</time>
      </trkpt>
      <trkpt lat="42.81857" lon="1.74795">
        <ele>1838.395</ele>
        <time>2021-03-23T11:30:22Z</time>
      </trkpt>
      <trkpt lat="42.81857" lon="1.74795">
        <ele>1837.824</ele>
        <time>2021-03-23T11:30:24Z</time>
      </trkpt>
      <trkpt lat="42.81856" lon="1.74794">
        <ele>1838.354</ele>
        <time>2021-03-23T11:30:26Z</time>
      </trkpt>
      <trkpt lat="42.81856" lon="1.74793">
        <ele>1838.345</ele>
        <time>2021-03-23T11:30:28Z</time>
      </trkpt>
      <trkpt lat="42.81855" lon="1.74792">
        <ele>1838.239</ele>
        <time>2021-03-23T11:30:30Z</time>
      </trkpt>
      <trkpt lat="42.81855" lon="1.74791">
        <ele>1837.867</ele>
        <time>2021-03-23T11:30:32Z</time>
      </trkpt>
      <trkpt lat="42.81854" lon="1.7479">
        <ele>1836.992</ele>
        <time>2021-03-23T11:30:34Z</time>
      </trkpt>
      <trkpt lat="42.81854" lon="1.74789">
        <ele>1837.438</ele>
        <time>2021-03-23T11:30:36Z</time>
      </trkpt>
      <trkpt lat="42.81853" lon="1.74788">
        <ele>1837.919</ele>
        <time>2021-03-23T11:30:38Z</time>
      </trkpt>
      <trkpt lat="42.81853" lon="1.74787">
        <ele>1837.352</ele>
        <time>2021-03-23T11:30:40Z</time>
      </trkpt>
      <trkpt lat="42.81852" lon="1.74785">
        <ele>1837.01</ele>
        <time>2021-03-23T11:30:42Z</time>
      </trkpt>
      <trkpt lat="42.81852" lon="1.74784">
        <ele>1835.492</ele>
        <time>2021-03-23T11:30:44Z</time>
      </trkpt>
      <trkpt lat="42.81851" lon="1.74783">
        <ele>1835.844</ele>
        <time>2021-03-23T11:30:46Z</time>
      </trkpt>
      <trkpt lat="42.81851" lon="1.74782">
        <ele>1835.419</ele>
        <time>2021-03-23T11:30:48Z</time>
      </trkpt>
      <trkpt lat="42.81851" lon="1.74783">
        <ele>1834.954</ele>
        <time>2021-03-23T11:30:50Z</time>
      </trkpt>
      <trkpt lat="42.81851" lon="1.74783">
        <ele>1834.939</ele>
        <time>2021-03-23T11:30:52Z</time>
      </trkpt>
      <trkpt lat="42.81851" lon="1.74783">
        <ele>1834.924</ele>
        <time>2021-03-23T11:30:54Z</time>
      </trkpt>
      <trkpt lat="42.81851" lon="1.74783">
        <ele>1834.869</ele>
        <time>2021-03-23T11:30:56Z</time>
      </trkpt>
      <trkpt lat="42.81851" lon="1.74782">
        <ele>1834.727</ele>
        <time>2021-03-23T11:30:58Z</time>
      </trkpt>
      <trkpt lat="42.8185" lon="1.74781">
        <ele>1834.4</ele>
        <time>2021-03-23T11:31:00Z</time>
      </trkpt>
      <trkpt lat="42.8185" lon="1.74779">
        <ele>1833.495</ele>
        <time>2021-03-23T11:31:02Z</time>
      </trkpt>
      <trkpt lat="42.8185" lon="1.74778">
        <ele>1833.067</ele>
        <time>2021-03-23T11:31:04Z</time>
      </trkpt>
      <trkpt lat="42.8185" lon="1.74777">
        <ele>1832.886</ele>
        <time>2021-03-23T11:31:06Z</time>
      </trkpt>
      <trkpt lat="42.8185" lon="1.74776">
        <ele>1832.26</ele>
        <time>2021-03-23T11:31:08Z</time>
      </trkpt>
      <trkpt lat="42.81849" lon="1.74775">
        <ele>1832.57</ele>
        <time>2021-03-23T11:31:10Z</time>
      </trkpt>
      <trkpt lat="42.81849" lon="1.74774">
        <ele>1832.463</ele>
        <time>2021-03-23T11:31:12Z</time>
      </trkpt>
      <trkpt lat="42.81848" lon="1.74773">
        <ele>1832.705</ele>
        <time>2021-03-23T11:31:14Z</time>
      </trkpt>
      <trkpt lat="42.81848" lon="1.74771">
        <ele>1834.596</ele>
        <time>2021-03-23T11:31:16Z</time>
      </trkpt>
      <trkpt lat="42.81848" lon="1.7477">
        <ele>1834.132</ele>
        <time>2021-03-23T11:31:18Z</time>
      </trkpt>
      <trkpt lat="42.81847" lon="1.74768">
        <ele>1834.088</ele>
        <time>2021-03-23T11:31:20Z</time>
      </trkpt>
      <trkpt lat="42.81847" lon="1.74767">
        <ele>1835.04</ele>
        <time>2021-03-23T11:31:22Z</time>
      </trkpt>
      <trkpt lat="42.81846" lon="1.74766">
        <ele>1834.998</ele>
        <time>2021-03-23T11:31:24Z</time>
      </trkpt>
      <trkpt lat="42.81846" lon="1.74765">
        <ele>1834.459</ele>
        <time>2021-03-23T11:31:26Z</time>
      </trkpt>
      <trkpt lat="42.81845" lon="1.74764">
        <ele>1834.028</ele>
        <time>2021-03-23T11:31:28Z</time>
      </trkpt>
      <trkpt lat="42.81845" lon="1.74763">
        <ele>1832.806</ele>
        <time>2021-03-23T11:31:30Z</time>
      </trkpt>
      <trkpt lat="42.81844" lon="1.74762">
        <ele>1832.978</ele>
        <time>2021-03-23T11:31:32Z</time>
      </trkpt>
      <trkpt lat="42.81844" lon="1.74761">
        <ele>1832.955</ele>
        <time>2021-03-23T11:31:34Z</time>
      </trkpt>
      <trkpt lat="42.81843" lon="1.7476">
        <ele>1833.636</ele>
        <time>2021-03-23T11:31:36Z</time>
      </trkpt>
      <trkpt lat="42.81843" lon="1.74759">
        <ele>1832.736</ele>
        <time>2021-03-23T11:31:38Z</time>
      </trkpt>
      <trkpt lat="42.81843" lon="1.74758">
        <ele>1831.761</ele>
        <time>2021-03-23T11:31:40Z</time>
      </trkpt>
      <trkpt lat="42.81843" lon="1.74758">
        <ele>1831.238</ele>
        <time>2021-03-23T11:31:42Z</time>
      </trkpt>
      <trkpt lat="42.81843" lon="1.74757">
        <ele>1830.761</ele>
        <time>2021-03-23T11:31:44Z</time>
      </trkpt>
      <trkpt lat="42.81842" lon="1.74757">
        <ele>1830.353</ele>
        <time>2021-03-23T11:31:46Z</time>
      </trkpt>
      <trkpt lat="42.81842" lon="1.74756">
        <ele>1829.831</ele>
        <time>2021-03-23T11:31:48Z</time>
      </trkpt>
      <trkpt lat="42.81841" lon="1.74756">
        <ele>1829.796</ele>
        <time>2021-03-23T11:31:50Z</time>
      </trkpt>
      <trkpt lat="42.81841" lon="1.74754">
        <ele>1830.729</ele>
        <time>2021-03-23T11:31:52Z</time>
      </trkpt>
      <trkpt lat="42.8184" lon="1.74753">
        <ele>1831.199</ele>
        <time>2021-03-23T11:31:54Z</time>
      </trkpt>
      <trkpt lat="42.81839" lon="1.74752">
        <ele>1830.469</ele>
        <time>2021-03-23T11:31:56Z</time>
      </trkpt>
      <trkpt lat="42.81838" lon="1.7475">
        <ele>1830.477</ele>
        <time>2021-03-23T11:31:58Z</time>
      </trkpt>
      <trkpt lat="42.81838" lon="1.74749">
        <ele>1830.251</ele>
        <time>2021-03-23T11:32:00Z</time>
      </trkpt>
      <trkpt lat="42.81837" lon="1.74748">
        <ele>1828.939</ele>
        <time>2021-03-23T11:32:02Z</time>
      </trkpt>
      <trkpt lat="42.81837" lon="1.74748">
        <ele>1827.595</ele>
        <time>2021-03-23T11:32:04Z</time>
      </trkpt>
      <trkpt lat="42.81836" lon="1.74747">
        <ele>1827.546</ele>
        <time>2021-03-23T11:32:06Z</time>
      </trkpt>
      <trkpt lat="42.81835" lon="1.74747">
        <ele>1827.199</ele>
        <time>2021-03-23T11:32:08Z</time>
      </trkpt>
      <trkpt lat="42.81835" lon="1.74746">
        <ele>1827.977</ele>
        <time>2021-03-23T11:32:10Z</time>
      </trkpt>
      <trkpt lat="42.81834" lon="1.74745">
        <ele>1827.235</ele>
        <time>2021-03-23T11:32:12Z</time>
      </trkpt>
      <trkpt lat="42.81834" lon="1.74745">
        <ele>1827.198</ele>
        <time>2021-03-23T11:32:14Z</time>
      </trkpt>
      <trkpt lat="42.81834" lon="1.74745">
        <ele>1827.131</ele>
        <time>2021-03-23T11:32:16Z</time>
      </trkpt>
      <trkpt lat="42.81834" lon="1.74745">
        <ele>1826.74</ele>
        <time>2021-03-23T11:32:18Z</time>
      </trkpt>
      <trkpt lat="42.81834" lon="1.74745">
        <ele>1826.042</ele>
        <time>2021-03-23T11:32:20Z</time>
      </trkpt>
      <trkpt lat="42.81834" lon="1.74744">
        <ele>1825.451</ele>
        <time>2021-03-23T11:32:22Z</time>
      </trkpt>
      <trkpt lat="42.81833" lon="1.74743">
        <ele>1825.222</ele>
        <time>2021-03-23T11:32:24Z</time>
      </trkpt>
      <trkpt lat="42.81833" lon="1.74741">
        <ele>1825.463</ele>
        <time>2021-03-23T11:32:26Z</time>
      </trkpt>
      <trkpt lat="42.81832" lon="1.7474">
        <ele>1825.274</ele>
        <time>2021-03-23T11:32:28Z</time>
      </trkpt>
      <trkpt lat="42.81831" lon="1.74738">
        <ele>1827.068</ele>
        <time>2021-03-23T11:32:30Z</time>
      </trkpt>
      <trkpt lat="42.81831" lon="1.74736">
        <ele>1826.475</ele>
        <time>2021-03-23T11:32:32Z</time>
      </trkpt>
      <trkpt lat="42.8183" lon="1.74735">
        <ele>1826.596</ele>
        <time>2021-03-23T11:32:34Z</time>
      </trkpt>
      <trkpt lat="42.81829" lon="1.74734">
        <ele>1826.977</ele>
        <time>2021-03-23T11:32:36Z</time>
      </trkpt>
      <trkpt lat="42.81829" lon="1.74733">
        <ele>1826.131</ele>
        <time>2021-03-23T11:32:38Z</time>
      </trkpt>
      <trkpt lat="42.81829" lon="1.74732">
        <ele>1825.111</ele>
        <time>2021-03-23T11:32:40Z</time>
      </trkpt>
      <trkpt lat="42.81829" lon="1.74731">
        <ele>1824.776</ele>
        <time>2021-03-23T11:32:42Z</time>
      </trkpt>
      <trkpt lat="42.81829" lon="1.74729">
        <ele>1824.474</ele>
        <time>2021-03-23T11:32:44Z</time>
      </trkpt>
      <trkpt lat="42.81829" lon="1.74727">
        <ele>1823.951</ele>
        <time>2021-03-23T11:32:46Z</time>
      </trkpt>
      <trkpt lat="42.81829" lon="1.74725">
        <ele>1824.577</ele>
        <time>2021-03-23T11:32:48Z</time>
      </trkpt>
      <trkpt lat="42.8183" lon="1.74724">
        <ele>1824.436</ele>
        <time>2021-03-23T11:32:50Z</time>
      </trkpt>
      <trkpt lat="42.81832" lon="1.74724">
        <ele>1823.211</ele>
        <time>2021-03-23T11:32:52Z</time>
      </trkpt>
      <trkpt lat="42.81831" lon="1.74724">
        <ele>1823.945</ele>
        <time>2021-03-23T11:32:54Z</time>
      </trkpt>
      <trkpt lat="42.81833" lon="1.74724">
        <ele>1822.319</ele>
        <time>2021-03-23T11:32:56Z</time>
      </trkpt>
      <trkpt lat="42.81833" lon="1.74723">
        <ele>1822.113</ele>
        <time>2021-03-23T11:32:58Z</time>
      </trkpt>
      <trkpt lat="42.81832" lon="1.7472">
        <ele>1822.216</ele>
        <time>2021-03-23T11:33:00Z</time>
      </trkpt>
      <trkpt lat="42.81831" lon="1.7472">
        <ele>1822.16</ele>
        <time>2021-03-23T11:33:02Z</time>
      </trkpt>
      <trkpt lat="42.8183" lon="1.74719">
        <ele>1821.283</ele>
        <time>2021-03-23T11:33:04Z</time>
      </trkpt>
      <trkpt lat="42.81829" lon="1.74719">
        <ele>1821.221</ele>
        <time>2021-03-23T11:33:06Z</time>
      </trkpt>
      <trkpt lat="42.81829" lon="1.74721">
        <ele>1820.081</ele>
        <time>2021-03-23T11:33:08Z</time>
      </trkpt>
      <trkpt lat="42.81829" lon="1.74721">
        <ele>1819.976</ele>
        <time>2021-03-23T11:33:10Z</time>
      </trkpt>
      <trkpt lat="42.81829" lon="1.74721">
        <ele>1819.807</ele>
        <time>2021-03-23T11:33:12Z</time>
      </trkpt>
      <trkpt lat="42.81828" lon="1.74719">
        <ele>1819.464</ele>
        <time>2021-03-23T11:33:14Z</time>
      </trkpt>
      <trkpt lat="42.81827" lon="1.74718">
        <ele>1819.239</ele>
        <time>2021-03-23T11:33:16Z</time>
      </trkpt>
      <trkpt lat="42.81827" lon="1.74717">
        <ele>1818.316</ele>
        <time>2021-03-23T11:33:18Z</time>
      </trkpt>
      <trkpt lat="42.81826" lon="1.74716">
        <ele>1817.563</ele>
        <time>2021-03-23T11:33:20Z</time>
      </trkpt>
      <trkpt lat="42.81825" lon="1.74715">
        <ele>1816.735</ele>
        <time>2021-03-23T11:33:22Z</time>
      </trkpt>
      <trkpt lat="42.81824" lon="1.74713">
        <ele>1815.815</ele>
        <time>2021-03-23T11:33:24Z</time>
      </trkpt>
      <trkpt lat="42.81824" lon="1.74712">
        <ele>1815.723</ele>
        <time>2021-03-23T11:33:26Z</time>
      </trkpt>
      <trkpt lat="42.81823" lon="1.74711">
        <ele>1814.78</ele>
        <time>2021-03-23T11:33:28Z</time>
      </trkpt>
      <trkpt lat="42.81822" lon="1.7471">
        <ele>1814.034</ele>
        <time>2021-03-23T11:33:30Z</time>
      </trkpt>
      <trkpt lat="42.81821" lon="1.74709">
        <ele>1814.205</ele>
        <time>2021-03-23T11:33:32Z</time>
      </trkpt>
      <trkpt lat="42.8182" lon="1.74707">
        <ele>1814.973</ele>
        <time>2021-03-23T11:33:34Z</time>
      </trkpt>
      <trkpt lat="42.81819" lon="1.74706">
        <ele>1814.237</ele>
        <time>2021-03-23T11:33:36Z</time>
      </trkpt>
      <trkpt lat="42.81818" lon="1.74705">
        <ele>1813.404</ele>
        <time>2021-03-23T11:33:38Z</time>
      </trkpt>
      <trkpt lat="42.81817" lon="1.74704">
        <ele>1813.373</ele>
        <time>2021-03-23T11:33:40Z</time>
      </trkpt>
      <trkpt lat="42.81815" lon="1.74703">
        <ele>1813.048</ele>
        <time>2021-03-23T11:33:42Z</time>
      </trkpt>
      <trkpt lat="42.81814" lon="1.74701">
        <ele>1812.51</ele>
        <time>2021-03-23T11:33:44Z</time>
      </trkpt>
      <trkpt lat="42.81813" lon="1.747">
        <ele>1811.924</ele>
        <time>2021-03-23T11:33:46Z</time>
      </trkpt>
      <trkpt lat="42.81812" lon="1.74698">
        <ele>1811.555</ele>
        <time>2021-03-23T11:33:48Z</time>
      </trkpt>
      <trkpt lat="42.81811" lon="1.74696">
        <ele>1811.548</ele>
        <time>2021-03-23T11:33:50Z</time>
      </trkpt>
      <trkpt lat="42.8181" lon="1.74694">
        <ele>1811.76</ele>
        <time>2021-03-23T11:33:52Z</time>
      </trkpt>
      <trkpt lat="42.81809" lon="1.74692">
        <ele>1813.448</ele>
        <time>2021-03-23T11:33:54Z</time>
      </trkpt>
      <trkpt lat="42.81808" lon="1.74689">
        <ele>1813.487</ele>
        <time>2021-03-23T11:33:56Z</time>
      </trkpt>
      <trkpt lat="42.81808" lon="1.74688">
        <ele>1812.569</ele>
        <time>2021-03-23T11:33:58Z</time>
      </trkpt>
      <trkpt lat="42.81807" lon="1.74687">
        <ele>1812.05</ele>
        <time>2021-03-23T11:34:00Z</time>
      </trkpt>
      <trkpt lat="42.81806" lon="1.74685">
        <ele>1811.418</ele>
        <time>2021-03-23T11:34:02Z</time>
      </trkpt>
      <trkpt lat="42.81806" lon="1.74683">
        <ele>1810.951</ele>
        <time>2021-03-23T11:34:04Z</time>
      </trkpt>
      <trkpt lat="42.81805" lon="1.74682">
        <ele>1809.772</ele>
        <time>2021-03-23T11:34:06Z</time>
      </trkpt>
      <trkpt lat="42.81804" lon="1.74681">
        <ele>1808.788</ele>
        <time>2021-03-23T11:34:08Z</time>
      </trkpt>
      <trkpt lat="42.81804" lon="1.74681">
        <ele>1807.83</ele>
        <time>2021-03-23T11:34:10Z</time>
      </trkpt>
      <trkpt lat="42.81803" lon="1.7468">
        <ele>1807.926</ele>
        <time>2021-03-23T11:34:12Z</time>
      </trkpt>
      <trkpt lat="42.81802" lon="1.74678">
        <ele>1807.891</ele>
        <time>2021-03-23T11:34:14Z</time>
      </trkpt>
      <trkpt lat="42.81802" lon="1.74677">
        <ele>1807.664</ele>
        <time>2021-03-23T11:34:16Z</time>
      </trkpt>
      <trkpt lat="42.818" lon="1.74675">
        <ele>1809.352</ele>
        <time>2021-03-23T11:34:18Z</time>
      </trkpt>
      <trkpt lat="42.81799" lon="1.74673">
        <ele>1810.373</ele>
        <time>2021-03-23T11:34:20Z</time>
      </trkpt>
      <trkpt lat="42.81798" lon="1.74672">
        <ele>1810.082</ele>
        <time>2021-03-23T11:34:22Z</time>
      </trkpt>
      <trkpt lat="42.81797" lon="1.74671">
        <ele>1811.326</ele>
        <time>2021-03-23T11:34:24Z</time>
      </trkpt>
      <trkpt lat="42.81797" lon="1.7467">
        <ele>1811.421</ele>
        <time>2021-03-23T11:34:26Z</time>
      </trkpt>
      <trkpt lat="42.81796" lon="1.74669">
        <ele>1811.145</ele>
        <time>2021-03-23T11:34:28Z</time>
      </trkpt>
      <trkpt lat="42.81795" lon="1.74668">
        <ele>1811.407</ele>
        <time>2021-03-23T11:34:30Z</time>
      </trkpt>
      <trkpt lat="42.81794" lon="1.74666">
        <ele>1811.213</ele>
        <time>2021-03-23T11:34:32Z</time>
      </trkpt>
      <trkpt lat="42.81793" lon="1.74665">
        <ele>1810.898</ele>
        <time>2021-03-23T11:34:34Z</time>
      </trkpt>
      <trkpt lat="42.81792" lon="1.74664">
        <ele>1810.153</ele>
        <time>2021-03-23T11:34:36Z</time>
      </trkpt>
      <trkpt lat="42.81791" lon="1.74663">
        <ele>1810.589</ele>
        <time>2021-03-23T11:34:38Z</time>
      </trkpt>
      <trkpt lat="42.8179" lon="1.74662">
        <ele>1810.611</ele>
        <time>2021-03-23T11:34:40Z</time>
      </trkpt>
      <trkpt lat="42.81789" lon="1.74661">
        <ele>1811.141</ele>
        <time>2021-03-23T11:34:42Z</time>
      </trkpt>
      <trkpt lat="42.81788" lon="1.7466">
        <ele>1810.995</ele>
        <time>2021-03-23T11:34:44Z</time>
      </trkpt>
      <trkpt lat="42.81787" lon="1.74659">
        <ele>1811.488</ele>
        <time>2021-03-23T11:34:46Z</time>
      </trkpt>
      <trkpt lat="42.81786" lon="1.74657">
        <ele>1811.316</ele>
        <time>2021-03-23T11:34:48Z</time>
      </trkpt>
      <trkpt lat="42.81785" lon="1.74656">
        <ele>1811.568</ele>
        <time>2021-03-23T11:34:50Z</time>
      </trkpt>
      <trkpt lat="42.81784" lon="1.74655">
        <ele>1811.111</ele>
        <time>2021-03-23T11:34:52Z</time>
      </trkpt>
      <trkpt lat="42.81784" lon="1.74654">
        <ele>1810.803</ele>
        <time>2021-03-23T11:34:54Z</time>
      </trkpt>
      <trkpt lat="42.81783" lon="1.74653">
        <ele>1810.184</ele>
        <time>2021-03-23T11:34:56Z</time>
      </trkpt>
      <trkpt lat="42.81782" lon="1.74652">
        <ele>1810.187</ele>
        <time>2021-03-23T11:34:58Z</time>
      </trkpt>
      <trkpt lat="42.81781" lon="1.74651">
        <ele>1810.139</ele>
        <time>2021-03-23T11:35:00Z</time>
      </trkpt>
      <trkpt lat="42.8178" lon="1.74651">
        <ele>1809.542</ele>
        <time>2021-03-23T11:35:02Z</time>
      </trkpt>
      <trkpt lat="42.81779" lon="1.74651">
        <ele>1809.086</ele>
        <time>2021-03-23T11:35:04Z</time>
      </trkpt>
      <trkpt lat="42.81778" lon="1.7465">
        <ele>1809.162</ele>
        <time>2021-03-23T11:35:06Z</time>
      </trkpt>
      <trkpt lat="42.81777" lon="1.7465">
        <ele>1808.305</ele>
        <time>2021-03-23T11:35:08Z</time>
      </trkpt>
      <trkpt lat="42.81776" lon="1.74649">
        <ele>1808.548</ele>
        <time>2021-03-23T11:35:10Z</time>
      </trkpt>
      <trkpt lat="42.81775" lon="1.74648">
        <ele>1807.754</ele>
        <time>2021-03-23T11:35:12Z</time>
      </trkpt>
      <trkpt lat="42.81774" lon="1.74647">
        <ele>1807.523</ele>
        <time>2021-03-23T11:35:14Z</time>
      </trkpt>
      <trkpt lat="42.81772" lon="1.74646">
        <ele>1808.738</ele>
        <time>2021-03-23T11:35:16Z</time>
      </trkpt>
      <trkpt lat="42.81771" lon="1.74645">
        <ele>1808.594</ele>
        <time>2021-03-23T11:35:18Z</time>
      </trkpt>
      <trkpt lat="42.81771" lon="1.74645">
        <ele>1808.509</ele>
        <time>2021-03-23T11:35:20Z</time>
      </trkpt>
      <trkpt lat="42.81771" lon="1.74644">
        <ele>1809.126</ele>
        <time>2021-03-23T11:35:22Z</time>
      </trkpt>
      <trkpt lat="42.81771" lon="1.74644">
        <ele>1808.992</ele>
        <time>2021-03-23T11:35:24Z</time>
      </trkpt>
      <trkpt lat="42.81771" lon="1.74644">
        <ele>1808.92</ele>
        <time>2021-03-23T11:35:26Z</time>
      </trkpt>
      <trkpt lat="42.8177" lon="1.74644">
        <ele>1808.222</ele>
        <time>2021-03-23T11:35:28Z</time>
      </trkpt>
      <trkpt lat="42.81769" lon="1.74643">
        <ele>1808.458</ele>
        <time>2021-03-23T11:35:30Z</time>
      </trkpt>
      <trkpt lat="42.81769" lon="1.74642">
        <ele>1808.778</ele>
        <time>2021-03-23T11:35:32Z</time>
      </trkpt>
      <trkpt lat="42.81767" lon="1.74641">
        <ele>1808.878</ele>
        <time>2021-03-23T11:35:34Z</time>
      </trkpt>
      <trkpt lat="42.81767" lon="1.7464">
        <ele>1808.656</ele>
        <time>2021-03-23T11:35:36Z</time>
      </trkpt>
      <trkpt lat="42.81766" lon="1.74639">
        <ele>1807.431</ele>
        <time>2021-03-23T11:35:38Z</time>
      </trkpt>
      <trkpt lat="42.81766" lon="1.74638">
        <ele>1807.091</ele>
        <time>2021-03-23T11:35:40Z</time>
      </trkpt>
      <trkpt lat="42.81765" lon="1.74637">
        <ele>1806.593</ele>
        <time>2021-03-23T11:35:42Z</time>
      </trkpt>
      <trkpt lat="42.81764" lon="1.74636">
        <ele>1808.515</ele>
        <time>2021-03-23T11:35:44Z</time>
      </trkpt>
      <trkpt lat="42.81763" lon="1.74634">
        <ele>1808.182</ele>
        <time>2021-03-23T11:35:46Z</time>
      </trkpt>
      <trkpt lat="42.81762" lon="1.74634">
        <ele>1807.731</ele>
        <time>2021-03-23T11:35:48Z</time>
      </trkpt>
      <trkpt lat="42.81761" lon="1.74632">
        <ele>1807.318</ele>
        <time>2021-03-23T11:35:50Z</time>
      </trkpt>
      <trkpt lat="42.8176" lon="1.74633">
        <ele>1806.412</ele>
        <time>2021-03-23T11:35:52Z</time>
      </trkpt>
      <trkpt lat="42.81759" lon="1.74632">
        <ele>1806.822</ele>
        <time>2021-03-23T11:35:54Z</time>
      </trkpt>
      <trkpt lat="42.81758" lon="1.74631">
        <ele>1805.915</ele>
        <time>2021-03-23T11:35:56Z</time>
      </trkpt>
      <trkpt lat="42.81758" lon="1.7463">
        <ele>1805.475</ele>
        <time>2021-03-23T11:35:58Z</time>
      </trkpt>
      <trkpt lat="42.81757" lon="1.7463">
        <ele>1805.389</ele>
        <time>2021-03-23T11:36:00Z</time>
      </trkpt>
      <trkpt lat="42.81757" lon="1.7463">
        <ele>1804.479</ele>
        <time>2021-03-23T11:36:02Z</time>
      </trkpt>
      <trkpt lat="42.81756" lon="1.74629">
        <ele>1803.956</ele>
        <time>2021-03-23T11:36:04Z</time>
      </trkpt>
      <trkpt lat="42.81755" lon="1.74629">
        <ele>1804.071</ele>
        <time>2021-03-23T11:36:06Z</time>
      </trkpt>
      <trkpt lat="42.81755" lon="1.74628">
        <ele>1804.309</ele>
        <time>2021-03-23T11:36:08Z</time>
      </trkpt>
      <trkpt lat="42.81754" lon="1.74628">
        <ele>1805.074</ele>
        <time>2021-03-23T11:36:10Z</time>
      </trkpt>
      <trkpt lat="42.81754" lon="1.74627">
        <ele>1804.439</ele>
        <time>2021-03-23T11:36:12Z</time>
      </trkpt>
      <trkpt lat="42.81753" lon="1.74625">
        <ele>1804.715</ele>
        <time>2021-03-23T11:36:14Z</time>
      </trkpt>
      <trkpt lat="42.81752" lon="1.74624">
        <ele>1803.659</ele>
        <time>2021-03-23T11:36:16Z</time>
      </trkpt>
      <trkpt lat="42.81751" lon="1.74624">
        <ele>1802.506</ele>
        <time>2021-03-23T11:36:18Z</time>
      </trkpt>
      <trkpt lat="42.81751" lon="1.74623">
        <ele>1802.55</ele>
        <time>2021-03-23T11:36:20Z</time>
      </trkpt>
      <trkpt lat="42.8175" lon="1.74622">
        <ele>1802.598</ele>
        <time>2021-03-23T11:36:22Z</time>
      </trkpt>
      <trkpt lat="42.81749" lon="1.74622">
        <ele>1802.081</ele>
        <time>2021-03-23T11:36:24Z</time>
      </trkpt>
      <trkpt lat="42.81749" lon="1.74621">
        <ele>1802.059</ele>
        <time>2021-03-23T11:36:26Z</time>
      </trkpt>
      <trkpt lat="42.81748" lon="1.7462">
        <ele>1801.877</ele>
        <time>2021-03-23T11:36:28Z</time>
      </trkpt>
      <trkpt lat="42.81747" lon="1.74619">
        <ele>1801.082</ele>
        <time>2021-03-23T11:36:30Z</time>
      </trkpt>
      <trkpt lat="42.81746" lon="1.74618">
        <ele>1800.185</ele>
        <time>2021-03-23T11:36:32Z</time>
      </trkpt>
      <trkpt lat="42.81745" lon="1.74617">
        <ele>1799.298</ele>
        <time>2021-03-23T11:36:34Z</time>
      </trkpt>
      <trkpt lat="42.81744" lon="1.74616">
        <ele>1798.711</ele>
        <time>2021-03-23T11:36:36Z</time>
      </trkpt>
      <trkpt lat="42.81744" lon="1.74616">
        <ele>1798.431</ele>
        <time>2021-03-23T11:36:38Z</time>
      </trkpt>
      <trkpt lat="42.81743" lon="1.74615">
        <ele>1797.731</ele>
        <time>2021-03-23T11:36:40Z</time>
      </trkpt>
      <trkpt lat="42.81742" lon="1.74615">
        <ele>1797.041</ele>
        <time>2021-03-23T11:36:42Z</time>
      </trkpt>
      <trkpt lat="42.81742" lon="1.74614">
        <ele>1796.859</ele>
        <time>2021-03-23T11:36:44Z</time>
      </trkpt>
      <trkpt lat="42.81741" lon="1.74613">
        <ele>1796.092</ele>
        <time>2021-03-23T11:36:46Z</time>
      </trkpt>
      <trkpt lat="42.8174" lon="1.74612">
        <ele>1795.753</ele>
        <time>2021-03-23T11:36:48Z</time>
      </trkpt>
      <trkpt lat="42.8174" lon="1.74612">
        <ele>1795.284</ele>
        <time>2021-03-23T11:36:50Z</time>
      </trkpt>
      <trkpt lat="42.81739" lon="1.74611">
        <ele>1794.501</ele>
        <time>2021-03-23T11:36:52Z</time>
      </trkpt>
      <trkpt lat="42.81737" lon="1.74611">
        <ele>1794.378</ele>
        <time>2021-03-23T11:36:54Z</time>
      </trkpt>
      <trkpt lat="42.81737" lon="1.74611">
        <ele>1793.447</ele>
        <time>2021-03-23T11:36:56Z</time>
      </trkpt>
      <trkpt lat="42.81736" lon="1.74611">
        <ele>1793.063</ele>
        <time>2021-03-23T11:36:58Z</time>
      </trkpt>
      <trkpt lat="42.81735" lon="1.7461">
        <ele>1792.836</ele>
        <time>2021-03-23T11:37:00Z</time>
      </trkpt>
      <trkpt lat="42.81735" lon="1.7461">
        <ele>1792.103</ele>
        <time>2021-03-23T11:37:02Z</time>
      </trkpt>
      <trkpt lat="42.81734" lon="1.74609">
        <ele>1791.168</ele>
        <time>2021-03-23T11:37:04Z</time>
      </trkpt>
      <trkpt lat="42.81733" lon="1.74608">
        <ele>1791.33</ele>
        <time>2021-03-23T11:37:06Z</time>
      </trkpt>
      <trkpt lat="42.81733" lon="1.74608">
        <ele>1790.501</ele>
        <time>2021-03-23T11:37:08Z</time>
      </trkpt>
      <trkpt lat="42.81732" lon="1.74607">
        <ele>1790.413</ele>
        <time>2021-03-23T11:37:10Z</time>
      </trkpt>
      <trkpt lat="42.81732" lon="1.74607">
        <ele>1789.462</ele>
        <time>2021-03-23T11:37:12Z</time>
      </trkpt>
      <trkpt lat="42.81731" lon="1.74606">
        <ele>1788.271</ele>
        <time>2021-03-23T11:37:14Z</time>
      </trkpt>
      <trkpt lat="42.8173" lon="1.74605">
        <ele>1789.376</ele>
        <time>2021-03-23T11:37:16Z</time>
      </trkpt>
      <trkpt lat="42.8173" lon="1.74603">
        <ele>1789.467</ele>
        <time>2021-03-23T11:37:18Z</time>
      </trkpt>
      <trkpt lat="42.81729" lon="1.74602">
        <ele>1788.889</ele>
        <time>2021-03-23T11:37:20Z</time>
      </trkpt>
      <trkpt lat="42.81728" lon="1.74601">
        <ele>1788.204</ele>
        <time>2021-03-23T11:37:22Z</time>
      </trkpt>
      <trkpt lat="42.81727" lon="1.746">
        <ele>1787.931</ele>
        <time>2021-03-23T11:37:24Z</time>
      </trkpt>
      <trkpt lat="42.81726" lon="1.74599">
        <ele>1788.486</ele>
        <time>2021-03-23T11:37:26Z</time>
      </trkpt>
      <trkpt lat="42.81726" lon="1.74598">
        <ele>1788.083</ele>
        <time>2021-03-23T11:37:28Z</time>
      </trkpt>
      <trkpt lat="42.81725" lon="1.74597">
        <ele>1787.337</ele>
        <time>2021-03-23T11:37:30Z</time>
      </trkpt>
      <trkpt lat="42.81724" lon="1.74595">
        <ele>1787.593</ele>
        <time>2021-03-23T11:37:32Z</time>
      </trkpt>
      <trkpt lat="42.81723" lon="1.74593">
        <ele>1786.841</ele>
        <time>2021-03-23T11:37:34Z</time>
      </trkpt>
      <trkpt lat="42.81722" lon="1.74591">
        <ele>1786.46</ele>
        <time>2021-03-23T11:37:36Z</time>
      </trkpt>
      <trkpt lat="42.8172" lon="1.74589">
        <ele>1786.999</ele>
        <time>2021-03-23T11:37:38Z</time>
      </trkpt>
      <trkpt lat="42.81719" lon="1.74589">
        <ele>1785.374</ele>
        <time>2021-03-23T11:37:40Z</time>
      </trkpt>
      <trkpt lat="42.81718" lon="1.74589">
        <ele>1785.147</ele>
        <time>2021-03-23T11:37:42Z</time>
      </trkpt>
      <trkpt lat="42.81716" lon="1.74587">
        <ele>1785.196</ele>
        <time>2021-03-23T11:37:44Z</time>
      </trkpt>
      <trkpt lat="42.81716" lon="1.74586">
        <ele>1784.076</ele>
        <time>2021-03-23T11:37:46Z</time>
      </trkpt>
      <trkpt lat="42.81715" lon="1.74585">
        <ele>1783.549</ele>
        <time>2021-03-23T11:37:48Z</time>
      </trkpt>
      <trkpt lat="42.81713" lon="1.74585">
        <ele>1781.864</ele>
        <time>2021-03-23T11:37:50Z</time>
      </trkpt>
      <trkpt lat="42.81713" lon="1.74584">
        <ele>1781.985</ele>
        <time>2021-03-23T11:37:52Z</time>
      </trkpt>
      <trkpt lat="42.81712" lon="1.74582">
        <ele>1781.937</ele>
        <time>2021-03-23T11:37:54Z</time>
      </trkpt>
      <trkpt lat="42.81711" lon="1.74581">
        <ele>1781.106</ele>
        <time>2021-03-23T11:37:56Z</time>
      </trkpt>
      <trkpt lat="42.8171" lon="1.74578">
        <ele>1781.392</ele>
        <time>2021-03-23T11:37:58Z</time>
      </trkpt>
      <trkpt lat="42.8171" lon="1.74576">
        <ele>1783.096</ele>
        <time>2021-03-23T11:38:00Z</time>
      </trkpt>
      <trkpt lat="42.8171" lon="1.74576">
        <ele>1782.052</ele>
        <time>2021-03-23T11:38:02Z</time>
      </trkpt>
      <trkpt lat="42.8171" lon="1.74576">
        <ele>1782.007</ele>
        <time>2021-03-23T11:38:04Z</time>
      </trkpt>
      <trkpt lat="42.8171" lon="1.74576">
        <ele>1782.004</ele>
        <time>2021-03-23T11:38:06Z</time>
      </trkpt>
      <trkpt lat="42.8171" lon="1.74576">
        <ele>1781.988</ele>
        <time>2021-03-23T11:38:08Z</time>
      </trkpt>
      <trkpt lat="42.81709" lon="1.74575">
        <ele>1781.94</ele>
        <time>2021-03-23T11:38:10Z</time>
      </trkpt>
      <trkpt lat="42.81708" lon="1.74573">
        <ele>1781.622</ele>
        <time>2021-03-23T11:38:12Z</time>
      </trkpt>
      <trkpt lat="42.81707" lon="1.74572">
        <ele>1781.394</ele>
        <time>2021-03-23T11:38:14Z</time>
      </trkpt>
      <trkpt lat="42.81706" lon="1.7457">
        <ele>1780.28</ele>
        <time>2021-03-23T11:38:16Z</time>
      </trkpt>
      <trkpt lat="42.81706" lon="1.74569">
        <ele>1779.699</ele>
        <time>2021-03-23T11:38:18Z</time>
      </trkpt>
      <trkpt lat="42.81705" lon="1.74568">
        <ele>1779.501</ele>
        <time>2021-03-23T11:38:20Z</time>
      </trkpt>
      <trkpt lat="42.81704" lon="1.74567">
        <ele>1778.941</ele>
        <time>2021-03-23T11:38:22Z</time>
      </trkpt>
      <trkpt lat="42.81704" lon="1.74567">
        <ele>1778.276</ele>
        <time>2021-03-23T11:38:24Z</time>
      </trkpt>
      <trkpt lat="42.81703" lon="1.74565">
        <ele>1778.013</ele>
        <time>2021-03-23T11:38:26Z</time>
      </trkpt>
      <trkpt lat="42.81702" lon="1.74564">
        <ele>1777.3</ele>
        <time>2021-03-23T11:38:28Z</time>
      </trkpt>
      <trkpt lat="42.81701" lon="1.74563">
        <ele>1776.925</ele>
        <time>2021-03-23T11:38:30Z</time>
      </trkpt>
      <trkpt lat="42.817" lon="1.74562">
        <ele>1776.388</ele>
        <time>2021-03-23T11:38:32Z</time>
      </trkpt>
      <trkpt lat="42.817" lon="1.74561">
        <ele>1775.859</ele>
        <time>2021-03-23T11:38:34Z</time>
      </trkpt>
      <trkpt lat="42.81699" lon="1.74559">
        <ele>1775.803</ele>
        <time>2021-03-23T11:38:36Z</time>
      </trkpt>
      <trkpt lat="42.81697" lon="1.74558">
        <ele>1775.557</ele>
        <time>2021-03-23T11:38:38Z</time>
      </trkpt>
      <trkpt lat="42.81697" lon="1.74557">
        <ele>1774.883</ele>
        <time>2021-03-23T11:38:40Z</time>
      </trkpt>
      <trkpt lat="42.81696" lon="1.74556">
        <ele>1774.685</ele>
        <time>2021-03-23T11:38:42Z</time>
      </trkpt>
      <trkpt lat="42.81695" lon="1.74555">
        <ele>1774.61</ele>
        <time>2021-03-23T11:38:44Z</time>
      </trkpt>
      <trkpt lat="42.81694" lon="1.74554">
        <ele>1773.621</ele>
        <time>2021-03-23T11:38:46Z</time>
      </trkpt>
      <trkpt lat="42.81693" lon="1.74553">
        <ele>1773.372</ele>
        <time>2021-03-23T11:38:48Z</time>
      </trkpt>
      <trkpt lat="42.81693" lon="1.74552">
        <ele>1772.485</ele>
        <time>2021-03-23T11:38:50Z</time>
      </trkpt>
      <trkpt lat="42.81692" lon="1.74552">
        <ele>1772.241</ele>
        <time>2021-03-23T11:38:52Z</time>
      </trkpt>
      <trkpt lat="42.81691" lon="1.74552">
        <ele>1771.66</ele>
        <time>2021-03-23T11:38:54Z</time>
      </trkpt>
      <trkpt lat="42.81691" lon="1.74552">
        <ele>1771.898</ele>
        <time>2021-03-23T11:38:56Z</time>
      </trkpt>
      <trkpt lat="42.81691" lon="1.74551">
        <ele>1771.486</ele>
        <time>2021-03-23T11:38:58Z</time>
      </trkpt>
      <trkpt lat="42.81691" lon="1.7455">
        <ele>1771.349</ele>
        <time>2021-03-23T11:39:00Z</time>
      </trkpt>
      <trkpt lat="42.8169" lon="1.74549">
        <ele>1770.756</ele>
        <time>2021-03-23T11:39:02Z</time>
      </trkpt>
      <trkpt lat="42.81689" lon="1.74547">
        <ele>1770.24</ele>
        <time>2021-03-23T11:39:04Z</time>
      </trkpt>
      <trkpt lat="42.81689" lon="1.74545">
        <ele>1769.458</ele>
        <time>2021-03-23T11:39:06Z</time>
      </trkpt>
      <trkpt lat="42.81688" lon="1.74544">
        <ele>1768.764</ele>
        <time>2021-03-23T11:39:08Z</time>
      </trkpt>
      <trkpt lat="42.81688" lon="1.74543">
        <ele>1768.149</ele>
        <time>2021-03-23T11:39:10Z</time>
      </trkpt>
      <trkpt lat="42.81688" lon="1.74542">
        <ele>1768.958</ele>
        <time>2021-03-23T11:39:12Z</time>
      </trkpt>
      <trkpt lat="42.81687" lon="1.7454">
        <ele>1768.622</ele>
        <time>2021-03-23T11:39:14Z</time>
      </trkpt>
      <trkpt lat="42.81687" lon="1.74538">
        <ele>1768.276</ele>
        <time>2021-03-23T11:39:16Z</time>
      </trkpt>
      <trkpt lat="42.81686" lon="1.74536">
        <ele>1769.414</ele>
        <time>2021-03-23T11:39:18Z</time>
      </trkpt>
      <trkpt lat="42.81685" lon="1.74535">
        <ele>1769.018</ele>
        <time>2021-03-23T11:39:20Z</time>
      </trkpt>
      <trkpt lat="42.81685" lon="1.74534">
        <ele>1768.927</ele>
        <time>2021-03-23T11:39:22Z</time>
      </trkpt>
      <trkpt lat="42.81684" lon="1.74533">
        <ele>1769.529</ele>
        <time>2021-03-23T11:39:24Z</time>
      </trkpt>
      <trkpt lat="42.81684" lon="1.74532">
        <ele>1769.217</ele>
        <time>2021-03-23T11:39:26Z</time>
      </trkpt>
      <trkpt lat="42.81683" lon="1.74531">
        <ele>1768.821</ele>
        <time>2021-03-23T11:39:28Z</time>
      </trkpt>
      <trkpt lat="42.81682" lon="1.7453">
        <ele>1768.491</ele>
        <time>2021-03-23T11:39:30Z</time>
      </trkpt>
      <trkpt lat="42.81681" lon="1.74529">
        <ele>1768.007</ele>
        <time>2021-03-23T11:39:32Z</time>
      </trkpt>
      <trkpt lat="42.8168" lon="1.74528">
        <ele>1767.713</ele>
        <time>2021-03-23T11:39:34Z</time>
      </trkpt>
      <trkpt lat="42.8168" lon="1.74527">
        <ele>1766.968</ele>
        <time>2021-03-23T11:39:36Z</time>
      </trkpt>
      <trkpt lat="42.81679" lon="1.74526">
        <ele>1766.22</ele>
        <time>2021-03-23T11:39:38Z</time>
      </trkpt>
      <trkpt lat="42.81679" lon="1.74525">
        <ele>1765.559</ele>
        <time>2021-03-23T11:39:40Z</time>
      </trkpt>
      <trkpt lat="42.81678" lon="1.74524">
        <ele>1765.58</ele>
        <time>2021-03-23T11:39:42Z</time>
      </trkpt>
      <trkpt lat="42.81677" lon="1.74522">
        <ele>1765.442</ele>
        <time>2021-03-23T11:39:44Z</time>
      </trkpt>
      <trkpt lat="42.81677" lon="1.74521">
        <ele>1765.22</ele>
        <time>2021-03-23T11:39:46Z</time>
      </trkpt>
      <trkpt lat="42.81677" lon="1.7452">
        <ele>1764.57</ele>
        <time>2021-03-23T11:39:48Z</time>
      </trkpt>
      <trkpt lat="42.81678" lon="1.74519">
        <ele>1765.586</ele>
        <time>2021-03-23T11:39:50Z</time>
      </trkpt>
      <trkpt lat="42.81677" lon="1.74518">
        <ele>1764.63</ele>
        <time>2021-03-23T11:39:52Z</time>
      </trkpt>
      <trkpt lat="42.81677" lon="1.74516">
        <ele>1764.306</ele>
        <time>2021-03-23T11:39:54Z</time>
      </trkpt>
      <trkpt lat="42.81676" lon="1.74514">
        <ele>1764.523</ele>
        <time>2021-03-23T11:39:56Z</time>
      </trkpt>
      <trkpt lat="42.81675" lon="1.74513">
        <ele>1764.072</ele>
        <time>2021-03-23T11:39:58Z</time>
      </trkpt>
      <trkpt lat="42.81675" lon="1.74512">
        <ele>1763.936</ele>
        <time>2021-03-23T11:40:00Z</time>
      </trkpt>
      <trkpt lat="42.81673" lon="1.74511">
        <ele>1763.448</ele>
        <time>2021-03-23T11:40:02Z</time>
      </trkpt>
      <trkpt lat="42.81672" lon="1.7451">
        <ele>1763.914</ele>
        <time>2021-03-23T11:40:04Z</time>
      </trkpt>
      <trkpt lat="42.81671" lon="1.74509">
        <ele>1764.411</ele>
        <time>2021-03-23T11:40:06Z</time>
      </trkpt>
      <trkpt lat="42.8167" lon="1.74508">
        <ele>1764.136</ele>
        <time>2021-03-23T11:40:08Z</time>
      </trkpt>
      <trkpt lat="42.81669" lon="1.74507">
        <ele>1763.71</ele>
        <time>2021-03-23T11:40:10Z</time>
      </trkpt>
      <trkpt lat="42.81668" lon="1.74506">
        <ele>1763.365</ele>
        <time>2021-03-23T11:40:12Z</time>
      </trkpt>
      <trkpt lat="42.81667" lon="1.74505">
        <ele>1763.78</ele>
        <time>2021-03-23T11:40:14Z</time>
      </trkpt>
      <trkpt lat="42.81666" lon="1.74505">
        <ele>1763.566</ele>
        <time>2021-03-23T11:40:16Z</time>
      </trkpt>
      <trkpt lat="42.81665" lon="1.74504">
        <ele>1763.257</ele>
        <time>2021-03-23T11:40:18Z</time>
      </trkpt>
      <trkpt lat="42.81664" lon="1.74503">
        <ele>1762.71</ele>
        <time>2021-03-23T11:40:20Z</time>
      </trkpt>
      <trkpt lat="42.81663" lon="1.74502">
        <ele>1762.626</ele>
        <time>2021-03-23T11:40:22Z</time>
      </trkpt>
      <trkpt lat="42.81662" lon="1.74501">
        <ele>1762.268</ele>
        <time>2021-03-23T11:40:24Z</time>
      </trkpt>
      <trkpt lat="42.81661" lon="1.745">
        <ele>1762.45</ele>
        <time>2021-03-23T11:40:26Z</time>
      </trkpt>
      <trkpt lat="42.8166" lon="1.74498">
        <ele>1763.707</ele>
        <time>2021-03-23T11:40:28Z</time>
      </trkpt>
      <trkpt lat="42.81659" lon="1.74496">
        <ele>1764.092</ele>
        <time>2021-03-23T11:40:30Z</time>
      </trkpt>
      <trkpt lat="42.81658" lon="1.74495">
        <ele>1763.846</ele>
        <time>2021-03-23T11:40:32Z</time>
      </trkpt>
      <trkpt lat="42.81657" lon="1.74494">
        <ele>1763.988</ele>
        <time>2021-03-23T11:40:34Z</time>
      </trkpt>
      <trkpt lat="42.81656" lon="1.74492">
        <ele>1764.001</ele>
        <time>2021-03-23T11:40:36Z</time>
      </trkpt>
      <trkpt lat="42.81655" lon="1.74491">
        <ele>1764.036</ele>
        <time>2021-03-23T11:40:38Z</time>
      </trkpt>
      <trkpt lat="42.81654" lon="1.7449">
        <ele>1763.697</ele>
        <time>2021-03-23T11:40:40Z</time>
      </trkpt>
      <trkpt lat="42.81654" lon="1.74488">
        <ele>1763.791</ele>
        <time>2021-03-23T11:40:42Z</time>
      </trkpt>
      <trkpt lat="42.81653" lon="1.74487">
        <ele>1763.601</ele>
        <time>2021-03-23T11:40:44Z</time>
      </trkpt>
      <trkpt lat="42.81652" lon="1.74485">
        <ele>1763.757</ele>
        <time>2021-03-23T11:40:46Z</time>
      </trkpt>
      <trkpt lat="42.81651" lon="1.74483">
        <ele>1764.45</ele>
        <time>2021-03-23T11:40:48Z</time>
      </trkpt>
      <trkpt lat="42.8165" lon="1.74482">
        <ele>1764.246</ele>
        <time>2021-03-23T11:40:50Z</time>
      </trkpt>
      <trkpt lat="42.8165" lon="1.74481">
        <ele>1763.631</ele>
        <time>2021-03-23T11:40:52Z</time>
      </trkpt>
      <trkpt lat="42.81649" lon="1.74479">
        <ele>1763.435</ele>
        <time>2021-03-23T11:40:54Z</time>
      </trkpt>
      <trkpt lat="42.81648" lon="1.74477">
        <ele>1763.309</ele>
        <time>2021-03-23T11:40:56Z</time>
      </trkpt>
      <trkpt lat="42.81648" lon="1.74476">
        <ele>1762.871</ele>
        <time>2021-03-23T11:40:58Z</time>
      </trkpt>
      <trkpt lat="42.81647" lon="1.74475">
        <ele>1762.571</ele>
        <time>2021-03-23T11:41:00Z</time>
      </trkpt>
      <trkpt lat="42.81646" lon="1.74473">
        <ele>1763.362</ele>
        <time>2021-03-23T11:41:02Z</time>
      </trkpt>
      <trkpt lat="42.81644" lon="1.7447">
        <ele>1764.375</ele>
        <time>2021-03-23T11:41:04Z</time>
      </trkpt>
      <trkpt lat="42.81642" lon="1.74468">
        <ele>1765.277</ele>
        <time>2021-03-23T11:41:06Z</time>
      </trkpt>
      <trkpt lat="42.8164" lon="1.74467">
        <ele>1766.352</ele>
        <time>2021-03-23T11:41:08Z</time>
      </trkpt>
      <trkpt lat="42.8164" lon="1.74467">
        <ele>1765.538</ele>
        <time>2021-03-23T11:41:10Z</time>
      </trkpt>
      <trkpt lat="42.81639" lon="1.74467">
        <ele>1765.051</ele>
        <time>2021-03-23T11:41:12Z</time>
      </trkpt>
      <trkpt lat="42.81638" lon="1.74465">
        <ele>1765.034</ele>
        <time>2021-03-23T11:41:14Z</time>
      </trkpt>
      <trkpt lat="42.81638" lon="1.74464">
        <ele>1764.991</ele>
        <time>2021-03-23T11:41:16Z</time>
      </trkpt>
      <trkpt lat="42.81637" lon="1.74462">
        <ele>1766.491</ele>
        <time>2021-03-23T11:41:18Z</time>
      </trkpt>
      <trkpt lat="42.81636" lon="1.74461">
        <ele>1767.636</ele>
        <time>2021-03-23T11:41:20Z</time>
      </trkpt>
      <trkpt lat="42.81636" lon="1.74461">
        <ele>1767.641</ele>
        <time>2021-03-23T11:41:22Z</time>
      </trkpt>
      <trkpt lat="42.81636" lon="1.74461">
        <ele>1767.654</ele>
        <time>2021-03-23T11:41:24Z</time>
      </trkpt>
      <trkpt lat="42.81636" lon="1.74461">
        <ele>1767.666</ele>
        <time>2021-03-23T11:41:26Z</time>
      </trkpt>
      <trkpt lat="42.81636" lon="1.74461">
        <ele>1767.66</ele>
        <time>2021-03-23T11:41:28Z</time>
      </trkpt>
      <trkpt lat="42.81636" lon="1.74461">
        <ele>1767.756</ele>
        <time>2021-03-23T11:41:30Z</time>
      </trkpt>
      <trkpt lat="42.81636" lon="1.74461">
        <ele>1767.703</ele>
        <time>2021-03-23T11:41:32Z</time>
      </trkpt>
      <trkpt lat="42.81636" lon="1.74461">
        <ele>1767.686</ele>
        <time>2021-03-23T11:41:34Z</time>
      </trkpt>
      <trkpt lat="42.81636" lon="1.74461">
        <ele>1767.685</ele>
        <time>2021-03-23T11:41:36Z</time>
      </trkpt>
      <trkpt lat="42.81636" lon="1.74461">
        <ele>1767.678</ele>
        <time>2021-03-23T11:41:38Z</time>
      </trkpt>
      <trkpt lat="42.81636" lon="1.74461">
        <ele>1767.679</ele>
        <time>2021-03-23T11:41:40Z</time>
      </trkpt>
      <trkpt lat="42.81636" lon="1.7446">
        <ele>1768.143</ele>
        <time>2021-03-23T11:41:42Z</time>
      </trkpt>
      <trkpt lat="42.81636" lon="1.7446">
        <ele>1767.976</ele>
        <time>2021-03-23T11:41:44Z</time>
      </trkpt>
      <trkpt lat="42.81636" lon="1.7446">
        <ele>1767.973</ele>
        <time>2021-03-23T11:41:46Z</time>
      </trkpt>
      <trkpt lat="42.81636" lon="1.7446">
        <ele>1767.439</ele>
        <time>2021-03-23T11:41:48Z</time>
      </trkpt>
      <trkpt lat="42.81636" lon="1.74461">
        <ele>1767.424</ele>
        <time>2021-03-23T11:41:50Z</time>
      </trkpt>
      <trkpt lat="42.81636" lon="1.74461">
        <ele>1767.421</ele>
        <time>2021-03-23T11:41:52Z</time>
      </trkpt>
      <trkpt lat="42.81636" lon="1.74461">
        <ele>1767.425</ele>
        <time>2021-03-23T11:41:54Z</time>
      </trkpt>
      <trkpt lat="42.81636" lon="1.74461">
        <ele>1767.385</ele>
        <time>2021-03-23T11:41:56Z</time>
      </trkpt>
      <trkpt lat="42.81636" lon="1.74461">
        <ele>1767.383</ele>
        <time>2021-03-23T11:41:58Z</time>
      </trkpt>
      <trkpt lat="42.81636" lon="1.74461">
        <ele>1767.404</ele>
        <time>2021-03-23T11:42:00Z</time>
      </trkpt>
      <trkpt lat="42.81636" lon="1.74461">
        <ele>1767.412</ele>
        <time>2021-03-23T11:42:02Z</time>
      </trkpt>
      <trkpt lat="42.81636" lon="1.74461">
        <ele>1767.074</ele>
        <time>2021-03-23T11:42:04Z</time>
      </trkpt>
      <trkpt lat="42.81636" lon="1.74461">
        <ele>1767.088</ele>
        <time>2021-03-23T11:42:06Z</time>
      </trkpt>
      <trkpt lat="42.81636" lon="1.74461">
        <ele>1767.068</ele>
        <time>2021-03-23T11:42:08Z</time>
      </trkpt>
      <trkpt lat="42.81636" lon="1.74461">
        <ele>1767.061</ele>
        <time>2021-03-23T11:42:10Z</time>
      </trkpt>
      <trkpt lat="42.81636" lon="1.74461">
        <ele>1767.065</ele>
        <time>2021-03-23T11:42:12Z</time>
      </trkpt>
      <trkpt lat="42.81636" lon="1.74461">
        <ele>1767.03</ele>
        <time>2021-03-23T11:42:14Z</time>
      </trkpt>
      <trkpt lat="42.81636" lon="1.74461">
        <ele>1767.022</ele>
        <time>2021-03-23T11:42:16Z</time>
      </trkpt>
      <trkpt lat="42.81636" lon="1.74461">
        <ele>1766.978</ele>
        <time>2021-03-23T11:42:18Z</time>
      </trkpt>
      <trkpt lat="42.81636" lon="1.74461">
        <ele>1766.936</ele>
        <time>2021-03-23T11:42:20Z</time>
      </trkpt>
      <trkpt lat="42.81636" lon="1.74461">
        <ele>1766.938</ele>
        <time>2021-03-23T11:42:22Z</time>
      </trkpt>
      <trkpt lat="42.81636" lon="1.74461">
        <ele>1766.95</ele>
        <time>2021-03-23T11:42:24Z</time>
      </trkpt>
      <trkpt lat="42.81636" lon="1.74461">
        <ele>1766.956</ele>
        <time>2021-03-23T11:42:26Z</time>
      </trkpt>
      <trkpt lat="42.81636" lon="1.74461">
        <ele>1766.962</ele>
        <time>2021-03-23T11:42:28Z</time>
      </trkpt>
      <trkpt lat="42.81636" lon="1.74461">
        <ele>1766.132</ele>
        <time>2021-03-23T11:42:30Z</time>
      </trkpt>
      <trkpt lat="42.81636" lon="1.7446">
        <ele>1766.109</ele>
        <time>2021-03-23T11:42:32Z</time>
      </trkpt>
      <trkpt lat="42.81634" lon="1.74462">
        <ele>1765.953</ele>
        <time>2021-03-23T11:42:34Z</time>
      </trkpt>
      <trkpt lat="42.81634" lon="1.74463">
        <ele>1766.18</ele>
        <time>2021-03-23T11:42:36Z</time>
      </trkpt>
      <trkpt lat="42.81634" lon="1.74464">
        <ele>1766.116</ele>
        <time>2021-03-23T11:42:38Z</time>
      </trkpt>
      <trkpt lat="42.81634" lon="1.74464">
        <ele>1766.113</ele>
        <time>2021-03-23T11:42:40Z</time>
      </trkpt>
      <trkpt lat="42.81634" lon="1.74464">
        <ele>1766.109</ele>
        <time>2021-03-23T11:42:42Z</time>
      </trkpt>
      <trkpt lat="42.81634" lon="1.74464">
        <ele>1766.104</ele>
        <time>2021-03-23T11:42:44Z</time>
      </trkpt>
      <trkpt lat="42.81634" lon="1.74464">
        <ele>1765.411</ele>
        <time>2021-03-23T11:42:46Z</time>
      </trkpt>
      <trkpt lat="42.81634" lon="1.74464">
        <ele>1765.585</ele>
        <time>2021-03-23T11:42:48Z</time>
      </trkpt>
      <trkpt lat="42.81634" lon="1.74463">
        <ele>1765.84</ele>
        <time>2021-03-23T11:42:50Z</time>
      </trkpt>
      <trkpt lat="42.81634" lon="1.74464">
        <ele>1765.756</ele>
        <time>2021-03-23T11:42:52Z</time>
      </trkpt>
      <trkpt lat="42.81634" lon="1.74464">
        <ele>1765.683</ele>
        <time>2021-03-23T11:42:54Z</time>
      </trkpt>
      <trkpt lat="42.81635" lon="1.74464">
        <ele>1765.676</ele>
        <time>2021-03-23T11:42:56Z</time>
      </trkpt>
      <trkpt lat="42.81635" lon="1.74464">
        <ele>1765.665</ele>
        <time>2021-03-23T11:42:58Z</time>
      </trkpt>
      <trkpt lat="42.81635" lon="1.74464">
        <ele>1765.658</ele>
        <time>2021-03-23T11:43:00Z</time>
      </trkpt>
      <trkpt lat="42.81635" lon="1.74464">
        <ele>1765.659</ele>
        <time>2021-03-23T11:43:02Z</time>
      </trkpt>
      <trkpt lat="42.81634" lon="1.74464">
        <ele>1765.65</ele>
        <time>2021-03-23T11:43:04Z</time>
      </trkpt>
      <trkpt lat="42.81634" lon="1.74464">
        <ele>1765.624</ele>
        <time>2021-03-23T11:43:06Z</time>
      </trkpt>
      <trkpt lat="42.81634" lon="1.74464">
        <ele>1765.607</ele>
        <time>2021-03-23T11:43:08Z</time>
      </trkpt>
      <trkpt lat="42.81634" lon="1.74464">
        <ele>1765.608</ele>
        <time>2021-03-23T11:43:10Z</time>
      </trkpt>
      <trkpt lat="42.81634" lon="1.74464">
        <ele>1765.602</ele>
        <time>2021-03-23T11:43:12Z</time>
      </trkpt>
      <trkpt lat="42.81634" lon="1.74464">
        <ele>1765.594</ele>
        <time>2021-03-23T11:43:14Z</time>
      </trkpt>
      <trkpt lat="42.81635" lon="1.74464">
        <ele>1765.613</ele>
        <time>2021-03-23T11:43:16Z</time>
      </trkpt>
      <trkpt lat="42.81635" lon="1.74464">
        <ele>1765.623</ele>
        <time>2021-03-23T11:43:18Z</time>
      </trkpt>
      <trkpt lat="42.81635" lon="1.74464">
        <ele>1765.613</ele>
        <time>2021-03-23T11:43:20Z</time>
      </trkpt>
      <trkpt lat="42.81635" lon="1.74464">
        <ele>1765.593</ele>
        <time>2021-03-23T11:43:22Z</time>
      </trkpt>
      <trkpt lat="42.81635" lon="1.74464">
        <ele>1765.56</ele>
        <time>2021-03-23T11:43:24Z</time>
      </trkpt>
      <trkpt lat="42.81635" lon="1.74464">
        <ele>1765.559</ele>
        <time>2021-03-23T11:43:26Z</time>
      </trkpt>
      <trkpt lat="42.81635" lon="1.74464">
        <ele>1765.541</ele>
        <time>2021-03-23T11:43:28Z</time>
      </trkpt>
      <trkpt lat="42.81635" lon="1.74464">
        <ele>1765.348</ele>
        <time>2021-03-23T11:43:30Z</time>
      </trkpt>
      <trkpt lat="42.81635" lon="1.74464">
        <ele>1765.369</ele>
        <time>2021-03-23T11:43:32Z</time>
      </trkpt>
      <trkpt lat="42.81635" lon="1.74464">
        <ele>1765.409</ele>
        <time>2021-03-23T11:43:34Z</time>
      </trkpt>
      <trkpt lat="42.81635" lon="1.74464">
        <ele>1765.308</ele>
        <time>2021-03-23T11:43:36Z</time>
      </trkpt>
      <trkpt lat="42.81635" lon="1.74464">
        <ele>1765.256</ele>
        <time>2021-03-23T11:43:38Z</time>
      </trkpt>
      <trkpt lat="42.81635" lon="1.74464">
        <ele>1765.239</ele>
        <time>2021-03-23T11:43:40Z</time>
      </trkpt>
      <trkpt lat="42.81635" lon="1.74464">
        <ele>1765.175</ele>
        <time>2021-03-23T11:43:42Z</time>
      </trkpt>
      <trkpt lat="42.81635" lon="1.74464">
        <ele>1765.163</ele>
        <time>2021-03-23T11:43:44Z</time>
      </trkpt>
      <trkpt lat="42.81635" lon="1.74464">
        <ele>1765.163</ele>
        <time>2021-03-23T11:43:46Z</time>
      </trkpt>
      <trkpt lat="42.81635" lon="1.74464">
        <ele>1765.839</ele>
        <time>2021-03-23T11:43:48Z</time>
      </trkpt>
      <trkpt lat="42.81635" lon="1.74464">
        <ele>1765.802</ele>
        <time>2021-03-23T11:43:50Z</time>
      </trkpt>
      <trkpt lat="42.81635" lon="1.74463">
        <ele>1765.542</ele>
        <time>2021-03-23T11:43:52Z</time>
      </trkpt>
      <trkpt lat="42.81635" lon="1.74463">
        <ele>1765.523</ele>
        <time>2021-03-23T11:43:54Z</time>
      </trkpt>
      <trkpt lat="42.81635" lon="1.74463">
        <ele>1764.922</ele>
        <time>2021-03-23T11:43:56Z</time>
      </trkpt>
      <trkpt lat="42.81635" lon="1.74462">
        <ele>1764.025</ele>
        <time>2021-03-23T11:43:58Z</time>
      </trkpt>
      <trkpt lat="42.81635" lon="1.7446">
        <ele>1763.603</ele>
        <time>2021-03-23T11:44:00Z</time>
      </trkpt>
      <trkpt lat="42.81634" lon="1.74458">
        <ele>1763.218</ele>
        <time>2021-03-23T11:44:02Z</time>
      </trkpt>
      <trkpt lat="42.81634" lon="1.74457">
        <ele>1762.515</ele>
        <time>2021-03-23T11:44:04Z</time>
      </trkpt>
      <trkpt lat="42.81633" lon="1.74457">
        <ele>1762.419</ele>
        <time>2021-03-23T11:44:06Z</time>
      </trkpt>
      <trkpt lat="42.81633" lon="1.74457">
        <ele>1762.367</ele>
        <time>2021-03-23T11:44:08Z</time>
      </trkpt>
      <trkpt lat="42.81633" lon="1.74458">
        <ele>1762.729</ele>
        <time>2021-03-23T11:44:10Z</time>
      </trkpt>
      <trkpt lat="42.81633" lon="1.74459">
        <ele>1762.181</ele>
        <time>2021-03-23T11:44:12Z</time>
      </trkpt>
      <trkpt lat="42.81633" lon="1.7446">
        <ele>1762.137</ele>
        <time>2021-03-23T11:44:14Z</time>
      </trkpt>
      <trkpt lat="42.81633" lon="1.7446">
        <ele>1762.134</ele>
        <time>2021-03-23T11:44:16Z</time>
      </trkpt>
      <trkpt lat="42.81633" lon="1.7446">
        <ele>1762.132</ele>
        <time>2021-03-23T11:44:18Z</time>
      </trkpt>
      <trkpt lat="42.81633" lon="1.7446">
        <ele>1762.134</ele>
        <time>2021-03-23T11:44:20Z</time>
      </trkpt>
      <trkpt lat="42.81633" lon="1.7446">
        <ele>1762.111</ele>
        <time>2021-03-23T11:44:22Z</time>
      </trkpt>
      <trkpt lat="42.81633" lon="1.7446">
        <ele>1762.114</ele>
        <time>2021-03-23T11:44:24Z</time>
      </trkpt>
      <trkpt lat="42.81633" lon="1.7446">
        <ele>1762.108</ele>
        <time>2021-03-23T11:44:26Z</time>
      </trkpt>
      <trkpt lat="42.81633" lon="1.7446">
        <ele>1762.087</ele>
        <time>2021-03-23T11:44:28Z</time>
      </trkpt>
      <trkpt lat="42.81633" lon="1.7446">
        <ele>1762.098</ele>
        <time>2021-03-23T11:44:30Z</time>
      </trkpt>
      <trkpt lat="42.81633" lon="1.7446">
        <ele>1762.125</ele>
        <time>2021-03-23T11:44:32Z</time>
      </trkpt>
      <trkpt lat="42.81633" lon="1.7446">
        <ele>1762.096</ele>
        <time>2021-03-23T11:44:34Z</time>
      </trkpt>
      <trkpt lat="42.81633" lon="1.7446">
        <ele>1762.069</ele>
        <time>2021-03-23T11:44:36Z</time>
      </trkpt>
      <trkpt lat="42.81633" lon="1.7446">
        <ele>1762.058</ele>
        <time>2021-03-23T11:44:38Z</time>
      </trkpt>
      <trkpt lat="42.81633" lon="1.7446">
        <ele>1762.062</ele>
        <time>2021-03-23T11:44:40Z</time>
      </trkpt>
      <trkpt lat="42.81633" lon="1.7446">
        <ele>1762.04</ele>
        <time>2021-03-23T11:44:42Z</time>
      </trkpt>
      <trkpt lat="42.81633" lon="1.7446">
        <ele>1761.998</ele>
        <time>2021-03-23T11:44:44Z</time>
      </trkpt>
      <trkpt lat="42.81633" lon="1.74459">
        <ele>1761.29</ele>
        <time>2021-03-23T11:44:46Z</time>
      </trkpt>
      <trkpt lat="42.81633" lon="1.74459">
        <ele>1761.258</ele>
        <time>2021-03-23T11:44:48Z</time>
      </trkpt>
      <trkpt lat="42.81633" lon="1.74459">
        <ele>1761.208</ele>
        <time>2021-03-23T11:44:50Z</time>
      </trkpt>
      <trkpt lat="42.81633" lon="1.74459">
        <ele>1760.289</ele>
        <time>2021-03-23T11:44:52Z</time>
      </trkpt>
      <trkpt lat="42.81633" lon="1.74458">
        <ele>1760.095</ele>
        <time>2021-03-23T11:44:54Z</time>
      </trkpt>
      <trkpt lat="42.81632" lon="1.74457">
        <ele>1759.648</ele>
        <time>2021-03-23T11:44:56Z</time>
      </trkpt>
      <trkpt lat="42.8163" lon="1.74454">
        <ele>1759.813</ele>
        <time>2021-03-23T11:44:58Z</time>
      </trkpt>
      <trkpt lat="42.81632" lon="1.74449">
        <ele>1766.885</ele>
        <time>2021-03-23T11:45:00Z</time>
      </trkpt>
      <trkpt lat="42.8163" lon="1.74448">
        <ele>1765.01</ele>
        <time>2021-03-23T11:45:02Z</time>
      </trkpt>
      <trkpt lat="42.81629" lon="1.74447">
        <ele>1764.558</ele>
        <time>2021-03-23T11:45:04Z</time>
      </trkpt>
      <trkpt lat="42.81629" lon="1.74446">
        <ele>1763.626</ele>
        <time>2021-03-23T11:45:06Z</time>
      </trkpt>
      <trkpt lat="42.81628" lon="1.74445">
        <ele>1762.436</ele>
        <time>2021-03-23T11:45:08Z</time>
      </trkpt>
      <trkpt lat="42.81626" lon="1.74443">
        <ele>1761.965</ele>
        <time>2021-03-23T11:45:10Z</time>
      </trkpt>
      <trkpt lat="42.81624" lon="1.74442">
        <ele>1761.155</ele>
        <time>2021-03-23T11:45:12Z</time>
      </trkpt>
      <trkpt lat="42.81622" lon="1.74441">
        <ele>1761.401</ele>
        <time>2021-03-23T11:45:14Z</time>
      </trkpt>
      <trkpt lat="42.81621" lon="1.74439">
        <ele>1761.767</ele>
        <time>2021-03-23T11:45:16Z</time>
      </trkpt>
      <trkpt lat="42.81619" lon="1.74439">
        <ele>1760.852</ele>
        <time>2021-03-23T11:45:18Z</time>
      </trkpt>
      <trkpt lat="42.81618" lon="1.74437">
        <ele>1759.252</ele>
        <time>2021-03-23T11:45:20Z</time>
      </trkpt>
      <trkpt lat="42.81617" lon="1.74437">
        <ele>1758.164</ele>
        <time>2021-03-23T11:45:22Z</time>
      </trkpt>
      <trkpt lat="42.81615" lon="1.74436">
        <ele>1757.344</ele>
        <time>2021-03-23T11:45:24Z</time>
      </trkpt>
      <trkpt lat="42.81614" lon="1.74435">
        <ele>1757.865</ele>
        <time>2021-03-23T11:45:26Z</time>
      </trkpt>
      <trkpt lat="42.81613" lon="1.74433">
        <ele>1757.666</ele>
        <time>2021-03-23T11:45:28Z</time>
      </trkpt>
      <trkpt lat="42.81612" lon="1.74432">
        <ele>1758.721</ele>
        <time>2021-03-23T11:45:30Z</time>
      </trkpt>
      <trkpt lat="42.81611" lon="1.74431">
        <ele>1757.982</ele>
        <time>2021-03-23T11:45:32Z</time>
      </trkpt>
      <trkpt lat="42.8161" lon="1.74429">
        <ele>1756.995</ele>
        <time>2021-03-23T11:45:34Z</time>
      </trkpt>
      <trkpt lat="42.81609" lon="1.74428">
        <ele>1755.878</ele>
        <time>2021-03-23T11:45:36Z</time>
      </trkpt>
      <trkpt lat="42.81608" lon="1.74427">
        <ele>1753.97</ele>
        <time>2021-03-23T11:45:38Z</time>
      </trkpt>
      <trkpt lat="42.81607" lon="1.74425">
        <ele>1753.409</ele>
        <time>2021-03-23T11:45:40Z</time>
      </trkpt>
      <trkpt lat="42.81606" lon="1.74424">
        <ele>1753.081</ele>
        <time>2021-03-23T11:45:42Z</time>
      </trkpt>
      <trkpt lat="42.81605" lon="1.74423">
        <ele>1751.672</ele>
        <time>2021-03-23T11:45:44Z</time>
      </trkpt>
      <trkpt lat="42.81604" lon="1.74421">
        <ele>1751.786</ele>
        <time>2021-03-23T11:45:46Z</time>
      </trkpt>
      <trkpt lat="42.81602" lon="1.74419">
        <ele>1752.66</ele>
        <time>2021-03-23T11:45:48Z</time>
      </trkpt>
      <trkpt lat="42.81601" lon="1.74418">
        <ele>1752.62</ele>
        <time>2021-03-23T11:45:50Z</time>
      </trkpt>
      <trkpt lat="42.81601" lon="1.74416">
        <ele>1752.924</ele>
        <time>2021-03-23T11:45:52Z</time>
      </trkpt>
      <trkpt lat="42.816" lon="1.74415">
        <ele>1752.1</ele>
        <time>2021-03-23T11:45:54Z</time>
      </trkpt>
      <trkpt lat="42.81599" lon="1.74413">
        <ele>1752.177</ele>
        <time>2021-03-23T11:45:56Z</time>
      </trkpt>
      <trkpt lat="42.81598" lon="1.74411">
        <ele>1752.175</ele>
        <time>2021-03-23T11:45:58Z</time>
      </trkpt>
      <trkpt lat="42.81597" lon="1.74409">
        <ele>1751.237</ele>
        <time>2021-03-23T11:46:00Z</time>
      </trkpt>
      <trkpt lat="42.81596" lon="1.74408">
        <ele>1751.039</ele>
        <time>2021-03-23T11:46:02Z</time>
      </trkpt>
      <trkpt lat="42.81595" lon="1.74406">
        <ele>1749.688</ele>
        <time>2021-03-23T11:46:04Z</time>
      </trkpt>
      <trkpt lat="42.81594" lon="1.74404">
        <ele>1748.965</ele>
        <time>2021-03-23T11:46:06Z</time>
      </trkpt>
      <trkpt lat="42.81593" lon="1.74402">
        <ele>1748.943</ele>
        <time>2021-03-23T11:46:08Z</time>
      </trkpt>
      <trkpt lat="42.81591" lon="1.74399">
        <ele>1748.152</ele>
        <time>2021-03-23T11:46:10Z</time>
      </trkpt>
      <trkpt lat="42.8159" lon="1.74398">
        <ele>1746.892</ele>
        <time>2021-03-23T11:46:12Z</time>
      </trkpt>
      <trkpt lat="42.81589" lon="1.74396">
        <ele>1745.698</ele>
        <time>2021-03-23T11:46:14Z</time>
      </trkpt>
      <trkpt lat="42.81587" lon="1.74394">
        <ele>1744.794</ele>
        <time>2021-03-23T11:46:16Z</time>
      </trkpt>
      <trkpt lat="42.81585" lon="1.74392">
        <ele>1744.149</ele>
        <time>2021-03-23T11:46:18Z</time>
      </trkpt>
      <trkpt lat="42.81584" lon="1.74391">
        <ele>1743.526</ele>
        <time>2021-03-23T11:46:20Z</time>
      </trkpt>
      <trkpt lat="42.81583" lon="1.74388">
        <ele>1744.684</ele>
        <time>2021-03-23T11:46:22Z</time>
      </trkpt>
      <trkpt lat="42.81581" lon="1.74386">
        <ele>1744.071</ele>
        <time>2021-03-23T11:46:24Z</time>
      </trkpt>
      <trkpt lat="42.8158" lon="1.74385">
        <ele>1745.198</ele>
        <time>2021-03-23T11:46:26Z</time>
      </trkpt>
      <trkpt lat="42.81577" lon="1.74385">
        <ele>1744.58</ele>
        <time>2021-03-23T11:46:28Z</time>
      </trkpt>
      <trkpt lat="42.81575" lon="1.74383">
        <ele>1744.938</ele>
        <time>2021-03-23T11:46:30Z</time>
      </trkpt>
      <trkpt lat="42.81574" lon="1.74383">
        <ele>1743.994</ele>
        <time>2021-03-23T11:46:32Z</time>
      </trkpt>
      <trkpt lat="42.81572" lon="1.74381">
        <ele>1744.674</ele>
        <time>2021-03-23T11:46:34Z</time>
      </trkpt>
      <trkpt lat="42.8157" lon="1.74381">
        <ele>1743.755</ele>
        <time>2021-03-23T11:46:36Z</time>
      </trkpt>
      <trkpt lat="42.81569" lon="1.7438">
        <ele>1743.946</ele>
        <time>2021-03-23T11:46:38Z</time>
      </trkpt>
      <trkpt lat="42.81567" lon="1.74379">
        <ele>1742.87</ele>
        <time>2021-03-23T11:46:40Z</time>
      </trkpt>
      <trkpt lat="42.81566" lon="1.74379">
        <ele>1743.055</ele>
        <time>2021-03-23T11:46:42Z</time>
      </trkpt>
      <trkpt lat="42.81566" lon="1.74381">
        <ele>1743.649</ele>
        <time>2021-03-23T11:46:44Z</time>
      </trkpt>
      <trkpt lat="42.81566" lon="1.74381">
        <ele>1743.659</ele>
        <time>2021-03-23T11:46:46Z</time>
      </trkpt>
      <trkpt lat="42.81566" lon="1.74381">
        <ele>1743.672</ele>
        <time>2021-03-23T11:46:48Z</time>
      </trkpt>
      <trkpt lat="42.81565" lon="1.7438">
        <ele>1743.521</ele>
        <time>2021-03-23T11:46:50Z</time>
      </trkpt>
      <trkpt lat="42.81565" lon="1.7438">
        <ele>1743.476</ele>
        <time>2021-03-23T11:46:52Z</time>
      </trkpt>
      <trkpt lat="42.81565" lon="1.7438">
        <ele>1743.462</ele>
        <time>2021-03-23T11:46:54Z</time>
      </trkpt>
      <trkpt lat="42.81565" lon="1.7438">
        <ele>1743.468</ele>
        <time>2021-03-23T11:46:56Z</time>
      </trkpt>
      <trkpt lat="42.81565" lon="1.7438">
        <ele>1743.457</ele>
        <time>2021-03-23T11:46:58Z</time>
      </trkpt>
      <trkpt lat="42.81565" lon="1.7438">
        <ele>1742.668</ele>
        <time>2021-03-23T11:47:00Z</time>
      </trkpt>
      <trkpt lat="42.81565" lon="1.7438">
        <ele>1742.581</ele>
        <time>2021-03-23T11:47:02Z</time>
      </trkpt>
      <trkpt lat="42.81565" lon="1.7438">
        <ele>1742.789</ele>
        <time>2021-03-23T11:47:04Z</time>
      </trkpt>
      <trkpt lat="42.81565" lon="1.7438">
        <ele>1742.705</ele>
        <time>2021-03-23T11:47:06Z</time>
      </trkpt>
      <trkpt lat="42.81565" lon="1.7438">
        <ele>1742.692</ele>
        <time>2021-03-23T11:47:08Z</time>
      </trkpt>
      <trkpt lat="42.81565" lon="1.7438">
        <ele>1742.645</ele>
        <time>2021-03-23T11:47:10Z</time>
      </trkpt>
      <trkpt lat="42.81565" lon="1.7438">
        <ele>1742.609</ele>
        <time>2021-03-23T11:47:12Z</time>
      </trkpt>
      <trkpt lat="42.81565" lon="1.7438">
        <ele>1742.255</ele>
        <time>2021-03-23T11:47:14Z</time>
      </trkpt>
      <trkpt lat="42.81563" lon="1.74379">
        <ele>1742.661</ele>
        <time>2021-03-23T11:47:16Z</time>
      </trkpt>
      <trkpt lat="42.81564" lon="1.74377">
        <ele>1741.824</ele>
        <time>2021-03-23T11:47:18Z</time>
      </trkpt>
      <trkpt lat="42.81563" lon="1.74377">
        <ele>1741.374</ele>
        <time>2021-03-23T11:47:20Z</time>
      </trkpt>
      <trkpt lat="42.81562" lon="1.74376">
        <ele>1740.049</ele>
        <time>2021-03-23T11:47:22Z</time>
      </trkpt>
      <trkpt lat="42.81561" lon="1.74375">
        <ele>1739.189</ele>
        <time>2021-03-23T11:47:24Z</time>
      </trkpt>
      <trkpt lat="42.8156" lon="1.74372">
        <ele>1738.627</ele>
        <time>2021-03-23T11:47:26Z</time>
      </trkpt>
      <trkpt lat="42.81559" lon="1.7437">
        <ele>1738.217</ele>
        <time>2021-03-23T11:47:28Z</time>
      </trkpt>
      <trkpt lat="42.81558" lon="1.74368">
        <ele>1738.522</ele>
        <time>2021-03-23T11:47:30Z</time>
      </trkpt>
      <trkpt lat="42.81558" lon="1.74366">
        <ele>1739.143</ele>
        <time>2021-03-23T11:47:32Z</time>
      </trkpt>
      <trkpt lat="42.81558" lon="1.74366">
        <ele>1738.813</ele>
        <time>2021-03-23T11:47:34Z</time>
      </trkpt>
      <trkpt lat="42.81557" lon="1.74364">
        <ele>1738.685</ele>
        <time>2021-03-23T11:47:36Z</time>
      </trkpt>
      <trkpt lat="42.81557" lon="1.74362">
        <ele>1738.558</ele>
        <time>2021-03-23T11:47:38Z</time>
      </trkpt>
      <trkpt lat="42.81556" lon="1.74359">
        <ele>1737.853</ele>
        <time>2021-03-23T11:47:40Z</time>
      </trkpt>
      <trkpt lat="42.81556" lon="1.74356">
        <ele>1737.398</ele>
        <time>2021-03-23T11:47:42Z</time>
      </trkpt>
      <trkpt lat="42.81555" lon="1.74355">
        <ele>1737.874</ele>
        <time>2021-03-23T11:47:44Z</time>
      </trkpt>
      <trkpt lat="42.81556" lon="1.74353">
        <ele>1740.371</ele>
        <time>2021-03-23T11:47:46Z</time>
      </trkpt>
      <trkpt lat="42.81558" lon="1.74355">
        <ele>1739.335</ele>
        <time>2021-03-23T11:47:48Z</time>
      </trkpt>
      <trkpt lat="42.81557" lon="1.74353">
        <ele>1740.643</ele>
        <time>2021-03-23T11:47:50Z</time>
      </trkpt>
      <trkpt lat="42.81556" lon="1.74351">
        <ele>1740.299</ele>
        <time>2021-03-23T11:47:52Z</time>
      </trkpt>
      <trkpt lat="42.81556" lon="1.7435">
        <ele>1739.235</ele>
        <time>2021-03-23T11:47:54Z</time>
      </trkpt>
      <trkpt lat="42.81556" lon="1.74348">
        <ele>1739.87</ele>
        <time>2021-03-23T11:47:56Z</time>
      </trkpt>
      <trkpt lat="42.81555" lon="1.74346">
        <ele>1739.245</ele>
        <time>2021-03-23T11:47:58Z</time>
      </trkpt>
      <trkpt lat="42.81554" lon="1.74343">
        <ele>1740.013</ele>
        <time>2021-03-23T11:48:00Z</time>
      </trkpt>
      <trkpt lat="42.81554" lon="1.7434">
        <ele>1739.792</ele>
        <time>2021-03-23T11:48:02Z</time>
      </trkpt>
      <trkpt lat="42.81553" lon="1.74338">
        <ele>1740.124</ele>
        <time>2021-03-23T11:48:04Z</time>
      </trkpt>
      <trkpt lat="42.81551" lon="1.74335">
        <ele>1740.205</ele>
        <time>2021-03-23T11:48:06Z</time>
      </trkpt>
      <trkpt lat="42.8155" lon="1.74332">
        <ele>1739.898</ele>
        <time>2021-03-23T11:48:08Z</time>
      </trkpt>
      <trkpt lat="42.8155" lon="1.7433">
        <ele>1739.529</ele>
        <time>2021-03-23T11:48:10Z</time>
      </trkpt>
      <trkpt lat="42.81549" lon="1.74328">
        <ele>1740.426</ele>
        <time>2021-03-23T11:48:12Z</time>
      </trkpt>
      <trkpt lat="42.81548" lon="1.74326">
        <ele>1739.562</ele>
        <time>2021-03-23T11:48:14Z</time>
      </trkpt>
      <trkpt lat="42.81548" lon="1.74324">
        <ele>1739.635</ele>
        <time>2021-03-23T11:48:16Z</time>
      </trkpt>
      <trkpt lat="42.81547" lon="1.74322">
        <ele>1740.382</ele>
        <time>2021-03-23T11:48:18Z</time>
      </trkpt>
      <trkpt lat="42.81547" lon="1.74319">
        <ele>1742.19</ele>
        <time>2021-03-23T11:48:20Z</time>
      </trkpt>
      <trkpt lat="42.81546" lon="1.74317">
        <ele>1742.015</ele>
        <time>2021-03-23T11:48:22Z</time>
      </trkpt>
      <trkpt lat="42.81545" lon="1.74315">
        <ele>1741.897</ele>
        <time>2021-03-23T11:48:24Z</time>
      </trkpt>
      <trkpt lat="42.81545" lon="1.74313">
        <ele>1742.54</ele>
        <time>2021-03-23T11:48:26Z</time>
      </trkpt>
      <trkpt lat="42.81544" lon="1.74311">
        <ele>1742.629</ele>
        <time>2021-03-23T11:48:28Z</time>
      </trkpt>
      <trkpt lat="42.81543" lon="1.74309">
        <ele>1742.884</ele>
        <time>2021-03-23T11:48:30Z</time>
      </trkpt>
      <trkpt lat="42.81543" lon="1.74307">
        <ele>1742.276</ele>
        <time>2021-03-23T11:48:32Z</time>
      </trkpt>
      <trkpt lat="42.81542" lon="1.74304">
        <ele>1742.495</ele>
        <time>2021-03-23T11:48:34Z</time>
      </trkpt>
      <trkpt lat="42.81542" lon="1.74302">
        <ele>1742.323</ele>
        <time>2021-03-23T11:48:36Z</time>
      </trkpt>
      <trkpt lat="42.81542" lon="1.743">
        <ele>1742.942</ele>
        <time>2021-03-23T11:48:38Z</time>
      </trkpt>
      <trkpt lat="42.81541" lon="1.74298">
        <ele>1743.307</ele>
        <time>2021-03-23T11:48:40Z</time>
      </trkpt>
      <trkpt lat="42.81541" lon="1.74296">
        <ele>1742.725</ele>
        <time>2021-03-23T11:48:42Z</time>
      </trkpt>
      <trkpt lat="42.8154" lon="1.74295">
        <ele>1741.815</ele>
        <time>2021-03-23T11:48:44Z</time>
      </trkpt>
      <trkpt lat="42.8154" lon="1.74293">
        <ele>1741.065</ele>
        <time>2021-03-23T11:48:46Z</time>
      </trkpt>
      <trkpt lat="42.8154" lon="1.74291">
        <ele>1740.833</ele>
        <time>2021-03-23T11:48:48Z</time>
      </trkpt>
      <trkpt lat="42.81541" lon="1.74289">
        <ele>1741.417</ele>
        <time>2021-03-23T11:48:50Z</time>
      </trkpt>
      <trkpt lat="42.81541" lon="1.74287">
        <ele>1741.545</ele>
        <time>2021-03-23T11:48:52Z</time>
      </trkpt>
      <trkpt lat="42.81541" lon="1.74285">
        <ele>1741.664</ele>
        <time>2021-03-23T11:48:54Z</time>
      </trkpt>
      <trkpt lat="42.81541" lon="1.74282">
        <ele>1742.253</ele>
        <time>2021-03-23T11:48:56Z</time>
      </trkpt>
      <trkpt lat="42.81541" lon="1.7428">
        <ele>1742.646</ele>
        <time>2021-03-23T11:48:58Z</time>
      </trkpt>
      <trkpt lat="42.8154" lon="1.74277">
        <ele>1743.374</ele>
        <time>2021-03-23T11:49:00Z</time>
      </trkpt>
      <trkpt lat="42.81541" lon="1.74275">
        <ele>1742.863</ele>
        <time>2021-03-23T11:49:02Z</time>
      </trkpt>
      <trkpt lat="42.81541" lon="1.74273">
        <ele>1743.005</ele>
        <time>2021-03-23T11:49:04Z</time>
      </trkpt>
      <trkpt lat="42.81541" lon="1.74271">
        <ele>1743.611</ele>
        <time>2021-03-23T11:49:06Z</time>
      </trkpt>
      <trkpt lat="42.81542" lon="1.74268">
        <ele>1743.238</ele>
        <time>2021-03-23T11:49:08Z</time>
      </trkpt>
      <trkpt lat="42.81544" lon="1.74267">
        <ele>1743.052</ele>
        <time>2021-03-23T11:49:10Z</time>
      </trkpt>
      <trkpt lat="42.81544" lon="1.74265">
        <ele>1742.811</ele>
        <time>2021-03-23T11:49:12Z</time>
      </trkpt>
      <trkpt lat="42.81544" lon="1.74264">
        <ele>1741.101</ele>
        <time>2021-03-23T11:49:14Z</time>
      </trkpt>
      <trkpt lat="42.81543" lon="1.74264">
        <ele>1741.082</ele>
        <time>2021-03-23T11:49:16Z</time>
      </trkpt>
      <trkpt lat="42.81543" lon="1.74264">
        <ele>1741.082</ele>
        <time>2021-03-23T11:49:18Z</time>
      </trkpt>
      <trkpt lat="42.81543" lon="1.74264">
        <ele>1740.936</ele>
        <time>2021-03-23T11:49:20Z</time>
      </trkpt>
      <trkpt lat="42.81543" lon="1.74264">
        <ele>1740.923</ele>
        <time>2021-03-23T11:49:22Z</time>
      </trkpt>
      <trkpt lat="42.8154" lon="1.74263">
        <ele>1739.972</ele>
        <time>2021-03-23T11:49:24Z</time>
      </trkpt>
      <trkpt lat="42.81538" lon="1.74262">
        <ele>1740.102</ele>
        <time>2021-03-23T11:49:26Z</time>
      </trkpt>
      <trkpt lat="42.81536" lon="1.74262">
        <ele>1739.466</ele>
        <time>2021-03-23T11:49:28Z</time>
      </trkpt>
      <trkpt lat="42.81535" lon="1.74262">
        <ele>1739.054</ele>
        <time>2021-03-23T11:49:30Z</time>
      </trkpt>
      <trkpt lat="42.81534" lon="1.74261">
        <ele>1740.018</ele>
        <time>2021-03-23T11:49:32Z</time>
      </trkpt>
      <trkpt lat="42.81533" lon="1.7426">
        <ele>1740.304</ele>
        <time>2021-03-23T11:49:34Z</time>
      </trkpt>
      <trkpt lat="42.81532" lon="1.74259">
        <ele>1740.665</ele>
        <time>2021-03-23T11:49:36Z</time>
      </trkpt>
      <trkpt lat="42.81532" lon="1.74258">
        <ele>1741.341</ele>
        <time>2021-03-23T11:49:38Z</time>
      </trkpt>
      <trkpt lat="42.81531" lon="1.74258">
        <ele>1741.41</ele>
        <time>2021-03-23T11:49:40Z</time>
      </trkpt>
      <trkpt lat="42.8153" lon="1.74258">
        <ele>1740.619</ele>
        <time>2021-03-23T11:49:42Z</time>
      </trkpt>
      <trkpt lat="42.81529" lon="1.74257">
        <ele>1740.091</ele>
        <time>2021-03-23T11:49:44Z</time>
      </trkpt>
      <trkpt lat="42.81529" lon="1.74256">
        <ele>1740.788</ele>
        <time>2021-03-23T11:49:46Z</time>
      </trkpt>
      <trkpt lat="42.81528" lon="1.74256">
        <ele>1741.27</ele>
        <time>2021-03-23T11:49:48Z</time>
      </trkpt>
      <trkpt lat="42.81527" lon="1.74255">
        <ele>1741.138</ele>
        <time>2021-03-23T11:49:50Z</time>
      </trkpt>
      <trkpt lat="42.81527" lon="1.74254">
        <ele>1741.152</ele>
        <time>2021-03-23T11:49:52Z</time>
      </trkpt>
      <trkpt lat="42.81527" lon="1.74254">
        <ele>1741.027</ele>
        <time>2021-03-23T11:49:54Z</time>
      </trkpt>
      <trkpt lat="42.81526" lon="1.74252">
        <ele>1740.902</ele>
        <time>2021-03-23T11:49:56Z</time>
      </trkpt>
      <trkpt lat="42.81525" lon="1.74252">
        <ele>1741.549</ele>
        <time>2021-03-23T11:49:58Z</time>
      </trkpt>
      <trkpt lat="42.81525" lon="1.74251">
        <ele>1743.124</ele>
        <time>2021-03-23T11:50:00Z</time>
      </trkpt>
      <trkpt lat="42.81524" lon="1.7425">
        <ele>1743.316</ele>
        <time>2021-03-23T11:50:02Z</time>
      </trkpt>
      <trkpt lat="42.81524" lon="1.74249">
        <ele>1744.003</ele>
        <time>2021-03-23T11:50:04Z</time>
      </trkpt>
      <trkpt lat="42.81523" lon="1.74248">
        <ele>1744.033</ele>
        <time>2021-03-23T11:50:06Z</time>
      </trkpt>
      <trkpt lat="42.81523" lon="1.74247">
        <ele>1743.483</ele>
        <time>2021-03-23T11:50:08Z</time>
      </trkpt>
      <trkpt lat="42.81522" lon="1.74247">
        <ele>1743.151</ele>
        <time>2021-03-23T11:50:09Z</time>
      </trkpt>
      <trkpt lat="42.81521" lon="1.74243">
        <ele>1745.356</ele>
        <time>2021-03-23T11:50:16Z</time>
      </trkpt>
      <trkpt lat="42.8152" lon="1.74242">
        <ele>1745.027</ele>
        <time>2021-03-23T11:50:18Z</time>
      </trkpt>
      <trkpt lat="42.81519" lon="1.74242">
        <ele>1744.682</ele>
        <time>2021-03-23T11:50:20Z</time>
      </trkpt>
      <trkpt lat="42.81518" lon="1.74241">
        <ele>1744.672</ele>
        <time>2021-03-23T11:50:22Z</time>
      </trkpt>
      <trkpt lat="42.81518" lon="1.74241">
        <ele>1745.461</ele>
        <time>2021-03-23T11:50:24Z</time>
      </trkpt>
      <trkpt lat="42.81517" lon="1.7424">
        <ele>1744.59</ele>
        <time>2021-03-23T11:50:26Z</time>
      </trkpt>
      <trkpt lat="42.81516" lon="1.7424">
        <ele>1745.73</ele>
        <time>2021-03-23T11:50:28Z</time>
      </trkpt>
      <trkpt lat="42.81515" lon="1.74239">
        <ele>1746.346</ele>
        <time>2021-03-23T11:50:30Z</time>
      </trkpt>
      <trkpt lat="42.81514" lon="1.74239">
        <ele>1746.618</ele>
        <time>2021-03-23T11:50:32Z</time>
      </trkpt>
      <trkpt lat="42.81513" lon="1.74239">
        <ele>1746.188</ele>
        <time>2021-03-23T11:50:34Z</time>
      </trkpt>
      <trkpt lat="42.81512" lon="1.74239">
        <ele>1746.483</ele>
        <time>2021-03-23T11:50:36Z</time>
      </trkpt>
      <trkpt lat="42.8151" lon="1.74238">
        <ele>1745.445</ele>
        <time>2021-03-23T11:50:38Z</time>
      </trkpt>
      <trkpt lat="42.81509" lon="1.74238">
        <ele>1745.279</ele>
        <time>2021-03-23T11:50:40Z</time>
      </trkpt>
      <trkpt lat="42.81507" lon="1.74238">
        <ele>1744.922</ele>
        <time>2021-03-23T11:50:42Z</time>
      </trkpt>
      <trkpt lat="42.81507" lon="1.7424">
        <ele>1744.011</ele>
        <time>2021-03-23T11:50:44Z</time>
      </trkpt>
      <trkpt lat="42.81507" lon="1.74241">
        <ele>1745.5</ele>
        <time>2021-03-23T11:50:46Z</time>
      </trkpt>
      <trkpt lat="42.81508" lon="1.74241">
        <ele>1745.183</ele>
        <time>2021-03-23T11:50:48Z</time>
      </trkpt>
      <trkpt lat="42.81506" lon="1.74241">
        <ele>1745.471</ele>
        <time>2021-03-23T11:50:50Z</time>
      </trkpt>
      <trkpt lat="42.81505" lon="1.74243">
        <ele>1746.173</ele>
        <time>2021-03-23T11:50:57Z</time>
      </trkpt>
      <trkpt lat="42.81504" lon="1.74243">
        <ele>1745.083</ele>
        <time>2021-03-23T11:50:59Z</time>
      </trkpt>
      <trkpt lat="42.81504" lon="1.74244">
        <ele>1744.88</ele>
        <time>2021-03-23T11:51:01Z</time>
      </trkpt>
      <trkpt lat="42.81504" lon="1.74244">
        <ele>1744.85</ele>
        <time>2021-03-23T11:51:03Z</time>
      </trkpt>
      <trkpt lat="42.81503" lon="1.74244">
        <ele>1744.407</ele>
        <time>2021-03-23T11:51:05Z</time>
      </trkpt>
      <trkpt lat="42.81503" lon="1.74243">
        <ele>1744.451</ele>
        <time>2021-03-23T11:51:07Z</time>
      </trkpt>
      <trkpt lat="42.81503" lon="1.74243">
        <ele>1744.546</ele>
        <time>2021-03-23T11:51:09Z</time>
      </trkpt>
      <trkpt lat="42.81503" lon="1.74243">
        <ele>1744.491</ele>
        <time>2021-03-23T11:51:11Z</time>
      </trkpt>
      <trkpt lat="42.81503" lon="1.74243">
        <ele>1744.493</ele>
        <time>2021-03-23T11:51:13Z</time>
      </trkpt>
      <trkpt lat="42.81503" lon="1.74243">
        <ele>1744.455</ele>
        <time>2021-03-23T11:51:15Z</time>
      </trkpt>
      <trkpt lat="42.81503" lon="1.74243">
        <ele>1744.431</ele>
        <time>2021-03-23T11:51:17Z</time>
      </trkpt>
      <trkpt lat="42.81503" lon="1.74243">
        <ele>1744.415</ele>
        <time>2021-03-23T11:51:19Z</time>
      </trkpt>
      <trkpt lat="42.81502" lon="1.74242">
        <ele>1745.061</ele>
        <time>2021-03-23T11:51:21Z</time>
      </trkpt>
      <trkpt lat="42.81502" lon="1.74241">
        <ele>1745.308</ele>
        <time>2021-03-23T11:51:23Z</time>
      </trkpt>
      <trkpt lat="42.81501" lon="1.7424">
        <ele>1746.591</ele>
        <time>2021-03-23T11:51:25Z</time>
      </trkpt>
      <trkpt lat="42.81501" lon="1.74239">
        <ele>1746.417</ele>
        <time>2021-03-23T11:51:27Z</time>
      </trkpt>
      <trkpt lat="42.81499" lon="1.74239">
        <ele>1746.129</ele>
        <time>2021-03-23T11:51:29Z</time>
      </trkpt>
      <trkpt lat="42.81499" lon="1.74237">
        <ele>1747.19</ele>
        <time>2021-03-23T11:51:31Z</time>
      </trkpt>
      <trkpt lat="42.81499" lon="1.74232">
        <ele>1748.046</ele>
        <time>2021-03-23T11:51:38Z</time>
      </trkpt>
      <trkpt lat="42.81499" lon="1.74231">
        <ele>1748.258</ele>
        <time>2021-03-23T11:51:40Z</time>
      </trkpt>
      <trkpt lat="42.81499" lon="1.74231">
        <ele>1748.136</ele>
        <time>2021-03-23T11:51:42Z</time>
      </trkpt>
      <trkpt lat="42.81498" lon="1.7423">
        <ele>1747.81</ele>
        <time>2021-03-23T11:51:44Z</time>
      </trkpt>
      <trkpt lat="42.81497" lon="1.74228">
        <ele>1748.443</ele>
        <time>2021-03-23T11:51:46Z</time>
      </trkpt>
      <trkpt lat="42.81497" lon="1.74228">
        <ele>1748.022</ele>
        <time>2021-03-23T11:51:48Z</time>
      </trkpt>
      <trkpt lat="42.81496" lon="1.74227">
        <ele>1748.549</ele>
        <time>2021-03-23T11:51:50Z</time>
      </trkpt>
      <trkpt lat="42.81495" lon="1.74227">
        <ele>1749.611</ele>
        <time>2021-03-23T11:51:52Z</time>
      </trkpt>
      <trkpt lat="42.81495" lon="1.74226">
        <ele>1749.576</ele>
        <time>2021-03-23T11:51:54Z</time>
      </trkpt>
      <trkpt lat="42.81494" lon="1.74226">
        <ele>1749.871</ele>
        <time>2021-03-23T11:51:56Z</time>
      </trkpt>
      <trkpt lat="42.81493" lon="1.74225">
        <ele>1750.299</ele>
        <time>2021-03-23T11:51:58Z</time>
      </trkpt>
      <trkpt lat="42.81492" lon="1.74224">
        <ele>1750.706</ele>
        <time>2021-03-23T11:52:00Z</time>
      </trkpt>
      <trkpt lat="42.81491" lon="1.74223">
        <ele>1750.906</ele>
        <time>2021-03-23T11:52:02Z</time>
      </trkpt>
      <trkpt lat="42.8149" lon="1.74222">
        <ele>1751.609</ele>
        <time>2021-03-23T11:52:04Z</time>
      </trkpt>
      <trkpt lat="42.8149" lon="1.74221">
        <ele>1752.701</ele>
        <time>2021-03-23T11:52:06Z</time>
      </trkpt>
      <trkpt lat="42.81489" lon="1.7422">
        <ele>1752.674</ele>
        <time>2021-03-23T11:52:08Z</time>
      </trkpt>
      <trkpt lat="42.81489" lon="1.74218">
        <ele>1752.229</ele>
        <time>2021-03-23T11:52:10Z</time>
      </trkpt>
      <trkpt lat="42.81488" lon="1.74217">
        <ele>1753.171</ele>
        <time>2021-03-23T11:52:12Z</time>
      </trkpt>
      <trkpt lat="42.81487" lon="1.74217">
        <ele>1752.495</ele>
        <time>2021-03-23T11:52:14Z</time>
      </trkpt>
      <trkpt lat="42.81486" lon="1.74217">
        <ele>1751.908</ele>
        <time>2021-03-23T11:52:16Z</time>
      </trkpt>
      <trkpt lat="42.81486" lon="1.74216">
        <ele>1753.128</ele>
        <time>2021-03-23T11:52:18Z</time>
      </trkpt>
      <trkpt lat="42.81485" lon="1.74215">
        <ele>1754.03</ele>
        <time>2021-03-23T11:52:20Z</time>
      </trkpt>
      <trkpt lat="42.81485" lon="1.74213">
        <ele>1754.597</ele>
        <time>2021-03-23T11:52:22Z</time>
      </trkpt>
      <trkpt lat="42.81484" lon="1.74212">
        <ele>1754.724</ele>
        <time>2021-03-23T11:52:24Z</time>
      </trkpt>
      <trkpt lat="42.81484" lon="1.74212">
        <ele>1755.557</ele>
        <time>2021-03-23T11:52:26Z</time>
      </trkpt>
      <trkpt lat="42.81483" lon="1.7421">
        <ele>1756.087</ele>
        <time>2021-03-23T11:52:28Z</time>
      </trkpt>
      <trkpt lat="42.81483" lon="1.74209">
        <ele>1756.659</ele>
        <time>2021-03-23T11:52:30Z</time>
      </trkpt>
      <trkpt lat="42.81482" lon="1.74208">
        <ele>1756.67</ele>
        <time>2021-03-23T11:52:32Z</time>
      </trkpt>
      <trkpt lat="42.81482" lon="1.74207">
        <ele>1757.064</ele>
        <time>2021-03-23T11:52:34Z</time>
      </trkpt>
      <trkpt lat="42.81482" lon="1.74206">
        <ele>1756.826</ele>
        <time>2021-03-23T11:52:36Z</time>
      </trkpt>
      <trkpt lat="42.81481" lon="1.74207">
        <ele>1757.72</ele>
        <time>2021-03-23T11:52:38Z</time>
      </trkpt>
      <trkpt lat="42.8148" lon="1.74207">
        <ele>1757.86</ele>
        <time>2021-03-23T11:52:40Z</time>
      </trkpt>
      <trkpt lat="42.81479" lon="1.74206">
        <ele>1757.749</ele>
        <time>2021-03-23T11:52:42Z</time>
      </trkpt>
      <trkpt lat="42.81479" lon="1.74205">
        <ele>1757.747</ele>
        <time>2021-03-23T11:52:44Z</time>
      </trkpt>
      <trkpt lat="42.81478" lon="1.74205">
        <ele>1758.065</ele>
        <time>2021-03-23T11:52:46Z</time>
      </trkpt>
      <trkpt lat="42.81477" lon="1.74205">
        <ele>1757.772</ele>
        <time>2021-03-23T11:52:48Z</time>
      </trkpt>
      <trkpt lat="42.81476" lon="1.74204">
        <ele>1757.43</ele>
        <time>2021-03-23T11:52:50Z</time>
      </trkpt>
      <trkpt lat="42.81476" lon="1.74204">
        <ele>1757.885</ele>
        <time>2021-03-23T11:52:52Z</time>
      </trkpt>
      <trkpt lat="42.81475" lon="1.74204">
        <ele>1757.947</ele>
        <time>2021-03-23T11:52:54Z</time>
      </trkpt>
      <trkpt lat="42.81475" lon="1.74204">
        <ele>1758.592</ele>
        <time>2021-03-23T11:52:56Z</time>
      </trkpt>
      <trkpt lat="42.81474" lon="1.74204">
        <ele>1759.261</ele>
        <time>2021-03-23T11:52:58Z</time>
      </trkpt>
      <trkpt lat="42.81474" lon="1.74203">
        <ele>1758.892</ele>
        <time>2021-03-23T11:52:59Z</time>
      </trkpt>
      <trkpt lat="42.81473" lon="1.74203">
        <ele>1759.689</ele>
        <time>2021-03-23T11:53:06Z</time>
      </trkpt>
      <trkpt lat="42.81472" lon="1.74203">
        <ele>1759.315</ele>
        <time>2021-03-23T11:53:08Z</time>
      </trkpt>
      <trkpt lat="42.81472" lon="1.74202">
        <ele>1759.136</ele>
        <time>2021-03-23T11:53:10Z</time>
      </trkpt>
      <trkpt lat="42.81471" lon="1.74201">
        <ele>1760.532</ele>
        <time>2021-03-23T11:53:12Z</time>
      </trkpt>
      <trkpt lat="42.8147" lon="1.742">
        <ele>1760.554</ele>
        <time>2021-03-23T11:53:14Z</time>
      </trkpt>
      <trkpt lat="42.8147" lon="1.742">
        <ele>1761.594</ele>
        <time>2021-03-23T11:53:16Z</time>
      </trkpt>
      <trkpt lat="42.81469" lon="1.74199">
        <ele>1762.234</ele>
        <time>2021-03-23T11:53:18Z</time>
      </trkpt>
      <trkpt lat="42.81468" lon="1.74198">
        <ele>1762.129</ele>
        <time>2021-03-23T11:53:20Z</time>
      </trkpt>
      <trkpt lat="42.81468" lon="1.74197">
        <ele>1762.934</ele>
        <time>2021-03-23T11:53:22Z</time>
      </trkpt>
      <trkpt lat="42.81467" lon="1.74197">
        <ele>1762.677</ele>
        <time>2021-03-23T11:53:24Z</time>
      </trkpt>
      <trkpt lat="42.81467" lon="1.74199">
        <ele>1764.211</ele>
        <time>2021-03-23T11:53:27Z</time>
      </trkpt>
      <trkpt lat="42.81467" lon="1.74199">
        <ele>1764.211</ele>
        <time>2021-03-23T11:53:29Z</time>
      </trkpt>
      <trkpt lat="42.81467" lon="1.74199">
        <ele>1765.204</ele>
        <time>2021-03-23T11:53:31Z</time>
      </trkpt>
      <trkpt lat="42.81466" lon="1.74199">
        <ele>1765.182</ele>
        <time>2021-03-23T11:53:33Z</time>
      </trkpt>
      <trkpt lat="42.81466" lon="1.74199">
        <ele>1765.157</ele>
        <time>2021-03-23T11:53:35Z</time>
      </trkpt>
      <trkpt lat="42.81466" lon="1.74198">
        <ele>1765.222</ele>
        <time>2021-03-23T11:53:37Z</time>
      </trkpt>
      <trkpt lat="42.81466" lon="1.74199">
        <ele>1765.061</ele>
        <time>2021-03-23T11:53:39Z</time>
      </trkpt>
      <trkpt lat="42.81467" lon="1.74198">
        <ele>1764.973</ele>
        <time>2021-03-23T11:53:41Z</time>
      </trkpt>
      <trkpt lat="42.81467" lon="1.74198">
        <ele>1764.96</ele>
        <time>2021-03-23T11:53:43Z</time>
      </trkpt>
      <trkpt lat="42.81467" lon="1.74198">
        <ele>1764.962</ele>
        <time>2021-03-23T11:53:45Z</time>
      </trkpt>
      <trkpt lat="42.81467" lon="1.74198">
        <ele>1764.96</ele>
        <time>2021-03-23T11:53:47Z</time>
      </trkpt>
      <trkpt lat="42.81467" lon="1.74198">
        <ele>1764.944</ele>
        <time>2021-03-23T11:53:49Z</time>
      </trkpt>
      <trkpt lat="42.81467" lon="1.74198">
        <ele>1764.917</ele>
        <time>2021-03-23T11:53:51Z</time>
      </trkpt>
      <trkpt lat="42.81467" lon="1.74198">
        <ele>1764.913</ele>
        <time>2021-03-23T11:53:53Z</time>
      </trkpt>
      <trkpt lat="42.81467" lon="1.74198">
        <ele>1764.926</ele>
        <time>2021-03-23T11:53:55Z</time>
      </trkpt>
      <trkpt lat="42.81467" lon="1.74198">
        <ele>1764.928</ele>
        <time>2021-03-23T11:53:57Z</time>
      </trkpt>
      <trkpt lat="42.81467" lon="1.74198">
        <ele>1764.896</ele>
        <time>2021-03-23T11:53:59Z</time>
      </trkpt>
      <trkpt lat="42.81467" lon="1.74197">
        <ele>1764.165</ele>
        <time>2021-03-23T11:54:01Z</time>
      </trkpt>
      <trkpt lat="42.81467" lon="1.74197">
        <ele>1764.127</ele>
        <time>2021-03-23T11:54:03Z</time>
      </trkpt>
      <trkpt lat="42.81467" lon="1.74197">
        <ele>1764.11</ele>
        <time>2021-03-23T11:54:05Z</time>
      </trkpt>
      <trkpt lat="42.81467" lon="1.74197">
        <ele>1764.087</ele>
        <time>2021-03-23T11:54:07Z</time>
      </trkpt>
      <trkpt lat="42.81467" lon="1.74197">
        <ele>1764.077</ele>
        <time>2021-03-23T11:54:09Z</time>
      </trkpt>
      <trkpt lat="42.81467" lon="1.74197">
        <ele>1764.071</ele>
        <time>2021-03-23T11:54:11Z</time>
      </trkpt>
      <trkpt lat="42.81467" lon="1.74197">
        <ele>1764.046</ele>
        <time>2021-03-23T11:54:13Z</time>
      </trkpt>
      <trkpt lat="42.81467" lon="1.74197">
        <ele>1764.052</ele>
        <time>2021-03-23T11:54:15Z</time>
      </trkpt>
      <trkpt lat="42.81467" lon="1.74197">
        <ele>1764.034</ele>
        <time>2021-03-23T11:54:17Z</time>
      </trkpt>
      <trkpt lat="42.81467" lon="1.74197">
        <ele>1764.042</ele>
        <time>2021-03-23T11:54:19Z</time>
      </trkpt>
      <trkpt lat="42.81467" lon="1.74197">
        <ele>1764.043</ele>
        <time>2021-03-23T11:54:21Z</time>
      </trkpt>
      <trkpt lat="42.81467" lon="1.74197">
        <ele>1764.046</ele>
        <time>2021-03-23T11:54:23Z</time>
      </trkpt>
      <trkpt lat="42.81467" lon="1.74197">
        <ele>1764.04</ele>
        <time>2021-03-23T11:54:25Z</time>
      </trkpt>
      <trkpt lat="42.81467" lon="1.74197">
        <ele>1764.04</ele>
        <time>2021-03-23T11:54:27Z</time>
      </trkpt>
      <trkpt lat="42.81467" lon="1.74197">
        <ele>1764.052</ele>
        <time>2021-03-23T11:54:29Z</time>
      </trkpt>
      <trkpt lat="42.81467" lon="1.74197">
        <ele>1764.041</ele>
        <time>2021-03-23T11:54:31Z</time>
      </trkpt>
      <trkpt lat="42.81467" lon="1.74197">
        <ele>1764.028</ele>
        <time>2021-03-23T11:54:33Z</time>
      </trkpt>
      <trkpt lat="42.81467" lon="1.74197">
        <ele>1764.022</ele>
        <time>2021-03-23T11:54:35Z</time>
      </trkpt>
      <trkpt lat="42.81467" lon="1.74197">
        <ele>1764.01</ele>
        <time>2021-03-23T11:54:37Z</time>
      </trkpt>
      <trkpt lat="42.81467" lon="1.74197">
        <ele>1763.999</ele>
        <time>2021-03-23T11:54:39Z</time>
      </trkpt>
      <trkpt lat="42.81467" lon="1.74197">
        <ele>1764.002</ele>
        <time>2021-03-23T11:54:41Z</time>
      </trkpt>
      <trkpt lat="42.81467" lon="1.74197">
        <ele>1763.99</ele>
        <time>2021-03-23T11:54:43Z</time>
      </trkpt>
      <trkpt lat="42.81467" lon="1.74197">
        <ele>1763.97</ele>
        <time>2021-03-23T11:54:45Z</time>
      </trkpt>
      <trkpt lat="42.81467" lon="1.74197">
        <ele>1763.994</ele>
        <time>2021-03-23T11:54:47Z</time>
      </trkpt>
      <trkpt lat="42.81467" lon="1.74197">
        <ele>1764.012</ele>
        <time>2021-03-23T11:54:49Z</time>
      </trkpt>
      <trkpt lat="42.81467" lon="1.74197">
        <ele>1764.001</ele>
        <time>2021-03-23T11:54:51Z</time>
      </trkpt>
      <trkpt lat="42.81467" lon="1.74197">
        <ele>1763.981</ele>
        <time>2021-03-23T11:54:53Z</time>
      </trkpt>
      <trkpt lat="42.81467" lon="1.74197">
        <ele>1763.955</ele>
        <time>2021-03-23T11:54:55Z</time>
      </trkpt>
      <trkpt lat="42.81467" lon="1.74197">
        <ele>1763.938</ele>
        <time>2021-03-23T11:54:57Z</time>
      </trkpt>
      <trkpt lat="42.81467" lon="1.74197">
        <ele>1763.932</ele>
        <time>2021-03-23T11:54:59Z</time>
      </trkpt>
      <trkpt lat="42.81467" lon="1.74197">
        <ele>1763.935</ele>
        <time>2021-03-23T11:55:01Z</time>
      </trkpt>
      <trkpt lat="42.81467" lon="1.74197">
        <ele>1763.938</ele>
        <time>2021-03-23T11:55:03Z</time>
      </trkpt>
      <trkpt lat="42.81467" lon="1.74197">
        <ele>1763.942</ele>
        <time>2021-03-23T11:55:05Z</time>
      </trkpt>
      <trkpt lat="42.81467" lon="1.74197">
        <ele>1763.921</ele>
        <time>2021-03-23T11:55:07Z</time>
      </trkpt>
      <trkpt lat="42.81467" lon="1.74197">
        <ele>1763.911</ele>
        <time>2021-03-23T11:55:09Z</time>
      </trkpt>
      <trkpt lat="42.81467" lon="1.74197">
        <ele>1763.907</ele>
        <time>2021-03-23T11:55:11Z</time>
      </trkpt>
      <trkpt lat="42.81467" lon="1.74197">
        <ele>1763.885</ele>
        <time>2021-03-23T11:55:13Z</time>
      </trkpt>
      <trkpt lat="42.81467" lon="1.74197">
        <ele>1763.878</ele>
        <time>2021-03-23T11:55:15Z</time>
      </trkpt>
      <trkpt lat="42.81467" lon="1.74197">
        <ele>1763.874</ele>
        <time>2021-03-23T11:55:16Z</time>
      </trkpt>
      <trkpt lat="42.81467" lon="1.74197">
        <ele>1763.84</ele>
        <time>2021-03-23T11:55:19Z</time>
      </trkpt>
      <trkpt lat="42.81467" lon="1.74197">
        <ele>1763.832</ele>
        <time>2021-03-23T11:55:21Z</time>
      </trkpt>
      <trkpt lat="42.81467" lon="1.74197">
        <ele>1763.828</ele>
        <time>2021-03-23T11:55:23Z</time>
      </trkpt>
      <trkpt lat="42.81467" lon="1.74197">
        <ele>1763.798</ele>
        <time>2021-03-23T11:55:25Z</time>
      </trkpt>
      <trkpt lat="42.81467" lon="1.74197">
        <ele>1763.768</ele>
        <time>2021-03-23T11:55:27Z</time>
      </trkpt>
      <trkpt lat="42.81467" lon="1.74197">
        <ele>1763.741</ele>
        <time>2021-03-23T11:55:29Z</time>
      </trkpt>
      <trkpt lat="42.81467" lon="1.74197">
        <ele>1763.732</ele>
        <time>2021-03-23T11:55:31Z</time>
      </trkpt>
      <trkpt lat="42.81467" lon="1.74197">
        <ele>1763.717</ele>
        <time>2021-03-23T11:55:33Z</time>
      </trkpt>
      <trkpt lat="42.81467" lon="1.74197">
        <ele>1763.701</ele>
        <time>2021-03-23T11:55:35Z</time>
      </trkpt>
      <trkpt lat="42.81467" lon="1.74197">
        <ele>1763.343</ele>
        <time>2021-03-23T11:55:37Z</time>
      </trkpt>
      <trkpt lat="42.81467" lon="1.74197">
        <ele>1763.333</ele>
        <time>2021-03-23T11:55:39Z</time>
      </trkpt>
      <trkpt lat="42.81467" lon="1.74197">
        <ele>1763.346</ele>
        <time>2021-03-23T11:55:41Z</time>
      </trkpt>
      <trkpt lat="42.81467" lon="1.74197">
        <ele>1763.341</ele>
        <time>2021-03-23T11:55:43Z</time>
      </trkpt>
      <trkpt lat="42.81467" lon="1.74197">
        <ele>1763.337</ele>
        <time>2021-03-23T11:55:45Z</time>
      </trkpt>
      <trkpt lat="42.81467" lon="1.74197">
        <ele>1763.336</ele>
        <time>2021-03-23T11:55:47Z</time>
      </trkpt>
      <trkpt lat="42.81467" lon="1.74197">
        <ele>1763.328</ele>
        <time>2021-03-23T11:55:49Z</time>
      </trkpt>
      <trkpt lat="42.81468" lon="1.74197">
        <ele>1763.328</ele>
        <time>2021-03-23T11:55:51Z</time>
      </trkpt>
      <trkpt lat="42.81468" lon="1.74197">
        <ele>1764.651</ele>
        <time>2021-03-23T11:55:53Z</time>
      </trkpt>
      <trkpt lat="42.81468" lon="1.74197">
        <ele>1764.635</ele>
        <time>2021-03-23T11:55:55Z</time>
      </trkpt>
      <trkpt lat="42.81468" lon="1.74197">
        <ele>1764.623</ele>
        <time>2021-03-23T11:55:57Z</time>
      </trkpt>
      <trkpt lat="42.81467" lon="1.74196">
        <ele>1765.162</ele>
        <time>2021-03-23T11:55:59Z</time>
      </trkpt>
      <trkpt lat="42.81468" lon="1.74197">
        <ele>1765.694</ele>
        <time>2021-03-23T11:56:01Z</time>
      </trkpt>
      <trkpt lat="42.81468" lon="1.74197">
        <ele>1765.669</ele>
        <time>2021-03-23T11:56:03Z</time>
      </trkpt>
      <trkpt lat="42.81468" lon="1.74197">
        <ele>1765.657</ele>
        <time>2021-03-23T11:56:05Z</time>
      </trkpt>
      <trkpt lat="42.81468" lon="1.74197">
        <ele>1765.648</ele>
        <time>2021-03-23T11:56:07Z</time>
      </trkpt>
      <trkpt lat="42.81468" lon="1.74197">
        <ele>1765.651</ele>
        <time>2021-03-23T11:56:09Z</time>
      </trkpt>
      <trkpt lat="42.81468" lon="1.74197">
        <ele>1765.654</ele>
        <time>2021-03-23T11:56:11Z</time>
      </trkpt>
      <trkpt lat="42.81467" lon="1.74197">
        <ele>1766.737</ele>
        <time>2021-03-23T11:56:13Z</time>
      </trkpt>
      <trkpt lat="42.81467" lon="1.74197">
        <ele>1766.71</ele>
        <time>2021-03-23T11:56:15Z</time>
      </trkpt>
      <trkpt lat="42.81467" lon="1.74197">
        <ele>1766.698</ele>
        <time>2021-03-23T11:56:17Z</time>
      </trkpt>
      <trkpt lat="42.81467" lon="1.74197">
        <ele>1767.073</ele>
        <time>2021-03-23T11:56:19Z</time>
      </trkpt>
      <trkpt lat="42.81467" lon="1.74197">
        <ele>1767.075</ele>
        <time>2021-03-23T11:56:21Z</time>
      </trkpt>
      <trkpt lat="42.81467" lon="1.74197">
        <ele>1767.067</ele>
        <time>2021-03-23T11:56:23Z</time>
      </trkpt>
      <trkpt lat="42.81467" lon="1.74197">
        <ele>1767.06</ele>
        <time>2021-03-23T11:56:25Z</time>
      </trkpt>
      <trkpt lat="42.81467" lon="1.74197">
        <ele>1767.059</ele>
        <time>2021-03-23T11:56:27Z</time>
      </trkpt>
      <trkpt lat="42.81467" lon="1.74197">
        <ele>1767.059</ele>
        <time>2021-03-23T11:56:29Z</time>
      </trkpt>
      <trkpt lat="42.81467" lon="1.74197">
        <ele>1767.057</ele>
        <time>2021-03-23T11:56:31Z</time>
      </trkpt>
      <trkpt lat="42.81467" lon="1.74197">
        <ele>1767.037</ele>
        <time>2021-03-23T11:56:33Z</time>
      </trkpt>
      <trkpt lat="42.81467" lon="1.74197">
        <ele>1767.043</ele>
        <time>2021-03-23T11:56:35Z</time>
      </trkpt>
      <trkpt lat="42.81467" lon="1.74197">
        <ele>1767.473</ele>
        <time>2021-03-23T11:56:37Z</time>
      </trkpt>
      <trkpt lat="42.81467" lon="1.74197">
        <ele>1767.015</ele>
        <time>2021-03-23T11:56:39Z</time>
      </trkpt>
      <trkpt lat="42.81467" lon="1.74197">
        <ele>1766.996</ele>
        <time>2021-03-23T11:56:41Z</time>
      </trkpt>
      <trkpt lat="42.81467" lon="1.74197">
        <ele>1766.963</ele>
        <time>2021-03-23T11:56:43Z</time>
      </trkpt>
      <trkpt lat="42.81467" lon="1.74197">
        <ele>1766.971</ele>
        <time>2021-03-23T11:56:45Z</time>
      </trkpt>
      <trkpt lat="42.81467" lon="1.74197">
        <ele>1766.895</ele>
        <time>2021-03-23T11:56:47Z</time>
      </trkpt>
      <trkpt lat="42.81467" lon="1.74197">
        <ele>1766.592</ele>
        <time>2021-03-23T11:56:49Z</time>
      </trkpt>
      <trkpt lat="42.81467" lon="1.74198">
        <ele>1766.95</ele>
        <time>2021-03-23T11:56:51Z</time>
      </trkpt>
      <trkpt lat="42.81467" lon="1.74198">
        <ele>1767.269</ele>
        <time>2021-03-23T11:56:53Z</time>
      </trkpt>
      <trkpt lat="42.81467" lon="1.74198">
        <ele>1767.259</ele>
        <time>2021-03-23T11:56:55Z</time>
      </trkpt>
      <trkpt lat="42.81467" lon="1.74198">
        <ele>1767.258</ele>
        <time>2021-03-23T11:56:57Z</time>
      </trkpt>
      <trkpt lat="42.81467" lon="1.74198">
        <ele>1767.257</ele>
        <time>2021-03-23T11:56:59Z</time>
      </trkpt>
      <trkpt lat="42.81467" lon="1.74198">
        <ele>1767.246</ele>
        <time>2021-03-23T11:57:01Z</time>
      </trkpt>
      <trkpt lat="42.81467" lon="1.74198">
        <ele>1767.237</ele>
        <time>2021-03-23T11:57:03Z</time>
      </trkpt>
      <trkpt lat="42.81467" lon="1.74198">
        <ele>1767.441</ele>
        <time>2021-03-23T11:57:05Z</time>
      </trkpt>
      <trkpt lat="42.81466" lon="1.74199">
        <ele>1767.192</ele>
        <time>2021-03-23T11:57:07Z</time>
      </trkpt>
      <trkpt lat="42.81467" lon="1.742">
        <ele>1766.837</ele>
        <time>2021-03-23T11:57:09Z</time>
      </trkpt>
      <trkpt lat="42.81467" lon="1.74204">
        <ele>1766.776</ele>
        <time>2021-03-23T11:57:11Z</time>
      </trkpt>
      <trkpt lat="42.81468" lon="1.74204">
        <ele>1767.112</ele>
        <time>2021-03-23T11:57:13Z</time>
      </trkpt>
      <trkpt lat="42.81468" lon="1.74204">
        <ele>1767.059</ele>
        <time>2021-03-23T11:57:15Z</time>
      </trkpt>
      <trkpt lat="42.81468" lon="1.74204">
        <ele>1767.027</ele>
        <time>2021-03-23T11:57:17Z</time>
      </trkpt>
      <trkpt lat="42.81468" lon="1.74204">
        <ele>1767.006</ele>
        <time>2021-03-23T11:57:19Z</time>
      </trkpt>
      <trkpt lat="42.81468" lon="1.74204">
        <ele>1766.983</ele>
        <time>2021-03-23T11:57:21Z</time>
      </trkpt>
      <trkpt lat="42.81468" lon="1.74204">
        <ele>1766.945</ele>
        <time>2021-03-23T11:57:23Z</time>
      </trkpt>
      <trkpt lat="42.81468" lon="1.74204">
        <ele>1766.94</ele>
        <time>2021-03-23T11:57:25Z</time>
      </trkpt>
      <trkpt lat="42.81468" lon="1.74204">
        <ele>1766.946</ele>
        <time>2021-03-23T11:57:27Z</time>
      </trkpt>
      <trkpt lat="42.81468" lon="1.74204">
        <ele>1766.95</ele>
        <time>2021-03-23T11:57:29Z</time>
      </trkpt>
      <trkpt lat="42.81468" lon="1.74204">
        <ele>1766.935</ele>
        <time>2021-03-23T11:57:31Z</time>
      </trkpt>
      <trkpt lat="42.81468" lon="1.74204">
        <ele>1766.936</ele>
        <time>2021-03-23T11:57:33Z</time>
      </trkpt>
      <trkpt lat="42.81468" lon="1.74204">
        <ele>1766.943</ele>
        <time>2021-03-23T11:57:35Z</time>
      </trkpt>
      <trkpt lat="42.81468" lon="1.74204">
        <ele>1766.955</ele>
        <time>2021-03-23T11:57:37Z</time>
      </trkpt>
      <trkpt lat="42.81468" lon="1.74204">
        <ele>1766.946</ele>
        <time>2021-03-23T11:57:39Z</time>
      </trkpt>
      <trkpt lat="42.81468" lon="1.74204">
        <ele>1766.918</ele>
        <time>2021-03-23T11:57:41Z</time>
      </trkpt>
      <trkpt lat="42.81468" lon="1.74204">
        <ele>1766.893</ele>
        <time>2021-03-23T11:57:43Z</time>
      </trkpt>
      <trkpt lat="42.81468" lon="1.74204">
        <ele>1766.866</ele>
        <time>2021-03-23T11:57:45Z</time>
      </trkpt>
      <trkpt lat="42.81468" lon="1.74204">
        <ele>1766.864</ele>
        <time>2021-03-23T11:57:47Z</time>
      </trkpt>
      <trkpt lat="42.81468" lon="1.74204">
        <ele>1766.861</ele>
        <time>2021-03-23T11:57:49Z</time>
      </trkpt>
      <trkpt lat="42.81468" lon="1.74205">
        <ele>1766.786</ele>
        <time>2021-03-23T11:57:51Z</time>
      </trkpt>
      <trkpt lat="42.81468" lon="1.74205">
        <ele>1766.735</ele>
        <time>2021-03-23T11:57:53Z</time>
      </trkpt>
      <trkpt lat="42.81468" lon="1.74205">
        <ele>1766.704</ele>
        <time>2021-03-23T11:57:55Z</time>
      </trkpt>
      <trkpt lat="42.81468" lon="1.74205">
        <ele>1766.76</ele>
        <time>2021-03-23T11:57:57Z</time>
      </trkpt>
      <trkpt lat="42.81468" lon="1.74204">
        <ele>1766.669</ele>
        <time>2021-03-23T11:57:58Z</time>
      </trkpt>
      <trkpt lat="42.81467" lon="1.74203">
        <ele>1767.191</ele>
        <time>2021-03-23T11:58:01Z</time>
      </trkpt>
      <trkpt lat="42.81467" lon="1.74203">
        <ele>1766.96</ele>
        <time>2021-03-23T11:58:03Z</time>
      </trkpt>
      <trkpt lat="42.81467" lon="1.74203">
        <ele>1766.156</ele>
        <time>2021-03-23T11:58:05Z</time>
      </trkpt>
      <trkpt lat="42.81468" lon="1.74203">
        <ele>1766.081</ele>
        <time>2021-03-23T11:58:07Z</time>
      </trkpt>
      <trkpt lat="42.81468" lon="1.74203">
        <ele>1766.069</ele>
        <time>2021-03-23T11:58:09Z</time>
      </trkpt>
      <trkpt lat="42.81468" lon="1.74203">
        <ele>1766.305</ele>
        <time>2021-03-23T11:58:11Z</time>
      </trkpt>
      <trkpt lat="42.81468" lon="1.74203">
        <ele>1766.254</ele>
        <time>2021-03-23T11:58:13Z</time>
      </trkpt>
      <trkpt lat="42.81468" lon="1.74203">
        <ele>1766.215</ele>
        <time>2021-03-23T11:58:16Z</time>
      </trkpt>
      <trkpt lat="42.81468" lon="1.74203">
        <ele>1766.172</ele>
        <time>2021-03-23T11:58:18Z</time>
      </trkpt>
      <trkpt lat="42.81468" lon="1.74203">
        <ele>1766.195</ele>
        <time>2021-03-23T11:58:20Z</time>
      </trkpt>
      <trkpt lat="42.81468" lon="1.74203">
        <ele>1766.225</ele>
        <time>2021-03-23T11:58:22Z</time>
      </trkpt>
      <trkpt lat="42.81468" lon="1.74203">
        <ele>1766.209</ele>
        <time>2021-03-23T11:58:24Z</time>
      </trkpt>
      <trkpt lat="42.81468" lon="1.74203">
        <ele>1766.205</ele>
        <time>2021-03-23T11:58:26Z</time>
      </trkpt>
      <trkpt lat="42.81468" lon="1.74203">
        <ele>1766.193</ele>
        <time>2021-03-23T11:58:28Z</time>
      </trkpt>
      <trkpt lat="42.81468" lon="1.74203">
        <ele>1766.176</ele>
        <time>2021-03-23T11:58:30Z</time>
      </trkpt>
      <trkpt lat="42.81467" lon="1.74202">
        <ele>1765.668</ele>
        <time>2021-03-23T11:58:32Z</time>
      </trkpt>
      <trkpt lat="42.81467" lon="1.74202">
        <ele>1765.668</ele>
        <time>2021-03-23T11:58:34Z</time>
      </trkpt>
      <trkpt lat="42.81467" lon="1.74202">
        <ele>1765.635</ele>
        <time>2021-03-23T11:58:36Z</time>
      </trkpt>
      <trkpt lat="42.81468" lon="1.74202">
        <ele>1765.065</ele>
        <time>2021-03-23T11:58:38Z</time>
      </trkpt>
      <trkpt lat="42.81468" lon="1.74202">
        <ele>1765.009</ele>
        <time>2021-03-23T11:58:40Z</time>
      </trkpt>
      <trkpt lat="42.81468" lon="1.74202">
        <ele>1764.987</ele>
        <time>2021-03-23T11:58:42Z</time>
      </trkpt>
      <trkpt lat="42.81468" lon="1.74202">
        <ele>1764.96</ele>
        <time>2021-03-23T11:58:44Z</time>
      </trkpt>
      <trkpt lat="42.81468" lon="1.74202">
        <ele>1764.956</ele>
        <time>2021-03-23T11:58:46Z</time>
      </trkpt>
      <trkpt lat="42.81468" lon="1.74202">
        <ele>1764.959</ele>
        <time>2021-03-23T11:58:48Z</time>
      </trkpt>
      <trkpt lat="42.81468" lon="1.74202">
        <ele>1764.958</ele>
        <time>2021-03-23T11:58:50Z</time>
      </trkpt>
      <trkpt lat="42.81468" lon="1.74202">
        <ele>1764.952</ele>
        <time>2021-03-23T11:58:52Z</time>
      </trkpt>
      <trkpt lat="42.81468" lon="1.74202">
        <ele>1764.935</ele>
        <time>2021-03-23T11:58:54Z</time>
      </trkpt>
      <trkpt lat="42.81468" lon="1.74202">
        <ele>1764.939</ele>
        <time>2021-03-23T11:58:56Z</time>
      </trkpt>
      <trkpt lat="42.81468" lon="1.74202">
        <ele>1764.93</ele>
        <time>2021-03-23T11:58:58Z</time>
      </trkpt>
      <trkpt lat="42.81468" lon="1.74202">
        <ele>1765.701</ele>
        <time>2021-03-23T11:59:00Z</time>
      </trkpt>
      <trkpt lat="42.81468" lon="1.74202">
        <ele>1765.692</ele>
        <time>2021-03-23T11:59:02Z</time>
      </trkpt>
      <trkpt lat="42.81468" lon="1.74202">
        <ele>1765.699</ele>
        <time>2021-03-23T11:59:04Z</time>
      </trkpt>
      <trkpt lat="42.81468" lon="1.74202">
        <ele>1765.709</ele>
        <time>2021-03-23T11:59:06Z</time>
      </trkpt>
      <trkpt lat="42.81468" lon="1.74202">
        <ele>1765.699</ele>
        <time>2021-03-23T11:59:08Z</time>
      </trkpt>
      <trkpt lat="42.81468" lon="1.74202">
        <ele>1765.691</ele>
        <time>2021-03-23T11:59:10Z</time>
      </trkpt>
      <trkpt lat="42.81468" lon="1.74202">
        <ele>1765.69</ele>
        <time>2021-03-23T11:59:12Z</time>
      </trkpt>
      <trkpt lat="42.81468" lon="1.74202">
        <ele>1765.684</ele>
        <time>2021-03-23T11:59:14Z</time>
      </trkpt>
      <trkpt lat="42.81468" lon="1.74202">
        <ele>1765.683</ele>
        <time>2021-03-23T11:59:16Z</time>
      </trkpt>
      <trkpt lat="42.81468" lon="1.74202">
        <ele>1765.676</ele>
        <time>2021-03-23T11:59:18Z</time>
      </trkpt>
      <trkpt lat="42.81468" lon="1.74202">
        <ele>1765.676</ele>
        <time>2021-03-23T11:59:20Z</time>
      </trkpt>
      <trkpt lat="42.81468" lon="1.74202">
        <ele>1765.678</ele>
        <time>2021-03-23T11:59:22Z</time>
      </trkpt>
      <trkpt lat="42.81468" lon="1.74202">
        <ele>1765.683</ele>
        <time>2021-03-23T11:59:24Z</time>
      </trkpt>
      <trkpt lat="42.81468" lon="1.74202">
        <ele>1765.68</ele>
        <time>2021-03-23T11:59:26Z</time>
      </trkpt>
      <trkpt lat="42.81468" lon="1.74202">
        <ele>1765.672</ele>
        <time>2021-03-23T11:59:28Z</time>
      </trkpt>
      <trkpt lat="42.81468" lon="1.74202">
        <ele>1765.68</ele>
        <time>2021-03-23T11:59:34Z</time>
      </trkpt>
      <trkpt lat="42.81468" lon="1.74202">
        <ele>1765.68</ele>
        <time>2021-03-23T11:59:36Z</time>
      </trkpt>
      <trkpt lat="42.81468" lon="1.74202">
        <ele>1765.672</ele>
        <time>2021-03-23T11:59:38Z</time>
      </trkpt>
      <trkpt lat="42.81468" lon="1.74202">
        <ele>1765.678</ele>
        <time>2021-03-23T11:59:40Z</time>
      </trkpt>
      <trkpt lat="42.81468" lon="1.74202">
        <ele>1765.679</ele>
        <time>2021-03-23T11:59:42Z</time>
      </trkpt>
      <trkpt lat="42.81468" lon="1.74202">
        <ele>1765.671</ele>
        <time>2021-03-23T11:59:44Z</time>
      </trkpt>
      <trkpt lat="42.81468" lon="1.74202">
        <ele>1765.656</ele>
        <time>2021-03-23T11:59:46Z</time>
      </trkpt>
      <trkpt lat="42.81468" lon="1.74202">
        <ele>1765.658</ele>
        <time>2021-03-23T11:59:48Z</time>
      </trkpt>
      <trkpt lat="42.81468" lon="1.74202">
        <ele>1765.651</ele>
        <time>2021-03-23T11:59:50Z</time>
      </trkpt>
      <trkpt lat="42.81468" lon="1.74202">
        <ele>1765.661</ele>
        <time>2021-03-23T11:59:52Z</time>
      </trkpt>
      <trkpt lat="42.81468" lon="1.74202">
        <ele>1765.659</ele>
        <time>2021-03-23T11:59:54Z</time>
      </trkpt>
      <trkpt lat="42.81468" lon="1.74202">
        <ele>1765.648</ele>
        <time>2021-03-23T11:59:56Z</time>
      </trkpt>
      <trkpt lat="42.81468" lon="1.74202">
        <ele>1765.635</ele>
        <time>2021-03-23T11:59:58Z</time>
      </trkpt>
      <trkpt lat="42.81468" lon="1.74202">
        <ele>1765.635</ele>
        <time>2021-03-23T12:00:00Z</time>
      </trkpt>
      <trkpt lat="42.81468" lon="1.74202">
        <ele>1765.631</ele>
        <time>2021-03-23T12:00:02Z</time>
      </trkpt>
      <trkpt lat="42.81468" lon="1.74202">
        <ele>1765.633</ele>
        <time>2021-03-23T12:00:04Z</time>
      </trkpt>
      <trkpt lat="42.81468" lon="1.74202">
        <ele>1765.63</ele>
        <time>2021-03-23T12:00:06Z</time>
      </trkpt>
      <trkpt lat="42.81468" lon="1.74202">
        <ele>1765.633</ele>
        <time>2021-03-23T12:00:08Z</time>
      </trkpt>
      <trkpt lat="42.81468" lon="1.74202">
        <ele>1765.492</ele>
        <time>2021-03-23T12:00:09Z</time>
      </trkpt>
      <trkpt lat="42.81468" lon="1.74202">
        <ele>1765.489</ele>
        <time>2021-03-23T12:00:16Z</time>
      </trkpt>
      <trkpt lat="42.81468" lon="1.74202">
        <ele>1765.49</ele>
        <time>2021-03-23T12:00:18Z</time>
      </trkpt>
      <trkpt lat="42.81468" lon="1.74202">
        <ele>1765.474</ele>
        <time>2021-03-23T12:00:20Z</time>
      </trkpt>
      <trkpt lat="42.81468" lon="1.74202">
        <ele>1765.474</ele>
        <time>2021-03-23T12:00:22Z</time>
      </trkpt>
      <trkpt lat="42.81468" lon="1.74202">
        <ele>1765.47</ele>
        <time>2021-03-23T12:00:24Z</time>
      </trkpt>
      <trkpt lat="42.81468" lon="1.74202">
        <ele>1765.466</ele>
        <time>2021-03-23T12:00:26Z</time>
      </trkpt>
      <trkpt lat="42.81468" lon="1.74202">
        <ele>1765.46</ele>
        <time>2021-03-23T12:00:33Z</time>
      </trkpt>
      <trkpt lat="42.81468" lon="1.74202">
        <ele>1765.455</ele>
        <time>2021-03-23T12:00:35Z</time>
      </trkpt>
      <trkpt lat="42.81468" lon="1.74202">
        <ele>1765.455</ele>
        <time>2021-03-23T12:00:37Z</time>
      </trkpt>
      <trkpt lat="42.81468" lon="1.74202">
        <ele>1765.443</ele>
        <time>2021-03-23T12:00:39Z</time>
      </trkpt>
      <trkpt lat="42.81468" lon="1.74202">
        <ele>1765.437</ele>
        <time>2021-03-23T12:00:41Z</time>
      </trkpt>
      <trkpt lat="42.81468" lon="1.74202">
        <ele>1765.436</ele>
        <time>2021-03-23T12:00:43Z</time>
      </trkpt>
      <trkpt lat="42.81468" lon="1.74202">
        <ele>1765.435</ele>
        <time>2021-03-23T12:00:45Z</time>
      </trkpt>
      <trkpt lat="42.81468" lon="1.74202">
        <ele>1765.436</ele>
        <time>2021-03-23T12:00:47Z</time>
      </trkpt>
      <trkpt lat="42.81468" lon="1.74202">
        <ele>1765.432</ele>
        <time>2021-03-23T12:00:49Z</time>
      </trkpt>
      <trkpt lat="42.81468" lon="1.74202">
        <ele>1765.425</ele>
        <time>2021-03-23T12:00:51Z</time>
      </trkpt>
      <trkpt lat="42.81468" lon="1.74202">
        <ele>1765.421</ele>
        <time>2021-03-23T12:00:53Z</time>
      </trkpt>
      <trkpt lat="42.81468" lon="1.74202">
        <ele>1765.412</ele>
        <time>2021-03-23T12:00:55Z</time>
      </trkpt>
      <trkpt lat="42.81468" lon="1.74202">
        <ele>1765.411</ele>
        <time>2021-03-23T12:00:57Z</time>
      </trkpt>
      <trkpt lat="42.81468" lon="1.74202">
        <ele>1765.412</ele>
        <time>2021-03-23T12:00:59Z</time>
      </trkpt>
      <trkpt lat="42.81468" lon="1.74202">
        <ele>1766.097</ele>
        <time>2021-03-23T12:01:01Z</time>
      </trkpt>
      <trkpt lat="42.81468" lon="1.74202">
        <ele>1766.106</ele>
        <time>2021-03-23T12:01:03Z</time>
      </trkpt>
      <trkpt lat="42.81468" lon="1.74202">
        <ele>1766.1</ele>
        <time>2021-03-23T12:01:05Z</time>
      </trkpt>
      <trkpt lat="42.81468" lon="1.74202">
        <ele>1766.098</ele>
        <time>2021-03-23T12:01:07Z</time>
      </trkpt>
      <trkpt lat="42.81468" lon="1.74202">
        <ele>1766.099</ele>
        <time>2021-03-23T12:01:09Z</time>
      </trkpt>
      <trkpt lat="42.81468" lon="1.74202">
        <ele>1766.102</ele>
        <time>2021-03-23T12:01:11Z</time>
      </trkpt>
      <trkpt lat="42.81468" lon="1.74202">
        <ele>1766.102</ele>
        <time>2021-03-23T12:01:13Z</time>
      </trkpt>
      <trkpt lat="42.81468" lon="1.74202">
        <ele>1766.104</ele>
        <time>2021-03-23T12:01:15Z</time>
      </trkpt>
      <trkpt lat="42.81468" lon="1.74202">
        <ele>1766.104</ele>
        <time>2021-03-23T12:01:17Z</time>
      </trkpt>
      <trkpt lat="42.81468" lon="1.74202">
        <ele>1766.103</ele>
        <time>2021-03-23T12:01:19Z</time>
      </trkpt>
      <trkpt lat="42.81468" lon="1.74202">
        <ele>1766.103</ele>
        <time>2021-03-23T12:01:21Z</time>
      </trkpt>
      <trkpt lat="42.81468" lon="1.74202">
        <ele>1766.176</ele>
        <time>2021-03-23T12:01:23Z</time>
      </trkpt>
      <trkpt lat="42.81468" lon="1.74202">
        <ele>1766.175</ele>
        <time>2021-03-23T12:01:25Z</time>
      </trkpt>
      <trkpt lat="42.81468" lon="1.74202">
        <ele>1766.171</ele>
        <time>2021-03-23T12:01:27Z</time>
      </trkpt>
      <trkpt lat="42.81468" lon="1.74202">
        <ele>1766.165</ele>
        <time>2021-03-23T12:01:29Z</time>
      </trkpt>
      <trkpt lat="42.81468" lon="1.74202">
        <ele>1766.054</ele>
        <time>2021-03-23T12:01:31Z</time>
      </trkpt>
      <trkpt lat="42.81468" lon="1.74202">
        <ele>1766.056</ele>
        <time>2021-03-23T12:01:33Z</time>
      </trkpt>
      <trkpt lat="42.81468" lon="1.74202">
        <ele>1766.073</ele>
        <time>2021-03-23T12:01:35Z</time>
      </trkpt>
      <trkpt lat="42.81468" lon="1.74202">
        <ele>1765.812</ele>
        <time>2021-03-23T12:01:37Z</time>
      </trkpt>
      <trkpt lat="42.81468" lon="1.74202">
        <ele>1765.837</ele>
        <time>2021-03-23T12:01:39Z</time>
      </trkpt>
      <trkpt lat="42.81468" lon="1.74202">
        <ele>1765.836</ele>
        <time>2021-03-23T12:01:41Z</time>
      </trkpt>
      <trkpt lat="42.81468" lon="1.74202">
        <ele>1765.834</ele>
        <time>2021-03-23T12:01:43Z</time>
      </trkpt>
      <trkpt lat="42.81468" lon="1.74202">
        <ele>1765.834</ele>
        <time>2021-03-23T12:01:45Z</time>
      </trkpt>
      <trkpt lat="42.81468" lon="1.74202">
        <ele>1765.833</ele>
        <time>2021-03-23T12:01:47Z</time>
      </trkpt>
      <trkpt lat="42.81468" lon="1.74202">
        <ele>1765.831</ele>
        <time>2021-03-23T12:01:49Z</time>
      </trkpt>
      <trkpt lat="42.81468" lon="1.74202">
        <ele>1765.831</ele>
        <time>2021-03-23T12:01:51Z</time>
      </trkpt>
      <trkpt lat="42.81468" lon="1.74202">
        <ele>1765.83</ele>
        <time>2021-03-23T12:01:53Z</time>
      </trkpt>
      <trkpt lat="42.81468" lon="1.74202">
        <ele>1766.231</ele>
        <time>2021-03-23T12:01:55Z</time>
      </trkpt>
      <trkpt lat="42.81468" lon="1.74202">
        <ele>1766.242</ele>
        <time>2021-03-23T12:01:57Z</time>
      </trkpt>
      <trkpt lat="42.81468" lon="1.74202">
        <ele>1766.246</ele>
        <time>2021-03-23T12:01:59Z</time>
      </trkpt>
      <trkpt lat="42.81468" lon="1.74202">
        <ele>1766.244</ele>
        <time>2021-03-23T12:02:01Z</time>
      </trkpt>
      <trkpt lat="42.81468" lon="1.74202">
        <ele>1766.244</ele>
        <time>2021-03-23T12:02:03Z</time>
      </trkpt>
      <trkpt lat="42.81468" lon="1.74202">
        <ele>1766.239</ele>
        <time>2021-03-23T12:02:05Z</time>
      </trkpt>
      <trkpt lat="42.81468" lon="1.74202">
        <ele>1766.245</ele>
        <time>2021-03-23T12:02:07Z</time>
      </trkpt>
      <trkpt lat="42.81468" lon="1.74202">
        <ele>1766.256</ele>
        <time>2021-03-23T12:02:09Z</time>
      </trkpt>
      <trkpt lat="42.81468" lon="1.74202">
        <ele>1766.262</ele>
        <time>2021-03-23T12:02:16Z</time>
      </trkpt>
      <trkpt lat="42.81468" lon="1.74202">
        <ele>1766.257</ele>
        <time>2021-03-23T12:02:18Z</time>
      </trkpt>
      <trkpt lat="42.81467" lon="1.74202">
        <ele>1766.243</ele>
        <time>2021-03-23T12:02:23Z</time>
      </trkpt>
      <trkpt lat="42.81467" lon="1.74202">
        <ele>1766.241</ele>
        <time>2021-03-23T12:02:25Z</time>
      </trkpt>
      <trkpt lat="42.81467" lon="1.74202">
        <ele>1766.243</ele>
        <time>2021-03-23T12:02:27Z</time>
      </trkpt>
      <trkpt lat="42.81467" lon="1.74202">
        <ele>1766.243</ele>
        <time>2021-03-23T12:02:29Z</time>
      </trkpt>
      <trkpt lat="42.81467" lon="1.74202">
        <ele>1766.243</ele>
        <time>2021-03-23T12:02:31Z</time>
      </trkpt>
      <trkpt lat="42.81467" lon="1.74202">
        <ele>1766.244</ele>
        <time>2021-03-23T12:02:33Z</time>
      </trkpt>
      <trkpt lat="42.81467" lon="1.74202">
        <ele>1766.248</ele>
        <time>2021-03-23T12:02:35Z</time>
      </trkpt>
      <trkpt lat="42.81467" lon="1.74202">
        <ele>1766.25</ele>
        <time>2021-03-23T12:02:37Z</time>
      </trkpt>
      <trkpt lat="42.81467" lon="1.74202">
        <ele>1766.255</ele>
        <time>2021-03-23T12:02:39Z</time>
      </trkpt>
      <trkpt lat="42.81467" lon="1.74202">
        <ele>1766.257</ele>
        <time>2021-03-23T12:02:41Z</time>
      </trkpt>
      <trkpt lat="42.81467" lon="1.74202">
        <ele>1766.256</ele>
        <time>2021-03-23T12:02:43Z</time>
      </trkpt>
      <trkpt lat="42.81467" lon="1.74202">
        <ele>1766.244</ele>
        <time>2021-03-23T12:02:45Z</time>
      </trkpt>
      <trkpt lat="42.81467" lon="1.74202">
        <ele>1766.248</ele>
        <time>2021-03-23T12:02:47Z</time>
      </trkpt>
      <trkpt lat="42.81467" lon="1.74202">
        <ele>1766.252</ele>
        <time>2021-03-23T12:02:49Z</time>
      </trkpt>
      <trkpt lat="42.81467" lon="1.74202">
        <ele>1766.254</ele>
        <time>2021-03-23T12:02:51Z</time>
      </trkpt>
      <trkpt lat="42.81467" lon="1.74202">
        <ele>1766.256</ele>
        <time>2021-03-23T12:02:53Z</time>
      </trkpt>
      <trkpt lat="42.81467" lon="1.74202">
        <ele>1766.27</ele>
        <time>2021-03-23T12:02:55Z</time>
      </trkpt>
      <trkpt lat="42.81467" lon="1.74202">
        <ele>1766.268</ele>
        <time>2021-03-23T12:02:57Z</time>
      </trkpt>
      <trkpt lat="42.81467" lon="1.74202">
        <ele>1766.264</ele>
        <time>2021-03-23T12:02:59Z</time>
      </trkpt>
      <trkpt lat="42.81467" lon="1.74202">
        <ele>1766.253</ele>
        <time>2021-03-23T12:03:01Z</time>
      </trkpt>
      <trkpt lat="42.81467" lon="1.74202">
        <ele>1766.258</ele>
        <time>2021-03-23T12:03:03Z</time>
      </trkpt>
      <trkpt lat="42.81467" lon="1.74202">
        <ele>1766.258</ele>
        <time>2021-03-23T12:03:05Z</time>
      </trkpt>
      <trkpt lat="42.81467" lon="1.74202">
        <ele>1766.258</ele>
        <time>2021-03-23T12:03:07Z</time>
      </trkpt>
      <trkpt lat="42.81467" lon="1.74202">
        <ele>1766.259</ele>
        <time>2021-03-23T12:03:08Z</time>
      </trkpt>
      <trkpt lat="42.81467" lon="1.74202">
        <ele>1766.246</ele>
        <time>2021-03-23T12:03:14Z</time>
      </trkpt>
      <trkpt lat="42.81467" lon="1.74202">
        <ele>1766.233</ele>
        <time>2021-03-23T12:03:16Z</time>
      </trkpt>
      <trkpt lat="42.81467" lon="1.74202">
        <ele>1766.508</ele>
        <time>2021-03-23T12:03:18Z</time>
      </trkpt>
      <trkpt lat="42.81467" lon="1.74202">
        <ele>1766.524</ele>
        <time>2021-03-23T12:03:20Z</time>
      </trkpt>
      <trkpt lat="42.81468" lon="1.74203">
        <ele>1766.595</ele>
        <time>2021-03-23T12:03:22Z</time>
      </trkpt>
      <trkpt lat="42.81467" lon="1.74202">
        <ele>1766.545</ele>
        <time>2021-03-23T12:03:24Z</time>
      </trkpt>
      <trkpt lat="42.81466" lon="1.74201">
        <ele>1766.598</ele>
        <time>2021-03-23T12:03:26Z</time>
      </trkpt>
      <trkpt lat="42.81466" lon="1.74201">
        <ele>1766.451</ele>
        <time>2021-03-23T12:03:33Z</time>
      </trkpt>
      <trkpt lat="42.81466" lon="1.74201">
        <ele>1766.492</ele>
        <time>2021-03-23T12:03:35Z</time>
      </trkpt>
      <trkpt lat="42.81466" lon="1.74201">
        <ele>1766.509</ele>
        <time>2021-03-23T12:03:37Z</time>
      </trkpt>
      <trkpt lat="42.81466" lon="1.74201">
        <ele>1766.508</ele>
        <time>2021-03-23T12:03:39Z</time>
      </trkpt>
      <trkpt lat="42.81466" lon="1.74201">
        <ele>1766.471</ele>
        <time>2021-03-23T12:03:41Z</time>
      </trkpt>
      <trkpt lat="42.81466" lon="1.742">
        <ele>1766.431</ele>
        <time>2021-03-23T12:03:43Z</time>
      </trkpt>
      <trkpt lat="42.81466" lon="1.742">
        <ele>1766.402</ele>
        <time>2021-03-23T12:03:45Z</time>
      </trkpt>
      <trkpt lat="42.81466" lon="1.742">
        <ele>1766.387</ele>
        <time>2021-03-23T12:03:47Z</time>
      </trkpt>
      <trkpt lat="42.81466" lon="1.742">
        <ele>1766.372</ele>
        <time>2021-03-23T12:03:49Z</time>
      </trkpt>
      <trkpt lat="42.81466" lon="1.742">
        <ele>1766.372</ele>
        <time>2021-03-23T12:03:51Z</time>
      </trkpt>
      <trkpt lat="42.81466" lon="1.742">
        <ele>1766.349</ele>
        <time>2021-03-23T12:03:53Z</time>
      </trkpt>
      <trkpt lat="42.81466" lon="1.742">
        <ele>1766.177</ele>
        <time>2021-03-23T12:03:55Z</time>
      </trkpt>
      <trkpt lat="42.81466" lon="1.742">
        <ele>1766.157</ele>
        <time>2021-03-23T12:03:57Z</time>
      </trkpt>
      <trkpt lat="42.81465" lon="1.742">
        <ele>1766.236</ele>
        <time>2021-03-23T12:03:59Z</time>
      </trkpt>
      <trkpt lat="42.81465" lon="1.742">
        <ele>1766.238</ele>
        <time>2021-03-23T12:04:01Z</time>
      </trkpt>
      <trkpt lat="42.81465" lon="1.742">
        <ele>1766.255</ele>
        <time>2021-03-23T12:04:03Z</time>
      </trkpt>
      <trkpt lat="42.81465" lon="1.742">
        <ele>1766.277</ele>
        <time>2021-03-23T12:04:05Z</time>
      </trkpt>
      <trkpt lat="42.81465" lon="1.742">
        <ele>1766.259</ele>
        <time>2021-03-23T12:04:07Z</time>
      </trkpt>
      <trkpt lat="42.81465" lon="1.742">
        <ele>1766.258</ele>
        <time>2021-03-23T12:04:09Z</time>
      </trkpt>
      <trkpt lat="42.81465" lon="1.742">
        <ele>1766.258</ele>
        <time>2021-03-23T12:04:11Z</time>
      </trkpt>
      <trkpt lat="42.81465" lon="1.742">
        <ele>1766.267</ele>
        <time>2021-03-23T12:04:13Z</time>
      </trkpt>
      <trkpt lat="42.81465" lon="1.742">
        <ele>1766.265</ele>
        <time>2021-03-23T12:04:15Z</time>
      </trkpt>
      <trkpt lat="42.81465" lon="1.742">
        <ele>1766.282</ele>
        <time>2021-03-23T12:04:17Z</time>
      </trkpt>
      <trkpt lat="42.81465" lon="1.742">
        <ele>1766.291</ele>
        <time>2021-03-23T12:04:19Z</time>
      </trkpt>
      <trkpt lat="42.81465" lon="1.742">
        <ele>1766.274</ele>
        <time>2021-03-23T12:04:21Z</time>
      </trkpt>
      <trkpt lat="42.81466" lon="1.742">
        <ele>1766.268</ele>
        <time>2021-03-23T12:04:23Z</time>
      </trkpt>
      <trkpt lat="42.81466" lon="1.742">
        <ele>1766.27</ele>
        <time>2021-03-23T12:04:25Z</time>
      </trkpt>
      <trkpt lat="42.81466" lon="1.742">
        <ele>1766.266</ele>
        <time>2021-03-23T12:04:27Z</time>
      </trkpt>
      <trkpt lat="42.81466" lon="1.742">
        <ele>1766.247</ele>
        <time>2021-03-23T12:04:29Z</time>
      </trkpt>
      <trkpt lat="42.81466" lon="1.742">
        <ele>1766.237</ele>
        <time>2021-03-23T12:04:31Z</time>
      </trkpt>
      <trkpt lat="42.81466" lon="1.742">
        <ele>1766.28</ele>
        <time>2021-03-23T12:04:33Z</time>
      </trkpt>
      <trkpt lat="42.81466" lon="1.742">
        <ele>1766.275</ele>
        <time>2021-03-23T12:04:35Z</time>
      </trkpt>
      <trkpt lat="42.81466" lon="1.742">
        <ele>1766.255</ele>
        <time>2021-03-23T12:04:37Z</time>
      </trkpt>
      <trkpt lat="42.81466" lon="1.742">
        <ele>1766.278</ele>
        <time>2021-03-23T12:04:39Z</time>
      </trkpt>
      <trkpt lat="42.81466" lon="1.742">
        <ele>1766.305</ele>
        <time>2021-03-23T12:04:41Z</time>
      </trkpt>
      <trkpt lat="42.81466" lon="1.742">
        <ele>1766.294</ele>
        <time>2021-03-23T12:04:43Z</time>
      </trkpt>
      <trkpt lat="42.81466" lon="1.74201">
        <ele>1766.03</ele>
        <time>2021-03-23T12:04:45Z</time>
      </trkpt>
      <trkpt lat="42.81466" lon="1.74201">
        <ele>1765.823</ele>
        <time>2021-03-23T12:04:47Z</time>
      </trkpt>
      <trkpt lat="42.81466" lon="1.74201">
        <ele>1765.83</ele>
        <time>2021-03-23T12:04:49Z</time>
      </trkpt>
      <trkpt lat="42.81466" lon="1.74201">
        <ele>1765.898</ele>
        <time>2021-03-23T12:04:51Z</time>
      </trkpt>
      <trkpt lat="42.81466" lon="1.74201">
        <ele>1765.903</ele>
        <time>2021-03-23T12:04:53Z</time>
      </trkpt>
      <trkpt lat="42.81466" lon="1.74201">
        <ele>1765.318</ele>
        <time>2021-03-23T12:04:55Z</time>
      </trkpt>
      <trkpt lat="42.81467" lon="1.74202">
        <ele>1764.328</ele>
        <time>2021-03-23T12:04:57Z</time>
      </trkpt>
      <trkpt lat="42.81466" lon="1.74202">
        <ele>1764.298</ele>
        <time>2021-03-23T12:04:59Z</time>
      </trkpt>
      <trkpt lat="42.81466" lon="1.74202">
        <ele>1764.294</ele>
        <time>2021-03-23T12:05:01Z</time>
      </trkpt>
      <trkpt lat="42.81466" lon="1.74202">
        <ele>1764.31</ele>
        <time>2021-03-23T12:05:03Z</time>
      </trkpt>
      <trkpt lat="42.81466" lon="1.74202">
        <ele>1764.506</ele>
        <time>2021-03-23T12:05:05Z</time>
      </trkpt>
      <trkpt lat="42.81466" lon="1.74202">
        <ele>1764.514</ele>
        <time>2021-03-23T12:05:07Z</time>
      </trkpt>
      <trkpt lat="42.81466" lon="1.74202">
        <ele>1764.523</ele>
        <time>2021-03-23T12:05:09Z</time>
      </trkpt>
      <trkpt lat="42.81466" lon="1.74202">
        <ele>1764.513</ele>
        <time>2021-03-23T12:05:11Z</time>
      </trkpt>
      <trkpt lat="42.81466" lon="1.74202">
        <ele>1764.516</ele>
        <time>2021-03-23T12:05:13Z</time>
      </trkpt>
      <trkpt lat="42.81466" lon="1.74202">
        <ele>1764.425</ele>
        <time>2021-03-23T12:05:15Z</time>
      </trkpt>
      <trkpt lat="42.81466" lon="1.74202">
        <ele>1764.408</ele>
        <time>2021-03-23T12:05:17Z</time>
      </trkpt>
      <trkpt lat="42.81466" lon="1.74202">
        <ele>1764.615</ele>
        <time>2021-03-23T12:05:19Z</time>
      </trkpt>
      <trkpt lat="42.81466" lon="1.74202">
        <ele>1764.556</ele>
        <time>2021-03-23T12:05:21Z</time>
      </trkpt>
      <trkpt lat="42.81465" lon="1.74201">
        <ele>1764.636</ele>
        <time>2021-03-23T12:05:23Z</time>
      </trkpt>
      <trkpt lat="42.81465" lon="1.742">
        <ele>1764.895</ele>
        <time>2021-03-23T12:05:25Z</time>
      </trkpt>
      <trkpt lat="42.81465" lon="1.742">
        <ele>1764.886</ele>
        <time>2021-03-23T12:05:28Z</time>
      </trkpt>
      <trkpt lat="42.81465" lon="1.742">
        <ele>1764.886</ele>
        <time>2021-03-23T12:05:30Z</time>
      </trkpt>
      <trkpt lat="42.81466" lon="1.742">
        <ele>1765.597</ele>
        <time>2021-03-23T12:05:32Z</time>
      </trkpt>
      <trkpt lat="42.81466" lon="1.74201">
        <ele>1765.57</ele>
        <time>2021-03-23T12:05:34Z</time>
      </trkpt>
      <trkpt lat="42.81466" lon="1.74201">
        <ele>1765.571</ele>
        <time>2021-03-23T12:05:36Z</time>
      </trkpt>
      <trkpt lat="42.81466" lon="1.74201">
        <ele>1765.569</ele>
        <time>2021-03-23T12:05:38Z</time>
      </trkpt>
      <trkpt lat="42.81466" lon="1.74201">
        <ele>1764.756</ele>
        <time>2021-03-23T12:05:40Z</time>
      </trkpt>
      <trkpt lat="42.81467" lon="1.74201">
        <ele>1764.312</ele>
        <time>2021-03-23T12:05:42Z</time>
      </trkpt>
      <trkpt lat="42.81467" lon="1.74201">
        <ele>1763.968</ele>
        <time>2021-03-23T12:05:44Z</time>
      </trkpt>
      <trkpt lat="42.81467" lon="1.74201">
        <ele>1764.127</ele>
        <time>2021-03-23T12:05:46Z</time>
      </trkpt>
      <trkpt lat="42.81467" lon="1.74201">
        <ele>1764.137</ele>
        <time>2021-03-23T12:05:48Z</time>
      </trkpt>
      <trkpt lat="42.81467" lon="1.74201">
        <ele>1764.139</ele>
        <time>2021-03-23T12:05:50Z</time>
      </trkpt>
      <trkpt lat="42.81467" lon="1.74201">
        <ele>1764.138</ele>
        <time>2021-03-23T12:05:52Z</time>
      </trkpt>
      <trkpt lat="42.81467" lon="1.74201">
        <ele>1764.105</ele>
        <time>2021-03-23T12:05:54Z</time>
      </trkpt>
      <trkpt lat="42.81467" lon="1.74201">
        <ele>1764.103</ele>
        <time>2021-03-23T12:05:56Z</time>
      </trkpt>
      <trkpt lat="42.81467" lon="1.74201">
        <ele>1764.112</ele>
        <time>2021-03-23T12:05:57Z</time>
      </trkpt>
      <trkpt lat="42.81467" lon="1.74201">
        <ele>1764.119</ele>
        <time>2021-03-23T12:06:04Z</time>
      </trkpt>
      <trkpt lat="42.81467" lon="1.74201">
        <ele>1764.112</ele>
        <time>2021-03-23T12:06:06Z</time>
      </trkpt>
      <trkpt lat="42.81467" lon="1.74201">
        <ele>1764.1</ele>
        <time>2021-03-23T12:06:08Z</time>
      </trkpt>
      <trkpt lat="42.81467" lon="1.74201">
        <ele>1764.107</ele>
        <time>2021-03-23T12:06:10Z</time>
      </trkpt>
      <trkpt lat="42.81467" lon="1.74201">
        <ele>1764.108</ele>
        <time>2021-03-23T12:06:12Z</time>
      </trkpt>
      <trkpt lat="42.81467" lon="1.74201">
        <ele>1764.097</ele>
        <time>2021-03-23T12:06:14Z</time>
      </trkpt>
      <trkpt lat="42.81467" lon="1.74201">
        <ele>1764.09</ele>
        <time>2021-03-23T12:06:16Z</time>
      </trkpt>
      <trkpt lat="42.81467" lon="1.74201">
        <ele>1764.064</ele>
        <time>2021-03-23T12:06:18Z</time>
      </trkpt>
      <trkpt lat="42.81467" lon="1.74201">
        <ele>1764.044</ele>
        <time>2021-03-23T12:06:20Z</time>
      </trkpt>
      <trkpt lat="42.81467" lon="1.74201">
        <ele>1764.016</ele>
        <time>2021-03-23T12:06:22Z</time>
      </trkpt>
      <trkpt lat="42.81467" lon="1.74201">
        <ele>1763.999</ele>
        <time>2021-03-23T12:06:24Z</time>
      </trkpt>
      <trkpt lat="42.81467" lon="1.74201">
        <ele>1763.998</ele>
        <time>2021-03-23T12:06:26Z</time>
      </trkpt>
      <trkpt lat="42.81467" lon="1.74201">
        <ele>1763.978</ele>
        <time>2021-03-23T12:06:28Z</time>
      </trkpt>
      <trkpt lat="42.81467" lon="1.74201">
        <ele>1763.977</ele>
        <time>2021-03-23T12:06:30Z</time>
      </trkpt>
      <trkpt lat="42.81467" lon="1.74201">
        <ele>1763.976</ele>
        <time>2021-03-23T12:06:32Z</time>
      </trkpt>
      <trkpt lat="42.81467" lon="1.74201">
        <ele>1763.976</ele>
        <time>2021-03-23T12:06:34Z</time>
      </trkpt>
      <trkpt lat="42.81467" lon="1.74201">
        <ele>1763.972</ele>
        <time>2021-03-23T12:06:36Z</time>
      </trkpt>
      <trkpt lat="42.81467" lon="1.74201">
        <ele>1763.966</ele>
        <time>2021-03-23T12:06:38Z</time>
      </trkpt>
      <trkpt lat="42.81467" lon="1.74201">
        <ele>1763.966</ele>
        <time>2021-03-23T12:06:40Z</time>
      </trkpt>
      <trkpt lat="42.81467" lon="1.74201">
        <ele>1763.968</ele>
        <time>2021-03-23T12:06:42Z</time>
      </trkpt>
      <trkpt lat="42.81467" lon="1.74201">
        <ele>1763.965</ele>
        <time>2021-03-23T12:06:44Z</time>
      </trkpt>
      <trkpt lat="42.81467" lon="1.74201">
        <ele>1763.958</ele>
        <time>2021-03-23T12:06:46Z</time>
      </trkpt>
      <trkpt lat="42.81467" lon="1.74201">
        <ele>1763.942</ele>
        <time>2021-03-23T12:06:48Z</time>
      </trkpt>
      <trkpt lat="42.81467" lon="1.74201">
        <ele>1763.923</ele>
        <time>2021-03-23T12:06:50Z</time>
      </trkpt>
      <trkpt lat="42.81467" lon="1.74201">
        <ele>1763.918</ele>
        <time>2021-03-23T12:06:52Z</time>
      </trkpt>
      <trkpt lat="42.81467" lon="1.74201">
        <ele>1763.907</ele>
        <time>2021-03-23T12:06:54Z</time>
      </trkpt>
      <trkpt lat="42.81467" lon="1.74201">
        <ele>1763.905</ele>
        <time>2021-03-23T12:06:56Z</time>
      </trkpt>
      <trkpt lat="42.81467" lon="1.74201">
        <ele>1763.9</ele>
        <time>2021-03-23T12:06:58Z</time>
      </trkpt>
      <trkpt lat="42.81467" lon="1.74201">
        <ele>1763.89</ele>
        <time>2021-03-23T12:07:00Z</time>
      </trkpt>
      <trkpt lat="42.81467" lon="1.74201">
        <ele>1763.882</ele>
        <time>2021-03-23T12:07:02Z</time>
      </trkpt>
      <trkpt lat="42.81467" lon="1.74201">
        <ele>1763.874</ele>
        <time>2021-03-23T12:07:04Z</time>
      </trkpt>
      <trkpt lat="42.81467" lon="1.74201">
        <ele>1763.87</ele>
        <time>2021-03-23T12:07:06Z</time>
      </trkpt>
      <trkpt lat="42.81467" lon="1.74201">
        <ele>1763.861</ele>
        <time>2021-03-23T12:07:08Z</time>
      </trkpt>
      <trkpt lat="42.81467" lon="1.74201">
        <ele>1763.866</ele>
        <time>2021-03-23T12:07:10Z</time>
      </trkpt>
      <trkpt lat="42.81467" lon="1.74201">
        <ele>1763.864</ele>
        <time>2021-03-23T12:07:12Z</time>
      </trkpt>
      <trkpt lat="42.81467" lon="1.74201">
        <ele>1763.851</ele>
        <time>2021-03-23T12:07:14Z</time>
      </trkpt>
      <trkpt lat="42.81467" lon="1.74201">
        <ele>1763.848</ele>
        <time>2021-03-23T12:07:16Z</time>
      </trkpt>
      <trkpt lat="42.81467" lon="1.74201">
        <ele>1763.851</ele>
        <time>2021-03-23T12:07:17Z</time>
      </trkpt>
      <trkpt lat="42.81467" lon="1.74201">
        <ele>1763.865</ele>
        <time>2021-03-23T12:07:25Z</time>
      </trkpt>
      <trkpt lat="42.81467" lon="1.74201">
        <ele>1763.866</ele>
        <time>2021-03-23T12:07:27Z</time>
      </trkpt>
      <trkpt lat="42.81467" lon="1.74201">
        <ele>1763.869</ele>
        <time>2021-03-23T12:07:29Z</time>
      </trkpt>
      <trkpt lat="42.81467" lon="1.74201">
        <ele>1763.865</ele>
        <time>2021-03-23T12:07:31Z</time>
      </trkpt>
      <trkpt lat="42.81467" lon="1.74201">
        <ele>1763.862</ele>
        <time>2021-03-23T12:07:33Z</time>
      </trkpt>
      <trkpt lat="42.81467" lon="1.74201">
        <ele>1763.855</ele>
        <time>2021-03-23T12:07:35Z</time>
      </trkpt>
      <trkpt lat="42.81467" lon="1.74201">
        <ele>1763.849</ele>
        <time>2021-03-23T12:07:37Z</time>
      </trkpt>
      <trkpt lat="42.81467" lon="1.74201">
        <ele>1763.848</ele>
        <time>2021-03-23T12:07:39Z</time>
      </trkpt>
      <trkpt lat="42.81467" lon="1.74201">
        <ele>1763.841</ele>
        <time>2021-03-23T12:07:41Z</time>
      </trkpt>
      <trkpt lat="42.81467" lon="1.74201">
        <ele>1763.846</ele>
        <time>2021-03-23T12:07:43Z</time>
      </trkpt>
      <trkpt lat="42.81467" lon="1.74201">
        <ele>1763.849</ele>
        <time>2021-03-23T12:07:45Z</time>
      </trkpt>
      <trkpt lat="42.81467" lon="1.74201">
        <ele>1763.842</ele>
        <time>2021-03-23T12:07:47Z</time>
      </trkpt>
      <trkpt lat="42.81467" lon="1.74201">
        <ele>1763.84</ele>
        <time>2021-03-23T12:07:49Z</time>
      </trkpt>
      <trkpt lat="42.81467" lon="1.74201">
        <ele>1763.839</ele>
        <time>2021-03-23T12:07:51Z</time>
      </trkpt>
      <trkpt lat="42.81467" lon="1.74201">
        <ele>1763.838</ele>
        <time>2021-03-23T12:07:53Z</time>
      </trkpt>
      <trkpt lat="42.81467" lon="1.74201">
        <ele>1763.839</ele>
        <time>2021-03-23T12:07:55Z</time>
      </trkpt>
      <trkpt lat="42.81467" lon="1.74201">
        <ele>1763.843</ele>
        <time>2021-03-23T12:07:57Z</time>
      </trkpt>
      <trkpt lat="42.81467" lon="1.74201">
        <ele>1763.848</ele>
        <time>2021-03-23T12:07:59Z</time>
      </trkpt>
      <trkpt lat="42.81467" lon="1.74201">
        <ele>1763.849</ele>
        <time>2021-03-23T12:08:01Z</time>
      </trkpt>
      <trkpt lat="42.81467" lon="1.74201">
        <ele>1763.84</ele>
        <time>2021-03-23T12:08:03Z</time>
      </trkpt>
      <trkpt lat="42.81467" lon="1.74201">
        <ele>1763.843</ele>
        <time>2021-03-23T12:08:05Z</time>
      </trkpt>
      <trkpt lat="42.81467" lon="1.74201">
        <ele>1763.844</ele>
        <time>2021-03-23T12:08:07Z</time>
      </trkpt>
      <trkpt lat="42.81467" lon="1.74201">
        <ele>1763.835</ele>
        <time>2021-03-23T12:08:14Z</time>
      </trkpt>
      <trkpt lat="42.81467" lon="1.74201">
        <ele>1763.834</ele>
        <time>2021-03-23T12:08:16Z</time>
      </trkpt>
      <trkpt lat="42.81466" lon="1.74201">
        <ele>1763.603</ele>
        <time>2021-03-23T12:08:18Z</time>
      </trkpt>
      <trkpt lat="42.81466" lon="1.74201">
        <ele>1763.618</ele>
        <time>2021-03-23T12:08:20Z</time>
      </trkpt>
      <trkpt lat="42.81466" lon="1.74201">
        <ele>1763.636</ele>
        <time>2021-03-23T12:08:22Z</time>
      </trkpt>
      <trkpt lat="42.81466" lon="1.74201">
        <ele>1763.601</ele>
        <time>2021-03-23T12:08:24Z</time>
      </trkpt>
      <trkpt lat="42.81466" lon="1.74201">
        <ele>1763.554</ele>
        <time>2021-03-23T12:08:26Z</time>
      </trkpt>
      <trkpt lat="42.81466" lon="1.74201">
        <ele>1763.54</ele>
        <time>2021-03-23T12:08:28Z</time>
      </trkpt>
      <trkpt lat="42.81466" lon="1.74201">
        <ele>1763.538</ele>
        <time>2021-03-23T12:08:30Z</time>
      </trkpt>
      <trkpt lat="42.81466" lon="1.74201">
        <ele>1763.528</ele>
        <time>2021-03-23T12:08:32Z</time>
      </trkpt>
      <trkpt lat="42.81466" lon="1.74201">
        <ele>1763.519</ele>
        <time>2021-03-23T12:08:34Z</time>
      </trkpt>
      <trkpt lat="42.81466" lon="1.74201">
        <ele>1763.507</ele>
        <time>2021-03-23T12:08:36Z</time>
      </trkpt>
      <trkpt lat="42.81466" lon="1.74201">
        <ele>1763.498</ele>
        <time>2021-03-23T12:08:38Z</time>
      </trkpt>
      <trkpt lat="42.81466" lon="1.74201">
        <ele>1763.499</ele>
        <time>2021-03-23T12:08:40Z</time>
      </trkpt>
      <trkpt lat="42.81466" lon="1.74201">
        <ele>1763.493</ele>
        <time>2021-03-23T12:08:42Z</time>
      </trkpt>
      <trkpt lat="42.81466" lon="1.74201">
        <ele>1763.487</ele>
        <time>2021-03-23T12:08:44Z</time>
      </trkpt>
      <trkpt lat="42.81466" lon="1.74201">
        <ele>1763.452</ele>
        <time>2021-03-23T12:08:46Z</time>
      </trkpt>
      <trkpt lat="42.81466" lon="1.74201">
        <ele>1763.45</ele>
        <time>2021-03-23T12:08:48Z</time>
      </trkpt>
      <trkpt lat="42.81466" lon="1.74201">
        <ele>1763.44</ele>
        <time>2021-03-23T12:08:50Z</time>
      </trkpt>
      <trkpt lat="42.81466" lon="1.74201">
        <ele>1763.439</ele>
        <time>2021-03-23T12:08:52Z</time>
      </trkpt>
      <trkpt lat="42.81466" lon="1.74201">
        <ele>1763.434</ele>
        <time>2021-03-23T12:08:54Z</time>
      </trkpt>
      <trkpt lat="42.81466" lon="1.74201">
        <ele>1763.431</ele>
        <time>2021-03-23T12:08:56Z</time>
      </trkpt>
      <trkpt lat="42.81466" lon="1.74201">
        <ele>1763.436</ele>
        <time>2021-03-23T12:08:58Z</time>
      </trkpt>
      <trkpt lat="42.81466" lon="1.74201">
        <ele>1763.431</ele>
        <time>2021-03-23T12:09:00Z</time>
      </trkpt>
      <trkpt lat="42.81466" lon="1.74201">
        <ele>1763.433</ele>
        <time>2021-03-23T12:09:02Z</time>
      </trkpt>
      <trkpt lat="42.81466" lon="1.74201">
        <ele>1763.428</ele>
        <time>2021-03-23T12:09:04Z</time>
      </trkpt>
      <trkpt lat="42.81466" lon="1.74201">
        <ele>1763.425</ele>
        <time>2021-03-23T12:09:06Z</time>
      </trkpt>
      <trkpt lat="42.81466" lon="1.74201">
        <ele>1763.419</ele>
        <time>2021-03-23T12:09:08Z</time>
      </trkpt>
      <trkpt lat="42.81466" lon="1.74201">
        <ele>1763.426</ele>
        <time>2021-03-23T12:09:10Z</time>
      </trkpt>
      <trkpt lat="42.81466" lon="1.74201">
        <ele>1763.418</ele>
        <time>2021-03-23T12:09:12Z</time>
      </trkpt>
      <trkpt lat="42.81466" lon="1.74201">
        <ele>1763.403</ele>
        <time>2021-03-23T12:09:14Z</time>
      </trkpt>
      <trkpt lat="42.81466" lon="1.74201">
        <ele>1763.395</ele>
        <time>2021-03-23T12:09:15Z</time>
      </trkpt>
      <trkpt lat="42.81466" lon="1.74201">
        <ele>1763.386</ele>
        <time>2021-03-23T12:09:22Z</time>
      </trkpt>
      <trkpt lat="42.81466" lon="1.74201">
        <ele>1763.383</ele>
        <time>2021-03-23T12:09:24Z</time>
      </trkpt>
      <trkpt lat="42.81466" lon="1.74201">
        <ele>1763.374</ele>
        <time>2021-03-23T12:09:26Z</time>
      </trkpt>
      <trkpt lat="42.81466" lon="1.74201">
        <ele>1763.363</ele>
        <time>2021-03-23T12:09:28Z</time>
      </trkpt>
      <trkpt lat="42.81466" lon="1.74201">
        <ele>1763.349</ele>
        <time>2021-03-23T12:09:30Z</time>
      </trkpt>
      <trkpt lat="42.81466" lon="1.74201">
        <ele>1763.336</ele>
        <time>2021-03-23T12:09:32Z</time>
      </trkpt>
      <trkpt lat="42.81466" lon="1.74201">
        <ele>1763.326</ele>
        <time>2021-03-23T12:09:34Z</time>
      </trkpt>
      <trkpt lat="42.81466" lon="1.74201">
        <ele>1763.322</ele>
        <time>2021-03-23T12:09:36Z</time>
      </trkpt>
      <trkpt lat="42.81466" lon="1.74201">
        <ele>1763.324</ele>
        <time>2021-03-23T12:09:38Z</time>
      </trkpt>
      <trkpt lat="42.81466" lon="1.74201">
        <ele>1763.319</ele>
        <time>2021-03-23T12:09:40Z</time>
      </trkpt>
      <trkpt lat="42.81466" lon="1.74201">
        <ele>1763.31</ele>
        <time>2021-03-23T12:09:42Z</time>
      </trkpt>
      <trkpt lat="42.81466" lon="1.74201">
        <ele>1763.311</ele>
        <time>2021-03-23T12:09:44Z</time>
      </trkpt>
      <trkpt lat="42.81466" lon="1.74201">
        <ele>1763.321</ele>
        <time>2021-03-23T12:09:46Z</time>
      </trkpt>
      <trkpt lat="42.81466" lon="1.74201">
        <ele>1763.319</ele>
        <time>2021-03-23T12:09:48Z</time>
      </trkpt>
      <trkpt lat="42.81466" lon="1.74201">
        <ele>1763.315</ele>
        <time>2021-03-23T12:09:55Z</time>
      </trkpt>
      <trkpt lat="42.81466" lon="1.74201">
        <ele>1763.307</ele>
        <time>2021-03-23T12:09:57Z</time>
      </trkpt>
      <trkpt lat="42.81466" lon="1.74201">
        <ele>1763.299</ele>
        <time>2021-03-23T12:09:59Z</time>
      </trkpt>
      <trkpt lat="42.81466" lon="1.74201">
        <ele>1763.288</ele>
        <time>2021-03-23T12:10:01Z</time>
      </trkpt>
      <trkpt lat="42.81466" lon="1.74201">
        <ele>1763.278</ele>
        <time>2021-03-23T12:10:03Z</time>
      </trkpt>
      <trkpt lat="42.81466" lon="1.74201">
        <ele>1763.272</ele>
        <time>2021-03-23T12:10:05Z</time>
      </trkpt>
      <trkpt lat="42.81466" lon="1.74201">
        <ele>1763.275</ele>
        <time>2021-03-23T12:10:07Z</time>
      </trkpt>
      <trkpt lat="42.81466" lon="1.74201">
        <ele>1763.269</ele>
        <time>2021-03-23T12:10:09Z</time>
      </trkpt>
      <trkpt lat="42.81466" lon="1.74201">
        <ele>1763.267</ele>
        <time>2021-03-23T12:10:11Z</time>
      </trkpt>
      <trkpt lat="42.81466" lon="1.74201">
        <ele>1763.249</ele>
        <time>2021-03-23T12:10:13Z</time>
      </trkpt>
      <trkpt lat="42.81466" lon="1.74201">
        <ele>1763.246</ele>
        <time>2021-03-23T12:10:15Z</time>
      </trkpt>
      <trkpt lat="42.81466" lon="1.74201">
        <ele>1763.252</ele>
        <time>2021-03-23T12:10:17Z</time>
      </trkpt>
      <trkpt lat="42.81466" lon="1.74201">
        <ele>1763.251</ele>
        <time>2021-03-23T12:10:19Z</time>
      </trkpt>
      <trkpt lat="42.81466" lon="1.74201">
        <ele>1763.248</ele>
        <time>2021-03-23T12:10:21Z</time>
      </trkpt>
      <trkpt lat="42.81466" lon="1.74201">
        <ele>1763.243</ele>
        <time>2021-03-23T12:10:22Z</time>
      </trkpt>
      <trkpt lat="42.81466" lon="1.74201">
        <ele>1763.218</ele>
        <time>2021-03-23T12:10:29Z</time>
      </trkpt>
      <trkpt lat="42.81466" lon="1.74201">
        <ele>1763.216</ele>
        <time>2021-03-23T12:10:31Z</time>
      </trkpt>
      <trkpt lat="42.81466" lon="1.74201">
        <ele>1763.216</ele>
        <time>2021-03-23T12:10:33Z</time>
      </trkpt>
      <trkpt lat="42.81466" lon="1.74201">
        <ele>1763.216</ele>
        <time>2021-03-23T12:10:35Z</time>
      </trkpt>
      <trkpt lat="42.81466" lon="1.74201">
        <ele>1763.205</ele>
        <time>2021-03-23T12:10:37Z</time>
      </trkpt>
      <trkpt lat="42.81466" lon="1.74201">
        <ele>1763.203</ele>
        <time>2021-03-23T12:10:39Z</time>
      </trkpt>
      <trkpt lat="42.81466" lon="1.74201">
        <ele>1763.2</ele>
        <time>2021-03-23T12:10:41Z</time>
      </trkpt>
      <trkpt lat="42.81466" lon="1.74201">
        <ele>1763.196</ele>
        <time>2021-03-23T12:10:43Z</time>
      </trkpt>
      <trkpt lat="42.81466" lon="1.74201">
        <ele>1763.206</ele>
        <time>2021-03-23T12:10:45Z</time>
      </trkpt>
      <trkpt lat="42.81466" lon="1.74201">
        <ele>1763.202</ele>
        <time>2021-03-23T12:10:47Z</time>
      </trkpt>
      <trkpt lat="42.81466" lon="1.74201">
        <ele>1763.195</ele>
        <time>2021-03-23T12:10:49Z</time>
      </trkpt>
      <trkpt lat="42.81466" lon="1.74201">
        <ele>1763.176</ele>
        <time>2021-03-23T12:10:51Z</time>
      </trkpt>
      <trkpt lat="42.81466" lon="1.74201">
        <ele>1763.174</ele>
        <time>2021-03-23T12:10:53Z</time>
      </trkpt>
      <trkpt lat="42.81466" lon="1.74201">
        <ele>1763.175</ele>
        <time>2021-03-23T12:10:54Z</time>
      </trkpt>
      <trkpt lat="42.81466" lon="1.74201">
        <ele>1763.171</ele>
        <time>2021-03-23T12:11:01Z</time>
      </trkpt>
      <trkpt lat="42.81466" lon="1.74201">
        <ele>1763.174</ele>
        <time>2021-03-23T12:11:03Z</time>
      </trkpt>
      <trkpt lat="42.81466" lon="1.74201">
        <ele>1763.177</ele>
        <time>2021-03-23T12:11:05Z</time>
      </trkpt>
      <trkpt lat="42.81466" lon="1.74201">
        <ele>1763.175</ele>
        <time>2021-03-23T12:11:07Z</time>
      </trkpt>
      <trkpt lat="42.81466" lon="1.74201">
        <ele>1763.176</ele>
        <time>2021-03-23T12:11:09Z</time>
      </trkpt>
      <trkpt lat="42.81466" lon="1.74201">
        <ele>1763.177</ele>
        <time>2021-03-23T12:11:11Z</time>
      </trkpt>
      <trkpt lat="42.81466" lon="1.74201">
        <ele>1763.177</ele>
        <time>2021-03-23T12:11:13Z</time>
      </trkpt>
      <trkpt lat="42.81466" lon="1.74201">
        <ele>1763.174</ele>
        <time>2021-03-23T12:11:15Z</time>
      </trkpt>
      <trkpt lat="42.81466" lon="1.74201">
        <ele>1763.174</ele>
        <time>2021-03-23T12:11:17Z</time>
      </trkpt>
      <trkpt lat="42.81466" lon="1.74201">
        <ele>1763.179</ele>
        <time>2021-03-23T12:11:19Z</time>
      </trkpt>
      <trkpt lat="42.81466" lon="1.74201">
        <ele>1763.18</ele>
        <time>2021-03-23T12:11:21Z</time>
      </trkpt>
      <trkpt lat="42.81466" lon="1.74201">
        <ele>1763.178</ele>
        <time>2021-03-23T12:11:23Z</time>
      </trkpt>
      <trkpt lat="42.81466" lon="1.74201">
        <ele>1763.174</ele>
        <time>2021-03-23T12:11:25Z</time>
      </trkpt>
      <trkpt lat="42.81466" lon="1.74201">
        <ele>1763.173</ele>
        <time>2021-03-23T12:11:27Z</time>
      </trkpt>
      <trkpt lat="42.81466" lon="1.74201">
        <ele>1763.176</ele>
        <time>2021-03-23T12:11:29Z</time>
      </trkpt>
      <trkpt lat="42.81466" lon="1.74201">
        <ele>1763.177</ele>
        <time>2021-03-23T12:11:31Z</time>
      </trkpt>
      <trkpt lat="42.81466" lon="1.74201">
        <ele>1763.182</ele>
        <time>2021-03-23T12:11:33Z</time>
      </trkpt>
      <trkpt lat="42.81466" lon="1.74201">
        <ele>1763.177</ele>
        <time>2021-03-23T12:11:35Z</time>
      </trkpt>
      <trkpt lat="42.81466" lon="1.74201">
        <ele>1763.165</ele>
        <time>2021-03-23T12:11:37Z</time>
      </trkpt>
      <trkpt lat="42.81466" lon="1.74201">
        <ele>1763.15</ele>
        <time>2021-03-23T12:11:39Z</time>
      </trkpt>
      <trkpt lat="42.81466" lon="1.74201">
        <ele>1763.145</ele>
        <time>2021-03-23T12:11:41Z</time>
      </trkpt>
      <trkpt lat="42.81466" lon="1.74201">
        <ele>1763.139</ele>
        <time>2021-03-23T12:11:43Z</time>
      </trkpt>
      <trkpt lat="42.81466" lon="1.74201">
        <ele>1763.14</ele>
        <time>2021-03-23T12:11:45Z</time>
      </trkpt>
      <trkpt lat="42.81466" lon="1.74201">
        <ele>1763.134</ele>
        <time>2021-03-23T12:11:47Z</time>
      </trkpt>
      <trkpt lat="42.81466" lon="1.74201">
        <ele>1763.134</ele>
        <time>2021-03-23T12:11:49Z</time>
      </trkpt>
      <trkpt lat="42.81466" lon="1.74201">
        <ele>1763.213</ele>
        <time>2021-03-23T12:11:51Z</time>
      </trkpt>
      <trkpt lat="42.81466" lon="1.74201">
        <ele>1763.324</ele>
        <time>2021-03-23T12:11:53Z</time>
      </trkpt>
      <trkpt lat="42.81466" lon="1.74201">
        <ele>1763.264</ele>
        <time>2021-03-23T12:11:55Z</time>
      </trkpt>
      <trkpt lat="42.81466" lon="1.74201">
        <ele>1763.219</ele>
        <time>2021-03-23T12:11:57Z</time>
      </trkpt>
      <trkpt lat="42.81466" lon="1.74201">
        <ele>1763.162</ele>
        <time>2021-03-23T12:11:59Z</time>
      </trkpt>
      <trkpt lat="42.81466" lon="1.74202">
        <ele>1763.459</ele>
        <time>2021-03-23T12:12:01Z</time>
      </trkpt>
      <trkpt lat="42.81466" lon="1.74202">
        <ele>1764.043</ele>
        <time>2021-03-23T12:12:03Z</time>
      </trkpt>
      <trkpt lat="42.81466" lon="1.74202">
        <ele>1764.275</ele>
        <time>2021-03-23T12:12:05Z</time>
      </trkpt>
      <trkpt lat="42.81466" lon="1.74202">
        <ele>1764.288</ele>
        <time>2021-03-23T12:12:07Z</time>
      </trkpt>
      <trkpt lat="42.81466" lon="1.74202">
        <ele>1764.295</ele>
        <time>2021-03-23T12:12:09Z</time>
      </trkpt>
      <trkpt lat="42.81466" lon="1.74202">
        <ele>1764.3</ele>
        <time>2021-03-23T12:12:11Z</time>
      </trkpt>
      <trkpt lat="42.81466" lon="1.74202">
        <ele>1764.301</ele>
        <time>2021-03-23T12:12:13Z</time>
      </trkpt>
      <trkpt lat="42.81466" lon="1.74202">
        <ele>1764.288</ele>
        <time>2021-03-23T12:12:15Z</time>
      </trkpt>
      <trkpt lat="42.81466" lon="1.74202">
        <ele>1764.288</ele>
        <time>2021-03-23T12:12:17Z</time>
      </trkpt>
      <trkpt lat="42.81466" lon="1.74202">
        <ele>1764.291</ele>
        <time>2021-03-23T12:12:19Z</time>
      </trkpt>
      <trkpt lat="42.81466" lon="1.74202">
        <ele>1764.273</ele>
        <time>2021-03-23T12:12:21Z</time>
      </trkpt>
      <trkpt lat="42.81466" lon="1.74202">
        <ele>1764.285</ele>
        <time>2021-03-23T12:12:23Z</time>
      </trkpt>
      <trkpt lat="42.81466" lon="1.74202">
        <ele>1764.293</ele>
        <time>2021-03-23T12:12:25Z</time>
      </trkpt>
      <trkpt lat="42.81466" lon="1.74202">
        <ele>1764.267</ele>
        <time>2021-03-23T12:12:27Z</time>
      </trkpt>
      <trkpt lat="42.81466" lon="1.74202">
        <ele>1764.25</ele>
        <time>2021-03-23T12:12:29Z</time>
      </trkpt>
      <trkpt lat="42.81466" lon="1.74202">
        <ele>1764.253</ele>
        <time>2021-03-23T12:12:31Z</time>
      </trkpt>
      <trkpt lat="42.81466" lon="1.74202">
        <ele>1764.243</ele>
        <time>2021-03-23T12:12:33Z</time>
      </trkpt>
      <trkpt lat="42.81466" lon="1.74202">
        <ele>1764.053</ele>
        <time>2021-03-23T12:12:35Z</time>
      </trkpt>
      <trkpt lat="42.81467" lon="1.74202">
        <ele>1763.795</ele>
        <time>2021-03-23T12:12:37Z</time>
      </trkpt>
      <trkpt lat="42.81467" lon="1.74202">
        <ele>1763.807</ele>
        <time>2021-03-23T12:12:39Z</time>
      </trkpt>
      <trkpt lat="42.81467" lon="1.74202">
        <ele>1763.807</ele>
        <time>2021-03-23T12:12:41Z</time>
      </trkpt>
      <trkpt lat="42.81467" lon="1.74202">
        <ele>1763.808</ele>
        <time>2021-03-23T12:12:43Z</time>
      </trkpt>
      <trkpt lat="42.81467" lon="1.74202">
        <ele>1763.815</ele>
        <time>2021-03-23T12:12:45Z</time>
      </trkpt>
      <trkpt lat="42.81467" lon="1.74202">
        <ele>1763.818</ele>
        <time>2021-03-23T12:12:47Z</time>
      </trkpt>
      <trkpt lat="42.81467" lon="1.74202">
        <ele>1763.813</ele>
        <time>2021-03-23T12:12:49Z</time>
      </trkpt>
      <trkpt lat="42.81467" lon="1.74202">
        <ele>1763.807</ele>
        <time>2021-03-23T12:12:51Z</time>
      </trkpt>
      <trkpt lat="42.81467" lon="1.74202">
        <ele>1763.8</ele>
        <time>2021-03-23T12:12:53Z</time>
      </trkpt>
      <trkpt lat="42.81467" lon="1.74202">
        <ele>1763.799</ele>
        <time>2021-03-23T12:12:56Z</time>
      </trkpt>
      <trkpt lat="42.81467" lon="1.74202">
        <ele>1763.791</ele>
        <time>2021-03-23T12:12:58Z</time>
      </trkpt>
      <trkpt lat="42.81467" lon="1.74202">
        <ele>1763.783</ele>
        <time>2021-03-23T12:13:00Z</time>
      </trkpt>
      <trkpt lat="42.81467" lon="1.74202">
        <ele>1763.775</ele>
        <time>2021-03-23T12:13:02Z</time>
      </trkpt>
      <trkpt lat="42.81467" lon="1.74202">
        <ele>1763.765</ele>
        <time>2021-03-23T12:13:04Z</time>
      </trkpt>
      <trkpt lat="42.81467" lon="1.74202">
        <ele>1763.766</ele>
        <time>2021-03-23T12:13:06Z</time>
      </trkpt>
      <trkpt lat="42.81467" lon="1.74202">
        <ele>1763.78</ele>
        <time>2021-03-23T12:13:08Z</time>
      </trkpt>
      <trkpt lat="42.81467" lon="1.74202">
        <ele>1763.786</ele>
        <time>2021-03-23T12:13:10Z</time>
      </trkpt>
      <trkpt lat="42.81467" lon="1.74202">
        <ele>1763.789</ele>
        <time>2021-03-23T12:13:12Z</time>
      </trkpt>
      <trkpt lat="42.81467" lon="1.74202">
        <ele>1763.788</ele>
        <time>2021-03-23T12:13:13Z</time>
      </trkpt>
      <trkpt lat="42.81467" lon="1.74202">
        <ele>1763.785</ele>
        <time>2021-03-23T12:13:16Z</time>
      </trkpt>
      <trkpt lat="42.81467" lon="1.74202">
        <ele>1763.775</ele>
        <time>2021-03-23T12:13:18Z</time>
      </trkpt>
      <trkpt lat="42.81467" lon="1.74202">
        <ele>1763.771</ele>
        <time>2021-03-23T12:13:20Z</time>
      </trkpt>
      <trkpt lat="42.81467" lon="1.74202">
        <ele>1763.777</ele>
        <time>2021-03-23T12:13:22Z</time>
      </trkpt>
      <trkpt lat="42.81467" lon="1.74202">
        <ele>1763.792</ele>
        <time>2021-03-23T12:13:24Z</time>
      </trkpt>
      <trkpt lat="42.81467" lon="1.74202">
        <ele>1763.808</ele>
        <time>2021-03-23T12:13:26Z</time>
      </trkpt>
      <trkpt lat="42.81467" lon="1.74202">
        <ele>1763.901</ele>
        <time>2021-03-23T12:13:28Z</time>
      </trkpt>
      <trkpt lat="42.81467" lon="1.74202">
        <ele>1765.265</ele>
        <time>2021-03-23T12:13:30Z</time>
      </trkpt>
      <trkpt lat="42.81467" lon="1.74202">
        <ele>1765.293</ele>
        <time>2021-03-23T12:13:32Z</time>
      </trkpt>
      <trkpt lat="42.81467" lon="1.74202">
        <ele>1765.259</ele>
        <time>2021-03-23T12:13:34Z</time>
      </trkpt>
      <trkpt lat="42.81467" lon="1.74202">
        <ele>1765.329</ele>
        <time>2021-03-23T12:13:36Z</time>
      </trkpt>
      <trkpt lat="42.81468" lon="1.74202">
        <ele>1765.275</ele>
        <time>2021-03-23T12:13:38Z</time>
      </trkpt>
      <trkpt lat="42.81468" lon="1.74202">
        <ele>1765.234</ele>
        <time>2021-03-23T12:13:40Z</time>
      </trkpt>
      <trkpt lat="42.81468" lon="1.74202">
        <ele>1765.182</ele>
        <time>2021-03-23T12:13:42Z</time>
      </trkpt>
      <trkpt lat="42.81468" lon="1.74202">
        <ele>1765.163</ele>
        <time>2021-03-23T12:13:44Z</time>
      </trkpt>
      <trkpt lat="42.81468" lon="1.74202">
        <ele>1765.142</ele>
        <time>2021-03-23T12:13:46Z</time>
      </trkpt>
      <trkpt lat="42.81468" lon="1.74202">
        <ele>1765.12</ele>
        <time>2021-03-23T12:13:48Z</time>
      </trkpt>
      <trkpt lat="42.81468" lon="1.74202">
        <ele>1765.109</ele>
        <time>2021-03-23T12:13:50Z</time>
      </trkpt>
      <trkpt lat="42.81468" lon="1.74202">
        <ele>1764.467</ele>
        <time>2021-03-23T12:13:52Z</time>
      </trkpt>
      <trkpt lat="42.81468" lon="1.74202">
        <ele>1764.513</ele>
        <time>2021-03-23T12:13:54Z</time>
      </trkpt>
      <trkpt lat="42.81468" lon="1.74202">
        <ele>1763.876</ele>
        <time>2021-03-23T12:13:56Z</time>
      </trkpt>
      <trkpt lat="42.81468" lon="1.74202">
        <ele>1763.82</ele>
        <time>2021-03-23T12:13:58Z</time>
      </trkpt>
      <trkpt lat="42.81468" lon="1.74202">
        <ele>1763.901</ele>
        <time>2021-03-23T12:14:00Z</time>
      </trkpt>
      <trkpt lat="42.81468" lon="1.74202">
        <ele>1763.3</ele>
        <time>2021-03-23T12:14:02Z</time>
      </trkpt>
      <trkpt lat="42.81468" lon="1.74203">
        <ele>1763.445</ele>
        <time>2021-03-23T12:14:04Z</time>
      </trkpt>
      <trkpt lat="42.8147" lon="1.74204">
        <ele>1765.252</ele>
        <time>2021-03-23T12:14:07Z</time>
      </trkpt>
      <trkpt lat="42.81471" lon="1.74204">
        <ele>1765.65</ele>
        <time>2021-03-23T12:14:09Z</time>
      </trkpt>
      <trkpt lat="42.81473" lon="1.74204">
        <ele>1765.81</ele>
        <time>2021-03-23T12:14:11Z</time>
      </trkpt>
      <trkpt lat="42.81473" lon="1.74203">
        <ele>1765.759</ele>
        <time>2021-03-23T12:14:13Z</time>
      </trkpt>
      <trkpt lat="42.81474" lon="1.74203">
        <ele>1765.558</ele>
        <time>2021-03-23T12:14:15Z</time>
      </trkpt>
      <trkpt lat="42.81474" lon="1.74203">
        <ele>1766.353</ele>
        <time>2021-03-23T12:14:17Z</time>
      </trkpt>
      <trkpt lat="42.81475" lon="1.74204">
        <ele>1766.14</ele>
        <time>2021-03-23T12:14:19Z</time>
      </trkpt>
      <trkpt lat="42.81475" lon="1.74205">
        <ele>1765.683</ele>
        <time>2021-03-23T12:14:21Z</time>
      </trkpt>
      <trkpt lat="42.81477" lon="1.74205">
        <ele>1765.657</ele>
        <time>2021-03-23T12:14:23Z</time>
      </trkpt>
      <trkpt lat="42.81477" lon="1.74206">
        <ele>1764.989</ele>
        <time>2021-03-23T12:14:25Z</time>
      </trkpt>
      <trkpt lat="42.81478" lon="1.74208">
        <ele>1764.115</ele>
        <time>2021-03-23T12:14:27Z</time>
      </trkpt>
      <trkpt lat="42.81478" lon="1.7421">
        <ele>1763.195</ele>
        <time>2021-03-23T12:14:29Z</time>
      </trkpt>
      <trkpt lat="42.81479" lon="1.74212">
        <ele>1762.281</ele>
        <time>2021-03-23T12:14:31Z</time>
      </trkpt>
      <trkpt lat="42.8148" lon="1.74213">
        <ele>1761.275</ele>
        <time>2021-03-23T12:14:33Z</time>
      </trkpt>
      <trkpt lat="42.8148" lon="1.74214">
        <ele>1759.779</ele>
        <time>2021-03-23T12:14:35Z</time>
      </trkpt>
      <trkpt lat="42.81481" lon="1.74216">
        <ele>1759.745</ele>
        <time>2021-03-23T12:14:37Z</time>
      </trkpt>
      <trkpt lat="42.81481" lon="1.74218">
        <ele>1759.217</ele>
        <time>2021-03-23T12:14:39Z</time>
      </trkpt>
      <trkpt lat="42.81482" lon="1.7422">
        <ele>1757.878</ele>
        <time>2021-03-23T12:14:41Z</time>
      </trkpt>
      <trkpt lat="42.81484" lon="1.74222">
        <ele>1757.453</ele>
        <time>2021-03-23T12:14:43Z</time>
      </trkpt>
      <trkpt lat="42.81485" lon="1.74224">
        <ele>1757.146</ele>
        <time>2021-03-23T12:14:45Z</time>
      </trkpt>
      <trkpt lat="42.81487" lon="1.74225">
        <ele>1756.812</ele>
        <time>2021-03-23T12:14:47Z</time>
      </trkpt>
      <trkpt lat="42.81488" lon="1.74227">
        <ele>1755.731</ele>
        <time>2021-03-23T12:14:49Z</time>
      </trkpt>
      <trkpt lat="42.81489" lon="1.74228">
        <ele>1755.143</ele>
        <time>2021-03-23T12:14:51Z</time>
      </trkpt>
      <trkpt lat="42.8149" lon="1.7423">
        <ele>1755.003</ele>
        <time>2021-03-23T12:14:53Z</time>
      </trkpt>
      <trkpt lat="42.8149" lon="1.74232">
        <ele>1754.276</ele>
        <time>2021-03-23T12:14:55Z</time>
      </trkpt>
      <trkpt lat="42.81491" lon="1.74234">
        <ele>1754.308</ele>
        <time>2021-03-23T12:14:57Z</time>
      </trkpt>
      <trkpt lat="42.81492" lon="1.74236">
        <ele>1753.282</ele>
        <time>2021-03-23T12:14:59Z</time>
      </trkpt>
      <trkpt lat="42.81492" lon="1.74238">
        <ele>1751.98</ele>
        <time>2021-03-23T12:15:01Z</time>
      </trkpt>
      <trkpt lat="42.81492" lon="1.74241">
        <ele>1751.41</ele>
        <time>2021-03-23T12:15:03Z</time>
      </trkpt>
      <trkpt lat="42.81492" lon="1.74243">
        <ele>1751.283</ele>
        <time>2021-03-23T12:15:05Z</time>
      </trkpt>
      <trkpt lat="42.81492" lon="1.74245">
        <ele>1750.63</ele>
        <time>2021-03-23T12:15:07Z</time>
      </trkpt>
      <trkpt lat="42.81492" lon="1.74247">
        <ele>1750.277</ele>
        <time>2021-03-23T12:15:09Z</time>
      </trkpt>
      <trkpt lat="42.81492" lon="1.7425">
        <ele>1750.233</ele>
        <time>2021-03-23T12:15:11Z</time>
      </trkpt>
      <trkpt lat="42.81492" lon="1.74252">
        <ele>1749.257</ele>
        <time>2021-03-23T12:15:13Z</time>
      </trkpt>
      <trkpt lat="42.81492" lon="1.74254">
        <ele>1748.386</ele>
        <time>2021-03-23T12:15:15Z</time>
      </trkpt>
      <trkpt lat="42.81493" lon="1.74256">
        <ele>1748.498</ele>
        <time>2021-03-23T12:15:17Z</time>
      </trkpt>
      <trkpt lat="42.81494" lon="1.74258">
        <ele>1747.59</ele>
        <time>2021-03-23T12:15:19Z</time>
      </trkpt>
      <trkpt lat="42.81494" lon="1.74259">
        <ele>1746.536</ele>
        <time>2021-03-23T12:15:21Z</time>
      </trkpt>
      <trkpt lat="42.81494" lon="1.74261">
        <ele>1746.312</ele>
        <time>2021-03-23T12:15:23Z</time>
      </trkpt>
      <trkpt lat="42.81494" lon="1.74263">
        <ele>1745.249</ele>
        <time>2021-03-23T12:15:25Z</time>
      </trkpt>
      <trkpt lat="42.81495" lon="1.74266">
        <ele>1745.124</ele>
        <time>2021-03-23T12:15:27Z</time>
      </trkpt>
      <trkpt lat="42.81496" lon="1.74268">
        <ele>1743.641</ele>
        <time>2021-03-23T12:15:29Z</time>
      </trkpt>
      <trkpt lat="42.81497" lon="1.74271">
        <ele>1743.724</ele>
        <time>2021-03-23T12:15:31Z</time>
      </trkpt>
      <trkpt lat="42.81497" lon="1.74273">
        <ele>1742.786</ele>
        <time>2021-03-23T12:15:33Z</time>
      </trkpt>
      <trkpt lat="42.81498" lon="1.74276">
        <ele>1742.13</ele>
        <time>2021-03-23T12:15:35Z</time>
      </trkpt>
      <trkpt lat="42.81498" lon="1.74278">
        <ele>1741.081</ele>
        <time>2021-03-23T12:15:37Z</time>
      </trkpt>
      <trkpt lat="42.81499" lon="1.74281">
        <ele>1740.696</ele>
        <time>2021-03-23T12:15:39Z</time>
      </trkpt>
      <trkpt lat="42.81499" lon="1.74283">
        <ele>1739.229</ele>
        <time>2021-03-23T12:15:41Z</time>
      </trkpt>
      <trkpt lat="42.815" lon="1.74286">
        <ele>1740.114</ele>
        <time>2021-03-23T12:15:43Z</time>
      </trkpt>
      <trkpt lat="42.815" lon="1.74289">
        <ele>1739.148</ele>
        <time>2021-03-23T12:15:45Z</time>
      </trkpt>
      <trkpt lat="42.81501" lon="1.74292">
        <ele>1739.327</ele>
        <time>2021-03-23T12:15:47Z</time>
      </trkpt>
      <trkpt lat="42.81501" lon="1.74295">
        <ele>1739.965</ele>
        <time>2021-03-23T12:15:49Z</time>
      </trkpt>
      <trkpt lat="42.81502" lon="1.74299">
        <ele>1739.379</ele>
        <time>2021-03-23T12:15:51Z</time>
      </trkpt>
      <trkpt lat="42.81503" lon="1.74302">
        <ele>1739.457</ele>
        <time>2021-03-23T12:15:53Z</time>
      </trkpt>
      <trkpt lat="42.81503" lon="1.74304">
        <ele>1739.117</ele>
        <time>2021-03-23T12:15:55Z</time>
      </trkpt>
      <trkpt lat="42.81504" lon="1.74308">
        <ele>1738.772</ele>
        <time>2021-03-23T12:15:57Z</time>
      </trkpt>
      <trkpt lat="42.81505" lon="1.7431">
        <ele>1738.914</ele>
        <time>2021-03-23T12:15:59Z</time>
      </trkpt>
      <trkpt lat="42.81506" lon="1.74313">
        <ele>1738.289</ele>
        <time>2021-03-23T12:16:01Z</time>
      </trkpt>
      <trkpt lat="42.81506" lon="1.74316">
        <ele>1738.029</ele>
        <time>2021-03-23T12:16:03Z</time>
      </trkpt>
      <trkpt lat="42.81508" lon="1.74319">
        <ele>1738.244</ele>
        <time>2021-03-23T12:16:05Z</time>
      </trkpt>
      <trkpt lat="42.81509" lon="1.74323">
        <ele>1736.993</ele>
        <time>2021-03-23T12:16:07Z</time>
      </trkpt>
      <trkpt lat="42.8151" lon="1.74326">
        <ele>1737.048</ele>
        <time>2021-03-23T12:16:09Z</time>
      </trkpt>
      <trkpt lat="42.81511" lon="1.7433">
        <ele>1737.316</ele>
        <time>2021-03-23T12:16:11Z</time>
      </trkpt>
      <trkpt lat="42.81512" lon="1.74335">
        <ele>1735.471</ele>
        <time>2021-03-23T12:16:13Z</time>
      </trkpt>
      <trkpt lat="42.81512" lon="1.74343">
        <ele>1735.154</ele>
        <time>2021-03-23T12:16:16Z</time>
      </trkpt>
      <trkpt lat="42.81512" lon="1.74347">
        <ele>1735.68</ele>
        <time>2021-03-23T12:16:18Z</time>
      </trkpt>
      <trkpt lat="42.81512" lon="1.74352">
        <ele>1734.258</ele>
        <time>2021-03-23T12:16:20Z</time>
      </trkpt>
      <trkpt lat="42.81511" lon="1.74357">
        <ele>1733.874</ele>
        <time>2021-03-23T12:16:22Z</time>
      </trkpt>
      <trkpt lat="42.81511" lon="1.74362">
        <ele>1733.771</ele>
        <time>2021-03-23T12:16:24Z</time>
      </trkpt>
      <trkpt lat="42.81511" lon="1.74366">
        <ele>1733.56</ele>
        <time>2021-03-23T12:16:26Z</time>
      </trkpt>
      <trkpt lat="42.8151" lon="1.7437">
        <ele>1733.086</ele>
        <time>2021-03-23T12:16:28Z</time>
      </trkpt>
      <trkpt lat="42.81511" lon="1.74372">
        <ele>1733.689</ele>
        <time>2021-03-23T12:16:30Z</time>
      </trkpt>
      <trkpt lat="42.81511" lon="1.74375">
        <ele>1733.765</ele>
        <time>2021-03-23T12:16:32Z</time>
      </trkpt>
      <trkpt lat="42.81512" lon="1.74377">
        <ele>1734.163</ele>
        <time>2021-03-23T12:16:34Z</time>
      </trkpt>
      <trkpt lat="42.81514" lon="1.74379">
        <ele>1734.744</ele>
        <time>2021-03-23T12:16:36Z</time>
      </trkpt>
      <trkpt lat="42.81514" lon="1.74382">
        <ele>1734.978</ele>
        <time>2021-03-23T12:16:38Z</time>
      </trkpt>
      <trkpt lat="42.81513" lon="1.74385">
        <ele>1732.499</ele>
        <time>2021-03-23T12:16:40Z</time>
      </trkpt>
      <trkpt lat="42.81512" lon="1.74385">
        <ele>1732.102</ele>
        <time>2021-03-23T12:16:42Z</time>
      </trkpt>
      <trkpt lat="42.81511" lon="1.74388">
        <ele>1732.98</ele>
        <time>2021-03-23T12:16:44Z</time>
      </trkpt>
      <trkpt lat="42.81511" lon="1.7439">
        <ele>1733.521</ele>
        <time>2021-03-23T12:16:46Z</time>
      </trkpt>
      <trkpt lat="42.8151" lon="1.74391">
        <ele>1732.964</ele>
        <time>2021-03-23T12:16:48Z</time>
      </trkpt>
      <trkpt lat="42.8151" lon="1.7439">
        <ele>1733.288</ele>
        <time>2021-03-23T12:16:50Z</time>
      </trkpt>
      <trkpt lat="42.81511" lon="1.74389">
        <ele>1733.68</ele>
        <time>2021-03-23T12:16:52Z</time>
      </trkpt>
      <trkpt lat="42.81513" lon="1.74387">
        <ele>1734.728</ele>
        <time>2021-03-23T12:16:54Z</time>
      </trkpt>
      <trkpt lat="42.81513" lon="1.74387">
        <ele>1734.857</ele>
        <time>2021-03-23T12:16:56Z</time>
      </trkpt>
      <trkpt lat="42.81513" lon="1.74386">
        <ele>1735.486</ele>
        <time>2021-03-23T12:16:58Z</time>
      </trkpt>
      <trkpt lat="42.81513" lon="1.74386">
        <ele>1735.493</ele>
        <time>2021-03-23T12:17:00Z</time>
      </trkpt>
      <trkpt lat="42.81513" lon="1.74385">
        <ele>1735.704</ele>
        <time>2021-03-23T12:17:02Z</time>
      </trkpt>
      <trkpt lat="42.81513" lon="1.74385">
        <ele>1735.726</ele>
        <time>2021-03-23T12:17:04Z</time>
      </trkpt>
      <trkpt lat="42.81512" lon="1.74384">
        <ele>1736.225</ele>
        <time>2021-03-23T12:17:06Z</time>
      </trkpt>
      <trkpt lat="42.81513" lon="1.74384">
        <ele>1736.253</ele>
        <time>2021-03-23T12:17:08Z</time>
      </trkpt>
      <trkpt lat="42.81513" lon="1.74384">
        <ele>1736.554</ele>
        <time>2021-03-23T12:17:10Z</time>
      </trkpt>
      <trkpt lat="42.81513" lon="1.74384">
        <ele>1735.686</ele>
        <time>2021-03-23T12:17:12Z</time>
      </trkpt>
      <trkpt lat="42.81514" lon="1.74385">
        <ele>1735.35</ele>
        <time>2021-03-23T12:17:14Z</time>
      </trkpt>
      <trkpt lat="42.81514" lon="1.74386">
        <ele>1735.346</ele>
        <time>2021-03-23T12:17:16Z</time>
      </trkpt>
      <trkpt lat="42.81514" lon="1.74386">
        <ele>1735.341</ele>
        <time>2021-03-23T12:17:18Z</time>
      </trkpt>
      <trkpt lat="42.81514" lon="1.74386">
        <ele>1735.345</ele>
        <time>2021-03-23T12:17:20Z</time>
      </trkpt>
      <trkpt lat="42.81514" lon="1.74386">
        <ele>1735.35</ele>
        <time>2021-03-23T12:17:22Z</time>
      </trkpt>
      <trkpt lat="42.81514" lon="1.74386">
        <ele>1735.348</ele>
        <time>2021-03-23T12:17:24Z</time>
      </trkpt>
      <trkpt lat="42.81514" lon="1.74386">
        <ele>1735.36</ele>
        <time>2021-03-23T12:17:26Z</time>
      </trkpt>
      <trkpt lat="42.81514" lon="1.74386">
        <ele>1735.357</ele>
        <time>2021-03-23T12:17:28Z</time>
      </trkpt>
      <trkpt lat="42.81514" lon="1.74386">
        <ele>1735.354</ele>
        <time>2021-03-23T12:17:30Z</time>
      </trkpt>
      <trkpt lat="42.81514" lon="1.74386">
        <ele>1735.595</ele>
        <time>2021-03-23T12:17:32Z</time>
      </trkpt>
      <trkpt lat="42.81514" lon="1.74386">
        <ele>1735.588</ele>
        <time>2021-03-23T12:17:34Z</time>
      </trkpt>
      <trkpt lat="42.81514" lon="1.74386">
        <ele>1735.832</ele>
        <time>2021-03-23T12:17:36Z</time>
      </trkpt>
      <trkpt lat="42.81514" lon="1.74386">
        <ele>1735.826</ele>
        <time>2021-03-23T12:17:38Z</time>
      </trkpt>
      <trkpt lat="42.81514" lon="1.74386">
        <ele>1735.253</ele>
        <time>2021-03-23T12:17:40Z</time>
      </trkpt>
      <trkpt lat="42.81514" lon="1.74386">
        <ele>1735.509</ele>
        <time>2021-03-23T12:17:42Z</time>
      </trkpt>
      <trkpt lat="42.81514" lon="1.74386">
        <ele>1735.934</ele>
        <time>2021-03-23T12:17:44Z</time>
      </trkpt>
      <trkpt lat="42.81514" lon="1.74386">
        <ele>1735.925</ele>
        <time>2021-03-23T12:17:46Z</time>
      </trkpt>
      <trkpt lat="42.81513" lon="1.74387">
        <ele>1735.908</ele>
        <time>2021-03-23T12:17:48Z</time>
      </trkpt>
      <trkpt lat="42.81513" lon="1.74387">
        <ele>1736.165</ele>
        <time>2021-03-23T12:17:50Z</time>
      </trkpt>
      <trkpt lat="42.81513" lon="1.74387">
        <ele>1736.571</ele>
        <time>2021-03-23T12:17:52Z</time>
      </trkpt>
      <trkpt lat="42.81513" lon="1.74387">
        <ele>1736.218</ele>
        <time>2021-03-23T12:17:54Z</time>
      </trkpt>
      <trkpt lat="42.81512" lon="1.74387">
        <ele>1736.19</ele>
        <time>2021-03-23T12:17:56Z</time>
      </trkpt>
      <trkpt lat="42.81512" lon="1.74387">
        <ele>1736.194</ele>
        <time>2021-03-23T12:17:58Z</time>
      </trkpt>
      <trkpt lat="42.81512" lon="1.74386">
        <ele>1736.225</ele>
        <time>2021-03-23T12:18:00Z</time>
      </trkpt>
      <trkpt lat="42.81512" lon="1.74386">
        <ele>1736.11</ele>
        <time>2021-03-23T12:18:02Z</time>
      </trkpt>
      <trkpt lat="42.81512" lon="1.74386">
        <ele>1736.991</ele>
        <time>2021-03-23T12:18:04Z</time>
      </trkpt>
      <trkpt lat="42.81513" lon="1.74385">
        <ele>1736.937</ele>
        <time>2021-03-23T12:18:06Z</time>
      </trkpt>
      <trkpt lat="42.81513" lon="1.74385">
        <ele>1737.472</ele>
        <time>2021-03-23T12:18:08Z</time>
      </trkpt>
      <trkpt lat="42.81513" lon="1.74385">
        <ele>1737.464</ele>
        <time>2021-03-23T12:18:10Z</time>
      </trkpt>
      <trkpt lat="42.81513" lon="1.74385">
        <ele>1737.459</ele>
        <time>2021-03-23T12:18:12Z</time>
      </trkpt>
      <trkpt lat="42.81513" lon="1.74385">
        <ele>1737.464</ele>
        <time>2021-03-23T12:18:14Z</time>
      </trkpt>
      <trkpt lat="42.81513" lon="1.74385">
        <ele>1737.461</ele>
        <time>2021-03-23T12:18:16Z</time>
      </trkpt>
      <trkpt lat="42.81513" lon="1.74385">
        <ele>1737.458</ele>
        <time>2021-03-23T12:18:18Z</time>
      </trkpt>
      <trkpt lat="42.81513" lon="1.74385">
        <ele>1737.443</ele>
        <time>2021-03-23T12:18:20Z</time>
      </trkpt>
      <trkpt lat="42.81513" lon="1.74385">
        <ele>1737.451</ele>
        <time>2021-03-23T12:18:22Z</time>
      </trkpt>
      <trkpt lat="42.81513" lon="1.74385">
        <ele>1737.45</ele>
        <time>2021-03-23T12:18:24Z</time>
      </trkpt>
      <trkpt lat="42.81513" lon="1.74385">
        <ele>1737.773</ele>
        <time>2021-03-23T12:18:26Z</time>
      </trkpt>
      <trkpt lat="42.81513" lon="1.74385">
        <ele>1737.779</ele>
        <time>2021-03-23T12:18:28Z</time>
      </trkpt>
      <trkpt lat="42.81513" lon="1.74385">
        <ele>1737.794</ele>
        <time>2021-03-23T12:18:30Z</time>
      </trkpt>
      <trkpt lat="42.81513" lon="1.74385">
        <ele>1737.798</ele>
        <time>2021-03-23T12:18:32Z</time>
      </trkpt>
      <trkpt lat="42.81513" lon="1.74385">
        <ele>1737.802</ele>
        <time>2021-03-23T12:18:34Z</time>
      </trkpt>
      <trkpt lat="42.81513" lon="1.74385">
        <ele>1737.805</ele>
        <time>2021-03-23T12:18:36Z</time>
      </trkpt>
      <trkpt lat="42.81513" lon="1.74385">
        <ele>1737.808</ele>
        <time>2021-03-23T12:18:38Z</time>
      </trkpt>
      <trkpt lat="42.81513" lon="1.74385">
        <ele>1737.81</ele>
        <time>2021-03-23T12:18:40Z</time>
      </trkpt>
      <trkpt lat="42.81513" lon="1.74385">
        <ele>1737.793</ele>
        <time>2021-03-23T12:18:42Z</time>
      </trkpt>
      <trkpt lat="42.81513" lon="1.74385">
        <ele>1737.748</ele>
        <time>2021-03-23T12:18:44Z</time>
      </trkpt>
      <trkpt lat="42.81513" lon="1.74385">
        <ele>1737.749</ele>
        <time>2021-03-23T12:18:46Z</time>
      </trkpt>
      <trkpt lat="42.81513" lon="1.74385">
        <ele>1737.783</ele>
        <time>2021-03-23T12:18:48Z</time>
      </trkpt>
      <trkpt lat="42.81514" lon="1.74385">
        <ele>1738.304</ele>
        <time>2021-03-23T12:18:50Z</time>
      </trkpt>
      <trkpt lat="42.81514" lon="1.74384">
        <ele>1738.604</ele>
        <time>2021-03-23T12:18:52Z</time>
      </trkpt>
      <trkpt lat="42.81514" lon="1.74384">
        <ele>1738.6</ele>
        <time>2021-03-23T12:18:54Z</time>
      </trkpt>
      <trkpt lat="42.81514" lon="1.74383">
        <ele>1739.477</ele>
        <time>2021-03-23T12:18:56Z</time>
      </trkpt>
      <trkpt lat="42.81514" lon="1.74383">
        <ele>1739.476</ele>
        <time>2021-03-23T12:18:58Z</time>
      </trkpt>
      <trkpt lat="42.81513" lon="1.74384">
        <ele>1738.797</ele>
        <time>2021-03-23T12:19:00Z</time>
      </trkpt>
      <trkpt lat="42.81513" lon="1.74384">
        <ele>1739.107</ele>
        <time>2021-03-23T12:19:02Z</time>
      </trkpt>
      <trkpt lat="42.81513" lon="1.74384">
        <ele>1739.115</ele>
        <time>2021-03-23T12:19:04Z</time>
      </trkpt>
      <trkpt lat="42.81513" lon="1.74384">
        <ele>1739.106</ele>
        <time>2021-03-23T12:19:06Z</time>
      </trkpt>
      <trkpt lat="42.81513" lon="1.74384">
        <ele>1739.091</ele>
        <time>2021-03-23T12:19:08Z</time>
      </trkpt>
      <trkpt lat="42.81513" lon="1.74384">
        <ele>1739.093</ele>
        <time>2021-03-23T12:19:10Z</time>
      </trkpt>
      <trkpt lat="42.81513" lon="1.74384">
        <ele>1739.113</ele>
        <time>2021-03-23T12:19:12Z</time>
      </trkpt>
      <trkpt lat="42.81513" lon="1.74384">
        <ele>1739.119</ele>
        <time>2021-03-23T12:19:14Z</time>
      </trkpt>
      <trkpt lat="42.81513" lon="1.74384">
        <ele>1739.128</ele>
        <time>2021-03-23T12:19:16Z</time>
      </trkpt>
      <trkpt lat="42.81513" lon="1.74384">
        <ele>1739.101</ele>
        <time>2021-03-23T12:19:18Z</time>
      </trkpt>
      <trkpt lat="42.81513" lon="1.74384">
        <ele>1739.086</ele>
        <time>2021-03-23T12:19:20Z</time>
      </trkpt>
      <trkpt lat="42.81514" lon="1.74383">
        <ele>1739.286</ele>
        <time>2021-03-23T12:19:22Z</time>
      </trkpt>
      <trkpt lat="42.81515" lon="1.74379">
        <ele>1739.927</ele>
        <time>2021-03-23T12:19:24Z</time>
      </trkpt>
      <trkpt lat="42.81516" lon="1.74378">
        <ele>1740.139</ele>
        <time>2021-03-23T12:19:26Z</time>
      </trkpt>
      <trkpt lat="42.81517" lon="1.74378">
        <ele>1740.169</ele>
        <time>2021-03-23T12:19:28Z</time>
      </trkpt>
      <trkpt lat="42.81517" lon="1.74379">
        <ele>1740.101</ele>
        <time>2021-03-23T12:19:30Z</time>
      </trkpt>
      <trkpt lat="42.81517" lon="1.7438">
        <ele>1739.115</ele>
        <time>2021-03-23T12:19:32Z</time>
      </trkpt>
      <trkpt lat="42.81517" lon="1.74381">
        <ele>1739.1</ele>
        <time>2021-03-23T12:19:34Z</time>
      </trkpt>
      <trkpt lat="42.81517" lon="1.74381">
        <ele>1739.102</ele>
        <time>2021-03-23T12:19:36Z</time>
      </trkpt>
      <trkpt lat="42.81517" lon="1.74381">
        <ele>1739.098</ele>
        <time>2021-03-23T12:19:38Z</time>
      </trkpt>
      <trkpt lat="42.81517" lon="1.74381">
        <ele>1739.097</ele>
        <time>2021-03-23T12:19:40Z</time>
      </trkpt>
      <trkpt lat="42.81517" lon="1.74381">
        <ele>1739.095</ele>
        <time>2021-03-23T12:19:42Z</time>
      </trkpt>
      <trkpt lat="42.81517" lon="1.74381">
        <ele>1739.107</ele>
        <time>2021-03-23T12:19:44Z</time>
      </trkpt>
      <trkpt lat="42.81517" lon="1.74381">
        <ele>1739.107</ele>
        <time>2021-03-23T12:19:46Z</time>
      </trkpt>
      <trkpt lat="42.81517" lon="1.74381">
        <ele>1739.089</ele>
        <time>2021-03-23T12:19:48Z</time>
      </trkpt>
      <trkpt lat="42.81517" lon="1.74381">
        <ele>1739.078</ele>
        <time>2021-03-23T12:19:50Z</time>
      </trkpt>
      <trkpt lat="42.81517" lon="1.74381">
        <ele>1739.076</ele>
        <time>2021-03-23T12:19:52Z</time>
      </trkpt>
      <trkpt lat="42.81517" lon="1.74381">
        <ele>1739.081</ele>
        <time>2021-03-23T12:19:54Z</time>
      </trkpt>
      <trkpt lat="42.81517" lon="1.74381">
        <ele>1739.085</ele>
        <time>2021-03-23T12:19:56Z</time>
      </trkpt>
      <trkpt lat="42.81517" lon="1.74381">
        <ele>1739.092</ele>
        <time>2021-03-23T12:19:58Z</time>
      </trkpt>
      <trkpt lat="42.81517" lon="1.74381">
        <ele>1739.084</ele>
        <time>2021-03-23T12:20:00Z</time>
      </trkpt>
      <trkpt lat="42.81517" lon="1.74381">
        <ele>1739.086</ele>
        <time>2021-03-23T12:20:02Z</time>
      </trkpt>
      <trkpt lat="42.81517" lon="1.74381">
        <ele>1739.082</ele>
        <time>2021-03-23T12:20:04Z</time>
      </trkpt>
      <trkpt lat="42.81517" lon="1.74381">
        <ele>1739.08</ele>
        <time>2021-03-23T12:20:06Z</time>
      </trkpt>
      <trkpt lat="42.81517" lon="1.74381">
        <ele>1739.088</ele>
        <time>2021-03-23T12:20:08Z</time>
      </trkpt>
      <trkpt lat="42.81516" lon="1.74381">
        <ele>1739.09</ele>
        <time>2021-03-23T12:20:10Z</time>
      </trkpt>
      <trkpt lat="42.81516" lon="1.74381">
        <ele>1739.086</ele>
        <time>2021-03-23T12:20:12Z</time>
      </trkpt>
      <trkpt lat="42.81516" lon="1.74381">
        <ele>1739.09</ele>
        <time>2021-03-23T12:20:14Z</time>
      </trkpt>
      <trkpt lat="42.81516" lon="1.74381">
        <ele>1739.095</ele>
        <time>2021-03-23T12:20:16Z</time>
      </trkpt>
      <trkpt lat="42.81516" lon="1.74381">
        <ele>1739.092</ele>
        <time>2021-03-23T12:20:18Z</time>
      </trkpt>
      <trkpt lat="42.81516" lon="1.74381">
        <ele>1739.101</ele>
        <time>2021-03-23T12:20:20Z</time>
      </trkpt>
      <trkpt lat="42.81516" lon="1.74381">
        <ele>1739.093</ele>
        <time>2021-03-23T12:20:22Z</time>
      </trkpt>
      <trkpt lat="42.81516" lon="1.74381">
        <ele>1739.095</ele>
        <time>2021-03-23T12:20:24Z</time>
      </trkpt>
      <trkpt lat="42.81516" lon="1.74381">
        <ele>1739.095</ele>
        <time>2021-03-23T12:20:26Z</time>
      </trkpt>
      <trkpt lat="42.81516" lon="1.74381">
        <ele>1739.091</ele>
        <time>2021-03-23T12:20:28Z</time>
      </trkpt>
      <trkpt lat="42.81516" lon="1.74381">
        <ele>1739.096</ele>
        <time>2021-03-23T12:20:30Z</time>
      </trkpt>
      <trkpt lat="42.81516" lon="1.74381">
        <ele>1739.106</ele>
        <time>2021-03-23T12:20:32Z</time>
      </trkpt>
      <trkpt lat="42.81516" lon="1.74381">
        <ele>1739.106</ele>
        <time>2021-03-23T12:20:34Z</time>
      </trkpt>
      <trkpt lat="42.81516" lon="1.74381">
        <ele>1739.122</ele>
        <time>2021-03-23T12:20:36Z</time>
      </trkpt>
      <trkpt lat="42.81516" lon="1.74381">
        <ele>1739.222</ele>
        <time>2021-03-23T12:20:38Z</time>
      </trkpt>
      <trkpt lat="42.81516" lon="1.74381">
        <ele>1740.122</ele>
        <time>2021-03-23T12:20:40Z</time>
      </trkpt>
      <trkpt lat="42.81516" lon="1.74381">
        <ele>1739.769</ele>
        <time>2021-03-23T12:20:42Z</time>
      </trkpt>
      <trkpt lat="42.81517" lon="1.74382">
        <ele>1739.147</ele>
        <time>2021-03-23T12:20:44Z</time>
      </trkpt>
      <trkpt lat="42.81516" lon="1.74383">
        <ele>1739.378</ele>
        <time>2021-03-23T12:20:46Z</time>
      </trkpt>
      <trkpt lat="42.81517" lon="1.74384">
        <ele>1739.507</ele>
        <time>2021-03-23T12:20:48Z</time>
      </trkpt>
      <trkpt lat="42.81517" lon="1.74384">
        <ele>1739.505</ele>
        <time>2021-03-23T12:20:50Z</time>
      </trkpt>
      <trkpt lat="42.81517" lon="1.74384">
        <ele>1739.505</ele>
        <time>2021-03-23T12:20:52Z</time>
      </trkpt>
      <trkpt lat="42.81517" lon="1.74384">
        <ele>1739.509</ele>
        <time>2021-03-23T12:20:54Z</time>
      </trkpt>
      <trkpt lat="42.81517" lon="1.74384">
        <ele>1739.518</ele>
        <time>2021-03-23T12:20:56Z</time>
      </trkpt>
      <trkpt lat="42.81517" lon="1.74384">
        <ele>1739.517</ele>
        <time>2021-03-23T12:20:58Z</time>
      </trkpt>
      <trkpt lat="42.81517" lon="1.74384">
        <ele>1739.518</ele>
        <time>2021-03-23T12:21:00Z</time>
      </trkpt>
      <trkpt lat="42.81517" lon="1.74384">
        <ele>1739.514</ele>
        <time>2021-03-23T12:21:02Z</time>
      </trkpt>
      <trkpt lat="42.81517" lon="1.74384">
        <ele>1739.516</ele>
        <time>2021-03-23T12:21:04Z</time>
      </trkpt>
      <trkpt lat="42.81517" lon="1.74384">
        <ele>1739.518</ele>
        <time>2021-03-23T12:21:06Z</time>
      </trkpt>
      <trkpt lat="42.81517" lon="1.74384">
        <ele>1739.517</ele>
        <time>2021-03-23T12:21:08Z</time>
      </trkpt>
      <trkpt lat="42.81517" lon="1.74384">
        <ele>1739.515</ele>
        <time>2021-03-23T12:21:10Z</time>
      </trkpt>
      <trkpt lat="42.81517" lon="1.74384">
        <ele>1739.518</ele>
        <time>2021-03-23T12:21:12Z</time>
      </trkpt>
      <trkpt lat="42.81517" lon="1.74384">
        <ele>1739.519</ele>
        <time>2021-03-23T12:21:14Z</time>
      </trkpt>
      <trkpt lat="42.81517" lon="1.74384">
        <ele>1739.513</ele>
        <time>2021-03-23T12:21:16Z</time>
      </trkpt>
      <trkpt lat="42.81517" lon="1.74384">
        <ele>1739.514</ele>
        <time>2021-03-23T12:21:18Z</time>
      </trkpt>
      <trkpt lat="42.81517" lon="1.74384">
        <ele>1739.509</ele>
        <time>2021-03-23T12:21:20Z</time>
      </trkpt>
      <trkpt lat="42.81517" lon="1.74384">
        <ele>1739.507</ele>
        <time>2021-03-23T12:21:22Z</time>
      </trkpt>
      <trkpt lat="42.81517" lon="1.74384">
        <ele>1739.512</ele>
        <time>2021-03-23T12:21:24Z</time>
      </trkpt>
      <trkpt lat="42.81517" lon="1.74384">
        <ele>1739.513</ele>
        <time>2021-03-23T12:21:26Z</time>
      </trkpt>
      <trkpt lat="42.81517" lon="1.74384">
        <ele>1739.511</ele>
        <time>2021-03-23T12:21:28Z</time>
      </trkpt>
      <trkpt lat="42.81517" lon="1.74384">
        <ele>1739.515</ele>
        <time>2021-03-23T12:21:30Z</time>
      </trkpt>
      <trkpt lat="42.81517" lon="1.74384">
        <ele>1739.52</ele>
        <time>2021-03-23T12:21:32Z</time>
      </trkpt>
      <trkpt lat="42.81517" lon="1.74384">
        <ele>1739.523</ele>
        <time>2021-03-23T12:21:34Z</time>
      </trkpt>
      <trkpt lat="42.81517" lon="1.74384">
        <ele>1739.519</ele>
        <time>2021-03-23T12:21:36Z</time>
      </trkpt>
      <trkpt lat="42.81517" lon="1.74384">
        <ele>1739.575</ele>
        <time>2021-03-23T12:21:38Z</time>
      </trkpt>
      <trkpt lat="42.81517" lon="1.74384">
        <ele>1739.585</ele>
        <time>2021-03-23T12:21:40Z</time>
      </trkpt>
      <trkpt lat="42.81517" lon="1.74384">
        <ele>1739.579</ele>
        <time>2021-03-23T12:21:42Z</time>
      </trkpt>
      <trkpt lat="42.81517" lon="1.74384">
        <ele>1739.579</ele>
        <time>2021-03-23T12:21:44Z</time>
      </trkpt>
      <trkpt lat="42.81517" lon="1.74384">
        <ele>1739.581</ele>
        <time>2021-03-23T12:21:46Z</time>
      </trkpt>
      <trkpt lat="42.81517" lon="1.74384">
        <ele>1739.583</ele>
        <time>2021-03-23T12:21:48Z</time>
      </trkpt>
      <trkpt lat="42.81517" lon="1.74384">
        <ele>1739.592</ele>
        <time>2021-03-23T12:21:50Z</time>
      </trkpt>
      <trkpt lat="42.81517" lon="1.74384">
        <ele>1739.604</ele>
        <time>2021-03-23T12:21:52Z</time>
      </trkpt>
      <trkpt lat="42.81517" lon="1.74384">
        <ele>1739.612</ele>
        <time>2021-03-23T12:21:54Z</time>
      </trkpt>
      <trkpt lat="42.81517" lon="1.74384">
        <ele>1739.614</ele>
        <time>2021-03-23T12:21:56Z</time>
      </trkpt>
      <trkpt lat="42.81517" lon="1.74384">
        <ele>1739.619</ele>
        <time>2021-03-23T12:21:58Z</time>
      </trkpt>
      <trkpt lat="42.81517" lon="1.74384">
        <ele>1739.624</ele>
        <time>2021-03-23T12:22:01Z</time>
      </trkpt>
      <trkpt lat="42.81517" lon="1.74384">
        <ele>1739.619</ele>
        <time>2021-03-23T12:22:03Z</time>
      </trkpt>
      <trkpt lat="42.81517" lon="1.74384">
        <ele>1739.618</ele>
        <time>2021-03-23T12:22:05Z</time>
      </trkpt>
      <trkpt lat="42.81517" lon="1.74384">
        <ele>1739.616</ele>
        <time>2021-03-23T12:22:07Z</time>
      </trkpt>
      <trkpt lat="42.81517" lon="1.74384">
        <ele>1739.619</ele>
        <time>2021-03-23T12:22:09Z</time>
      </trkpt>
      <trkpt lat="42.81517" lon="1.74384">
        <ele>1739.62</ele>
        <time>2021-03-23T12:22:11Z</time>
      </trkpt>
      <trkpt lat="42.81517" lon="1.74384">
        <ele>1739.621</ele>
        <time>2021-03-23T12:22:13Z</time>
      </trkpt>
      <trkpt lat="42.81517" lon="1.74384">
        <ele>1739.623</ele>
        <time>2021-03-23T12:22:15Z</time>
      </trkpt>
      <trkpt lat="42.81517" lon="1.74384">
        <ele>1739.626</ele>
        <time>2021-03-23T12:22:17Z</time>
      </trkpt>
      <trkpt lat="42.81517" lon="1.74384">
        <ele>1739.622</ele>
        <time>2021-03-23T12:22:19Z</time>
      </trkpt>
      <trkpt lat="42.81517" lon="1.74384">
        <ele>1739.617</ele>
        <time>2021-03-23T12:22:21Z</time>
      </trkpt>
      <trkpt lat="42.81517" lon="1.74384">
        <ele>1739.629</ele>
        <time>2021-03-23T12:22:23Z</time>
      </trkpt>
      <trkpt lat="42.81517" lon="1.74384">
        <ele>1739.627</ele>
        <time>2021-03-23T12:22:25Z</time>
      </trkpt>
      <trkpt lat="42.81517" lon="1.74384">
        <ele>1739.635</ele>
        <time>2021-03-23T12:22:27Z</time>
      </trkpt>
      <trkpt lat="42.81517" lon="1.74384">
        <ele>1739.641</ele>
        <time>2021-03-23T12:22:29Z</time>
      </trkpt>
      <trkpt lat="42.81517" lon="1.74384">
        <ele>1739.648</ele>
        <time>2021-03-23T12:22:31Z</time>
      </trkpt>
      <trkpt lat="42.81517" lon="1.74384">
        <ele>1739.651</ele>
        <time>2021-03-23T12:22:33Z</time>
      </trkpt>
      <trkpt lat="42.81517" lon="1.74384">
        <ele>1739.658</ele>
        <time>2021-03-23T12:22:35Z</time>
      </trkpt>
      <trkpt lat="42.81517" lon="1.74384">
        <ele>1739.667</ele>
        <time>2021-03-23T12:22:37Z</time>
      </trkpt>
      <trkpt lat="42.81517" lon="1.74384">
        <ele>1739.684</ele>
        <time>2021-03-23T12:22:40Z</time>
      </trkpt>
      <trkpt lat="42.81517" lon="1.74384">
        <ele>1739.703</ele>
        <time>2021-03-23T12:22:42Z</time>
      </trkpt>
      <trkpt lat="42.81517" lon="1.74384">
        <ele>1739.715</ele>
        <time>2021-03-23T12:22:44Z</time>
      </trkpt>
      <trkpt lat="42.81517" lon="1.74384">
        <ele>1739.713</ele>
        <time>2021-03-23T12:22:46Z</time>
      </trkpt>
      <trkpt lat="42.81517" lon="1.74384">
        <ele>1739.712</ele>
        <time>2021-03-23T12:22:48Z</time>
      </trkpt>
      <trkpt lat="42.81517" lon="1.74384">
        <ele>1739.705</ele>
        <time>2021-03-23T12:22:50Z</time>
      </trkpt>
      <trkpt lat="42.81517" lon="1.74384">
        <ele>1739.701</ele>
        <time>2021-03-23T12:22:52Z</time>
      </trkpt>
      <trkpt lat="42.81517" lon="1.74384">
        <ele>1739.698</ele>
        <time>2021-03-23T12:22:54Z</time>
      </trkpt>
      <trkpt lat="42.81517" lon="1.74384">
        <ele>1739.702</ele>
        <time>2021-03-23T12:22:56Z</time>
      </trkpt>
      <trkpt lat="42.81517" lon="1.74384">
        <ele>1739.699</ele>
        <time>2021-03-23T12:22:58Z</time>
      </trkpt>
      <trkpt lat="42.81517" lon="1.74384">
        <ele>1739.695</ele>
        <time>2021-03-23T12:23:00Z</time>
      </trkpt>
      <trkpt lat="42.81517" lon="1.74384">
        <ele>1739.691</ele>
        <time>2021-03-23T12:23:02Z</time>
      </trkpt>
      <trkpt lat="42.81517" lon="1.74384">
        <ele>1739.69</ele>
        <time>2021-03-23T12:23:04Z</time>
      </trkpt>
      <trkpt lat="42.81517" lon="1.74384">
        <ele>1739.691</ele>
        <time>2021-03-23T12:23:06Z</time>
      </trkpt>
      <trkpt lat="42.81517" lon="1.74384">
        <ele>1739.692</ele>
        <time>2021-03-23T12:23:08Z</time>
      </trkpt>
      <trkpt lat="42.81517" lon="1.74384">
        <ele>1739.694</ele>
        <time>2021-03-23T12:23:10Z</time>
      </trkpt>
      <trkpt lat="42.81517" lon="1.74384">
        <ele>1739.693</ele>
        <time>2021-03-23T12:23:12Z</time>
      </trkpt>
      <trkpt lat="42.81517" lon="1.74384">
        <ele>1739.694</ele>
        <time>2021-03-23T12:23:14Z</time>
      </trkpt>
      <trkpt lat="42.81517" lon="1.74384">
        <ele>1739.691</ele>
        <time>2021-03-23T12:23:16Z</time>
      </trkpt>
      <trkpt lat="42.81517" lon="1.74384">
        <ele>1739.687</ele>
        <time>2021-03-23T12:23:18Z</time>
      </trkpt>
      <trkpt lat="42.81517" lon="1.74384">
        <ele>1739.581</ele>
        <time>2021-03-23T12:23:20Z</time>
      </trkpt>
      <trkpt lat="42.81517" lon="1.74384">
        <ele>1739.585</ele>
        <time>2021-03-23T12:23:22Z</time>
      </trkpt>
      <trkpt lat="42.81517" lon="1.74384">
        <ele>1739.587</ele>
        <time>2021-03-23T12:23:24Z</time>
      </trkpt>
      <trkpt lat="42.81517" lon="1.74384">
        <ele>1739.584</ele>
        <time>2021-03-23T12:23:26Z</time>
      </trkpt>
      <trkpt lat="42.81517" lon="1.74384">
        <ele>1739.582</ele>
        <time>2021-03-23T12:23:28Z</time>
      </trkpt>
      <trkpt lat="42.81517" lon="1.74384">
        <ele>1739.579</ele>
        <time>2021-03-23T12:23:30Z</time>
      </trkpt>
      <trkpt lat="42.81517" lon="1.74384">
        <ele>1739.582</ele>
        <time>2021-03-23T12:23:32Z</time>
      </trkpt>
      <trkpt lat="42.81517" lon="1.74384">
        <ele>1739.585</ele>
        <time>2021-03-23T12:23:34Z</time>
      </trkpt>
      <trkpt lat="42.81517" lon="1.74384">
        <ele>1739.587</ele>
        <time>2021-03-23T12:23:36Z</time>
      </trkpt>
      <trkpt lat="42.81517" lon="1.74384">
        <ele>1739.583</ele>
        <time>2021-03-23T12:23:38Z</time>
      </trkpt>
      <trkpt lat="42.81517" lon="1.74384">
        <ele>1739.575</ele>
        <time>2021-03-23T12:23:40Z</time>
      </trkpt>
      <trkpt lat="42.81517" lon="1.74384">
        <ele>1739.571</ele>
        <time>2021-03-23T12:23:42Z</time>
      </trkpt>
      <trkpt lat="42.81517" lon="1.74384">
        <ele>1739.563</ele>
        <time>2021-03-23T12:23:44Z</time>
      </trkpt>
      <trkpt lat="42.81517" lon="1.74384">
        <ele>1739.558</ele>
        <time>2021-03-23T12:23:46Z</time>
      </trkpt>
      <trkpt lat="42.81517" lon="1.74384">
        <ele>1739.573</ele>
        <time>2021-03-23T12:23:48Z</time>
      </trkpt>
      <trkpt lat="42.81517" lon="1.74384">
        <ele>1739.58</ele>
        <time>2021-03-23T12:23:50Z</time>
      </trkpt>
      <trkpt lat="42.81517" lon="1.74384">
        <ele>1739.577</ele>
        <time>2021-03-23T12:23:52Z</time>
      </trkpt>
      <trkpt lat="42.81517" lon="1.74384">
        <ele>1739.58</ele>
        <time>2021-03-23T12:23:54Z</time>
      </trkpt>
      <trkpt lat="42.81517" lon="1.74384">
        <ele>1739.583</ele>
        <time>2021-03-23T12:23:56Z</time>
      </trkpt>
      <trkpt lat="42.81517" lon="1.74384">
        <ele>1739.585</ele>
        <time>2021-03-23T12:23:58Z</time>
      </trkpt>
      <trkpt lat="42.81517" lon="1.74384">
        <ele>1739.585</ele>
        <time>2021-03-23T12:24:00Z</time>
      </trkpt>
      <trkpt lat="42.81517" lon="1.74384">
        <ele>1739.584</ele>
        <time>2021-03-23T12:24:02Z</time>
      </trkpt>
      <trkpt lat="42.81517" lon="1.74384">
        <ele>1739.585</ele>
        <time>2021-03-23T12:24:04Z</time>
      </trkpt>
      <trkpt lat="42.81517" lon="1.74384">
        <ele>1739.587</ele>
        <time>2021-03-23T12:24:06Z</time>
      </trkpt>
      <trkpt lat="42.81517" lon="1.74384">
        <ele>1739.587</ele>
        <time>2021-03-23T12:24:08Z</time>
      </trkpt>
      <trkpt lat="42.81517" lon="1.74384">
        <ele>1739.583</ele>
        <time>2021-03-23T12:24:10Z</time>
      </trkpt>
      <trkpt lat="42.81517" lon="1.74384">
        <ele>1739.579</ele>
        <time>2021-03-23T12:24:12Z</time>
      </trkpt>
      <trkpt lat="42.81517" lon="1.74384">
        <ele>1739.577</ele>
        <time>2021-03-23T12:24:14Z</time>
      </trkpt>
      <trkpt lat="42.81517" lon="1.74384">
        <ele>1739.577</ele>
        <time>2021-03-23T12:24:16Z</time>
      </trkpt>
      <trkpt lat="42.81517" lon="1.74384">
        <ele>1739.577</ele>
        <time>2021-03-23T12:24:18Z</time>
      </trkpt>
      <trkpt lat="42.81517" lon="1.74384">
        <ele>1739.574</ele>
        <time>2021-03-23T12:24:20Z</time>
      </trkpt>
      <trkpt lat="42.81517" lon="1.74384">
        <ele>1739.576</ele>
        <time>2021-03-23T12:24:22Z</time>
      </trkpt>
      <trkpt lat="42.81517" lon="1.74384">
        <ele>1739.585</ele>
        <time>2021-03-23T12:24:24Z</time>
      </trkpt>
      <trkpt lat="42.81517" lon="1.74384">
        <ele>1739.594</ele>
        <time>2021-03-23T12:24:26Z</time>
      </trkpt>
      <trkpt lat="42.81517" lon="1.74384">
        <ele>1739.605</ele>
        <time>2021-03-23T12:24:28Z</time>
      </trkpt>
      <trkpt lat="42.81517" lon="1.74384">
        <ele>1739.603</ele>
        <time>2021-03-23T12:24:30Z</time>
      </trkpt>
      <trkpt lat="42.81517" lon="1.74384">
        <ele>1739.6</ele>
        <time>2021-03-23T12:24:32Z</time>
      </trkpt>
      <trkpt lat="42.81517" lon="1.74384">
        <ele>1739.6</ele>
        <time>2021-03-23T12:24:34Z</time>
      </trkpt>
      <trkpt lat="42.81517" lon="1.74384">
        <ele>1739.599</ele>
        <time>2021-03-23T12:24:36Z</time>
      </trkpt>
      <trkpt lat="42.81517" lon="1.74384">
        <ele>1739.595</ele>
        <time>2021-03-23T12:24:38Z</time>
      </trkpt>
      <trkpt lat="42.81517" lon="1.74384">
        <ele>1739.585</ele>
        <time>2021-03-23T12:24:40Z</time>
      </trkpt>
      <trkpt lat="42.81517" lon="1.74384">
        <ele>1739.582</ele>
        <time>2021-03-23T12:24:42Z</time>
      </trkpt>
      <trkpt lat="42.81517" lon="1.74384">
        <ele>1739.575</ele>
        <time>2021-03-23T12:24:44Z</time>
      </trkpt>
      <trkpt lat="42.81517" lon="1.74384">
        <ele>1739.573</ele>
        <time>2021-03-23T12:24:46Z</time>
      </trkpt>
      <trkpt lat="42.81517" lon="1.74384">
        <ele>1739.573</ele>
        <time>2021-03-23T12:24:48Z</time>
      </trkpt>
      <trkpt lat="42.81517" lon="1.74384">
        <ele>1739.566</ele>
        <time>2021-03-23T12:24:50Z</time>
      </trkpt>
      <trkpt lat="42.81517" lon="1.74384">
        <ele>1739.563</ele>
        <time>2021-03-23T12:24:52Z</time>
      </trkpt>
      <trkpt lat="42.81517" lon="1.74384">
        <ele>1739.556</ele>
        <time>2021-03-23T12:24:54Z</time>
      </trkpt>
      <trkpt lat="42.81517" lon="1.74384">
        <ele>1739.554</ele>
        <time>2021-03-23T12:24:56Z</time>
      </trkpt>
      <trkpt lat="42.81517" lon="1.74384">
        <ele>1739.552</ele>
        <time>2021-03-23T12:24:58Z</time>
      </trkpt>
      <trkpt lat="42.81517" lon="1.74384">
        <ele>1739.551</ele>
        <time>2021-03-23T12:25:00Z</time>
      </trkpt>
      <trkpt lat="42.81517" lon="1.74384">
        <ele>1739.555</ele>
        <time>2021-03-23T12:25:02Z</time>
      </trkpt>
      <trkpt lat="42.81517" lon="1.74384">
        <ele>1739.562</ele>
        <time>2021-03-23T12:25:04Z</time>
      </trkpt>
      <trkpt lat="42.81517" lon="1.74384">
        <ele>1739.568</ele>
        <time>2021-03-23T12:25:06Z</time>
      </trkpt>
      <trkpt lat="42.81517" lon="1.74384">
        <ele>1739.569</ele>
        <time>2021-03-23T12:25:08Z</time>
      </trkpt>
      <trkpt lat="42.81517" lon="1.74384">
        <ele>1739.571</ele>
        <time>2021-03-23T12:25:10Z</time>
      </trkpt>
      <trkpt lat="42.81516" lon="1.74384">
        <ele>1739.852</ele>
        <time>2021-03-23T12:25:12Z</time>
      </trkpt>
      <trkpt lat="42.81516" lon="1.74385">
        <ele>1740.348</ele>
        <time>2021-03-23T12:25:14Z</time>
      </trkpt>
      <trkpt lat="42.81515" lon="1.74385">
        <ele>1740.505</ele>
        <time>2021-03-23T12:25:16Z</time>
      </trkpt>
      <trkpt lat="42.81515" lon="1.74385">
        <ele>1740.512</ele>
        <time>2021-03-23T12:25:18Z</time>
      </trkpt>
      <trkpt lat="42.81515" lon="1.74385">
        <ele>1740.52</ele>
        <time>2021-03-23T12:25:20Z</time>
      </trkpt>
      <trkpt lat="42.81515" lon="1.74385">
        <ele>1740.529</ele>
        <time>2021-03-23T12:25:22Z</time>
      </trkpt>
      <trkpt lat="42.81515" lon="1.74385">
        <ele>1740.538</ele>
        <time>2021-03-23T12:25:24Z</time>
      </trkpt>
      <trkpt lat="42.81515" lon="1.74385">
        <ele>1740.536</ele>
        <time>2021-03-23T12:25:26Z</time>
      </trkpt>
      <trkpt lat="42.81515" lon="1.74385">
        <ele>1740.537</ele>
        <time>2021-03-23T12:25:28Z</time>
      </trkpt>
      <trkpt lat="42.81515" lon="1.74386">
        <ele>1740.738</ele>
        <time>2021-03-23T12:25:30Z</time>
      </trkpt>
      <trkpt lat="42.81515" lon="1.74385">
        <ele>1741.592</ele>
        <time>2021-03-23T12:25:32Z</time>
      </trkpt>
      <trkpt lat="42.81515" lon="1.74386">
        <ele>1741.584</ele>
        <time>2021-03-23T12:25:34Z</time>
      </trkpt>
      <trkpt lat="42.81515" lon="1.74386">
        <ele>1741.588</ele>
        <time>2021-03-23T12:25:36Z</time>
      </trkpt>
      <trkpt lat="42.81515" lon="1.74386">
        <ele>1741.591</ele>
        <time>2021-03-23T12:25:38Z</time>
      </trkpt>
      <trkpt lat="42.81515" lon="1.74385">
        <ele>1741.808</ele>
        <time>2021-03-23T12:25:40Z</time>
      </trkpt>
      <trkpt lat="42.81515" lon="1.74384">
        <ele>1742.269</ele>
        <time>2021-03-23T12:25:42Z</time>
      </trkpt>
      <trkpt lat="42.81515" lon="1.74384">
        <ele>1742.276</ele>
        <time>2021-03-23T12:25:44Z</time>
      </trkpt>
      <trkpt lat="42.81515" lon="1.74384">
        <ele>1742.308</ele>
        <time>2021-03-23T12:25:46Z</time>
      </trkpt>
      <trkpt lat="42.81515" lon="1.74384">
        <ele>1742.325</ele>
        <time>2021-03-23T12:25:48Z</time>
      </trkpt>
      <trkpt lat="42.81515" lon="1.74384">
        <ele>1742.332</ele>
        <time>2021-03-23T12:25:50Z</time>
      </trkpt>
      <trkpt lat="42.81515" lon="1.74384">
        <ele>1742.345</ele>
        <time>2021-03-23T12:25:52Z</time>
      </trkpt>
      <trkpt lat="42.81515" lon="1.74384">
        <ele>1742.348</ele>
        <time>2021-03-23T12:25:54Z</time>
      </trkpt>
      <trkpt lat="42.81515" lon="1.74384">
        <ele>1742.352</ele>
        <time>2021-03-23T12:25:56Z</time>
      </trkpt>
      <trkpt lat="42.81515" lon="1.74384">
        <ele>1742.352</ele>
        <time>2021-03-23T12:25:58Z</time>
      </trkpt>
      <trkpt lat="42.81515" lon="1.74384">
        <ele>1742.351</ele>
        <time>2021-03-23T12:26:00Z</time>
      </trkpt>
      <trkpt lat="42.81515" lon="1.74384">
        <ele>1742.349</ele>
        <time>2021-03-23T12:26:02Z</time>
      </trkpt>
      <trkpt lat="42.81515" lon="1.74384">
        <ele>1742.348</ele>
        <time>2021-03-23T12:26:04Z</time>
      </trkpt>
      <trkpt lat="42.81515" lon="1.74384">
        <ele>1742.348</ele>
        <time>2021-03-23T12:26:06Z</time>
      </trkpt>
      <trkpt lat="42.81515" lon="1.74384">
        <ele>1742.347</ele>
        <time>2021-03-23T12:26:08Z</time>
      </trkpt>
      <trkpt lat="42.81515" lon="1.74384">
        <ele>1742.351</ele>
        <time>2021-03-23T12:26:10Z</time>
      </trkpt>
      <trkpt lat="42.81515" lon="1.74384">
        <ele>1742.357</ele>
        <time>2021-03-23T12:26:12Z</time>
      </trkpt>
      <trkpt lat="42.81515" lon="1.74384">
        <ele>1742.357</ele>
        <time>2021-03-23T12:26:14Z</time>
      </trkpt>
      <trkpt lat="42.81515" lon="1.74384">
        <ele>1742.363</ele>
        <time>2021-03-23T12:26:16Z</time>
      </trkpt>
      <trkpt lat="42.81515" lon="1.74384">
        <ele>1742.363</ele>
        <time>2021-03-23T12:26:18Z</time>
      </trkpt>
      <trkpt lat="42.81515" lon="1.74384">
        <ele>1742.364</ele>
        <time>2021-03-23T12:26:20Z</time>
      </trkpt>
      <trkpt lat="42.81515" lon="1.74384">
        <ele>1742.36</ele>
        <time>2021-03-23T12:26:22Z</time>
      </trkpt>
      <trkpt lat="42.81515" lon="1.74384">
        <ele>1742.371</ele>
        <time>2021-03-23T12:26:24Z</time>
      </trkpt>
      <trkpt lat="42.81515" lon="1.74384">
        <ele>1742.379</ele>
        <time>2021-03-23T12:26:26Z</time>
      </trkpt>
      <trkpt lat="42.81515" lon="1.74384">
        <ele>1742.386</ele>
        <time>2021-03-23T12:26:28Z</time>
      </trkpt>
      <trkpt lat="42.81515" lon="1.74384">
        <ele>1742.389</ele>
        <time>2021-03-23T12:26:30Z</time>
      </trkpt>
      <trkpt lat="42.81515" lon="1.74384">
        <ele>1742.392</ele>
        <time>2021-03-23T12:26:32Z</time>
      </trkpt>
      <trkpt lat="42.81515" lon="1.74384">
        <ele>1742.403</ele>
        <time>2021-03-23T12:26:34Z</time>
      </trkpt>
      <trkpt lat="42.81515" lon="1.74384">
        <ele>1742.402</ele>
        <time>2021-03-23T12:26:36Z</time>
      </trkpt>
      <trkpt lat="42.81515" lon="1.74384">
        <ele>1742.399</ele>
        <time>2021-03-23T12:26:38Z</time>
      </trkpt>
      <trkpt lat="42.81515" lon="1.74384">
        <ele>1742.401</ele>
        <time>2021-03-23T12:26:40Z</time>
      </trkpt>
      <trkpt lat="42.81515" lon="1.74384">
        <ele>1742.404</ele>
        <time>2021-03-23T12:26:42Z</time>
      </trkpt>
      <trkpt lat="42.81515" lon="1.74384">
        <ele>1742.411</ele>
        <time>2021-03-23T12:26:44Z</time>
      </trkpt>
      <trkpt lat="42.81515" lon="1.74384">
        <ele>1742.409</ele>
        <time>2021-03-23T12:26:46Z</time>
      </trkpt>
      <trkpt lat="42.81515" lon="1.74384">
        <ele>1742.413</ele>
        <time>2021-03-23T12:26:48Z</time>
      </trkpt>
      <trkpt lat="42.81515" lon="1.74384">
        <ele>1742.422</ele>
        <time>2021-03-23T12:26:50Z</time>
      </trkpt>
      <trkpt lat="42.81515" lon="1.74384">
        <ele>1742.427</ele>
        <time>2021-03-23T12:26:52Z</time>
      </trkpt>
      <trkpt lat="42.81515" lon="1.74384">
        <ele>1742.424</ele>
        <time>2021-03-23T12:26:54Z</time>
      </trkpt>
      <trkpt lat="42.81515" lon="1.74384">
        <ele>1742.421</ele>
        <time>2021-03-23T12:26:56Z</time>
      </trkpt>
      <trkpt lat="42.81515" lon="1.74384">
        <ele>1742.419</ele>
        <time>2021-03-23T12:26:58Z</time>
      </trkpt>
      <trkpt lat="42.81515" lon="1.74384">
        <ele>1742.419</ele>
        <time>2021-03-23T12:27:01Z</time>
      </trkpt>
      <trkpt lat="42.81515" lon="1.74384">
        <ele>1742.419</ele>
        <time>2021-03-23T12:27:03Z</time>
      </trkpt>
      <trkpt lat="42.81515" lon="1.74384">
        <ele>1742.419</ele>
        <time>2021-03-23T12:27:05Z</time>
      </trkpt>
      <trkpt lat="42.81515" lon="1.74384">
        <ele>1742.419</ele>
        <time>2021-03-23T12:27:07Z</time>
      </trkpt>
      <trkpt lat="42.81515" lon="1.74384">
        <ele>1742.416</ele>
        <time>2021-03-23T12:27:09Z</time>
      </trkpt>
      <trkpt lat="42.81515" lon="1.74384">
        <ele>1742.416</ele>
        <time>2021-03-23T12:27:11Z</time>
      </trkpt>
      <trkpt lat="42.81515" lon="1.74384">
        <ele>1742.416</ele>
        <time>2021-03-23T12:27:13Z</time>
      </trkpt>
      <trkpt lat="42.81515" lon="1.74384">
        <ele>1742.417</ele>
        <time>2021-03-23T12:27:15Z</time>
      </trkpt>
      <trkpt lat="42.81515" lon="1.74384">
        <ele>1742.416</ele>
        <time>2021-03-23T12:27:17Z</time>
      </trkpt>
      <trkpt lat="42.81515" lon="1.74384">
        <ele>1742.422</ele>
        <time>2021-03-23T12:27:19Z</time>
      </trkpt>
      <trkpt lat="42.81515" lon="1.74384">
        <ele>1742.423</ele>
        <time>2021-03-23T12:27:21Z</time>
      </trkpt>
      <trkpt lat="42.81515" lon="1.74384">
        <ele>1742.42</ele>
        <time>2021-03-23T12:27:23Z</time>
      </trkpt>
      <trkpt lat="42.81515" lon="1.74384">
        <ele>1742.419</ele>
        <time>2021-03-23T12:27:25Z</time>
      </trkpt>
      <trkpt lat="42.81515" lon="1.74384">
        <ele>1742.414</ele>
        <time>2021-03-23T12:27:27Z</time>
      </trkpt>
      <trkpt lat="42.81515" lon="1.74384">
        <ele>1742.415</ele>
        <time>2021-03-23T12:27:29Z</time>
      </trkpt>
      <trkpt lat="42.81515" lon="1.74385">
        <ele>1742.893</ele>
        <time>2021-03-23T12:27:31Z</time>
      </trkpt>
      <trkpt lat="42.81515" lon="1.74385">
        <ele>1742.926</ele>
        <time>2021-03-23T12:27:33Z</time>
      </trkpt>
      <trkpt lat="42.81515" lon="1.74385">
        <ele>1743.188</ele>
        <time>2021-03-23T12:27:35Z</time>
      </trkpt>
      <trkpt lat="42.81515" lon="1.74385">
        <ele>1743.194</ele>
        <time>2021-03-23T12:27:37Z</time>
      </trkpt>
      <trkpt lat="42.81515" lon="1.74385">
        <ele>1742.325</ele>
        <time>2021-03-23T12:27:39Z</time>
      </trkpt>
      <trkpt lat="42.81515" lon="1.74385">
        <ele>1742.394</ele>
        <time>2021-03-23T12:27:41Z</time>
      </trkpt>
      <trkpt lat="42.81515" lon="1.74385">
        <ele>1742.134</ele>
        <time>2021-03-23T12:27:43Z</time>
      </trkpt>
      <trkpt lat="42.81515" lon="1.74385">
        <ele>1742.1</ele>
        <time>2021-03-23T12:27:45Z</time>
      </trkpt>
      <trkpt lat="42.81515" lon="1.74385">
        <ele>1742.097</ele>
        <time>2021-03-23T12:27:47Z</time>
      </trkpt>
      <trkpt lat="42.81515" lon="1.74385">
        <ele>1742.104</ele>
        <time>2021-03-23T12:27:49Z</time>
      </trkpt>
      <trkpt lat="42.81515" lon="1.74385">
        <ele>1742.107</ele>
        <time>2021-03-23T12:27:51Z</time>
      </trkpt>
      <trkpt lat="42.81514" lon="1.74385">
        <ele>1742.106</ele>
        <time>2021-03-23T12:27:53Z</time>
      </trkpt>
      <trkpt lat="42.81514" lon="1.74385">
        <ele>1742.111</ele>
        <time>2021-03-23T12:27:55Z</time>
      </trkpt>
      <trkpt lat="42.81514" lon="1.74385">
        <ele>1742.114</ele>
        <time>2021-03-23T12:27:57Z</time>
      </trkpt>
      <trkpt lat="42.81514" lon="1.74385">
        <ele>1742.116</ele>
        <time>2021-03-23T12:27:59Z</time>
      </trkpt>
      <trkpt lat="42.81514" lon="1.74385">
        <ele>1742.117</ele>
        <time>2021-03-23T12:28:01Z</time>
      </trkpt>
      <trkpt lat="42.81514" lon="1.74385">
        <ele>1742.116</ele>
        <time>2021-03-23T12:28:03Z</time>
      </trkpt>
      <trkpt lat="42.81514" lon="1.74385">
        <ele>1742.117</ele>
        <time>2021-03-23T12:28:05Z</time>
      </trkpt>
      <trkpt lat="42.81514" lon="1.74385">
        <ele>1742.12</ele>
        <time>2021-03-23T12:28:07Z</time>
      </trkpt>
      <trkpt lat="42.81514" lon="1.74385">
        <ele>1742.124</ele>
        <time>2021-03-23T12:28:09Z</time>
      </trkpt>
      <trkpt lat="42.81514" lon="1.74385">
        <ele>1742.129</ele>
        <time>2021-03-23T12:28:11Z</time>
      </trkpt>
      <trkpt lat="42.81514" lon="1.74385">
        <ele>1742.133</ele>
        <time>2021-03-23T12:28:13Z</time>
      </trkpt>
      <trkpt lat="42.81514" lon="1.74385">
        <ele>1742.135</ele>
        <time>2021-03-23T12:28:15Z</time>
      </trkpt>
      <trkpt lat="42.81514" lon="1.74385">
        <ele>1742.138</ele>
        <time>2021-03-23T12:28:17Z</time>
      </trkpt>
      <trkpt lat="42.81514" lon="1.74385">
        <ele>1742.144</ele>
        <time>2021-03-23T12:28:19Z</time>
      </trkpt>
      <trkpt lat="42.81514" lon="1.74385">
        <ele>1742.152</ele>
        <time>2021-03-23T12:28:21Z</time>
      </trkpt>
      <trkpt lat="42.81514" lon="1.74385">
        <ele>1742.15</ele>
        <time>2021-03-23T12:28:23Z</time>
      </trkpt>
      <trkpt lat="42.81514" lon="1.74385">
        <ele>1742.145</ele>
        <time>2021-03-23T12:28:25Z</time>
      </trkpt>
      <trkpt lat="42.81514" lon="1.74385">
        <ele>1742.14</ele>
        <time>2021-03-23T12:28:27Z</time>
      </trkpt>
      <trkpt lat="42.81514" lon="1.74385">
        <ele>1742.14</ele>
        <time>2021-03-23T12:28:29Z</time>
      </trkpt>
      <trkpt lat="42.81514" lon="1.74385">
        <ele>1742.14</ele>
        <time>2021-03-23T12:28:31Z</time>
      </trkpt>
      <trkpt lat="42.81514" lon="1.74385">
        <ele>1742.137</ele>
        <time>2021-03-23T12:28:33Z</time>
      </trkpt>
      <trkpt lat="42.81514" lon="1.74385">
        <ele>1742.137</ele>
        <time>2021-03-23T12:28:35Z</time>
      </trkpt>
      <trkpt lat="42.81514" lon="1.74385">
        <ele>1742.139</ele>
        <time>2021-03-23T12:28:37Z</time>
      </trkpt>
      <trkpt lat="42.81514" lon="1.74385">
        <ele>1742.14</ele>
        <time>2021-03-23T12:28:39Z</time>
      </trkpt>
      <trkpt lat="42.81514" lon="1.74385">
        <ele>1742.145</ele>
        <time>2021-03-23T12:28:41Z</time>
      </trkpt>
      <trkpt lat="42.81514" lon="1.74385">
        <ele>1742.153</ele>
        <time>2021-03-23T12:28:43Z</time>
      </trkpt>
      <trkpt lat="42.81514" lon="1.74385">
        <ele>1742.277</ele>
        <time>2021-03-23T12:28:45Z</time>
      </trkpt>
      <trkpt lat="42.81514" lon="1.74385">
        <ele>1742.04</ele>
        <time>2021-03-23T12:28:47Z</time>
      </trkpt>
      <trkpt lat="42.81514" lon="1.74385">
        <ele>1742.008</ele>
        <time>2021-03-23T12:28:49Z</time>
      </trkpt>
      <trkpt lat="42.81513" lon="1.74385">
        <ele>1742.019</ele>
        <time>2021-03-23T12:28:51Z</time>
      </trkpt>
      <trkpt lat="42.81513" lon="1.74385">
        <ele>1742.527</ele>
        <time>2021-03-23T12:28:53Z</time>
      </trkpt>
      <trkpt lat="42.81514" lon="1.74384">
        <ele>1742.516</ele>
        <time>2021-03-23T12:28:55Z</time>
      </trkpt>
      <trkpt lat="42.81514" lon="1.74384">
        <ele>1743.153</ele>
        <time>2021-03-23T12:28:57Z</time>
      </trkpt>
      <trkpt lat="42.81514" lon="1.74384">
        <ele>1743.21</ele>
        <time>2021-03-23T12:28:59Z</time>
      </trkpt>
      <trkpt lat="42.81514" lon="1.74384">
        <ele>1743.201</ele>
        <time>2021-03-23T12:29:01Z</time>
      </trkpt>
      <trkpt lat="42.81514" lon="1.74384">
        <ele>1743.198</ele>
        <time>2021-03-23T12:29:03Z</time>
      </trkpt>
      <trkpt lat="42.81514" lon="1.74384">
        <ele>1743.194</ele>
        <time>2021-03-23T12:29:05Z</time>
      </trkpt>
      <trkpt lat="42.81514" lon="1.74384">
        <ele>1743.194</ele>
        <time>2021-03-23T12:29:07Z</time>
      </trkpt>
      <trkpt lat="42.81514" lon="1.74384">
        <ele>1743.19</ele>
        <time>2021-03-23T12:29:09Z</time>
      </trkpt>
      <trkpt lat="42.81514" lon="1.74384">
        <ele>1743.189</ele>
        <time>2021-03-23T12:29:11Z</time>
      </trkpt>
      <trkpt lat="42.81514" lon="1.74384">
        <ele>1743.19</ele>
        <time>2021-03-23T12:29:13Z</time>
      </trkpt>
      <trkpt lat="42.81514" lon="1.74384">
        <ele>1743.195</ele>
        <time>2021-03-23T12:29:15Z</time>
      </trkpt>
      <trkpt lat="42.81514" lon="1.74384">
        <ele>1743.195</ele>
        <time>2021-03-23T12:29:17Z</time>
      </trkpt>
      <trkpt lat="42.81514" lon="1.74384">
        <ele>1743.194</ele>
        <time>2021-03-23T12:29:19Z</time>
      </trkpt>
      <trkpt lat="42.81514" lon="1.74384">
        <ele>1743.191</ele>
        <time>2021-03-23T12:29:21Z</time>
      </trkpt>
      <trkpt lat="42.81514" lon="1.74384">
        <ele>1743.191</ele>
        <time>2021-03-23T12:29:23Z</time>
      </trkpt>
      <trkpt lat="42.81514" lon="1.74384">
        <ele>1743.187</ele>
        <time>2021-03-23T12:29:25Z</time>
      </trkpt>
      <trkpt lat="42.81514" lon="1.74384">
        <ele>1743.184</ele>
        <time>2021-03-23T12:29:27Z</time>
      </trkpt>
      <trkpt lat="42.81514" lon="1.74384">
        <ele>1743.179</ele>
        <time>2021-03-23T12:29:29Z</time>
      </trkpt>
      <trkpt lat="42.81514" lon="1.74384">
        <ele>1743.178</ele>
        <time>2021-03-23T12:29:31Z</time>
      </trkpt>
      <trkpt lat="42.81514" lon="1.74384">
        <ele>1743.179</ele>
        <time>2021-03-23T12:29:33Z</time>
      </trkpt>
      <trkpt lat="42.81514" lon="1.74384">
        <ele>1743.176</ele>
        <time>2021-03-23T12:29:35Z</time>
      </trkpt>
      <trkpt lat="42.81514" lon="1.74384">
        <ele>1743.176</ele>
        <time>2021-03-23T12:29:37Z</time>
      </trkpt>
      <trkpt lat="42.81514" lon="1.74384">
        <ele>1743.171</ele>
        <time>2021-03-23T12:29:39Z</time>
      </trkpt>
      <trkpt lat="42.81514" lon="1.74384">
        <ele>1743.169</ele>
        <time>2021-03-23T12:29:41Z</time>
      </trkpt>
      <trkpt lat="42.81514" lon="1.74384">
        <ele>1743.163</ele>
        <time>2021-03-23T12:29:43Z</time>
      </trkpt>
      <trkpt lat="42.81514" lon="1.74384">
        <ele>1743.163</ele>
        <time>2021-03-23T12:29:45Z</time>
      </trkpt>
      <trkpt lat="42.81514" lon="1.74384">
        <ele>1743.165</ele>
        <time>2021-03-23T12:29:47Z</time>
      </trkpt>
      <trkpt lat="42.81514" lon="1.74384">
        <ele>1743.164</ele>
        <time>2021-03-23T12:29:49Z</time>
      </trkpt>
      <trkpt lat="42.81514" lon="1.74384">
        <ele>1743.162</ele>
        <time>2021-03-23T12:29:51Z</time>
      </trkpt>
      <trkpt lat="42.81514" lon="1.74384">
        <ele>1743.159</ele>
        <time>2021-03-23T12:29:53Z</time>
      </trkpt>
      <trkpt lat="42.81514" lon="1.74384">
        <ele>1743.152</ele>
        <time>2021-03-23T12:29:55Z</time>
      </trkpt>
      <trkpt lat="42.81514" lon="1.74384">
        <ele>1743.148</ele>
        <time>2021-03-23T12:29:57Z</time>
      </trkpt>
      <trkpt lat="42.81514" lon="1.74384">
        <ele>1743.146</ele>
        <time>2021-03-23T12:29:59Z</time>
      </trkpt>
      <trkpt lat="42.81514" lon="1.74384">
        <ele>1743.143</ele>
        <time>2021-03-23T12:30:01Z</time>
      </trkpt>
      <trkpt lat="42.81514" lon="1.74384">
        <ele>1743.14</ele>
        <time>2021-03-23T12:30:03Z</time>
      </trkpt>
      <trkpt lat="42.81514" lon="1.74384">
        <ele>1743.139</ele>
        <time>2021-03-23T12:30:05Z</time>
      </trkpt>
      <trkpt lat="42.81514" lon="1.74384">
        <ele>1743.139</ele>
        <time>2021-03-23T12:30:07Z</time>
      </trkpt>
      <trkpt lat="42.81514" lon="1.74384">
        <ele>1743.138</ele>
        <time>2021-03-23T12:30:09Z</time>
      </trkpt>
      <trkpt lat="42.81514" lon="1.74384">
        <ele>1743.137</ele>
        <time>2021-03-23T12:30:11Z</time>
      </trkpt>
      <trkpt lat="42.81514" lon="1.74384">
        <ele>1743.136</ele>
        <time>2021-03-23T12:30:13Z</time>
      </trkpt>
      <trkpt lat="42.81514" lon="1.74384">
        <ele>1743.14</ele>
        <time>2021-03-23T12:30:15Z</time>
      </trkpt>
      <trkpt lat="42.81514" lon="1.74384">
        <ele>1743.138</ele>
        <time>2021-03-23T12:30:17Z</time>
      </trkpt>
      <trkpt lat="42.81514" lon="1.74384">
        <ele>1743.142</ele>
        <time>2021-03-23T12:30:19Z</time>
      </trkpt>
      <trkpt lat="42.81514" lon="1.74384">
        <ele>1743.146</ele>
        <time>2021-03-23T12:30:21Z</time>
      </trkpt>
      <trkpt lat="42.81514" lon="1.74384">
        <ele>1743.139</ele>
        <time>2021-03-23T12:30:23Z</time>
      </trkpt>
      <trkpt lat="42.81514" lon="1.74384">
        <ele>1743.134</ele>
        <time>2021-03-23T12:30:25Z</time>
      </trkpt>
      <trkpt lat="42.81514" lon="1.74384">
        <ele>1743.137</ele>
        <time>2021-03-23T12:30:27Z</time>
      </trkpt>
      <trkpt lat="42.81514" lon="1.74384">
        <ele>1743.143</ele>
        <time>2021-03-23T12:30:29Z</time>
      </trkpt>
      <trkpt lat="42.81514" lon="1.74384">
        <ele>1743.143</ele>
        <time>2021-03-23T12:30:31Z</time>
      </trkpt>
      <trkpt lat="42.81514" lon="1.74384">
        <ele>1743.141</ele>
        <time>2021-03-23T12:30:33Z</time>
      </trkpt>
      <trkpt lat="42.81514" lon="1.74384">
        <ele>1743.142</ele>
        <time>2021-03-23T12:30:35Z</time>
      </trkpt>
      <trkpt lat="42.81514" lon="1.74384">
        <ele>1743.144</ele>
        <time>2021-03-23T12:30:37Z</time>
      </trkpt>
      <trkpt lat="42.81514" lon="1.74384">
        <ele>1743.145</ele>
        <time>2021-03-23T12:30:39Z</time>
      </trkpt>
      <trkpt lat="42.81514" lon="1.74384">
        <ele>1743.148</ele>
        <time>2021-03-23T12:30:41Z</time>
      </trkpt>
      <trkpt lat="42.81514" lon="1.74384">
        <ele>1743.153</ele>
        <time>2021-03-23T12:30:43Z</time>
      </trkpt>
      <trkpt lat="42.81514" lon="1.74384">
        <ele>1743.154</ele>
        <time>2021-03-23T12:30:45Z</time>
      </trkpt>
      <trkpt lat="42.81514" lon="1.74384">
        <ele>1743.151</ele>
        <time>2021-03-23T12:30:47Z</time>
      </trkpt>
      <trkpt lat="42.81514" lon="1.74384">
        <ele>1743.151</ele>
        <time>2021-03-23T12:30:49Z</time>
      </trkpt>
      <trkpt lat="42.81514" lon="1.74384">
        <ele>1743.15</ele>
        <time>2021-03-23T12:30:51Z</time>
      </trkpt>
      <trkpt lat="42.81514" lon="1.74384">
        <ele>1743.148</ele>
        <time>2021-03-23T12:30:53Z</time>
      </trkpt>
      <trkpt lat="42.81514" lon="1.74384">
        <ele>1743.148</ele>
        <time>2021-03-23T12:30:55Z</time>
      </trkpt>
      <trkpt lat="42.81514" lon="1.74384">
        <ele>1743.147</ele>
        <time>2021-03-23T12:30:57Z</time>
      </trkpt>
      <trkpt lat="42.81514" lon="1.74384">
        <ele>1743.145</ele>
        <time>2021-03-23T12:30:59Z</time>
      </trkpt>
      <trkpt lat="42.81514" lon="1.74384">
        <ele>1742.882</ele>
        <time>2021-03-23T12:31:01Z</time>
      </trkpt>
      <trkpt lat="42.81514" lon="1.74384">
        <ele>1742.88</ele>
        <time>2021-03-23T12:31:03Z</time>
      </trkpt>
      <trkpt lat="42.81514" lon="1.74384">
        <ele>1742.881</ele>
        <time>2021-03-23T12:31:05Z</time>
      </trkpt>
      <trkpt lat="42.81514" lon="1.74384">
        <ele>1742.885</ele>
        <time>2021-03-23T12:31:07Z</time>
      </trkpt>
      <trkpt lat="42.81514" lon="1.74384">
        <ele>1742.887</ele>
        <time>2021-03-23T12:31:09Z</time>
      </trkpt>
      <trkpt lat="42.81514" lon="1.74384">
        <ele>1742.888</ele>
        <time>2021-03-23T12:31:11Z</time>
      </trkpt>
      <trkpt lat="42.81514" lon="1.74384">
        <ele>1742.889</ele>
        <time>2021-03-23T12:31:13Z</time>
      </trkpt>
      <trkpt lat="42.81514" lon="1.74384">
        <ele>1742.89</ele>
        <time>2021-03-23T12:31:15Z</time>
      </trkpt>
      <trkpt lat="42.81514" lon="1.74384">
        <ele>1742.889</ele>
        <time>2021-03-23T12:31:17Z</time>
      </trkpt>
      <trkpt lat="42.81514" lon="1.74384">
        <ele>1742.884</ele>
        <time>2021-03-23T12:31:19Z</time>
      </trkpt>
      <trkpt lat="42.81514" lon="1.74384">
        <ele>1742.881</ele>
        <time>2021-03-23T12:31:21Z</time>
      </trkpt>
      <trkpt lat="42.81514" lon="1.74384">
        <ele>1742.877</ele>
        <time>2021-03-23T12:31:23Z</time>
      </trkpt>
      <trkpt lat="42.81514" lon="1.74384">
        <ele>1742.872</ele>
        <time>2021-03-23T12:31:25Z</time>
      </trkpt>
      <trkpt lat="42.81514" lon="1.74384">
        <ele>1742.869</ele>
        <time>2021-03-23T12:31:27Z</time>
      </trkpt>
      <trkpt lat="42.81514" lon="1.74384">
        <ele>1742.865</ele>
        <time>2021-03-23T12:31:29Z</time>
      </trkpt>
      <trkpt lat="42.81514" lon="1.74384">
        <ele>1742.865</ele>
        <time>2021-03-23T12:31:31Z</time>
      </trkpt>
      <trkpt lat="42.81514" lon="1.74384">
        <ele>1742.866</ele>
        <time>2021-03-23T12:31:33Z</time>
      </trkpt>
      <trkpt lat="42.81514" lon="1.74384">
        <ele>1742.863</ele>
        <time>2021-03-23T12:31:35Z</time>
      </trkpt>
      <trkpt lat="42.81514" lon="1.74384">
        <ele>1742.865</ele>
        <time>2021-03-23T12:31:37Z</time>
      </trkpt>
      <trkpt lat="42.81514" lon="1.74384">
        <ele>1742.862</ele>
        <time>2021-03-23T12:31:39Z</time>
      </trkpt>
      <trkpt lat="42.81514" lon="1.74384">
        <ele>1742.861</ele>
        <time>2021-03-23T12:31:41Z</time>
      </trkpt>
      <trkpt lat="42.81514" lon="1.74384">
        <ele>1742.861</ele>
        <time>2021-03-23T12:31:43Z</time>
      </trkpt>
      <trkpt lat="42.81514" lon="1.74384">
        <ele>1742.857</ele>
        <time>2021-03-23T12:31:45Z</time>
      </trkpt>
      <trkpt lat="42.81514" lon="1.74384">
        <ele>1742.852</ele>
        <time>2021-03-23T12:31:47Z</time>
      </trkpt>
      <trkpt lat="42.81514" lon="1.74384">
        <ele>1742.853</ele>
        <time>2021-03-23T12:31:49Z</time>
      </trkpt>
      <trkpt lat="42.81514" lon="1.74384">
        <ele>1742.852</ele>
        <time>2021-03-23T12:31:51Z</time>
      </trkpt>
      <trkpt lat="42.81514" lon="1.74384">
        <ele>1742.847</ele>
        <time>2021-03-23T12:31:53Z</time>
      </trkpt>
      <trkpt lat="42.81514" lon="1.74384">
        <ele>1742.843</ele>
        <time>2021-03-23T12:31:55Z</time>
      </trkpt>
      <trkpt lat="42.81514" lon="1.74384">
        <ele>1742.84</ele>
        <time>2021-03-23T12:31:57Z</time>
      </trkpt>
      <trkpt lat="42.81514" lon="1.74384">
        <ele>1742.839</ele>
        <time>2021-03-23T12:31:59Z</time>
      </trkpt>
      <trkpt lat="42.81514" lon="1.74384">
        <ele>1742.838</ele>
        <time>2021-03-23T12:32:01Z</time>
      </trkpt>
      <trkpt lat="42.81514" lon="1.74384">
        <ele>1742.837</ele>
        <time>2021-03-23T12:32:03Z</time>
      </trkpt>
      <trkpt lat="42.81514" lon="1.74384">
        <ele>1742.836</ele>
        <time>2021-03-23T12:32:05Z</time>
      </trkpt>
      <trkpt lat="42.81514" lon="1.74384">
        <ele>1742.836</ele>
        <time>2021-03-23T12:32:07Z</time>
      </trkpt>
      <trkpt lat="42.81514" lon="1.74384">
        <ele>1742.839</ele>
        <time>2021-03-23T12:32:09Z</time>
      </trkpt>
      <trkpt lat="42.81514" lon="1.74384">
        <ele>1742.839</ele>
        <time>2021-03-23T12:32:11Z</time>
      </trkpt>
      <trkpt lat="42.81514" lon="1.74384">
        <ele>1742.839</ele>
        <time>2021-03-23T12:32:13Z</time>
      </trkpt>
      <trkpt lat="42.81514" lon="1.74384">
        <ele>1742.839</ele>
        <time>2021-03-23T12:32:15Z</time>
      </trkpt>
      <trkpt lat="42.81514" lon="1.74384">
        <ele>1742.842</ele>
        <time>2021-03-23T12:32:17Z</time>
      </trkpt>
      <trkpt lat="42.81514" lon="1.74384">
        <ele>1742.838</ele>
        <time>2021-03-23T12:32:19Z</time>
      </trkpt>
      <trkpt lat="42.81514" lon="1.74384">
        <ele>1742.837</ele>
        <time>2021-03-23T12:32:21Z</time>
      </trkpt>
      <trkpt lat="42.81514" lon="1.74384">
        <ele>1742.837</ele>
        <time>2021-03-23T12:32:23Z</time>
      </trkpt>
      <trkpt lat="42.81514" lon="1.74384">
        <ele>1742.836</ele>
        <time>2021-03-23T12:32:25Z</time>
      </trkpt>
      <trkpt lat="42.81514" lon="1.74384">
        <ele>1742.836</ele>
        <time>2021-03-23T12:32:27Z</time>
      </trkpt>
      <trkpt lat="42.81514" lon="1.74384">
        <ele>1742.836</ele>
        <time>2021-03-23T12:32:29Z</time>
      </trkpt>
      <trkpt lat="42.81514" lon="1.74384">
        <ele>1742.835</ele>
        <time>2021-03-23T12:32:31Z</time>
      </trkpt>
      <trkpt lat="42.81514" lon="1.74384">
        <ele>1742.834</ele>
        <time>2021-03-23T12:32:33Z</time>
      </trkpt>
      <trkpt lat="42.81514" lon="1.74384">
        <ele>1742.831</ele>
        <time>2021-03-23T12:32:35Z</time>
      </trkpt>
      <trkpt lat="42.81514" lon="1.74384">
        <ele>1742.826</ele>
        <time>2021-03-23T12:32:37Z</time>
      </trkpt>
      <trkpt lat="42.81514" lon="1.74384">
        <ele>1742.824</ele>
        <time>2021-03-23T12:32:39Z</time>
      </trkpt>
      <trkpt lat="42.81514" lon="1.74384">
        <ele>1742.823</ele>
        <time>2021-03-23T12:32:41Z</time>
      </trkpt>
      <trkpt lat="42.81514" lon="1.74384">
        <ele>1742.821</ele>
        <time>2021-03-23T12:32:43Z</time>
      </trkpt>
      <trkpt lat="42.81514" lon="1.74384">
        <ele>1742.822</ele>
        <time>2021-03-23T12:32:45Z</time>
      </trkpt>
      <trkpt lat="42.81514" lon="1.74384">
        <ele>1742.821</ele>
        <time>2021-03-23T12:32:47Z</time>
      </trkpt>
      <trkpt lat="42.81514" lon="1.74384">
        <ele>1742.821</ele>
        <time>2021-03-23T12:32:49Z</time>
      </trkpt>
      <trkpt lat="42.81514" lon="1.74384">
        <ele>1742.826</ele>
        <time>2021-03-23T12:32:51Z</time>
      </trkpt>
      <trkpt lat="42.81514" lon="1.74384">
        <ele>1742.827</ele>
        <time>2021-03-23T12:32:53Z</time>
      </trkpt>
      <trkpt lat="42.81514" lon="1.74384">
        <ele>1742.83</ele>
        <time>2021-03-23T12:32:55Z</time>
      </trkpt>
      <trkpt lat="42.81514" lon="1.74384">
        <ele>1742.826</ele>
        <time>2021-03-23T12:32:57Z</time>
      </trkpt>
      <trkpt lat="42.81514" lon="1.74384">
        <ele>1742.829</ele>
        <time>2021-03-23T12:32:59Z</time>
      </trkpt>
      <trkpt lat="42.81514" lon="1.74384">
        <ele>1742.829</ele>
        <time>2021-03-23T12:33:01Z</time>
      </trkpt>
      <trkpt lat="42.81514" lon="1.74384">
        <ele>1742.831</ele>
        <time>2021-03-23T12:33:03Z</time>
      </trkpt>
      <trkpt lat="42.81514" lon="1.74384">
        <ele>1742.835</ele>
        <time>2021-03-23T12:33:05Z</time>
      </trkpt>
      <trkpt lat="42.81514" lon="1.74384">
        <ele>1742.836</ele>
        <time>2021-03-23T12:33:07Z</time>
      </trkpt>
      <trkpt lat="42.81514" lon="1.74384">
        <ele>1742.836</ele>
        <time>2021-03-23T12:33:09Z</time>
      </trkpt>
      <trkpt lat="42.81514" lon="1.74384">
        <ele>1742.835</ele>
        <time>2021-03-23T12:33:11Z</time>
      </trkpt>
      <trkpt lat="42.81514" lon="1.74384">
        <ele>1742.834</ele>
        <time>2021-03-23T12:33:13Z</time>
      </trkpt>
      <trkpt lat="42.81514" lon="1.74384">
        <ele>1742.832</ele>
        <time>2021-03-23T12:33:15Z</time>
      </trkpt>
      <trkpt lat="42.81514" lon="1.74384">
        <ele>1742.831</ele>
        <time>2021-03-23T12:33:17Z</time>
      </trkpt>
      <trkpt lat="42.81514" lon="1.74384">
        <ele>1742.83</ele>
        <time>2021-03-23T12:33:19Z</time>
      </trkpt>
      <trkpt lat="42.81514" lon="1.74384">
        <ele>1742.828</ele>
        <time>2021-03-23T12:33:21Z</time>
      </trkpt>
      <trkpt lat="42.81514" lon="1.74384">
        <ele>1742.826</ele>
        <time>2021-03-23T12:33:23Z</time>
      </trkpt>
      <trkpt lat="42.81514" lon="1.74384">
        <ele>1742.823</ele>
        <time>2021-03-23T12:33:25Z</time>
      </trkpt>
      <trkpt lat="42.81514" lon="1.74384">
        <ele>1742.821</ele>
        <time>2021-03-23T12:33:27Z</time>
      </trkpt>
      <trkpt lat="42.81514" lon="1.74384">
        <ele>1742.82</ele>
        <time>2021-03-23T12:33:29Z</time>
      </trkpt>
      <trkpt lat="42.81514" lon="1.74384">
        <ele>1742.818</ele>
        <time>2021-03-23T12:33:31Z</time>
      </trkpt>
      <trkpt lat="42.81514" lon="1.74384">
        <ele>1742.817</ele>
        <time>2021-03-23T12:33:33Z</time>
      </trkpt>
      <trkpt lat="42.81514" lon="1.74384">
        <ele>1742.816</ele>
        <time>2021-03-23T12:33:35Z</time>
      </trkpt>
      <trkpt lat="42.81514" lon="1.74384">
        <ele>1742.814</ele>
        <time>2021-03-23T12:33:37Z</time>
      </trkpt>
      <trkpt lat="42.81514" lon="1.74384">
        <ele>1742.812</ele>
        <time>2021-03-23T12:33:39Z</time>
      </trkpt>
      <trkpt lat="42.81514" lon="1.74384">
        <ele>1742.811</ele>
        <time>2021-03-23T12:33:41Z</time>
      </trkpt>
      <trkpt lat="42.81514" lon="1.74384">
        <ele>1742.81</ele>
        <time>2021-03-23T12:33:43Z</time>
      </trkpt>
      <trkpt lat="42.81514" lon="1.74384">
        <ele>1742.811</ele>
        <time>2021-03-23T12:33:45Z</time>
      </trkpt>
      <trkpt lat="42.81514" lon="1.74384">
        <ele>1742.809</ele>
        <time>2021-03-23T12:33:47Z</time>
      </trkpt>
      <trkpt lat="42.81514" lon="1.74384">
        <ele>1742.811</ele>
        <time>2021-03-23T12:33:49Z</time>
      </trkpt>
      <trkpt lat="42.81514" lon="1.74384">
        <ele>1742.81</ele>
        <time>2021-03-23T12:33:51Z</time>
      </trkpt>
      <trkpt lat="42.81514" lon="1.74384">
        <ele>1742.81</ele>
        <time>2021-03-23T12:33:53Z</time>
      </trkpt>
      <trkpt lat="42.81514" lon="1.74384">
        <ele>1742.809</ele>
        <time>2021-03-23T12:33:55Z</time>
      </trkpt>
      <trkpt lat="42.81514" lon="1.74384">
        <ele>1742.809</ele>
        <time>2021-03-23T12:33:57Z</time>
      </trkpt>
      <trkpt lat="42.81514" lon="1.74384">
        <ele>1742.803</ele>
        <time>2021-03-23T12:33:59Z</time>
      </trkpt>
      <trkpt lat="42.81514" lon="1.74384">
        <ele>1742.802</ele>
        <time>2021-03-23T12:34:01Z</time>
      </trkpt>
      <trkpt lat="42.81514" lon="1.74384">
        <ele>1742.803</ele>
        <time>2021-03-23T12:34:03Z</time>
      </trkpt>
      <trkpt lat="42.81514" lon="1.74384">
        <ele>1742.801</ele>
        <time>2021-03-23T12:34:05Z</time>
      </trkpt>
      <trkpt lat="42.81514" lon="1.74384">
        <ele>1742.801</ele>
        <time>2021-03-23T12:34:07Z</time>
      </trkpt>
      <trkpt lat="42.81514" lon="1.74384">
        <ele>1742.799</ele>
        <time>2021-03-23T12:34:09Z</time>
      </trkpt>
      <trkpt lat="42.81514" lon="1.74384">
        <ele>1742.798</ele>
        <time>2021-03-23T12:34:11Z</time>
      </trkpt>
      <trkpt lat="42.81514" lon="1.74384">
        <ele>1742.798</ele>
        <time>2021-03-23T12:34:13Z</time>
      </trkpt>
      <trkpt lat="42.81514" lon="1.74384">
        <ele>1742.8</ele>
        <time>2021-03-23T12:34:15Z</time>
      </trkpt>
      <trkpt lat="42.81514" lon="1.74384">
        <ele>1742.804</ele>
        <time>2021-03-23T12:34:17Z</time>
      </trkpt>
      <trkpt lat="42.81514" lon="1.74384">
        <ele>1742.804</ele>
        <time>2021-03-23T12:34:19Z</time>
      </trkpt>
      <trkpt lat="42.81514" lon="1.74384">
        <ele>1742.804</ele>
        <time>2021-03-23T12:34:21Z</time>
      </trkpt>
      <trkpt lat="42.81514" lon="1.74384">
        <ele>1742.8</ele>
        <time>2021-03-23T12:34:23Z</time>
      </trkpt>
      <trkpt lat="42.81514" lon="1.74384">
        <ele>1742.799</ele>
        <time>2021-03-23T12:34:25Z</time>
      </trkpt>
      <trkpt lat="42.81514" lon="1.74384">
        <ele>1742.799</ele>
        <time>2021-03-23T12:34:27Z</time>
      </trkpt>
      <trkpt lat="42.81514" lon="1.74384">
        <ele>1742.799</ele>
        <time>2021-03-23T12:34:29Z</time>
      </trkpt>
      <trkpt lat="42.81514" lon="1.74384">
        <ele>1742.799</ele>
        <time>2021-03-23T12:34:31Z</time>
      </trkpt>
      <trkpt lat="42.81514" lon="1.74384">
        <ele>1742.802</ele>
        <time>2021-03-23T12:34:33Z</time>
      </trkpt>
      <trkpt lat="42.81514" lon="1.74384">
        <ele>1742.802</ele>
        <time>2021-03-23T12:34:35Z</time>
      </trkpt>
      <trkpt lat="42.81514" lon="1.74384">
        <ele>1742.796</ele>
        <time>2021-03-23T12:34:37Z</time>
      </trkpt>
      <trkpt lat="42.81514" lon="1.74384">
        <ele>1742.789</ele>
        <time>2021-03-23T12:34:39Z</time>
      </trkpt>
      <trkpt lat="42.81514" lon="1.74384">
        <ele>1742.78</ele>
        <time>2021-03-23T12:34:41Z</time>
      </trkpt>
      <trkpt lat="42.81514" lon="1.74384">
        <ele>1742.783</ele>
        <time>2021-03-23T12:34:43Z</time>
      </trkpt>
      <trkpt lat="42.81514" lon="1.74384">
        <ele>1742.786</ele>
        <time>2021-03-23T12:34:45Z</time>
      </trkpt>
      <trkpt lat="42.81514" lon="1.74384">
        <ele>1742.79</ele>
        <time>2021-03-23T12:34:47Z</time>
      </trkpt>
      <trkpt lat="42.81514" lon="1.74384">
        <ele>1742.793</ele>
        <time>2021-03-23T12:34:49Z</time>
      </trkpt>
      <trkpt lat="42.81514" lon="1.74384">
        <ele>1742.793</ele>
        <time>2021-03-23T12:34:51Z</time>
      </trkpt>
      <trkpt lat="42.81514" lon="1.74384">
        <ele>1742.791</ele>
        <time>2021-03-23T12:34:53Z</time>
      </trkpt>
      <trkpt lat="42.81514" lon="1.74384">
        <ele>1742.795</ele>
        <time>2021-03-23T12:34:55Z</time>
      </trkpt>
      <trkpt lat="42.81514" lon="1.74384">
        <ele>1742.792</ele>
        <time>2021-03-23T12:34:57Z</time>
      </trkpt>
      <trkpt lat="42.81514" lon="1.74384">
        <ele>1742.792</ele>
        <time>2021-03-23T12:34:59Z</time>
      </trkpt>
      <trkpt lat="42.81514" lon="1.74384">
        <ele>1742.792</ele>
        <time>2021-03-23T12:35:01Z</time>
      </trkpt>
      <trkpt lat="42.81514" lon="1.74384">
        <ele>1742.801</ele>
        <time>2021-03-23T12:35:03Z</time>
      </trkpt>
      <trkpt lat="42.81514" lon="1.74384">
        <ele>1742.808</ele>
        <time>2021-03-23T12:35:05Z</time>
      </trkpt>
      <trkpt lat="42.81514" lon="1.74384">
        <ele>1742.817</ele>
        <time>2021-03-23T12:35:07Z</time>
      </trkpt>
      <trkpt lat="42.81514" lon="1.74384">
        <ele>1742.818</ele>
        <time>2021-03-23T12:35:09Z</time>
      </trkpt>
      <trkpt lat="42.81514" lon="1.74384">
        <ele>1742.814</ele>
        <time>2021-03-23T12:35:11Z</time>
      </trkpt>
      <trkpt lat="42.81514" lon="1.74384">
        <ele>1742.815</ele>
        <time>2021-03-23T12:35:13Z</time>
      </trkpt>
      <trkpt lat="42.81514" lon="1.74384">
        <ele>1742.822</ele>
        <time>2021-03-23T12:35:15Z</time>
      </trkpt>
      <trkpt lat="42.81514" lon="1.74384">
        <ele>1742.828</ele>
        <time>2021-03-23T12:35:17Z</time>
      </trkpt>
      <trkpt lat="42.81514" lon="1.74384">
        <ele>1742.831</ele>
        <time>2021-03-23T12:35:19Z</time>
      </trkpt>
      <trkpt lat="42.81514" lon="1.74384">
        <ele>1742.841</ele>
        <time>2021-03-23T12:35:21Z</time>
      </trkpt>
      <trkpt lat="42.81514" lon="1.74384">
        <ele>1742.842</ele>
        <time>2021-03-23T12:35:23Z</time>
      </trkpt>
      <trkpt lat="42.81514" lon="1.74384">
        <ele>1742.842</ele>
        <time>2021-03-23T12:35:25Z</time>
      </trkpt>
      <trkpt lat="42.81514" lon="1.74384">
        <ele>1742.842</ele>
        <time>2021-03-23T12:35:27Z</time>
      </trkpt>
      <trkpt lat="42.81514" lon="1.74384">
        <ele>1742.84</ele>
        <time>2021-03-23T12:35:29Z</time>
      </trkpt>
      <trkpt lat="42.81514" lon="1.74384">
        <ele>1742.841</ele>
        <time>2021-03-23T12:35:31Z</time>
      </trkpt>
      <trkpt lat="42.81514" lon="1.74384">
        <ele>1742.845</ele>
        <time>2021-03-23T12:35:33Z</time>
      </trkpt>
      <trkpt lat="42.81514" lon="1.74384">
        <ele>1742.845</ele>
        <time>2021-03-23T12:35:35Z</time>
      </trkpt>
      <trkpt lat="42.81514" lon="1.74384">
        <ele>1742.848</ele>
        <time>2021-03-23T12:35:37Z</time>
      </trkpt>
      <trkpt lat="42.81514" lon="1.74384">
        <ele>1742.852</ele>
        <time>2021-03-23T12:35:39Z</time>
      </trkpt>
      <trkpt lat="42.81514" lon="1.74384">
        <ele>1742.854</ele>
        <time>2021-03-23T12:35:41Z</time>
      </trkpt>
      <trkpt lat="42.81514" lon="1.74384">
        <ele>1742.848</ele>
        <time>2021-03-23T12:35:43Z</time>
      </trkpt>
      <trkpt lat="42.81514" lon="1.74384">
        <ele>1742.85</ele>
        <time>2021-03-23T12:35:45Z</time>
      </trkpt>
      <trkpt lat="42.81514" lon="1.74384">
        <ele>1742.952</ele>
        <time>2021-03-23T12:35:47Z</time>
      </trkpt>
      <trkpt lat="42.81513" lon="1.74385">
        <ele>1742.775</ele>
        <time>2021-03-23T12:35:49Z</time>
      </trkpt>
      <trkpt lat="42.81513" lon="1.74385">
        <ele>1742.739</ele>
        <time>2021-03-23T12:35:51Z</time>
      </trkpt>
      <trkpt lat="42.81513" lon="1.74386">
        <ele>1743.421</ele>
        <time>2021-03-23T12:35:53Z</time>
      </trkpt>
      <trkpt lat="42.81513" lon="1.74386">
        <ele>1743.423</ele>
        <time>2021-03-23T12:35:55Z</time>
      </trkpt>
      <trkpt lat="42.81513" lon="1.74386">
        <ele>1743.418</ele>
        <time>2021-03-23T12:35:57Z</time>
      </trkpt>
      <trkpt lat="42.81513" lon="1.74386">
        <ele>1743.415</ele>
        <time>2021-03-23T12:35:59Z</time>
      </trkpt>
      <trkpt lat="42.81513" lon="1.74386">
        <ele>1742.654</ele>
        <time>2021-03-23T12:36:01Z</time>
      </trkpt>
      <trkpt lat="42.81512" lon="1.74385">
        <ele>1742.495</ele>
        <time>2021-03-23T12:36:03Z</time>
      </trkpt>
      <trkpt lat="42.81512" lon="1.74385">
        <ele>1742.256</ele>
        <time>2021-03-23T12:36:05Z</time>
      </trkpt>
      <trkpt lat="42.81512" lon="1.74385">
        <ele>1742.236</ele>
        <time>2021-03-23T12:36:07Z</time>
      </trkpt>
      <trkpt lat="42.81512" lon="1.74385">
        <ele>1742.054</ele>
        <time>2021-03-23T12:36:09Z</time>
      </trkpt>
      <trkpt lat="42.81513" lon="1.74385">
        <ele>1742.1</ele>
        <time>2021-03-23T12:36:11Z</time>
      </trkpt>
      <trkpt lat="42.81513" lon="1.74385">
        <ele>1742.102</ele>
        <time>2021-03-23T12:36:13Z</time>
      </trkpt>
      <trkpt lat="42.81513" lon="1.74385">
        <ele>1742.105</ele>
        <time>2021-03-23T12:36:15Z</time>
      </trkpt>
      <trkpt lat="42.81513" lon="1.74385">
        <ele>1742.107</ele>
        <time>2021-03-23T12:36:17Z</time>
      </trkpt>
      <trkpt lat="42.81513" lon="1.74385">
        <ele>1742.109</ele>
        <time>2021-03-23T12:36:19Z</time>
      </trkpt>
      <trkpt lat="42.81513" lon="1.74385">
        <ele>1742.11</ele>
        <time>2021-03-23T12:36:21Z</time>
      </trkpt>
      <trkpt lat="42.81513" lon="1.74385">
        <ele>1742.109</ele>
        <time>2021-03-23T12:36:23Z</time>
      </trkpt>
      <trkpt lat="42.81513" lon="1.74385">
        <ele>1742.109</ele>
        <time>2021-03-23T12:36:24Z</time>
      </trkpt>
      <trkpt lat="42.81513" lon="1.74385">
        <ele>1742.11</ele>
        <time>2021-03-23T12:36:27Z</time>
      </trkpt>
      <trkpt lat="42.81513" lon="1.74385">
        <ele>1742.112</ele>
        <time>2021-03-23T12:36:29Z</time>
      </trkpt>
      <trkpt lat="42.81513" lon="1.74385">
        <ele>1742.116</ele>
        <time>2021-03-23T12:36:31Z</time>
      </trkpt>
      <trkpt lat="42.81513" lon="1.74385">
        <ele>1742.117</ele>
        <time>2021-03-23T12:36:33Z</time>
      </trkpt>
      <trkpt lat="42.81513" lon="1.74385">
        <ele>1742.121</ele>
        <time>2021-03-23T12:36:35Z</time>
      </trkpt>
      <trkpt lat="42.81513" lon="1.74385">
        <ele>1742.125</ele>
        <time>2021-03-23T12:36:37Z</time>
      </trkpt>
      <trkpt lat="42.81513" lon="1.74385">
        <ele>1742.127</ele>
        <time>2021-03-23T12:36:39Z</time>
      </trkpt>
      <trkpt lat="42.81513" lon="1.74385">
        <ele>1742.125</ele>
        <time>2021-03-23T12:36:41Z</time>
      </trkpt>
      <trkpt lat="42.81513" lon="1.74385">
        <ele>1742.126</ele>
        <time>2021-03-23T12:36:43Z</time>
      </trkpt>
      <trkpt lat="42.81513" lon="1.74385">
        <ele>1742.128</ele>
        <time>2021-03-23T12:36:45Z</time>
      </trkpt>
      <trkpt lat="42.81513" lon="1.74385">
        <ele>1742.126</ele>
        <time>2021-03-23T12:36:47Z</time>
      </trkpt>
      <trkpt lat="42.81513" lon="1.74385">
        <ele>1742.123</ele>
        <time>2021-03-23T12:36:49Z</time>
      </trkpt>
      <trkpt lat="42.81513" lon="1.74385">
        <ele>1742.124</ele>
        <time>2021-03-23T12:36:51Z</time>
      </trkpt>
      <trkpt lat="42.81513" lon="1.74385">
        <ele>1742.12</ele>
        <time>2021-03-23T12:36:53Z</time>
      </trkpt>
      <trkpt lat="42.81513" lon="1.74385">
        <ele>1742.113</ele>
        <time>2021-03-23T12:36:55Z</time>
      </trkpt>
      <trkpt lat="42.81513" lon="1.74385">
        <ele>1742.112</ele>
        <time>2021-03-23T12:36:57Z</time>
      </trkpt>
      <trkpt lat="42.81513" lon="1.74385">
        <ele>1742.109</ele>
        <time>2021-03-23T12:36:59Z</time>
      </trkpt>
      <trkpt lat="42.81513" lon="1.74385">
        <ele>1742.112</ele>
        <time>2021-03-23T12:37:01Z</time>
      </trkpt>
      <trkpt lat="42.81513" lon="1.74385">
        <ele>1742.111</ele>
        <time>2021-03-23T12:37:03Z</time>
      </trkpt>
      <trkpt lat="42.81513" lon="1.74385">
        <ele>1742.109</ele>
        <time>2021-03-23T12:37:05Z</time>
      </trkpt>
      <trkpt lat="42.81513" lon="1.74385">
        <ele>1742.106</ele>
        <time>2021-03-23T12:37:07Z</time>
      </trkpt>
      <trkpt lat="42.81513" lon="1.74385">
        <ele>1742.105</ele>
        <time>2021-03-23T12:37:09Z</time>
      </trkpt>
      <trkpt lat="42.81513" lon="1.74385">
        <ele>1742.103</ele>
        <time>2021-03-23T12:37:11Z</time>
      </trkpt>
      <trkpt lat="42.81513" lon="1.74385">
        <ele>1742.1</ele>
        <time>2021-03-23T12:37:13Z</time>
      </trkpt>
      <trkpt lat="42.81513" lon="1.74385">
        <ele>1742.098</ele>
        <time>2021-03-23T12:37:15Z</time>
      </trkpt>
      <trkpt lat="42.81513" lon="1.74385">
        <ele>1742.097</ele>
        <time>2021-03-23T12:37:17Z</time>
      </trkpt>
      <trkpt lat="42.81513" lon="1.74385">
        <ele>1742.095</ele>
        <time>2021-03-23T12:37:19Z</time>
      </trkpt>
      <trkpt lat="42.81513" lon="1.74385">
        <ele>1742.097</ele>
        <time>2021-03-23T12:37:21Z</time>
      </trkpt>
      <trkpt lat="42.81513" lon="1.74385">
        <ele>1742.095</ele>
        <time>2021-03-23T12:37:23Z</time>
      </trkpt>
      <trkpt lat="42.81513" lon="1.74385">
        <ele>1742.097</ele>
        <time>2021-03-23T12:37:25Z</time>
      </trkpt>
      <trkpt lat="42.81513" lon="1.74385">
        <ele>1742.093</ele>
        <time>2021-03-23T12:37:27Z</time>
      </trkpt>
      <trkpt lat="42.81513" lon="1.74385">
        <ele>1742.092</ele>
        <time>2021-03-23T12:37:29Z</time>
      </trkpt>
      <trkpt lat="42.81513" lon="1.74385">
        <ele>1742.093</ele>
        <time>2021-03-23T12:37:31Z</time>
      </trkpt>
      <trkpt lat="42.81513" lon="1.74385">
        <ele>1742.088</ele>
        <time>2021-03-23T12:37:33Z</time>
      </trkpt>
      <trkpt lat="42.81513" lon="1.74385">
        <ele>1742.084</ele>
        <time>2021-03-23T12:37:35Z</time>
      </trkpt>
      <trkpt lat="42.81513" lon="1.74385">
        <ele>1742.085</ele>
        <time>2021-03-23T12:37:37Z</time>
      </trkpt>
      <trkpt lat="42.81513" lon="1.74385">
        <ele>1742.088</ele>
        <time>2021-03-23T12:37:39Z</time>
      </trkpt>
      <trkpt lat="42.81513" lon="1.74385">
        <ele>1742.084</ele>
        <time>2021-03-23T12:37:41Z</time>
      </trkpt>
      <trkpt lat="42.81513" lon="1.74385">
        <ele>1742.08</ele>
        <time>2021-03-23T12:37:43Z</time>
      </trkpt>
      <trkpt lat="42.81513" lon="1.74385">
        <ele>1742.079</ele>
        <time>2021-03-23T12:37:45Z</time>
      </trkpt>
      <trkpt lat="42.81513" lon="1.74385">
        <ele>1742.081</ele>
        <time>2021-03-23T12:37:47Z</time>
      </trkpt>
      <trkpt lat="42.81513" lon="1.74385">
        <ele>1742.085</ele>
        <time>2021-03-23T12:37:49Z</time>
      </trkpt>
      <trkpt lat="42.81513" lon="1.74385">
        <ele>1742.084</ele>
        <time>2021-03-23T12:37:51Z</time>
      </trkpt>
      <trkpt lat="42.81513" lon="1.74385">
        <ele>1742.08</ele>
        <time>2021-03-23T12:37:53Z</time>
      </trkpt>
      <trkpt lat="42.81513" lon="1.74385">
        <ele>1742.081</ele>
        <time>2021-03-23T12:37:55Z</time>
      </trkpt>
      <trkpt lat="42.81513" lon="1.74385">
        <ele>1742.079</ele>
        <time>2021-03-23T12:37:57Z</time>
      </trkpt>
      <trkpt lat="42.81513" lon="1.74385">
        <ele>1742.079</ele>
        <time>2021-03-23T12:37:59Z</time>
      </trkpt>
      <trkpt lat="42.81513" lon="1.74385">
        <ele>1742.077</ele>
        <time>2021-03-23T12:38:01Z</time>
      </trkpt>
      <trkpt lat="42.81513" lon="1.74385">
        <ele>1742.075</ele>
        <time>2021-03-23T12:38:03Z</time>
      </trkpt>
      <trkpt lat="42.81513" lon="1.74385">
        <ele>1742.073</ele>
        <time>2021-03-23T12:38:05Z</time>
      </trkpt>
      <trkpt lat="42.81513" lon="1.74385">
        <ele>1742.074</ele>
        <time>2021-03-23T12:38:07Z</time>
      </trkpt>
      <trkpt lat="42.81513" lon="1.74385">
        <ele>1742.075</ele>
        <time>2021-03-23T12:38:09Z</time>
      </trkpt>
      <trkpt lat="42.81513" lon="1.74385">
        <ele>1742.074</ele>
        <time>2021-03-23T12:38:11Z</time>
      </trkpt>
      <trkpt lat="42.81513" lon="1.74385">
        <ele>1742.073</ele>
        <time>2021-03-23T12:38:13Z</time>
      </trkpt>
      <trkpt lat="42.81513" lon="1.74385">
        <ele>1742.07</ele>
        <time>2021-03-23T12:38:15Z</time>
      </trkpt>
      <trkpt lat="42.81512" lon="1.74385">
        <ele>1742.061</ele>
        <time>2021-03-23T12:38:17Z</time>
      </trkpt>
      <trkpt lat="42.81512" lon="1.74385">
        <ele>1742.058</ele>
        <time>2021-03-23T12:38:19Z</time>
      </trkpt>
      <trkpt lat="42.81512" lon="1.74385">
        <ele>1742.056</ele>
        <time>2021-03-23T12:38:21Z</time>
      </trkpt>
      <trkpt lat="42.81512" lon="1.74385">
        <ele>1742.058</ele>
        <time>2021-03-23T12:38:23Z</time>
      </trkpt>
      <trkpt lat="42.81512" lon="1.74385">
        <ele>1742.058</ele>
        <time>2021-03-23T12:38:25Z</time>
      </trkpt>
      <trkpt lat="42.81512" lon="1.74385">
        <ele>1742.057</ele>
        <time>2021-03-23T12:38:27Z</time>
      </trkpt>
      <trkpt lat="42.81512" lon="1.74384">
        <ele>1742.053</ele>
        <time>2021-03-23T12:38:29Z</time>
      </trkpt>
      <trkpt lat="42.81512" lon="1.74384">
        <ele>1742.053</ele>
        <time>2021-03-23T12:38:31Z</time>
      </trkpt>
      <trkpt lat="42.81512" lon="1.74384">
        <ele>1742.053</ele>
        <time>2021-03-23T12:38:33Z</time>
      </trkpt>
      <trkpt lat="42.81512" lon="1.74384">
        <ele>1742.05</ele>
        <time>2021-03-23T12:38:35Z</time>
      </trkpt>
      <trkpt lat="42.81512" lon="1.74384">
        <ele>1742.048</ele>
        <time>2021-03-23T12:38:37Z</time>
      </trkpt>
      <trkpt lat="42.81512" lon="1.74384">
        <ele>1742.048</ele>
        <time>2021-03-23T12:38:39Z</time>
      </trkpt>
      <trkpt lat="42.81513" lon="1.74385">
        <ele>1742.129</ele>
        <time>2021-03-23T12:38:41Z</time>
      </trkpt>
      <trkpt lat="42.81513" lon="1.74385">
        <ele>1742.044</ele>
        <time>2021-03-23T12:38:43Z</time>
      </trkpt>
      <trkpt lat="42.81513" lon="1.74385">
        <ele>1742.046</ele>
        <time>2021-03-23T12:38:45Z</time>
      </trkpt>
      <trkpt lat="42.81513" lon="1.74385">
        <ele>1742.045</ele>
        <time>2021-03-23T12:38:47Z</time>
      </trkpt>
      <trkpt lat="42.81513" lon="1.74385">
        <ele>1742.042</ele>
        <time>2021-03-23T12:38:49Z</time>
      </trkpt>
      <trkpt lat="42.81513" lon="1.74385">
        <ele>1742.042</ele>
        <time>2021-03-23T12:38:51Z</time>
      </trkpt>
      <trkpt lat="42.81513" lon="1.74385">
        <ele>1742.04</ele>
        <time>2021-03-23T12:38:53Z</time>
      </trkpt>
      <trkpt lat="42.81513" lon="1.74385">
        <ele>1742.04</ele>
        <time>2021-03-23T12:38:55Z</time>
      </trkpt>
      <trkpt lat="42.81513" lon="1.74385">
        <ele>1742.042</ele>
        <time>2021-03-23T12:38:57Z</time>
      </trkpt>
      <trkpt lat="42.81513" lon="1.74385">
        <ele>1742.044</ele>
        <time>2021-03-23T12:38:59Z</time>
      </trkpt>
      <trkpt lat="42.81513" lon="1.74385">
        <ele>1742.05</ele>
        <time>2021-03-23T12:39:01Z</time>
      </trkpt>
      <trkpt lat="42.81513" lon="1.74385">
        <ele>1742.051</ele>
        <time>2021-03-23T12:39:03Z</time>
      </trkpt>
      <trkpt lat="42.81513" lon="1.74385">
        <ele>1742.05</ele>
        <time>2021-03-23T12:39:05Z</time>
      </trkpt>
      <trkpt lat="42.81513" lon="1.74385">
        <ele>1742.049</ele>
        <time>2021-03-23T12:39:07Z</time>
      </trkpt>
      <trkpt lat="42.81513" lon="1.74385">
        <ele>1741.927</ele>
        <time>2021-03-23T12:39:09Z</time>
      </trkpt>
      <trkpt lat="42.81512" lon="1.74385">
        <ele>1742.421</ele>
        <time>2021-03-23T12:39:11Z</time>
      </trkpt>
      <trkpt lat="42.81512" lon="1.74384">
        <ele>1742.415</ele>
        <time>2021-03-23T12:39:13Z</time>
      </trkpt>
      <trkpt lat="42.81512" lon="1.74384">
        <ele>1742.418</ele>
        <time>2021-03-23T12:39:15Z</time>
      </trkpt>
      <trkpt lat="42.81512" lon="1.74384">
        <ele>1742.42</ele>
        <time>2021-03-23T12:39:17Z</time>
      </trkpt>
      <trkpt lat="42.81512" lon="1.74384">
        <ele>1742.415</ele>
        <time>2021-03-23T12:39:19Z</time>
      </trkpt>
      <trkpt lat="42.81512" lon="1.74384">
        <ele>1742.413</ele>
        <time>2021-03-23T12:39:21Z</time>
      </trkpt>
      <trkpt lat="42.81512" lon="1.74384">
        <ele>1742.408</ele>
        <time>2021-03-23T12:39:23Z</time>
      </trkpt>
      <trkpt lat="42.81512" lon="1.74384">
        <ele>1742.407</ele>
        <time>2021-03-23T12:39:25Z</time>
      </trkpt>
      <trkpt lat="42.81512" lon="1.74384">
        <ele>1741.755</ele>
        <time>2021-03-23T12:39:27Z</time>
      </trkpt>
      <trkpt lat="42.81512" lon="1.74384">
        <ele>1741.772</ele>
        <time>2021-03-23T12:39:29Z</time>
      </trkpt>
      <trkpt lat="42.81512" lon="1.74384">
        <ele>1741.781</ele>
        <time>2021-03-23T12:39:31Z</time>
      </trkpt>
      <trkpt lat="42.81513" lon="1.74384">
        <ele>1741.484</ele>
        <time>2021-03-23T12:39:33Z</time>
      </trkpt>
      <trkpt lat="42.81512" lon="1.74384">
        <ele>1740.218</ele>
        <time>2021-03-23T12:39:35Z</time>
      </trkpt>
      <trkpt lat="42.81513" lon="1.74384">
        <ele>1739.5</ele>
        <time>2021-03-23T12:39:37Z</time>
      </trkpt>
      <trkpt lat="42.81513" lon="1.74384">
        <ele>1739.538</ele>
        <time>2021-03-23T12:39:39Z</time>
      </trkpt>
      <trkpt lat="42.81513" lon="1.74384">
        <ele>1739.542</ele>
        <time>2021-03-23T12:39:41Z</time>
      </trkpt>
      <trkpt lat="42.81513" lon="1.74384">
        <ele>1739.546</ele>
        <time>2021-03-23T12:39:43Z</time>
      </trkpt>
      <trkpt lat="42.81513" lon="1.74384">
        <ele>1739.548</ele>
        <time>2021-03-23T12:39:45Z</time>
      </trkpt>
      <trkpt lat="42.81513" lon="1.74384">
        <ele>1739.55</ele>
        <time>2021-03-23T12:39:47Z</time>
      </trkpt>
      <trkpt lat="42.81513" lon="1.74384">
        <ele>1739.55</ele>
        <time>2021-03-23T12:39:49Z</time>
      </trkpt>
      <trkpt lat="42.81513" lon="1.74384">
        <ele>1739.55</ele>
        <time>2021-03-23T12:39:51Z</time>
      </trkpt>
      <trkpt lat="42.81513" lon="1.74384">
        <ele>1739.55</ele>
        <time>2021-03-23T12:39:53Z</time>
      </trkpt>
      <trkpt lat="42.81513" lon="1.74384">
        <ele>1739.552</ele>
        <time>2021-03-23T12:39:55Z</time>
      </trkpt>
      <trkpt lat="42.81513" lon="1.74384">
        <ele>1739.551</ele>
        <time>2021-03-23T12:39:57Z</time>
      </trkpt>
      <trkpt lat="42.81513" lon="1.74384">
        <ele>1739.553</ele>
        <time>2021-03-23T12:39:59Z</time>
      </trkpt>
      <trkpt lat="42.81513" lon="1.74384">
        <ele>1739.555</ele>
        <time>2021-03-23T12:40:01Z</time>
      </trkpt>
      <trkpt lat="42.81513" lon="1.74384">
        <ele>1739.556</ele>
        <time>2021-03-23T12:40:03Z</time>
      </trkpt>
      <trkpt lat="42.81513" lon="1.74384">
        <ele>1739.557</ele>
        <time>2021-03-23T12:40:05Z</time>
      </trkpt>
      <trkpt lat="42.81513" lon="1.74384">
        <ele>1739.555</ele>
        <time>2021-03-23T12:40:07Z</time>
      </trkpt>
      <trkpt lat="42.81513" lon="1.74384">
        <ele>1739.553</ele>
        <time>2021-03-23T12:40:09Z</time>
      </trkpt>
      <trkpt lat="42.81513" lon="1.74384">
        <ele>1739.551</ele>
        <time>2021-03-23T12:40:11Z</time>
      </trkpt>
      <trkpt lat="42.81513" lon="1.74384">
        <ele>1739.552</ele>
        <time>2021-03-23T12:40:13Z</time>
      </trkpt>
      <trkpt lat="42.81513" lon="1.74384">
        <ele>1739.554</ele>
        <time>2021-03-23T12:40:15Z</time>
      </trkpt>
      <trkpt lat="42.81513" lon="1.74384">
        <ele>1739.556</ele>
        <time>2021-03-23T12:40:17Z</time>
      </trkpt>
      <trkpt lat="42.81513" lon="1.74384">
        <ele>1739.555</ele>
        <time>2021-03-23T12:40:19Z</time>
      </trkpt>
      <trkpt lat="42.81513" lon="1.74384">
        <ele>1739.478</ele>
        <time>2021-03-23T12:40:21Z</time>
      </trkpt>
      <trkpt lat="42.81513" lon="1.74384">
        <ele>1739.726</ele>
        <time>2021-03-23T12:40:23Z</time>
      </trkpt>
      <trkpt lat="42.81513" lon="1.74384">
        <ele>1739.843</ele>
        <time>2021-03-23T12:40:25Z</time>
      </trkpt>
      <trkpt lat="42.81513" lon="1.74384">
        <ele>1739.842</ele>
        <time>2021-03-23T12:40:27Z</time>
      </trkpt>
      <trkpt lat="42.81513" lon="1.74384">
        <ele>1739.842</ele>
        <time>2021-03-23T12:40:29Z</time>
      </trkpt>
      <trkpt lat="42.81513" lon="1.74383">
        <ele>1739.742</ele>
        <time>2021-03-23T12:40:31Z</time>
      </trkpt>
      <trkpt lat="42.81513" lon="1.74383">
        <ele>1739.821</ele>
        <time>2021-03-23T12:40:33Z</time>
      </trkpt>
      <trkpt lat="42.81513" lon="1.74384">
        <ele>1739.825</ele>
        <time>2021-03-23T12:40:35Z</time>
      </trkpt>
      <trkpt lat="42.81513" lon="1.74384">
        <ele>1739.826</ele>
        <time>2021-03-23T12:40:37Z</time>
      </trkpt>
      <trkpt lat="42.81513" lon="1.74384">
        <ele>1739.827</ele>
        <time>2021-03-23T12:40:39Z</time>
      </trkpt>
      <trkpt lat="42.81513" lon="1.74384">
        <ele>1739.827</ele>
        <time>2021-03-23T12:40:41Z</time>
      </trkpt>
      <trkpt lat="42.81513" lon="1.74384">
        <ele>1739.828</ele>
        <time>2021-03-23T12:40:43Z</time>
      </trkpt>
      <trkpt lat="42.81513" lon="1.74384">
        <ele>1739.829</ele>
        <time>2021-03-23T12:40:45Z</time>
      </trkpt>
      <trkpt lat="42.81513" lon="1.74384">
        <ele>1739.828</ele>
        <time>2021-03-23T12:40:47Z</time>
      </trkpt>
      <trkpt lat="42.81513" lon="1.74384">
        <ele>1739.828</ele>
        <time>2021-03-23T12:40:49Z</time>
      </trkpt>
      <trkpt lat="42.81513" lon="1.74384">
        <ele>1739.829</ele>
        <time>2021-03-23T12:40:51Z</time>
      </trkpt>
      <trkpt lat="42.81513" lon="1.74384">
        <ele>1739.829</ele>
        <time>2021-03-23T12:40:53Z</time>
      </trkpt>
      <trkpt lat="42.81513" lon="1.74384">
        <ele>1739.828</ele>
        <time>2021-03-23T12:40:55Z</time>
      </trkpt>
      <trkpt lat="42.81513" lon="1.74384">
        <ele>1739.83</ele>
        <time>2021-03-23T12:40:57Z</time>
      </trkpt>
      <trkpt lat="42.81513" lon="1.74384">
        <ele>1739.831</ele>
        <time>2021-03-23T12:40:59Z</time>
      </trkpt>
      <trkpt lat="42.81513" lon="1.74384">
        <ele>1739.623</ele>
        <time>2021-03-23T12:41:01Z</time>
      </trkpt>
      <trkpt lat="42.81513" lon="1.74384">
        <ele>1739.571</ele>
        <time>2021-03-23T12:41:03Z</time>
      </trkpt>
      <trkpt lat="42.81513" lon="1.74384">
        <ele>1739.571</ele>
        <time>2021-03-23T12:41:05Z</time>
      </trkpt>
      <trkpt lat="42.81513" lon="1.74384">
        <ele>1739.57</ele>
        <time>2021-03-23T12:41:07Z</time>
      </trkpt>
      <trkpt lat="42.81513" lon="1.74384">
        <ele>1739.571</ele>
        <time>2021-03-23T12:41:09Z</time>
      </trkpt>
      <trkpt lat="42.81513" lon="1.74384">
        <ele>1739.571</ele>
        <time>2021-03-23T12:41:11Z</time>
      </trkpt>
      <trkpt lat="42.81513" lon="1.74384">
        <ele>1739.571</ele>
        <time>2021-03-23T12:41:13Z</time>
      </trkpt>
      <trkpt lat="42.81513" lon="1.74384">
        <ele>1739.715</ele>
        <time>2021-03-23T12:41:15Z</time>
      </trkpt>
      <trkpt lat="42.81513" lon="1.74384">
        <ele>1739.714</ele>
        <time>2021-03-23T12:41:17Z</time>
      </trkpt>
      <trkpt lat="42.81513" lon="1.74384">
        <ele>1739.713</ele>
        <time>2021-03-23T12:41:19Z</time>
      </trkpt>
      <trkpt lat="42.81513" lon="1.74384">
        <ele>1739.715</ele>
        <time>2021-03-23T12:41:21Z</time>
      </trkpt>
      <trkpt lat="42.81513" lon="1.74384">
        <ele>1739.718</ele>
        <time>2021-03-23T12:41:23Z</time>
      </trkpt>
      <trkpt lat="42.81513" lon="1.74384">
        <ele>1739.72</ele>
        <time>2021-03-23T12:41:25Z</time>
      </trkpt>
      <trkpt lat="42.81513" lon="1.74384">
        <ele>1739.72</ele>
        <time>2021-03-23T12:41:27Z</time>
      </trkpt>
      <trkpt lat="42.81513" lon="1.74384">
        <ele>1739.724</ele>
        <time>2021-03-23T12:41:29Z</time>
      </trkpt>
      <trkpt lat="42.81513" lon="1.74384">
        <ele>1739.725</ele>
        <time>2021-03-23T12:41:31Z</time>
      </trkpt>
      <trkpt lat="42.81513" lon="1.74384">
        <ele>1739.727</ele>
        <time>2021-03-23T12:41:33Z</time>
      </trkpt>
      <trkpt lat="42.81513" lon="1.74384">
        <ele>1739.727</ele>
        <time>2021-03-23T12:41:35Z</time>
      </trkpt>
      <trkpt lat="42.81513" lon="1.74384">
        <ele>1739.725</ele>
        <time>2021-03-23T12:41:37Z</time>
      </trkpt>
      <trkpt lat="42.81513" lon="1.74384">
        <ele>1739.726</ele>
        <time>2021-03-23T12:41:39Z</time>
      </trkpt>
      <trkpt lat="42.81513" lon="1.74384">
        <ele>1739.727</ele>
        <time>2021-03-23T12:41:41Z</time>
      </trkpt>
      <trkpt lat="42.81513" lon="1.74384">
        <ele>1739.725</ele>
        <time>2021-03-23T12:41:43Z</time>
      </trkpt>
      <trkpt lat="42.81513" lon="1.74384">
        <ele>1739.725</ele>
        <time>2021-03-23T12:41:45Z</time>
      </trkpt>
      <trkpt lat="42.81513" lon="1.74384">
        <ele>1739.725</ele>
        <time>2021-03-23T12:41:47Z</time>
      </trkpt>
      <trkpt lat="42.81513" lon="1.74384">
        <ele>1739.729</ele>
        <time>2021-03-23T12:41:49Z</time>
      </trkpt>
      <trkpt lat="42.81513" lon="1.74384">
        <ele>1739.731</ele>
        <time>2021-03-23T12:41:51Z</time>
      </trkpt>
      <trkpt lat="42.81513" lon="1.74384">
        <ele>1739.731</ele>
        <time>2021-03-23T12:41:53Z</time>
      </trkpt>
      <trkpt lat="42.81513" lon="1.74384">
        <ele>1739.732</ele>
        <time>2021-03-23T12:41:55Z</time>
      </trkpt>
      <trkpt lat="42.81513" lon="1.74384">
        <ele>1739.733</ele>
        <time>2021-03-23T12:41:57Z</time>
      </trkpt>
      <trkpt lat="42.81513" lon="1.74384">
        <ele>1739.733</ele>
        <time>2021-03-23T12:41:59Z</time>
      </trkpt>
      <trkpt lat="42.81513" lon="1.74384">
        <ele>1739.732</ele>
        <time>2021-03-23T12:42:01Z</time>
      </trkpt>
      <trkpt lat="42.81513" lon="1.74384">
        <ele>1739.733</ele>
        <time>2021-03-23T12:42:03Z</time>
      </trkpt>
      <trkpt lat="42.81513" lon="1.74384">
        <ele>1739.734</ele>
        <time>2021-03-23T12:42:05Z</time>
      </trkpt>
      <trkpt lat="42.81513" lon="1.74384">
        <ele>1739.736</ele>
        <time>2021-03-23T12:42:07Z</time>
      </trkpt>
      <trkpt lat="42.81513" lon="1.74384">
        <ele>1739.74</ele>
        <time>2021-03-23T12:42:09Z</time>
      </trkpt>
      <trkpt lat="42.81513" lon="1.74384">
        <ele>1739.738</ele>
        <time>2021-03-23T12:42:11Z</time>
      </trkpt>
      <trkpt lat="42.81513" lon="1.74384">
        <ele>1739.736</ele>
        <time>2021-03-23T12:42:13Z</time>
      </trkpt>
      <trkpt lat="42.81513" lon="1.74384">
        <ele>1739.734</ele>
        <time>2021-03-23T12:42:15Z</time>
      </trkpt>
      <trkpt lat="42.81513" lon="1.74384">
        <ele>1739.738</ele>
        <time>2021-03-23T12:42:17Z</time>
      </trkpt>
      <trkpt lat="42.81513" lon="1.74384">
        <ele>1739.739</ele>
        <time>2021-03-23T12:42:19Z</time>
      </trkpt>
      <trkpt lat="42.81513" lon="1.74384">
        <ele>1739.743</ele>
        <time>2021-03-23T12:42:21Z</time>
      </trkpt>
      <trkpt lat="42.81513" lon="1.74384">
        <ele>1739.747</ele>
        <time>2021-03-23T12:42:23Z</time>
      </trkpt>
      <trkpt lat="42.81513" lon="1.74384">
        <ele>1739.75</ele>
        <time>2021-03-23T12:42:25Z</time>
      </trkpt>
      <trkpt lat="42.81513" lon="1.74384">
        <ele>1739.755</ele>
        <time>2021-03-23T12:42:27Z</time>
      </trkpt>
      <trkpt lat="42.81513" lon="1.74384">
        <ele>1739.754</ele>
        <time>2021-03-23T12:42:29Z</time>
      </trkpt>
      <trkpt lat="42.81513" lon="1.74384">
        <ele>1739.758</ele>
        <time>2021-03-23T12:42:31Z</time>
      </trkpt>
      <trkpt lat="42.81513" lon="1.74384">
        <ele>1739.761</ele>
        <time>2021-03-23T12:42:33Z</time>
      </trkpt>
      <trkpt lat="42.81513" lon="1.74384">
        <ele>1739.763</ele>
        <time>2021-03-23T12:42:35Z</time>
      </trkpt>
      <trkpt lat="42.81513" lon="1.74384">
        <ele>1739.757</ele>
        <time>2021-03-23T12:42:37Z</time>
      </trkpt>
      <trkpt lat="42.81513" lon="1.74384">
        <ele>1739.755</ele>
        <time>2021-03-23T12:42:39Z</time>
      </trkpt>
      <trkpt lat="42.81513" lon="1.74384">
        <ele>1739.754</ele>
        <time>2021-03-23T12:42:41Z</time>
      </trkpt>
      <trkpt lat="42.81513" lon="1.74384">
        <ele>1739.755</ele>
        <time>2021-03-23T12:42:43Z</time>
      </trkpt>
      <trkpt lat="42.81513" lon="1.74384">
        <ele>1739.755</ele>
        <time>2021-03-23T12:42:45Z</time>
      </trkpt>
      <trkpt lat="42.81513" lon="1.74384">
        <ele>1739.756</ele>
        <time>2021-03-23T12:42:47Z</time>
      </trkpt>
      <trkpt lat="42.81513" lon="1.74384">
        <ele>1739.755</ele>
        <time>2021-03-23T12:42:49Z</time>
      </trkpt>
      <trkpt lat="42.81513" lon="1.74384">
        <ele>1739.75</ele>
        <time>2021-03-23T12:42:51Z</time>
      </trkpt>
      <trkpt lat="42.81513" lon="1.74384">
        <ele>1739.746</ele>
        <time>2021-03-23T12:42:53Z</time>
      </trkpt>
      <trkpt lat="42.81513" lon="1.74384">
        <ele>1739.743</ele>
        <time>2021-03-23T12:42:55Z</time>
      </trkpt>
      <trkpt lat="42.81513" lon="1.74384">
        <ele>1739.741</ele>
        <time>2021-03-23T12:42:57Z</time>
      </trkpt>
      <trkpt lat="42.81513" lon="1.74384">
        <ele>1739.743</ele>
        <time>2021-03-23T12:42:59Z</time>
      </trkpt>
      <trkpt lat="42.81513" lon="1.74384">
        <ele>1739.741</ele>
        <time>2021-03-23T12:43:01Z</time>
      </trkpt>
      <trkpt lat="42.81513" lon="1.74384">
        <ele>1739.708</ele>
        <time>2021-03-23T12:43:03Z</time>
      </trkpt>
      <trkpt lat="42.81513" lon="1.74384">
        <ele>1739.704</ele>
        <time>2021-03-23T12:43:05Z</time>
      </trkpt>
      <trkpt lat="42.81513" lon="1.74384">
        <ele>1739.701</ele>
        <time>2021-03-23T12:43:07Z</time>
      </trkpt>
      <trkpt lat="42.81513" lon="1.74384">
        <ele>1739.699</ele>
        <time>2021-03-23T12:43:09Z</time>
      </trkpt>
      <trkpt lat="42.81513" lon="1.74384">
        <ele>1739.696</ele>
        <time>2021-03-23T12:43:11Z</time>
      </trkpt>
      <trkpt lat="42.81513" lon="1.74384">
        <ele>1739.696</ele>
        <time>2021-03-23T12:43:13Z</time>
      </trkpt>
      <trkpt lat="42.81513" lon="1.74384">
        <ele>1739.698</ele>
        <time>2021-03-23T12:43:15Z</time>
      </trkpt>
      <trkpt lat="42.81513" lon="1.74384">
        <ele>1739.699</ele>
        <time>2021-03-23T12:43:17Z</time>
      </trkpt>
      <trkpt lat="42.81513" lon="1.74384">
        <ele>1739.7</ele>
        <time>2021-03-23T12:43:19Z</time>
      </trkpt>
      <trkpt lat="42.81513" lon="1.74384">
        <ele>1739.706</ele>
        <time>2021-03-23T12:43:21Z</time>
      </trkpt>
      <trkpt lat="42.81513" lon="1.74384">
        <ele>1739.71</ele>
        <time>2021-03-23T12:43:23Z</time>
      </trkpt>
      <trkpt lat="42.81513" lon="1.74384">
        <ele>1739.714</ele>
        <time>2021-03-23T12:43:25Z</time>
      </trkpt>
      <trkpt lat="42.81513" lon="1.74384">
        <ele>1739.715</ele>
        <time>2021-03-23T12:43:27Z</time>
      </trkpt>
      <trkpt lat="42.81513" lon="1.74384">
        <ele>1739.718</ele>
        <time>2021-03-23T12:43:29Z</time>
      </trkpt>
      <trkpt lat="42.81513" lon="1.74384">
        <ele>1739.719</ele>
        <time>2021-03-23T12:43:31Z</time>
      </trkpt>
      <trkpt lat="42.81513" lon="1.74384">
        <ele>1739.722</ele>
        <time>2021-03-23T12:43:33Z</time>
      </trkpt>
      <trkpt lat="42.81513" lon="1.74384">
        <ele>1739.728</ele>
        <time>2021-03-23T12:43:35Z</time>
      </trkpt>
      <trkpt lat="42.81513" lon="1.74384">
        <ele>1739.729</ele>
        <time>2021-03-23T12:43:37Z</time>
      </trkpt>
      <trkpt lat="42.81513" lon="1.74384">
        <ele>1739.73</ele>
        <time>2021-03-23T12:43:39Z</time>
      </trkpt>
      <trkpt lat="42.81513" lon="1.74384">
        <ele>1739.731</ele>
        <time>2021-03-23T12:43:41Z</time>
      </trkpt>
      <trkpt lat="42.81513" lon="1.74384">
        <ele>1739.736</ele>
        <time>2021-03-23T12:43:43Z</time>
      </trkpt>
      <trkpt lat="42.81513" lon="1.74384">
        <ele>1739.737</ele>
        <time>2021-03-23T12:43:45Z</time>
      </trkpt>
      <trkpt lat="42.81513" lon="1.74384">
        <ele>1739.735</ele>
        <time>2021-03-23T12:43:47Z</time>
      </trkpt>
      <trkpt lat="42.81513" lon="1.74384">
        <ele>1739.738</ele>
        <time>2021-03-23T12:43:49Z</time>
      </trkpt>
      <trkpt lat="42.81513" lon="1.74384">
        <ele>1739.74</ele>
        <time>2021-03-23T12:43:51Z</time>
      </trkpt>
      <trkpt lat="42.81513" lon="1.74384">
        <ele>1739.741</ele>
        <time>2021-03-23T12:43:53Z</time>
      </trkpt>
      <trkpt lat="42.81513" lon="1.74384">
        <ele>1739.737</ele>
        <time>2021-03-23T12:43:55Z</time>
      </trkpt>
      <trkpt lat="42.81513" lon="1.74384">
        <ele>1739.735</ele>
        <time>2021-03-23T12:43:57Z</time>
      </trkpt>
      <trkpt lat="42.81513" lon="1.74384">
        <ele>1739.734</ele>
        <time>2021-03-23T12:43:59Z</time>
      </trkpt>
      <trkpt lat="42.81513" lon="1.74384">
        <ele>1739.733</ele>
        <time>2021-03-23T12:44:01Z</time>
      </trkpt>
      <trkpt lat="42.81513" lon="1.74384">
        <ele>1739.736</ele>
        <time>2021-03-23T12:44:03Z</time>
      </trkpt>
      <trkpt lat="42.81513" lon="1.74384">
        <ele>1739.736</ele>
        <time>2021-03-23T12:44:04Z</time>
      </trkpt>
      <trkpt lat="42.81513" lon="1.74384">
        <ele>1739.734</ele>
        <time>2021-03-23T12:44:07Z</time>
      </trkpt>
      <trkpt lat="42.81513" lon="1.74384">
        <ele>1739.728</ele>
        <time>2021-03-23T12:44:09Z</time>
      </trkpt>
      <trkpt lat="42.81513" lon="1.74384">
        <ele>1739.727</ele>
        <time>2021-03-23T12:44:11Z</time>
      </trkpt>
      <trkpt lat="42.81513" lon="1.74384">
        <ele>1739.731</ele>
        <time>2021-03-23T12:44:13Z</time>
      </trkpt>
      <trkpt lat="42.81513" lon="1.74384">
        <ele>1739.73</ele>
        <time>2021-03-23T12:44:15Z</time>
      </trkpt>
      <trkpt lat="42.81513" lon="1.74384">
        <ele>1739.731</ele>
        <time>2021-03-23T12:44:17Z</time>
      </trkpt>
      <trkpt lat="42.81513" lon="1.74384">
        <ele>1739.727</ele>
        <time>2021-03-23T12:44:19Z</time>
      </trkpt>
      <trkpt lat="42.81513" lon="1.74384">
        <ele>1739.724</ele>
        <time>2021-03-23T12:44:21Z</time>
      </trkpt>
      <trkpt lat="42.81513" lon="1.74384">
        <ele>1739.723</ele>
        <time>2021-03-23T12:44:23Z</time>
      </trkpt>
      <trkpt lat="42.81513" lon="1.74384">
        <ele>1739.723</ele>
        <time>2021-03-23T12:44:25Z</time>
      </trkpt>
      <trkpt lat="42.81513" lon="1.74384">
        <ele>1739.724</ele>
        <time>2021-03-23T12:44:27Z</time>
      </trkpt>
      <trkpt lat="42.81513" lon="1.74384">
        <ele>1739.725</ele>
        <time>2021-03-23T12:44:29Z</time>
      </trkpt>
      <trkpt lat="42.81513" lon="1.74384">
        <ele>1739.722</ele>
        <time>2021-03-23T12:44:31Z</time>
      </trkpt>
      <trkpt lat="42.81513" lon="1.74384">
        <ele>1739.721</ele>
        <time>2021-03-23T12:44:33Z</time>
      </trkpt>
      <trkpt lat="42.81513" lon="1.74384">
        <ele>1739.72</ele>
        <time>2021-03-23T12:44:35Z</time>
      </trkpt>
      <trkpt lat="42.81513" lon="1.74384">
        <ele>1739.719</ele>
        <time>2021-03-23T12:44:37Z</time>
      </trkpt>
      <trkpt lat="42.81513" lon="1.74384">
        <ele>1739.721</ele>
        <time>2021-03-23T12:44:39Z</time>
      </trkpt>
      <trkpt lat="42.81513" lon="1.74384">
        <ele>1739.724</ele>
        <time>2021-03-23T12:44:41Z</time>
      </trkpt>
      <trkpt lat="42.81513" lon="1.74384">
        <ele>1739.728</ele>
        <time>2021-03-23T12:44:43Z</time>
      </trkpt>
      <trkpt lat="42.81513" lon="1.74384">
        <ele>1739.725</ele>
        <time>2021-03-23T12:44:45Z</time>
      </trkpt>
      <trkpt lat="42.81513" lon="1.74384">
        <ele>1739.721</ele>
        <time>2021-03-23T12:44:47Z</time>
      </trkpt>
      <trkpt lat="42.81513" lon="1.74384">
        <ele>1739.722</ele>
        <time>2021-03-23T12:44:49Z</time>
      </trkpt>
      <trkpt lat="42.81513" lon="1.74384">
        <ele>1739.725</ele>
        <time>2021-03-23T12:44:51Z</time>
      </trkpt>
      <trkpt lat="42.81513" lon="1.74384">
        <ele>1739.729</ele>
        <time>2021-03-23T12:44:53Z</time>
      </trkpt>
      <trkpt lat="42.81513" lon="1.74384">
        <ele>1739.726</ele>
        <time>2021-03-23T12:44:55Z</time>
      </trkpt>
      <trkpt lat="42.81513" lon="1.74384">
        <ele>1739.724</ele>
        <time>2021-03-23T12:44:57Z</time>
      </trkpt>
      <trkpt lat="42.81513" lon="1.74384">
        <ele>1739.722</ele>
        <time>2021-03-23T12:44:59Z</time>
      </trkpt>
      <trkpt lat="42.81513" lon="1.74384">
        <ele>1739.724</ele>
        <time>2021-03-23T12:45:01Z</time>
      </trkpt>
      <trkpt lat="42.81513" lon="1.74384">
        <ele>1739.727</ele>
        <time>2021-03-23T12:45:03Z</time>
      </trkpt>
      <trkpt lat="42.81513" lon="1.74384">
        <ele>1740.164</ele>
        <time>2021-03-23T12:45:05Z</time>
      </trkpt>
      <trkpt lat="42.81513" lon="1.74384">
        <ele>1740.157</ele>
        <time>2021-03-23T12:45:07Z</time>
      </trkpt>
      <trkpt lat="42.81513" lon="1.74384">
        <ele>1740.156</ele>
        <time>2021-03-23T12:45:09Z</time>
      </trkpt>
      <trkpt lat="42.81513" lon="1.74384">
        <ele>1740.156</ele>
        <time>2021-03-23T12:45:11Z</time>
      </trkpt>
      <trkpt lat="42.81513" lon="1.74384">
        <ele>1740.159</ele>
        <time>2021-03-23T12:45:13Z</time>
      </trkpt>
      <trkpt lat="42.81513" lon="1.74384">
        <ele>1740.159</ele>
        <time>2021-03-23T12:45:15Z</time>
      </trkpt>
      <trkpt lat="42.81513" lon="1.74384">
        <ele>1740.163</ele>
        <time>2021-03-23T12:45:17Z</time>
      </trkpt>
      <trkpt lat="42.81513" lon="1.74384">
        <ele>1740.165</ele>
        <time>2021-03-23T12:45:19Z</time>
      </trkpt>
      <trkpt lat="42.81513" lon="1.74384">
        <ele>1740.126</ele>
        <time>2021-03-23T12:45:21Z</time>
      </trkpt>
      <trkpt lat="42.81513" lon="1.74384">
        <ele>1740.024</ele>
        <time>2021-03-23T12:45:23Z</time>
      </trkpt>
      <trkpt lat="42.81513" lon="1.74384">
        <ele>1740.022</ele>
        <time>2021-03-23T12:45:25Z</time>
      </trkpt>
      <trkpt lat="42.81513" lon="1.74384">
        <ele>1740.006</ele>
        <time>2021-03-23T12:45:27Z</time>
      </trkpt>
      <trkpt lat="42.81511" lon="1.74383">
        <ele>1741.095</ele>
        <time>2021-03-23T12:45:29Z</time>
      </trkpt>
      <trkpt lat="42.81511" lon="1.74383">
        <ele>1741.379</ele>
        <time>2021-03-23T12:45:31Z</time>
      </trkpt>
      <trkpt lat="42.81511" lon="1.74383">
        <ele>1741.381</ele>
        <time>2021-03-23T12:45:33Z</time>
      </trkpt>
      <trkpt lat="42.81511" lon="1.74383">
        <ele>1741.377</ele>
        <time>2021-03-23T12:45:35Z</time>
      </trkpt>
      <trkpt lat="42.81511" lon="1.74383">
        <ele>1741.375</ele>
        <time>2021-03-23T12:45:37Z</time>
      </trkpt>
      <trkpt lat="42.81511" lon="1.74383">
        <ele>1741.376</ele>
        <time>2021-03-23T12:45:39Z</time>
      </trkpt>
      <trkpt lat="42.81511" lon="1.74383">
        <ele>1741.373</ele>
        <time>2021-03-23T12:45:41Z</time>
      </trkpt>
      <trkpt lat="42.81511" lon="1.74383">
        <ele>1741.367</ele>
        <time>2021-03-23T12:45:43Z</time>
      </trkpt>
      <trkpt lat="42.81511" lon="1.74383">
        <ele>1741.362</ele>
        <time>2021-03-23T12:45:45Z</time>
      </trkpt>
      <trkpt lat="42.81511" lon="1.74383">
        <ele>1741.36</ele>
        <time>2021-03-23T12:45:47Z</time>
      </trkpt>
      <trkpt lat="42.81511" lon="1.74383">
        <ele>1741.356</ele>
        <time>2021-03-23T12:45:49Z</time>
      </trkpt>
      <trkpt lat="42.81511" lon="1.74383">
        <ele>1741.425</ele>
        <time>2021-03-23T12:45:51Z</time>
      </trkpt>
      <trkpt lat="42.81511" lon="1.74383">
        <ele>1741.421</ele>
        <time>2021-03-23T12:45:53Z</time>
      </trkpt>
      <trkpt lat="42.81511" lon="1.74383">
        <ele>1741.422</ele>
        <time>2021-03-23T12:45:55Z</time>
      </trkpt>
      <trkpt lat="42.81511" lon="1.74383">
        <ele>1741.423</ele>
        <time>2021-03-23T12:45:57Z</time>
      </trkpt>
      <trkpt lat="42.81511" lon="1.74383">
        <ele>1741.424</ele>
        <time>2021-03-23T12:45:59Z</time>
      </trkpt>
      <trkpt lat="42.81511" lon="1.74383">
        <ele>1741.425</ele>
        <time>2021-03-23T12:46:01Z</time>
      </trkpt>
      <trkpt lat="42.81511" lon="1.74383">
        <ele>1741.425</ele>
        <time>2021-03-23T12:46:03Z</time>
      </trkpt>
      <trkpt lat="42.81511" lon="1.74383">
        <ele>1741.427</ele>
        <time>2021-03-23T12:46:05Z</time>
      </trkpt>
      <trkpt lat="42.81511" lon="1.74383">
        <ele>1741.431</ele>
        <time>2021-03-23T12:46:07Z</time>
      </trkpt>
      <trkpt lat="42.81511" lon="1.74383">
        <ele>1741.672</ele>
        <time>2021-03-23T12:46:09Z</time>
      </trkpt>
      <trkpt lat="42.81511" lon="1.74383">
        <ele>1741.669</ele>
        <time>2021-03-23T12:46:11Z</time>
      </trkpt>
      <trkpt lat="42.81511" lon="1.74383">
        <ele>1741.672</ele>
        <time>2021-03-23T12:46:13Z</time>
      </trkpt>
      <trkpt lat="42.81511" lon="1.74383">
        <ele>1741.673</ele>
        <time>2021-03-23T12:46:15Z</time>
      </trkpt>
      <trkpt lat="42.81511" lon="1.74383">
        <ele>1741.677</ele>
        <time>2021-03-23T12:46:17Z</time>
      </trkpt>
      <trkpt lat="42.81511" lon="1.74383">
        <ele>1741.682</ele>
        <time>2021-03-23T12:46:19Z</time>
      </trkpt>
      <trkpt lat="42.81511" lon="1.74383">
        <ele>1741.683</ele>
        <time>2021-03-23T12:46:21Z</time>
      </trkpt>
      <trkpt lat="42.81511" lon="1.74383">
        <ele>1741.683</ele>
        <time>2021-03-23T12:46:23Z</time>
      </trkpt>
      <trkpt lat="42.81511" lon="1.74383">
        <ele>1741.684</ele>
        <time>2021-03-23T12:46:25Z</time>
      </trkpt>
      <trkpt lat="42.81511" lon="1.74383">
        <ele>1741.682</ele>
        <time>2021-03-23T12:46:27Z</time>
      </trkpt>
      <trkpt lat="42.81511" lon="1.74383">
        <ele>1741.677</ele>
        <time>2021-03-23T12:46:29Z</time>
      </trkpt>
      <trkpt lat="42.81511" lon="1.74383">
        <ele>1741.674</ele>
        <time>2021-03-23T12:46:31Z</time>
      </trkpt>
      <trkpt lat="42.81511" lon="1.74383">
        <ele>1741.677</ele>
        <time>2021-03-23T12:46:33Z</time>
      </trkpt>
      <trkpt lat="42.81511" lon="1.74383">
        <ele>1741.679</ele>
        <time>2021-03-23T12:46:35Z</time>
      </trkpt>
      <trkpt lat="42.81511" lon="1.74383">
        <ele>1741.68</ele>
        <time>2021-03-23T12:46:37Z</time>
      </trkpt>
      <trkpt lat="42.81511" lon="1.74383">
        <ele>1741.681</ele>
        <time>2021-03-23T12:46:39Z</time>
      </trkpt>
      <trkpt lat="42.81511" lon="1.74383">
        <ele>1741.679</ele>
        <time>2021-03-23T12:46:41Z</time>
      </trkpt>
      <trkpt lat="42.81511" lon="1.74383">
        <ele>1741.683</ele>
        <time>2021-03-23T12:46:43Z</time>
      </trkpt>
      <trkpt lat="42.81511" lon="1.74383">
        <ele>1741.683</ele>
        <time>2021-03-23T12:46:45Z</time>
      </trkpt>
      <trkpt lat="42.81511" lon="1.74383">
        <ele>1741.684</ele>
        <time>2021-03-23T12:46:47Z</time>
      </trkpt>
      <trkpt lat="42.81511" lon="1.74383">
        <ele>1741.69</ele>
        <time>2021-03-23T12:46:49Z</time>
      </trkpt>
      <trkpt lat="42.81511" lon="1.74383">
        <ele>1741.696</ele>
        <time>2021-03-23T12:46:51Z</time>
      </trkpt>
      <trkpt lat="42.81511" lon="1.74383">
        <ele>1741.698</ele>
        <time>2021-03-23T12:46:53Z</time>
      </trkpt>
      <trkpt lat="42.81511" lon="1.74383">
        <ele>1741.698</ele>
        <time>2021-03-23T12:46:55Z</time>
      </trkpt>
      <trkpt lat="42.81511" lon="1.74383">
        <ele>1741.698</ele>
        <time>2021-03-23T12:46:57Z</time>
      </trkpt>
      <trkpt lat="42.81511" lon="1.74383">
        <ele>1741.698</ele>
        <time>2021-03-23T12:46:59Z</time>
      </trkpt>
      <trkpt lat="42.81511" lon="1.74383">
        <ele>1741.698</ele>
        <time>2021-03-23T12:47:01Z</time>
      </trkpt>
      <trkpt lat="42.81511" lon="1.74384">
        <ele>1741.984</ele>
        <time>2021-03-23T12:47:03Z</time>
      </trkpt>
      <trkpt lat="42.81511" lon="1.74384">
        <ele>1741.986</ele>
        <time>2021-03-23T12:47:05Z</time>
      </trkpt>
      <trkpt lat="42.81511" lon="1.74384">
        <ele>1741.81</ele>
        <time>2021-03-23T12:47:07Z</time>
      </trkpt>
      <trkpt lat="42.81511" lon="1.74384">
        <ele>1741.699</ele>
        <time>2021-03-23T12:47:09Z</time>
      </trkpt>
      <trkpt lat="42.81511" lon="1.74384">
        <ele>1741.696</ele>
        <time>2021-03-23T12:47:11Z</time>
      </trkpt>
      <trkpt lat="42.81511" lon="1.74384">
        <ele>1741.696</ele>
        <time>2021-03-23T12:47:13Z</time>
      </trkpt>
      <trkpt lat="42.81511" lon="1.74384">
        <ele>1741.703</ele>
        <time>2021-03-23T12:47:15Z</time>
      </trkpt>
      <trkpt lat="42.81511" lon="1.74384">
        <ele>1741.704</ele>
        <time>2021-03-23T12:47:17Z</time>
      </trkpt>
      <trkpt lat="42.81511" lon="1.74384">
        <ele>1741.703</ele>
        <time>2021-03-23T12:47:19Z</time>
      </trkpt>
      <trkpt lat="42.81511" lon="1.74384">
        <ele>1741.703</ele>
        <time>2021-03-23T12:47:21Z</time>
      </trkpt>
      <trkpt lat="42.81511" lon="1.74384">
        <ele>1741.701</ele>
        <time>2021-03-23T12:47:23Z</time>
      </trkpt>
      <trkpt lat="42.81511" lon="1.74384">
        <ele>1741.702</ele>
        <time>2021-03-23T12:47:25Z</time>
      </trkpt>
      <trkpt lat="42.81511" lon="1.74383">
        <ele>1742.046</ele>
        <time>2021-03-23T12:47:27Z</time>
      </trkpt>
      <trkpt lat="42.81512" lon="1.74382">
        <ele>1741.638</ele>
        <time>2021-03-23T12:47:29Z</time>
      </trkpt>
      <trkpt lat="42.81512" lon="1.74383">
        <ele>1741.291</ele>
        <time>2021-03-23T12:47:31Z</time>
      </trkpt>
      <trkpt lat="42.81512" lon="1.74382">
        <ele>1742.182</ele>
        <time>2021-03-23T12:47:33Z</time>
      </trkpt>
      <trkpt lat="42.81511" lon="1.74382">
        <ele>1742.117</ele>
        <time>2021-03-23T12:47:35Z</time>
      </trkpt>
      <trkpt lat="42.81511" lon="1.74382">
        <ele>1742.113</ele>
        <time>2021-03-23T12:47:37Z</time>
      </trkpt>
      <trkpt lat="42.81512" lon="1.7438">
        <ele>1741.649</ele>
        <time>2021-03-23T12:47:39Z</time>
      </trkpt>
      <trkpt lat="42.81512" lon="1.74378">
        <ele>1741.036</ele>
        <time>2021-03-23T12:47:41Z</time>
      </trkpt>
      <trkpt lat="42.81512" lon="1.74378">
        <ele>1741.032</ele>
        <time>2021-03-23T12:47:43Z</time>
      </trkpt>
      <trkpt lat="42.81512" lon="1.74378">
        <ele>1741.041</ele>
        <time>2021-03-23T12:47:45Z</time>
      </trkpt>
      <trkpt lat="42.81512" lon="1.74378">
        <ele>1740.914</ele>
        <time>2021-03-23T12:47:47Z</time>
      </trkpt>
      <trkpt lat="42.81512" lon="1.74378">
        <ele>1740.878</ele>
        <time>2021-03-23T12:47:49Z</time>
      </trkpt>
      <trkpt lat="42.81512" lon="1.74378">
        <ele>1740.871</ele>
        <time>2021-03-23T12:47:51Z</time>
      </trkpt>
      <trkpt lat="42.81512" lon="1.74378">
        <ele>1740.867</ele>
        <time>2021-03-23T12:47:53Z</time>
      </trkpt>
      <trkpt lat="42.81512" lon="1.74378">
        <ele>1740.856</ele>
        <time>2021-03-23T12:47:55Z</time>
      </trkpt>
      <trkpt lat="42.81512" lon="1.74378">
        <ele>1740.734</ele>
        <time>2021-03-23T12:47:57Z</time>
      </trkpt>
      <trkpt lat="42.81512" lon="1.7438">
        <ele>1740.235</ele>
        <time>2021-03-23T12:47:59Z</time>
      </trkpt>
      <trkpt lat="42.81511" lon="1.74381">
        <ele>1739.254</ele>
        <time>2021-03-23T12:48:01Z</time>
      </trkpt>
      <trkpt lat="42.81511" lon="1.74384">
        <ele>1737.489</ele>
        <time>2021-03-23T12:48:03Z</time>
      </trkpt>
      <trkpt lat="42.81512" lon="1.74384">
        <ele>1737.721</ele>
        <time>2021-03-23T12:48:05Z</time>
      </trkpt>
      <trkpt lat="42.81512" lon="1.74384">
        <ele>1737.723</ele>
        <time>2021-03-23T12:48:07Z</time>
      </trkpt>
      <trkpt lat="42.81512" lon="1.74384">
        <ele>1737.721</ele>
        <time>2021-03-23T12:48:09Z</time>
      </trkpt>
      <trkpt lat="42.81512" lon="1.74384">
        <ele>1737.721</ele>
        <time>2021-03-23T12:48:11Z</time>
      </trkpt>
      <trkpt lat="42.81512" lon="1.74384">
        <ele>1737.725</ele>
        <time>2021-03-23T12:48:13Z</time>
      </trkpt>
      <trkpt lat="42.81512" lon="1.74384">
        <ele>1737.728</ele>
        <time>2021-03-23T12:48:15Z</time>
      </trkpt>
      <trkpt lat="42.81512" lon="1.74384">
        <ele>1737.732</ele>
        <time>2021-03-23T12:48:17Z</time>
      </trkpt>
      <trkpt lat="42.81512" lon="1.74384">
        <ele>1737.74</ele>
        <time>2021-03-23T12:48:19Z</time>
      </trkpt>
      <trkpt lat="42.81512" lon="1.74384">
        <ele>1737.738</ele>
        <time>2021-03-23T12:48:21Z</time>
      </trkpt>
      <trkpt lat="42.81512" lon="1.74384">
        <ele>1737.738</ele>
        <time>2021-03-23T12:48:23Z</time>
      </trkpt>
      <trkpt lat="42.81512" lon="1.74384">
        <ele>1737.734</ele>
        <time>2021-03-23T12:48:26Z</time>
      </trkpt>
      <trkpt lat="42.81512" lon="1.74384">
        <ele>1737.738</ele>
        <time>2021-03-23T12:48:28Z</time>
      </trkpt>
      <trkpt lat="42.81512" lon="1.74384">
        <ele>1737.739</ele>
        <time>2021-03-23T12:48:30Z</time>
      </trkpt>
      <trkpt lat="42.81512" lon="1.74384">
        <ele>1737.746</ele>
        <time>2021-03-23T12:48:32Z</time>
      </trkpt>
      <trkpt lat="42.81512" lon="1.74384">
        <ele>1737.754</ele>
        <time>2021-03-23T12:48:34Z</time>
      </trkpt>
      <trkpt lat="42.81512" lon="1.74384">
        <ele>1737.752</ele>
        <time>2021-03-23T12:48:36Z</time>
      </trkpt>
      <trkpt lat="42.81512" lon="1.74384">
        <ele>1737.748</ele>
        <time>2021-03-23T12:48:38Z</time>
      </trkpt>
      <trkpt lat="42.81512" lon="1.74384">
        <ele>1737.75</ele>
        <time>2021-03-23T12:48:40Z</time>
      </trkpt>
      <trkpt lat="42.81512" lon="1.74384">
        <ele>1737.746</ele>
        <time>2021-03-23T12:48:42Z</time>
      </trkpt>
      <trkpt lat="42.81512" lon="1.74384">
        <ele>1737.742</ele>
        <time>2021-03-23T12:48:44Z</time>
      </trkpt>
      <trkpt lat="42.81512" lon="1.74384">
        <ele>1737.746</ele>
        <time>2021-03-23T12:48:46Z</time>
      </trkpt>
      <trkpt lat="42.81512" lon="1.74384">
        <ele>1737.747</ele>
        <time>2021-03-23T12:48:48Z</time>
      </trkpt>
      <trkpt lat="42.81512" lon="1.74384">
        <ele>1737.746</ele>
        <time>2021-03-23T12:48:50Z</time>
      </trkpt>
      <trkpt lat="42.81512" lon="1.74384">
        <ele>1737.749</ele>
        <time>2021-03-23T12:48:52Z</time>
      </trkpt>
      <trkpt lat="42.81512" lon="1.74384">
        <ele>1737.758</ele>
        <time>2021-03-23T12:48:54Z</time>
      </trkpt>
      <trkpt lat="42.81512" lon="1.74384">
        <ele>1737.762</ele>
        <time>2021-03-23T12:48:56Z</time>
      </trkpt>
      <trkpt lat="42.81512" lon="1.74384">
        <ele>1737.764</ele>
        <time>2021-03-23T12:48:58Z</time>
      </trkpt>
      <trkpt lat="42.81512" lon="1.74384">
        <ele>1737.764</ele>
        <time>2021-03-23T12:49:00Z</time>
      </trkpt>
      <trkpt lat="42.81512" lon="1.74384">
        <ele>1737.765</ele>
        <time>2021-03-23T12:49:02Z</time>
      </trkpt>
      <trkpt lat="42.81512" lon="1.74384">
        <ele>1737.769</ele>
        <time>2021-03-23T12:49:04Z</time>
      </trkpt>
      <trkpt lat="42.81512" lon="1.74384">
        <ele>1737.772</ele>
        <time>2021-03-23T12:49:06Z</time>
      </trkpt>
      <trkpt lat="42.81512" lon="1.74384">
        <ele>1737.773</ele>
        <time>2021-03-23T12:49:08Z</time>
      </trkpt>
      <trkpt lat="42.81512" lon="1.74384">
        <ele>1737.771</ele>
        <time>2021-03-23T12:49:11Z</time>
      </trkpt>
      <trkpt lat="42.81512" lon="1.74384">
        <ele>1737.778</ele>
        <time>2021-03-23T12:49:13Z</time>
      </trkpt>
      <trkpt lat="42.81512" lon="1.74384">
        <ele>1737.782</ele>
        <time>2021-03-23T12:49:15Z</time>
      </trkpt>
      <trkpt lat="42.81512" lon="1.74384">
        <ele>1737.786</ele>
        <time>2021-03-23T12:49:17Z</time>
      </trkpt>
      <trkpt lat="42.81512" lon="1.74384">
        <ele>1737.79</ele>
        <time>2021-03-23T12:49:19Z</time>
      </trkpt>
      <trkpt lat="42.81512" lon="1.74384">
        <ele>1737.786</ele>
        <time>2021-03-23T12:49:21Z</time>
      </trkpt>
      <trkpt lat="42.81512" lon="1.74384">
        <ele>1737.784</ele>
        <time>2021-03-23T12:49:23Z</time>
      </trkpt>
      <trkpt lat="42.81512" lon="1.74384">
        <ele>1737.78</ele>
        <time>2021-03-23T12:49:25Z</time>
      </trkpt>
      <trkpt lat="42.81512" lon="1.74384">
        <ele>1737.786</ele>
        <time>2021-03-23T12:49:27Z</time>
      </trkpt>
      <trkpt lat="42.81512" lon="1.74384">
        <ele>1737.787</ele>
        <time>2021-03-23T12:49:29Z</time>
      </trkpt>
      <trkpt lat="42.81512" lon="1.74384">
        <ele>1737.785</ele>
        <time>2021-03-23T12:49:31Z</time>
      </trkpt>
      <trkpt lat="42.81512" lon="1.74384">
        <ele>1737.961</ele>
        <time>2021-03-23T12:49:33Z</time>
      </trkpt>
      <trkpt lat="42.81512" lon="1.74384">
        <ele>1738.095</ele>
        <time>2021-03-23T12:49:35Z</time>
      </trkpt>
      <trkpt lat="42.81512" lon="1.74384">
        <ele>1738.095</ele>
        <time>2021-03-23T12:49:37Z</time>
      </trkpt>
      <trkpt lat="42.81512" lon="1.74384">
        <ele>1738.095</ele>
        <time>2021-03-23T12:49:39Z</time>
      </trkpt>
      <trkpt lat="42.81512" lon="1.74384">
        <ele>1738.091</ele>
        <time>2021-03-23T12:49:41Z</time>
      </trkpt>
      <trkpt lat="42.81512" lon="1.74384">
        <ele>1738.091</ele>
        <time>2021-03-23T12:49:43Z</time>
      </trkpt>
      <trkpt lat="42.81512" lon="1.74384">
        <ele>1738.09</ele>
        <time>2021-03-23T12:49:45Z</time>
      </trkpt>
      <trkpt lat="42.81512" lon="1.74384">
        <ele>1738.092</ele>
        <time>2021-03-23T12:49:47Z</time>
      </trkpt>
      <trkpt lat="42.81512" lon="1.74384">
        <ele>1738.092</ele>
        <time>2021-03-23T12:49:49Z</time>
      </trkpt>
      <trkpt lat="42.81512" lon="1.74384">
        <ele>1738.085</ele>
        <time>2021-03-23T12:49:51Z</time>
      </trkpt>
      <trkpt lat="42.81512" lon="1.74384">
        <ele>1738.092</ele>
        <time>2021-03-23T12:49:53Z</time>
      </trkpt>
      <trkpt lat="42.81512" lon="1.74384">
        <ele>1738.091</ele>
        <time>2021-03-23T12:49:55Z</time>
      </trkpt>
      <trkpt lat="42.81512" lon="1.74384">
        <ele>1738.091</ele>
        <time>2021-03-23T12:49:57Z</time>
      </trkpt>
      <trkpt lat="42.81512" lon="1.74384">
        <ele>1738.09</ele>
        <time>2021-03-23T12:49:59Z</time>
      </trkpt>
      <trkpt lat="42.81512" lon="1.74384">
        <ele>1738.094</ele>
        <time>2021-03-23T12:50:01Z</time>
      </trkpt>
      <trkpt lat="42.81512" lon="1.74384">
        <ele>1738.099</ele>
        <time>2021-03-23T12:50:03Z</time>
      </trkpt>
      <trkpt lat="42.81512" lon="1.74384">
        <ele>1738.103</ele>
        <time>2021-03-23T12:50:05Z</time>
      </trkpt>
      <trkpt lat="42.81512" lon="1.74384">
        <ele>1738.106</ele>
        <time>2021-03-23T12:50:07Z</time>
      </trkpt>
      <trkpt lat="42.81512" lon="1.74384">
        <ele>1738.108</ele>
        <time>2021-03-23T12:50:09Z</time>
      </trkpt>
      <trkpt lat="42.81512" lon="1.74384">
        <ele>1738.107</ele>
        <time>2021-03-23T12:50:11Z</time>
      </trkpt>
      <trkpt lat="42.81512" lon="1.74384">
        <ele>1738.108</ele>
        <time>2021-03-23T12:50:13Z</time>
      </trkpt>
      <trkpt lat="42.81512" lon="1.74384">
        <ele>1738.109</ele>
        <time>2021-03-23T12:50:15Z</time>
      </trkpt>
      <trkpt lat="42.81512" lon="1.74384">
        <ele>1738.113</ele>
        <time>2021-03-23T12:50:17Z</time>
      </trkpt>
      <trkpt lat="42.81512" lon="1.74384">
        <ele>1738.115</ele>
        <time>2021-03-23T12:50:19Z</time>
      </trkpt>
      <trkpt lat="42.81512" lon="1.74384">
        <ele>1738.116</ele>
        <time>2021-03-23T12:50:21Z</time>
      </trkpt>
      <trkpt lat="42.81512" lon="1.74384">
        <ele>1738.119</ele>
        <time>2021-03-23T12:50:23Z</time>
      </trkpt>
      <trkpt lat="42.81512" lon="1.74384">
        <ele>1738.124</ele>
        <time>2021-03-23T12:50:25Z</time>
      </trkpt>
      <trkpt lat="42.81512" lon="1.74384">
        <ele>1738.136</ele>
        <time>2021-03-23T12:50:27Z</time>
      </trkpt>
      <trkpt lat="42.81512" lon="1.74384">
        <ele>1738.149</ele>
        <time>2021-03-23T12:50:29Z</time>
      </trkpt>
      <trkpt lat="42.81512" lon="1.74384">
        <ele>1738.15</ele>
        <time>2021-03-23T12:50:31Z</time>
      </trkpt>
      <trkpt lat="42.81512" lon="1.74384">
        <ele>1738.157</ele>
        <time>2021-03-23T12:50:33Z</time>
      </trkpt>
      <trkpt lat="42.81512" lon="1.74384">
        <ele>1738.065</ele>
        <time>2021-03-23T12:50:36Z</time>
      </trkpt>
      <trkpt lat="42.81511" lon="1.74382">
        <ele>1738.326</ele>
        <time>2021-03-23T12:50:38Z</time>
      </trkpt>
      <trkpt lat="42.81512" lon="1.74381">
        <ele>1738.689</ele>
        <time>2021-03-23T12:50:40Z</time>
      </trkpt>
      <trkpt lat="42.81512" lon="1.7438">
        <ele>1739.214</ele>
        <time>2021-03-23T12:50:42Z</time>
      </trkpt>
      <trkpt lat="42.81513" lon="1.7438">
        <ele>1739.19</ele>
        <time>2021-03-23T12:50:44Z</time>
      </trkpt>
      <trkpt lat="42.81513" lon="1.7438">
        <ele>1739.493</ele>
        <time>2021-03-23T12:50:46Z</time>
      </trkpt>
      <trkpt lat="42.81513" lon="1.74381">
        <ele>1739.595</ele>
        <time>2021-03-23T12:50:48Z</time>
      </trkpt>
      <trkpt lat="42.81513" lon="1.74382">
        <ele>1739.306</ele>
        <time>2021-03-23T12:50:50Z</time>
      </trkpt>
      <trkpt lat="42.81514" lon="1.74382">
        <ele>1739.3</ele>
        <time>2021-03-23T12:50:52Z</time>
      </trkpt>
      <trkpt lat="42.81513" lon="1.74383">
        <ele>1739.247</ele>
        <time>2021-03-23T12:50:54Z</time>
      </trkpt>
      <trkpt lat="42.81513" lon="1.74383">
        <ele>1738.764</ele>
        <time>2021-03-23T12:50:56Z</time>
      </trkpt>
      <trkpt lat="42.81513" lon="1.74383">
        <ele>1738.241</ele>
        <time>2021-03-23T12:50:58Z</time>
      </trkpt>
      <trkpt lat="42.81514" lon="1.74383">
        <ele>1738.238</ele>
        <time>2021-03-23T12:51:00Z</time>
      </trkpt>
      <trkpt lat="42.81514" lon="1.74383">
        <ele>1738.238</ele>
        <time>2021-03-23T12:51:02Z</time>
      </trkpt>
      <trkpt lat="42.81514" lon="1.74383">
        <ele>1738.242</ele>
        <time>2021-03-23T12:51:04Z</time>
      </trkpt>
      <trkpt lat="42.81514" lon="1.74383">
        <ele>1738.239</ele>
        <time>2021-03-23T12:51:05Z</time>
      </trkpt>
      <trkpt lat="42.81514" lon="1.74383">
        <ele>1738.24</ele>
        <time>2021-03-23T12:51:08Z</time>
      </trkpt>
      <trkpt lat="42.81514" lon="1.74383">
        <ele>1738.241</ele>
        <time>2021-03-23T12:51:10Z</time>
      </trkpt>
      <trkpt lat="42.81514" lon="1.74383">
        <ele>1738.246</ele>
        <time>2021-03-23T12:51:12Z</time>
      </trkpt>
      <trkpt lat="42.81514" lon="1.74383">
        <ele>1738.246</ele>
        <time>2021-03-23T12:51:14Z</time>
      </trkpt>
      <trkpt lat="42.81514" lon="1.74383">
        <ele>1738.246</ele>
        <time>2021-03-23T12:51:16Z</time>
      </trkpt>
      <trkpt lat="42.81514" lon="1.74383">
        <ele>1738.244</ele>
        <time>2021-03-23T12:51:18Z</time>
      </trkpt>
      <trkpt lat="42.81514" lon="1.74383">
        <ele>1738.244</ele>
        <time>2021-03-23T12:51:20Z</time>
      </trkpt>
      <trkpt lat="42.81514" lon="1.74383">
        <ele>1738.249</ele>
        <time>2021-03-23T12:51:22Z</time>
      </trkpt>
      <trkpt lat="42.81514" lon="1.74383">
        <ele>1738.244</ele>
        <time>2021-03-23T12:51:24Z</time>
      </trkpt>
      <trkpt lat="42.81514" lon="1.74383">
        <ele>1738.243</ele>
        <time>2021-03-23T12:51:26Z</time>
      </trkpt>
      <trkpt lat="42.81514" lon="1.74383">
        <ele>1738.238</ele>
        <time>2021-03-23T12:51:28Z</time>
      </trkpt>
      <trkpt lat="42.81514" lon="1.74383">
        <ele>1738.228</ele>
        <time>2021-03-23T12:51:30Z</time>
      </trkpt>
      <trkpt lat="42.81514" lon="1.74383">
        <ele>1738.22</ele>
        <time>2021-03-23T12:51:32Z</time>
      </trkpt>
      <trkpt lat="42.81514" lon="1.74383">
        <ele>1738.218</ele>
        <time>2021-03-23T12:51:34Z</time>
      </trkpt>
      <trkpt lat="42.81514" lon="1.74383">
        <ele>1738.221</ele>
        <time>2021-03-23T12:51:36Z</time>
      </trkpt>
      <trkpt lat="42.81514" lon="1.74383">
        <ele>1738.224</ele>
        <time>2021-03-23T12:51:38Z</time>
      </trkpt>
      <trkpt lat="42.81514" lon="1.74383">
        <ele>1738.224</ele>
        <time>2021-03-23T12:51:40Z</time>
      </trkpt>
      <trkpt lat="42.81514" lon="1.74383">
        <ele>1738.23</ele>
        <time>2021-03-23T12:51:42Z</time>
      </trkpt>
      <trkpt lat="42.81514" lon="1.74383">
        <ele>1738.23</ele>
        <time>2021-03-23T12:51:44Z</time>
      </trkpt>
      <trkpt lat="42.81514" lon="1.74383">
        <ele>1738.223</ele>
        <time>2021-03-23T12:51:46Z</time>
      </trkpt>
      <trkpt lat="42.81514" lon="1.74383">
        <ele>1738.227</ele>
        <time>2021-03-23T12:51:48Z</time>
      </trkpt>
      <trkpt lat="42.81514" lon="1.74383">
        <ele>1738.239</ele>
        <time>2021-03-23T12:51:50Z</time>
      </trkpt>
      <trkpt lat="42.81514" lon="1.74383">
        <ele>1738.245</ele>
        <time>2021-03-23T12:51:52Z</time>
      </trkpt>
      <trkpt lat="42.81514" lon="1.74383">
        <ele>1738.25</ele>
        <time>2021-03-23T12:51:54Z</time>
      </trkpt>
      <trkpt lat="42.81514" lon="1.74383">
        <ele>1738.262</ele>
        <time>2021-03-23T12:51:56Z</time>
      </trkpt>
      <trkpt lat="42.81514" lon="1.74383">
        <ele>1738.268</ele>
        <time>2021-03-23T12:51:58Z</time>
      </trkpt>
      <trkpt lat="42.81514" lon="1.74383">
        <ele>1738.267</ele>
        <time>2021-03-23T12:52:00Z</time>
      </trkpt>
      <trkpt lat="42.81514" lon="1.74383">
        <ele>1738.261</ele>
        <time>2021-03-23T12:52:02Z</time>
      </trkpt>
      <trkpt lat="42.81514" lon="1.74383">
        <ele>1738.26</ele>
        <time>2021-03-23T12:52:04Z</time>
      </trkpt>
      <trkpt lat="42.81514" lon="1.74383">
        <ele>1738.261</ele>
        <time>2021-03-23T12:52:06Z</time>
      </trkpt>
      <trkpt lat="42.81514" lon="1.74383">
        <ele>1738.262</ele>
        <time>2021-03-23T12:52:08Z</time>
      </trkpt>
      <trkpt lat="42.81514" lon="1.74383">
        <ele>1738.269</ele>
        <time>2021-03-23T12:52:10Z</time>
      </trkpt>
      <trkpt lat="42.81514" lon="1.74383">
        <ele>1738.273</ele>
        <time>2021-03-23T12:52:12Z</time>
      </trkpt>
      <trkpt lat="42.81514" lon="1.74383">
        <ele>1738.271</ele>
        <time>2021-03-23T12:52:14Z</time>
      </trkpt>
      <trkpt lat="42.81514" lon="1.74383">
        <ele>1738.269</ele>
        <time>2021-03-23T12:52:16Z</time>
      </trkpt>
      <trkpt lat="42.81514" lon="1.74383">
        <ele>1738.27</ele>
        <time>2021-03-23T12:52:18Z</time>
      </trkpt>
      <trkpt lat="42.81514" lon="1.74383">
        <ele>1738.274</ele>
        <time>2021-03-23T12:52:20Z</time>
      </trkpt>
      <trkpt lat="42.81514" lon="1.74383">
        <ele>1738.285</ele>
        <time>2021-03-23T12:52:22Z</time>
      </trkpt>
      <trkpt lat="42.81514" lon="1.74383">
        <ele>1738.293</ele>
        <time>2021-03-23T12:52:24Z</time>
      </trkpt>
      <trkpt lat="42.81514" lon="1.74383">
        <ele>1738.299</ele>
        <time>2021-03-23T12:52:26Z</time>
      </trkpt>
      <trkpt lat="42.81514" lon="1.74383">
        <ele>1738.299</ele>
        <time>2021-03-23T12:52:28Z</time>
      </trkpt>
      <trkpt lat="42.81514" lon="1.74383">
        <ele>1738.299</ele>
        <time>2021-03-23T12:52:30Z</time>
      </trkpt>
      <trkpt lat="42.81514" lon="1.74383">
        <ele>1738.3</ele>
        <time>2021-03-23T12:52:32Z</time>
      </trkpt>
      <trkpt lat="42.81514" lon="1.74383">
        <ele>1738.293</ele>
        <time>2021-03-23T12:52:34Z</time>
      </trkpt>
      <trkpt lat="42.81514" lon="1.74383">
        <ele>1738.293</ele>
        <time>2021-03-23T12:52:36Z</time>
      </trkpt>
      <trkpt lat="42.81514" lon="1.74383">
        <ele>1738.29</ele>
        <time>2021-03-23T12:52:38Z</time>
      </trkpt>
      <trkpt lat="42.81514" lon="1.74383">
        <ele>1738.293</ele>
        <time>2021-03-23T12:52:40Z</time>
      </trkpt>
      <trkpt lat="42.81514" lon="1.74383">
        <ele>1738.3</ele>
        <time>2021-03-23T12:52:42Z</time>
      </trkpt>
      <trkpt lat="42.81514" lon="1.74383">
        <ele>1738.306</ele>
        <time>2021-03-23T12:52:44Z</time>
      </trkpt>
      <trkpt lat="42.81514" lon="1.74383">
        <ele>1738.309</ele>
        <time>2021-03-23T12:52:46Z</time>
      </trkpt>
      <trkpt lat="42.81514" lon="1.74383">
        <ele>1737.889</ele>
        <time>2021-03-23T12:52:49Z</time>
      </trkpt>
      <trkpt lat="42.81514" lon="1.74383">
        <ele>1737.819</ele>
        <time>2021-03-23T12:52:51Z</time>
      </trkpt>
      <trkpt lat="42.81514" lon="1.74383">
        <ele>1737.917</ele>
        <time>2021-03-23T12:52:53Z</time>
      </trkpt>
      <trkpt lat="42.81514" lon="1.74383">
        <ele>1737.916</ele>
        <time>2021-03-23T12:52:55Z</time>
      </trkpt>
      <trkpt lat="42.81514" lon="1.74383">
        <ele>1738.098</ele>
        <time>2021-03-23T12:52:57Z</time>
      </trkpt>
      <trkpt lat="42.81512" lon="1.74383">
        <ele>1739.338</ele>
        <time>2021-03-23T12:52:59Z</time>
      </trkpt>
      <trkpt lat="42.81511" lon="1.74383">
        <ele>1739.918</ele>
        <time>2021-03-23T12:53:01Z</time>
      </trkpt>
      <trkpt lat="42.81511" lon="1.74383">
        <ele>1739.957</ele>
        <time>2021-03-23T12:53:03Z</time>
      </trkpt>
      <trkpt lat="42.81511" lon="1.74383">
        <ele>1739.958</ele>
        <time>2021-03-23T12:53:05Z</time>
      </trkpt>
      <trkpt lat="42.81511" lon="1.74383">
        <ele>1739.757</ele>
        <time>2021-03-23T12:53:07Z</time>
      </trkpt>
      <trkpt lat="42.81511" lon="1.74384">
        <ele>1739.18</ele>
        <time>2021-03-23T12:53:09Z</time>
      </trkpt>
      <trkpt lat="42.81511" lon="1.74383">
        <ele>1739.772</ele>
        <time>2021-03-23T12:53:11Z</time>
      </trkpt>
      <trkpt lat="42.81511" lon="1.74383">
        <ele>1739.823</ele>
        <time>2021-03-23T12:53:13Z</time>
      </trkpt>
      <trkpt lat="42.81511" lon="1.74383">
        <ele>1739.835</ele>
        <time>2021-03-23T12:53:15Z</time>
      </trkpt>
      <trkpt lat="42.81511" lon="1.74383">
        <ele>1739.838</ele>
        <time>2021-03-23T12:53:17Z</time>
      </trkpt>
      <trkpt lat="42.81511" lon="1.74383">
        <ele>1739.832</ele>
        <time>2021-03-23T12:53:19Z</time>
      </trkpt>
      <trkpt lat="42.81511" lon="1.74383">
        <ele>1739.826</ele>
        <time>2021-03-23T12:53:21Z</time>
      </trkpt>
      <trkpt lat="42.81511" lon="1.74383">
        <ele>1739.824</ele>
        <time>2021-03-23T12:53:23Z</time>
      </trkpt>
      <trkpt lat="42.81511" lon="1.74383">
        <ele>1739.824</ele>
        <time>2021-03-23T12:53:25Z</time>
      </trkpt>
      <trkpt lat="42.81511" lon="1.74383">
        <ele>1739.827</ele>
        <time>2021-03-23T12:53:27Z</time>
      </trkpt>
      <trkpt lat="42.81511" lon="1.74383">
        <ele>1739.834</ele>
        <time>2021-03-23T12:53:29Z</time>
      </trkpt>
      <trkpt lat="42.81511" lon="1.74383">
        <ele>1739.833</ele>
        <time>2021-03-23T12:53:31Z</time>
      </trkpt>
      <trkpt lat="42.81511" lon="1.74383">
        <ele>1739.834</ele>
        <time>2021-03-23T12:53:33Z</time>
      </trkpt>
      <trkpt lat="42.81511" lon="1.74383">
        <ele>1739.829</ele>
        <time>2021-03-23T12:53:35Z</time>
      </trkpt>
      <trkpt lat="42.81511" lon="1.74383">
        <ele>1739.84</ele>
        <time>2021-03-23T12:53:37Z</time>
      </trkpt>
      <trkpt lat="42.81511" lon="1.74383">
        <ele>1739.842</ele>
        <time>2021-03-23T12:53:39Z</time>
      </trkpt>
      <trkpt lat="42.81511" lon="1.74383">
        <ele>1739.84</ele>
        <time>2021-03-23T12:53:41Z</time>
      </trkpt>
      <trkpt lat="42.81511" lon="1.74383">
        <ele>1739.843</ele>
        <time>2021-03-23T12:53:43Z</time>
      </trkpt>
      <trkpt lat="42.81511" lon="1.74383">
        <ele>1739.842</ele>
        <time>2021-03-23T12:53:45Z</time>
      </trkpt>
      <trkpt lat="42.81511" lon="1.74383">
        <ele>1739.848</ele>
        <time>2021-03-23T12:53:47Z</time>
      </trkpt>
      <trkpt lat="42.81511" lon="1.74383">
        <ele>1739.857</ele>
        <time>2021-03-23T12:53:49Z</time>
      </trkpt>
      <trkpt lat="42.81511" lon="1.74383">
        <ele>1739.871</ele>
        <time>2021-03-23T12:53:51Z</time>
      </trkpt>
      <trkpt lat="42.81511" lon="1.74383">
        <ele>1739.878</ele>
        <time>2021-03-23T12:53:53Z</time>
      </trkpt>
      <trkpt lat="42.81511" lon="1.74383">
        <ele>1739.877</ele>
        <time>2021-03-23T12:53:55Z</time>
      </trkpt>
      <trkpt lat="42.81511" lon="1.74383">
        <ele>1739.78</ele>
        <time>2021-03-23T12:53:57Z</time>
      </trkpt>
      <trkpt lat="42.81511" lon="1.74383">
        <ele>1739.779</ele>
        <time>2021-03-23T12:53:59Z</time>
      </trkpt>
      <trkpt lat="42.81511" lon="1.74383">
        <ele>1739.779</ele>
        <time>2021-03-23T12:54:01Z</time>
      </trkpt>
      <trkpt lat="42.81511" lon="1.74383">
        <ele>1739.786</ele>
        <time>2021-03-23T12:54:03Z</time>
      </trkpt>
      <trkpt lat="42.81511" lon="1.74383">
        <ele>1739.793</ele>
        <time>2021-03-23T12:54:05Z</time>
      </trkpt>
      <trkpt lat="42.81511" lon="1.74383">
        <ele>1739.794</ele>
        <time>2021-03-23T12:54:07Z</time>
      </trkpt>
      <trkpt lat="42.81511" lon="1.74383">
        <ele>1739.797</ele>
        <time>2021-03-23T12:54:09Z</time>
      </trkpt>
      <trkpt lat="42.81511" lon="1.74383">
        <ele>1739.795</ele>
        <time>2021-03-23T12:54:11Z</time>
      </trkpt>
      <trkpt lat="42.81511" lon="1.74383">
        <ele>1739.798</ele>
        <time>2021-03-23T12:54:13Z</time>
      </trkpt>
      <trkpt lat="42.81511" lon="1.74383">
        <ele>1739.8</ele>
        <time>2021-03-23T12:54:15Z</time>
      </trkpt>
      <trkpt lat="42.81511" lon="1.74383">
        <ele>1739.795</ele>
        <time>2021-03-23T12:54:17Z</time>
      </trkpt>
      <trkpt lat="42.81511" lon="1.74383">
        <ele>1739.796</ele>
        <time>2021-03-23T12:54:19Z</time>
      </trkpt>
      <trkpt lat="42.81511" lon="1.74383">
        <ele>1739.798</ele>
        <time>2021-03-23T12:54:21Z</time>
      </trkpt>
      <trkpt lat="42.81511" lon="1.74383">
        <ele>1739.796</ele>
        <time>2021-03-23T12:54:23Z</time>
      </trkpt>
      <trkpt lat="42.81511" lon="1.74383">
        <ele>1739.795</ele>
        <time>2021-03-23T12:54:25Z</time>
      </trkpt>
      <trkpt lat="42.81511" lon="1.74383">
        <ele>1739.806</ele>
        <time>2021-03-23T12:54:27Z</time>
      </trkpt>
      <trkpt lat="42.81511" lon="1.74383">
        <ele>1739.809</ele>
        <time>2021-03-23T12:54:29Z</time>
      </trkpt>
      <trkpt lat="42.81511" lon="1.74383">
        <ele>1739.816</ele>
        <time>2021-03-23T12:54:31Z</time>
      </trkpt>
      <trkpt lat="42.81511" lon="1.74383">
        <ele>1739.819</ele>
        <time>2021-03-23T12:54:33Z</time>
      </trkpt>
      <trkpt lat="42.81511" lon="1.74383">
        <ele>1739.822</ele>
        <time>2021-03-23T12:54:35Z</time>
      </trkpt>
      <trkpt lat="42.81511" lon="1.74383">
        <ele>1739.823</ele>
        <time>2021-03-23T12:54:37Z</time>
      </trkpt>
      <trkpt lat="42.81511" lon="1.74383">
        <ele>1739.828</ele>
        <time>2021-03-23T12:54:39Z</time>
      </trkpt>
      <trkpt lat="42.81511" lon="1.74383">
        <ele>1740.019</ele>
        <time>2021-03-23T12:54:41Z</time>
      </trkpt>
      <trkpt lat="42.8151" lon="1.74383">
        <ele>1741.076</ele>
        <time>2021-03-23T12:54:43Z</time>
      </trkpt>
      <trkpt lat="42.8151" lon="1.74385">
        <ele>1740.709</ele>
        <time>2021-03-23T12:54:45Z</time>
      </trkpt>
      <trkpt lat="42.8151" lon="1.74385">
        <ele>1740.719</ele>
        <time>2021-03-23T12:54:47Z</time>
      </trkpt>
      <trkpt lat="42.8151" lon="1.74385">
        <ele>1741.078</ele>
        <time>2021-03-23T12:54:49Z</time>
      </trkpt>
      <trkpt lat="42.8151" lon="1.74384">
        <ele>1741.085</ele>
        <time>2021-03-23T12:54:51Z</time>
      </trkpt>
      <trkpt lat="42.81511" lon="1.74385">
        <ele>1741.04</ele>
        <time>2021-03-23T12:54:53Z</time>
      </trkpt>
      <trkpt lat="42.81511" lon="1.74385">
        <ele>1741.046</ele>
        <time>2021-03-23T12:54:55Z</time>
      </trkpt>
      <trkpt lat="42.81511" lon="1.74385">
        <ele>1741.052</ele>
        <time>2021-03-23T12:54:57Z</time>
      </trkpt>
      <trkpt lat="42.81511" lon="1.74385">
        <ele>1741.066</ele>
        <time>2021-03-23T12:54:59Z</time>
      </trkpt>
      <trkpt lat="42.81511" lon="1.74385">
        <ele>1741.079</ele>
        <time>2021-03-23T12:55:01Z</time>
      </trkpt>
      <trkpt lat="42.81511" lon="1.74385">
        <ele>1741.086</ele>
        <time>2021-03-23T12:55:03Z</time>
      </trkpt>
      <trkpt lat="42.81511" lon="1.74385">
        <ele>1741.101</ele>
        <time>2021-03-23T12:55:05Z</time>
      </trkpt>
      <trkpt lat="42.81511" lon="1.74385">
        <ele>1741.113</ele>
        <time>2021-03-23T12:55:07Z</time>
      </trkpt>
      <trkpt lat="42.81511" lon="1.74385">
        <ele>1741.124</ele>
        <time>2021-03-23T12:55:09Z</time>
      </trkpt>
      <trkpt lat="42.81511" lon="1.74385">
        <ele>1741.13</ele>
        <time>2021-03-23T12:55:11Z</time>
      </trkpt>
      <trkpt lat="42.81511" lon="1.74385">
        <ele>1741.133</ele>
        <time>2021-03-23T12:55:13Z</time>
      </trkpt>
      <trkpt lat="42.81511" lon="1.74385">
        <ele>1741.142</ele>
        <time>2021-03-23T12:55:15Z</time>
      </trkpt>
      <trkpt lat="42.81511" lon="1.74385">
        <ele>1741.148</ele>
        <time>2021-03-23T12:55:17Z</time>
      </trkpt>
      <trkpt lat="42.81511" lon="1.74385">
        <ele>1741.154</ele>
        <time>2021-03-23T12:55:19Z</time>
      </trkpt>
      <trkpt lat="42.81511" lon="1.74385">
        <ele>1741.158</ele>
        <time>2021-03-23T12:55:21Z</time>
      </trkpt>
      <trkpt lat="42.81511" lon="1.74385">
        <ele>1741.167</ele>
        <time>2021-03-23T12:55:23Z</time>
      </trkpt>
      <trkpt lat="42.81511" lon="1.74385">
        <ele>1741.169</ele>
        <time>2021-03-23T12:55:25Z</time>
      </trkpt>
      <trkpt lat="42.81521" lon="1.74376">
        <ele>1743.98</ele>
        <time>2021-03-23T12:56:40Z</time>
      </trkpt>
      <trkpt lat="42.81514" lon="1.74377">
        <ele>1742.858</ele>
        <time>2021-03-23T12:56:42Z</time>
      </trkpt>
      <trkpt lat="42.81513" lon="1.74377">
        <ele>1741.949</ele>
        <time>2021-03-23T12:56:44Z</time>
      </trkpt>
      <trkpt lat="42.81512" lon="1.74377">
        <ele>1740.018</ele>
        <time>2021-03-23T12:56:46Z</time>
      </trkpt>
      <trkpt lat="42.81512" lon="1.74377">
        <ele>1741.496</ele>
        <time>2021-03-23T12:56:48Z</time>
      </trkpt>
      <trkpt lat="42.81512" lon="1.74378">
        <ele>1741.647</ele>
        <time>2021-03-23T12:56:50Z</time>
      </trkpt>
      <trkpt lat="42.81511" lon="1.74378">
        <ele>1741.118</ele>
        <time>2021-03-23T12:56:52Z</time>
      </trkpt>
      <trkpt lat="42.81511" lon="1.74379">
        <ele>1740.992</ele>
        <time>2021-03-23T12:56:54Z</time>
      </trkpt>
      <trkpt lat="42.8151" lon="1.7438">
        <ele>1741.263</ele>
        <time>2021-03-23T12:56:56Z</time>
      </trkpt>
      <trkpt lat="42.8151" lon="1.7438">
        <ele>1741.17</ele>
        <time>2021-03-23T12:56:58Z</time>
      </trkpt>
      <trkpt lat="42.81509" lon="1.7438">
        <ele>1741.557</ele>
        <time>2021-03-23T12:57:00Z</time>
      </trkpt>
      <trkpt lat="42.81508" lon="1.74381">
        <ele>1741.306</ele>
        <time>2021-03-23T12:57:02Z</time>
      </trkpt>
      <trkpt lat="42.81508" lon="1.74381">
        <ele>1741.2</ele>
        <time>2021-03-23T12:57:04Z</time>
      </trkpt>
      <trkpt lat="42.81508" lon="1.74382">
        <ele>1741.403</ele>
        <time>2021-03-23T12:57:06Z</time>
      </trkpt>
      <trkpt lat="42.81508" lon="1.74382">
        <ele>1741.326</ele>
        <time>2021-03-23T12:57:08Z</time>
      </trkpt>
      <trkpt lat="42.81508" lon="1.74382">
        <ele>1740.935</ele>
        <time>2021-03-23T12:57:10Z</time>
      </trkpt>
      <trkpt lat="42.81508" lon="1.74382">
        <ele>1739.955</ele>
        <time>2021-03-23T12:57:12Z</time>
      </trkpt>
      <trkpt lat="42.81508" lon="1.74382">
        <ele>1740.642</ele>
        <time>2021-03-23T12:57:14Z</time>
      </trkpt>
      <trkpt lat="42.81508" lon="1.74382">
        <ele>1741.048</ele>
        <time>2021-03-23T12:57:16Z</time>
      </trkpt>
      <trkpt lat="42.81508" lon="1.74382">
        <ele>1740.682</ele>
        <time>2021-03-23T12:57:18Z</time>
      </trkpt>
      <trkpt lat="42.81508" lon="1.74382">
        <ele>1741.142</ele>
        <time>2021-03-23T12:57:20Z</time>
      </trkpt>
      <trkpt lat="42.81509" lon="1.74381">
        <ele>1740.953</ele>
        <time>2021-03-23T12:57:22Z</time>
      </trkpt>
      <trkpt lat="42.81509" lon="1.74381">
        <ele>1740.848</ele>
        <time>2021-03-23T12:57:24Z</time>
      </trkpt>
      <trkpt lat="42.81509" lon="1.74381">
        <ele>1740.842</ele>
        <time>2021-03-23T12:57:26Z</time>
      </trkpt>
      <trkpt lat="42.81509" lon="1.74381">
        <ele>1740.849</ele>
        <time>2021-03-23T12:57:28Z</time>
      </trkpt>
      <trkpt lat="42.81509" lon="1.74381">
        <ele>1740.851</ele>
        <time>2021-03-23T12:57:30Z</time>
      </trkpt>
      <trkpt lat="42.81509" lon="1.74381">
        <ele>1740.862</ele>
        <time>2021-03-23T12:57:32Z</time>
      </trkpt>
      <trkpt lat="42.81509" lon="1.74381">
        <ele>1740.865</ele>
        <time>2021-03-23T12:57:34Z</time>
      </trkpt>
      <trkpt lat="42.81509" lon="1.74381">
        <ele>1740.639</ele>
        <time>2021-03-23T12:57:36Z</time>
      </trkpt>
      <trkpt lat="42.8151" lon="1.74379">
        <ele>1740.571</ele>
        <time>2021-03-23T12:57:38Z</time>
      </trkpt>
      <trkpt lat="42.81511" lon="1.74378">
        <ele>1740.706</ele>
        <time>2021-03-23T12:57:40Z</time>
      </trkpt>
      <trkpt lat="42.81512" lon="1.74376">
        <ele>1740.356</ele>
        <time>2021-03-23T12:57:42Z</time>
      </trkpt>
      <trkpt lat="42.81511" lon="1.74374">
        <ele>1739.994</ele>
        <time>2021-03-23T12:57:44Z</time>
      </trkpt>
      <trkpt lat="42.81511" lon="1.74372">
        <ele>1739.712</ele>
        <time>2021-03-23T12:57:46Z</time>
      </trkpt>
      <trkpt lat="42.81512" lon="1.74372">
        <ele>1739.608</ele>
        <time>2021-03-23T12:57:48Z</time>
      </trkpt>
      <trkpt lat="42.81512" lon="1.74372">
        <ele>1739.607</ele>
        <time>2021-03-23T12:57:50Z</time>
      </trkpt>
      <trkpt lat="42.81512" lon="1.74372">
        <ele>1739.608</ele>
        <time>2021-03-23T12:57:52Z</time>
      </trkpt>
      <trkpt lat="42.81512" lon="1.74372">
        <ele>1739.612</ele>
        <time>2021-03-23T12:57:54Z</time>
      </trkpt>
      <trkpt lat="42.81512" lon="1.74372">
        <ele>1739.611</ele>
        <time>2021-03-23T12:57:56Z</time>
      </trkpt>
      <trkpt lat="42.81512" lon="1.74372">
        <ele>1739.298</ele>
        <time>2021-03-23T12:57:58Z</time>
      </trkpt>
      <trkpt lat="42.81512" lon="1.74373">
        <ele>1739.351</ele>
        <time>2021-03-23T12:58:00Z</time>
      </trkpt>
      <trkpt lat="42.81512" lon="1.74374">
        <ele>1739.247</ele>
        <time>2021-03-23T12:58:02Z</time>
      </trkpt>
      <trkpt lat="42.81513" lon="1.74375">
        <ele>1739.562</ele>
        <time>2021-03-23T12:58:04Z</time>
      </trkpt>
      <trkpt lat="42.81514" lon="1.74377">
        <ele>1740.099</ele>
        <time>2021-03-23T12:58:06Z</time>
      </trkpt>
      <trkpt lat="42.81515" lon="1.74379">
        <ele>1740.384</ele>
        <time>2021-03-23T12:58:08Z</time>
      </trkpt>
      <trkpt lat="42.81516" lon="1.7438">
        <ele>1740.944</ele>
        <time>2021-03-23T12:58:10Z</time>
      </trkpt>
      <trkpt lat="42.81515" lon="1.74382">
        <ele>1740.114</ele>
        <time>2021-03-23T12:58:12Z</time>
      </trkpt>
      <trkpt lat="42.81514" lon="1.74384">
        <ele>1739.419</ele>
        <time>2021-03-23T12:58:14Z</time>
      </trkpt>
      <trkpt lat="42.81514" lon="1.74385">
        <ele>1739.659</ele>
        <time>2021-03-23T12:58:16Z</time>
      </trkpt>
      <trkpt lat="42.81514" lon="1.74385">
        <ele>1738.543</ele>
        <time>2021-03-23T12:58:18Z</time>
      </trkpt>
      <trkpt lat="42.81514" lon="1.74385">
        <ele>1738.622</ele>
        <time>2021-03-23T12:58:20Z</time>
      </trkpt>
      <trkpt lat="42.81514" lon="1.74385">
        <ele>1738.631</ele>
        <time>2021-03-23T12:58:22Z</time>
      </trkpt>
      <trkpt lat="42.81514" lon="1.74385">
        <ele>1738.636</ele>
        <time>2021-03-23T12:58:24Z</time>
      </trkpt>
      <trkpt lat="42.81514" lon="1.74385">
        <ele>1738.643</ele>
        <time>2021-03-23T12:58:26Z</time>
      </trkpt>
      <trkpt lat="42.81514" lon="1.74385">
        <ele>1738.645</ele>
        <time>2021-03-23T12:58:28Z</time>
      </trkpt>
      <trkpt lat="42.81515" lon="1.74385">
        <ele>1739.074</ele>
        <time>2021-03-23T12:58:30Z</time>
      </trkpt>
      <trkpt lat="42.81515" lon="1.74385">
        <ele>1739.047</ele>
        <time>2021-03-23T12:58:32Z</time>
      </trkpt>
      <trkpt lat="42.81515" lon="1.74385">
        <ele>1739.046</ele>
        <time>2021-03-23T12:58:34Z</time>
      </trkpt>
      <trkpt lat="42.81515" lon="1.74385">
        <ele>1739.047</ele>
        <time>2021-03-23T12:58:36Z</time>
      </trkpt>
      <trkpt lat="42.81515" lon="1.74385">
        <ele>1739.039</ele>
        <time>2021-03-23T12:58:38Z</time>
      </trkpt>
      <trkpt lat="42.81515" lon="1.74385">
        <ele>1739.036</ele>
        <time>2021-03-23T12:58:40Z</time>
      </trkpt>
      <trkpt lat="42.81515" lon="1.74385">
        <ele>1739.037</ele>
        <time>2021-03-23T12:58:42Z</time>
      </trkpt>
      <trkpt lat="42.81515" lon="1.74385">
        <ele>1739.032</ele>
        <time>2021-03-23T12:58:44Z</time>
      </trkpt>
      <trkpt lat="42.81515" lon="1.74385">
        <ele>1739.03</ele>
        <time>2021-03-23T12:58:46Z</time>
      </trkpt>
      <trkpt lat="42.81515" lon="1.74385">
        <ele>1739.03</ele>
        <time>2021-03-23T12:58:48Z</time>
      </trkpt>
      <trkpt lat="42.81515" lon="1.74385">
        <ele>1739.033</ele>
        <time>2021-03-23T12:58:50Z</time>
      </trkpt>
      <trkpt lat="42.81515" lon="1.74385">
        <ele>1739.035</ele>
        <time>2021-03-23T12:58:52Z</time>
      </trkpt>
      <trkpt lat="42.81515" lon="1.74385">
        <ele>1739.036</ele>
        <time>2021-03-23T12:58:54Z</time>
      </trkpt>
      <trkpt lat="42.81515" lon="1.74385">
        <ele>1739.037</ele>
        <time>2021-03-23T12:58:56Z</time>
      </trkpt>
      <trkpt lat="42.81515" lon="1.74385">
        <ele>1739.034</ele>
        <time>2021-03-23T12:58:58Z</time>
      </trkpt>
      <trkpt lat="42.81515" lon="1.74385">
        <ele>1739.036</ele>
        <time>2021-03-23T12:59:00Z</time>
      </trkpt>
      <trkpt lat="42.81515" lon="1.74385">
        <ele>1739.038</ele>
        <time>2021-03-23T12:59:02Z</time>
      </trkpt>
      <trkpt lat="42.81515" lon="1.74385">
        <ele>1739.036</ele>
        <time>2021-03-23T12:59:04Z</time>
      </trkpt>
      <trkpt lat="42.81515" lon="1.74385">
        <ele>1739.037</ele>
        <time>2021-03-23T12:59:06Z</time>
      </trkpt>
      <trkpt lat="42.81515" lon="1.74385">
        <ele>1739.036</ele>
        <time>2021-03-23T12:59:08Z</time>
      </trkpt>
      <trkpt lat="42.81515" lon="1.74385">
        <ele>1739.042</ele>
        <time>2021-03-23T12:59:10Z</time>
      </trkpt>
      <trkpt lat="42.81515" lon="1.74385">
        <ele>1739.046</ele>
        <time>2021-03-23T12:59:12Z</time>
      </trkpt>
      <trkpt lat="42.81515" lon="1.74385">
        <ele>1739.05</ele>
        <time>2021-03-23T12:59:14Z</time>
      </trkpt>
      <trkpt lat="42.81515" lon="1.74385">
        <ele>1739.045</ele>
        <time>2021-03-23T12:59:16Z</time>
      </trkpt>
      <trkpt lat="42.81515" lon="1.74385">
        <ele>1739.049</ele>
        <time>2021-03-23T12:59:18Z</time>
      </trkpt>
      <trkpt lat="42.81515" lon="1.74385">
        <ele>1739.05</ele>
        <time>2021-03-23T12:59:20Z</time>
      </trkpt>
      <trkpt lat="42.81515" lon="1.74385">
        <ele>1738.868</ele>
        <time>2021-03-23T12:59:22Z</time>
      </trkpt>
      <trkpt lat="42.81515" lon="1.74385">
        <ele>1738.874</ele>
        <time>2021-03-23T12:59:24Z</time>
      </trkpt>
      <trkpt lat="42.81514" lon="1.74386">
        <ele>1739.32</ele>
        <time>2021-03-23T12:59:26Z</time>
      </trkpt>
      <trkpt lat="42.81514" lon="1.74386">
        <ele>1739.31</ele>
        <time>2021-03-23T12:59:28Z</time>
      </trkpt>
      <trkpt lat="42.81514" lon="1.74386">
        <ele>1739.046</ele>
        <time>2021-03-23T12:59:30Z</time>
      </trkpt>
      <trkpt lat="42.81514" lon="1.74386">
        <ele>1739.081</ele>
        <time>2021-03-23T12:59:32Z</time>
      </trkpt>
      <trkpt lat="42.81514" lon="1.74386">
        <ele>1739.083</ele>
        <time>2021-03-23T12:59:34Z</time>
      </trkpt>
      <trkpt lat="42.81514" lon="1.74386">
        <ele>1739.084</ele>
        <time>2021-03-23T12:59:36Z</time>
      </trkpt>
      <trkpt lat="42.81514" lon="1.74386">
        <ele>1739.092</ele>
        <time>2021-03-23T12:59:38Z</time>
      </trkpt>
      <trkpt lat="42.81514" lon="1.74386">
        <ele>1739.302</ele>
        <time>2021-03-23T12:59:40Z</time>
      </trkpt>
      <trkpt lat="42.81514" lon="1.74385">
        <ele>1739.068</ele>
        <time>2021-03-23T12:59:42Z</time>
      </trkpt>
      <trkpt lat="42.81514" lon="1.74385">
        <ele>1739.062</ele>
        <time>2021-03-23T12:59:44Z</time>
      </trkpt>
      <trkpt lat="42.81514" lon="1.74385">
        <ele>1739.051</ele>
        <time>2021-03-23T12:59:46Z</time>
      </trkpt>
      <trkpt lat="42.81514" lon="1.74385">
        <ele>1739.044</ele>
        <time>2021-03-23T12:59:48Z</time>
      </trkpt>
      <trkpt lat="42.81514" lon="1.74385">
        <ele>1739.036</ele>
        <time>2021-03-23T12:59:50Z</time>
      </trkpt>
      <trkpt lat="42.81514" lon="1.74385">
        <ele>1739.038</ele>
        <time>2021-03-23T12:59:52Z</time>
      </trkpt>
      <trkpt lat="42.81514" lon="1.74385">
        <ele>1739.04</ele>
        <time>2021-03-23T12:59:54Z</time>
      </trkpt>
      <trkpt lat="42.81514" lon="1.74385">
        <ele>1739.022</ele>
        <time>2021-03-23T12:59:56Z</time>
      </trkpt>
      <trkpt lat="42.81514" lon="1.74385">
        <ele>1738.598</ele>
        <time>2021-03-23T12:59:58Z</time>
      </trkpt>
      <trkpt lat="42.81514" lon="1.74385">
        <ele>1738.603</ele>
        <time>2021-03-23T13:00:00Z</time>
      </trkpt>
      <trkpt lat="42.81514" lon="1.74385">
        <ele>1738.592</ele>
        <time>2021-03-23T13:00:02Z</time>
      </trkpt>
      <trkpt lat="42.81514" lon="1.74385">
        <ele>1738.997</ele>
        <time>2021-03-23T13:00:04Z</time>
      </trkpt>
      <trkpt lat="42.81513" lon="1.74385">
        <ele>1738.998</ele>
        <time>2021-03-23T13:00:06Z</time>
      </trkpt>
      <trkpt lat="42.81513" lon="1.74385">
        <ele>1738.997</ele>
        <time>2021-03-23T13:00:08Z</time>
      </trkpt>
      <trkpt lat="42.81513" lon="1.74385">
        <ele>1739</ele>
        <time>2021-03-23T13:00:10Z</time>
      </trkpt>
      <trkpt lat="42.81513" lon="1.74385">
        <ele>1739.001</ele>
        <time>2021-03-23T13:00:12Z</time>
      </trkpt>
      <trkpt lat="42.81513" lon="1.74385">
        <ele>1739.002</ele>
        <time>2021-03-23T13:00:14Z</time>
      </trkpt>
      <trkpt lat="42.81513" lon="1.74385">
        <ele>1739.005</ele>
        <time>2021-03-23T13:00:16Z</time>
      </trkpt>
      <trkpt lat="42.81513" lon="1.74385">
        <ele>1739.008</ele>
        <time>2021-03-23T13:00:18Z</time>
      </trkpt>
      <trkpt lat="42.81513" lon="1.74385">
        <ele>1739.009</ele>
        <time>2021-03-23T13:00:20Z</time>
      </trkpt>
      <trkpt lat="42.81513" lon="1.74385">
        <ele>1739.007</ele>
        <time>2021-03-23T13:00:22Z</time>
      </trkpt>
      <trkpt lat="42.81513" lon="1.74385">
        <ele>1739.008</ele>
        <time>2021-03-23T13:00:24Z</time>
      </trkpt>
      <trkpt lat="42.81513" lon="1.74384">
        <ele>1738.795</ele>
        <time>2021-03-23T13:00:26Z</time>
      </trkpt>
      <trkpt lat="42.81514" lon="1.74382">
        <ele>1739.025</ele>
        <time>2021-03-23T13:00:28Z</time>
      </trkpt>
      <trkpt lat="42.81513" lon="1.74381">
        <ele>1739.239</ele>
        <time>2021-03-23T13:00:30Z</time>
      </trkpt>
      <trkpt lat="42.81513" lon="1.74381">
        <ele>1739.24</ele>
        <time>2021-03-23T13:00:32Z</time>
      </trkpt>
      <trkpt lat="42.81513" lon="1.74381">
        <ele>1738.736</ele>
        <time>2021-03-23T13:00:34Z</time>
      </trkpt>
      <trkpt lat="42.81514" lon="1.74382">
        <ele>1738.503</ele>
        <time>2021-03-23T13:00:36Z</time>
      </trkpt>
      <trkpt lat="42.81514" lon="1.74383">
        <ele>1739.263</ele>
        <time>2021-03-23T13:00:38Z</time>
      </trkpt>
      <trkpt lat="42.81514" lon="1.74383">
        <ele>1739.238</ele>
        <time>2021-03-23T13:00:40Z</time>
      </trkpt>
      <trkpt lat="42.81514" lon="1.74383">
        <ele>1739.039</ele>
        <time>2021-03-23T13:00:42Z</time>
      </trkpt>
      <trkpt lat="42.81514" lon="1.74383">
        <ele>1739.04</ele>
        <time>2021-03-23T13:00:44Z</time>
      </trkpt>
      <trkpt lat="42.81514" lon="1.74383">
        <ele>1739.042</ele>
        <time>2021-03-23T13:00:46Z</time>
      </trkpt>
      <trkpt lat="42.81514" lon="1.74383">
        <ele>1739.054</ele>
        <time>2021-03-23T13:00:48Z</time>
      </trkpt>
      <trkpt lat="42.81514" lon="1.74383">
        <ele>1739.061</ele>
        <time>2021-03-23T13:00:50Z</time>
      </trkpt>
      <trkpt lat="42.81514" lon="1.74383">
        <ele>1739.062</ele>
        <time>2021-03-23T13:00:52Z</time>
      </trkpt>
      <trkpt lat="42.81514" lon="1.74383">
        <ele>1739.066</ele>
        <time>2021-03-23T13:00:54Z</time>
      </trkpt>
      <trkpt lat="42.81514" lon="1.74382">
        <ele>1739.072</ele>
        <time>2021-03-23T13:00:56Z</time>
      </trkpt>
      <trkpt lat="42.81514" lon="1.74382">
        <ele>1739.082</ele>
        <time>2021-03-23T13:00:58Z</time>
      </trkpt>
      <trkpt lat="42.81514" lon="1.74383">
        <ele>1739.09</ele>
        <time>2021-03-23T13:01:00Z</time>
      </trkpt>
      <trkpt lat="42.81514" lon="1.74383">
        <ele>1739.336</ele>
        <time>2021-03-23T13:01:02Z</time>
      </trkpt>
      <trkpt lat="42.81514" lon="1.74383">
        <ele>1739.361</ele>
        <time>2021-03-23T13:01:04Z</time>
      </trkpt>
      <trkpt lat="42.81514" lon="1.74383">
        <ele>1739.364</ele>
        <time>2021-03-23T13:01:06Z</time>
      </trkpt>
      <trkpt lat="42.81514" lon="1.74382">
        <ele>1739.125</ele>
        <time>2021-03-23T13:01:08Z</time>
      </trkpt>
      <trkpt lat="42.81514" lon="1.74381">
        <ele>1739.352</ele>
        <time>2021-03-23T13:01:10Z</time>
      </trkpt>
      <trkpt lat="42.81516" lon="1.7438">
        <ele>1738.988</ele>
        <time>2021-03-23T13:01:12Z</time>
      </trkpt>
      <trkpt lat="42.81517" lon="1.74381">
        <ele>1739.181</ele>
        <time>2021-03-23T13:01:14Z</time>
      </trkpt>
      <trkpt lat="42.81518" lon="1.74382">
        <ele>1739.943</ele>
        <time>2021-03-23T13:01:16Z</time>
      </trkpt>
      <trkpt lat="42.81519" lon="1.74383">
        <ele>1740.332</ele>
        <time>2021-03-23T13:01:18Z</time>
      </trkpt>
      <trkpt lat="42.8152" lon="1.74384">
        <ele>1741.249</ele>
        <time>2021-03-23T13:01:20Z</time>
      </trkpt>
      <trkpt lat="42.8152" lon="1.74384">
        <ele>1741.213</ele>
        <time>2021-03-23T13:01:22Z</time>
      </trkpt>
      <trkpt lat="42.8152" lon="1.74384">
        <ele>1741.213</ele>
        <time>2021-03-23T13:01:24Z</time>
      </trkpt>
      <trkpt lat="42.8152" lon="1.74384">
        <ele>1741.223</ele>
        <time>2021-03-23T13:01:26Z</time>
      </trkpt>
      <trkpt lat="42.8152" lon="1.74384">
        <ele>1741.236</ele>
        <time>2021-03-23T13:01:28Z</time>
      </trkpt>
      <trkpt lat="42.8152" lon="1.74384">
        <ele>1741.241</ele>
        <time>2021-03-23T13:01:30Z</time>
      </trkpt>
      <trkpt lat="42.8152" lon="1.74384">
        <ele>1741.243</ele>
        <time>2021-03-23T13:01:32Z</time>
      </trkpt>
      <trkpt lat="42.8152" lon="1.74384">
        <ele>1741.246</ele>
        <time>2021-03-23T13:01:34Z</time>
      </trkpt>
      <trkpt lat="42.8152" lon="1.74384">
        <ele>1741.24</ele>
        <time>2021-03-23T13:01:36Z</time>
      </trkpt>
      <trkpt lat="42.8152" lon="1.74384">
        <ele>1741.24</ele>
        <time>2021-03-23T13:01:38Z</time>
      </trkpt>
      <trkpt lat="42.8152" lon="1.74384">
        <ele>1741.24</ele>
        <time>2021-03-23T13:01:40Z</time>
      </trkpt>
      <trkpt lat="42.8152" lon="1.74384">
        <ele>1741.244</ele>
        <time>2021-03-23T13:01:42Z</time>
      </trkpt>
      <trkpt lat="42.8152" lon="1.74384">
        <ele>1741.248</ele>
        <time>2021-03-23T13:01:44Z</time>
      </trkpt>
      <trkpt lat="42.8152" lon="1.74384">
        <ele>1741.248</ele>
        <time>2021-03-23T13:01:46Z</time>
      </trkpt>
      <trkpt lat="42.8152" lon="1.74384">
        <ele>1741.25</ele>
        <time>2021-03-23T13:01:48Z</time>
      </trkpt>
      <trkpt lat="42.8152" lon="1.74384">
        <ele>1741.253</ele>
        <time>2021-03-23T13:01:50Z</time>
      </trkpt>
      <trkpt lat="42.8152" lon="1.74384">
        <ele>1741.251</ele>
        <time>2021-03-23T13:01:52Z</time>
      </trkpt>
      <trkpt lat="42.8152" lon="1.74384">
        <ele>1741.254</ele>
        <time>2021-03-23T13:01:54Z</time>
      </trkpt>
      <trkpt lat="42.8152" lon="1.74384">
        <ele>1741.252</ele>
        <time>2021-03-23T13:01:56Z</time>
      </trkpt>
      <trkpt lat="42.8152" lon="1.74384">
        <ele>1741.243</ele>
        <time>2021-03-23T13:01:58Z</time>
      </trkpt>
      <trkpt lat="42.8152" lon="1.74384">
        <ele>1741.229</ele>
        <time>2021-03-23T13:02:00Z</time>
      </trkpt>
      <trkpt lat="42.8152" lon="1.74384">
        <ele>1741.209</ele>
        <time>2021-03-23T13:02:02Z</time>
      </trkpt>
      <trkpt lat="42.8152" lon="1.74384">
        <ele>1741.206</ele>
        <time>2021-03-23T13:02:04Z</time>
      </trkpt>
      <trkpt lat="42.8152" lon="1.74384">
        <ele>1741.209</ele>
        <time>2021-03-23T13:02:06Z</time>
      </trkpt>
      <trkpt lat="42.8152" lon="1.74384">
        <ele>1741.207</ele>
        <time>2021-03-23T13:02:08Z</time>
      </trkpt>
      <trkpt lat="42.8152" lon="1.74384">
        <ele>1741.209</ele>
        <time>2021-03-23T13:02:10Z</time>
      </trkpt>
      <trkpt lat="42.8152" lon="1.74384">
        <ele>1741.212</ele>
        <time>2021-03-23T13:02:12Z</time>
      </trkpt>
      <trkpt lat="42.81519" lon="1.74383">
        <ele>1740.727</ele>
        <time>2021-03-23T13:02:14Z</time>
      </trkpt>
      <trkpt lat="42.81518" lon="1.74383">
        <ele>1740.463</ele>
        <time>2021-03-23T13:02:16Z</time>
      </trkpt>
      <trkpt lat="42.81517" lon="1.74382">
        <ele>1740.068</ele>
        <time>2021-03-23T13:02:18Z</time>
      </trkpt>
      <trkpt lat="42.81516" lon="1.74383">
        <ele>1739.051</ele>
        <time>2021-03-23T13:02:20Z</time>
      </trkpt>
      <trkpt lat="42.81516" lon="1.74383">
        <ele>1739.479</ele>
        <time>2021-03-23T13:02:22Z</time>
      </trkpt>
      <trkpt lat="42.81515" lon="1.74386">
        <ele>1738.492</ele>
        <time>2021-03-23T13:02:24Z</time>
      </trkpt>
      <trkpt lat="42.81516" lon="1.74385">
        <ele>1739.185</ele>
        <time>2021-03-23T13:02:26Z</time>
      </trkpt>
      <trkpt lat="42.81516" lon="1.74384">
        <ele>1739.176</ele>
        <time>2021-03-23T13:02:28Z</time>
      </trkpt>
      <trkpt lat="42.81516" lon="1.74384">
        <ele>1739.172</ele>
        <time>2021-03-23T13:02:30Z</time>
      </trkpt>
      <trkpt lat="42.81515" lon="1.74385">
        <ele>1738.486</ele>
        <time>2021-03-23T13:02:32Z</time>
      </trkpt>
      <trkpt lat="42.81514" lon="1.74386">
        <ele>1738.011</ele>
        <time>2021-03-23T13:02:34Z</time>
      </trkpt>
      <trkpt lat="42.81514" lon="1.74386">
        <ele>1738.487</ele>
        <time>2021-03-23T13:02:36Z</time>
      </trkpt>
      <trkpt lat="42.81514" lon="1.74385">
        <ele>1738.875</ele>
        <time>2021-03-23T13:02:38Z</time>
      </trkpt>
      <trkpt lat="42.81514" lon="1.74384">
        <ele>1738.869</ele>
        <time>2021-03-23T13:02:40Z</time>
      </trkpt>
      <trkpt lat="42.81514" lon="1.74384">
        <ele>1738.871</ele>
        <time>2021-03-23T13:02:42Z</time>
      </trkpt>
      <trkpt lat="42.81514" lon="1.74384">
        <ele>1738.874</ele>
        <time>2021-03-23T13:02:44Z</time>
      </trkpt>
      <trkpt lat="42.81514" lon="1.74384">
        <ele>1738.876</ele>
        <time>2021-03-23T13:02:46Z</time>
      </trkpt>
      <trkpt lat="42.81514" lon="1.74384">
        <ele>1738.881</ele>
        <time>2021-03-23T13:02:48Z</time>
      </trkpt>
      <trkpt lat="42.81514" lon="1.74384">
        <ele>1738.884</ele>
        <time>2021-03-23T13:02:50Z</time>
      </trkpt>
      <trkpt lat="42.81514" lon="1.74384">
        <ele>1738.884</ele>
        <time>2021-03-23T13:02:52Z</time>
      </trkpt>
      <trkpt lat="42.81514" lon="1.74384">
        <ele>1738.883</ele>
        <time>2021-03-23T13:02:54Z</time>
      </trkpt>
      <trkpt lat="42.81514" lon="1.74384">
        <ele>1738.885</ele>
        <time>2021-03-23T13:02:56Z</time>
      </trkpt>
      <trkpt lat="42.81514" lon="1.74384">
        <ele>1738.888</ele>
        <time>2021-03-23T13:02:58Z</time>
      </trkpt>
      <trkpt lat="42.81514" lon="1.74384">
        <ele>1738.893</ele>
        <time>2021-03-23T13:03:00Z</time>
      </trkpt>
      <trkpt lat="42.81514" lon="1.74384">
        <ele>1738.902</ele>
        <time>2021-03-23T13:03:02Z</time>
      </trkpt>
      <trkpt lat="42.81514" lon="1.74384">
        <ele>1738.909</ele>
        <time>2021-03-23T13:03:04Z</time>
      </trkpt>
      <trkpt lat="42.81514" lon="1.74384">
        <ele>1738.909</ele>
        <time>2021-03-23T13:03:06Z</time>
      </trkpt>
      <trkpt lat="42.81514" lon="1.74384">
        <ele>1738.91</ele>
        <time>2021-03-23T13:03:08Z</time>
      </trkpt>
      <trkpt lat="42.81514" lon="1.74384">
        <ele>1738.912</ele>
        <time>2021-03-23T13:03:10Z</time>
      </trkpt>
      <trkpt lat="42.81514" lon="1.74384">
        <ele>1738.915</ele>
        <time>2021-03-23T13:03:12Z</time>
      </trkpt>
      <trkpt lat="42.81514" lon="1.74384">
        <ele>1738.915</ele>
        <time>2021-03-23T13:03:14Z</time>
      </trkpt>
      <trkpt lat="42.81514" lon="1.74384">
        <ele>1738.914</ele>
        <time>2021-03-23T13:03:16Z</time>
      </trkpt>
      <trkpt lat="42.81514" lon="1.74384">
        <ele>1738.91</ele>
        <time>2021-03-23T13:03:18Z</time>
      </trkpt>
      <trkpt lat="42.81514" lon="1.74384">
        <ele>1738.907</ele>
        <time>2021-03-23T13:03:20Z</time>
      </trkpt>
      <trkpt lat="42.81514" lon="1.74384">
        <ele>1738.908</ele>
        <time>2021-03-23T13:03:22Z</time>
      </trkpt>
      <trkpt lat="42.81514" lon="1.74384">
        <ele>1738.905</ele>
        <time>2021-03-23T13:03:24Z</time>
      </trkpt>
      <trkpt lat="42.81514" lon="1.74384">
        <ele>1738.912</ele>
        <time>2021-03-23T13:03:26Z</time>
      </trkpt>
      <trkpt lat="42.81514" lon="1.74384">
        <ele>1738.911</ele>
        <time>2021-03-23T13:03:28Z</time>
      </trkpt>
      <trkpt lat="42.81514" lon="1.74384">
        <ele>1738.918</ele>
        <time>2021-03-23T13:03:30Z</time>
      </trkpt>
      <trkpt lat="42.81514" lon="1.74384">
        <ele>1738.92</ele>
        <time>2021-03-23T13:03:32Z</time>
      </trkpt>
      <trkpt lat="42.81514" lon="1.74384">
        <ele>1738.922</ele>
        <time>2021-03-23T13:03:34Z</time>
      </trkpt>
      <trkpt lat="42.81514" lon="1.74384">
        <ele>1738.924</ele>
        <time>2021-03-23T13:03:36Z</time>
      </trkpt>
      <trkpt lat="42.81514" lon="1.74384">
        <ele>1738.925</ele>
        <time>2021-03-23T13:03:38Z</time>
      </trkpt>
      <trkpt lat="42.81514" lon="1.74384">
        <ele>1738.923</ele>
        <time>2021-03-23T13:03:40Z</time>
      </trkpt>
      <trkpt lat="42.81514" lon="1.74384">
        <ele>1738.922</ele>
        <time>2021-03-23T13:03:42Z</time>
      </trkpt>
      <trkpt lat="42.81514" lon="1.74384">
        <ele>1738.92</ele>
        <time>2021-03-23T13:03:44Z</time>
      </trkpt>
      <trkpt lat="42.81514" lon="1.74384">
        <ele>1738.92</ele>
        <time>2021-03-23T13:03:46Z</time>
      </trkpt>
      <trkpt lat="42.81514" lon="1.74384">
        <ele>1738.919</ele>
        <time>2021-03-23T13:03:48Z</time>
      </trkpt>
      <trkpt lat="42.81514" lon="1.74384">
        <ele>1738.918</ele>
        <time>2021-03-23T13:03:50Z</time>
      </trkpt>
      <trkpt lat="42.81514" lon="1.74384">
        <ele>1738.917</ele>
        <time>2021-03-23T13:03:52Z</time>
      </trkpt>
      <trkpt lat="42.81514" lon="1.74384">
        <ele>1738.915</ele>
        <time>2021-03-23T13:03:54Z</time>
      </trkpt>
      <trkpt lat="42.81514" lon="1.74384">
        <ele>1738.917</ele>
        <time>2021-03-23T13:03:56Z</time>
      </trkpt>
      <trkpt lat="42.81514" lon="1.74384">
        <ele>1738.916</ele>
        <time>2021-03-23T13:03:58Z</time>
      </trkpt>
      <trkpt lat="42.81514" lon="1.74384">
        <ele>1738.92</ele>
        <time>2021-03-23T13:04:00Z</time>
      </trkpt>
      <trkpt lat="42.81514" lon="1.74384">
        <ele>1738.92</ele>
        <time>2021-03-23T13:04:02Z</time>
      </trkpt>
      <trkpt lat="42.81514" lon="1.74384">
        <ele>1738.92</ele>
        <time>2021-03-23T13:04:04Z</time>
      </trkpt>
      <trkpt lat="42.81514" lon="1.74384">
        <ele>1738.926</ele>
        <time>2021-03-23T13:04:06Z</time>
      </trkpt>
      <trkpt lat="42.81514" lon="1.74384">
        <ele>1738.93</ele>
        <time>2021-03-23T13:04:08Z</time>
      </trkpt>
      <trkpt lat="42.81514" lon="1.74384">
        <ele>1738.928</ele>
        <time>2021-03-23T13:04:10Z</time>
      </trkpt>
      <trkpt lat="42.81514" lon="1.74384">
        <ele>1738.927</ele>
        <time>2021-03-23T13:04:12Z</time>
      </trkpt>
      <trkpt lat="42.81514" lon="1.74384">
        <ele>1738.926</ele>
        <time>2021-03-23T13:04:14Z</time>
      </trkpt>
      <trkpt lat="42.81514" lon="1.74384">
        <ele>1738.924</ele>
        <time>2021-03-23T13:04:16Z</time>
      </trkpt>
      <trkpt lat="42.81514" lon="1.74384">
        <ele>1738.92</ele>
        <time>2021-03-23T13:04:18Z</time>
      </trkpt>
      <trkpt lat="42.81514" lon="1.74384">
        <ele>1738.915</ele>
        <time>2021-03-23T13:04:20Z</time>
      </trkpt>
      <trkpt lat="42.81514" lon="1.74384">
        <ele>1738.905</ele>
        <time>2021-03-23T13:04:22Z</time>
      </trkpt>
      <trkpt lat="42.81514" lon="1.74384">
        <ele>1738.897</ele>
        <time>2021-03-23T13:04:24Z</time>
      </trkpt>
      <trkpt lat="42.81514" lon="1.74384">
        <ele>1738.901</ele>
        <time>2021-03-23T13:04:26Z</time>
      </trkpt>
      <trkpt lat="42.81514" lon="1.74384">
        <ele>1738.899</ele>
        <time>2021-03-23T13:04:28Z</time>
      </trkpt>
      <trkpt lat="42.81514" lon="1.74384">
        <ele>1738.898</ele>
        <time>2021-03-23T13:04:30Z</time>
      </trkpt>
      <trkpt lat="42.81514" lon="1.74384">
        <ele>1738.894</ele>
        <time>2021-03-23T13:04:32Z</time>
      </trkpt>
      <trkpt lat="42.81514" lon="1.74384">
        <ele>1738.906</ele>
        <time>2021-03-23T13:04:34Z</time>
      </trkpt>
      <trkpt lat="42.81514" lon="1.74384">
        <ele>1738.91</ele>
        <time>2021-03-23T13:04:36Z</time>
      </trkpt>
      <trkpt lat="42.81514" lon="1.74384">
        <ele>1738.914</ele>
        <time>2021-03-23T13:04:38Z</time>
      </trkpt>
      <trkpt lat="42.81514" lon="1.74384">
        <ele>1738.763</ele>
        <time>2021-03-23T13:04:40Z</time>
      </trkpt>
      <trkpt lat="42.81514" lon="1.74384">
        <ele>1738.766</ele>
        <time>2021-03-23T13:04:42Z</time>
      </trkpt>
      <trkpt lat="42.81514" lon="1.74384">
        <ele>1738.765</ele>
        <time>2021-03-23T13:04:44Z</time>
      </trkpt>
      <trkpt lat="42.81514" lon="1.74384">
        <ele>1738.583</ele>
        <time>2021-03-23T13:04:46Z</time>
      </trkpt>
      <trkpt lat="42.81514" lon="1.74384">
        <ele>1738.581</ele>
        <time>2021-03-23T13:04:48Z</time>
      </trkpt>
      <trkpt lat="42.81514" lon="1.74384">
        <ele>1738.579</ele>
        <time>2021-03-23T13:04:50Z</time>
      </trkpt>
      <trkpt lat="42.81514" lon="1.74384">
        <ele>1738.586</ele>
        <time>2021-03-23T13:04:52Z</time>
      </trkpt>
      <trkpt lat="42.81514" lon="1.74384">
        <ele>1738.623</ele>
        <time>2021-03-23T13:04:54Z</time>
      </trkpt>
      <trkpt lat="42.81514" lon="1.74384">
        <ele>1738.626</ele>
        <time>2021-03-23T13:04:56Z</time>
      </trkpt>
      <trkpt lat="42.81514" lon="1.74384">
        <ele>1738.628</ele>
        <time>2021-03-23T13:04:58Z</time>
      </trkpt>
      <trkpt lat="42.81514" lon="1.74384">
        <ele>1738.631</ele>
        <time>2021-03-23T13:05:00Z</time>
      </trkpt>
      <trkpt lat="42.81514" lon="1.74384">
        <ele>1738.634</ele>
        <time>2021-03-23T13:05:02Z</time>
      </trkpt>
      <trkpt lat="42.81514" lon="1.74384">
        <ele>1738.637</ele>
        <time>2021-03-23T13:05:04Z</time>
      </trkpt>
      <trkpt lat="42.81514" lon="1.74384">
        <ele>1738.637</ele>
        <time>2021-03-23T13:05:06Z</time>
      </trkpt>
      <trkpt lat="42.81514" lon="1.74384">
        <ele>1738.642</ele>
        <time>2021-03-23T13:05:08Z</time>
      </trkpt>
      <trkpt lat="42.81514" lon="1.74384">
        <ele>1738.651</ele>
        <time>2021-03-23T13:05:10Z</time>
      </trkpt>
      <trkpt lat="42.81514" lon="1.74384">
        <ele>1738.658</ele>
        <time>2021-03-23T13:05:12Z</time>
      </trkpt>
      <trkpt lat="42.81514" lon="1.74384">
        <ele>1738.659</ele>
        <time>2021-03-23T13:05:14Z</time>
      </trkpt>
      <trkpt lat="42.81514" lon="1.74384">
        <ele>1738.662</ele>
        <time>2021-03-23T13:05:16Z</time>
      </trkpt>
      <trkpt lat="42.81514" lon="1.74384">
        <ele>1738.668</ele>
        <time>2021-03-23T13:05:18Z</time>
      </trkpt>
      <trkpt lat="42.81514" lon="1.74384">
        <ele>1738.673</ele>
        <time>2021-03-23T13:05:20Z</time>
      </trkpt>
      <trkpt lat="42.81514" lon="1.74384">
        <ele>1738.679</ele>
        <time>2021-03-23T13:05:22Z</time>
      </trkpt>
      <trkpt lat="42.81514" lon="1.74384">
        <ele>1738.678</ele>
        <time>2021-03-23T13:05:24Z</time>
      </trkpt>
      <trkpt lat="42.81514" lon="1.74384">
        <ele>1738.685</ele>
        <time>2021-03-23T13:05:26Z</time>
      </trkpt>
      <trkpt lat="42.81514" lon="1.74384">
        <ele>1738.685</ele>
        <time>2021-03-23T13:05:28Z</time>
      </trkpt>
      <trkpt lat="42.81514" lon="1.74384">
        <ele>1738.686</ele>
        <time>2021-03-23T13:05:30Z</time>
      </trkpt>
      <trkpt lat="42.81514" lon="1.74384">
        <ele>1738.696</ele>
        <time>2021-03-23T13:05:32Z</time>
      </trkpt>
      <trkpt lat="42.81514" lon="1.74384">
        <ele>1738.71</ele>
        <time>2021-03-23T13:05:34Z</time>
      </trkpt>
      <trkpt lat="42.81514" lon="1.74384">
        <ele>1738.714</ele>
        <time>2021-03-23T13:05:36Z</time>
      </trkpt>
      <trkpt lat="42.81514" lon="1.74384">
        <ele>1738.721</ele>
        <time>2021-03-23T13:05:38Z</time>
      </trkpt>
      <trkpt lat="42.81514" lon="1.74384">
        <ele>1738.727</ele>
        <time>2021-03-23T13:05:40Z</time>
      </trkpt>
      <trkpt lat="42.81514" lon="1.74384">
        <ele>1738.739</ele>
        <time>2021-03-23T13:05:42Z</time>
      </trkpt>
      <trkpt lat="42.81514" lon="1.74384">
        <ele>1738.744</ele>
        <time>2021-03-23T13:05:44Z</time>
      </trkpt>
      <trkpt lat="42.81514" lon="1.74384">
        <ele>1738.751</ele>
        <time>2021-03-23T13:05:46Z</time>
      </trkpt>
      <trkpt lat="42.81514" lon="1.74384">
        <ele>1738.753</ele>
        <time>2021-03-23T13:05:47Z</time>
      </trkpt>
      <trkpt lat="42.81514" lon="1.74384">
        <ele>1738.757</ele>
        <time>2021-03-23T13:05:50Z</time>
      </trkpt>
      <trkpt lat="42.81514" lon="1.74384">
        <ele>1738.762</ele>
        <time>2021-03-23T13:05:52Z</time>
      </trkpt>
      <trkpt lat="42.81514" lon="1.74384">
        <ele>1738.766</ele>
        <time>2021-03-23T13:05:54Z</time>
      </trkpt>
      <trkpt lat="42.81514" lon="1.74384">
        <ele>1738.769</ele>
        <time>2021-03-23T13:05:56Z</time>
      </trkpt>
      <trkpt lat="42.81514" lon="1.74384">
        <ele>1738.775</ele>
        <time>2021-03-23T13:05:58Z</time>
      </trkpt>
      <trkpt lat="42.81514" lon="1.74384">
        <ele>1738.782</ele>
        <time>2021-03-23T13:06:00Z</time>
      </trkpt>
      <trkpt lat="42.81514" lon="1.74384">
        <ele>1738.789</ele>
        <time>2021-03-23T13:06:02Z</time>
      </trkpt>
      <trkpt lat="42.81514" lon="1.74384">
        <ele>1738.795</ele>
        <time>2021-03-23T13:06:05Z</time>
      </trkpt>
      <trkpt lat="42.81514" lon="1.74384">
        <ele>1738.793</ele>
        <time>2021-03-23T13:06:07Z</time>
      </trkpt>
      <trkpt lat="42.81514" lon="1.74384">
        <ele>1738.793</ele>
        <time>2021-03-23T13:06:09Z</time>
      </trkpt>
      <trkpt lat="42.81514" lon="1.74384">
        <ele>1738.789</ele>
        <time>2021-03-23T13:06:11Z</time>
      </trkpt>
      <trkpt lat="42.81514" lon="1.74384">
        <ele>1738.79</ele>
        <time>2021-03-23T13:06:13Z</time>
      </trkpt>
      <trkpt lat="42.81514" lon="1.74384">
        <ele>1738.788</ele>
        <time>2021-03-23T13:06:15Z</time>
      </trkpt>
      <trkpt lat="42.81514" lon="1.74384">
        <ele>1738.79</ele>
        <time>2021-03-23T13:06:17Z</time>
      </trkpt>
      <trkpt lat="42.81514" lon="1.74384">
        <ele>1738.797</ele>
        <time>2021-03-23T13:06:19Z</time>
      </trkpt>
      <trkpt lat="42.81514" lon="1.74384">
        <ele>1738.8</ele>
        <time>2021-03-23T13:06:21Z</time>
      </trkpt>
      <trkpt lat="42.81514" lon="1.74384">
        <ele>1738.804</ele>
        <time>2021-03-23T13:06:23Z</time>
      </trkpt>
      <trkpt lat="42.81514" lon="1.74384">
        <ele>1738.81</ele>
        <time>2021-03-23T13:06:25Z</time>
      </trkpt>
      <trkpt lat="42.81514" lon="1.74384">
        <ele>1738.815</ele>
        <time>2021-03-23T13:06:27Z</time>
      </trkpt>
      <trkpt lat="42.81514" lon="1.74384">
        <ele>1738.813</ele>
        <time>2021-03-23T13:06:29Z</time>
      </trkpt>
      <trkpt lat="42.81514" lon="1.74384">
        <ele>1738.817</ele>
        <time>2021-03-23T13:06:31Z</time>
      </trkpt>
      <trkpt lat="42.81514" lon="1.74384">
        <ele>1738.826</ele>
        <time>2021-03-23T13:06:33Z</time>
      </trkpt>
      <trkpt lat="42.81514" lon="1.74384">
        <ele>1738.825</ele>
        <time>2021-03-23T13:06:35Z</time>
      </trkpt>
      <trkpt lat="42.81514" lon="1.74384">
        <ele>1738.834</ele>
        <time>2021-03-23T13:06:37Z</time>
      </trkpt>
      <trkpt lat="42.81514" lon="1.74384">
        <ele>1738.837</ele>
        <time>2021-03-23T13:06:39Z</time>
      </trkpt>
      <trkpt lat="42.81514" lon="1.74384">
        <ele>1738.841</ele>
        <time>2021-03-23T13:06:41Z</time>
      </trkpt>
      <trkpt lat="42.81514" lon="1.74384">
        <ele>1738.845</ele>
        <time>2021-03-23T13:06:43Z</time>
      </trkpt>
      <trkpt lat="42.81514" lon="1.74384">
        <ele>1738.852</ele>
        <time>2021-03-23T13:06:45Z</time>
      </trkpt>
      <trkpt lat="42.81514" lon="1.74384">
        <ele>1738.854</ele>
        <time>2021-03-23T13:06:47Z</time>
      </trkpt>
      <trkpt lat="42.81514" lon="1.74384">
        <ele>1738.852</ele>
        <time>2021-03-23T13:06:49Z</time>
      </trkpt>
      <trkpt lat="42.81514" lon="1.74384">
        <ele>1738.85</ele>
        <time>2021-03-23T13:06:51Z</time>
      </trkpt>
      <trkpt lat="42.81514" lon="1.74384">
        <ele>1738.855</ele>
        <time>2021-03-23T13:06:53Z</time>
      </trkpt>
      <trkpt lat="42.81514" lon="1.74384">
        <ele>1738.858</ele>
        <time>2021-03-23T13:06:55Z</time>
      </trkpt>
      <trkpt lat="42.81514" lon="1.74384">
        <ele>1738.862</ele>
        <time>2021-03-23T13:06:57Z</time>
      </trkpt>
      <trkpt lat="42.81514" lon="1.74384">
        <ele>1738.864</ele>
        <time>2021-03-23T13:06:59Z</time>
      </trkpt>
      <trkpt lat="42.81514" lon="1.74384">
        <ele>1738.871</ele>
        <time>2021-03-23T13:07:01Z</time>
      </trkpt>
      <trkpt lat="42.81514" lon="1.74384">
        <ele>1738.871</ele>
        <time>2021-03-23T13:07:03Z</time>
      </trkpt>
      <trkpt lat="42.81514" lon="1.74384">
        <ele>1738.88</ele>
        <time>2021-03-23T13:07:05Z</time>
      </trkpt>
      <trkpt lat="42.81514" lon="1.74384">
        <ele>1738.889</ele>
        <time>2021-03-23T13:07:07Z</time>
      </trkpt>
      <trkpt lat="42.81514" lon="1.74384">
        <ele>1738.891</ele>
        <time>2021-03-23T13:07:09Z</time>
      </trkpt>
      <trkpt lat="42.81514" lon="1.74384">
        <ele>1738.897</ele>
        <time>2021-03-23T13:07:11Z</time>
      </trkpt>
      <trkpt lat="42.81514" lon="1.74384">
        <ele>1738.902</ele>
        <time>2021-03-23T13:07:13Z</time>
      </trkpt>
      <trkpt lat="42.81514" lon="1.74384">
        <ele>1738.905</ele>
        <time>2021-03-23T13:07:15Z</time>
      </trkpt>
      <trkpt lat="42.81514" lon="1.74384">
        <ele>1738.91</ele>
        <time>2021-03-23T13:07:17Z</time>
      </trkpt>
      <trkpt lat="42.81514" lon="1.74384">
        <ele>1738.918</ele>
        <time>2021-03-23T13:07:19Z</time>
      </trkpt>
      <trkpt lat="42.81514" lon="1.74384">
        <ele>1738.929</ele>
        <time>2021-03-23T13:07:21Z</time>
      </trkpt>
      <trkpt lat="42.81514" lon="1.74384">
        <ele>1738.939</ele>
        <time>2021-03-23T13:07:23Z</time>
      </trkpt>
      <trkpt lat="42.81514" lon="1.74384">
        <ele>1738.945</ele>
        <time>2021-03-23T13:07:25Z</time>
      </trkpt>
      <trkpt lat="42.81514" lon="1.74384">
        <ele>1738.95</ele>
        <time>2021-03-23T13:07:27Z</time>
      </trkpt>
      <trkpt lat="42.81514" lon="1.74384">
        <ele>1738.956</ele>
        <time>2021-03-23T13:07:29Z</time>
      </trkpt>
      <trkpt lat="42.81514" lon="1.74384">
        <ele>1738.959</ele>
        <time>2021-03-23T13:07:31Z</time>
      </trkpt>
      <trkpt lat="42.81514" lon="1.74384">
        <ele>1738.957</ele>
        <time>2021-03-23T13:07:33Z</time>
      </trkpt>
      <trkpt lat="42.81514" lon="1.74384">
        <ele>1738.958</ele>
        <time>2021-03-23T13:07:35Z</time>
      </trkpt>
      <trkpt lat="42.81514" lon="1.74384">
        <ele>1738.956</ele>
        <time>2021-03-23T13:07:37Z</time>
      </trkpt>
      <trkpt lat="42.81514" lon="1.74384">
        <ele>1738.958</ele>
        <time>2021-03-23T13:07:39Z</time>
      </trkpt>
      <trkpt lat="42.81514" lon="1.74384">
        <ele>1738.957</ele>
        <time>2021-03-23T13:07:41Z</time>
      </trkpt>
      <trkpt lat="42.81514" lon="1.74384">
        <ele>1738.958</ele>
        <time>2021-03-23T13:07:43Z</time>
      </trkpt>
      <trkpt lat="42.81514" lon="1.74384">
        <ele>1738.961</ele>
        <time>2021-03-23T13:07:45Z</time>
      </trkpt>
      <trkpt lat="42.81514" lon="1.74384">
        <ele>1738.96</ele>
        <time>2021-03-23T13:07:47Z</time>
      </trkpt>
      <trkpt lat="42.81514" lon="1.74384">
        <ele>1738.963</ele>
        <time>2021-03-23T13:07:49Z</time>
      </trkpt>
      <trkpt lat="42.81514" lon="1.74384">
        <ele>1738.967</ele>
        <time>2021-03-23T13:07:51Z</time>
      </trkpt>
      <trkpt lat="42.81514" lon="1.74384">
        <ele>1738.972</ele>
        <time>2021-03-23T13:07:53Z</time>
      </trkpt>
      <trkpt lat="42.81514" lon="1.74384">
        <ele>1738.976</ele>
        <time>2021-03-23T13:07:55Z</time>
      </trkpt>
      <trkpt lat="42.81514" lon="1.74384">
        <ele>1738.981</ele>
        <time>2021-03-23T13:07:57Z</time>
      </trkpt>
      <trkpt lat="42.81514" lon="1.74384">
        <ele>1738.977</ele>
        <time>2021-03-23T13:07:59Z</time>
      </trkpt>
      <trkpt lat="42.81514" lon="1.74384">
        <ele>1738.976</ele>
        <time>2021-03-23T13:08:01Z</time>
      </trkpt>
      <trkpt lat="42.81514" lon="1.74384">
        <ele>1738.978</ele>
        <time>2021-03-23T13:08:03Z</time>
      </trkpt>
      <trkpt lat="42.81514" lon="1.74384">
        <ele>1738.976</ele>
        <time>2021-03-23T13:08:05Z</time>
      </trkpt>
      <trkpt lat="42.81514" lon="1.74384">
        <ele>1738.974</ele>
        <time>2021-03-23T13:08:07Z</time>
      </trkpt>
      <trkpt lat="42.81514" lon="1.74384">
        <ele>1738.969</ele>
        <time>2021-03-23T13:08:09Z</time>
      </trkpt>
      <trkpt lat="42.81514" lon="1.74384">
        <ele>1738.972</ele>
        <time>2021-03-23T13:08:11Z</time>
      </trkpt>
      <trkpt lat="42.81514" lon="1.74384">
        <ele>1738.973</ele>
        <time>2021-03-23T13:08:13Z</time>
      </trkpt>
      <trkpt lat="42.81514" lon="1.74384">
        <ele>1738.977</ele>
        <time>2021-03-23T13:08:15Z</time>
      </trkpt>
      <trkpt lat="42.81514" lon="1.74384">
        <ele>1738.984</ele>
        <time>2021-03-23T13:08:17Z</time>
      </trkpt>
      <trkpt lat="42.81514" lon="1.74384">
        <ele>1738.986</ele>
        <time>2021-03-23T13:08:19Z</time>
      </trkpt>
      <trkpt lat="42.81514" lon="1.74384">
        <ele>1738.985</ele>
        <time>2021-03-23T13:08:21Z</time>
      </trkpt>
      <trkpt lat="42.81514" lon="1.74384">
        <ele>1738.988</ele>
        <time>2021-03-23T13:08:23Z</time>
      </trkpt>
      <trkpt lat="42.81514" lon="1.74384">
        <ele>1738.987</ele>
        <time>2021-03-23T13:08:25Z</time>
      </trkpt>
      <trkpt lat="42.81514" lon="1.74384">
        <ele>1738.989</ele>
        <time>2021-03-23T13:08:27Z</time>
      </trkpt>
      <trkpt lat="42.81514" lon="1.74384">
        <ele>1738.991</ele>
        <time>2021-03-23T13:08:29Z</time>
      </trkpt>
      <trkpt lat="42.81514" lon="1.74384">
        <ele>1738.994</ele>
        <time>2021-03-23T13:08:31Z</time>
      </trkpt>
      <trkpt lat="42.81514" lon="1.74384">
        <ele>1738.992</ele>
        <time>2021-03-23T13:08:33Z</time>
      </trkpt>
      <trkpt lat="42.81514" lon="1.74384">
        <ele>1738.988</ele>
        <time>2021-03-23T13:08:35Z</time>
      </trkpt>
      <trkpt lat="42.81514" lon="1.74384">
        <ele>1738.984</ele>
        <time>2021-03-23T13:08:37Z</time>
      </trkpt>
      <trkpt lat="42.81514" lon="1.74384">
        <ele>1738.983</ele>
        <time>2021-03-23T13:08:39Z</time>
      </trkpt>
      <trkpt lat="42.81514" lon="1.74384">
        <ele>1738.984</ele>
        <time>2021-03-23T13:08:41Z</time>
      </trkpt>
      <trkpt lat="42.81514" lon="1.74384">
        <ele>1738.984</ele>
        <time>2021-03-23T13:08:43Z</time>
      </trkpt>
      <trkpt lat="42.81514" lon="1.74384">
        <ele>1738.986</ele>
        <time>2021-03-23T13:08:45Z</time>
      </trkpt>
      <trkpt lat="42.81514" lon="1.74384">
        <ele>1738.981</ele>
        <time>2021-03-23T13:08:47Z</time>
      </trkpt>
      <trkpt lat="42.81514" lon="1.74384">
        <ele>1738.98</ele>
        <time>2021-03-23T13:08:49Z</time>
      </trkpt>
      <trkpt lat="42.81514" lon="1.74384">
        <ele>1738.981</ele>
        <time>2021-03-23T13:08:51Z</time>
      </trkpt>
      <trkpt lat="42.81514" lon="1.74384">
        <ele>1738.981</ele>
        <time>2021-03-23T13:08:53Z</time>
      </trkpt>
      <trkpt lat="42.81514" lon="1.74384">
        <ele>1738.981</ele>
        <time>2021-03-23T13:08:55Z</time>
      </trkpt>
      <trkpt lat="42.81514" lon="1.74384">
        <ele>1738.981</ele>
        <time>2021-03-23T13:08:57Z</time>
      </trkpt>
      <trkpt lat="42.81514" lon="1.74384">
        <ele>1738.978</ele>
        <time>2021-03-23T13:08:59Z</time>
      </trkpt>
      <trkpt lat="42.81514" lon="1.74384">
        <ele>1738.978</ele>
        <time>2021-03-23T13:09:01Z</time>
      </trkpt>
      <trkpt lat="42.81514" lon="1.74384">
        <ele>1738.978</ele>
        <time>2021-03-23T13:09:03Z</time>
      </trkpt>
      <trkpt lat="42.81514" lon="1.74384">
        <ele>1738.982</ele>
        <time>2021-03-23T13:09:05Z</time>
      </trkpt>
      <trkpt lat="42.81514" lon="1.74384">
        <ele>1738.982</ele>
        <time>2021-03-23T13:09:07Z</time>
      </trkpt>
      <trkpt lat="42.81514" lon="1.74384">
        <ele>1738.984</ele>
        <time>2021-03-23T13:09:09Z</time>
      </trkpt>
      <trkpt lat="42.81514" lon="1.74384">
        <ele>1738.983</ele>
        <time>2021-03-23T13:09:11Z</time>
      </trkpt>
      <trkpt lat="42.81514" lon="1.74384">
        <ele>1738.982</ele>
        <time>2021-03-23T13:09:13Z</time>
      </trkpt>
      <trkpt lat="42.81514" lon="1.74384">
        <ele>1738.982</ele>
        <time>2021-03-23T13:09:15Z</time>
      </trkpt>
      <trkpt lat="42.81514" lon="1.74384">
        <ele>1738.982</ele>
        <time>2021-03-23T13:09:17Z</time>
      </trkpt>
      <trkpt lat="42.81514" lon="1.74384">
        <ele>1738.983</ele>
        <time>2021-03-23T13:09:19Z</time>
      </trkpt>
      <trkpt lat="42.81514" lon="1.74384">
        <ele>1738.98</ele>
        <time>2021-03-23T13:09:21Z</time>
      </trkpt>
      <trkpt lat="42.81514" lon="1.74384">
        <ele>1738.981</ele>
        <time>2021-03-23T13:09:22Z</time>
      </trkpt>
      <trkpt lat="42.81514" lon="1.74384">
        <ele>1738.985</ele>
        <time>2021-03-23T13:09:25Z</time>
      </trkpt>
      <trkpt lat="42.81514" lon="1.74384">
        <ele>1738.982</ele>
        <time>2021-03-23T13:09:27Z</time>
      </trkpt>
      <trkpt lat="42.81514" lon="1.74384">
        <ele>1738.982</ele>
        <time>2021-03-23T13:09:29Z</time>
      </trkpt>
      <trkpt lat="42.81514" lon="1.74384">
        <ele>1738.982</ele>
        <time>2021-03-23T13:09:31Z</time>
      </trkpt>
      <trkpt lat="42.81514" lon="1.74384">
        <ele>1738.979</ele>
        <time>2021-03-23T13:09:33Z</time>
      </trkpt>
      <trkpt lat="42.81514" lon="1.74384">
        <ele>1738.982</ele>
        <time>2021-03-23T13:09:35Z</time>
      </trkpt>
      <trkpt lat="42.81514" lon="1.74384">
        <ele>1738.983</ele>
        <time>2021-03-23T13:09:37Z</time>
      </trkpt>
      <trkpt lat="42.81514" lon="1.74384">
        <ele>1738.985</ele>
        <time>2021-03-23T13:09:39Z</time>
      </trkpt>
      <trkpt lat="42.81514" lon="1.74384">
        <ele>1738.983</ele>
        <time>2021-03-23T13:09:43Z</time>
      </trkpt>
      <trkpt lat="42.81514" lon="1.74384">
        <ele>1738.987</ele>
        <time>2021-03-23T13:09:45Z</time>
      </trkpt>
      <trkpt lat="42.81514" lon="1.74384">
        <ele>1738.991</ele>
        <time>2021-03-23T13:09:47Z</time>
      </trkpt>
      <trkpt lat="42.81514" lon="1.74384">
        <ele>1738.987</ele>
        <time>2021-03-23T13:09:49Z</time>
      </trkpt>
      <trkpt lat="42.81514" lon="1.74384">
        <ele>1738.983</ele>
        <time>2021-03-23T13:09:51Z</time>
      </trkpt>
      <trkpt lat="42.81514" lon="1.74384">
        <ele>1738.984</ele>
        <time>2021-03-23T13:09:53Z</time>
      </trkpt>
      <trkpt lat="42.81514" lon="1.74384">
        <ele>1738.984</ele>
        <time>2021-03-23T13:09:55Z</time>
      </trkpt>
      <trkpt lat="42.81514" lon="1.74384">
        <ele>1738.985</ele>
        <time>2021-03-23T13:09:57Z</time>
      </trkpt>
      <trkpt lat="42.81514" lon="1.74384">
        <ele>1738.988</ele>
        <time>2021-03-23T13:09:59Z</time>
      </trkpt>
      <trkpt lat="42.81514" lon="1.74384">
        <ele>1738.991</ele>
        <time>2021-03-23T13:10:01Z</time>
      </trkpt>
      <trkpt lat="42.81514" lon="1.74384">
        <ele>1738.994</ele>
        <time>2021-03-23T13:10:03Z</time>
      </trkpt>
      <trkpt lat="42.81514" lon="1.74384">
        <ele>1738.987</ele>
        <time>2021-03-23T13:10:05Z</time>
      </trkpt>
      <trkpt lat="42.81514" lon="1.74384">
        <ele>1738.993</ele>
        <time>2021-03-23T13:10:07Z</time>
      </trkpt>
      <trkpt lat="42.81514" lon="1.74384">
        <ele>1738.994</ele>
        <time>2021-03-23T13:10:09Z</time>
      </trkpt>
      <trkpt lat="42.81514" lon="1.74384">
        <ele>1738.998</ele>
        <time>2021-03-23T13:10:11Z</time>
      </trkpt>
      <trkpt lat="42.81514" lon="1.74384">
        <ele>1739.002</ele>
        <time>2021-03-23T13:10:13Z</time>
      </trkpt>
      <trkpt lat="42.81514" lon="1.74384">
        <ele>1739.003</ele>
        <time>2021-03-23T13:10:15Z</time>
      </trkpt>
      <trkpt lat="42.81514" lon="1.74384">
        <ele>1739.005</ele>
        <time>2021-03-23T13:10:17Z</time>
      </trkpt>
      <trkpt lat="42.81514" lon="1.74384">
        <ele>1739.005</ele>
        <time>2021-03-23T13:10:19Z</time>
      </trkpt>
      <trkpt lat="42.81514" lon="1.74384">
        <ele>1739.008</ele>
        <time>2021-03-23T13:10:22Z</time>
      </trkpt>
      <trkpt lat="42.81514" lon="1.74384">
        <ele>1739.009</ele>
        <time>2021-03-23T13:10:24Z</time>
      </trkpt>
      <trkpt lat="42.81514" lon="1.74384">
        <ele>1739.01</ele>
        <time>2021-03-23T13:10:26Z</time>
      </trkpt>
      <trkpt lat="42.81514" lon="1.74384">
        <ele>1739.009</ele>
        <time>2021-03-23T13:10:28Z</time>
      </trkpt>
      <trkpt lat="42.81514" lon="1.74384">
        <ele>1739.01</ele>
        <time>2021-03-23T13:10:30Z</time>
      </trkpt>
      <trkpt lat="42.81514" lon="1.74384">
        <ele>1739.012</ele>
        <time>2021-03-23T13:10:32Z</time>
      </trkpt>
      <trkpt lat="42.81514" lon="1.74384">
        <ele>1739.012</ele>
        <time>2021-03-23T13:10:34Z</time>
      </trkpt>
      <trkpt lat="42.81514" lon="1.74384">
        <ele>1739.012</ele>
        <time>2021-03-23T13:10:36Z</time>
      </trkpt>
      <trkpt lat="42.81514" lon="1.74384">
        <ele>1739.013</ele>
        <time>2021-03-23T13:10:38Z</time>
      </trkpt>
      <trkpt lat="42.81514" lon="1.74384">
        <ele>1739.015</ele>
        <time>2021-03-23T13:10:40Z</time>
      </trkpt>
      <trkpt lat="42.81514" lon="1.74384">
        <ele>1739.009</ele>
        <time>2021-03-23T13:10:42Z</time>
      </trkpt>
      <trkpt lat="42.81514" lon="1.74384">
        <ele>1739.002</ele>
        <time>2021-03-23T13:10:44Z</time>
      </trkpt>
      <trkpt lat="42.81514" lon="1.74384">
        <ele>1739.003</ele>
        <time>2021-03-23T13:10:46Z</time>
      </trkpt>
      <trkpt lat="42.81514" lon="1.74384">
        <ele>1739.004</ele>
        <time>2021-03-23T13:10:48Z</time>
      </trkpt>
      <trkpt lat="42.81514" lon="1.74384">
        <ele>1739.006</ele>
        <time>2021-03-23T13:10:50Z</time>
      </trkpt>
      <trkpt lat="42.81514" lon="1.74384">
        <ele>1739.012</ele>
        <time>2021-03-23T13:10:52Z</time>
      </trkpt>
      <trkpt lat="42.81514" lon="1.74384">
        <ele>1739.02</ele>
        <time>2021-03-23T13:10:54Z</time>
      </trkpt>
      <trkpt lat="42.81514" lon="1.74384">
        <ele>1739.033</ele>
        <time>2021-03-23T13:10:56Z</time>
      </trkpt>
      <trkpt lat="42.81514" lon="1.74384">
        <ele>1739.036</ele>
        <time>2021-03-23T13:10:58Z</time>
      </trkpt>
      <trkpt lat="42.81514" lon="1.74384">
        <ele>1739.032</ele>
        <time>2021-03-23T13:11:00Z</time>
      </trkpt>
      <trkpt lat="42.81514" lon="1.74384">
        <ele>1739.032</ele>
        <time>2021-03-23T13:11:02Z</time>
      </trkpt>
      <trkpt lat="42.81514" lon="1.74384">
        <ele>1739.04</ele>
        <time>2021-03-23T13:11:04Z</time>
      </trkpt>
      <trkpt lat="42.81514" lon="1.74384">
        <ele>1739.052</ele>
        <time>2021-03-23T13:11:06Z</time>
      </trkpt>
      <trkpt lat="42.81514" lon="1.74384">
        <ele>1739.056</ele>
        <time>2021-03-23T13:11:08Z</time>
      </trkpt>
      <trkpt lat="42.81514" lon="1.74384">
        <ele>1739.058</ele>
        <time>2021-03-23T13:11:10Z</time>
      </trkpt>
      <trkpt lat="42.81514" lon="1.74384">
        <ele>1739.059</ele>
        <time>2021-03-23T13:11:12Z</time>
      </trkpt>
      <trkpt lat="42.81514" lon="1.74384">
        <ele>1739.069</ele>
        <time>2021-03-23T13:11:14Z</time>
      </trkpt>
      <trkpt lat="42.81514" lon="1.74384">
        <ele>1739.081</ele>
        <time>2021-03-23T13:11:16Z</time>
      </trkpt>
      <trkpt lat="42.81514" lon="1.74384">
        <ele>1739.086</ele>
        <time>2021-03-23T13:11:18Z</time>
      </trkpt>
      <trkpt lat="42.81514" lon="1.74384">
        <ele>1739.091</ele>
        <time>2021-03-23T13:11:20Z</time>
      </trkpt>
      <trkpt lat="42.81514" lon="1.74384">
        <ele>1739.094</ele>
        <time>2021-03-23T13:11:22Z</time>
      </trkpt>
      <trkpt lat="42.81514" lon="1.74384">
        <ele>1739.102</ele>
        <time>2021-03-23T13:11:24Z</time>
      </trkpt>
      <trkpt lat="42.81514" lon="1.74384">
        <ele>1739.098</ele>
        <time>2021-03-23T13:11:26Z</time>
      </trkpt>
      <trkpt lat="42.81514" lon="1.74384">
        <ele>1739.1</ele>
        <time>2021-03-23T13:11:28Z</time>
      </trkpt>
      <trkpt lat="42.81514" lon="1.74384">
        <ele>1739.098</ele>
        <time>2021-03-23T13:11:30Z</time>
      </trkpt>
      <trkpt lat="42.81514" lon="1.74384">
        <ele>1739.094</ele>
        <time>2021-03-23T13:11:32Z</time>
      </trkpt>
      <trkpt lat="42.81514" lon="1.74384">
        <ele>1739.093</ele>
        <time>2021-03-23T13:11:34Z</time>
      </trkpt>
      <trkpt lat="42.81514" lon="1.74384">
        <ele>1739.1</ele>
        <time>2021-03-23T13:11:36Z</time>
      </trkpt>
      <trkpt lat="42.81514" lon="1.74384">
        <ele>1739.109</ele>
        <time>2021-03-23T13:11:38Z</time>
      </trkpt>
      <trkpt lat="42.81514" lon="1.74384">
        <ele>1739.113</ele>
        <time>2021-03-23T13:11:40Z</time>
      </trkpt>
      <trkpt lat="42.81514" lon="1.74384">
        <ele>1739.12</ele>
        <time>2021-03-23T13:11:42Z</time>
      </trkpt>
      <trkpt lat="42.81514" lon="1.74384">
        <ele>1739.124</ele>
        <time>2021-03-23T13:11:44Z</time>
      </trkpt>
      <trkpt lat="42.81514" lon="1.74384">
        <ele>1739.128</ele>
        <time>2021-03-23T13:11:46Z</time>
      </trkpt>
      <trkpt lat="42.81514" lon="1.74384">
        <ele>1739.129</ele>
        <time>2021-03-23T13:11:48Z</time>
      </trkpt>
      <trkpt lat="42.81514" lon="1.74384">
        <ele>1739.133</ele>
        <time>2021-03-23T13:11:50Z</time>
      </trkpt>
      <trkpt lat="42.81514" lon="1.74384">
        <ele>1739.134</ele>
        <time>2021-03-23T13:11:52Z</time>
      </trkpt>
      <trkpt lat="42.81514" lon="1.74384">
        <ele>1739.142</ele>
        <time>2021-03-23T13:11:54Z</time>
      </trkpt>
      <trkpt lat="42.81514" lon="1.74384">
        <ele>1739.145</ele>
        <time>2021-03-23T13:11:56Z</time>
      </trkpt>
      <trkpt lat="42.81514" lon="1.74384">
        <ele>1739.154</ele>
        <time>2021-03-23T13:11:58Z</time>
      </trkpt>
      <trkpt lat="42.81514" lon="1.74384">
        <ele>1739.166</ele>
        <time>2021-03-23T13:12:00Z</time>
      </trkpt>
      <trkpt lat="42.81514" lon="1.74384">
        <ele>1739.175</ele>
        <time>2021-03-23T13:12:02Z</time>
      </trkpt>
      <trkpt lat="42.81514" lon="1.74384">
        <ele>1739.181</ele>
        <time>2021-03-23T13:12:04Z</time>
      </trkpt>
      <trkpt lat="42.81514" lon="1.74384">
        <ele>1739.189</ele>
        <time>2021-03-23T13:12:06Z</time>
      </trkpt>
      <trkpt lat="42.81514" lon="1.74384">
        <ele>1739.192</ele>
        <time>2021-03-23T13:12:08Z</time>
      </trkpt>
      <trkpt lat="42.81514" lon="1.74384">
        <ele>1739.196</ele>
        <time>2021-03-23T13:12:10Z</time>
      </trkpt>
      <trkpt lat="42.81514" lon="1.74384">
        <ele>1739.2</ele>
        <time>2021-03-23T13:12:12Z</time>
      </trkpt>
      <trkpt lat="42.81514" lon="1.74384">
        <ele>1739.201</ele>
        <time>2021-03-23T13:12:14Z</time>
      </trkpt>
      <trkpt lat="42.81514" lon="1.74384">
        <ele>1739.202</ele>
        <time>2021-03-23T13:12:16Z</time>
      </trkpt>
      <trkpt lat="42.81514" lon="1.74384">
        <ele>1739.209</ele>
        <time>2021-03-23T13:12:18Z</time>
      </trkpt>
      <trkpt lat="42.81514" lon="1.74384">
        <ele>1739.209</ele>
        <time>2021-03-23T13:12:20Z</time>
      </trkpt>
      <trkpt lat="42.81514" lon="1.74384">
        <ele>1739.208</ele>
        <time>2021-03-23T13:12:22Z</time>
      </trkpt>
      <trkpt lat="42.81514" lon="1.74384">
        <ele>1739.206</ele>
        <time>2021-03-23T13:12:24Z</time>
      </trkpt>
      <trkpt lat="42.81514" lon="1.74384">
        <ele>1739.207</ele>
        <time>2021-03-23T13:12:26Z</time>
      </trkpt>
      <trkpt lat="42.81514" lon="1.74384">
        <ele>1739.21</ele>
        <time>2021-03-23T13:12:28Z</time>
      </trkpt>
      <trkpt lat="42.81514" lon="1.74384">
        <ele>1739.209</ele>
        <time>2021-03-23T13:12:30Z</time>
      </trkpt>
      <trkpt lat="42.81514" lon="1.74384">
        <ele>1739.206</ele>
        <time>2021-03-23T13:12:32Z</time>
      </trkpt>
      <trkpt lat="42.81514" lon="1.74384">
        <ele>1739.209</ele>
        <time>2021-03-23T13:12:34Z</time>
      </trkpt>
      <trkpt lat="42.81514" lon="1.74384">
        <ele>1739.208</ele>
        <time>2021-03-23T13:12:36Z</time>
      </trkpt>
      <trkpt lat="42.81514" lon="1.74384">
        <ele>1739.213</ele>
        <time>2021-03-23T13:12:38Z</time>
      </trkpt>
      <trkpt lat="42.81514" lon="1.74384">
        <ele>1739.416</ele>
        <time>2021-03-23T13:12:40Z</time>
      </trkpt>
      <trkpt lat="42.81514" lon="1.74384">
        <ele>1739.425</ele>
        <time>2021-03-23T13:12:43Z</time>
      </trkpt>
      <trkpt lat="42.81514" lon="1.74384">
        <ele>1739.428</ele>
        <time>2021-03-23T13:12:45Z</time>
      </trkpt>
      <trkpt lat="42.81514" lon="1.74384">
        <ele>1739.433</ele>
        <time>2021-03-23T13:12:47Z</time>
      </trkpt>
      <trkpt lat="42.81514" lon="1.74384">
        <ele>1739.445</ele>
        <time>2021-03-23T13:12:49Z</time>
      </trkpt>
      <trkpt lat="42.81514" lon="1.74384">
        <ele>1739.453</ele>
        <time>2021-03-23T13:12:51Z</time>
      </trkpt>
      <trkpt lat="42.81514" lon="1.74384">
        <ele>1739.463</ele>
        <time>2021-03-23T13:12:53Z</time>
      </trkpt>
      <trkpt lat="42.81514" lon="1.74384">
        <ele>1739.465</ele>
        <time>2021-03-23T13:12:55Z</time>
      </trkpt>
      <trkpt lat="42.81514" lon="1.74384">
        <ele>1739.464</ele>
        <time>2021-03-23T13:12:57Z</time>
      </trkpt>
      <trkpt lat="42.81514" lon="1.74384">
        <ele>1739.467</ele>
        <time>2021-03-23T13:12:59Z</time>
      </trkpt>
      <trkpt lat="42.81514" lon="1.74384">
        <ele>1739.468</ele>
        <time>2021-03-23T13:13:01Z</time>
      </trkpt>
      <trkpt lat="42.81514" lon="1.74384">
        <ele>1739.471</ele>
        <time>2021-03-23T13:13:03Z</time>
      </trkpt>
      <trkpt lat="42.81514" lon="1.74384">
        <ele>1739.473</ele>
        <time>2021-03-23T13:13:05Z</time>
      </trkpt>
      <trkpt lat="42.81514" lon="1.74384">
        <ele>1739.473</ele>
        <time>2021-03-23T13:13:07Z</time>
      </trkpt>
      <trkpt lat="42.81514" lon="1.74384">
        <ele>1739.472</ele>
        <time>2021-03-23T13:13:09Z</time>
      </trkpt>
      <trkpt lat="42.81514" lon="1.74384">
        <ele>1739.471</ele>
        <time>2021-03-23T13:13:11Z</time>
      </trkpt>
      <trkpt lat="42.81514" lon="1.74384">
        <ele>1739.474</ele>
        <time>2021-03-23T13:13:13Z</time>
      </trkpt>
      <trkpt lat="42.81514" lon="1.74384">
        <ele>1739.477</ele>
        <time>2021-03-23T13:13:15Z</time>
      </trkpt>
      <trkpt lat="42.81514" lon="1.74384">
        <ele>1739.485</ele>
        <time>2021-03-23T13:13:17Z</time>
      </trkpt>
      <trkpt lat="42.81514" lon="1.74384">
        <ele>1739.488</ele>
        <time>2021-03-23T13:13:19Z</time>
      </trkpt>
      <trkpt lat="42.81514" lon="1.74384">
        <ele>1739.489</ele>
        <time>2021-03-23T13:13:21Z</time>
      </trkpt>
      <trkpt lat="42.81514" lon="1.74384">
        <ele>1739.492</ele>
        <time>2021-03-23T13:13:23Z</time>
      </trkpt>
      <trkpt lat="42.81514" lon="1.74384">
        <ele>1739.487</ele>
        <time>2021-03-23T13:13:25Z</time>
      </trkpt>
      <trkpt lat="42.81514" lon="1.74384">
        <ele>1739.489</ele>
        <time>2021-03-23T13:13:27Z</time>
      </trkpt>
      <trkpt lat="42.81514" lon="1.74384">
        <ele>1739.492</ele>
        <time>2021-03-23T13:13:29Z</time>
      </trkpt>
      <trkpt lat="42.81514" lon="1.74384">
        <ele>1739.491</ele>
        <time>2021-03-23T13:13:31Z</time>
      </trkpt>
      <trkpt lat="42.81514" lon="1.74384">
        <ele>1739.496</ele>
        <time>2021-03-23T13:13:33Z</time>
      </trkpt>
      <trkpt lat="42.81514" lon="1.74384">
        <ele>1739.492</ele>
        <time>2021-03-23T13:13:35Z</time>
      </trkpt>
      <trkpt lat="42.81514" lon="1.74384">
        <ele>1739.495</ele>
        <time>2021-03-23T13:13:37Z</time>
      </trkpt>
      <trkpt lat="42.81514" lon="1.74384">
        <ele>1739.495</ele>
        <time>2021-03-23T13:13:39Z</time>
      </trkpt>
      <trkpt lat="42.81514" lon="1.74384">
        <ele>1739.496</ele>
        <time>2021-03-23T13:13:41Z</time>
      </trkpt>
      <trkpt lat="42.81514" lon="1.74384">
        <ele>1739.496</ele>
        <time>2021-03-23T13:13:43Z</time>
      </trkpt>
      <trkpt lat="42.81514" lon="1.74384">
        <ele>1739.497</ele>
        <time>2021-03-23T13:13:45Z</time>
      </trkpt>
      <trkpt lat="42.81514" lon="1.74384">
        <ele>1739.496</ele>
        <time>2021-03-23T13:13:47Z</time>
      </trkpt>
      <trkpt lat="42.81514" lon="1.74384">
        <ele>1739.496</ele>
        <time>2021-03-23T13:13:49Z</time>
      </trkpt>
      <trkpt lat="42.81514" lon="1.74384">
        <ele>1739.495</ele>
        <time>2021-03-23T13:13:51Z</time>
      </trkpt>
      <trkpt lat="42.81514" lon="1.74384">
        <ele>1739.496</ele>
        <time>2021-03-23T13:13:53Z</time>
      </trkpt>
      <trkpt lat="42.81514" lon="1.74384">
        <ele>1739.496</ele>
        <time>2021-03-23T13:13:55Z</time>
      </trkpt>
      <trkpt lat="42.81514" lon="1.74384">
        <ele>1739.498</ele>
        <time>2021-03-23T13:13:57Z</time>
      </trkpt>
      <trkpt lat="42.81514" lon="1.74384">
        <ele>1739.501</ele>
        <time>2021-03-23T13:13:59Z</time>
      </trkpt>
      <trkpt lat="42.81514" lon="1.74384">
        <ele>1739.505</ele>
        <time>2021-03-23T13:14:01Z</time>
      </trkpt>
      <trkpt lat="42.81514" lon="1.74384">
        <ele>1739.514</ele>
        <time>2021-03-23T13:14:03Z</time>
      </trkpt>
      <trkpt lat="42.81514" lon="1.74384">
        <ele>1739.522</ele>
        <time>2021-03-23T13:14:05Z</time>
      </trkpt>
      <trkpt lat="42.81514" lon="1.74384">
        <ele>1739.528</ele>
        <time>2021-03-23T13:14:07Z</time>
      </trkpt>
      <trkpt lat="42.81514" lon="1.74384">
        <ele>1739.532</ele>
        <time>2021-03-23T13:14:09Z</time>
      </trkpt>
      <trkpt lat="42.81514" lon="1.74384">
        <ele>1739.532</ele>
        <time>2021-03-23T13:14:11Z</time>
      </trkpt>
      <trkpt lat="42.81514" lon="1.74384">
        <ele>1739.532</ele>
        <time>2021-03-23T13:14:13Z</time>
      </trkpt>
      <trkpt lat="42.81514" lon="1.74384">
        <ele>1739.533</ele>
        <time>2021-03-23T13:14:15Z</time>
      </trkpt>
      <trkpt lat="42.81514" lon="1.74384">
        <ele>1739.54</ele>
        <time>2021-03-23T13:14:17Z</time>
      </trkpt>
      <trkpt lat="42.81514" lon="1.74384">
        <ele>1739.546</ele>
        <time>2021-03-23T13:14:19Z</time>
      </trkpt>
      <trkpt lat="42.81514" lon="1.74384">
        <ele>1739.549</ele>
        <time>2021-03-23T13:14:21Z</time>
      </trkpt>
      <trkpt lat="42.81514" lon="1.74384">
        <ele>1739.552</ele>
        <time>2021-03-23T13:14:23Z</time>
      </trkpt>
      <trkpt lat="42.81514" lon="1.74384">
        <ele>1739.552</ele>
        <time>2021-03-23T13:14:25Z</time>
      </trkpt>
      <trkpt lat="42.81514" lon="1.74384">
        <ele>1739.557</ele>
        <time>2021-03-23T13:14:27Z</time>
      </trkpt>
      <trkpt lat="42.81514" lon="1.74384">
        <ele>1739.564</ele>
        <time>2021-03-23T13:14:29Z</time>
      </trkpt>
      <trkpt lat="42.81514" lon="1.74384">
        <ele>1739.566</ele>
        <time>2021-03-23T13:14:31Z</time>
      </trkpt>
      <trkpt lat="42.81514" lon="1.74384">
        <ele>1739.566</ele>
        <time>2021-03-23T13:14:33Z</time>
      </trkpt>
      <trkpt lat="42.81514" lon="1.74384">
        <ele>1739.571</ele>
        <time>2021-03-23T13:14:35Z</time>
      </trkpt>
      <trkpt lat="42.81514" lon="1.74384">
        <ele>1739.575</ele>
        <time>2021-03-23T13:14:37Z</time>
      </trkpt>
      <trkpt lat="42.81514" lon="1.74384">
        <ele>1739.576</ele>
        <time>2021-03-23T13:14:39Z</time>
      </trkpt>
      <trkpt lat="42.81514" lon="1.74384">
        <ele>1739.578</ele>
        <time>2021-03-23T13:14:41Z</time>
      </trkpt>
      <trkpt lat="42.81514" lon="1.74384">
        <ele>1739.581</ele>
        <time>2021-03-23T13:14:43Z</time>
      </trkpt>
      <trkpt lat="42.81514" lon="1.74384">
        <ele>1739.584</ele>
        <time>2021-03-23T13:14:45Z</time>
      </trkpt>
      <trkpt lat="42.81514" lon="1.74384">
        <ele>1739.586</ele>
        <time>2021-03-23T13:14:47Z</time>
      </trkpt>
      <trkpt lat="42.81514" lon="1.74384">
        <ele>1739.587</ele>
        <time>2021-03-23T13:14:49Z</time>
      </trkpt>
      <trkpt lat="42.81514" lon="1.74384">
        <ele>1739.587</ele>
        <time>2021-03-23T13:14:51Z</time>
      </trkpt>
      <trkpt lat="42.81514" lon="1.74384">
        <ele>1739.591</ele>
        <time>2021-03-23T13:14:53Z</time>
      </trkpt>
      <trkpt lat="42.81513" lon="1.74384">
        <ele>1739.75</ele>
        <time>2021-03-23T13:14:55Z</time>
      </trkpt>
      <trkpt lat="42.81513" lon="1.74384">
        <ele>1739.749</ele>
        <time>2021-03-23T13:14:57Z</time>
      </trkpt>
      <trkpt lat="42.81513" lon="1.74384">
        <ele>1739.752</ele>
        <time>2021-03-23T13:14:59Z</time>
      </trkpt>
      <trkpt lat="42.81513" lon="1.74384">
        <ele>1739.751</ele>
        <time>2021-03-23T13:15:01Z</time>
      </trkpt>
      <trkpt lat="42.81513" lon="1.74384">
        <ele>1739.749</ele>
        <time>2021-03-23T13:15:03Z</time>
      </trkpt>
      <trkpt lat="42.81513" lon="1.74384">
        <ele>1739.745</ele>
        <time>2021-03-23T13:15:05Z</time>
      </trkpt>
      <trkpt lat="42.81513" lon="1.74384">
        <ele>1739.743</ele>
        <time>2021-03-23T13:15:07Z</time>
      </trkpt>
      <trkpt lat="42.81513" lon="1.74383">
        <ele>1739.733</ele>
        <time>2021-03-23T13:15:09Z</time>
      </trkpt>
      <trkpt lat="42.81513" lon="1.74383">
        <ele>1739.726</ele>
        <time>2021-03-23T13:15:11Z</time>
      </trkpt>
      <trkpt lat="42.81513" lon="1.74383">
        <ele>1739.726</ele>
        <time>2021-03-23T13:15:13Z</time>
      </trkpt>
      <trkpt lat="42.81513" lon="1.74383">
        <ele>1739.723</ele>
        <time>2021-03-23T13:15:15Z</time>
      </trkpt>
      <trkpt lat="42.81514" lon="1.74384">
        <ele>1738.864</ele>
        <time>2021-03-23T13:15:17Z</time>
      </trkpt>
      <trkpt lat="42.81514" lon="1.74384">
        <ele>1738.931</ele>
        <time>2021-03-23T13:15:19Z</time>
      </trkpt>
      <trkpt lat="42.81514" lon="1.74384">
        <ele>1738.862</ele>
        <time>2021-03-23T13:15:21Z</time>
      </trkpt>
      <trkpt lat="42.81514" lon="1.74383">
        <ele>1739.064</ele>
        <time>2021-03-23T13:15:23Z</time>
      </trkpt>
      <trkpt lat="42.81514" lon="1.74381">
        <ele>1739.586</ele>
        <time>2021-03-23T13:15:25Z</time>
      </trkpt>
      <trkpt lat="42.81514" lon="1.74381">
        <ele>1739.336</ele>
        <time>2021-03-23T13:15:27Z</time>
      </trkpt>
      <trkpt lat="42.81514" lon="1.74381">
        <ele>1739.157</ele>
        <time>2021-03-23T13:15:29Z</time>
      </trkpt>
      <trkpt lat="42.81514" lon="1.74381">
        <ele>1739.156</ele>
        <time>2021-03-23T13:15:31Z</time>
      </trkpt>
      <trkpt lat="42.81514" lon="1.74381">
        <ele>1739.156</ele>
        <time>2021-03-23T13:15:33Z</time>
      </trkpt>
      <trkpt lat="42.81514" lon="1.74381">
        <ele>1739.191</ele>
        <time>2021-03-23T13:15:35Z</time>
      </trkpt>
      <trkpt lat="42.81514" lon="1.74381">
        <ele>1739.146</ele>
        <time>2021-03-23T13:15:37Z</time>
      </trkpt>
      <trkpt lat="42.81514" lon="1.74381">
        <ele>1739.149</ele>
        <time>2021-03-23T13:15:39Z</time>
      </trkpt>
      <trkpt lat="42.81514" lon="1.74381">
        <ele>1739.154</ele>
        <time>2021-03-23T13:15:41Z</time>
      </trkpt>
      <trkpt lat="42.81514" lon="1.7438">
        <ele>1739.372</ele>
        <time>2021-03-23T13:15:43Z</time>
      </trkpt>
      <trkpt lat="42.81514" lon="1.7438">
        <ele>1739.365</ele>
        <time>2021-03-23T13:15:45Z</time>
      </trkpt>
      <trkpt lat="42.81514" lon="1.7438">
        <ele>1739.356</ele>
        <time>2021-03-23T13:15:47Z</time>
      </trkpt>
      <trkpt lat="42.81514" lon="1.7438">
        <ele>1738.955</ele>
        <time>2021-03-23T13:15:49Z</time>
      </trkpt>
      <trkpt lat="42.81514" lon="1.7438">
        <ele>1738.951</ele>
        <time>2021-03-23T13:15:51Z</time>
      </trkpt>
      <trkpt lat="42.81514" lon="1.7438">
        <ele>1738.952</ele>
        <time>2021-03-23T13:15:53Z</time>
      </trkpt>
      <trkpt lat="42.81514" lon="1.7438">
        <ele>1738.944</ele>
        <time>2021-03-23T13:15:55Z</time>
      </trkpt>
      <trkpt lat="42.81514" lon="1.7438">
        <ele>1738.924</ele>
        <time>2021-03-23T13:15:57Z</time>
      </trkpt>
      <trkpt lat="42.81514" lon="1.7438">
        <ele>1738.907</ele>
        <time>2021-03-23T13:15:59Z</time>
      </trkpt>
      <trkpt lat="42.81514" lon="1.7438">
        <ele>1738.623</ele>
        <time>2021-03-23T13:16:01Z</time>
      </trkpt>
      <trkpt lat="42.81515" lon="1.7438">
        <ele>1738.656</ele>
        <time>2021-03-23T13:16:03Z</time>
      </trkpt>
      <trkpt lat="42.81515" lon="1.7438">
        <ele>1738.659</ele>
        <time>2021-03-23T13:16:05Z</time>
      </trkpt>
      <trkpt lat="42.81515" lon="1.7438">
        <ele>1738.668</ele>
        <time>2021-03-23T13:16:07Z</time>
      </trkpt>
      <trkpt lat="42.81515" lon="1.7438">
        <ele>1738.653</ele>
        <time>2021-03-23T13:16:09Z</time>
      </trkpt>
      <trkpt lat="42.81515" lon="1.7438">
        <ele>1738.651</ele>
        <time>2021-03-23T13:16:11Z</time>
      </trkpt>
      <trkpt lat="42.81515" lon="1.7438">
        <ele>1738.635</ele>
        <time>2021-03-23T13:16:13Z</time>
      </trkpt>
      <trkpt lat="42.81515" lon="1.7438">
        <ele>1738.626</ele>
        <time>2021-03-23T13:16:15Z</time>
      </trkpt>
      <trkpt lat="42.81515" lon="1.7438">
        <ele>1738.626</ele>
        <time>2021-03-23T13:16:17Z</time>
      </trkpt>
      <trkpt lat="42.81515" lon="1.7438">
        <ele>1738.622</ele>
        <time>2021-03-23T13:16:19Z</time>
      </trkpt>
      <trkpt lat="42.81515" lon="1.7438">
        <ele>1738.618</ele>
        <time>2021-03-23T13:16:21Z</time>
      </trkpt>
      <trkpt lat="42.81514" lon="1.74381">
        <ele>1738.274</ele>
        <time>2021-03-23T13:16:23Z</time>
      </trkpt>
      <trkpt lat="42.81514" lon="1.74381">
        <ele>1738.627</ele>
        <time>2021-03-23T13:16:25Z</time>
      </trkpt>
      <trkpt lat="42.81514" lon="1.74381">
        <ele>1738.251</ele>
        <time>2021-03-23T13:16:27Z</time>
      </trkpt>
      <trkpt lat="42.81514" lon="1.74381">
        <ele>1738.253</ele>
        <time>2021-03-23T13:16:29Z</time>
      </trkpt>
      <trkpt lat="42.81514" lon="1.74381">
        <ele>1738.262</ele>
        <time>2021-03-23T13:16:31Z</time>
      </trkpt>
      <trkpt lat="42.81514" lon="1.74381">
        <ele>1738.268</ele>
        <time>2021-03-23T13:16:33Z</time>
      </trkpt>
      <trkpt lat="42.81514" lon="1.74381">
        <ele>1738.271</ele>
        <time>2021-03-23T13:16:35Z</time>
      </trkpt>
      <trkpt lat="42.81514" lon="1.74381">
        <ele>1738.268</ele>
        <time>2021-03-23T13:16:37Z</time>
      </trkpt>
      <trkpt lat="42.81514" lon="1.74381">
        <ele>1738.266</ele>
        <time>2021-03-23T13:16:39Z</time>
      </trkpt>
      <trkpt lat="42.81514" lon="1.74381">
        <ele>1738.259</ele>
        <time>2021-03-23T13:16:41Z</time>
      </trkpt>
      <trkpt lat="42.81514" lon="1.74381">
        <ele>1738.255</ele>
        <time>2021-03-23T13:16:43Z</time>
      </trkpt>
      <trkpt lat="42.81514" lon="1.74381">
        <ele>1738.263</ele>
        <time>2021-03-23T13:16:45Z</time>
      </trkpt>
      <trkpt lat="42.81514" lon="1.74381">
        <ele>1738.269</ele>
        <time>2021-03-23T13:16:47Z</time>
      </trkpt>
      <trkpt lat="42.81514" lon="1.74381">
        <ele>1738.278</ele>
        <time>2021-03-23T13:16:49Z</time>
      </trkpt>
      <trkpt lat="42.81514" lon="1.74381">
        <ele>1738.282</ele>
        <time>2021-03-23T13:16:51Z</time>
      </trkpt>
      <trkpt lat="42.81514" lon="1.74381">
        <ele>1738.282</ele>
        <time>2021-03-23T13:16:53Z</time>
      </trkpt>
      <trkpt lat="42.81514" lon="1.74381">
        <ele>1738.281</ele>
        <time>2021-03-23T13:16:55Z</time>
      </trkpt>
      <trkpt lat="42.81514" lon="1.74381">
        <ele>1738.289</ele>
        <time>2021-03-23T13:16:57Z</time>
      </trkpt>
      <trkpt lat="42.81514" lon="1.74381">
        <ele>1738.289</ele>
        <time>2021-03-23T13:16:59Z</time>
      </trkpt>
      <trkpt lat="42.81514" lon="1.74381">
        <ele>1738.29</ele>
        <time>2021-03-23T13:17:01Z</time>
      </trkpt>
      <trkpt lat="42.81514" lon="1.74381">
        <ele>1737.839</ele>
        <time>2021-03-23T13:17:03Z</time>
      </trkpt>
      <trkpt lat="42.81514" lon="1.74381">
        <ele>1737.833</ele>
        <time>2021-03-23T13:17:05Z</time>
      </trkpt>
      <trkpt lat="42.81514" lon="1.74381">
        <ele>1737.84</ele>
        <time>2021-03-23T13:17:07Z</time>
      </trkpt>
      <trkpt lat="42.81514" lon="1.74381">
        <ele>1737.84</ele>
        <time>2021-03-23T13:17:09Z</time>
      </trkpt>
      <trkpt lat="42.81514" lon="1.74381">
        <ele>1737.832</ele>
        <time>2021-03-23T13:17:11Z</time>
      </trkpt>
      <trkpt lat="42.81514" lon="1.74381">
        <ele>1737.836</ele>
        <time>2021-03-23T13:17:13Z</time>
      </trkpt>
      <trkpt lat="42.81514" lon="1.74381">
        <ele>1737.838</ele>
        <time>2021-03-23T13:17:15Z</time>
      </trkpt>
      <trkpt lat="42.81514" lon="1.74381">
        <ele>1737.848</ele>
        <time>2021-03-23T13:17:17Z</time>
      </trkpt>
      <trkpt lat="42.81514" lon="1.74381">
        <ele>1737.844</ele>
        <time>2021-03-23T13:17:19Z</time>
      </trkpt>
      <trkpt lat="42.81514" lon="1.74381">
        <ele>1737.84</ele>
        <time>2021-03-23T13:17:21Z</time>
      </trkpt>
      <trkpt lat="42.81514" lon="1.74381">
        <ele>1737.843</ele>
        <time>2021-03-23T13:17:23Z</time>
      </trkpt>
      <trkpt lat="42.81514" lon="1.74381">
        <ele>1737.846</ele>
        <time>2021-03-23T13:17:25Z</time>
      </trkpt>
      <trkpt lat="42.81514" lon="1.74381">
        <ele>1737.843</ele>
        <time>2021-03-23T13:17:27Z</time>
      </trkpt>
      <trkpt lat="42.81514" lon="1.74381">
        <ele>1737.839</ele>
        <time>2021-03-23T13:17:29Z</time>
      </trkpt>
      <trkpt lat="42.81514" lon="1.74381">
        <ele>1737.839</ele>
        <time>2021-03-23T13:17:31Z</time>
      </trkpt>
      <trkpt lat="42.81514" lon="1.74381">
        <ele>1737.838</ele>
        <time>2021-03-23T13:17:33Z</time>
      </trkpt>
      <trkpt lat="42.81514" lon="1.74381">
        <ele>1737.835</ele>
        <time>2021-03-23T13:17:35Z</time>
      </trkpt>
      <trkpt lat="42.81514" lon="1.74381">
        <ele>1737.83</ele>
        <time>2021-03-23T13:17:37Z</time>
      </trkpt>
      <trkpt lat="42.81514" lon="1.74381">
        <ele>1737.831</ele>
        <time>2021-03-23T13:17:39Z</time>
      </trkpt>
      <trkpt lat="42.81514" lon="1.74381">
        <ele>1737.836</ele>
        <time>2021-03-23T13:17:41Z</time>
      </trkpt>
      <trkpt lat="42.81514" lon="1.74381">
        <ele>1737.833</ele>
        <time>2021-03-23T13:17:43Z</time>
      </trkpt>
      <trkpt lat="42.81514" lon="1.74381">
        <ele>1737.832</ele>
        <time>2021-03-23T13:17:45Z</time>
      </trkpt>
      <trkpt lat="42.81514" lon="1.74381">
        <ele>1737.839</ele>
        <time>2021-03-23T13:17:47Z</time>
      </trkpt>
      <trkpt lat="42.81514" lon="1.74381">
        <ele>1737.835</ele>
        <time>2021-03-23T13:17:49Z</time>
      </trkpt>
      <trkpt lat="42.81514" lon="1.74381">
        <ele>1737.845</ele>
        <time>2021-03-23T13:17:51Z</time>
      </trkpt>
      <trkpt lat="42.81514" lon="1.74381">
        <ele>1737.844</ele>
        <time>2021-03-23T13:17:53Z</time>
      </trkpt>
      <trkpt lat="42.81514" lon="1.74381">
        <ele>1737.845</ele>
        <time>2021-03-23T13:17:55Z</time>
      </trkpt>
      <trkpt lat="42.81514" lon="1.74381">
        <ele>1737.845</ele>
        <time>2021-03-23T13:17:57Z</time>
      </trkpt>
      <trkpt lat="42.81514" lon="1.74381">
        <ele>1737.852</ele>
        <time>2021-03-23T13:17:59Z</time>
      </trkpt>
      <trkpt lat="42.81514" lon="1.74381">
        <ele>1737.857</ele>
        <time>2021-03-23T13:18:01Z</time>
      </trkpt>
      <trkpt lat="42.81514" lon="1.74381">
        <ele>1737.854</ele>
        <time>2021-03-23T13:18:03Z</time>
      </trkpt>
      <trkpt lat="42.81514" lon="1.74381">
        <ele>1737.841</ele>
        <time>2021-03-23T13:18:05Z</time>
      </trkpt>
      <trkpt lat="42.81514" lon="1.74381">
        <ele>1737.844</ele>
        <time>2021-03-23T13:18:07Z</time>
      </trkpt>
      <trkpt lat="42.81514" lon="1.74381">
        <ele>1737.851</ele>
        <time>2021-03-23T13:18:09Z</time>
      </trkpt>
      <trkpt lat="42.81514" lon="1.74381">
        <ele>1737.853</ele>
        <time>2021-03-23T13:18:11Z</time>
      </trkpt>
      <trkpt lat="42.81514" lon="1.74381">
        <ele>1737.859</ele>
        <time>2021-03-23T13:18:13Z</time>
      </trkpt>
      <trkpt lat="42.81514" lon="1.74381">
        <ele>1737.863</ele>
        <time>2021-03-23T13:18:15Z</time>
      </trkpt>
      <trkpt lat="42.81514" lon="1.74381">
        <ele>1737.863</ele>
        <time>2021-03-23T13:18:17Z</time>
      </trkpt>
      <trkpt lat="42.81514" lon="1.74381">
        <ele>1737.871</ele>
        <time>2021-03-23T13:18:19Z</time>
      </trkpt>
      <trkpt lat="42.81514" lon="1.74381">
        <ele>1737.877</ele>
        <time>2021-03-23T13:18:21Z</time>
      </trkpt>
      <trkpt lat="42.81514" lon="1.74381">
        <ele>1737.877</ele>
        <time>2021-03-23T13:18:23Z</time>
      </trkpt>
      <trkpt lat="42.81514" lon="1.74381">
        <ele>1737.87</ele>
        <time>2021-03-23T13:18:25Z</time>
      </trkpt>
      <trkpt lat="42.81514" lon="1.74381">
        <ele>1737.859</ele>
        <time>2021-03-23T13:18:27Z</time>
      </trkpt>
      <trkpt lat="42.81514" lon="1.74381">
        <ele>1737.855</ele>
        <time>2021-03-23T13:18:29Z</time>
      </trkpt>
      <trkpt lat="42.81514" lon="1.74381">
        <ele>1737.849</ele>
        <time>2021-03-23T13:18:31Z</time>
      </trkpt>
      <trkpt lat="42.81514" lon="1.74381">
        <ele>1737.852</ele>
        <time>2021-03-23T13:18:33Z</time>
      </trkpt>
      <trkpt lat="42.81514" lon="1.74381">
        <ele>1737.849</ele>
        <time>2021-03-23T13:18:35Z</time>
      </trkpt>
      <trkpt lat="42.81514" lon="1.74381">
        <ele>1737.842</ele>
        <time>2021-03-23T13:18:37Z</time>
      </trkpt>
      <trkpt lat="42.81514" lon="1.74381">
        <ele>1737.842</ele>
        <time>2021-03-23T13:18:39Z</time>
      </trkpt>
      <trkpt lat="42.81514" lon="1.74381">
        <ele>1737.836</ele>
        <time>2021-03-23T13:18:41Z</time>
      </trkpt>
      <trkpt lat="42.81514" lon="1.74381">
        <ele>1737.834</ele>
        <time>2021-03-23T13:18:43Z</time>
      </trkpt>
      <trkpt lat="42.81514" lon="1.74381">
        <ele>1737.835</ele>
        <time>2021-03-23T13:18:45Z</time>
      </trkpt>
      <trkpt lat="42.81514" lon="1.74381">
        <ele>1737.834</ele>
        <time>2021-03-23T13:18:47Z</time>
      </trkpt>
      <trkpt lat="42.81514" lon="1.74381">
        <ele>1737.832</ele>
        <time>2021-03-23T13:18:49Z</time>
      </trkpt>
      <trkpt lat="42.81514" lon="1.74381">
        <ele>1737.824</ele>
        <time>2021-03-23T13:18:51Z</time>
      </trkpt>
      <trkpt lat="42.81514" lon="1.74381">
        <ele>1737.822</ele>
        <time>2021-03-23T13:18:53Z</time>
      </trkpt>
      <trkpt lat="42.81514" lon="1.74381">
        <ele>1737.828</ele>
        <time>2021-03-23T13:18:55Z</time>
      </trkpt>
      <trkpt lat="42.81514" lon="1.74381">
        <ele>1737.836</ele>
        <time>2021-03-23T13:18:57Z</time>
      </trkpt>
      <trkpt lat="42.81514" lon="1.74381">
        <ele>1737.833</ele>
        <time>2021-03-23T13:18:59Z</time>
      </trkpt>
      <trkpt lat="42.81514" lon="1.74381">
        <ele>1737.836</ele>
        <time>2021-03-23T13:19:01Z</time>
      </trkpt>
      <trkpt lat="42.81514" lon="1.74381">
        <ele>1737.845</ele>
        <time>2021-03-23T13:19:03Z</time>
      </trkpt>
      <trkpt lat="42.81514" lon="1.74381">
        <ele>1737.831</ele>
        <time>2021-03-23T13:19:05Z</time>
      </trkpt>
      <trkpt lat="42.81514" lon="1.7438">
        <ele>1737.682</ele>
        <time>2021-03-23T13:19:07Z</time>
      </trkpt>
      <trkpt lat="42.81514" lon="1.7438">
        <ele>1737.38</ele>
        <time>2021-03-23T13:19:09Z</time>
      </trkpt>
      <trkpt lat="42.81514" lon="1.7438">
        <ele>1737.188</ele>
        <time>2021-03-23T13:19:11Z</time>
      </trkpt>
      <trkpt lat="42.81515" lon="1.7438">
        <ele>1736.706</ele>
        <time>2021-03-23T13:19:13Z</time>
      </trkpt>
      <trkpt lat="42.81515" lon="1.7438">
        <ele>1736.704</ele>
        <time>2021-03-23T13:19:15Z</time>
      </trkpt>
      <trkpt lat="42.81515" lon="1.7438">
        <ele>1736.699</ele>
        <time>2021-03-23T13:19:17Z</time>
      </trkpt>
      <trkpt lat="42.81515" lon="1.7438">
        <ele>1736.694</ele>
        <time>2021-03-23T13:19:19Z</time>
      </trkpt>
      <trkpt lat="42.81515" lon="1.7438">
        <ele>1736.689</ele>
        <time>2021-03-23T13:19:21Z</time>
      </trkpt>
      <trkpt lat="42.81515" lon="1.7438">
        <ele>1736.688</ele>
        <time>2021-03-23T13:19:23Z</time>
      </trkpt>
      <trkpt lat="42.81515" lon="1.7438">
        <ele>1736.682</ele>
        <time>2021-03-23T13:19:25Z</time>
      </trkpt>
      <trkpt lat="42.81515" lon="1.7438">
        <ele>1736.679</ele>
        <time>2021-03-23T13:19:27Z</time>
      </trkpt>
      <trkpt lat="42.81515" lon="1.7438">
        <ele>1736.678</ele>
        <time>2021-03-23T13:19:29Z</time>
      </trkpt>
      <trkpt lat="42.81515" lon="1.7438">
        <ele>1736.672</ele>
        <time>2021-03-23T13:19:31Z</time>
      </trkpt>
      <trkpt lat="42.81515" lon="1.7438">
        <ele>1736.675</ele>
        <time>2021-03-23T13:19:33Z</time>
      </trkpt>
      <trkpt lat="42.81515" lon="1.7438">
        <ele>1736.705</ele>
        <time>2021-03-23T13:19:35Z</time>
      </trkpt>
      <trkpt lat="42.81515" lon="1.7438">
        <ele>1736.701</ele>
        <time>2021-03-23T13:19:37Z</time>
      </trkpt>
      <trkpt lat="42.81515" lon="1.7438">
        <ele>1736.698</ele>
        <time>2021-03-23T13:19:39Z</time>
      </trkpt>
      <trkpt lat="42.81515" lon="1.7438">
        <ele>1736.688</ele>
        <time>2021-03-23T13:19:41Z</time>
      </trkpt>
      <trkpt lat="42.81515" lon="1.7438">
        <ele>1736.192</ele>
        <time>2021-03-23T13:19:43Z</time>
      </trkpt>
      <trkpt lat="42.81515" lon="1.74381">
        <ele>1735.638</ele>
        <time>2021-03-23T13:19:45Z</time>
      </trkpt>
      <trkpt lat="42.81516" lon="1.74383">
        <ele>1734.832</ele>
        <time>2021-03-23T13:19:47Z</time>
      </trkpt>
      <trkpt lat="42.81516" lon="1.74384">
        <ele>1734.434</ele>
        <time>2021-03-23T13:19:49Z</time>
      </trkpt>
      <trkpt lat="42.81516" lon="1.74385">
        <ele>1734.44</ele>
        <time>2021-03-23T13:19:51Z</time>
      </trkpt>
      <trkpt lat="42.81516" lon="1.74385">
        <ele>1734.659</ele>
        <time>2021-03-23T13:19:53Z</time>
      </trkpt>
      <trkpt lat="42.81516" lon="1.74385">
        <ele>1734.722</ele>
        <time>2021-03-23T13:19:55Z</time>
      </trkpt>
      <trkpt lat="42.81516" lon="1.74385">
        <ele>1734.725</ele>
        <time>2021-03-23T13:19:57Z</time>
      </trkpt>
      <trkpt lat="42.81516" lon="1.74385">
        <ele>1734.705</ele>
        <time>2021-03-23T13:19:59Z</time>
      </trkpt>
      <trkpt lat="42.81516" lon="1.74385">
        <ele>1734.673</ele>
        <time>2021-03-23T13:20:01Z</time>
      </trkpt>
      <trkpt lat="42.81516" lon="1.74385">
        <ele>1734.478</ele>
        <time>2021-03-23T13:20:03Z</time>
      </trkpt>
      <trkpt lat="42.81516" lon="1.74385">
        <ele>1734.469</ele>
        <time>2021-03-23T13:20:05Z</time>
      </trkpt>
      <trkpt lat="42.81516" lon="1.74385">
        <ele>1734.468</ele>
        <time>2021-03-23T13:20:07Z</time>
      </trkpt>
      <trkpt lat="42.81516" lon="1.74385">
        <ele>1734.46</ele>
        <time>2021-03-23T13:20:09Z</time>
      </trkpt>
      <trkpt lat="42.81516" lon="1.74385">
        <ele>1734.456</ele>
        <time>2021-03-23T13:20:11Z</time>
      </trkpt>
      <trkpt lat="42.81516" lon="1.74385">
        <ele>1734.437</ele>
        <time>2021-03-23T13:20:13Z</time>
      </trkpt>
      <trkpt lat="42.81516" lon="1.74385">
        <ele>1734.437</ele>
        <time>2021-03-23T13:20:15Z</time>
      </trkpt>
      <trkpt lat="42.81516" lon="1.74385">
        <ele>1734.441</ele>
        <time>2021-03-23T13:20:17Z</time>
      </trkpt>
      <trkpt lat="42.81516" lon="1.74385">
        <ele>1734.442</ele>
        <time>2021-03-23T13:20:19Z</time>
      </trkpt>
      <trkpt lat="42.81516" lon="1.74385">
        <ele>1734.483</ele>
        <time>2021-03-23T13:20:21Z</time>
      </trkpt>
      <trkpt lat="42.81516" lon="1.74385">
        <ele>1734.478</ele>
        <time>2021-03-23T13:20:23Z</time>
      </trkpt>
      <trkpt lat="42.81516" lon="1.74385">
        <ele>1734.464</ele>
        <time>2021-03-23T13:20:25Z</time>
      </trkpt>
      <trkpt lat="42.81516" lon="1.74385">
        <ele>1734.445</ele>
        <time>2021-03-23T13:20:27Z</time>
      </trkpt>
      <trkpt lat="42.81516" lon="1.74385">
        <ele>1734.431</ele>
        <time>2021-03-23T13:20:29Z</time>
      </trkpt>
      <trkpt lat="42.81516" lon="1.74385">
        <ele>1734.417</ele>
        <time>2021-03-23T13:20:31Z</time>
      </trkpt>
      <trkpt lat="42.81516" lon="1.74385">
        <ele>1734.386</ele>
        <time>2021-03-23T13:20:33Z</time>
      </trkpt>
      <trkpt lat="42.81516" lon="1.74385">
        <ele>1734.37</ele>
        <time>2021-03-23T13:20:35Z</time>
      </trkpt>
      <trkpt lat="42.81516" lon="1.74385">
        <ele>1734.369</ele>
        <time>2021-03-23T13:20:37Z</time>
      </trkpt>
      <trkpt lat="42.81516" lon="1.74385">
        <ele>1734.37</ele>
        <time>2021-03-23T13:20:39Z</time>
      </trkpt>
      <trkpt lat="42.81516" lon="1.74385">
        <ele>1734.365</ele>
        <time>2021-03-23T13:20:41Z</time>
      </trkpt>
      <trkpt lat="42.81516" lon="1.74385">
        <ele>1734.341</ele>
        <time>2021-03-23T13:20:43Z</time>
      </trkpt>
      <trkpt lat="42.81516" lon="1.74385">
        <ele>1734.33</ele>
        <time>2021-03-23T13:20:44Z</time>
      </trkpt>
      <trkpt lat="42.81515" lon="1.74385">
        <ele>1733.095</ele>
        <time>2021-03-23T13:20:48Z</time>
      </trkpt>
      <trkpt lat="42.81515" lon="1.74385">
        <ele>1733.136</ele>
        <time>2021-03-23T13:20:50Z</time>
      </trkpt>
      <trkpt lat="42.81515" lon="1.74385">
        <ele>1733.145</ele>
        <time>2021-03-23T13:20:52Z</time>
      </trkpt>
      <trkpt lat="42.81515" lon="1.74385">
        <ele>1733.154</ele>
        <time>2021-03-23T13:20:54Z</time>
      </trkpt>
      <trkpt lat="42.81515" lon="1.74385">
        <ele>1733.156</ele>
        <time>2021-03-23T13:20:56Z</time>
      </trkpt>
      <trkpt lat="42.81515" lon="1.74385">
        <ele>1733.157</ele>
        <time>2021-03-23T13:20:58Z</time>
      </trkpt>
      <trkpt lat="42.81515" lon="1.74385">
        <ele>1733.158</ele>
        <time>2021-03-23T13:21:00Z</time>
      </trkpt>
      <trkpt lat="42.81515" lon="1.74385">
        <ele>1733.158</ele>
        <time>2021-03-23T13:21:02Z</time>
      </trkpt>
      <trkpt lat="42.81515" lon="1.74385">
        <ele>1733.164</ele>
        <time>2021-03-23T13:21:04Z</time>
      </trkpt>
      <trkpt lat="42.81515" lon="1.74385">
        <ele>1733.168</ele>
        <time>2021-03-23T13:21:06Z</time>
      </trkpt>
      <trkpt lat="42.81515" lon="1.74385">
        <ele>1733.162</ele>
        <time>2021-03-23T13:21:08Z</time>
      </trkpt>
      <trkpt lat="42.81515" lon="1.74385">
        <ele>1733.162</ele>
        <time>2021-03-23T13:21:10Z</time>
      </trkpt>
      <trkpt lat="42.81515" lon="1.74385">
        <ele>1733.178</ele>
        <time>2021-03-23T13:21:12Z</time>
      </trkpt>
      <trkpt lat="42.81515" lon="1.74385">
        <ele>1733.196</ele>
        <time>2021-03-23T13:21:14Z</time>
      </trkpt>
      <trkpt lat="42.81515" lon="1.74385">
        <ele>1733.198</ele>
        <time>2021-03-23T13:21:16Z</time>
      </trkpt>
      <trkpt lat="42.81515" lon="1.74386">
        <ele>1733.441</ele>
        <time>2021-03-23T13:21:18Z</time>
      </trkpt>
      <trkpt lat="42.81514" lon="1.74386">
        <ele>1734.096</ele>
        <time>2021-03-23T13:21:20Z</time>
      </trkpt>
      <trkpt lat="42.81514" lon="1.74386">
        <ele>1734.079</ele>
        <time>2021-03-23T13:21:22Z</time>
      </trkpt>
      <trkpt lat="42.81514" lon="1.74386">
        <ele>1734.082</ele>
        <time>2021-03-23T13:21:24Z</time>
      </trkpt>
      <trkpt lat="42.81514" lon="1.74386">
        <ele>1734.092</ele>
        <time>2021-03-23T13:21:26Z</time>
      </trkpt>
      <trkpt lat="42.81514" lon="1.74386">
        <ele>1734.092</ele>
        <time>2021-03-23T13:21:28Z</time>
      </trkpt>
      <trkpt lat="42.81514" lon="1.74386">
        <ele>1734.1</ele>
        <time>2021-03-23T13:21:30Z</time>
      </trkpt>
      <trkpt lat="42.81514" lon="1.74386">
        <ele>1734.104</ele>
        <time>2021-03-23T13:21:32Z</time>
      </trkpt>
      <trkpt lat="42.81514" lon="1.74386">
        <ele>1734.1</ele>
        <time>2021-03-23T13:21:34Z</time>
      </trkpt>
      <trkpt lat="42.81514" lon="1.74386">
        <ele>1734.082</ele>
        <time>2021-03-23T13:21:36Z</time>
      </trkpt>
      <trkpt lat="42.81514" lon="1.74386">
        <ele>1734.073</ele>
        <time>2021-03-23T13:21:38Z</time>
      </trkpt>
      <trkpt lat="42.81514" lon="1.74386">
        <ele>1734.078</ele>
        <time>2021-03-23T13:21:40Z</time>
      </trkpt>
      <trkpt lat="42.81514" lon="1.74386">
        <ele>1734.08</ele>
        <time>2021-03-23T13:21:42Z</time>
      </trkpt>
      <trkpt lat="42.81514" lon="1.74386">
        <ele>1734.078</ele>
        <time>2021-03-23T13:21:44Z</time>
      </trkpt>
      <trkpt lat="42.81514" lon="1.74386">
        <ele>1734.089</ele>
        <time>2021-03-23T13:21:46Z</time>
      </trkpt>
      <trkpt lat="42.81514" lon="1.74386">
        <ele>1734.095</ele>
        <time>2021-03-23T13:21:48Z</time>
      </trkpt>
      <trkpt lat="42.81514" lon="1.74386">
        <ele>1734.103</ele>
        <time>2021-03-23T13:21:50Z</time>
      </trkpt>
      <trkpt lat="42.81514" lon="1.74386">
        <ele>1734.11</ele>
        <time>2021-03-23T13:21:52Z</time>
      </trkpt>
      <trkpt lat="42.81514" lon="1.74386">
        <ele>1734.107</ele>
        <time>2021-03-23T13:21:54Z</time>
      </trkpt>
      <trkpt lat="42.81514" lon="1.74386">
        <ele>1734.095</ele>
        <time>2021-03-23T13:21:56Z</time>
      </trkpt>
      <trkpt lat="42.81514" lon="1.74386">
        <ele>1734.076</ele>
        <time>2021-03-23T13:21:58Z</time>
      </trkpt>
      <trkpt lat="42.81514" lon="1.74386">
        <ele>1734.066</ele>
        <time>2021-03-23T13:22:00Z</time>
      </trkpt>
      <trkpt lat="42.81514" lon="1.74386">
        <ele>1734.049</ele>
        <time>2021-03-23T13:22:02Z</time>
      </trkpt>
      <trkpt lat="42.81514" lon="1.74386">
        <ele>1734.043</ele>
        <time>2021-03-23T13:22:04Z</time>
      </trkpt>
      <trkpt lat="42.81514" lon="1.74386">
        <ele>1734.048</ele>
        <time>2021-03-23T13:22:06Z</time>
      </trkpt>
      <trkpt lat="42.81514" lon="1.74386">
        <ele>1734.053</ele>
        <time>2021-03-23T13:22:08Z</time>
      </trkpt>
      <trkpt lat="42.81514" lon="1.74386">
        <ele>1732.866</ele>
        <time>2021-03-23T13:22:10Z</time>
      </trkpt>
      <trkpt lat="42.81514" lon="1.74386">
        <ele>1733.087</ele>
        <time>2021-03-23T13:22:12Z</time>
      </trkpt>
      <trkpt lat="42.81514" lon="1.74387">
        <ele>1732.598</ele>
        <time>2021-03-23T13:22:14Z</time>
      </trkpt>
      <trkpt lat="42.81514" lon="1.74387">
        <ele>1732.689</ele>
        <time>2021-03-23T13:22:16Z</time>
      </trkpt>
      <trkpt lat="42.81515" lon="1.7439">
        <ele>1732.007</ele>
        <time>2021-03-23T13:22:18Z</time>
      </trkpt>
      <trkpt lat="42.81515" lon="1.74389">
        <ele>1731.776</ele>
        <time>2021-03-23T13:22:20Z</time>
      </trkpt>
      <trkpt lat="42.81516" lon="1.74388">
        <ele>1732.394</ele>
        <time>2021-03-23T13:22:22Z</time>
      </trkpt>
      <trkpt lat="42.81515" lon="1.74389">
        <ele>1732.076</ele>
        <time>2021-03-23T13:22:24Z</time>
      </trkpt>
      <trkpt lat="42.81515" lon="1.74389">
        <ele>1731.613</ele>
        <time>2021-03-23T13:22:26Z</time>
      </trkpt>
      <trkpt lat="42.81517" lon="1.74388">
        <ele>1730.457</ele>
        <time>2021-03-23T13:22:28Z</time>
      </trkpt>
      <trkpt lat="42.81516" lon="1.74387">
        <ele>1732.007</ele>
        <time>2021-03-23T13:22:30Z</time>
      </trkpt>
      <trkpt lat="42.81514" lon="1.74386">
        <ele>1731.49</ele>
        <time>2021-03-23T13:22:32Z</time>
      </trkpt>
      <trkpt lat="42.81513" lon="1.74385">
        <ele>1732.951</ele>
        <time>2021-03-23T13:22:34Z</time>
      </trkpt>
      <trkpt lat="42.81513" lon="1.74384">
        <ele>1732.653</ele>
        <time>2021-03-23T13:22:36Z</time>
      </trkpt>
      <trkpt lat="42.81513" lon="1.74383">
        <ele>1732.529</ele>
        <time>2021-03-23T13:22:38Z</time>
      </trkpt>
      <trkpt lat="42.81513" lon="1.74384">
        <ele>1732.107</ele>
        <time>2021-03-23T13:22:40Z</time>
      </trkpt>
      <trkpt lat="42.81513" lon="1.74384">
        <ele>1732.342</ele>
        <time>2021-03-23T13:22:42Z</time>
      </trkpt>
      <trkpt lat="42.81513" lon="1.74384">
        <ele>1731.631</ele>
        <time>2021-03-23T13:22:44Z</time>
      </trkpt>
      <trkpt lat="42.81512" lon="1.74384">
        <ele>1732.135</ele>
        <time>2021-03-23T13:22:46Z</time>
      </trkpt>
      <trkpt lat="42.81512" lon="1.74384">
        <ele>1732.141</ele>
        <time>2021-03-23T13:22:48Z</time>
      </trkpt>
      <trkpt lat="42.81512" lon="1.74384">
        <ele>1732.129</ele>
        <time>2021-03-23T13:22:50Z</time>
      </trkpt>
      <trkpt lat="42.81512" lon="1.74384">
        <ele>1732.132</ele>
        <time>2021-03-23T13:22:52Z</time>
      </trkpt>
      <trkpt lat="42.81512" lon="1.74384">
        <ele>1732.34</ele>
        <time>2021-03-23T13:22:54Z</time>
      </trkpt>
      <trkpt lat="42.81513" lon="1.74383">
        <ele>1733.815</ele>
        <time>2021-03-23T13:22:56Z</time>
      </trkpt>
      <trkpt lat="42.81513" lon="1.74383">
        <ele>1733.819</ele>
        <time>2021-03-23T13:22:58Z</time>
      </trkpt>
      <trkpt lat="42.81513" lon="1.74383">
        <ele>1733.811</ele>
        <time>2021-03-23T13:23:00Z</time>
      </trkpt>
      <trkpt lat="42.81513" lon="1.74383">
        <ele>1733.798</ele>
        <time>2021-03-23T13:23:02Z</time>
      </trkpt>
      <trkpt lat="42.81513" lon="1.74383">
        <ele>1733.791</ele>
        <time>2021-03-23T13:23:04Z</time>
      </trkpt>
      <trkpt lat="42.81513" lon="1.74383">
        <ele>1733.818</ele>
        <time>2021-03-23T13:23:06Z</time>
      </trkpt>
      <trkpt lat="42.81513" lon="1.74383">
        <ele>1733.808</ele>
        <time>2021-03-23T13:23:07Z</time>
      </trkpt>
      <trkpt lat="42.81513" lon="1.74383">
        <ele>1733.82</ele>
        <time>2021-03-23T13:23:10Z</time>
      </trkpt>
      <trkpt lat="42.81513" lon="1.74383">
        <ele>1733.839</ele>
        <time>2021-03-23T13:23:12Z</time>
      </trkpt>
      <trkpt lat="42.81513" lon="1.74384">
        <ele>1733.854</ele>
        <time>2021-03-23T13:23:14Z</time>
      </trkpt>
      <trkpt lat="42.81513" lon="1.74384">
        <ele>1733.529</ele>
        <time>2021-03-23T13:23:16Z</time>
      </trkpt>
      <trkpt lat="42.81513" lon="1.74384">
        <ele>1733.521</ele>
        <time>2021-03-23T13:23:18Z</time>
      </trkpt>
      <trkpt lat="42.81513" lon="1.74384">
        <ele>1733.521</ele>
        <time>2021-03-23T13:23:20Z</time>
      </trkpt>
      <trkpt lat="42.81513" lon="1.74384">
        <ele>1733.501</ele>
        <time>2021-03-23T13:23:22Z</time>
      </trkpt>
      <trkpt lat="42.81513" lon="1.74385">
        <ele>1733.211</ele>
        <time>2021-03-23T13:23:24Z</time>
      </trkpt>
      <trkpt lat="42.81513" lon="1.74385">
        <ele>1733.2</ele>
        <time>2021-03-23T13:23:26Z</time>
      </trkpt>
      <trkpt lat="42.81513" lon="1.74385">
        <ele>1733.193</ele>
        <time>2021-03-23T13:23:28Z</time>
      </trkpt>
      <trkpt lat="42.81513" lon="1.74385">
        <ele>1733.184</ele>
        <time>2021-03-23T13:23:30Z</time>
      </trkpt>
      <trkpt lat="42.81513" lon="1.74385">
        <ele>1733.182</ele>
        <time>2021-03-23T13:23:32Z</time>
      </trkpt>
      <trkpt lat="42.81513" lon="1.74385">
        <ele>1733.161</ele>
        <time>2021-03-23T13:23:34Z</time>
      </trkpt>
      <trkpt lat="42.81513" lon="1.74385">
        <ele>1733.174</ele>
        <time>2021-03-23T13:23:36Z</time>
      </trkpt>
      <trkpt lat="42.81513" lon="1.74384">
        <ele>1733.324</ele>
        <time>2021-03-23T13:23:38Z</time>
      </trkpt>
      <trkpt lat="42.81514" lon="1.74385">
        <ele>1732.316</ele>
        <time>2021-03-23T13:23:40Z</time>
      </trkpt>
      <trkpt lat="42.81515" lon="1.74386">
        <ele>1733.086</ele>
        <time>2021-03-23T13:23:42Z</time>
      </trkpt>
      <trkpt lat="42.81516" lon="1.74386">
        <ele>1733.108</ele>
        <time>2021-03-23T13:23:44Z</time>
      </trkpt>
      <trkpt lat="42.81516" lon="1.74386">
        <ele>1733.121</ele>
        <time>2021-03-23T13:23:46Z</time>
      </trkpt>
      <trkpt lat="42.81516" lon="1.74386">
        <ele>1733.112</ele>
        <time>2021-03-23T13:23:48Z</time>
      </trkpt>
      <trkpt lat="42.81516" lon="1.74386">
        <ele>1733.117</ele>
        <time>2021-03-23T13:23:50Z</time>
      </trkpt>
      <trkpt lat="42.81516" lon="1.74386">
        <ele>1733.189</ele>
        <time>2021-03-23T13:23:52Z</time>
      </trkpt>
      <trkpt lat="42.81516" lon="1.74386">
        <ele>1732.727</ele>
        <time>2021-03-23T13:23:54Z</time>
      </trkpt>
      <trkpt lat="42.81516" lon="1.74386">
        <ele>1732.724</ele>
        <time>2021-03-23T13:23:56Z</time>
      </trkpt>
      <trkpt lat="42.81516" lon="1.74386">
        <ele>1732.727</ele>
        <time>2021-03-23T13:23:58Z</time>
      </trkpt>
      <trkpt lat="42.81516" lon="1.74386">
        <ele>1732.724</ele>
        <time>2021-03-23T13:24:00Z</time>
      </trkpt>
      <trkpt lat="42.81516" lon="1.74386">
        <ele>1732.557</ele>
        <time>2021-03-23T13:24:02Z</time>
      </trkpt>
      <trkpt lat="42.81516" lon="1.74386">
        <ele>1732.912</ele>
        <time>2021-03-23T13:24:04Z</time>
      </trkpt>
      <trkpt lat="42.81516" lon="1.74386">
        <ele>1732.921</ele>
        <time>2021-03-23T13:24:06Z</time>
      </trkpt>
      <trkpt lat="42.81516" lon="1.74386">
        <ele>1732.918</ele>
        <time>2021-03-23T13:24:08Z</time>
      </trkpt>
      <trkpt lat="42.81516" lon="1.74386">
        <ele>1732.402</ele>
        <time>2021-03-23T13:24:10Z</time>
      </trkpt>
      <trkpt lat="42.81516" lon="1.74385">
        <ele>1732.819</ele>
        <time>2021-03-23T13:24:12Z</time>
      </trkpt>
      <trkpt lat="42.81515" lon="1.74385">
        <ele>1732.805</ele>
        <time>2021-03-23T13:24:14Z</time>
      </trkpt>
      <trkpt lat="42.81515" lon="1.74385">
        <ele>1732.752</ele>
        <time>2021-03-23T13:24:16Z</time>
      </trkpt>
      <trkpt lat="42.81515" lon="1.74385">
        <ele>1732.702</ele>
        <time>2021-03-23T13:24:18Z</time>
      </trkpt>
      <trkpt lat="42.81515" lon="1.74385">
        <ele>1732.677</ele>
        <time>2021-03-23T13:24:20Z</time>
      </trkpt>
      <trkpt lat="42.81515" lon="1.74385">
        <ele>1732.671</ele>
        <time>2021-03-23T13:24:22Z</time>
      </trkpt>
      <trkpt lat="42.81515" lon="1.74385">
        <ele>1732.664</ele>
        <time>2021-03-23T13:24:24Z</time>
      </trkpt>
      <trkpt lat="42.81515" lon="1.74385">
        <ele>1732.653</ele>
        <time>2021-03-23T13:24:26Z</time>
      </trkpt>
      <trkpt lat="42.81515" lon="1.74385">
        <ele>1732.639</ele>
        <time>2021-03-23T13:24:28Z</time>
      </trkpt>
      <trkpt lat="42.81515" lon="1.74385">
        <ele>1732.627</ele>
        <time>2021-03-23T13:24:30Z</time>
      </trkpt>
      <trkpt lat="42.81515" lon="1.74385">
        <ele>1732.618</ele>
        <time>2021-03-23T13:24:32Z</time>
      </trkpt>
      <trkpt lat="42.81515" lon="1.74386">
        <ele>1732.185</ele>
        <time>2021-03-23T13:24:34Z</time>
      </trkpt>
      <trkpt lat="42.81515" lon="1.74386">
        <ele>1732.168</ele>
        <time>2021-03-23T13:24:36Z</time>
      </trkpt>
      <trkpt lat="42.81515" lon="1.74386">
        <ele>1732.163</ele>
        <time>2021-03-23T13:24:38Z</time>
      </trkpt>
      <trkpt lat="42.81515" lon="1.74386">
        <ele>1732.153</ele>
        <time>2021-03-23T13:24:40Z</time>
      </trkpt>
      <trkpt lat="42.81515" lon="1.74386">
        <ele>1732.145</ele>
        <time>2021-03-23T13:24:42Z</time>
      </trkpt>
      <trkpt lat="42.81515" lon="1.74386">
        <ele>1732.144</ele>
        <time>2021-03-23T13:24:44Z</time>
      </trkpt>
      <trkpt lat="42.81515" lon="1.74386">
        <ele>1732.151</ele>
        <time>2021-03-23T13:24:46Z</time>
      </trkpt>
      <trkpt lat="42.81515" lon="1.74386">
        <ele>1732.161</ele>
        <time>2021-03-23T13:24:48Z</time>
      </trkpt>
      <trkpt lat="42.81515" lon="1.74386">
        <ele>1732.156</ele>
        <time>2021-03-23T13:24:50Z</time>
      </trkpt>
      <trkpt lat="42.81515" lon="1.74386">
        <ele>1732.155</ele>
        <time>2021-03-23T13:24:52Z</time>
      </trkpt>
      <trkpt lat="42.81515" lon="1.74386">
        <ele>1732.155</ele>
        <time>2021-03-23T13:24:54Z</time>
      </trkpt>
      <trkpt lat="42.81515" lon="1.74386">
        <ele>1732.159</ele>
        <time>2021-03-23T13:24:56Z</time>
      </trkpt>
      <trkpt lat="42.81515" lon="1.74386">
        <ele>1732.165</ele>
        <time>2021-03-23T13:24:58Z</time>
      </trkpt>
      <trkpt lat="42.81515" lon="1.74386">
        <ele>1732.164</ele>
        <time>2021-03-23T13:25:00Z</time>
      </trkpt>
      <trkpt lat="42.81515" lon="1.74386">
        <ele>1732.162</ele>
        <time>2021-03-23T13:25:02Z</time>
      </trkpt>
      <trkpt lat="42.81515" lon="1.74386">
        <ele>1732.164</ele>
        <time>2021-03-23T13:25:04Z</time>
      </trkpt>
      <trkpt lat="42.81515" lon="1.74386">
        <ele>1732.164</ele>
        <time>2021-03-23T13:25:06Z</time>
      </trkpt>
      <trkpt lat="42.81515" lon="1.74386">
        <ele>1732.166</ele>
        <time>2021-03-23T13:25:08Z</time>
      </trkpt>
      <trkpt lat="42.81515" lon="1.74386">
        <ele>1732.171</ele>
        <time>2021-03-23T13:25:10Z</time>
      </trkpt>
      <trkpt lat="42.81515" lon="1.74386">
        <ele>1732.172</ele>
        <time>2021-03-23T13:25:12Z</time>
      </trkpt>
      <trkpt lat="42.81515" lon="1.74386">
        <ele>1732.172</ele>
        <time>2021-03-23T13:25:14Z</time>
      </trkpt>
      <trkpt lat="42.81515" lon="1.74386">
        <ele>1732.177</ele>
        <time>2021-03-23T13:25:16Z</time>
      </trkpt>
      <trkpt lat="42.81515" lon="1.74386">
        <ele>1732.181</ele>
        <time>2021-03-23T13:25:18Z</time>
      </trkpt>
      <trkpt lat="42.81515" lon="1.74386">
        <ele>1732.182</ele>
        <time>2021-03-23T13:25:20Z</time>
      </trkpt>
      <trkpt lat="42.81515" lon="1.74386">
        <ele>1732.191</ele>
        <time>2021-03-23T13:25:22Z</time>
      </trkpt>
      <trkpt lat="42.81515" lon="1.74386">
        <ele>1732.202</ele>
        <time>2021-03-23T13:25:24Z</time>
      </trkpt>
      <trkpt lat="42.81515" lon="1.74386">
        <ele>1732.214</ele>
        <time>2021-03-23T13:25:26Z</time>
      </trkpt>
      <trkpt lat="42.81515" lon="1.74386">
        <ele>1732.211</ele>
        <time>2021-03-23T13:25:28Z</time>
      </trkpt>
      <trkpt lat="42.81515" lon="1.74386">
        <ele>1732.212</ele>
        <time>2021-03-23T13:25:30Z</time>
      </trkpt>
      <trkpt lat="42.81515" lon="1.74386">
        <ele>1732.21</ele>
        <time>2021-03-23T13:25:32Z</time>
      </trkpt>
      <trkpt lat="42.81515" lon="1.74386">
        <ele>1732.215</ele>
        <time>2021-03-23T13:25:34Z</time>
      </trkpt>
      <trkpt lat="42.81515" lon="1.74386">
        <ele>1732.217</ele>
        <time>2021-03-23T13:25:36Z</time>
      </trkpt>
      <trkpt lat="42.81515" lon="1.74386">
        <ele>1732.216</ele>
        <time>2021-03-23T13:25:38Z</time>
      </trkpt>
      <trkpt lat="42.81515" lon="1.74386">
        <ele>1732.233</ele>
        <time>2021-03-23T13:25:40Z</time>
      </trkpt>
      <trkpt lat="42.81515" lon="1.74386">
        <ele>1732.239</ele>
        <time>2021-03-23T13:25:42Z</time>
      </trkpt>
      <trkpt lat="42.81515" lon="1.74386">
        <ele>1732.237</ele>
        <time>2021-03-23T13:25:44Z</time>
      </trkpt>
      <trkpt lat="42.81515" lon="1.74386">
        <ele>1732.235</ele>
        <time>2021-03-23T13:25:46Z</time>
      </trkpt>
      <trkpt lat="42.81515" lon="1.74386">
        <ele>1732.211</ele>
        <time>2021-03-23T13:25:48Z</time>
      </trkpt>
      <trkpt lat="42.81515" lon="1.74386">
        <ele>1732.193</ele>
        <time>2021-03-23T13:25:50Z</time>
      </trkpt>
      <trkpt lat="42.81515" lon="1.74386">
        <ele>1732.194</ele>
        <time>2021-03-23T13:25:52Z</time>
      </trkpt>
      <trkpt lat="42.81515" lon="1.74386">
        <ele>1732.185</ele>
        <time>2021-03-23T13:25:54Z</time>
      </trkpt>
      <trkpt lat="42.81515" lon="1.74386">
        <ele>1732.18</ele>
        <time>2021-03-23T13:25:56Z</time>
      </trkpt>
      <trkpt lat="42.81515" lon="1.74386">
        <ele>1732.17</ele>
        <time>2021-03-23T13:25:58Z</time>
      </trkpt>
      <trkpt lat="42.81515" lon="1.74386">
        <ele>1732.178</ele>
        <time>2021-03-23T13:26:00Z</time>
      </trkpt>
      <trkpt lat="42.81515" lon="1.74386">
        <ele>1732.167</ele>
        <time>2021-03-23T13:26:02Z</time>
      </trkpt>
      <trkpt lat="42.81515" lon="1.74386">
        <ele>1732.168</ele>
        <time>2021-03-23T13:26:04Z</time>
      </trkpt>
      <trkpt lat="42.81515" lon="1.74386">
        <ele>1732.166</ele>
        <time>2021-03-23T13:26:06Z</time>
      </trkpt>
      <trkpt lat="42.81515" lon="1.74386">
        <ele>1732.325</ele>
        <time>2021-03-23T13:26:08Z</time>
      </trkpt>
      <trkpt lat="42.81515" lon="1.74386">
        <ele>1732.352</ele>
        <time>2021-03-23T13:26:10Z</time>
      </trkpt>
      <trkpt lat="42.81515" lon="1.74386">
        <ele>1732.341</ele>
        <time>2021-03-23T13:26:12Z</time>
      </trkpt>
      <trkpt lat="42.81515" lon="1.74386">
        <ele>1732.335</ele>
        <time>2021-03-23T13:26:14Z</time>
      </trkpt>
      <trkpt lat="42.81515" lon="1.74386">
        <ele>1732.343</ele>
        <time>2021-03-23T13:26:16Z</time>
      </trkpt>
      <trkpt lat="42.81515" lon="1.74386">
        <ele>1732.347</ele>
        <time>2021-03-23T13:26:18Z</time>
      </trkpt>
      <trkpt lat="42.81515" lon="1.74386">
        <ele>1732.347</ele>
        <time>2021-03-23T13:26:20Z</time>
      </trkpt>
      <trkpt lat="42.81515" lon="1.74386">
        <ele>1732.347</ele>
        <time>2021-03-23T13:26:22Z</time>
      </trkpt>
      <trkpt lat="42.81515" lon="1.74385">
        <ele>1732.306</ele>
        <time>2021-03-23T13:26:24Z</time>
      </trkpt>
      <trkpt lat="42.81515" lon="1.74384">
        <ele>1732.334</ele>
        <time>2021-03-23T13:26:26Z</time>
      </trkpt>
      <trkpt lat="42.81515" lon="1.74384">
        <ele>1732.332</ele>
        <time>2021-03-23T13:26:28Z</time>
      </trkpt>
      <trkpt lat="42.81515" lon="1.74383">
        <ele>1732.532</ele>
        <time>2021-03-23T13:26:30Z</time>
      </trkpt>
      <trkpt lat="42.81515" lon="1.74382">
        <ele>1732.059</ele>
        <time>2021-03-23T13:26:32Z</time>
      </trkpt>
      <trkpt lat="42.81513" lon="1.7438">
        <ele>1732.456</ele>
        <time>2021-03-23T13:26:34Z</time>
      </trkpt>
      <trkpt lat="42.81512" lon="1.74377">
        <ele>1732.381</ele>
        <time>2021-03-23T13:26:36Z</time>
      </trkpt>
      <trkpt lat="42.81512" lon="1.74375">
        <ele>1731.887</ele>
        <time>2021-03-23T13:26:38Z</time>
      </trkpt>
      <trkpt lat="42.81511" lon="1.74373">
        <ele>1731.384</ele>
        <time>2021-03-23T13:26:40Z</time>
      </trkpt>
      <trkpt lat="42.8151" lon="1.7437">
        <ele>1731.038</ele>
        <time>2021-03-23T13:26:42Z</time>
      </trkpt>
      <trkpt lat="42.81509" lon="1.74368">
        <ele>1730.73</ele>
        <time>2021-03-23T13:26:44Z</time>
      </trkpt>
      <trkpt lat="42.81508" lon="1.74366">
        <ele>1731.07</ele>
        <time>2021-03-23T13:26:46Z</time>
      </trkpt>
      <trkpt lat="42.81508" lon="1.74363">
        <ele>1730.195</ele>
        <time>2021-03-23T13:26:48Z</time>
      </trkpt>
      <trkpt lat="42.81508" lon="1.7436">
        <ele>1730.613</ele>
        <time>2021-03-23T13:26:50Z</time>
      </trkpt>
      <trkpt lat="42.81507" lon="1.74358">
        <ele>1731.209</ele>
        <time>2021-03-23T13:26:52Z</time>
      </trkpt>
      <trkpt lat="42.81506" lon="1.74355">
        <ele>1730.508</ele>
        <time>2021-03-23T13:26:54Z</time>
      </trkpt>
      <trkpt lat="42.81505" lon="1.74353">
        <ele>1729.682</ele>
        <time>2021-03-23T13:26:56Z</time>
      </trkpt>
      <trkpt lat="42.81505" lon="1.7435">
        <ele>1729.379</ele>
        <time>2021-03-23T13:26:58Z</time>
      </trkpt>
      <trkpt lat="42.81504" lon="1.74347">
        <ele>1728.979</ele>
        <time>2021-03-23T13:27:00Z</time>
      </trkpt>
      <trkpt lat="42.81503" lon="1.74344">
        <ele>1729.083</ele>
        <time>2021-03-23T13:27:02Z</time>
      </trkpt>
      <trkpt lat="42.81502" lon="1.74341">
        <ele>1729.614</ele>
        <time>2021-03-23T13:27:04Z</time>
      </trkpt>
      <trkpt lat="42.81501" lon="1.74339">
        <ele>1729.618</ele>
        <time>2021-03-23T13:27:06Z</time>
      </trkpt>
      <trkpt lat="42.815" lon="1.74337">
        <ele>1729.652</ele>
        <time>2021-03-23T13:27:08Z</time>
      </trkpt>
      <trkpt lat="42.81499" lon="1.74335">
        <ele>1730.486</ele>
        <time>2021-03-23T13:27:10Z</time>
      </trkpt>
      <trkpt lat="42.81497" lon="1.74333">
        <ele>1730.031</ele>
        <time>2021-03-23T13:27:12Z</time>
      </trkpt>
      <trkpt lat="42.81495" lon="1.74331">
        <ele>1729.891</ele>
        <time>2021-03-23T13:27:14Z</time>
      </trkpt>
      <trkpt lat="42.81494" lon="1.74329">
        <ele>1729.456</ele>
        <time>2021-03-23T13:27:16Z</time>
      </trkpt>
      <trkpt lat="42.81493" lon="1.74328">
        <ele>1729.139</ele>
        <time>2021-03-23T13:27:18Z</time>
      </trkpt>
      <trkpt lat="42.81492" lon="1.74326">
        <ele>1729.505</ele>
        <time>2021-03-23T13:27:20Z</time>
      </trkpt>
      <trkpt lat="42.81491" lon="1.74324">
        <ele>1729.602</ele>
        <time>2021-03-23T13:27:22Z</time>
      </trkpt>
      <trkpt lat="42.81489" lon="1.74323">
        <ele>1729.192</ele>
        <time>2021-03-23T13:27:24Z</time>
      </trkpt>
      <trkpt lat="42.81488" lon="1.74322">
        <ele>1727.735</ele>
        <time>2021-03-23T13:27:26Z</time>
      </trkpt>
      <trkpt lat="42.81487" lon="1.7432">
        <ele>1726.779</ele>
        <time>2021-03-23T13:27:28Z</time>
      </trkpt>
      <trkpt lat="42.81485" lon="1.74319">
        <ele>1725.947</ele>
        <time>2021-03-23T13:27:30Z</time>
      </trkpt>
      <trkpt lat="42.81483" lon="1.74317">
        <ele>1725.879</ele>
        <time>2021-03-23T13:27:32Z</time>
      </trkpt>
      <trkpt lat="42.81481" lon="1.74316">
        <ele>1725.67</ele>
        <time>2021-03-23T13:27:34Z</time>
      </trkpt>
      <trkpt lat="42.81479" lon="1.74315">
        <ele>1725.333</ele>
        <time>2021-03-23T13:27:36Z</time>
      </trkpt>
      <trkpt lat="42.81477" lon="1.74314">
        <ele>1726.183</ele>
        <time>2021-03-23T13:27:38Z</time>
      </trkpt>
      <trkpt lat="42.81474" lon="1.74314">
        <ele>1726.185</ele>
        <time>2021-03-23T13:27:40Z</time>
      </trkpt>
      <trkpt lat="42.81472" lon="1.74313">
        <ele>1726.945</ele>
        <time>2021-03-23T13:27:42Z</time>
      </trkpt>
      <trkpt lat="42.81469" lon="1.74313">
        <ele>1727.987</ele>
        <time>2021-03-23T13:27:44Z</time>
      </trkpt>
      <trkpt lat="42.81467" lon="1.74313">
        <ele>1729.373</ele>
        <time>2021-03-23T13:27:46Z</time>
      </trkpt>
      <trkpt lat="42.81465" lon="1.74313">
        <ele>1729.666</ele>
        <time>2021-03-23T13:27:48Z</time>
      </trkpt>
      <trkpt lat="42.81463" lon="1.74313">
        <ele>1730.174</ele>
        <time>2021-03-23T13:27:50Z</time>
      </trkpt>
      <trkpt lat="42.81461" lon="1.74311">
        <ele>1730.862</ele>
        <time>2021-03-23T13:27:52Z</time>
      </trkpt>
      <trkpt lat="42.8146" lon="1.7431">
        <ele>1731.307</ele>
        <time>2021-03-23T13:27:54Z</time>
      </trkpt>
      <trkpt lat="42.81458" lon="1.74309">
        <ele>1731.445</ele>
        <time>2021-03-23T13:27:56Z</time>
      </trkpt>
      <trkpt lat="42.81456" lon="1.74309">
        <ele>1730.874</ele>
        <time>2021-03-23T13:27:58Z</time>
      </trkpt>
      <trkpt lat="42.81453" lon="1.74308">
        <ele>1730.188</ele>
        <time>2021-03-23T13:28:00Z</time>
      </trkpt>
      <trkpt lat="42.81451" lon="1.74307">
        <ele>1730.311</ele>
        <time>2021-03-23T13:28:02Z</time>
      </trkpt>
      <trkpt lat="42.81448" lon="1.74307">
        <ele>1730.816</ele>
        <time>2021-03-23T13:28:04Z</time>
      </trkpt>
      <trkpt lat="42.81445" lon="1.74307">
        <ele>1730.895</ele>
        <time>2021-03-23T13:28:06Z</time>
      </trkpt>
      <trkpt lat="42.81443" lon="1.74307">
        <ele>1731.25</ele>
        <time>2021-03-23T13:28:08Z</time>
      </trkpt>
      <trkpt lat="42.81441" lon="1.74308">
        <ele>1731.162</ele>
        <time>2021-03-23T13:28:10Z</time>
      </trkpt>
      <trkpt lat="42.81438" lon="1.74308">
        <ele>1730.888</ele>
        <time>2021-03-23T13:28:12Z</time>
      </trkpt>
      <trkpt lat="42.81436" lon="1.74308">
        <ele>1730.737</ele>
        <time>2021-03-23T13:28:14Z</time>
      </trkpt>
      <trkpt lat="42.81435" lon="1.74309">
        <ele>1730.873</ele>
        <time>2021-03-23T13:28:16Z</time>
      </trkpt>
      <trkpt lat="42.81433" lon="1.74309">
        <ele>1731.302</ele>
        <time>2021-03-23T13:28:18Z</time>
      </trkpt>
      <trkpt lat="42.81431" lon="1.7431">
        <ele>1730.731</ele>
        <time>2021-03-23T13:28:20Z</time>
      </trkpt>
      <trkpt lat="42.81429" lon="1.74311">
        <ele>1730.148</ele>
        <time>2021-03-23T13:28:22Z</time>
      </trkpt>
      <trkpt lat="42.81427" lon="1.74313">
        <ele>1729.924</ele>
        <time>2021-03-23T13:28:24Z</time>
      </trkpt>
      <trkpt lat="42.81426" lon="1.74314">
        <ele>1730.88</ele>
        <time>2021-03-23T13:28:26Z</time>
      </trkpt>
      <trkpt lat="42.81424" lon="1.74314">
        <ele>1730.336</ele>
        <time>2021-03-23T13:28:28Z</time>
      </trkpt>
      <trkpt lat="42.81422" lon="1.74313">
        <ele>1730.754</ele>
        <time>2021-03-23T13:28:30Z</time>
      </trkpt>
      <trkpt lat="42.8142" lon="1.74314">
        <ele>1731.234</ele>
        <time>2021-03-23T13:28:32Z</time>
      </trkpt>
      <trkpt lat="42.81418" lon="1.74315">
        <ele>1731.995</ele>
        <time>2021-03-23T13:28:34Z</time>
      </trkpt>
      <trkpt lat="42.81416" lon="1.74316">
        <ele>1731.273</ele>
        <time>2021-03-23T13:28:36Z</time>
      </trkpt>
      <trkpt lat="42.81414" lon="1.74317">
        <ele>1731.518</ele>
        <time>2021-03-23T13:28:38Z</time>
      </trkpt>
      <trkpt lat="42.81412" lon="1.74318">
        <ele>1730.665</ele>
        <time>2021-03-23T13:28:40Z</time>
      </trkpt>
      <trkpt lat="42.8141" lon="1.74319">
        <ele>1730.334</ele>
        <time>2021-03-23T13:28:42Z</time>
      </trkpt>
      <trkpt lat="42.81408" lon="1.7432">
        <ele>1730.586</ele>
        <time>2021-03-23T13:28:44Z</time>
      </trkpt>
      <trkpt lat="42.81406" lon="1.74321">
        <ele>1730.879</ele>
        <time>2021-03-23T13:28:46Z</time>
      </trkpt>
      <trkpt lat="42.81404" lon="1.74322">
        <ele>1730.79</ele>
        <time>2021-03-23T13:28:48Z</time>
      </trkpt>
      <trkpt lat="42.81402" lon="1.74323">
        <ele>1730.899</ele>
        <time>2021-03-23T13:28:50Z</time>
      </trkpt>
      <trkpt lat="42.814" lon="1.74323">
        <ele>1730.614</ele>
        <time>2021-03-23T13:28:52Z</time>
      </trkpt>
      <trkpt lat="42.81398" lon="1.74323">
        <ele>1730.465</ele>
        <time>2021-03-23T13:28:54Z</time>
      </trkpt>
      <trkpt lat="42.81397" lon="1.74323">
        <ele>1730.371</ele>
        <time>2021-03-23T13:28:56Z</time>
      </trkpt>
      <trkpt lat="42.81395" lon="1.74322">
        <ele>1730.059</ele>
        <time>2021-03-23T13:28:58Z</time>
      </trkpt>
      <trkpt lat="42.81393" lon="1.74321">
        <ele>1730.521</ele>
        <time>2021-03-23T13:29:00Z</time>
      </trkpt>
      <trkpt lat="42.81391" lon="1.7432">
        <ele>1730.886</ele>
        <time>2021-03-23T13:29:02Z</time>
      </trkpt>
      <trkpt lat="42.8139" lon="1.74319">
        <ele>1730.78</ele>
        <time>2021-03-23T13:29:04Z</time>
      </trkpt>
      <trkpt lat="42.81388" lon="1.74317">
        <ele>1730.987</ele>
        <time>2021-03-23T13:29:06Z</time>
      </trkpt>
      <trkpt lat="42.81388" lon="1.74315">
        <ele>1729.98</ele>
        <time>2021-03-23T13:29:08Z</time>
      </trkpt>
      <trkpt lat="42.81386" lon="1.74314">
        <ele>1729.444</ele>
        <time>2021-03-23T13:29:10Z</time>
      </trkpt>
      <trkpt lat="42.81385" lon="1.74313">
        <ele>1729.152</ele>
        <time>2021-03-23T13:29:12Z</time>
      </trkpt>
      <trkpt lat="42.81383" lon="1.74311">
        <ele>1729.154</ele>
        <time>2021-03-23T13:29:14Z</time>
      </trkpt>
      <trkpt lat="42.81382" lon="1.74309">
        <ele>1729.688</ele>
        <time>2021-03-23T13:29:16Z</time>
      </trkpt>
      <trkpt lat="42.8138" lon="1.74307">
        <ele>1730.144</ele>
        <time>2021-03-23T13:29:18Z</time>
      </trkpt>
      <trkpt lat="42.81379" lon="1.74306">
        <ele>1730.105</ele>
        <time>2021-03-23T13:29:20Z</time>
      </trkpt>
      <trkpt lat="42.81378" lon="1.74303">
        <ele>1730.217</ele>
        <time>2021-03-23T13:29:22Z</time>
      </trkpt>
      <trkpt lat="42.81378" lon="1.743">
        <ele>1730.011</ele>
        <time>2021-03-23T13:29:24Z</time>
      </trkpt>
      <trkpt lat="42.81377" lon="1.74298">
        <ele>1729.479</ele>
        <time>2021-03-23T13:29:26Z</time>
      </trkpt>
      <trkpt lat="42.81375" lon="1.74296">
        <ele>1730.201</ele>
        <time>2021-03-23T13:29:28Z</time>
      </trkpt>
      <trkpt lat="42.81374" lon="1.74294">
        <ele>1730.332</ele>
        <time>2021-03-23T13:29:30Z</time>
      </trkpt>
      <trkpt lat="42.81372" lon="1.74292">
        <ele>1729.353</ele>
        <time>2021-03-23T13:29:32Z</time>
      </trkpt>
      <trkpt lat="42.8137" lon="1.74291">
        <ele>1728.651</ele>
        <time>2021-03-23T13:29:34Z</time>
      </trkpt>
      <trkpt lat="42.81368" lon="1.7429">
        <ele>1728.177</ele>
        <time>2021-03-23T13:29:36Z</time>
      </trkpt>
      <trkpt lat="42.81367" lon="1.74288">
        <ele>1727.688</ele>
        <time>2021-03-23T13:29:38Z</time>
      </trkpt>
      <trkpt lat="42.81366" lon="1.74285">
        <ele>1727.419</ele>
        <time>2021-03-23T13:29:41Z</time>
      </trkpt>
      <trkpt lat="42.81364" lon="1.74284">
        <ele>1727.295</ele>
        <time>2021-03-23T13:29:43Z</time>
      </trkpt>
      <trkpt lat="42.81363" lon="1.74283">
        <ele>1727.198</ele>
        <time>2021-03-23T13:29:45Z</time>
      </trkpt>
      <trkpt lat="42.81361" lon="1.74281">
        <ele>1727.439</ele>
        <time>2021-03-23T13:29:47Z</time>
      </trkpt>
      <trkpt lat="42.81359" lon="1.7428">
        <ele>1726.165</ele>
        <time>2021-03-23T13:29:49Z</time>
      </trkpt>
      <trkpt lat="42.81358" lon="1.74278">
        <ele>1725.611</ele>
        <time>2021-03-23T13:29:51Z</time>
      </trkpt>
      <trkpt lat="42.81356" lon="1.74276">
        <ele>1725.093</ele>
        <time>2021-03-23T13:29:53Z</time>
      </trkpt>
      <trkpt lat="42.81355" lon="1.74274">
        <ele>1725.568</ele>
        <time>2021-03-23T13:29:55Z</time>
      </trkpt>
      <trkpt lat="42.81354" lon="1.74272">
        <ele>1724.981</ele>
        <time>2021-03-23T13:29:57Z</time>
      </trkpt>
      <trkpt lat="42.81351" lon="1.74271">
        <ele>1724.726</ele>
        <time>2021-03-23T13:29:59Z</time>
      </trkpt>
      <trkpt lat="42.81349" lon="1.7427">
        <ele>1724.231</ele>
        <time>2021-03-23T13:30:01Z</time>
      </trkpt>
      <trkpt lat="42.81347" lon="1.74269">
        <ele>1724.403</ele>
        <time>2021-03-23T13:30:03Z</time>
      </trkpt>
      <trkpt lat="42.81346" lon="1.74268">
        <ele>1723.91</ele>
        <time>2021-03-23T13:30:05Z</time>
      </trkpt>
      <trkpt lat="42.81344" lon="1.74267">
        <ele>1723.72</ele>
        <time>2021-03-23T13:30:07Z</time>
      </trkpt>
      <trkpt lat="42.81342" lon="1.74266">
        <ele>1722.15</ele>
        <time>2021-03-23T13:30:09Z</time>
      </trkpt>
      <trkpt lat="42.8134" lon="1.74265">
        <ele>1721.614</ele>
        <time>2021-03-23T13:30:11Z</time>
      </trkpt>
      <trkpt lat="42.81338" lon="1.74264">
        <ele>1721.102</ele>
        <time>2021-03-23T13:30:13Z</time>
      </trkpt>
      <trkpt lat="42.81336" lon="1.74264">
        <ele>1720.622</ele>
        <time>2021-03-23T13:30:15Z</time>
      </trkpt>
      <trkpt lat="42.81334" lon="1.74264">
        <ele>1720.971</ele>
        <time>2021-03-23T13:30:17Z</time>
      </trkpt>
      <trkpt lat="42.81332" lon="1.74264">
        <ele>1721.498</ele>
        <time>2021-03-23T13:30:19Z</time>
      </trkpt>
      <trkpt lat="42.8133" lon="1.74264">
        <ele>1720.608</ele>
        <time>2021-03-23T13:30:21Z</time>
      </trkpt>
      <trkpt lat="42.81328" lon="1.74264">
        <ele>1719.955</ele>
        <time>2021-03-23T13:30:23Z</time>
      </trkpt>
      <trkpt lat="42.81326" lon="1.74264">
        <ele>1719.9</ele>
        <time>2021-03-23T13:30:25Z</time>
      </trkpt>
      <trkpt lat="42.81324" lon="1.74265">
        <ele>1719.487</ele>
        <time>2021-03-23T13:30:27Z</time>
      </trkpt>
      <trkpt lat="42.81322" lon="1.74264">
        <ele>1718.452</ele>
        <time>2021-03-23T13:30:29Z</time>
      </trkpt>
      <trkpt lat="42.81321" lon="1.74263">
        <ele>1718.819</ele>
        <time>2021-03-23T13:30:31Z</time>
      </trkpt>
      <trkpt lat="42.81319" lon="1.7426">
        <ele>1718.852</ele>
        <time>2021-03-23T13:30:33Z</time>
      </trkpt>
      <trkpt lat="42.81317" lon="1.74258">
        <ele>1718.832</ele>
        <time>2021-03-23T13:30:35Z</time>
      </trkpt>
      <trkpt lat="42.81316" lon="1.74256">
        <ele>1719.082</ele>
        <time>2021-03-23T13:30:37Z</time>
      </trkpt>
      <trkpt lat="42.81313" lon="1.74255">
        <ele>1719.639</ele>
        <time>2021-03-23T13:30:39Z</time>
      </trkpt>
      <trkpt lat="42.81312" lon="1.74254">
        <ele>1719.037</ele>
        <time>2021-03-23T13:30:41Z</time>
      </trkpt>
      <trkpt lat="42.8131" lon="1.74253">
        <ele>1718.526</ele>
        <time>2021-03-23T13:30:43Z</time>
      </trkpt>
      <trkpt lat="42.81308" lon="1.7425">
        <ele>1718.183</ele>
        <time>2021-03-23T13:30:45Z</time>
      </trkpt>
      <trkpt lat="42.81306" lon="1.74248">
        <ele>1717.175</ele>
        <time>2021-03-23T13:30:47Z</time>
      </trkpt>
      <trkpt lat="42.81304" lon="1.74246">
        <ele>1717.52</ele>
        <time>2021-03-23T13:30:49Z</time>
      </trkpt>
      <trkpt lat="42.81302" lon="1.74244">
        <ele>1715.994</ele>
        <time>2021-03-23T13:30:51Z</time>
      </trkpt>
      <trkpt lat="42.813" lon="1.74242">
        <ele>1714.829</ele>
        <time>2021-03-23T13:30:53Z</time>
      </trkpt>
      <trkpt lat="42.81299" lon="1.74241">
        <ele>1714.472</ele>
        <time>2021-03-23T13:30:55Z</time>
      </trkpt>
      <trkpt lat="42.81297" lon="1.7424">
        <ele>1713.498</ele>
        <time>2021-03-23T13:30:57Z</time>
      </trkpt>
      <trkpt lat="42.81295" lon="1.74239">
        <ele>1713.407</ele>
        <time>2021-03-23T13:30:59Z</time>
      </trkpt>
      <trkpt lat="42.81293" lon="1.74238">
        <ele>1713.044</ele>
        <time>2021-03-23T13:31:01Z</time>
      </trkpt>
      <trkpt lat="42.81292" lon="1.74237">
        <ele>1713.588</ele>
        <time>2021-03-23T13:31:03Z</time>
      </trkpt>
      <trkpt lat="42.81291" lon="1.74235">
        <ele>1712.434</ele>
        <time>2021-03-23T13:31:05Z</time>
      </trkpt>
      <trkpt lat="42.8129" lon="1.74233">
        <ele>1711.704</ele>
        <time>2021-03-23T13:31:07Z</time>
      </trkpt>
      <trkpt lat="42.81288" lon="1.74231">
        <ele>1711.585</ele>
        <time>2021-03-23T13:31:09Z</time>
      </trkpt>
      <trkpt lat="42.81286" lon="1.7423">
        <ele>1711.464</ele>
        <time>2021-03-23T13:31:11Z</time>
      </trkpt>
      <trkpt lat="42.81284" lon="1.74229">
        <ele>1710.98</ele>
        <time>2021-03-23T13:31:13Z</time>
      </trkpt>
      <trkpt lat="42.81282" lon="1.74228">
        <ele>1710.619</ele>
        <time>2021-03-23T13:31:15Z</time>
      </trkpt>
      <trkpt lat="42.81281" lon="1.74228">
        <ele>1710.374</ele>
        <time>2021-03-23T13:31:17Z</time>
      </trkpt>
      <trkpt lat="42.8128" lon="1.74226">
        <ele>1709.126</ele>
        <time>2021-03-23T13:31:19Z</time>
      </trkpt>
      <trkpt lat="42.81278" lon="1.74225">
        <ele>1709.307</ele>
        <time>2021-03-23T13:31:21Z</time>
      </trkpt>
      <trkpt lat="42.81277" lon="1.74223">
        <ele>1709.236</ele>
        <time>2021-03-23T13:31:23Z</time>
      </trkpt>
      <trkpt lat="42.81275" lon="1.74222">
        <ele>1709.24</ele>
        <time>2021-03-23T13:31:25Z</time>
      </trkpt>
      <trkpt lat="42.81273" lon="1.74221">
        <ele>1709.107</ele>
        <time>2021-03-23T13:31:27Z</time>
      </trkpt>
      <trkpt lat="42.81271" lon="1.74219">
        <ele>1709.727</ele>
        <time>2021-03-23T13:31:29Z</time>
      </trkpt>
      <trkpt lat="42.8127" lon="1.74218">
        <ele>1710.202</ele>
        <time>2021-03-23T13:31:31Z</time>
      </trkpt>
      <trkpt lat="42.81268" lon="1.74217">
        <ele>1709.965</ele>
        <time>2021-03-23T13:31:33Z</time>
      </trkpt>
      <trkpt lat="42.81267" lon="1.74215">
        <ele>1709.545</ele>
        <time>2021-03-23T13:31:35Z</time>
      </trkpt>
      <trkpt lat="42.81265" lon="1.74214">
        <ele>1709.271</ele>
        <time>2021-03-23T13:31:37Z</time>
      </trkpt>
      <trkpt lat="42.81263" lon="1.74213">
        <ele>1710.587</ele>
        <time>2021-03-23T13:31:39Z</time>
      </trkpt>
      <trkpt lat="42.81261" lon="1.74212">
        <ele>1712.321</ele>
        <time>2021-03-23T13:31:41Z</time>
      </trkpt>
      <trkpt lat="42.81259" lon="1.74211">
        <ele>1713.205</ele>
        <time>2021-03-23T13:31:43Z</time>
      </trkpt>
      <trkpt lat="42.81257" lon="1.7421">
        <ele>1713.021</ele>
        <time>2021-03-23T13:31:45Z</time>
      </trkpt>
      <trkpt lat="42.81256" lon="1.7421">
        <ele>1714.172</ele>
        <time>2021-03-23T13:31:47Z</time>
      </trkpt>
      <trkpt lat="42.81254" lon="1.7421">
        <ele>1713.926</ele>
        <time>2021-03-23T13:31:49Z</time>
      </trkpt>
      <trkpt lat="42.81253" lon="1.74211">
        <ele>1714.168</ele>
        <time>2021-03-23T13:31:51Z</time>
      </trkpt>
      <trkpt lat="42.81251" lon="1.74211">
        <ele>1715.815</ele>
        <time>2021-03-23T13:31:53Z</time>
      </trkpt>
      <trkpt lat="42.81249" lon="1.74211">
        <ele>1716.779</ele>
        <time>2021-03-23T13:31:55Z</time>
      </trkpt>
      <trkpt lat="42.81248" lon="1.7421">
        <ele>1717.573</ele>
        <time>2021-03-23T13:31:57Z</time>
      </trkpt>
      <trkpt lat="42.81246" lon="1.74209">
        <ele>1717.614</ele>
        <time>2021-03-23T13:31:59Z</time>
      </trkpt>
      <trkpt lat="42.81245" lon="1.74209">
        <ele>1718.168</ele>
        <time>2021-03-23T13:32:01Z</time>
      </trkpt>
      <trkpt lat="42.81244" lon="1.74208">
        <ele>1718.494</ele>
        <time>2021-03-23T13:32:03Z</time>
      </trkpt>
      <trkpt lat="42.81242" lon="1.74207">
        <ele>1718.833</ele>
        <time>2021-03-23T13:32:05Z</time>
      </trkpt>
      <trkpt lat="42.81241" lon="1.74206">
        <ele>1718.949</ele>
        <time>2021-03-23T13:32:07Z</time>
      </trkpt>
      <trkpt lat="42.8124" lon="1.74205">
        <ele>1718.941</ele>
        <time>2021-03-23T13:32:09Z</time>
      </trkpt>
      <trkpt lat="42.81239" lon="1.74203">
        <ele>1718.579</ele>
        <time>2021-03-23T13:32:11Z</time>
      </trkpt>
      <trkpt lat="42.81238" lon="1.74202">
        <ele>1718.594</ele>
        <time>2021-03-23T13:32:13Z</time>
      </trkpt>
      <trkpt lat="42.81237" lon="1.742">
        <ele>1718.736</ele>
        <time>2021-03-23T13:32:15Z</time>
      </trkpt>
      <trkpt lat="42.81236" lon="1.74198">
        <ele>1718.9</ele>
        <time>2021-03-23T13:32:17Z</time>
      </trkpt>
      <trkpt lat="42.81235" lon="1.74197">
        <ele>1718.199</ele>
        <time>2021-03-23T13:32:19Z</time>
      </trkpt>
      <trkpt lat="42.81234" lon="1.74196">
        <ele>1717.843</ele>
        <time>2021-03-23T13:32:21Z</time>
      </trkpt>
      <trkpt lat="42.81232" lon="1.74194">
        <ele>1717.603</ele>
        <time>2021-03-23T13:32:23Z</time>
      </trkpt>
      <trkpt lat="42.8123" lon="1.74193">
        <ele>1717.596</ele>
        <time>2021-03-23T13:32:25Z</time>
      </trkpt>
      <trkpt lat="42.81228" lon="1.74193">
        <ele>1716.829</ele>
        <time>2021-03-23T13:32:27Z</time>
      </trkpt>
      <trkpt lat="42.81226" lon="1.74191">
        <ele>1717.3</ele>
        <time>2021-03-23T13:32:29Z</time>
      </trkpt>
      <trkpt lat="42.81225" lon="1.74192">
        <ele>1717.194</ele>
        <time>2021-03-23T13:32:31Z</time>
      </trkpt>
      <trkpt lat="42.81223" lon="1.74193">
        <ele>1716.469</ele>
        <time>2021-03-23T13:32:33Z</time>
      </trkpt>
      <trkpt lat="42.81222" lon="1.74193">
        <ele>1716.592</ele>
        <time>2021-03-23T13:32:35Z</time>
      </trkpt>
      <trkpt lat="42.8122" lon="1.74194">
        <ele>1716.029</ele>
        <time>2021-03-23T13:32:37Z</time>
      </trkpt>
      <trkpt lat="42.81218" lon="1.74193">
        <ele>1715.748</ele>
        <time>2021-03-23T13:32:39Z</time>
      </trkpt>
      <trkpt lat="42.81217" lon="1.74192">
        <ele>1716.788</ele>
        <time>2021-03-23T13:32:41Z</time>
      </trkpt>
      <trkpt lat="42.81215" lon="1.74191">
        <ele>1716.727</ele>
        <time>2021-03-23T13:32:43Z</time>
      </trkpt>
      <trkpt lat="42.81214" lon="1.7419">
        <ele>1715.924</ele>
        <time>2021-03-23T13:32:45Z</time>
      </trkpt>
      <trkpt lat="42.81212" lon="1.74189">
        <ele>1715.256</ele>
        <time>2021-03-23T13:32:47Z</time>
      </trkpt>
      <trkpt lat="42.8121" lon="1.74188">
        <ele>1714.06</ele>
        <time>2021-03-23T13:32:49Z</time>
      </trkpt>
      <trkpt lat="42.81208" lon="1.74186">
        <ele>1713.62</ele>
        <time>2021-03-23T13:32:51Z</time>
      </trkpt>
      <trkpt lat="42.81206" lon="1.74184">
        <ele>1713.908</ele>
        <time>2021-03-23T13:32:53Z</time>
      </trkpt>
      <trkpt lat="42.81205" lon="1.74182">
        <ele>1714.562</ele>
        <time>2021-03-23T13:32:55Z</time>
      </trkpt>
      <trkpt lat="42.81204" lon="1.7418">
        <ele>1714.384</ele>
        <time>2021-03-23T13:32:57Z</time>
      </trkpt>
      <trkpt lat="42.81202" lon="1.74178">
        <ele>1715.409</ele>
        <time>2021-03-23T13:32:59Z</time>
      </trkpt>
      <trkpt lat="42.812" lon="1.74176">
        <ele>1715.801</ele>
        <time>2021-03-23T13:33:01Z</time>
      </trkpt>
      <trkpt lat="42.81198" lon="1.74174">
        <ele>1716.095</ele>
        <time>2021-03-23T13:33:03Z</time>
      </trkpt>
      <trkpt lat="42.81197" lon="1.74172">
        <ele>1715.136</ele>
        <time>2021-03-23T13:33:05Z</time>
      </trkpt>
      <trkpt lat="42.81196" lon="1.74171">
        <ele>1713.973</ele>
        <time>2021-03-23T13:33:07Z</time>
      </trkpt>
      <trkpt lat="42.81194" lon="1.74171">
        <ele>1712.403</ele>
        <time>2021-03-23T13:33:09Z</time>
      </trkpt>
      <trkpt lat="42.81192" lon="1.7417">
        <ele>1712.727</ele>
        <time>2021-03-23T13:33:11Z</time>
      </trkpt>
      <trkpt lat="42.81191" lon="1.74168">
        <ele>1712.271</ele>
        <time>2021-03-23T13:33:13Z</time>
      </trkpt>
      <trkpt lat="42.8119" lon="1.74166">
        <ele>1710.66</ele>
        <time>2021-03-23T13:33:15Z</time>
      </trkpt>
      <trkpt lat="42.81189" lon="1.74164">
        <ele>1709.555</ele>
        <time>2021-03-23T13:33:17Z</time>
      </trkpt>
      <trkpt lat="42.81187" lon="1.74163">
        <ele>1709.299</ele>
        <time>2021-03-23T13:33:19Z</time>
      </trkpt>
      <trkpt lat="42.81184" lon="1.74162">
        <ele>1708.798</ele>
        <time>2021-03-23T13:33:21Z</time>
      </trkpt>
      <trkpt lat="42.81182" lon="1.7416">
        <ele>1708.539</ele>
        <time>2021-03-23T13:33:23Z</time>
      </trkpt>
      <trkpt lat="42.8118" lon="1.74159">
        <ele>1707.823</ele>
        <time>2021-03-23T13:33:25Z</time>
      </trkpt>
      <trkpt lat="42.81177" lon="1.74157">
        <ele>1708.247</ele>
        <time>2021-03-23T13:33:27Z</time>
      </trkpt>
      <trkpt lat="42.81173" lon="1.74156">
        <ele>1709.805</ele>
        <time>2021-03-23T13:33:29Z</time>
      </trkpt>
      <trkpt lat="42.81171" lon="1.74154">
        <ele>1710.321</ele>
        <time>2021-03-23T13:33:31Z</time>
      </trkpt>
      <trkpt lat="42.81169" lon="1.74153">
        <ele>1709.641</ele>
        <time>2021-03-23T13:33:33Z</time>
      </trkpt>
      <trkpt lat="42.81167" lon="1.74151">
        <ele>1709.961</ele>
        <time>2021-03-23T13:33:35Z</time>
      </trkpt>
      <trkpt lat="42.81163" lon="1.7415">
        <ele>1710.614</ele>
        <time>2021-03-23T13:33:38Z</time>
      </trkpt>
      <trkpt lat="42.81161" lon="1.74147">
        <ele>1712.067</ele>
        <time>2021-03-23T13:33:40Z</time>
      </trkpt>
      <trkpt lat="42.8116" lon="1.74145">
        <ele>1713.717</ele>
        <time>2021-03-23T13:33:42Z</time>
      </trkpt>
      <trkpt lat="42.81158" lon="1.74143">
        <ele>1714.392</ele>
        <time>2021-03-23T13:33:44Z</time>
      </trkpt>
      <trkpt lat="42.81156" lon="1.74141">
        <ele>1715.008</ele>
        <time>2021-03-23T13:33:46Z</time>
      </trkpt>
      <trkpt lat="42.81154" lon="1.7414">
        <ele>1715.22</ele>
        <time>2021-03-23T13:33:48Z</time>
      </trkpt>
      <trkpt lat="42.81152" lon="1.74139">
        <ele>1716.042</ele>
        <time>2021-03-23T13:33:50Z</time>
      </trkpt>
      <trkpt lat="42.8115" lon="1.74138">
        <ele>1716.592</ele>
        <time>2021-03-23T13:33:52Z</time>
      </trkpt>
      <trkpt lat="42.81149" lon="1.74137">
        <ele>1717.417</ele>
        <time>2021-03-23T13:33:54Z</time>
      </trkpt>
      <trkpt lat="42.81147" lon="1.74135">
        <ele>1717.487</ele>
        <time>2021-03-23T13:33:56Z</time>
      </trkpt>
      <trkpt lat="42.81145" lon="1.74134">
        <ele>1717.443</ele>
        <time>2021-03-23T13:33:58Z</time>
      </trkpt>
      <trkpt lat="42.81144" lon="1.74133">
        <ele>1716.941</ele>
        <time>2021-03-23T13:34:00Z</time>
      </trkpt>
      <trkpt lat="42.81142" lon="1.74133">
        <ele>1718.418</ele>
        <time>2021-03-23T13:34:02Z</time>
      </trkpt>
      <trkpt lat="42.8114" lon="1.74133">
        <ele>1717.989</ele>
        <time>2021-03-23T13:34:04Z</time>
      </trkpt>
      <trkpt lat="42.81139" lon="1.74133">
        <ele>1718.832</ele>
        <time>2021-03-23T13:34:06Z</time>
      </trkpt>
      <trkpt lat="42.81137" lon="1.74133">
        <ele>1719.082</ele>
        <time>2021-03-23T13:34:08Z</time>
      </trkpt>
      <trkpt lat="42.81136" lon="1.74133">
        <ele>1720.731</ele>
        <time>2021-03-23T13:34:10Z</time>
      </trkpt>
      <trkpt lat="42.81134" lon="1.74134">
        <ele>1720.974</ele>
        <time>2021-03-23T13:34:12Z</time>
      </trkpt>
      <trkpt lat="42.81133" lon="1.74135">
        <ele>1721.764</ele>
        <time>2021-03-23T13:34:14Z</time>
      </trkpt>
      <trkpt lat="42.81133" lon="1.74137">
        <ele>1722.111</ele>
        <time>2021-03-23T13:34:16Z</time>
      </trkpt>
      <trkpt lat="42.81131" lon="1.74137">
        <ele>1722.969</ele>
        <time>2021-03-23T13:34:18Z</time>
      </trkpt>
      <trkpt lat="42.8113" lon="1.74136">
        <ele>1722.366</ele>
        <time>2021-03-23T13:34:20Z</time>
      </trkpt>
      <trkpt lat="42.81129" lon="1.74133">
        <ele>1721.821</ele>
        <time>2021-03-23T13:34:22Z</time>
      </trkpt>
      <trkpt lat="42.81128" lon="1.74131">
        <ele>1722.151</ele>
        <time>2021-03-23T13:34:24Z</time>
      </trkpt>
      <trkpt lat="42.81126" lon="1.7413">
        <ele>1722.245</ele>
        <time>2021-03-23T13:34:26Z</time>
      </trkpt>
      <trkpt lat="42.81125" lon="1.74127">
        <ele>1722.425</ele>
        <time>2021-03-23T13:34:28Z</time>
      </trkpt>
      <trkpt lat="42.81123" lon="1.74125">
        <ele>1722.518</ele>
        <time>2021-03-23T13:34:30Z</time>
      </trkpt>
      <trkpt lat="42.81122" lon="1.74123">
        <ele>1721.6</ele>
        <time>2021-03-23T13:34:32Z</time>
      </trkpt>
      <trkpt lat="42.8112" lon="1.74123">
        <ele>1721.815</ele>
        <time>2021-03-23T13:34:34Z</time>
      </trkpt>
      <trkpt lat="42.81118" lon="1.74124">
        <ele>1721.846</ele>
        <time>2021-03-23T13:34:36Z</time>
      </trkpt>
      <trkpt lat="42.81117" lon="1.74123">
        <ele>1721.517</ele>
        <time>2021-03-23T13:34:38Z</time>
      </trkpt>
      <trkpt lat="42.81116" lon="1.74122">
        <ele>1722.26</ele>
        <time>2021-03-23T13:34:40Z</time>
      </trkpt>
      <trkpt lat="42.81115" lon="1.74122">
        <ele>1723.64</ele>
        <time>2021-03-23T13:34:42Z</time>
      </trkpt>
      <trkpt lat="42.81115" lon="1.74122">
        <ele>1723.504</ele>
        <time>2021-03-23T13:34:44Z</time>
      </trkpt>
      <trkpt lat="42.81114" lon="1.74123">
        <ele>1723.634</ele>
        <time>2021-03-23T13:34:46Z</time>
      </trkpt>
      <trkpt lat="42.81112" lon="1.74124">
        <ele>1723.347</ele>
        <time>2021-03-23T13:34:48Z</time>
      </trkpt>
      <trkpt lat="42.81111" lon="1.74123">
        <ele>1723.035</ele>
        <time>2021-03-23T13:34:50Z</time>
      </trkpt>
      <trkpt lat="42.81109" lon="1.74122">
        <ele>1725.116</ele>
        <time>2021-03-23T13:34:52Z</time>
      </trkpt>
      <trkpt lat="42.8111" lon="1.74122">
        <ele>1724.937</ele>
        <time>2021-03-23T13:34:54Z</time>
      </trkpt>
      <trkpt lat="42.8111" lon="1.74122">
        <ele>1724.927</ele>
        <time>2021-03-23T13:34:56Z</time>
      </trkpt>
      <trkpt lat="42.81109" lon="1.74123">
        <ele>1724.841</ele>
        <time>2021-03-23T13:34:58Z</time>
      </trkpt>
      <trkpt lat="42.81106" lon="1.74125">
        <ele>1724.924</ele>
        <time>2021-03-23T13:35:01Z</time>
      </trkpt>
      <trkpt lat="42.81105" lon="1.74125">
        <ele>1724.945</ele>
        <time>2021-03-23T13:35:03Z</time>
      </trkpt>
      <trkpt lat="42.81103" lon="1.74125">
        <ele>1724.014</ele>
        <time>2021-03-23T13:35:05Z</time>
      </trkpt>
      <trkpt lat="42.81102" lon="1.74123">
        <ele>1725.378</ele>
        <time>2021-03-23T13:35:07Z</time>
      </trkpt>
      <trkpt lat="42.81101" lon="1.7412">
        <ele>1726.562</ele>
        <time>2021-03-23T13:35:09Z</time>
      </trkpt>
      <trkpt lat="42.81101" lon="1.74119">
        <ele>1725.656</ele>
        <time>2021-03-23T13:35:11Z</time>
      </trkpt>
      <trkpt lat="42.81102" lon="1.74119">
        <ele>1725.672</ele>
        <time>2021-03-23T13:35:13Z</time>
      </trkpt>
      <trkpt lat="42.81103" lon="1.7412">
        <ele>1723.933</ele>
        <time>2021-03-23T13:35:15Z</time>
      </trkpt>
      <trkpt lat="42.81104" lon="1.7412">
        <ele>1723.421</ele>
        <time>2021-03-23T13:35:17Z</time>
      </trkpt>
      <trkpt lat="42.81104" lon="1.7412">
        <ele>1723.41</ele>
        <time>2021-03-23T13:35:19Z</time>
      </trkpt>
      <trkpt lat="42.81104" lon="1.74121">
        <ele>1723.406</ele>
        <time>2021-03-23T13:35:21Z</time>
      </trkpt>
      <trkpt lat="42.81104" lon="1.74121">
        <ele>1723.395</ele>
        <time>2021-03-23T13:35:23Z</time>
      </trkpt>
      <trkpt lat="42.81104" lon="1.74121">
        <ele>1723.383</ele>
        <time>2021-03-23T13:35:25Z</time>
      </trkpt>
      <trkpt lat="42.81104" lon="1.74121">
        <ele>1723.373</ele>
        <time>2021-03-23T13:35:27Z</time>
      </trkpt>
      <trkpt lat="42.81104" lon="1.74121">
        <ele>1723.358</ele>
        <time>2021-03-23T13:35:29Z</time>
      </trkpt>
      <trkpt lat="42.81104" lon="1.74121">
        <ele>1723.357</ele>
        <time>2021-03-23T13:35:31Z</time>
      </trkpt>
      <trkpt lat="42.81104" lon="1.74121">
        <ele>1723.342</ele>
        <time>2021-03-23T13:35:33Z</time>
      </trkpt>
      <trkpt lat="42.81104" lon="1.74121">
        <ele>1723.336</ele>
        <time>2021-03-23T13:35:35Z</time>
      </trkpt>
      <trkpt lat="42.81104" lon="1.74121">
        <ele>1723.326</ele>
        <time>2021-03-23T13:35:37Z</time>
      </trkpt>
      <trkpt lat="42.81104" lon="1.74121">
        <ele>1723.315</ele>
        <time>2021-03-23T13:35:39Z</time>
      </trkpt>
      <trkpt lat="42.81104" lon="1.74121">
        <ele>1723.31</ele>
        <time>2021-03-23T13:35:41Z</time>
      </trkpt>
      <trkpt lat="42.81104" lon="1.74121">
        <ele>1723.293</ele>
        <time>2021-03-23T13:35:43Z</time>
      </trkpt>
      <trkpt lat="42.81104" lon="1.74121">
        <ele>1723.286</ele>
        <time>2021-03-23T13:35:45Z</time>
      </trkpt>
      <trkpt lat="42.81104" lon="1.74121">
        <ele>1723.282</ele>
        <time>2021-03-23T13:35:47Z</time>
      </trkpt>
      <trkpt lat="42.81104" lon="1.74121">
        <ele>1723.28</ele>
        <time>2021-03-23T13:35:49Z</time>
      </trkpt>
      <trkpt lat="42.81104" lon="1.74121">
        <ele>1723.274</ele>
        <time>2021-03-23T13:35:51Z</time>
      </trkpt>
      <trkpt lat="42.81104" lon="1.74121">
        <ele>1723.274</ele>
        <time>2021-03-23T13:35:53Z</time>
      </trkpt>
      <trkpt lat="42.81104" lon="1.74121">
        <ele>1723.271</ele>
        <time>2021-03-23T13:35:55Z</time>
      </trkpt>
      <trkpt lat="42.81104" lon="1.74121">
        <ele>1723.271</ele>
        <time>2021-03-23T13:35:57Z</time>
      </trkpt>
      <trkpt lat="42.81104" lon="1.74121">
        <ele>1723.271</ele>
        <time>2021-03-23T13:35:59Z</time>
      </trkpt>
      <trkpt lat="42.81104" lon="1.7412">
        <ele>1723.495</ele>
        <time>2021-03-23T13:36:01Z</time>
      </trkpt>
      <trkpt lat="42.81103" lon="1.7412">
        <ele>1722.153</ele>
        <time>2021-03-23T13:36:03Z</time>
      </trkpt>
      <trkpt lat="42.81103" lon="1.74119">
        <ele>1721.664</ele>
        <time>2021-03-23T13:36:05Z</time>
      </trkpt>
      <trkpt lat="42.81101" lon="1.74117">
        <ele>1722.215</ele>
        <time>2021-03-23T13:36:07Z</time>
      </trkpt>
      <trkpt lat="42.81099" lon="1.74115">
        <ele>1723.649</ele>
        <time>2021-03-23T13:36:09Z</time>
      </trkpt>
      <trkpt lat="42.81097" lon="1.74113">
        <ele>1725.227</ele>
        <time>2021-03-23T13:36:11Z</time>
      </trkpt>
      <trkpt lat="42.81095" lon="1.74111">
        <ele>1726.023</ele>
        <time>2021-03-23T13:36:13Z</time>
      </trkpt>
      <trkpt lat="42.81095" lon="1.74109">
        <ele>1725.418</ele>
        <time>2021-03-23T13:36:15Z</time>
      </trkpt>
      <trkpt lat="42.81093" lon="1.74109">
        <ele>1724.65</ele>
        <time>2021-03-23T13:36:17Z</time>
      </trkpt>
      <trkpt lat="42.81091" lon="1.7411">
        <ele>1723.477</ele>
        <time>2021-03-23T13:36:19Z</time>
      </trkpt>
      <trkpt lat="42.8109" lon="1.7411">
        <ele>1722.775</ele>
        <time>2021-03-23T13:36:21Z</time>
      </trkpt>
      <trkpt lat="42.81087" lon="1.74108">
        <ele>1723.701</ele>
        <time>2021-03-23T13:36:23Z</time>
      </trkpt>
      <trkpt lat="42.81085" lon="1.74107">
        <ele>1724.571</ele>
        <time>2021-03-23T13:36:25Z</time>
      </trkpt>
      <trkpt lat="42.81084" lon="1.74104">
        <ele>1726.438</ele>
        <time>2021-03-23T13:36:27Z</time>
      </trkpt>
      <trkpt lat="42.81082" lon="1.74102">
        <ele>1727.754</ele>
        <time>2021-03-23T13:36:29Z</time>
      </trkpt>
      <trkpt lat="42.81081" lon="1.741">
        <ele>1727.304</ele>
        <time>2021-03-23T13:36:31Z</time>
      </trkpt>
      <trkpt lat="42.81079" lon="1.741">
        <ele>1726.428</ele>
        <time>2021-03-23T13:36:33Z</time>
      </trkpt>
      <trkpt lat="42.81077" lon="1.74101">
        <ele>1723.883</ele>
        <time>2021-03-23T13:36:35Z</time>
      </trkpt>
      <trkpt lat="42.81078" lon="1.74105">
        <ele>1722.462</ele>
        <time>2021-03-23T13:36:37Z</time>
      </trkpt>
      <trkpt lat="42.81078" lon="1.74106">
        <ele>1721.763</ele>
        <time>2021-03-23T13:36:39Z</time>
      </trkpt>
      <trkpt lat="42.81077" lon="1.74107">
        <ele>1720.107</ele>
        <time>2021-03-23T13:36:41Z</time>
      </trkpt>
      <trkpt lat="42.81075" lon="1.74111">
        <ele>1720.061</ele>
        <time>2021-03-23T13:36:43Z</time>
      </trkpt>
      <trkpt lat="42.81078" lon="1.74108">
        <ele>1710.695</ele>
        <time>2021-03-23T13:36:45Z</time>
      </trkpt>
      <trkpt lat="42.81077" lon="1.74107">
        <ele>1709.995</ele>
        <time>2021-03-23T13:36:47Z</time>
      </trkpt>
      <trkpt lat="42.81075" lon="1.74106">
        <ele>1709.705</ele>
        <time>2021-03-23T13:36:49Z</time>
      </trkpt>
      <trkpt lat="42.81073" lon="1.74106">
        <ele>1709.148</ele>
        <time>2021-03-23T13:36:51Z</time>
      </trkpt>
      <trkpt lat="42.81071" lon="1.74107">
        <ele>1708.836</ele>
        <time>2021-03-23T13:36:53Z</time>
      </trkpt>
      <trkpt lat="42.8107" lon="1.74107">
        <ele>1708.339</ele>
        <time>2021-03-23T13:36:55Z</time>
      </trkpt>
      <trkpt lat="42.81068" lon="1.74108">
        <ele>1708.369</ele>
        <time>2021-03-23T13:36:57Z</time>
      </trkpt>
      <trkpt lat="42.81066" lon="1.74108">
        <ele>1708.638</ele>
        <time>2021-03-23T13:36:59Z</time>
      </trkpt>
      <trkpt lat="42.81064" lon="1.74109">
        <ele>1709.345</ele>
        <time>2021-03-23T13:37:01Z</time>
      </trkpt>
      <trkpt lat="42.81062" lon="1.74109">
        <ele>1709.266</ele>
        <time>2021-03-23T13:37:03Z</time>
      </trkpt>
      <trkpt lat="42.8106" lon="1.74107">
        <ele>1709.558</ele>
        <time>2021-03-23T13:37:05Z</time>
      </trkpt>
      <trkpt lat="42.81058" lon="1.74105">
        <ele>1709.172</ele>
        <time>2021-03-23T13:37:07Z</time>
      </trkpt>
      <trkpt lat="42.81056" lon="1.74105">
        <ele>1709.445</ele>
        <time>2021-03-23T13:37:09Z</time>
      </trkpt>
      <trkpt lat="42.81054" lon="1.74105">
        <ele>1710.012</ele>
        <time>2021-03-23T13:37:11Z</time>
      </trkpt>
      <trkpt lat="42.81052" lon="1.74105">
        <ele>1710.291</ele>
        <time>2021-03-23T13:37:13Z</time>
      </trkpt>
      <trkpt lat="42.8105" lon="1.74104">
        <ele>1709.841</ele>
        <time>2021-03-23T13:37:15Z</time>
      </trkpt>
      <trkpt lat="42.81048" lon="1.74104">
        <ele>1709.229</ele>
        <time>2021-03-23T13:37:17Z</time>
      </trkpt>
      <trkpt lat="42.81046" lon="1.74104">
        <ele>1709.151</ele>
        <time>2021-03-23T13:37:19Z</time>
      </trkpt>
      <trkpt lat="42.81044" lon="1.74104">
        <ele>1708.328</ele>
        <time>2021-03-23T13:37:21Z</time>
      </trkpt>
      <trkpt lat="42.81042" lon="1.74103">
        <ele>1707.307</ele>
        <time>2021-03-23T13:37:23Z</time>
      </trkpt>
      <trkpt lat="42.81041" lon="1.74102">
        <ele>1706.282</ele>
        <time>2021-03-23T13:37:25Z</time>
      </trkpt>
      <trkpt lat="42.81039" lon="1.74101">
        <ele>1705.646</ele>
        <time>2021-03-23T13:37:27Z</time>
      </trkpt>
      <trkpt lat="42.81037" lon="1.74101">
        <ele>1705.323</ele>
        <time>2021-03-23T13:37:29Z</time>
      </trkpt>
      <trkpt lat="42.81034" lon="1.74101">
        <ele>1705.511</ele>
        <time>2021-03-23T13:37:31Z</time>
      </trkpt>
      <trkpt lat="42.81032" lon="1.74101">
        <ele>1704.937</ele>
        <time>2021-03-23T13:37:33Z</time>
      </trkpt>
      <trkpt lat="42.8103" lon="1.74101">
        <ele>1704.812</ele>
        <time>2021-03-23T13:37:35Z</time>
      </trkpt>
      <trkpt lat="42.81028" lon="1.74101">
        <ele>1704.1</ele>
        <time>2021-03-23T13:37:37Z</time>
      </trkpt>
      <trkpt lat="42.81026" lon="1.741">
        <ele>1703.731</ele>
        <time>2021-03-23T13:37:39Z</time>
      </trkpt>
      <trkpt lat="42.81024" lon="1.74099">
        <ele>1703.919</ele>
        <time>2021-03-23T13:37:41Z</time>
      </trkpt>
      <trkpt lat="42.81022" lon="1.74099">
        <ele>1703.616</ele>
        <time>2021-03-23T13:37:43Z</time>
      </trkpt>
      <trkpt lat="42.81019" lon="1.741">
        <ele>1703.994</ele>
        <time>2021-03-23T13:37:45Z</time>
      </trkpt>
      <trkpt lat="42.81018" lon="1.74099">
        <ele>1703.838</ele>
        <time>2021-03-23T13:37:47Z</time>
      </trkpt>
      <trkpt lat="42.81016" lon="1.74097">
        <ele>1703.111</ele>
        <time>2021-03-23T13:37:49Z</time>
      </trkpt>
      <trkpt lat="42.81015" lon="1.74095">
        <ele>1703.007</ele>
        <time>2021-03-23T13:37:51Z</time>
      </trkpt>
      <trkpt lat="42.81013" lon="1.74094">
        <ele>1703.221</ele>
        <time>2021-03-23T13:37:53Z</time>
      </trkpt>
      <trkpt lat="42.81011" lon="1.74093">
        <ele>1702.642</ele>
        <time>2021-03-23T13:37:55Z</time>
      </trkpt>
      <trkpt lat="42.81009" lon="1.74093">
        <ele>1703.463</ele>
        <time>2021-03-23T13:37:57Z</time>
      </trkpt>
      <trkpt lat="42.81009" lon="1.74098">
        <ele>1704.116</ele>
        <time>2021-03-23T13:37:59Z</time>
      </trkpt>
      <trkpt lat="42.81006" lon="1.74099">
        <ele>1705.284</ele>
        <time>2021-03-23T13:38:01Z</time>
      </trkpt>
      <trkpt lat="42.81005" lon="1.74097">
        <ele>1705.225</ele>
        <time>2021-03-23T13:38:03Z</time>
      </trkpt>
      <trkpt lat="42.81003" lon="1.74096">
        <ele>1703.631</ele>
        <time>2021-03-23T13:38:05Z</time>
      </trkpt>
      <trkpt lat="42.81" lon="1.74095">
        <ele>1703.235</ele>
        <time>2021-03-23T13:38:07Z</time>
      </trkpt>
      <trkpt lat="42.80998" lon="1.74093">
        <ele>1702.742</ele>
        <time>2021-03-23T13:38:09Z</time>
      </trkpt>
      <trkpt lat="42.80996" lon="1.74091">
        <ele>1701.984</ele>
        <time>2021-03-23T13:38:11Z</time>
      </trkpt>
      <trkpt lat="42.80995" lon="1.74089">
        <ele>1701.421</ele>
        <time>2021-03-23T13:38:13Z</time>
      </trkpt>
      <trkpt lat="42.80992" lon="1.74088">
        <ele>1700.887</ele>
        <time>2021-03-23T13:38:15Z</time>
      </trkpt>
      <trkpt lat="42.80991" lon="1.74088">
        <ele>1701.276</ele>
        <time>2021-03-23T13:38:17Z</time>
      </trkpt>
      <trkpt lat="42.80988" lon="1.74088">
        <ele>1701.051</ele>
        <time>2021-03-23T13:38:19Z</time>
      </trkpt>
      <trkpt lat="42.80987" lon="1.74087">
        <ele>1701.074</ele>
        <time>2021-03-23T13:38:21Z</time>
      </trkpt>
      <trkpt lat="42.80985" lon="1.74085">
        <ele>1700.835</ele>
        <time>2021-03-23T13:38:23Z</time>
      </trkpt>
      <trkpt lat="42.80983" lon="1.74083">
        <ele>1700.474</ele>
        <time>2021-03-23T13:38:25Z</time>
      </trkpt>
      <trkpt lat="42.80981" lon="1.74082">
        <ele>1700.344</ele>
        <time>2021-03-23T13:38:27Z</time>
      </trkpt>
      <trkpt lat="42.80979" lon="1.74081">
        <ele>1699.436</ele>
        <time>2021-03-23T13:38:29Z</time>
      </trkpt>
      <trkpt lat="42.80977" lon="1.74079">
        <ele>1699.106</ele>
        <time>2021-03-23T13:38:31Z</time>
      </trkpt>
      <trkpt lat="42.80975" lon="1.74078">
        <ele>1699.022</ele>
        <time>2021-03-23T13:38:33Z</time>
      </trkpt>
      <trkpt lat="42.80973" lon="1.74077">
        <ele>1697.954</ele>
        <time>2021-03-23T13:38:35Z</time>
      </trkpt>
      <trkpt lat="42.80972" lon="1.74076">
        <ele>1697.563</ele>
        <time>2021-03-23T13:38:37Z</time>
      </trkpt>
      <trkpt lat="42.80969" lon="1.74075">
        <ele>1697.076</ele>
        <time>2021-03-23T13:38:39Z</time>
      </trkpt>
      <trkpt lat="42.80967" lon="1.74073">
        <ele>1697.1</ele>
        <time>2021-03-23T13:38:41Z</time>
      </trkpt>
      <trkpt lat="42.80965" lon="1.74072">
        <ele>1697.094</ele>
        <time>2021-03-23T13:38:43Z</time>
      </trkpt>
      <trkpt lat="42.80963" lon="1.74072">
        <ele>1697.04</ele>
        <time>2021-03-23T13:38:45Z</time>
      </trkpt>
      <trkpt lat="42.80961" lon="1.74072">
        <ele>1696.699</ele>
        <time>2021-03-23T13:38:47Z</time>
      </trkpt>
      <trkpt lat="42.80959" lon="1.74072">
        <ele>1696.667</ele>
        <time>2021-03-23T13:38:49Z</time>
      </trkpt>
      <trkpt lat="42.80957" lon="1.74071">
        <ele>1696.562</ele>
        <time>2021-03-23T13:38:51Z</time>
      </trkpt>
      <trkpt lat="42.80955" lon="1.7407">
        <ele>1695.765</ele>
        <time>2021-03-23T13:38:53Z</time>
      </trkpt>
      <trkpt lat="42.80953" lon="1.74069">
        <ele>1695.926</ele>
        <time>2021-03-23T13:38:55Z</time>
      </trkpt>
      <trkpt lat="42.80952" lon="1.74068">
        <ele>1695.817</ele>
        <time>2021-03-23T13:38:57Z</time>
      </trkpt>
      <trkpt lat="42.8095" lon="1.74067">
        <ele>1695.963</ele>
        <time>2021-03-23T13:38:59Z</time>
      </trkpt>
      <trkpt lat="42.80949" lon="1.74065">
        <ele>1694.902</ele>
        <time>2021-03-23T13:39:01Z</time>
      </trkpt>
      <trkpt lat="42.80947" lon="1.74064">
        <ele>1694.23</ele>
        <time>2021-03-23T13:39:03Z</time>
      </trkpt>
      <trkpt lat="42.80945" lon="1.74063">
        <ele>1693.561</ele>
        <time>2021-03-23T13:39:05Z</time>
      </trkpt>
      <trkpt lat="42.80943" lon="1.74062">
        <ele>1692.972</ele>
        <time>2021-03-23T13:39:07Z</time>
      </trkpt>
      <trkpt lat="42.80941" lon="1.74061">
        <ele>1692.74</ele>
        <time>2021-03-23T13:39:09Z</time>
      </trkpt>
      <trkpt lat="42.80939" lon="1.74059">
        <ele>1692.403</ele>
        <time>2021-03-23T13:39:11Z</time>
      </trkpt>
      <trkpt lat="42.80937" lon="1.74058">
        <ele>1692.124</ele>
        <time>2021-03-23T13:39:13Z</time>
      </trkpt>
      <trkpt lat="42.80935" lon="1.74058">
        <ele>1692.054</ele>
        <time>2021-03-23T13:39:15Z</time>
      </trkpt>
      <trkpt lat="42.80932" lon="1.74058">
        <ele>1692.422</ele>
        <time>2021-03-23T13:39:17Z</time>
      </trkpt>
      <trkpt lat="42.8093" lon="1.74058">
        <ele>1693.064</ele>
        <time>2021-03-23T13:39:19Z</time>
      </trkpt>
      <trkpt lat="42.80927" lon="1.74059">
        <ele>1693.14</ele>
        <time>2021-03-23T13:39:21Z</time>
      </trkpt>
      <trkpt lat="42.80925" lon="1.74058">
        <ele>1693.374</ele>
        <time>2021-03-23T13:39:23Z</time>
      </trkpt>
      <trkpt lat="42.80923" lon="1.74058">
        <ele>1693.618</ele>
        <time>2021-03-23T13:39:25Z</time>
      </trkpt>
      <trkpt lat="42.80921" lon="1.74058">
        <ele>1693.54</ele>
        <time>2021-03-23T13:39:27Z</time>
      </trkpt>
      <trkpt lat="42.80919" lon="1.74058">
        <ele>1693.286</ele>
        <time>2021-03-23T13:39:29Z</time>
      </trkpt>
      <trkpt lat="42.80917" lon="1.74057">
        <ele>1693.036</ele>
        <time>2021-03-23T13:39:31Z</time>
      </trkpt>
      <trkpt lat="42.80916" lon="1.74055">
        <ele>1692.575</ele>
        <time>2021-03-23T13:39:33Z</time>
      </trkpt>
      <trkpt lat="42.80915" lon="1.74053">
        <ele>1692.325</ele>
        <time>2021-03-23T13:39:35Z</time>
      </trkpt>
      <trkpt lat="42.80913" lon="1.7405">
        <ele>1692.335</ele>
        <time>2021-03-23T13:39:37Z</time>
      </trkpt>
      <trkpt lat="42.80911" lon="1.74048">
        <ele>1692.111</ele>
        <time>2021-03-23T13:39:39Z</time>
      </trkpt>
      <trkpt lat="42.80909" lon="1.74048">
        <ele>1691.66</ele>
        <time>2021-03-23T13:39:41Z</time>
      </trkpt>
      <trkpt lat="42.80907" lon="1.74048">
        <ele>1691.238</ele>
        <time>2021-03-23T13:39:43Z</time>
      </trkpt>
      <trkpt lat="42.80906" lon="1.74047">
        <ele>1691.22</ele>
        <time>2021-03-23T13:39:45Z</time>
      </trkpt>
      <trkpt lat="42.80904" lon="1.74048">
        <ele>1690.985</ele>
        <time>2021-03-23T13:39:47Z</time>
      </trkpt>
      <trkpt lat="42.80902" lon="1.74047">
        <ele>1690.874</ele>
        <time>2021-03-23T13:39:49Z</time>
      </trkpt>
      <trkpt lat="42.809" lon="1.74047">
        <ele>1691.179</ele>
        <time>2021-03-23T13:39:51Z</time>
      </trkpt>
      <trkpt lat="42.80899" lon="1.74046">
        <ele>1690.747</ele>
        <time>2021-03-23T13:39:53Z</time>
      </trkpt>
      <trkpt lat="42.80897" lon="1.74046">
        <ele>1690.65</ele>
        <time>2021-03-23T13:39:55Z</time>
      </trkpt>
      <trkpt lat="42.80896" lon="1.74045">
        <ele>1691.066</ele>
        <time>2021-03-23T13:39:57Z</time>
      </trkpt>
      <trkpt lat="42.80894" lon="1.74045">
        <ele>1691.276</ele>
        <time>2021-03-23T13:39:59Z</time>
      </trkpt>
      <trkpt lat="42.80892" lon="1.74044">
        <ele>1690.945</ele>
        <time>2021-03-23T13:40:01Z</time>
      </trkpt>
      <trkpt lat="42.80891" lon="1.74043">
        <ele>1690.341</ele>
        <time>2021-03-23T13:40:03Z</time>
      </trkpt>
      <trkpt lat="42.80889" lon="1.74041">
        <ele>1689.88</ele>
        <time>2021-03-23T13:40:05Z</time>
      </trkpt>
      <trkpt lat="42.80887" lon="1.74041">
        <ele>1689.527</ele>
        <time>2021-03-23T13:40:07Z</time>
      </trkpt>
      <trkpt lat="42.80885" lon="1.74041">
        <ele>1689.536</ele>
        <time>2021-03-23T13:40:09Z</time>
      </trkpt>
      <trkpt lat="42.80883" lon="1.7404">
        <ele>1689.033</ele>
        <time>2021-03-23T13:40:11Z</time>
      </trkpt>
      <trkpt lat="42.80881" lon="1.7404">
        <ele>1688.313</ele>
        <time>2021-03-23T13:40:13Z</time>
      </trkpt>
      <trkpt lat="42.8088" lon="1.74039">
        <ele>1688.009</ele>
        <time>2021-03-23T13:40:15Z</time>
      </trkpt>
      <trkpt lat="42.80878" lon="1.74038">
        <ele>1687.466</ele>
        <time>2021-03-23T13:40:17Z</time>
      </trkpt>
      <trkpt lat="42.80876" lon="1.74037">
        <ele>1686.986</ele>
        <time>2021-03-23T13:40:19Z</time>
      </trkpt>
      <trkpt lat="42.80874" lon="1.74037">
        <ele>1686.939</ele>
        <time>2021-03-23T13:40:21Z</time>
      </trkpt>
      <trkpt lat="42.80873" lon="1.74036">
        <ele>1687.905</ele>
        <time>2021-03-23T13:40:23Z</time>
      </trkpt>
      <trkpt lat="42.80872" lon="1.74035">
        <ele>1687.938</ele>
        <time>2021-03-23T13:40:25Z</time>
      </trkpt>
      <trkpt lat="42.8087" lon="1.74034">
        <ele>1687.678</ele>
        <time>2021-03-23T13:40:27Z</time>
      </trkpt>
      <trkpt lat="42.80868" lon="1.74034">
        <ele>1686.959</ele>
        <time>2021-03-23T13:40:29Z</time>
      </trkpt>
      <trkpt lat="42.80866" lon="1.74033">
        <ele>1686.679</ele>
        <time>2021-03-23T13:40:31Z</time>
      </trkpt>
      <trkpt lat="42.80864" lon="1.74033">
        <ele>1686.103</ele>
        <time>2021-03-23T13:40:33Z</time>
      </trkpt>
      <trkpt lat="42.80862" lon="1.74032">
        <ele>1686.206</ele>
        <time>2021-03-23T13:40:35Z</time>
      </trkpt>
      <trkpt lat="42.8086" lon="1.74031">
        <ele>1685.646</ele>
        <time>2021-03-23T13:40:37Z</time>
      </trkpt>
      <trkpt lat="42.80859" lon="1.7403">
        <ele>1685.542</ele>
        <time>2021-03-23T13:40:39Z</time>
      </trkpt>
      <trkpt lat="42.80857" lon="1.74029">
        <ele>1684.94</ele>
        <time>2021-03-23T13:40:41Z</time>
      </trkpt>
      <trkpt lat="42.80855" lon="1.74028">
        <ele>1684.984</ele>
        <time>2021-03-23T13:40:43Z</time>
      </trkpt>
      <trkpt lat="42.80854" lon="1.74025">
        <ele>1685.679</ele>
        <time>2021-03-23T13:40:45Z</time>
      </trkpt>
      <trkpt lat="42.80853" lon="1.74023">
        <ele>1685.585</ele>
        <time>2021-03-23T13:40:47Z</time>
      </trkpt>
      <trkpt lat="42.80851" lon="1.74021">
        <ele>1686.484</ele>
        <time>2021-03-23T13:40:49Z</time>
      </trkpt>
      <trkpt lat="42.80849" lon="1.74021">
        <ele>1686.43</ele>
        <time>2021-03-23T13:40:51Z</time>
      </trkpt>
      <trkpt lat="42.80848" lon="1.74021">
        <ele>1686.692</ele>
        <time>2021-03-23T13:40:53Z</time>
      </trkpt>
      <trkpt lat="42.80847" lon="1.74022">
        <ele>1686.607</ele>
        <time>2021-03-23T13:40:55Z</time>
      </trkpt>
      <trkpt lat="42.80847" lon="1.74022">
        <ele>1686.599</ele>
        <time>2021-03-23T13:40:57Z</time>
      </trkpt>
      <trkpt lat="42.80847" lon="1.74022">
        <ele>1686.587</ele>
        <time>2021-03-23T13:40:59Z</time>
      </trkpt>
      <trkpt lat="42.80847" lon="1.74022">
        <ele>1686.58</ele>
        <time>2021-03-23T13:41:01Z</time>
      </trkpt>
      <trkpt lat="42.80849" lon="1.74023">
        <ele>1686.449</ele>
        <time>2021-03-23T13:41:03Z</time>
      </trkpt>
      <trkpt lat="42.80851" lon="1.74021">
        <ele>1686.188</ele>
        <time>2021-03-23T13:41:05Z</time>
      </trkpt>
      <trkpt lat="42.80853" lon="1.74022">
        <ele>1686.667</ele>
        <time>2021-03-23T13:41:07Z</time>
      </trkpt>
      <trkpt lat="42.80855" lon="1.74022">
        <ele>1687.484</ele>
        <time>2021-03-23T13:41:09Z</time>
      </trkpt>
      <trkpt lat="42.80856" lon="1.74022">
        <ele>1687.37</ele>
        <time>2021-03-23T13:41:11Z</time>
      </trkpt>
      <trkpt lat="42.80858" lon="1.74022">
        <ele>1686.92</ele>
        <time>2021-03-23T13:41:13Z</time>
      </trkpt>
      <trkpt lat="42.80859" lon="1.74022">
        <ele>1686.651</ele>
        <time>2021-03-23T13:41:15Z</time>
      </trkpt>
      <trkpt lat="42.80859" lon="1.74021">
        <ele>1686.678</ele>
        <time>2021-03-23T13:41:17Z</time>
      </trkpt>
      <trkpt lat="42.80859" lon="1.74021">
        <ele>1686.683</ele>
        <time>2021-03-23T13:41:19Z</time>
      </trkpt>
      <trkpt lat="42.80859" lon="1.74021">
        <ele>1686.688</ele>
        <time>2021-03-23T13:41:21Z</time>
      </trkpt>
      <trkpt lat="42.80859" lon="1.74021">
        <ele>1686.69</ele>
        <time>2021-03-23T13:41:23Z</time>
      </trkpt>
      <trkpt lat="42.80859" lon="1.74021">
        <ele>1686.763</ele>
        <time>2021-03-23T13:41:25Z</time>
      </trkpt>
      <trkpt lat="42.80859" lon="1.74021">
        <ele>1686.525</ele>
        <time>2021-03-23T13:41:27Z</time>
      </trkpt>
      <trkpt lat="42.8086" lon="1.74021">
        <ele>1686.516</ele>
        <time>2021-03-23T13:41:29Z</time>
      </trkpt>
      <trkpt lat="42.80862" lon="1.74021">
        <ele>1686.408</ele>
        <time>2021-03-23T13:41:31Z</time>
      </trkpt>
      <trkpt lat="42.80862" lon="1.74021">
        <ele>1686.4</ele>
        <time>2021-03-23T13:41:33Z</time>
      </trkpt>
      <trkpt lat="42.80862" lon="1.74021">
        <ele>1686.404</ele>
        <time>2021-03-23T13:41:35Z</time>
      </trkpt>
      <trkpt lat="42.80862" lon="1.74021">
        <ele>1686.405</ele>
        <time>2021-03-23T13:41:37Z</time>
      </trkpt>
      <trkpt lat="42.80862" lon="1.74021">
        <ele>1686.399</ele>
        <time>2021-03-23T13:41:39Z</time>
      </trkpt>
      <trkpt lat="42.80862" lon="1.74021">
        <ele>1686.406</ele>
        <time>2021-03-23T13:41:41Z</time>
      </trkpt>
      <trkpt lat="42.80862" lon="1.74021">
        <ele>1686.403</ele>
        <time>2021-03-23T13:41:43Z</time>
      </trkpt>
      <trkpt lat="42.80862" lon="1.74021">
        <ele>1686.4</ele>
        <time>2021-03-23T13:41:45Z</time>
      </trkpt>
      <trkpt lat="42.80862" lon="1.74021">
        <ele>1686.397</ele>
        <time>2021-03-23T13:41:47Z</time>
      </trkpt>
      <trkpt lat="42.80862" lon="1.74021">
        <ele>1686.392</ele>
        <time>2021-03-23T13:41:49Z</time>
      </trkpt>
      <trkpt lat="42.80862" lon="1.7402">
        <ele>1686.192</ele>
        <time>2021-03-23T13:41:51Z</time>
      </trkpt>
      <trkpt lat="42.80861" lon="1.7402">
        <ele>1686.192</ele>
        <time>2021-03-23T13:41:53Z</time>
      </trkpt>
      <trkpt lat="42.80861" lon="1.74021">
        <ele>1686.171</ele>
        <time>2021-03-23T13:41:55Z</time>
      </trkpt>
      <trkpt lat="42.80861" lon="1.74021">
        <ele>1686.166</ele>
        <time>2021-03-23T13:41:57Z</time>
      </trkpt>
      <trkpt lat="42.8086" lon="1.74021">
        <ele>1686.097</ele>
        <time>2021-03-23T13:41:59Z</time>
      </trkpt>
      <trkpt lat="42.8086" lon="1.7402">
        <ele>1685.193</ele>
        <time>2021-03-23T13:42:01Z</time>
      </trkpt>
      <trkpt lat="42.80861" lon="1.7402">
        <ele>1685.212</ele>
        <time>2021-03-23T13:42:03Z</time>
      </trkpt>
      <trkpt lat="42.80861" lon="1.7402">
        <ele>1685.214</ele>
        <time>2021-03-23T13:42:05Z</time>
      </trkpt>
      <trkpt lat="42.80861" lon="1.7402">
        <ele>1685.215</ele>
        <time>2021-03-23T13:42:07Z</time>
      </trkpt>
      <trkpt lat="42.80861" lon="1.7402">
        <ele>1685.219</ele>
        <time>2021-03-23T13:42:09Z</time>
      </trkpt>
      <trkpt lat="42.80861" lon="1.7402">
        <ele>1685.221</ele>
        <time>2021-03-23T13:42:11Z</time>
      </trkpt>
      <trkpt lat="42.8086" lon="1.74019">
        <ele>1684.954</ele>
        <time>2021-03-23T13:42:13Z</time>
      </trkpt>
      <trkpt lat="42.80859" lon="1.74017">
        <ele>1684.562</ele>
        <time>2021-03-23T13:42:15Z</time>
      </trkpt>
      <trkpt lat="42.80858" lon="1.74014">
        <ele>1684.751</ele>
        <time>2021-03-23T13:42:17Z</time>
      </trkpt>
      <trkpt lat="42.80858" lon="1.74011">
        <ele>1684.008</ele>
        <time>2021-03-23T13:42:19Z</time>
      </trkpt>
      <trkpt lat="42.80857" lon="1.74007">
        <ele>1683.275</ele>
        <time>2021-03-23T13:42:21Z</time>
      </trkpt>
      <trkpt lat="42.80856" lon="1.74006">
        <ele>1683.721</ele>
        <time>2021-03-23T13:42:23Z</time>
      </trkpt>
      <trkpt lat="42.80855" lon="1.74002">
        <ele>1683.992</ele>
        <time>2021-03-23T13:42:26Z</time>
      </trkpt>
      <trkpt lat="42.80854" lon="1.73998">
        <ele>1683.799</ele>
        <time>2021-03-23T13:42:28Z</time>
      </trkpt>
      <trkpt lat="42.80852" lon="1.73996">
        <ele>1683.672</ele>
        <time>2021-03-23T13:42:30Z</time>
      </trkpt>
      <trkpt lat="42.80851" lon="1.73994">
        <ele>1683.595</ele>
        <time>2021-03-23T13:42:32Z</time>
      </trkpt>
      <trkpt lat="42.8085" lon="1.73992">
        <ele>1683.385</ele>
        <time>2021-03-23T13:42:34Z</time>
      </trkpt>
      <trkpt lat="42.80848" lon="1.73991">
        <ele>1683.004</ele>
        <time>2021-03-23T13:42:36Z</time>
      </trkpt>
      <trkpt lat="42.80846" lon="1.73989">
        <ele>1682.881</ele>
        <time>2021-03-23T13:42:38Z</time>
      </trkpt>
      <trkpt lat="42.80845" lon="1.73987">
        <ele>1682.608</ele>
        <time>2021-03-23T13:42:40Z</time>
      </trkpt>
      <trkpt lat="42.80843" lon="1.73985">
        <ele>1682.481</ele>
        <time>2021-03-23T13:42:42Z</time>
      </trkpt>
      <trkpt lat="42.80842" lon="1.73984">
        <ele>1681.805</ele>
        <time>2021-03-23T13:42:44Z</time>
      </trkpt>
      <trkpt lat="42.8084" lon="1.73982">
        <ele>1681.576</ele>
        <time>2021-03-23T13:42:46Z</time>
      </trkpt>
      <trkpt lat="42.80839" lon="1.73981">
        <ele>1681.622</ele>
        <time>2021-03-23T13:42:48Z</time>
      </trkpt>
      <trkpt lat="42.80838" lon="1.73979">
        <ele>1682.185</ele>
        <time>2021-03-23T13:42:50Z</time>
      </trkpt>
      <trkpt lat="42.80836" lon="1.73975">
        <ele>1683.809</ele>
        <time>2021-03-23T13:42:52Z</time>
      </trkpt>
      <trkpt lat="42.80835" lon="1.73973">
        <ele>1683.845</ele>
        <time>2021-03-23T13:42:54Z</time>
      </trkpt>
      <trkpt lat="42.80835" lon="1.7397">
        <ele>1683.106</ele>
        <time>2021-03-23T13:42:56Z</time>
      </trkpt>
      <trkpt lat="42.80835" lon="1.73968">
        <ele>1682.801</ele>
        <time>2021-03-23T13:42:58Z</time>
      </trkpt>
      <trkpt lat="42.80834" lon="1.73966">
        <ele>1682.575</ele>
        <time>2021-03-23T13:43:00Z</time>
      </trkpt>
      <trkpt lat="42.80834" lon="1.73964">
        <ele>1681.371</ele>
        <time>2021-03-23T13:43:02Z</time>
      </trkpt>
      <trkpt lat="42.80833" lon="1.73962">
        <ele>1680.439</ele>
        <time>2021-03-23T13:43:04Z</time>
      </trkpt>
      <trkpt lat="42.80833" lon="1.73959">
        <ele>1680.041</ele>
        <time>2021-03-23T13:43:06Z</time>
      </trkpt>
      <trkpt lat="42.80832" lon="1.73957">
        <ele>1679.359</ele>
        <time>2021-03-23T13:43:08Z</time>
      </trkpt>
      <trkpt lat="42.80832" lon="1.73955">
        <ele>1678.469</ele>
        <time>2021-03-23T13:43:10Z</time>
      </trkpt>
      <trkpt lat="42.80831" lon="1.73953">
        <ele>1677.797</ele>
        <time>2021-03-23T13:43:12Z</time>
      </trkpt>
      <trkpt lat="42.80829" lon="1.73952">
        <ele>1678.074</ele>
        <time>2021-03-23T13:43:14Z</time>
      </trkpt>
      <trkpt lat="42.80827" lon="1.7395">
        <ele>1677.84</ele>
        <time>2021-03-23T13:43:16Z</time>
      </trkpt>
      <trkpt lat="42.80825" lon="1.73949">
        <ele>1677.9</ele>
        <time>2021-03-23T13:43:18Z</time>
      </trkpt>
      <trkpt lat="42.80824" lon="1.73948">
        <ele>1677.83</ele>
        <time>2021-03-23T13:43:20Z</time>
      </trkpt>
      <trkpt lat="42.80822" lon="1.73946">
        <ele>1677.067</ele>
        <time>2021-03-23T13:43:22Z</time>
      </trkpt>
      <trkpt lat="42.80821" lon="1.73946">
        <ele>1676.427</ele>
        <time>2021-03-23T13:43:24Z</time>
      </trkpt>
      <trkpt lat="42.80819" lon="1.73946">
        <ele>1676.117</ele>
        <time>2021-03-23T13:43:26Z</time>
      </trkpt>
      <trkpt lat="42.80818" lon="1.73945">
        <ele>1675.339</ele>
        <time>2021-03-23T13:43:28Z</time>
      </trkpt>
      <trkpt lat="42.80817" lon="1.73943">
        <ele>1674.969</ele>
        <time>2021-03-23T13:43:30Z</time>
      </trkpt>
      <trkpt lat="42.80816" lon="1.73942">
        <ele>1674.521</ele>
        <time>2021-03-23T13:43:32Z</time>
      </trkpt>
      <trkpt lat="42.80814" lon="1.7394">
        <ele>1675.104</ele>
        <time>2021-03-23T13:43:34Z</time>
      </trkpt>
      <trkpt lat="42.80813" lon="1.73938">
        <ele>1674.88</ele>
        <time>2021-03-23T13:43:36Z</time>
      </trkpt>
      <trkpt lat="42.80812" lon="1.73936">
        <ele>1674.204</ele>
        <time>2021-03-23T13:43:38Z</time>
      </trkpt>
      <trkpt lat="42.80811" lon="1.73936">
        <ele>1674.385</ele>
        <time>2021-03-23T13:43:40Z</time>
      </trkpt>
      <trkpt lat="42.80809" lon="1.73935">
        <ele>1673.679</ele>
        <time>2021-03-23T13:43:42Z</time>
      </trkpt>
      <trkpt lat="42.80808" lon="1.73935">
        <ele>1673.521</ele>
        <time>2021-03-23T13:43:44Z</time>
      </trkpt>
      <trkpt lat="42.80806" lon="1.73935">
        <ele>1672.967</ele>
        <time>2021-03-23T13:43:46Z</time>
      </trkpt>
      <trkpt lat="42.80804" lon="1.73934">
        <ele>1672.42</ele>
        <time>2021-03-23T13:43:48Z</time>
      </trkpt>
      <trkpt lat="42.80803" lon="1.73932">
        <ele>1671.337</ele>
        <time>2021-03-23T13:43:50Z</time>
      </trkpt>
      <trkpt lat="42.80802" lon="1.73931">
        <ele>1671.204</ele>
        <time>2021-03-23T13:43:52Z</time>
      </trkpt>
      <trkpt lat="42.808" lon="1.73931">
        <ele>1670.607</ele>
        <time>2021-03-23T13:43:54Z</time>
      </trkpt>
      <trkpt lat="42.80799" lon="1.73929">
        <ele>1670.439</ele>
        <time>2021-03-23T13:43:56Z</time>
      </trkpt>
      <trkpt lat="42.80798" lon="1.73928">
        <ele>1670.57</ele>
        <time>2021-03-23T13:43:58Z</time>
      </trkpt>
      <trkpt lat="42.80797" lon="1.73927">
        <ele>1670.544</ele>
        <time>2021-03-23T13:44:00Z</time>
      </trkpt>
      <trkpt lat="42.80796" lon="1.73926">
        <ele>1670.33</ele>
        <time>2021-03-23T13:44:02Z</time>
      </trkpt>
      <trkpt lat="42.80794" lon="1.73924">
        <ele>1671.4</ele>
        <time>2021-03-23T13:44:04Z</time>
      </trkpt>
      <trkpt lat="42.80793" lon="1.73923">
        <ele>1671.318</ele>
        <time>2021-03-23T13:44:06Z</time>
      </trkpt>
      <trkpt lat="42.80792" lon="1.73922">
        <ele>1671.148</ele>
        <time>2021-03-23T13:44:08Z</time>
      </trkpt>
      <trkpt lat="42.80792" lon="1.73921">
        <ele>1670.152</ele>
        <time>2021-03-23T13:44:10Z</time>
      </trkpt>
      <trkpt lat="42.80791" lon="1.7392">
        <ele>1669.907</ele>
        <time>2021-03-23T13:44:12Z</time>
      </trkpt>
      <trkpt lat="42.8079" lon="1.73919">
        <ele>1670.317</ele>
        <time>2021-03-23T13:44:14Z</time>
      </trkpt>
      <trkpt lat="42.80789" lon="1.7392">
        <ele>1670.256</ele>
        <time>2021-03-23T13:44:16Z</time>
      </trkpt>
      <trkpt lat="42.80787" lon="1.73922">
        <ele>1670.171</ele>
        <time>2021-03-23T13:44:18Z</time>
      </trkpt>
      <trkpt lat="42.80786" lon="1.73923">
        <ele>1669.073</ele>
        <time>2021-03-23T13:44:20Z</time>
      </trkpt>
      <trkpt lat="42.80785" lon="1.73922">
        <ele>1668.738</ele>
        <time>2021-03-23T13:44:22Z</time>
      </trkpt>
      <trkpt lat="42.80784" lon="1.73922">
        <ele>1668.524</ele>
        <time>2021-03-23T13:44:24Z</time>
      </trkpt>
      <trkpt lat="42.80782" lon="1.73922">
        <ele>1667.701</ele>
        <time>2021-03-23T13:44:26Z</time>
      </trkpt>
      <trkpt lat="42.8078" lon="1.73921">
        <ele>1668.031</ele>
        <time>2021-03-23T13:44:28Z</time>
      </trkpt>
      <trkpt lat="42.80779" lon="1.7392">
        <ele>1666.977</ele>
        <time>2021-03-23T13:44:30Z</time>
      </trkpt>
      <trkpt lat="42.80778" lon="1.7392">
        <ele>1666.38</ele>
        <time>2021-03-23T13:44:32Z</time>
      </trkpt>
      <trkpt lat="42.80777" lon="1.73919">
        <ele>1665.656</ele>
        <time>2021-03-23T13:44:34Z</time>
      </trkpt>
      <trkpt lat="42.80777" lon="1.73918">
        <ele>1664.448</ele>
        <time>2021-03-23T13:44:36Z</time>
      </trkpt>
      <trkpt lat="42.80777" lon="1.73916">
        <ele>1664.754</ele>
        <time>2021-03-23T13:44:38Z</time>
      </trkpt>
      <trkpt lat="42.80777" lon="1.73916">
        <ele>1664.75</ele>
        <time>2021-03-23T13:44:40Z</time>
      </trkpt>
      <trkpt lat="42.80777" lon="1.73914">
        <ele>1663.447</ele>
        <time>2021-03-23T13:44:42Z</time>
      </trkpt>
      <trkpt lat="42.80778" lon="1.73912">
        <ele>1662.298</ele>
        <time>2021-03-23T13:44:44Z</time>
      </trkpt>
      <trkpt lat="42.80778" lon="1.7391">
        <ele>1661.906</ele>
        <time>2021-03-23T13:44:46Z</time>
      </trkpt>
      <trkpt lat="42.80776" lon="1.73909">
        <ele>1661.145</ele>
        <time>2021-03-23T13:44:48Z</time>
      </trkpt>
      <trkpt lat="42.80775" lon="1.73908">
        <ele>1660.929</ele>
        <time>2021-03-23T13:44:50Z</time>
      </trkpt>
      <trkpt lat="42.80774" lon="1.73909">
        <ele>1660.147</ele>
        <time>2021-03-23T13:44:52Z</time>
      </trkpt>
      <trkpt lat="42.80773" lon="1.73908">
        <ele>1660.313</ele>
        <time>2021-03-23T13:44:54Z</time>
      </trkpt>
      <trkpt lat="42.80773" lon="1.73907">
        <ele>1660.839</ele>
        <time>2021-03-23T13:44:56Z</time>
      </trkpt>
      <trkpt lat="42.80772" lon="1.73907">
        <ele>1660.228</ele>
        <time>2021-03-23T13:44:58Z</time>
      </trkpt>
      <trkpt lat="42.80772" lon="1.73904">
        <ele>1659.849</ele>
        <time>2021-03-23T13:45:00Z</time>
      </trkpt>
      <trkpt lat="42.80772" lon="1.73902">
        <ele>1659.995</ele>
        <time>2021-03-23T13:45:02Z</time>
      </trkpt>
      <trkpt lat="42.80772" lon="1.73901">
        <ele>1661.106</ele>
        <time>2021-03-23T13:45:04Z</time>
      </trkpt>
      <trkpt lat="42.80772" lon="1.73901">
        <ele>1661.636</ele>
        <time>2021-03-23T13:45:06Z</time>
      </trkpt>
      <trkpt lat="42.80772" lon="1.73901">
        <ele>1661.633</ele>
        <time>2021-03-23T13:45:08Z</time>
      </trkpt>
      <trkpt lat="42.80772" lon="1.73901">
        <ele>1661.622</ele>
        <time>2021-03-23T13:45:10Z</time>
      </trkpt>
      <trkpt lat="42.80771" lon="1.73901">
        <ele>1660.16</ele>
        <time>2021-03-23T13:45:12Z</time>
      </trkpt>
      <trkpt lat="42.8077" lon="1.73901">
        <ele>1659.406</ele>
        <time>2021-03-23T13:45:14Z</time>
      </trkpt>
      <trkpt lat="42.80768" lon="1.73902">
        <ele>1659.183</ele>
        <time>2021-03-23T13:45:16Z</time>
      </trkpt>
      <trkpt lat="42.80767" lon="1.73901">
        <ele>1657.967</ele>
        <time>2021-03-23T13:45:18Z</time>
      </trkpt>
      <trkpt lat="42.80767" lon="1.73899">
        <ele>1656.583</ele>
        <time>2021-03-23T13:45:20Z</time>
      </trkpt>
      <trkpt lat="42.80767" lon="1.73897">
        <ele>1656.216</ele>
        <time>2021-03-23T13:45:22Z</time>
      </trkpt>
      <trkpt lat="42.80766" lon="1.73896">
        <ele>1655.491</ele>
        <time>2021-03-23T13:45:24Z</time>
      </trkpt>
      <trkpt lat="42.80766" lon="1.73895">
        <ele>1654.469</ele>
        <time>2021-03-23T13:45:26Z</time>
      </trkpt>
      <trkpt lat="42.80764" lon="1.73895">
        <ele>1653.931</ele>
        <time>2021-03-23T13:45:28Z</time>
      </trkpt>
      <trkpt lat="42.80763" lon="1.73896">
        <ele>1653.881</ele>
        <time>2021-03-23T13:45:30Z</time>
      </trkpt>
      <trkpt lat="42.80761" lon="1.73896">
        <ele>1655.852</ele>
        <time>2021-03-23T13:45:32Z</time>
      </trkpt>
      <trkpt lat="42.8076" lon="1.73896">
        <ele>1655</ele>
        <time>2021-03-23T13:45:34Z</time>
      </trkpt>
      <trkpt lat="42.80759" lon="1.73894">
        <ele>1655.121</ele>
        <time>2021-03-23T13:45:36Z</time>
      </trkpt>
      <trkpt lat="42.80759" lon="1.73894">
        <ele>1654.83</ele>
        <time>2021-03-23T13:45:38Z</time>
      </trkpt>
      <trkpt lat="42.80759" lon="1.73894">
        <ele>1654.439</ele>
        <time>2021-03-23T13:45:40Z</time>
      </trkpt>
      <trkpt lat="42.80759" lon="1.73893">
        <ele>1653.932</ele>
        <time>2021-03-23T13:45:42Z</time>
      </trkpt>
      <trkpt lat="42.80758" lon="1.73891">
        <ele>1653.18</ele>
        <time>2021-03-23T13:45:44Z</time>
      </trkpt>
      <trkpt lat="42.80757" lon="1.73891">
        <ele>1652.774</ele>
        <time>2021-03-23T13:45:46Z</time>
      </trkpt>
      <trkpt lat="42.80756" lon="1.73889">
        <ele>1651.978</ele>
        <time>2021-03-23T13:45:48Z</time>
      </trkpt>
      <trkpt lat="42.80755" lon="1.73888">
        <ele>1651.774</ele>
        <time>2021-03-23T13:45:50Z</time>
      </trkpt>
      <trkpt lat="42.80755" lon="1.73887">
        <ele>1651.196</ele>
        <time>2021-03-23T13:45:52Z</time>
      </trkpt>
      <trkpt lat="42.80753" lon="1.73887">
        <ele>1650.524</ele>
        <time>2021-03-23T13:45:54Z</time>
      </trkpt>
      <trkpt lat="42.80753" lon="1.73886">
        <ele>1649.174</ele>
        <time>2021-03-23T13:45:56Z</time>
      </trkpt>
      <trkpt lat="42.80753" lon="1.73884">
        <ele>1647.893</ele>
        <time>2021-03-23T13:45:58Z</time>
      </trkpt>
      <trkpt lat="42.80752" lon="1.73883">
        <ele>1647.608</ele>
        <time>2021-03-23T13:46:00Z</time>
      </trkpt>
      <trkpt lat="42.80751" lon="1.73883">
        <ele>1647.217</ele>
        <time>2021-03-23T13:46:02Z</time>
      </trkpt>
      <trkpt lat="42.8075" lon="1.73883">
        <ele>1646.069</ele>
        <time>2021-03-23T13:46:04Z</time>
      </trkpt>
      <trkpt lat="42.80749" lon="1.73882">
        <ele>1646.394</ele>
        <time>2021-03-23T13:46:06Z</time>
      </trkpt>
      <trkpt lat="42.80749" lon="1.73881">
        <ele>1645.465</ele>
        <time>2021-03-23T13:46:08Z</time>
      </trkpt>
      <trkpt lat="42.80748" lon="1.7388">
        <ele>1645.382</ele>
        <time>2021-03-23T13:46:10Z</time>
      </trkpt>
      <trkpt lat="42.80747" lon="1.73879">
        <ele>1644.697</ele>
        <time>2021-03-23T13:46:12Z</time>
      </trkpt>
      <trkpt lat="42.80746" lon="1.73877">
        <ele>1643.735</ele>
        <time>2021-03-23T13:46:14Z</time>
      </trkpt>
      <trkpt lat="42.80745" lon="1.73876">
        <ele>1643.302</ele>
        <time>2021-03-23T13:46:16Z</time>
      </trkpt>
      <trkpt lat="42.80745" lon="1.73874">
        <ele>1642.344</ele>
        <time>2021-03-23T13:46:18Z</time>
      </trkpt>
      <trkpt lat="42.80746" lon="1.73872">
        <ele>1640.744</ele>
        <time>2021-03-23T13:46:20Z</time>
      </trkpt>
      <trkpt lat="42.80746" lon="1.7387">
        <ele>1640.919</ele>
        <time>2021-03-23T13:46:22Z</time>
      </trkpt>
      <trkpt lat="42.80746" lon="1.73869">
        <ele>1640.735</ele>
        <time>2021-03-23T13:46:24Z</time>
      </trkpt>
      <trkpt lat="42.80744" lon="1.73869">
        <ele>1641.309</ele>
        <time>2021-03-23T13:46:26Z</time>
      </trkpt>
      <trkpt lat="42.80744" lon="1.73868">
        <ele>1640.076</ele>
        <time>2021-03-23T13:46:28Z</time>
      </trkpt>
      <trkpt lat="42.80743" lon="1.73866">
        <ele>1639.979</ele>
        <time>2021-03-23T13:46:30Z</time>
      </trkpt>
      <trkpt lat="42.80742" lon="1.73865">
        <ele>1639.532</ele>
        <time>2021-03-23T13:46:32Z</time>
      </trkpt>
      <trkpt lat="42.80741" lon="1.73864">
        <ele>1637.742</ele>
        <time>2021-03-23T13:46:34Z</time>
      </trkpt>
      <trkpt lat="42.80741" lon="1.73863">
        <ele>1637.589</ele>
        <time>2021-03-23T13:46:36Z</time>
      </trkpt>
      <trkpt lat="42.80741" lon="1.73863">
        <ele>1636.75</ele>
        <time>2021-03-23T13:46:38Z</time>
      </trkpt>
      <trkpt lat="42.8074" lon="1.73862">
        <ele>1636.187</ele>
        <time>2021-03-23T13:46:40Z</time>
      </trkpt>
      <trkpt lat="42.80739" lon="1.7386">
        <ele>1635.766</ele>
        <time>2021-03-23T13:46:42Z</time>
      </trkpt>
      <trkpt lat="42.80739" lon="1.73858">
        <ele>1635.29</ele>
        <time>2021-03-23T13:46:44Z</time>
      </trkpt>
      <trkpt lat="42.80738" lon="1.73856">
        <ele>1634.924</ele>
        <time>2021-03-23T13:46:46Z</time>
      </trkpt>
      <trkpt lat="42.80736" lon="1.73854">
        <ele>1634.545</ele>
        <time>2021-03-23T13:46:48Z</time>
      </trkpt>
      <trkpt lat="42.80735" lon="1.73852">
        <ele>1633.688</ele>
        <time>2021-03-23T13:46:50Z</time>
      </trkpt>
      <trkpt lat="42.80735" lon="1.7385">
        <ele>1632.759</ele>
        <time>2021-03-23T13:46:52Z</time>
      </trkpt>
      <trkpt lat="42.80735" lon="1.73848">
        <ele>1631.624</ele>
        <time>2021-03-23T13:46:54Z</time>
      </trkpt>
      <trkpt lat="42.80735" lon="1.73846">
        <ele>1631.579</ele>
        <time>2021-03-23T13:46:56Z</time>
      </trkpt>
      <trkpt lat="42.80734" lon="1.73844">
        <ele>1631.895</ele>
        <time>2021-03-23T13:46:58Z</time>
      </trkpt>
      <trkpt lat="42.80733" lon="1.73843">
        <ele>1630.509</ele>
        <time>2021-03-23T13:47:00Z</time>
      </trkpt>
      <trkpt lat="42.80732" lon="1.73842">
        <ele>1630.262</ele>
        <time>2021-03-23T13:47:02Z</time>
      </trkpt>
      <trkpt lat="42.80732" lon="1.73841">
        <ele>1629.434</ele>
        <time>2021-03-23T13:47:04Z</time>
      </trkpt>
      <trkpt lat="42.80731" lon="1.7384">
        <ele>1628.911</ele>
        <time>2021-03-23T13:47:06Z</time>
      </trkpt>
      <trkpt lat="42.8073" lon="1.7384">
        <ele>1628.387</ele>
        <time>2021-03-23T13:47:08Z</time>
      </trkpt>
      <trkpt lat="42.80729" lon="1.73838">
        <ele>1628.977</ele>
        <time>2021-03-23T13:47:10Z</time>
      </trkpt>
      <trkpt lat="42.80729" lon="1.73836">
        <ele>1628.447</ele>
        <time>2021-03-23T13:47:12Z</time>
      </trkpt>
      <trkpt lat="42.80728" lon="1.73834">
        <ele>1627.961</ele>
        <time>2021-03-23T13:47:14Z</time>
      </trkpt>
      <trkpt lat="42.80728" lon="1.73832">
        <ele>1627.468</ele>
        <time>2021-03-23T13:47:16Z</time>
      </trkpt>
      <trkpt lat="42.80727" lon="1.7383">
        <ele>1626.173</ele>
        <time>2021-03-23T13:47:18Z</time>
      </trkpt>
      <trkpt lat="42.80727" lon="1.73829">
        <ele>1625.466</ele>
        <time>2021-03-23T13:47:19Z</time>
      </trkpt>
      <trkpt lat="42.80726" lon="1.73827">
        <ele>1624.795</ele>
        <time>2021-03-23T13:47:21Z</time>
      </trkpt>
      <trkpt lat="42.80724" lon="1.73825">
        <ele>1623.795</ele>
        <time>2021-03-23T13:47:24Z</time>
      </trkpt>
      <trkpt lat="42.80723" lon="1.73823">
        <ele>1623.204</ele>
        <time>2021-03-23T13:47:26Z</time>
      </trkpt>
      <trkpt lat="42.80722" lon="1.73821">
        <ele>1623.057</ele>
        <time>2021-03-23T13:47:28Z</time>
      </trkpt>
      <trkpt lat="42.8072" lon="1.73821">
        <ele>1623.118</ele>
        <time>2021-03-23T13:47:30Z</time>
      </trkpt>
      <trkpt lat="42.80719" lon="1.73823">
        <ele>1623.249</ele>
        <time>2021-03-23T13:47:32Z</time>
      </trkpt>
      <trkpt lat="42.80717" lon="1.73824">
        <ele>1621.957</ele>
        <time>2021-03-23T13:47:34Z</time>
      </trkpt>
      <trkpt lat="42.80715" lon="1.73823">
        <ele>1620.806</ele>
        <time>2021-03-23T13:47:36Z</time>
      </trkpt>
      <trkpt lat="42.80714" lon="1.73821">
        <ele>1620.628</ele>
        <time>2021-03-23T13:47:38Z</time>
      </trkpt>
      <trkpt lat="42.80713" lon="1.73819">
        <ele>1620.09</ele>
        <time>2021-03-23T13:47:40Z</time>
      </trkpt>
      <trkpt lat="42.80712" lon="1.73818">
        <ele>1619.696</ele>
        <time>2021-03-23T13:47:42Z</time>
      </trkpt>
      <trkpt lat="42.8071" lon="1.73816">
        <ele>1619.501</ele>
        <time>2021-03-23T13:47:44Z</time>
      </trkpt>
      <trkpt lat="42.80708" lon="1.73813">
        <ele>1619.489</ele>
        <time>2021-03-23T13:47:46Z</time>
      </trkpt>
      <trkpt lat="42.80706" lon="1.73812">
        <ele>1619.283</ele>
        <time>2021-03-23T13:47:48Z</time>
      </trkpt>
      <trkpt lat="42.80704" lon="1.73814">
        <ele>1618.687</ele>
        <time>2021-03-23T13:47:50Z</time>
      </trkpt>
      <trkpt lat="42.80702" lon="1.73814">
        <ele>1619</ele>
        <time>2021-03-23T13:47:52Z</time>
      </trkpt>
      <trkpt lat="42.80701" lon="1.73813">
        <ele>1618.938</ele>
        <time>2021-03-23T13:47:54Z</time>
      </trkpt>
      <trkpt lat="42.80699" lon="1.73814">
        <ele>1618.51</ele>
        <time>2021-03-23T13:47:56Z</time>
      </trkpt>
      <trkpt lat="42.80696" lon="1.73814">
        <ele>1618.233</ele>
        <time>2021-03-23T13:47:58Z</time>
      </trkpt>
      <trkpt lat="42.80694" lon="1.73815">
        <ele>1618.025</ele>
        <time>2021-03-23T13:48:00Z</time>
      </trkpt>
      <trkpt lat="42.80693" lon="1.73816">
        <ele>1617.808</ele>
        <time>2021-03-23T13:48:02Z</time>
      </trkpt>
      <trkpt lat="42.80691" lon="1.73818">
        <ele>1617.452</ele>
        <time>2021-03-23T13:48:04Z</time>
      </trkpt>
      <trkpt lat="42.8069" lon="1.73818">
        <ele>1617.017</ele>
        <time>2021-03-23T13:48:06Z</time>
      </trkpt>
      <trkpt lat="42.80688" lon="1.73816">
        <ele>1616.243</ele>
        <time>2021-03-23T13:48:08Z</time>
      </trkpt>
      <trkpt lat="42.80687" lon="1.73814">
        <ele>1615.888</ele>
        <time>2021-03-23T13:48:10Z</time>
      </trkpt>
      <trkpt lat="42.80686" lon="1.73813">
        <ele>1614.632</ele>
        <time>2021-03-23T13:48:12Z</time>
      </trkpt>
      <trkpt lat="42.80684" lon="1.73813">
        <ele>1614.025</ele>
        <time>2021-03-23T13:48:14Z</time>
      </trkpt>
      <trkpt lat="42.80683" lon="1.73814">
        <ele>1614.685</ele>
        <time>2021-03-23T13:48:16Z</time>
      </trkpt>
      <trkpt lat="42.80681" lon="1.73815">
        <ele>1614.821</ele>
        <time>2021-03-23T13:48:18Z</time>
      </trkpt>
      <trkpt lat="42.8068" lon="1.73815">
        <ele>1613.63</ele>
        <time>2021-03-23T13:48:20Z</time>
      </trkpt>
      <trkpt lat="42.80679" lon="1.73815">
        <ele>1612.937</ele>
        <time>2021-03-23T13:48:22Z</time>
      </trkpt>
      <trkpt lat="42.80677" lon="1.73815">
        <ele>1612.141</ele>
        <time>2021-03-23T13:48:24Z</time>
      </trkpt>
      <trkpt lat="42.80676" lon="1.73814">
        <ele>1611.264</ele>
        <time>2021-03-23T13:48:26Z</time>
      </trkpt>
      <trkpt lat="42.80675" lon="1.73812">
        <ele>1610.691</ele>
        <time>2021-03-23T13:48:28Z</time>
      </trkpt>
      <trkpt lat="42.80675" lon="1.7381">
        <ele>1610.029</ele>
        <time>2021-03-23T13:48:30Z</time>
      </trkpt>
      <trkpt lat="42.80673" lon="1.73809">
        <ele>1610.257</ele>
        <time>2021-03-23T13:48:32Z</time>
      </trkpt>
      <trkpt lat="42.80672" lon="1.7381">
        <ele>1609.567</ele>
        <time>2021-03-23T13:48:34Z</time>
      </trkpt>
      <trkpt lat="42.80671" lon="1.7381">
        <ele>1609.152</ele>
        <time>2021-03-23T13:48:36Z</time>
      </trkpt>
      <trkpt lat="42.8067" lon="1.73809">
        <ele>1608.081</ele>
        <time>2021-03-23T13:48:38Z</time>
      </trkpt>
      <trkpt lat="42.80669" lon="1.73808">
        <ele>1607.176</ele>
        <time>2021-03-23T13:48:40Z</time>
      </trkpt>
      <trkpt lat="42.80669" lon="1.73806">
        <ele>1606.98</ele>
        <time>2021-03-23T13:48:42Z</time>
      </trkpt>
      <trkpt lat="42.8067" lon="1.73803">
        <ele>1605.571</ele>
        <time>2021-03-23T13:48:44Z</time>
      </trkpt>
      <trkpt lat="42.80669" lon="1.73801">
        <ele>1604.508</ele>
        <time>2021-03-23T13:48:46Z</time>
      </trkpt>
      <trkpt lat="42.80668" lon="1.73801">
        <ele>1602.719</ele>
        <time>2021-03-23T13:48:48Z</time>
      </trkpt>
      <trkpt lat="42.80667" lon="1.73801">
        <ele>1602.452</ele>
        <time>2021-03-23T13:48:50Z</time>
      </trkpt>
      <trkpt lat="42.80667" lon="1.738">
        <ele>1602.277</ele>
        <time>2021-03-23T13:48:52Z</time>
      </trkpt>
      <trkpt lat="42.80666" lon="1.73798">
        <ele>1601.772</ele>
        <time>2021-03-23T13:48:54Z</time>
      </trkpt>
      <trkpt lat="42.80665" lon="1.73796">
        <ele>1600.604</ele>
        <time>2021-03-23T13:48:56Z</time>
      </trkpt>
      <trkpt lat="42.80665" lon="1.73794">
        <ele>1598.244</ele>
        <time>2021-03-23T13:48:58Z</time>
      </trkpt>
      <trkpt lat="42.80664" lon="1.73791">
        <ele>1597.585</ele>
        <time>2021-03-23T13:49:00Z</time>
      </trkpt>
      <trkpt lat="42.80662" lon="1.73791">
        <ele>1596.34</ele>
        <time>2021-03-23T13:49:02Z</time>
      </trkpt>
      <trkpt lat="42.80659" lon="1.73791">
        <ele>1596.222</ele>
        <time>2021-03-23T13:49:04Z</time>
      </trkpt>
      <trkpt lat="42.80658" lon="1.73789">
        <ele>1597.022</ele>
        <time>2021-03-23T13:49:06Z</time>
      </trkpt>
      <trkpt lat="42.80656" lon="1.73788">
        <ele>1596.492</ele>
        <time>2021-03-23T13:49:08Z</time>
      </trkpt>
      <trkpt lat="42.80655" lon="1.73787">
        <ele>1595.858</ele>
        <time>2021-03-23T13:49:10Z</time>
      </trkpt>
      <trkpt lat="42.80655" lon="1.73785">
        <ele>1594.941</ele>
        <time>2021-03-23T13:49:12Z</time>
      </trkpt>
      <trkpt lat="42.80655" lon="1.73783">
        <ele>1594.592</ele>
        <time>2021-03-23T13:49:14Z</time>
      </trkpt>
      <trkpt lat="42.80654" lon="1.73781">
        <ele>1594.148</ele>
        <time>2021-03-23T13:49:16Z</time>
      </trkpt>
      <trkpt lat="42.80652" lon="1.7378">
        <ele>1595.938</ele>
        <time>2021-03-23T13:49:18Z</time>
      </trkpt>
      <trkpt lat="42.80651" lon="1.73778">
        <ele>1594.568</ele>
        <time>2021-03-23T13:49:20Z</time>
      </trkpt>
      <trkpt lat="42.80652" lon="1.73776">
        <ele>1594.878</ele>
        <time>2021-03-23T13:49:22Z</time>
      </trkpt>
      <trkpt lat="42.80652" lon="1.73774">
        <ele>1593.955</ele>
        <time>2021-03-23T13:49:24Z</time>
      </trkpt>
      <trkpt lat="42.80651" lon="1.73772">
        <ele>1592.44</ele>
        <time>2021-03-23T13:49:26Z</time>
      </trkpt>
      <trkpt lat="42.8065" lon="1.73769">
        <ele>1591.53</ele>
        <time>2021-03-23T13:49:28Z</time>
      </trkpt>
      <trkpt lat="42.80648" lon="1.73767">
        <ele>1591.453</ele>
        <time>2021-03-23T13:49:30Z</time>
      </trkpt>
      <trkpt lat="42.80646" lon="1.73767">
        <ele>1589.519</ele>
        <time>2021-03-23T13:49:32Z</time>
      </trkpt>
      <trkpt lat="42.80644" lon="1.73765">
        <ele>1588.927</ele>
        <time>2021-03-23T13:49:34Z</time>
      </trkpt>
      <trkpt lat="42.80642" lon="1.73765">
        <ele>1588.96</ele>
        <time>2021-03-23T13:49:36Z</time>
      </trkpt>
      <trkpt lat="42.8064" lon="1.73765">
        <ele>1588.268</ele>
        <time>2021-03-23T13:49:38Z</time>
      </trkpt>
      <trkpt lat="42.80638" lon="1.73765">
        <ele>1587.464</ele>
        <time>2021-03-23T13:49:40Z</time>
      </trkpt>
      <trkpt lat="42.80636" lon="1.73765">
        <ele>1586.992</ele>
        <time>2021-03-23T13:49:42Z</time>
      </trkpt>
      <trkpt lat="42.80634" lon="1.73765">
        <ele>1586.816</ele>
        <time>2021-03-23T13:49:44Z</time>
      </trkpt>
      <trkpt lat="42.80632" lon="1.73765">
        <ele>1586.866</ele>
        <time>2021-03-23T13:49:46Z</time>
      </trkpt>
      <trkpt lat="42.8063" lon="1.73765">
        <ele>1585.917</ele>
        <time>2021-03-23T13:49:48Z</time>
      </trkpt>
      <trkpt lat="42.80628" lon="1.73765">
        <ele>1585.444</ele>
        <time>2021-03-23T13:49:50Z</time>
      </trkpt>
      <trkpt lat="42.80628" lon="1.73765">
        <ele>1585.261</ele>
        <time>2021-03-23T13:49:52Z</time>
      </trkpt>
      <trkpt lat="42.80628" lon="1.73764">
        <ele>1585.257</ele>
        <time>2021-03-23T13:49:54Z</time>
      </trkpt>
      <trkpt lat="42.80626" lon="1.73764">
        <ele>1585.085</ele>
        <time>2021-03-23T13:49:56Z</time>
      </trkpt>
      <trkpt lat="42.80625" lon="1.73764">
        <ele>1584.401</ele>
        <time>2021-03-23T13:49:58Z</time>
      </trkpt>
      <trkpt lat="42.80624" lon="1.73763">
        <ele>1583.806</ele>
        <time>2021-03-23T13:50:00Z</time>
      </trkpt>
      <trkpt lat="42.80622" lon="1.73761">
        <ele>1583.439</ele>
        <time>2021-03-23T13:50:02Z</time>
      </trkpt>
      <trkpt lat="42.8062" lon="1.7376">
        <ele>1582.291</ele>
        <time>2021-03-23T13:50:04Z</time>
      </trkpt>
      <trkpt lat="42.80618" lon="1.73758">
        <ele>1581.548</ele>
        <time>2021-03-23T13:50:06Z</time>
      </trkpt>
      <trkpt lat="42.80617" lon="1.73758">
        <ele>1580.177</ele>
        <time>2021-03-23T13:50:08Z</time>
      </trkpt>
      <trkpt lat="42.80615" lon="1.73759">
        <ele>1580.141</ele>
        <time>2021-03-23T13:50:10Z</time>
      </trkpt>
      <trkpt lat="42.80613" lon="1.73759">
        <ele>1579.371</ele>
        <time>2021-03-23T13:50:12Z</time>
      </trkpt>
      <trkpt lat="42.80613" lon="1.73759">
        <ele>1579.021</ele>
        <time>2021-03-23T13:50:14Z</time>
      </trkpt>
      <trkpt lat="42.80614" lon="1.73759">
        <ele>1579.019</ele>
        <time>2021-03-23T13:50:16Z</time>
      </trkpt>
      <trkpt lat="42.80614" lon="1.73759">
        <ele>1579.014</ele>
        <time>2021-03-23T13:50:18Z</time>
      </trkpt>
      <trkpt lat="42.80613" lon="1.73759">
        <ele>1579.258</ele>
        <time>2021-03-23T13:50:20Z</time>
      </trkpt>
      <trkpt lat="42.80613" lon="1.73759">
        <ele>1579.487</ele>
        <time>2021-03-23T13:50:22Z</time>
      </trkpt>
      <trkpt lat="42.80613" lon="1.7376">
        <ele>1579.49</ele>
        <time>2021-03-23T13:50:24Z</time>
      </trkpt>
      <trkpt lat="42.80613" lon="1.7376">
        <ele>1579.484</ele>
        <time>2021-03-23T13:50:26Z</time>
      </trkpt>
      <trkpt lat="42.80613" lon="1.7376">
        <ele>1579.481</ele>
        <time>2021-03-23T13:50:28Z</time>
      </trkpt>
      <trkpt lat="42.80613" lon="1.7376">
        <ele>1579.481</ele>
        <time>2021-03-23T13:50:30Z</time>
      </trkpt>
      <trkpt lat="42.80613" lon="1.7376">
        <ele>1579.47</ele>
        <time>2021-03-23T13:50:32Z</time>
      </trkpt>
      <trkpt lat="42.80613" lon="1.7376">
        <ele>1579.466</ele>
        <time>2021-03-23T13:50:34Z</time>
      </trkpt>
      <trkpt lat="42.80613" lon="1.7376">
        <ele>1579.467</ele>
        <time>2021-03-23T13:50:36Z</time>
      </trkpt>
      <trkpt lat="42.80613" lon="1.7376">
        <ele>1579.466</ele>
        <time>2021-03-23T13:50:38Z</time>
      </trkpt>
      <trkpt lat="42.80613" lon="1.7376">
        <ele>1579.399</ele>
        <time>2021-03-23T13:50:40Z</time>
      </trkpt>
      <trkpt lat="42.80612" lon="1.73759">
        <ele>1578.346</ele>
        <time>2021-03-23T13:50:42Z</time>
      </trkpt>
      <trkpt lat="42.8061" lon="1.73759">
        <ele>1577.411</ele>
        <time>2021-03-23T13:50:44Z</time>
      </trkpt>
      <trkpt lat="42.80608" lon="1.73759">
        <ele>1576.069</ele>
        <time>2021-03-23T13:50:46Z</time>
      </trkpt>
      <trkpt lat="42.80606" lon="1.73761">
        <ele>1576.164</ele>
        <time>2021-03-23T13:50:48Z</time>
      </trkpt>
      <trkpt lat="42.80608" lon="1.7376">
        <ele>1574.273</ele>
        <time>2021-03-23T13:50:50Z</time>
      </trkpt>
      <trkpt lat="42.80609" lon="1.7376">
        <ele>1574.276</ele>
        <time>2021-03-23T13:50:52Z</time>
      </trkpt>
      <trkpt lat="42.80608" lon="1.7376">
        <ele>1574.193</ele>
        <time>2021-03-23T13:50:54Z</time>
      </trkpt>
      <trkpt lat="42.80607" lon="1.7376">
        <ele>1574.032</ele>
        <time>2021-03-23T13:50:56Z</time>
      </trkpt>
      <trkpt lat="42.80605" lon="1.73762">
        <ele>1573.698</ele>
        <time>2021-03-23T13:50:58Z</time>
      </trkpt>
      <trkpt lat="42.80603" lon="1.73761">
        <ele>1572.957</ele>
        <time>2021-03-23T13:51:00Z</time>
      </trkpt>
      <trkpt lat="42.806" lon="1.73764">
        <ele>1571.865</ele>
        <time>2021-03-23T13:51:02Z</time>
      </trkpt>
      <trkpt lat="42.80597" lon="1.73763">
        <ele>1570.724</ele>
        <time>2021-03-23T13:51:04Z</time>
      </trkpt>
      <trkpt lat="42.80595" lon="1.73764">
        <ele>1569.922</ele>
        <time>2021-03-23T13:51:06Z</time>
      </trkpt>
      <trkpt lat="42.80594" lon="1.73763">
        <ele>1568.75</ele>
        <time>2021-03-23T13:51:08Z</time>
      </trkpt>
      <trkpt lat="42.80592" lon="1.73763">
        <ele>1568.355</ele>
        <time>2021-03-23T13:51:10Z</time>
      </trkpt>
      <trkpt lat="42.8059" lon="1.73764">
        <ele>1567.534</ele>
        <time>2021-03-23T13:51:12Z</time>
      </trkpt>
      <trkpt lat="42.80589" lon="1.73765">
        <ele>1566.579</ele>
        <time>2021-03-23T13:51:14Z</time>
      </trkpt>
      <trkpt lat="42.80587" lon="1.73767">
        <ele>1565.847</ele>
        <time>2021-03-23T13:51:16Z</time>
      </trkpt>
      <trkpt lat="42.80585" lon="1.73768">
        <ele>1565.508</ele>
        <time>2021-03-23T13:51:18Z</time>
      </trkpt>
      <trkpt lat="42.80584" lon="1.7377">
        <ele>1565.176</ele>
        <time>2021-03-23T13:51:20Z</time>
      </trkpt>
      <trkpt lat="42.80582" lon="1.73772">
        <ele>1564.238</ele>
        <time>2021-03-23T13:51:22Z</time>
      </trkpt>
      <trkpt lat="42.80581" lon="1.73774">
        <ele>1563.307</ele>
        <time>2021-03-23T13:51:24Z</time>
      </trkpt>
      <trkpt lat="42.8058" lon="1.73774">
        <ele>1563.55</ele>
        <time>2021-03-23T13:51:26Z</time>
      </trkpt>
      <trkpt lat="42.80579" lon="1.73775">
        <ele>1564.096</ele>
        <time>2021-03-23T13:51:28Z</time>
      </trkpt>
      <trkpt lat="42.80578" lon="1.73778">
        <ele>1563.239</ele>
        <time>2021-03-23T13:51:30Z</time>
      </trkpt>
      <trkpt lat="42.80577" lon="1.7378">
        <ele>1562.508</ele>
        <time>2021-03-23T13:51:32Z</time>
      </trkpt>
      <trkpt lat="42.80576" lon="1.73783">
        <ele>1562.611</ele>
        <time>2021-03-23T13:51:34Z</time>
      </trkpt>
      <trkpt lat="42.80574" lon="1.73786">
        <ele>1561.732</ele>
        <time>2021-03-23T13:51:36Z</time>
      </trkpt>
      <trkpt lat="42.80572" lon="1.73787">
        <ele>1561.053</ele>
        <time>2021-03-23T13:51:38Z</time>
      </trkpt>
      <trkpt lat="42.8057" lon="1.73788">
        <ele>1559.689</ele>
        <time>2021-03-23T13:51:40Z</time>
      </trkpt>
      <trkpt lat="42.80568" lon="1.73788">
        <ele>1558.961</ele>
        <time>2021-03-23T13:51:42Z</time>
      </trkpt>
      <trkpt lat="42.80566" lon="1.73789">
        <ele>1558.44</ele>
        <time>2021-03-23T13:51:44Z</time>
      </trkpt>
      <trkpt lat="42.80564" lon="1.73789">
        <ele>1557.952</ele>
        <time>2021-03-23T13:51:46Z</time>
      </trkpt>
      <trkpt lat="42.80563" lon="1.73788">
        <ele>1557.176</ele>
        <time>2021-03-23T13:51:48Z</time>
      </trkpt>
      <trkpt lat="42.80563" lon="1.73787">
        <ele>1557.317</ele>
        <time>2021-03-23T13:51:50Z</time>
      </trkpt>
      <trkpt lat="42.80562" lon="1.73787">
        <ele>1556.296</ele>
        <time>2021-03-23T13:51:52Z</time>
      </trkpt>
      <trkpt lat="42.80561" lon="1.73785">
        <ele>1555.295</ele>
        <time>2021-03-23T13:51:54Z</time>
      </trkpt>
      <trkpt lat="42.8056" lon="1.73784">
        <ele>1554.486</ele>
        <time>2021-03-23T13:51:56Z</time>
      </trkpt>
      <trkpt lat="42.80559" lon="1.73782">
        <ele>1554.326</ele>
        <time>2021-03-23T13:51:58Z</time>
      </trkpt>
      <trkpt lat="42.80558" lon="1.73781">
        <ele>1554.317</ele>
        <time>2021-03-23T13:52:00Z</time>
      </trkpt>
      <trkpt lat="42.80557" lon="1.73779">
        <ele>1553.847</ele>
        <time>2021-03-23T13:52:02Z</time>
      </trkpt>
      <trkpt lat="42.80556" lon="1.73778">
        <ele>1553.793</ele>
        <time>2021-03-23T13:52:04Z</time>
      </trkpt>
      <trkpt lat="42.80556" lon="1.73776">
        <ele>1553.069</ele>
        <time>2021-03-23T13:52:06Z</time>
      </trkpt>
      <trkpt lat="42.80556" lon="1.73774">
        <ele>1552.568</ele>
        <time>2021-03-23T13:52:08Z</time>
      </trkpt>
      <trkpt lat="42.80556" lon="1.73772">
        <ele>1551.756</ele>
        <time>2021-03-23T13:52:10Z</time>
      </trkpt>
      <trkpt lat="42.80555" lon="1.7377">
        <ele>1551.482</ele>
        <time>2021-03-23T13:52:12Z</time>
      </trkpt>
      <trkpt lat="42.80555" lon="1.73769">
        <ele>1551.078</ele>
        <time>2021-03-23T13:52:14Z</time>
      </trkpt>
      <trkpt lat="42.80554" lon="1.73768">
        <ele>1550.704</ele>
        <time>2021-03-23T13:52:16Z</time>
      </trkpt>
      <trkpt lat="42.80553" lon="1.73766">
        <ele>1550.149</ele>
        <time>2021-03-23T13:52:18Z</time>
      </trkpt>
      <trkpt lat="42.80552" lon="1.73764">
        <ele>1550.586</ele>
        <time>2021-03-23T13:52:20Z</time>
      </trkpt>
      <trkpt lat="42.8055" lon="1.73764">
        <ele>1550.399</ele>
        <time>2021-03-23T13:52:22Z</time>
      </trkpt>
      <trkpt lat="42.80549" lon="1.73765">
        <ele>1551.042</ele>
        <time>2021-03-23T13:52:24Z</time>
      </trkpt>
      <trkpt lat="42.80548" lon="1.73766">
        <ele>1550.643</ele>
        <time>2021-03-23T13:52:26Z</time>
      </trkpt>
      <trkpt lat="42.80547" lon="1.73768">
        <ele>1549.59</ele>
        <time>2021-03-23T13:52:28Z</time>
      </trkpt>
      <trkpt lat="42.80546" lon="1.73768">
        <ele>1549.071</ele>
        <time>2021-03-23T13:52:30Z</time>
      </trkpt>
      <trkpt lat="42.80544" lon="1.73769">
        <ele>1548.942</ele>
        <time>2021-03-23T13:52:32Z</time>
      </trkpt>
      <trkpt lat="42.80543" lon="1.7377">
        <ele>1548.163</ele>
        <time>2021-03-23T13:52:34Z</time>
      </trkpt>
      <trkpt lat="42.80542" lon="1.7377">
        <ele>1548.55</ele>
        <time>2021-03-23T13:52:36Z</time>
      </trkpt>
      <trkpt lat="42.80541" lon="1.7377">
        <ele>1548.326</ele>
        <time>2021-03-23T13:52:38Z</time>
      </trkpt>
      <trkpt lat="42.8054" lon="1.73771">
        <ele>1548.472</ele>
        <time>2021-03-23T13:52:40Z</time>
      </trkpt>
      <trkpt lat="42.80539" lon="1.73773">
        <ele>1548.006</ele>
        <time>2021-03-23T13:52:42Z</time>
      </trkpt>
      <trkpt lat="42.80538" lon="1.73773">
        <ele>1547.136</ele>
        <time>2021-03-23T13:52:44Z</time>
      </trkpt>
      <trkpt lat="42.80538" lon="1.73772">
        <ele>1546.103</ele>
        <time>2021-03-23T13:52:46Z</time>
      </trkpt>
      <trkpt lat="42.80538" lon="1.7377">
        <ele>1545.961</ele>
        <time>2021-03-23T13:52:48Z</time>
      </trkpt>
      <trkpt lat="42.80538" lon="1.73769">
        <ele>1545.382</ele>
        <time>2021-03-23T13:52:50Z</time>
      </trkpt>
      <trkpt lat="42.80536" lon="1.73768">
        <ele>1545.294</ele>
        <time>2021-03-23T13:52:52Z</time>
      </trkpt>
      <trkpt lat="42.80535" lon="1.7377">
        <ele>1544.488</ele>
        <time>2021-03-23T13:52:54Z</time>
      </trkpt>
      <trkpt lat="42.80535" lon="1.73769">
        <ele>1544.461</ele>
        <time>2021-03-23T13:52:56Z</time>
      </trkpt>
      <trkpt lat="42.80533" lon="1.73768">
        <ele>1544.346</ele>
        <time>2021-03-23T13:52:58Z</time>
      </trkpt>
      <trkpt lat="42.80531" lon="1.73769">
        <ele>1544.468</ele>
        <time>2021-03-23T13:53:00Z</time>
      </trkpt>
      <trkpt lat="42.80531" lon="1.73767">
        <ele>1544.05</ele>
        <time>2021-03-23T13:53:02Z</time>
      </trkpt>
      <trkpt lat="42.80531" lon="1.73765">
        <ele>1543.948</ele>
        <time>2021-03-23T13:53:04Z</time>
      </trkpt>
      <trkpt lat="42.8053" lon="1.73763">
        <ele>1543.45</ele>
        <time>2021-03-23T13:53:06Z</time>
      </trkpt>
      <trkpt lat="42.80529" lon="1.73763">
        <ele>1542.832</ele>
        <time>2021-03-23T13:53:08Z</time>
      </trkpt>
      <trkpt lat="42.80527" lon="1.73763">
        <ele>1542.754</ele>
        <time>2021-03-23T13:53:10Z</time>
      </trkpt>
      <trkpt lat="42.80527" lon="1.7376">
        <ele>1542.341</ele>
        <time>2021-03-23T13:53:12Z</time>
      </trkpt>
      <trkpt lat="42.80526" lon="1.73758">
        <ele>1542.275</ele>
        <time>2021-03-23T13:53:14Z</time>
      </trkpt>
      <trkpt lat="42.80525" lon="1.73756">
        <ele>1541.604</ele>
        <time>2021-03-23T13:53:16Z</time>
      </trkpt>
      <trkpt lat="42.80525" lon="1.73755">
        <ele>1541.446</ele>
        <time>2021-03-23T13:53:18Z</time>
      </trkpt>
      <trkpt lat="42.80524" lon="1.73754">
        <ele>1541.309</ele>
        <time>2021-03-23T13:53:20Z</time>
      </trkpt>
      <trkpt lat="42.80522" lon="1.73752">
        <ele>1540.666</ele>
        <time>2021-03-23T13:53:22Z</time>
      </trkpt>
      <trkpt lat="42.80521" lon="1.73751">
        <ele>1540.339</ele>
        <time>2021-03-23T13:53:24Z</time>
      </trkpt>
      <trkpt lat="42.8052" lon="1.73751">
        <ele>1540.521</ele>
        <time>2021-03-23T13:53:26Z</time>
      </trkpt>
      <trkpt lat="42.80518" lon="1.73751">
        <ele>1540.333</ele>
        <time>2021-03-23T13:53:28Z</time>
      </trkpt>
      <trkpt lat="42.80516" lon="1.7375">
        <ele>1539.399</ele>
        <time>2021-03-23T13:53:30Z</time>
      </trkpt>
      <trkpt lat="42.80515" lon="1.7375">
        <ele>1538.366</ele>
        <time>2021-03-23T13:53:32Z</time>
      </trkpt>
      <trkpt lat="42.80513" lon="1.73751">
        <ele>1538.463</ele>
        <time>2021-03-23T13:53:34Z</time>
      </trkpt>
      <trkpt lat="42.80511" lon="1.73751">
        <ele>1537.469</ele>
        <time>2021-03-23T13:53:36Z</time>
      </trkpt>
      <trkpt lat="42.80509" lon="1.73751">
        <ele>1537.189</ele>
        <time>2021-03-23T13:53:38Z</time>
      </trkpt>
      <trkpt lat="42.80508" lon="1.7375">
        <ele>1537.038</ele>
        <time>2021-03-23T13:53:40Z</time>
      </trkpt>
      <trkpt lat="42.80506" lon="1.73751">
        <ele>1536.885</ele>
        <time>2021-03-23T13:53:42Z</time>
      </trkpt>
      <trkpt lat="42.80506" lon="1.73751">
        <ele>1536.539</ele>
        <time>2021-03-23T13:53:44Z</time>
      </trkpt>
      <trkpt lat="42.80505" lon="1.7375">
        <ele>1536.074</ele>
        <time>2021-03-23T13:53:46Z</time>
      </trkpt>
      <trkpt lat="42.80504" lon="1.73751">
        <ele>1535.87</ele>
        <time>2021-03-23T13:53:48Z</time>
      </trkpt>
      <trkpt lat="42.80502" lon="1.73752">
        <ele>1535.499</ele>
        <time>2021-03-23T13:53:50Z</time>
      </trkpt>
      <trkpt lat="42.80501" lon="1.73752">
        <ele>1534.647</ele>
        <time>2021-03-23T13:53:52Z</time>
      </trkpt>
      <trkpt lat="42.80499" lon="1.73751">
        <ele>1534.281</ele>
        <time>2021-03-23T13:53:55Z</time>
      </trkpt>
      <trkpt lat="42.80498" lon="1.7375">
        <ele>1533.806</ele>
        <time>2021-03-23T13:53:57Z</time>
      </trkpt>
      <trkpt lat="42.80497" lon="1.73749">
        <ele>1533.615</ele>
        <time>2021-03-23T13:53:59Z</time>
      </trkpt>
      <trkpt lat="42.80496" lon="1.7375">
        <ele>1532.545</ele>
        <time>2021-03-23T13:54:01Z</time>
      </trkpt>
      <trkpt lat="42.80495" lon="1.7375">
        <ele>1532.172</ele>
        <time>2021-03-23T13:54:03Z</time>
      </trkpt>
      <trkpt lat="42.80495" lon="1.73749">
        <ele>1532.14</ele>
        <time>2021-03-23T13:54:05Z</time>
      </trkpt>
      <trkpt lat="42.80495" lon="1.73748">
        <ele>1532.169</ele>
        <time>2021-03-23T13:54:07Z</time>
      </trkpt>
      <trkpt lat="42.80493" lon="1.73748">
        <ele>1531.592</ele>
        <time>2021-03-23T13:54:09Z</time>
      </trkpt>
      <trkpt lat="42.80492" lon="1.73748">
        <ele>1531.106</ele>
        <time>2021-03-23T13:54:11Z</time>
      </trkpt>
      <trkpt lat="42.80491" lon="1.73749">
        <ele>1530.859</ele>
        <time>2021-03-23T13:54:13Z</time>
      </trkpt>
      <trkpt lat="42.8049" lon="1.73748">
        <ele>1529.909</ele>
        <time>2021-03-23T13:54:15Z</time>
      </trkpt>
      <trkpt lat="42.80488" lon="1.73748">
        <ele>1529.643</ele>
        <time>2021-03-23T13:54:17Z</time>
      </trkpt>
      <trkpt lat="42.80487" lon="1.73748">
        <ele>1529.468</ele>
        <time>2021-03-23T13:54:19Z</time>
      </trkpt>
      <trkpt lat="42.80486" lon="1.73748">
        <ele>1529.291</ele>
        <time>2021-03-23T13:54:21Z</time>
      </trkpt>
      <trkpt lat="42.80485" lon="1.73746">
        <ele>1529.257</ele>
        <time>2021-03-23T13:54:23Z</time>
      </trkpt>
      <trkpt lat="42.80484" lon="1.73746">
        <ele>1528.692</ele>
        <time>2021-03-23T13:54:25Z</time>
      </trkpt>
      <trkpt lat="42.80483" lon="1.73745">
        <ele>1527.839</ele>
        <time>2021-03-23T13:54:27Z</time>
      </trkpt>
      <trkpt lat="42.80481" lon="1.73744">
        <ele>1526.915</ele>
        <time>2021-03-23T13:54:29Z</time>
      </trkpt>
      <trkpt lat="42.8048" lon="1.73742">
        <ele>1527.494</ele>
        <time>2021-03-23T13:54:31Z</time>
      </trkpt>
      <trkpt lat="42.8048" lon="1.7374">
        <ele>1526.333</ele>
        <time>2021-03-23T13:54:33Z</time>
      </trkpt>
      <trkpt lat="42.80479" lon="1.73738">
        <ele>1526.032</ele>
        <time>2021-03-23T13:54:35Z</time>
      </trkpt>
      <trkpt lat="42.80478" lon="1.73736">
        <ele>1526.269</ele>
        <time>2021-03-23T13:54:37Z</time>
      </trkpt>
      <trkpt lat="42.80476" lon="1.73735">
        <ele>1525.546</ele>
        <time>2021-03-23T13:54:39Z</time>
      </trkpt>
      <trkpt lat="42.80475" lon="1.73734">
        <ele>1524.845</ele>
        <time>2021-03-23T13:54:41Z</time>
      </trkpt>
      <trkpt lat="42.80473" lon="1.73733">
        <ele>1524.659</ele>
        <time>2021-03-23T13:54:43Z</time>
      </trkpt>
      <trkpt lat="42.80472" lon="1.73731">
        <ele>1524.544</ele>
        <time>2021-03-23T13:54:45Z</time>
      </trkpt>
      <trkpt lat="42.8047" lon="1.73729">
        <ele>1524.616</ele>
        <time>2021-03-23T13:54:47Z</time>
      </trkpt>
      <trkpt lat="42.80468" lon="1.73728">
        <ele>1524.142</ele>
        <time>2021-03-23T13:54:49Z</time>
      </trkpt>
      <trkpt lat="42.80467" lon="1.73727">
        <ele>1523.171</ele>
        <time>2021-03-23T13:54:51Z</time>
      </trkpt>
      <trkpt lat="42.80465" lon="1.73727">
        <ele>1522.596</ele>
        <time>2021-03-23T13:54:53Z</time>
      </trkpt>
      <trkpt lat="42.80463" lon="1.73726">
        <ele>1521.95</ele>
        <time>2021-03-23T13:54:55Z</time>
      </trkpt>
      <trkpt lat="42.80461" lon="1.73725">
        <ele>1522.346</ele>
        <time>2021-03-23T13:54:57Z</time>
      </trkpt>
      <trkpt lat="42.8046" lon="1.73725">
        <ele>1521.48</ele>
        <time>2021-03-23T13:54:59Z</time>
      </trkpt>
      <trkpt lat="42.80458" lon="1.73723">
        <ele>1521.035</ele>
        <time>2021-03-23T13:55:01Z</time>
      </trkpt>
      <trkpt lat="42.80456" lon="1.73721">
        <ele>1520.432</ele>
        <time>2021-03-23T13:55:03Z</time>
      </trkpt>
      <trkpt lat="42.80454" lon="1.73719">
        <ele>1520.381</ele>
        <time>2021-03-23T13:55:05Z</time>
      </trkpt>
      <trkpt lat="42.80452" lon="1.73719">
        <ele>1519.99</ele>
        <time>2021-03-23T13:55:07Z</time>
      </trkpt>
      <trkpt lat="42.80451" lon="1.73717">
        <ele>1519.803</ele>
        <time>2021-03-23T13:55:09Z</time>
      </trkpt>
      <trkpt lat="42.80449" lon="1.73715">
        <ele>1519.202</ele>
        <time>2021-03-23T13:55:11Z</time>
      </trkpt>
      <trkpt lat="42.80448" lon="1.73713">
        <ele>1518.671</ele>
        <time>2021-03-23T13:55:13Z</time>
      </trkpt>
      <trkpt lat="42.80446" lon="1.73712">
        <ele>1518.446</ele>
        <time>2021-03-23T13:55:15Z</time>
      </trkpt>
      <trkpt lat="42.80444" lon="1.73711">
        <ele>1518.422</ele>
        <time>2021-03-23T13:55:17Z</time>
      </trkpt>
      <trkpt lat="42.80443" lon="1.73709">
        <ele>1518.123</ele>
        <time>2021-03-23T13:55:19Z</time>
      </trkpt>
      <trkpt lat="42.80441" lon="1.73709">
        <ele>1517.797</ele>
        <time>2021-03-23T13:55:21Z</time>
      </trkpt>
      <trkpt lat="42.8044" lon="1.73708">
        <ele>1517.184</ele>
        <time>2021-03-23T13:55:23Z</time>
      </trkpt>
      <trkpt lat="42.80438" lon="1.73708">
        <ele>1516.697</ele>
        <time>2021-03-23T13:55:25Z</time>
      </trkpt>
      <trkpt lat="42.80436" lon="1.73707">
        <ele>1516.487</ele>
        <time>2021-03-23T13:55:27Z</time>
      </trkpt>
      <trkpt lat="42.80435" lon="1.73706">
        <ele>1515.793</ele>
        <time>2021-03-23T13:55:29Z</time>
      </trkpt>
      <trkpt lat="42.80433" lon="1.73705">
        <ele>1514.655</ele>
        <time>2021-03-23T13:55:31Z</time>
      </trkpt>
      <trkpt lat="42.80431" lon="1.73703">
        <ele>1514.329</ele>
        <time>2021-03-23T13:55:33Z</time>
      </trkpt>
      <trkpt lat="42.80429" lon="1.73703">
        <ele>1514.404</ele>
        <time>2021-03-23T13:55:35Z</time>
      </trkpt>
      <trkpt lat="42.80427" lon="1.73704">
        <ele>1513.579</ele>
        <time>2021-03-23T13:55:37Z</time>
      </trkpt>
      <trkpt lat="42.80425" lon="1.73705">
        <ele>1513.791</ele>
        <time>2021-03-23T13:55:39Z</time>
      </trkpt>
      <trkpt lat="42.80423" lon="1.73706">
        <ele>1514.377</ele>
        <time>2021-03-23T13:55:41Z</time>
      </trkpt>
      <trkpt lat="42.80422" lon="1.73707">
        <ele>1514.175</ele>
        <time>2021-03-23T13:55:43Z</time>
      </trkpt>
      <trkpt lat="42.80421" lon="1.73704">
        <ele>1515.378</ele>
        <time>2021-03-23T13:55:45Z</time>
      </trkpt>
      <trkpt lat="42.80422" lon="1.73702">
        <ele>1514.08</ele>
        <time>2021-03-23T13:55:47Z</time>
      </trkpt>
      <trkpt lat="42.80422" lon="1.73703">
        <ele>1514.066</ele>
        <time>2021-03-23T13:55:49Z</time>
      </trkpt>
      <trkpt lat="42.80422" lon="1.73704">
        <ele>1514.16</ele>
        <time>2021-03-23T13:55:51Z</time>
      </trkpt>
      <trkpt lat="42.80422" lon="1.73704">
        <ele>1514.169</ele>
        <time>2021-03-23T13:55:53Z</time>
      </trkpt>
      <trkpt lat="42.80422" lon="1.73704">
        <ele>1514.098</ele>
        <time>2021-03-23T13:55:55Z</time>
      </trkpt>
      <trkpt lat="42.80422" lon="1.73704">
        <ele>1513.561</ele>
        <time>2021-03-23T13:55:57Z</time>
      </trkpt>
      <trkpt lat="42.80422" lon="1.73704">
        <ele>1513.556</ele>
        <time>2021-03-23T13:55:59Z</time>
      </trkpt>
      <trkpt lat="42.80422" lon="1.73704">
        <ele>1513.139</ele>
        <time>2021-03-23T13:56:01Z</time>
      </trkpt>
      <trkpt lat="42.80421" lon="1.73704">
        <ele>1512.608</ele>
        <time>2021-03-23T13:56:03Z</time>
      </trkpt>
      <trkpt lat="42.80419" lon="1.73704">
        <ele>1512.636</ele>
        <time>2021-03-23T13:56:05Z</time>
      </trkpt>
      <trkpt lat="42.80418" lon="1.73704">
        <ele>1512.129</ele>
        <time>2021-03-23T13:56:07Z</time>
      </trkpt>
      <trkpt lat="42.80416" lon="1.73704">
        <ele>1512.576</ele>
        <time>2021-03-23T13:56:09Z</time>
      </trkpt>
      <trkpt lat="42.80415" lon="1.73704">
        <ele>1513.373</ele>
        <time>2021-03-23T13:56:11Z</time>
      </trkpt>
      <trkpt lat="42.80416" lon="1.73704">
        <ele>1513.364</ele>
        <time>2021-03-23T13:56:13Z</time>
      </trkpt>
      <trkpt lat="42.80414" lon="1.73704">
        <ele>1512.749</ele>
        <time>2021-03-23T13:56:15Z</time>
      </trkpt>
      <trkpt lat="42.80413" lon="1.73703">
        <ele>1512.271</ele>
        <time>2021-03-23T13:56:17Z</time>
      </trkpt>
      <trkpt lat="42.80411" lon="1.73704">
        <ele>1511.78</ele>
        <time>2021-03-23T13:56:19Z</time>
      </trkpt>
      <trkpt lat="42.80409" lon="1.73704">
        <ele>1512.301</ele>
        <time>2021-03-23T13:56:21Z</time>
      </trkpt>
      <trkpt lat="42.80409" lon="1.737">
        <ele>1511.027</ele>
        <time>2021-03-23T13:56:23Z</time>
      </trkpt>
      <trkpt lat="42.80408" lon="1.73702">
        <ele>1511.222</ele>
        <time>2021-03-23T13:56:25Z</time>
      </trkpt>
      <trkpt lat="42.80406" lon="1.73702">
        <ele>1510.825</ele>
        <time>2021-03-23T13:56:27Z</time>
      </trkpt>
      <trkpt lat="42.80404" lon="1.73701">
        <ele>1510.757</ele>
        <time>2021-03-23T13:56:29Z</time>
      </trkpt>
      <trkpt lat="42.80403" lon="1.73699">
        <ele>1510.117</ele>
        <time>2021-03-23T13:56:31Z</time>
      </trkpt>
      <trkpt lat="42.80402" lon="1.73697">
        <ele>1509.784</ele>
        <time>2021-03-23T13:56:33Z</time>
      </trkpt>
      <trkpt lat="42.80401" lon="1.73696">
        <ele>1509.329</ele>
        <time>2021-03-23T13:56:35Z</time>
      </trkpt>
      <trkpt lat="42.804" lon="1.73694">
        <ele>1509.283</ele>
        <time>2021-03-23T13:56:37Z</time>
      </trkpt>
      <trkpt lat="42.80398" lon="1.73692">
        <ele>1509.54</ele>
        <time>2021-03-23T13:56:39Z</time>
      </trkpt>
      <trkpt lat="42.80398" lon="1.73692">
        <ele>1509.662</ele>
        <time>2021-03-23T13:56:41Z</time>
      </trkpt>
      <trkpt lat="42.80397" lon="1.73691">
        <ele>1509.408</ele>
        <time>2021-03-23T13:56:43Z</time>
      </trkpt>
      <trkpt lat="42.80396" lon="1.7369">
        <ele>1508.984</ele>
        <time>2021-03-23T13:56:45Z</time>
      </trkpt>
      <trkpt lat="42.80394" lon="1.73689">
        <ele>1508.936</ele>
        <time>2021-03-23T13:56:47Z</time>
      </trkpt>
      <trkpt lat="42.80393" lon="1.73688">
        <ele>1508.707</ele>
        <time>2021-03-23T13:56:49Z</time>
      </trkpt>
      <trkpt lat="42.80392" lon="1.73687">
        <ele>1508.378</ele>
        <time>2021-03-23T13:56:51Z</time>
      </trkpt>
      <trkpt lat="42.80391" lon="1.73687">
        <ele>1507.848</ele>
        <time>2021-03-23T13:56:53Z</time>
      </trkpt>
      <trkpt lat="42.8039" lon="1.73687">
        <ele>1507.837</ele>
        <time>2021-03-23T13:56:55Z</time>
      </trkpt>
      <trkpt lat="42.8039" lon="1.73687">
        <ele>1507.849</ele>
        <time>2021-03-23T13:56:57Z</time>
      </trkpt>
      <trkpt lat="42.80388" lon="1.73688">
        <ele>1507.83</ele>
        <time>2021-03-23T13:56:59Z</time>
      </trkpt>
      <trkpt lat="42.80387" lon="1.73687">
        <ele>1507.557</ele>
        <time>2021-03-23T13:57:01Z</time>
      </trkpt>
      <trkpt lat="42.80386" lon="1.73687">
        <ele>1507.816</ele>
        <time>2021-03-23T13:57:03Z</time>
      </trkpt>
      <trkpt lat="42.80385" lon="1.73686">
        <ele>1507.47</ele>
        <time>2021-03-23T13:57:05Z</time>
      </trkpt>
      <trkpt lat="42.80384" lon="1.73686">
        <ele>1507.149</ele>
        <time>2021-03-23T13:57:07Z</time>
      </trkpt>
      <trkpt lat="42.80384" lon="1.73685">
        <ele>1506.228</ele>
        <time>2021-03-23T13:57:09Z</time>
      </trkpt>
      <trkpt lat="42.80384" lon="1.73685">
        <ele>1505.948</ele>
        <time>2021-03-23T13:57:11Z</time>
      </trkpt>
      <trkpt lat="42.80384" lon="1.73685">
        <ele>1505.946</ele>
        <time>2021-03-23T13:57:13Z</time>
      </trkpt>
      <trkpt lat="42.80384" lon="1.73685">
        <ele>1505.944</ele>
        <time>2021-03-23T13:57:15Z</time>
      </trkpt>
      <trkpt lat="42.80384" lon="1.73685">
        <ele>1505.781</ele>
        <time>2021-03-23T13:57:18Z</time>
      </trkpt>
      <trkpt lat="42.80384" lon="1.73684">
        <ele>1505.373</ele>
        <time>2021-03-23T13:57:20Z</time>
      </trkpt>
      <trkpt lat="42.80384" lon="1.73684">
        <ele>1505.376</ele>
        <time>2021-03-23T13:57:22Z</time>
      </trkpt>
      <trkpt lat="42.80384" lon="1.73684">
        <ele>1505.384</ele>
        <time>2021-03-23T13:57:24Z</time>
      </trkpt>
      <trkpt lat="42.80384" lon="1.73684">
        <ele>1505.391</ele>
        <time>2021-03-23T13:57:26Z</time>
      </trkpt>
      <trkpt lat="42.80384" lon="1.73684">
        <ele>1505.387</ele>
        <time>2021-03-23T13:57:28Z</time>
      </trkpt>
      <trkpt lat="42.80384" lon="1.73684">
        <ele>1505.387</ele>
        <time>2021-03-23T13:57:30Z</time>
      </trkpt>
      <trkpt lat="42.80384" lon="1.73684">
        <ele>1506.051</ele>
        <time>2021-03-23T13:57:32Z</time>
      </trkpt>
      <trkpt lat="42.80383" lon="1.73684">
        <ele>1505.831</ele>
        <time>2021-03-23T13:57:34Z</time>
      </trkpt>
      <trkpt lat="42.80383" lon="1.73684">
        <ele>1505.837</ele>
        <time>2021-03-23T13:57:36Z</time>
      </trkpt>
      <trkpt lat="42.80383" lon="1.73684">
        <ele>1505.837</ele>
        <time>2021-03-23T13:57:38Z</time>
      </trkpt>
      <trkpt lat="42.80383" lon="1.73684">
        <ele>1505.837</ele>
        <time>2021-03-23T13:57:40Z</time>
      </trkpt>
      <trkpt lat="42.80383" lon="1.73684">
        <ele>1505.838</ele>
        <time>2021-03-23T13:57:42Z</time>
      </trkpt>
      <trkpt lat="42.80383" lon="1.73684">
        <ele>1505.834</ele>
        <time>2021-03-23T13:57:44Z</time>
      </trkpt>
      <trkpt lat="42.80382" lon="1.73685">
        <ele>1506.188</ele>
        <time>2021-03-23T13:57:46Z</time>
      </trkpt>
      <trkpt lat="42.80381" lon="1.73686">
        <ele>1506.903</ele>
        <time>2021-03-23T13:57:48Z</time>
      </trkpt>
      <trkpt lat="42.80381" lon="1.73685">
        <ele>1506.71</ele>
        <time>2021-03-23T13:57:50Z</time>
      </trkpt>
      <trkpt lat="42.80381" lon="1.73685">
        <ele>1506.707</ele>
        <time>2021-03-23T13:57:52Z</time>
      </trkpt>
      <trkpt lat="42.80381" lon="1.73685">
        <ele>1506.703</ele>
        <time>2021-03-23T13:57:54Z</time>
      </trkpt>
      <trkpt lat="42.80381" lon="1.73685">
        <ele>1506.698</ele>
        <time>2021-03-23T13:57:56Z</time>
      </trkpt>
      <trkpt lat="42.80381" lon="1.73685">
        <ele>1506.692</ele>
        <time>2021-03-23T13:57:58Z</time>
      </trkpt>
      <trkpt lat="42.80382" lon="1.73686">
        <ele>1506.688</ele>
        <time>2021-03-23T13:58:00Z</time>
      </trkpt>
      <trkpt lat="42.80382" lon="1.73686">
        <ele>1506.029</ele>
        <time>2021-03-23T13:58:02Z</time>
      </trkpt>
      <trkpt lat="42.80382" lon="1.73685">
        <ele>1505.934</ele>
        <time>2021-03-23T13:58:04Z</time>
      </trkpt>
      <trkpt lat="42.80382" lon="1.73685">
        <ele>1505.938</ele>
        <time>2021-03-23T13:58:06Z</time>
      </trkpt>
      <trkpt lat="42.80382" lon="1.73685">
        <ele>1505.94</ele>
        <time>2021-03-23T13:58:08Z</time>
      </trkpt>
      <trkpt lat="42.80382" lon="1.73685">
        <ele>1505.943</ele>
        <time>2021-03-23T13:58:10Z</time>
      </trkpt>
      <trkpt lat="42.80382" lon="1.73685">
        <ele>1506.438</ele>
        <time>2021-03-23T13:58:12Z</time>
      </trkpt>
      <trkpt lat="42.80381" lon="1.73685">
        <ele>1506.439</ele>
        <time>2021-03-23T13:58:14Z</time>
      </trkpt>
      <trkpt lat="42.80381" lon="1.73685">
        <ele>1506.437</ele>
        <time>2021-03-23T13:58:16Z</time>
      </trkpt>
      <trkpt lat="42.80381" lon="1.73685">
        <ele>1506.441</ele>
        <time>2021-03-23T13:58:18Z</time>
      </trkpt>
      <trkpt lat="42.80381" lon="1.73686">
        <ele>1506.197</ele>
        <time>2021-03-23T13:58:20Z</time>
      </trkpt>
      <trkpt lat="42.80382" lon="1.73687">
        <ele>1505.879</ele>
        <time>2021-03-23T13:58:22Z</time>
      </trkpt>
      <trkpt lat="42.80382" lon="1.73688">
        <ele>1505.299</ele>
        <time>2021-03-23T13:58:24Z</time>
      </trkpt>
      <trkpt lat="42.80382" lon="1.73689">
        <ele>1504.443</ele>
        <time>2021-03-23T13:58:26Z</time>
      </trkpt>
      <trkpt lat="42.80381" lon="1.7369">
        <ele>1504.657</ele>
        <time>2021-03-23T13:58:28Z</time>
      </trkpt>
      <trkpt lat="42.80381" lon="1.73689">
        <ele>1504.944</ele>
        <time>2021-03-23T13:58:30Z</time>
      </trkpt>
      <trkpt lat="42.80382" lon="1.7369">
        <ele>1503.984</ele>
        <time>2021-03-23T13:58:32Z</time>
      </trkpt>
      <trkpt lat="42.80381" lon="1.7369">
        <ele>1504.333</ele>
        <time>2021-03-23T13:58:34Z</time>
      </trkpt>
      <trkpt lat="42.80381" lon="1.7369">
        <ele>1504.133</ele>
        <time>2021-03-23T13:58:36Z</time>
      </trkpt>
      <trkpt lat="42.80381" lon="1.7369">
        <ele>1504.122</ele>
        <time>2021-03-23T13:58:38Z</time>
      </trkpt>
      <trkpt lat="42.80381" lon="1.7369">
        <ele>1504.12</ele>
        <time>2021-03-23T13:58:40Z</time>
      </trkpt>
      <trkpt lat="42.80381" lon="1.7369">
        <ele>1504.115</ele>
        <time>2021-03-23T13:58:42Z</time>
      </trkpt>
      <trkpt lat="42.80381" lon="1.7369">
        <ele>1504.154</ele>
        <time>2021-03-23T13:58:44Z</time>
      </trkpt>
      <trkpt lat="42.80381" lon="1.73689">
        <ele>1503.528</ele>
        <time>2021-03-23T13:58:46Z</time>
      </trkpt>
      <trkpt lat="42.80382" lon="1.73688">
        <ele>1503.797</ele>
        <time>2021-03-23T13:58:48Z</time>
      </trkpt>
      <trkpt lat="42.80383" lon="1.73688">
        <ele>1503.817</ele>
        <time>2021-03-23T13:58:50Z</time>
      </trkpt>
      <trkpt lat="42.80383" lon="1.73688">
        <ele>1503.814</ele>
        <time>2021-03-23T13:58:52Z</time>
      </trkpt>
      <trkpt lat="42.80383" lon="1.73687">
        <ele>1503.709</ele>
        <time>2021-03-23T13:58:54Z</time>
      </trkpt>
      <trkpt lat="42.80382" lon="1.73687">
        <ele>1503.705</ele>
        <time>2021-03-23T13:58:56Z</time>
      </trkpt>
      <trkpt lat="42.80382" lon="1.73687">
        <ele>1503.378</ele>
        <time>2021-03-23T13:58:58Z</time>
      </trkpt>
      <trkpt lat="42.80382" lon="1.73687">
        <ele>1503.37</ele>
        <time>2021-03-23T13:59:00Z</time>
      </trkpt>
      <trkpt lat="42.80382" lon="1.73688">
        <ele>1503.099</ele>
        <time>2021-03-23T13:59:02Z</time>
      </trkpt>
      <trkpt lat="42.80382" lon="1.73688">
        <ele>1503.09</ele>
        <time>2021-03-23T13:59:04Z</time>
      </trkpt>
      <trkpt lat="42.80382" lon="1.73688">
        <ele>1503.086</ele>
        <time>2021-03-23T13:59:06Z</time>
      </trkpt>
      <trkpt lat="42.80382" lon="1.73688">
        <ele>1503.079</ele>
        <time>2021-03-23T13:59:08Z</time>
      </trkpt>
      <trkpt lat="42.80382" lon="1.73688">
        <ele>1503.077</ele>
        <time>2021-03-23T13:59:10Z</time>
      </trkpt>
      <trkpt lat="42.80382" lon="1.73687">
        <ele>1503.397</ele>
        <time>2021-03-23T13:59:12Z</time>
      </trkpt>
      <trkpt lat="42.80382" lon="1.73687">
        <ele>1503.4</ele>
        <time>2021-03-23T13:59:14Z</time>
      </trkpt>
      <trkpt lat="42.80382" lon="1.73687">
        <ele>1503.393</ele>
        <time>2021-03-23T13:59:16Z</time>
      </trkpt>
      <trkpt lat="42.80382" lon="1.73687">
        <ele>1503.397</ele>
        <time>2021-03-23T13:59:18Z</time>
      </trkpt>
      <trkpt lat="42.80382" lon="1.73687">
        <ele>1503.391</ele>
        <time>2021-03-23T13:59:20Z</time>
      </trkpt>
      <trkpt lat="42.80382" lon="1.73687">
        <ele>1503.394</ele>
        <time>2021-03-23T13:59:22Z</time>
      </trkpt>
      <trkpt lat="42.80382" lon="1.73687">
        <ele>1503.397</ele>
        <time>2021-03-23T13:59:24Z</time>
      </trkpt>
      <trkpt lat="42.80382" lon="1.73687">
        <ele>1503.396</ele>
        <time>2021-03-23T13:59:26Z</time>
      </trkpt>
      <trkpt lat="42.80382" lon="1.73687">
        <ele>1503.395</ele>
        <time>2021-03-23T13:59:28Z</time>
      </trkpt>
      <trkpt lat="42.80382" lon="1.73687">
        <ele>1503.395</ele>
        <time>2021-03-23T13:59:30Z</time>
      </trkpt>
      <trkpt lat="42.80382" lon="1.73687">
        <ele>1503.393</ele>
        <time>2021-03-23T13:59:32Z</time>
      </trkpt>
      <trkpt lat="42.80382" lon="1.73687">
        <ele>1503.392</ele>
        <time>2021-03-23T13:59:34Z</time>
      </trkpt>
      <trkpt lat="42.80382" lon="1.73687">
        <ele>1503.392</ele>
        <time>2021-03-23T13:59:36Z</time>
      </trkpt>
      <trkpt lat="42.80382" lon="1.73687">
        <ele>1503.394</ele>
        <time>2021-03-23T13:59:38Z</time>
      </trkpt>
      <trkpt lat="42.80382" lon="1.73687">
        <ele>1503.396</ele>
        <time>2021-03-23T13:59:40Z</time>
      </trkpt>
      <trkpt lat="42.80382" lon="1.73687">
        <ele>1503.399</ele>
        <time>2021-03-23T13:59:42Z</time>
      </trkpt>
      <trkpt lat="42.80382" lon="1.73687">
        <ele>1503.398</ele>
        <time>2021-03-23T13:59:44Z</time>
      </trkpt>
      <trkpt lat="42.80382" lon="1.73687">
        <ele>1503.399</ele>
        <time>2021-03-23T13:59:46Z</time>
      </trkpt>
      <trkpt lat="42.80382" lon="1.73687">
        <ele>1503.399</ele>
        <time>2021-03-23T13:59:48Z</time>
      </trkpt>
      <trkpt lat="42.80382" lon="1.73687">
        <ele>1503.397</ele>
        <time>2021-03-23T13:59:50Z</time>
      </trkpt>
      <trkpt lat="42.80382" lon="1.73687">
        <ele>1503.393</ele>
        <time>2021-03-23T13:59:52Z</time>
      </trkpt>
      <trkpt lat="42.80382" lon="1.73687">
        <ele>1503.394</ele>
        <time>2021-03-23T13:59:54Z</time>
      </trkpt>
      <trkpt lat="42.80382" lon="1.73687">
        <ele>1503.396</ele>
        <time>2021-03-23T13:59:56Z</time>
      </trkpt>
      <trkpt lat="42.80382" lon="1.73687">
        <ele>1503.398</ele>
        <time>2021-03-23T13:59:58Z</time>
      </trkpt>
      <trkpt lat="42.80382" lon="1.73687">
        <ele>1503.404</ele>
        <time>2021-03-23T14:00:00Z</time>
      </trkpt>
      <trkpt lat="42.80382" lon="1.73687">
        <ele>1503.404</ele>
        <time>2021-03-23T14:00:02Z</time>
      </trkpt>
      <trkpt lat="42.80382" lon="1.73687">
        <ele>1503.406</ele>
        <time>2021-03-23T14:00:04Z</time>
      </trkpt>
      <trkpt lat="42.80382" lon="1.73687">
        <ele>1503.402</ele>
        <time>2021-03-23T14:00:06Z</time>
      </trkpt>
      <trkpt lat="42.80382" lon="1.73687">
        <ele>1503.403</ele>
        <time>2021-03-23T14:00:08Z</time>
      </trkpt>
      <trkpt lat="42.80382" lon="1.73687">
        <ele>1503.408</ele>
        <time>2021-03-23T14:00:10Z</time>
      </trkpt>
      <trkpt lat="42.80381" lon="1.73687">
        <ele>1502.965</ele>
        <time>2021-03-23T14:00:12Z</time>
      </trkpt>
      <trkpt lat="42.8038" lon="1.73686">
        <ele>1503.521</ele>
        <time>2021-03-23T14:00:14Z</time>
      </trkpt>
      <trkpt lat="42.8038" lon="1.73685">
        <ele>1503.141</ele>
        <time>2021-03-23T14:00:16Z</time>
      </trkpt>
      <trkpt lat="42.80379" lon="1.73683">
        <ele>1502.976</ele>
        <time>2021-03-23T14:00:18Z</time>
      </trkpt>
      <trkpt lat="42.80378" lon="1.73683">
        <ele>1503.154</ele>
        <time>2021-03-23T14:00:20Z</time>
      </trkpt>
      <trkpt lat="42.80377" lon="1.73681">
        <ele>1503.691</ele>
        <time>2021-03-23T14:00:22Z</time>
      </trkpt>
      <trkpt lat="42.80376" lon="1.7368">
        <ele>1503.032</ele>
        <time>2021-03-23T14:00:24Z</time>
      </trkpt>
      <trkpt lat="42.80375" lon="1.73678">
        <ele>1503.35</ele>
        <time>2021-03-23T14:00:26Z</time>
      </trkpt>
      <trkpt lat="42.80373" lon="1.73679">
        <ele>1502.995</ele>
        <time>2021-03-23T14:00:28Z</time>
      </trkpt>
      <trkpt lat="42.80371" lon="1.73679">
        <ele>1502.898</ele>
        <time>2021-03-23T14:00:30Z</time>
      </trkpt>
      <trkpt lat="42.8037" lon="1.7368">
        <ele>1502.774</ele>
        <time>2021-03-23T14:00:31Z</time>
      </trkpt>
      <trkpt lat="42.80366" lon="1.73681">
        <ele>1503.253</ele>
        <time>2021-03-23T14:00:34Z</time>
      </trkpt>
      <trkpt lat="42.80364" lon="1.73681">
        <ele>1503.34</ele>
        <time>2021-03-23T14:00:36Z</time>
      </trkpt>
      <trkpt lat="42.80362" lon="1.73681">
        <ele>1503.173</ele>
        <time>2021-03-23T14:00:38Z</time>
      </trkpt>
      <trkpt lat="42.80361" lon="1.73682">
        <ele>1502.067</ele>
        <time>2021-03-23T14:00:40Z</time>
      </trkpt>
      <trkpt lat="42.8036" lon="1.73684">
        <ele>1501.229</ele>
        <time>2021-03-23T14:00:42Z</time>
      </trkpt>
      <trkpt lat="42.80358" lon="1.73684">
        <ele>1500.985</ele>
        <time>2021-03-23T14:00:44Z</time>
      </trkpt>
      <trkpt lat="42.80356" lon="1.73685">
        <ele>1500.386</ele>
        <time>2021-03-23T14:00:46Z</time>
      </trkpt>
      <trkpt lat="42.80355" lon="1.73686">
        <ele>1499.67</ele>
        <time>2021-03-23T14:00:48Z</time>
      </trkpt>
      <trkpt lat="42.80355" lon="1.73687">
        <ele>1499.635</ele>
        <time>2021-03-23T14:00:50Z</time>
      </trkpt>
      <trkpt lat="42.80355" lon="1.73687">
        <ele>1499.63</ele>
        <time>2021-03-23T14:00:52Z</time>
      </trkpt>
      <trkpt lat="42.80355" lon="1.73687">
        <ele>1499.627</ele>
        <time>2021-03-23T14:00:54Z</time>
      </trkpt>
      <trkpt lat="42.80355" lon="1.73687">
        <ele>1499.659</ele>
        <time>2021-03-23T14:00:56Z</time>
      </trkpt>
      <trkpt lat="42.80355" lon="1.73686">
        <ele>1499.11</ele>
        <time>2021-03-23T14:00:58Z</time>
      </trkpt>
      <trkpt lat="42.80355" lon="1.73686">
        <ele>1499.105</ele>
        <time>2021-03-23T14:01:00Z</time>
      </trkpt>
      <trkpt lat="42.80355" lon="1.73685">
        <ele>1499.043</ele>
        <time>2021-03-23T14:01:02Z</time>
      </trkpt>
      <trkpt lat="42.80354" lon="1.73686">
        <ele>1498.836</ele>
        <time>2021-03-23T14:01:04Z</time>
      </trkpt>
      <trkpt lat="42.80353" lon="1.73686">
        <ele>1497.99</ele>
        <time>2021-03-23T14:01:06Z</time>
      </trkpt>
      <trkpt lat="42.80352" lon="1.73688">
        <ele>1497.888</ele>
        <time>2021-03-23T14:01:08Z</time>
      </trkpt>
      <trkpt lat="42.80351" lon="1.73689">
        <ele>1497.258</ele>
        <time>2021-03-23T14:01:10Z</time>
      </trkpt>
      <trkpt lat="42.80349" lon="1.73691">
        <ele>1496.15</ele>
        <time>2021-03-23T14:01:12Z</time>
      </trkpt>
      <trkpt lat="42.80349" lon="1.73692">
        <ele>1495.673</ele>
        <time>2021-03-23T14:01:14Z</time>
      </trkpt>
      <trkpt lat="42.80347" lon="1.73693">
        <ele>1494.876</ele>
        <time>2021-03-23T14:01:16Z</time>
      </trkpt>
      <trkpt lat="42.80346" lon="1.73695">
        <ele>1494.172</ele>
        <time>2021-03-23T14:01:18Z</time>
      </trkpt>
      <trkpt lat="42.80345" lon="1.73697">
        <ele>1493.493</ele>
        <time>2021-03-23T14:01:20Z</time>
      </trkpt>
      <trkpt lat="42.80344" lon="1.73699">
        <ele>1492.755</ele>
        <time>2021-03-23T14:01:22Z</time>
      </trkpt>
      <trkpt lat="42.80343" lon="1.73701">
        <ele>1491.894</ele>
        <time>2021-03-23T14:01:24Z</time>
      </trkpt>
      <trkpt lat="42.80341" lon="1.73703">
        <ele>1491.391</ele>
        <time>2021-03-23T14:01:26Z</time>
      </trkpt>
      <trkpt lat="42.80339" lon="1.73704">
        <ele>1491.474</ele>
        <time>2021-03-23T14:01:28Z</time>
      </trkpt>
      <trkpt lat="42.80338" lon="1.73706">
        <ele>1491.384</ele>
        <time>2021-03-23T14:01:30Z</time>
      </trkpt>
      <trkpt lat="42.80337" lon="1.73708">
        <ele>1491.062</ele>
        <time>2021-03-23T14:01:32Z</time>
      </trkpt>
      <trkpt lat="42.80337" lon="1.7371">
        <ele>1490.633</ele>
        <time>2021-03-23T14:01:34Z</time>
      </trkpt>
      <trkpt lat="42.80337" lon="1.73713">
        <ele>1489.36</ele>
        <time>2021-03-23T14:01:36Z</time>
      </trkpt>
      <trkpt lat="42.80336" lon="1.73716">
        <ele>1489.025</ele>
        <time>2021-03-23T14:01:38Z</time>
      </trkpt>
      <trkpt lat="42.80335" lon="1.73718">
        <ele>1488.928</ele>
        <time>2021-03-23T14:01:40Z</time>
      </trkpt>
      <trkpt lat="42.80334" lon="1.73719">
        <ele>1488.564</ele>
        <time>2021-03-23T14:01:42Z</time>
      </trkpt>
      <trkpt lat="42.80332" lon="1.7372">
        <ele>1487.899</ele>
        <time>2021-03-23T14:01:44Z</time>
      </trkpt>
      <trkpt lat="42.8033" lon="1.73721">
        <ele>1487.945</ele>
        <time>2021-03-23T14:01:46Z</time>
      </trkpt>
      <trkpt lat="42.80329" lon="1.73721">
        <ele>1487.903</ele>
        <time>2021-03-23T14:01:48Z</time>
      </trkpt>
      <trkpt lat="42.80328" lon="1.73721">
        <ele>1487.25</ele>
        <time>2021-03-23T14:01:50Z</time>
      </trkpt>
      <trkpt lat="42.80326" lon="1.73721">
        <ele>1486.898</ele>
        <time>2021-03-23T14:01:52Z</time>
      </trkpt>
      <trkpt lat="42.80325" lon="1.73719">
        <ele>1485.732</ele>
        <time>2021-03-23T14:01:54Z</time>
      </trkpt>
      <trkpt lat="42.80324" lon="1.73718">
        <ele>1485.512</ele>
        <time>2021-03-23T14:01:56Z</time>
      </trkpt>
      <trkpt lat="42.80323" lon="1.73718">
        <ele>1485.8</ele>
        <time>2021-03-23T14:01:58Z</time>
      </trkpt>
      <trkpt lat="42.80321" lon="1.73718">
        <ele>1485.453</ele>
        <time>2021-03-23T14:02:00Z</time>
      </trkpt>
      <trkpt lat="42.80319" lon="1.73719">
        <ele>1484.839</ele>
        <time>2021-03-23T14:02:02Z</time>
      </trkpt>
      <trkpt lat="42.80317" lon="1.7372">
        <ele>1483.833</ele>
        <time>2021-03-23T14:02:04Z</time>
      </trkpt>
      <trkpt lat="42.80315" lon="1.73721">
        <ele>1483.681</ele>
        <time>2021-03-23T14:02:06Z</time>
      </trkpt>
      <trkpt lat="42.80315" lon="1.73723">
        <ele>1484.07</ele>
        <time>2021-03-23T14:02:08Z</time>
      </trkpt>
      <trkpt lat="42.80315" lon="1.73723">
        <ele>1483.871</ele>
        <time>2021-03-23T14:02:10Z</time>
      </trkpt>
      <trkpt lat="42.80314" lon="1.73724">
        <ele>1483.804</ele>
        <time>2021-03-23T14:02:12Z</time>
      </trkpt>
      <trkpt lat="42.80314" lon="1.73724">
        <ele>1484.032</ele>
        <time>2021-03-23T14:02:14Z</time>
      </trkpt>
      <trkpt lat="42.80314" lon="1.73723">
        <ele>1483.893</ele>
        <time>2021-03-23T14:02:16Z</time>
      </trkpt>
      <trkpt lat="42.80317" lon="1.73721">
        <ele>1483.524</ele>
        <time>2021-03-23T14:02:18Z</time>
      </trkpt>
      <trkpt lat="42.80317" lon="1.73721">
        <ele>1483.522</ele>
        <time>2021-03-23T14:02:20Z</time>
      </trkpt>
      <trkpt lat="42.80317" lon="1.73721">
        <ele>1483.521</ele>
        <time>2021-03-23T14:02:22Z</time>
      </trkpt>
      <trkpt lat="42.80317" lon="1.73721">
        <ele>1483.517</ele>
        <time>2021-03-23T14:02:24Z</time>
      </trkpt>
      <trkpt lat="42.80316" lon="1.73722">
        <ele>1483.003</ele>
        <time>2021-03-23T14:02:26Z</time>
      </trkpt>
      <trkpt lat="42.80315" lon="1.73724">
        <ele>1482.647</ele>
        <time>2021-03-23T14:02:28Z</time>
      </trkpt>
      <trkpt lat="42.80314" lon="1.73726">
        <ele>1482.615</ele>
        <time>2021-03-23T14:02:30Z</time>
      </trkpt>
      <trkpt lat="42.80313" lon="1.73727">
        <ele>1482.307</ele>
        <time>2021-03-23T14:02:32Z</time>
      </trkpt>
      <trkpt lat="42.80311" lon="1.7373">
        <ele>1482.054</ele>
        <time>2021-03-23T14:02:34Z</time>
      </trkpt>
      <trkpt lat="42.80311" lon="1.73732">
        <ele>1481.922</ele>
        <time>2021-03-23T14:02:36Z</time>
      </trkpt>
      <trkpt lat="42.8031" lon="1.73734">
        <ele>1481.758</ele>
        <time>2021-03-23T14:02:38Z</time>
      </trkpt>
      <trkpt lat="42.80309" lon="1.73736">
        <ele>1481.629</ele>
        <time>2021-03-23T14:02:40Z</time>
      </trkpt>
      <trkpt lat="42.80307" lon="1.73737">
        <ele>1482.112</ele>
        <time>2021-03-23T14:02:42Z</time>
      </trkpt>
      <trkpt lat="42.80309" lon="1.73739">
        <ele>1483.039</ele>
        <time>2021-03-23T14:02:44Z</time>
      </trkpt>
      <trkpt lat="42.80309" lon="1.73739">
        <ele>1483.048</ele>
        <time>2021-03-23T14:02:46Z</time>
      </trkpt>
      <trkpt lat="42.80309" lon="1.73739">
        <ele>1483.188</ele>
        <time>2021-03-23T14:02:48Z</time>
      </trkpt>
      <trkpt lat="42.80309" lon="1.73741">
        <ele>1483.358</ele>
        <time>2021-03-23T14:02:50Z</time>
      </trkpt>
      <trkpt lat="42.80309" lon="1.73743">
        <ele>1482.337</ele>
        <time>2021-03-23T14:02:52Z</time>
      </trkpt>
      <trkpt lat="42.80309" lon="1.73745">
        <ele>1481</ele>
        <time>2021-03-23T14:02:54Z</time>
      </trkpt>
      <trkpt lat="42.80308" lon="1.73746">
        <ele>1480.535</ele>
        <time>2021-03-23T14:02:56Z</time>
      </trkpt>
      <trkpt lat="42.80307" lon="1.73748">
        <ele>1479.906</ele>
        <time>2021-03-23T14:02:58Z</time>
      </trkpt>
      <trkpt lat="42.80307" lon="1.7375">
        <ele>1479.547</ele>
        <time>2021-03-23T14:03:00Z</time>
      </trkpt>
      <trkpt lat="42.80307" lon="1.73752">
        <ele>1478.659</ele>
        <time>2021-03-23T14:03:02Z</time>
      </trkpt>
      <trkpt lat="42.80306" lon="1.73755">
        <ele>1478.223</ele>
        <time>2021-03-23T14:03:04Z</time>
      </trkpt>
      <trkpt lat="42.80306" lon="1.73758">
        <ele>1477.651</ele>
        <time>2021-03-23T14:03:06Z</time>
      </trkpt>
      <trkpt lat="42.80308" lon="1.73759">
        <ele>1476.406</ele>
        <time>2021-03-23T14:03:08Z</time>
      </trkpt>
      <trkpt lat="42.80308" lon="1.73761">
        <ele>1476.704</ele>
        <time>2021-03-23T14:03:10Z</time>
      </trkpt>
      <trkpt lat="42.80309" lon="1.73762">
        <ele>1476.249</ele>
        <time>2021-03-23T14:03:12Z</time>
      </trkpt>
      <trkpt lat="42.8031" lon="1.73764">
        <ele>1476.31</ele>
        <time>2021-03-23T14:03:14Z</time>
      </trkpt>
      <trkpt lat="42.8031" lon="1.73766">
        <ele>1475.93</ele>
        <time>2021-03-23T14:03:16Z</time>
      </trkpt>
      <trkpt lat="42.8031" lon="1.73768">
        <ele>1476.017</ele>
        <time>2021-03-23T14:03:18Z</time>
      </trkpt>
      <trkpt lat="42.80309" lon="1.7377">
        <ele>1476.054</ele>
        <time>2021-03-23T14:03:20Z</time>
      </trkpt>
      <trkpt lat="42.8031" lon="1.73771">
        <ele>1475.871</ele>
        <time>2021-03-23T14:03:22Z</time>
      </trkpt>
      <trkpt lat="42.80311" lon="1.73773">
        <ele>1476.251</ele>
        <time>2021-03-23T14:03:24Z</time>
      </trkpt>
      <trkpt lat="42.80311" lon="1.73775">
        <ele>1475.453</ele>
        <time>2021-03-23T14:03:26Z</time>
      </trkpt>
      <trkpt lat="42.80311" lon="1.73776">
        <ele>1474.948</ele>
        <time>2021-03-23T14:03:28Z</time>
      </trkpt>
      <trkpt lat="42.8031" lon="1.73778">
        <ele>1473.762</ele>
        <time>2021-03-23T14:03:30Z</time>
      </trkpt>
      <trkpt lat="42.8031" lon="1.73781">
        <ele>1474.004</ele>
        <time>2021-03-23T14:03:32Z</time>
      </trkpt>
      <trkpt lat="42.8031" lon="1.73783">
        <ele>1474.342</ele>
        <time>2021-03-23T14:03:34Z</time>
      </trkpt>
      <trkpt lat="42.80311" lon="1.73787">
        <ele>1474.747</ele>
        <time>2021-03-23T14:03:36Z</time>
      </trkpt>
      <trkpt lat="42.80311" lon="1.73789">
        <ele>1474.627</ele>
        <time>2021-03-23T14:03:38Z</time>
      </trkpt>
      <trkpt lat="42.80311" lon="1.73792">
        <ele>1475.089</ele>
        <time>2021-03-23T14:03:40Z</time>
      </trkpt>
      <trkpt lat="42.8031" lon="1.73792">
        <ele>1473.628</ele>
        <time>2021-03-23T14:03:42Z</time>
      </trkpt>
      <trkpt lat="42.80309" lon="1.73794">
        <ele>1472.428</ele>
        <time>2021-03-23T14:03:44Z</time>
      </trkpt>
      <trkpt lat="42.80309" lon="1.73795">
        <ele>1472.745</ele>
        <time>2021-03-23T14:03:46Z</time>
      </trkpt>
      <trkpt lat="42.80308" lon="1.73797">
        <ele>1471.75</ele>
        <time>2021-03-23T14:03:48Z</time>
      </trkpt>
      <trkpt lat="42.80308" lon="1.73799">
        <ele>1472.236</ele>
        <time>2021-03-23T14:03:50Z</time>
      </trkpt>
      <trkpt lat="42.80308" lon="1.73801">
        <ele>1471.59</ele>
        <time>2021-03-23T14:03:52Z</time>
      </trkpt>
      <trkpt lat="42.80308" lon="1.73803">
        <ele>1471.43</ele>
        <time>2021-03-23T14:03:54Z</time>
      </trkpt>
      <trkpt lat="42.80308" lon="1.73804">
        <ele>1471.851</ele>
        <time>2021-03-23T14:03:55Z</time>
      </trkpt>
      <trkpt lat="42.80309" lon="1.73806">
        <ele>1471.584</ele>
        <time>2021-03-23T14:03:58Z</time>
      </trkpt>
      <trkpt lat="42.80309" lon="1.73808">
        <ele>1471.493</ele>
        <time>2021-03-23T14:04:00Z</time>
      </trkpt>
      <trkpt lat="42.80309" lon="1.73809">
        <ele>1471.409</ele>
        <time>2021-03-23T14:04:02Z</time>
      </trkpt>
      <trkpt lat="42.80309" lon="1.73811">
        <ele>1471.161</ele>
        <time>2021-03-23T14:04:04Z</time>
      </trkpt>
      <trkpt lat="42.80309" lon="1.73813">
        <ele>1471.286</ele>
        <time>2021-03-23T14:04:06Z</time>
      </trkpt>
      <trkpt lat="42.80309" lon="1.73814">
        <ele>1471.459</ele>
        <time>2021-03-23T14:04:08Z</time>
      </trkpt>
      <trkpt lat="42.8031" lon="1.73816">
        <ele>1471.812</ele>
        <time>2021-03-23T14:04:10Z</time>
      </trkpt>
      <trkpt lat="42.8031" lon="1.73817">
        <ele>1471.215</ele>
        <time>2021-03-23T14:04:12Z</time>
      </trkpt>
      <trkpt lat="42.80311" lon="1.73818">
        <ele>1471.21</ele>
        <time>2021-03-23T14:04:14Z</time>
      </trkpt>
      <trkpt lat="42.80311" lon="1.7382">
        <ele>1470.407</ele>
        <time>2021-03-23T14:04:16Z</time>
      </trkpt>
      <trkpt lat="42.8031" lon="1.73822">
        <ele>1470.281</ele>
        <time>2021-03-23T14:04:18Z</time>
      </trkpt>
      <trkpt lat="42.8031" lon="1.73823">
        <ele>1470.005</ele>
        <time>2021-03-23T14:04:20Z</time>
      </trkpt>
      <trkpt lat="42.8031" lon="1.73824">
        <ele>1470.475</ele>
        <time>2021-03-23T14:04:22Z</time>
      </trkpt>
      <trkpt lat="42.8031" lon="1.73826">
        <ele>1469.949</ele>
        <time>2021-03-23T14:04:24Z</time>
      </trkpt>
      <trkpt lat="42.8031" lon="1.73827">
        <ele>1468.934</ele>
        <time>2021-03-23T14:04:26Z</time>
      </trkpt>
      <trkpt lat="42.80309" lon="1.73829">
        <ele>1467.967</ele>
        <time>2021-03-23T14:04:28Z</time>
      </trkpt>
      <trkpt lat="42.80308" lon="1.73831">
        <ele>1467.781</ele>
        <time>2021-03-23T14:04:30Z</time>
      </trkpt>
      <trkpt lat="42.80308" lon="1.73833">
        <ele>1467.186</ele>
        <time>2021-03-23T14:04:32Z</time>
      </trkpt>
      <trkpt lat="42.80308" lon="1.73835">
        <ele>1466.271</ele>
        <time>2021-03-23T14:04:34Z</time>
      </trkpt>
      <trkpt lat="42.80307" lon="1.73836">
        <ele>1465.962</ele>
        <time>2021-03-23T14:04:36Z</time>
      </trkpt>
      <trkpt lat="42.80307" lon="1.73838">
        <ele>1465.968</ele>
        <time>2021-03-23T14:04:38Z</time>
      </trkpt>
      <trkpt lat="42.80307" lon="1.73841">
        <ele>1465.439</ele>
        <time>2021-03-23T14:04:40Z</time>
      </trkpt>
      <trkpt lat="42.80306" lon="1.73843">
        <ele>1464.765</ele>
        <time>2021-03-23T14:04:42Z</time>
      </trkpt>
      <trkpt lat="42.80305" lon="1.73845">
        <ele>1463.933</ele>
        <time>2021-03-23T14:04:44Z</time>
      </trkpt>
      <trkpt lat="42.80305" lon="1.73846">
        <ele>1463.897</ele>
        <time>2021-03-23T14:04:46Z</time>
      </trkpt>
      <trkpt lat="42.80306" lon="1.73848">
        <ele>1464.456</ele>
        <time>2021-03-23T14:04:48Z</time>
      </trkpt>
      <trkpt lat="42.80306" lon="1.7385">
        <ele>1463.28</ele>
        <time>2021-03-23T14:04:50Z</time>
      </trkpt>
      <trkpt lat="42.80305" lon="1.73851">
        <ele>1462.096</ele>
        <time>2021-03-23T14:04:52Z</time>
      </trkpt>
      <trkpt lat="42.80304" lon="1.73853">
        <ele>1461.718</ele>
        <time>2021-03-23T14:04:54Z</time>
      </trkpt>
      <trkpt lat="42.80304" lon="1.73855">
        <ele>1461.235</ele>
        <time>2021-03-23T14:04:56Z</time>
      </trkpt>
      <trkpt lat="42.80304" lon="1.73858">
        <ele>1460.762</ele>
        <time>2021-03-23T14:04:58Z</time>
      </trkpt>
      <trkpt lat="42.80304" lon="1.7386">
        <ele>1459.8</ele>
        <time>2021-03-23T14:05:00Z</time>
      </trkpt>
      <trkpt lat="42.80304" lon="1.73862">
        <ele>1459.395</ele>
        <time>2021-03-23T14:05:02Z</time>
      </trkpt>
      <trkpt lat="42.80303" lon="1.73864">
        <ele>1458.843</ele>
        <time>2021-03-23T14:05:04Z</time>
      </trkpt>
      <trkpt lat="42.80303" lon="1.73865">
        <ele>1457.732</ele>
        <time>2021-03-23T14:05:06Z</time>
      </trkpt>
      <trkpt lat="42.80304" lon="1.73867">
        <ele>1457.263</ele>
        <time>2021-03-23T14:05:08Z</time>
      </trkpt>
      <trkpt lat="42.80304" lon="1.73869">
        <ele>1456.439</ele>
        <time>2021-03-23T14:05:10Z</time>
      </trkpt>
      <trkpt lat="42.80304" lon="1.7387">
        <ele>1455.711</ele>
        <time>2021-03-23T14:05:12Z</time>
      </trkpt>
      <trkpt lat="42.80303" lon="1.73872">
        <ele>1454.637</ele>
        <time>2021-03-23T14:05:14Z</time>
      </trkpt>
      <trkpt lat="42.80303" lon="1.73872">
        <ele>1454.258</ele>
        <time>2021-03-23T14:05:16Z</time>
      </trkpt>
      <trkpt lat="42.80303" lon="1.73872">
        <ele>1453.825</ele>
        <time>2021-03-23T14:05:18Z</time>
      </trkpt>
      <trkpt lat="42.80303" lon="1.73873">
        <ele>1453.564</ele>
        <time>2021-03-23T14:05:20Z</time>
      </trkpt>
      <trkpt lat="42.80302" lon="1.73874">
        <ele>1453.059</ele>
        <time>2021-03-23T14:05:22Z</time>
      </trkpt>
      <trkpt lat="42.80302" lon="1.73876">
        <ele>1453.13</ele>
        <time>2021-03-23T14:05:24Z</time>
      </trkpt>
      <trkpt lat="42.80302" lon="1.73877">
        <ele>1453.082</ele>
        <time>2021-03-23T14:05:26Z</time>
      </trkpt>
      <trkpt lat="42.80301" lon="1.73878">
        <ele>1452.338</ele>
        <time>2021-03-23T14:05:28Z</time>
      </trkpt>
      <trkpt lat="42.80301" lon="1.73879">
        <ele>1451.524</ele>
        <time>2021-03-23T14:05:30Z</time>
      </trkpt>
      <trkpt lat="42.803" lon="1.7388">
        <ele>1451.193</ele>
        <time>2021-03-23T14:05:32Z</time>
      </trkpt>
      <trkpt lat="42.80299" lon="1.73881">
        <ele>1450.669</ele>
        <time>2021-03-23T14:05:34Z</time>
      </trkpt>
      <trkpt lat="42.80299" lon="1.73882">
        <ele>1449.98</ele>
        <time>2021-03-23T14:05:36Z</time>
      </trkpt>
      <trkpt lat="42.80299" lon="1.73884">
        <ele>1449.626</ele>
        <time>2021-03-23T14:05:38Z</time>
      </trkpt>
      <trkpt lat="42.80299" lon="1.73886">
        <ele>1449.282</ele>
        <time>2021-03-23T14:05:40Z</time>
      </trkpt>
      <trkpt lat="42.80299" lon="1.73887">
        <ele>1449.392</ele>
        <time>2021-03-23T14:05:42Z</time>
      </trkpt>
      <trkpt lat="42.803" lon="1.73888">
        <ele>1448.806</ele>
        <time>2021-03-23T14:05:44Z</time>
      </trkpt>
      <trkpt lat="42.803" lon="1.73889">
        <ele>1448.98</ele>
        <time>2021-03-23T14:05:46Z</time>
      </trkpt>
      <trkpt lat="42.803" lon="1.73891">
        <ele>1448.399</ele>
        <time>2021-03-23T14:05:48Z</time>
      </trkpt>
      <trkpt lat="42.803" lon="1.73892">
        <ele>1448.027</ele>
        <time>2021-03-23T14:05:50Z</time>
      </trkpt>
      <trkpt lat="42.80299" lon="1.73893">
        <ele>1447.285</ele>
        <time>2021-03-23T14:05:52Z</time>
      </trkpt>
      <trkpt lat="42.80299" lon="1.73893">
        <ele>1446.21</ele>
        <time>2021-03-23T14:05:54Z</time>
      </trkpt>
      <trkpt lat="42.803" lon="1.73894">
        <ele>1445.932</ele>
        <time>2021-03-23T14:05:56Z</time>
      </trkpt>
      <trkpt lat="42.80301" lon="1.73895">
        <ele>1445.283</ele>
        <time>2021-03-23T14:05:58Z</time>
      </trkpt>
      <trkpt lat="42.80301" lon="1.73895">
        <ele>1445.917</ele>
        <time>2021-03-23T14:06:00Z</time>
      </trkpt>
      <trkpt lat="42.803" lon="1.73896">
        <ele>1445.563</ele>
        <time>2021-03-23T14:06:02Z</time>
      </trkpt>
      <trkpt lat="42.803" lon="1.73897">
        <ele>1445.546</ele>
        <time>2021-03-23T14:06:04Z</time>
      </trkpt>
      <trkpt lat="42.803" lon="1.73898">
        <ele>1445.007</ele>
        <time>2021-03-23T14:06:06Z</time>
      </trkpt>
      <trkpt lat="42.803" lon="1.73899">
        <ele>1443.709</ele>
        <time>2021-03-23T14:06:08Z</time>
      </trkpt>
      <trkpt lat="42.803" lon="1.73899">
        <ele>1443.305</ele>
        <time>2021-03-23T14:06:10Z</time>
      </trkpt>
      <trkpt lat="42.803" lon="1.73899">
        <ele>1443.304</ele>
        <time>2021-03-23T14:06:12Z</time>
      </trkpt>
      <trkpt lat="42.803" lon="1.739">
        <ele>1443.261</ele>
        <time>2021-03-23T14:06:14Z</time>
      </trkpt>
      <trkpt lat="42.80299" lon="1.739">
        <ele>1443.606</ele>
        <time>2021-03-23T14:06:16Z</time>
      </trkpt>
      <trkpt lat="42.80298" lon="1.739">
        <ele>1443.06</ele>
        <time>2021-03-23T14:06:18Z</time>
      </trkpt>
      <trkpt lat="42.80298" lon="1.73901">
        <ele>1444.153</ele>
        <time>2021-03-23T14:06:20Z</time>
      </trkpt>
      <trkpt lat="42.80299" lon="1.73903">
        <ele>1444.155</ele>
        <time>2021-03-23T14:06:22Z</time>
      </trkpt>
      <trkpt lat="42.80298" lon="1.73903">
        <ele>1443.037</ele>
        <time>2021-03-23T14:06:24Z</time>
      </trkpt>
      <trkpt lat="42.80298" lon="1.73903">
        <ele>1441.372</ele>
        <time>2021-03-23T14:06:26Z</time>
      </trkpt>
      <trkpt lat="42.803" lon="1.73904">
        <ele>1440.681</ele>
        <time>2021-03-23T14:06:28Z</time>
      </trkpt>
      <trkpt lat="42.80299" lon="1.73908">
        <ele>1440.73</ele>
        <time>2021-03-23T14:06:30Z</time>
      </trkpt>
      <trkpt lat="42.80298" lon="1.73908">
        <ele>1440.963</ele>
        <time>2021-03-23T14:06:32Z</time>
      </trkpt>
      <trkpt lat="42.80298" lon="1.7391">
        <ele>1440.5</ele>
        <time>2021-03-23T14:06:34Z</time>
      </trkpt>
      <trkpt lat="42.80297" lon="1.73911">
        <ele>1440.314</ele>
        <time>2021-03-23T14:06:36Z</time>
      </trkpt>
      <trkpt lat="42.80297" lon="1.73912">
        <ele>1440.491</ele>
        <time>2021-03-23T14:06:38Z</time>
      </trkpt>
      <trkpt lat="42.80297" lon="1.73914">
        <ele>1439.305</ele>
        <time>2021-03-23T14:06:40Z</time>
      </trkpt>
      <trkpt lat="42.80297" lon="1.73915">
        <ele>1438.637</ele>
        <time>2021-03-23T14:06:42Z</time>
      </trkpt>
      <trkpt lat="42.80297" lon="1.73916">
        <ele>1438.939</ele>
        <time>2021-03-23T14:06:44Z</time>
      </trkpt>
      <trkpt lat="42.80297" lon="1.73917">
        <ele>1438.644</ele>
        <time>2021-03-23T14:06:46Z</time>
      </trkpt>
      <trkpt lat="42.80296" lon="1.73917">
        <ele>1437.462</ele>
        <time>2021-03-23T14:06:48Z</time>
      </trkpt>
      <trkpt lat="42.80295" lon="1.73918">
        <ele>1436.986</ele>
        <time>2021-03-23T14:06:50Z</time>
      </trkpt>
      <trkpt lat="42.80294" lon="1.73919">
        <ele>1436.295</ele>
        <time>2021-03-23T14:06:52Z</time>
      </trkpt>
      <trkpt lat="42.80294" lon="1.7392">
        <ele>1435.938</ele>
        <time>2021-03-23T14:06:54Z</time>
      </trkpt>
      <trkpt lat="42.80293" lon="1.73922">
        <ele>1435.236</ele>
        <time>2021-03-23T14:06:56Z</time>
      </trkpt>
      <trkpt lat="42.80292" lon="1.73923">
        <ele>1435.289</ele>
        <time>2021-03-23T14:06:58Z</time>
      </trkpt>
      <trkpt lat="42.8029" lon="1.73923">
        <ele>1435.563</ele>
        <time>2021-03-23T14:07:01Z</time>
      </trkpt>
      <trkpt lat="42.80289" lon="1.73924">
        <ele>1434.953</ele>
        <time>2021-03-23T14:07:03Z</time>
      </trkpt>
      <trkpt lat="42.80288" lon="1.73924">
        <ele>1434.893</ele>
        <time>2021-03-23T14:07:05Z</time>
      </trkpt>
      <trkpt lat="42.80287" lon="1.73925">
        <ele>1435.203</ele>
        <time>2021-03-23T14:07:07Z</time>
      </trkpt>
      <trkpt lat="42.80286" lon="1.73926">
        <ele>1434.445</ele>
        <time>2021-03-23T14:07:09Z</time>
      </trkpt>
      <trkpt lat="42.80285" lon="1.73928">
        <ele>1433.826</ele>
        <time>2021-03-23T14:07:11Z</time>
      </trkpt>
      <trkpt lat="42.80285" lon="1.73929">
        <ele>1433.909</ele>
        <time>2021-03-23T14:07:13Z</time>
      </trkpt>
      <trkpt lat="42.80285" lon="1.7393">
        <ele>1433.313</ele>
        <time>2021-03-23T14:07:15Z</time>
      </trkpt>
      <trkpt lat="42.80284" lon="1.7393">
        <ele>1432.549</ele>
        <time>2021-03-23T14:07:17Z</time>
      </trkpt>
      <trkpt lat="42.80283" lon="1.73931">
        <ele>1431.971</ele>
        <time>2021-03-23T14:07:19Z</time>
      </trkpt>
      <trkpt lat="42.80282" lon="1.73931">
        <ele>1431.4</ele>
        <time>2021-03-23T14:07:21Z</time>
      </trkpt>
      <trkpt lat="42.80281" lon="1.73932">
        <ele>1430.75</ele>
        <time>2021-03-23T14:07:23Z</time>
      </trkpt>
      <trkpt lat="42.8028" lon="1.73933">
        <ele>1430.429</ele>
        <time>2021-03-23T14:07:25Z</time>
      </trkpt>
      <trkpt lat="42.80279" lon="1.73934">
        <ele>1430.113</ele>
        <time>2021-03-23T14:07:27Z</time>
      </trkpt>
      <trkpt lat="42.80278" lon="1.73935">
        <ele>1429.457</ele>
        <time>2021-03-23T14:07:29Z</time>
      </trkpt>
      <trkpt lat="42.80278" lon="1.73937">
        <ele>1428.942</ele>
        <time>2021-03-23T14:07:31Z</time>
      </trkpt>
      <trkpt lat="42.80279" lon="1.73938">
        <ele>1427.294</ele>
        <time>2021-03-23T14:07:33Z</time>
      </trkpt>
      <trkpt lat="42.80279" lon="1.73939">
        <ele>1425.025</ele>
        <time>2021-03-23T14:07:35Z</time>
      </trkpt>
      <trkpt lat="42.80278" lon="1.7394">
        <ele>1424.633</ele>
        <time>2021-03-23T14:07:37Z</time>
      </trkpt>
      <trkpt lat="42.80277" lon="1.73941">
        <ele>1424.584</ele>
        <time>2021-03-23T14:07:39Z</time>
      </trkpt>
      <trkpt lat="42.80276" lon="1.73943">
        <ele>1423.166</ele>
        <time>2021-03-23T14:07:41Z</time>
      </trkpt>
      <trkpt lat="42.80276" lon="1.73943">
        <ele>1422.675</ele>
        <time>2021-03-23T14:07:43Z</time>
      </trkpt>
      <trkpt lat="42.80276" lon="1.73943">
        <ele>1421.431</ele>
        <time>2021-03-23T14:07:45Z</time>
      </trkpt>
      <trkpt lat="42.80276" lon="1.73944">
        <ele>1419.473</ele>
        <time>2021-03-23T14:07:47Z</time>
      </trkpt>
      <trkpt lat="42.80277" lon="1.73944">
        <ele>1419.02</ele>
        <time>2021-03-23T14:07:49Z</time>
      </trkpt>
      <trkpt lat="42.80277" lon="1.73945">
        <ele>1418.717</ele>
        <time>2021-03-23T14:07:51Z</time>
      </trkpt>
      <trkpt lat="42.80277" lon="1.73945">
        <ele>1418.471</ele>
        <time>2021-03-23T14:07:53Z</time>
      </trkpt>
      <trkpt lat="42.80277" lon="1.73946">
        <ele>1418.191</ele>
        <time>2021-03-23T14:07:55Z</time>
      </trkpt>
      <trkpt lat="42.80277" lon="1.73946">
        <ele>1417.679</ele>
        <time>2021-03-23T14:07:57Z</time>
      </trkpt>
      <trkpt lat="42.80276" lon="1.73947">
        <ele>1418.15</ele>
        <time>2021-03-23T14:07:59Z</time>
      </trkpt>
      <trkpt lat="42.80276" lon="1.73948">
        <ele>1418.072</ele>
        <time>2021-03-23T14:08:01Z</time>
      </trkpt>
      <trkpt lat="42.80276" lon="1.73949">
        <ele>1418.349</ele>
        <time>2021-03-23T14:08:03Z</time>
      </trkpt>
      <trkpt lat="42.80276" lon="1.73949">
        <ele>1418.079</ele>
        <time>2021-03-23T14:08:05Z</time>
      </trkpt>
      <trkpt lat="42.80276" lon="1.7395">
        <ele>1418.371</ele>
        <time>2021-03-23T14:08:07Z</time>
      </trkpt>
      <trkpt lat="42.80276" lon="1.7395">
        <ele>1418.341</ele>
        <time>2021-03-23T14:08:09Z</time>
      </trkpt>
      <trkpt lat="42.80275" lon="1.7395">
        <ele>1417.766</ele>
        <time>2021-03-23T14:08:11Z</time>
      </trkpt>
      <trkpt lat="42.80276" lon="1.73952">
        <ele>1418.358</ele>
        <time>2021-03-23T14:08:13Z</time>
      </trkpt>
      <trkpt lat="42.80277" lon="1.73954">
        <ele>1417.882</ele>
        <time>2021-03-23T14:08:15Z</time>
      </trkpt>
      <trkpt lat="42.80278" lon="1.73955">
        <ele>1417.465</ele>
        <time>2021-03-23T14:08:17Z</time>
      </trkpt>
      <trkpt lat="42.80278" lon="1.73956">
        <ele>1416.124</ele>
        <time>2021-03-23T14:08:19Z</time>
      </trkpt>
      <trkpt lat="42.80278" lon="1.73957">
        <ele>1415.186</ele>
        <time>2021-03-23T14:08:21Z</time>
      </trkpt>
      <trkpt lat="42.80279" lon="1.73959">
        <ele>1414.691</ele>
        <time>2021-03-23T14:08:23Z</time>
      </trkpt>
      <trkpt lat="42.80279" lon="1.7396">
        <ele>1414.366</ele>
        <time>2021-03-23T14:08:25Z</time>
      </trkpt>
      <trkpt lat="42.80279" lon="1.73961">
        <ele>1413.621</ele>
        <time>2021-03-23T14:08:27Z</time>
      </trkpt>
      <trkpt lat="42.8028" lon="1.73963">
        <ele>1414.461</ele>
        <time>2021-03-23T14:08:29Z</time>
      </trkpt>
      <trkpt lat="42.80279" lon="1.73964">
        <ele>1414.175</ele>
        <time>2021-03-23T14:08:31Z</time>
      </trkpt>
      <trkpt lat="42.80278" lon="1.73966">
        <ele>1413.83</ele>
        <time>2021-03-23T14:08:33Z</time>
      </trkpt>
      <trkpt lat="42.80277" lon="1.73966">
        <ele>1413.17</ele>
        <time>2021-03-23T14:08:35Z</time>
      </trkpt>
      <trkpt lat="42.80275" lon="1.73967">
        <ele>1412.329</ele>
        <time>2021-03-23T14:08:37Z</time>
      </trkpt>
      <trkpt lat="42.80274" lon="1.73968">
        <ele>1412.114</ele>
        <time>2021-03-23T14:08:39Z</time>
      </trkpt>
      <trkpt lat="42.80274" lon="1.73969">
        <ele>1411.98</ele>
        <time>2021-03-23T14:08:41Z</time>
      </trkpt>
      <trkpt lat="42.80276" lon="1.7397">
        <ele>1410.3</ele>
        <time>2021-03-23T14:08:43Z</time>
      </trkpt>
      <trkpt lat="42.80276" lon="1.73971">
        <ele>1410.17</ele>
        <time>2021-03-23T14:08:45Z</time>
      </trkpt>
      <trkpt lat="42.80275" lon="1.73972">
        <ele>1410.326</ele>
        <time>2021-03-23T14:08:47Z</time>
      </trkpt>
      <trkpt lat="42.80274" lon="1.73972">
        <ele>1409.644</ele>
        <time>2021-03-23T14:08:49Z</time>
      </trkpt>
      <trkpt lat="42.80274" lon="1.73973">
        <ele>1408.607</ele>
        <time>2021-03-23T14:08:51Z</time>
      </trkpt>
      <trkpt lat="42.80275" lon="1.73974">
        <ele>1407.927</ele>
        <time>2021-03-23T14:08:53Z</time>
      </trkpt>
      <trkpt lat="42.80274" lon="1.73975">
        <ele>1407.531</ele>
        <time>2021-03-23T14:08:55Z</time>
      </trkpt>
      <trkpt lat="42.80273" lon="1.73976">
        <ele>1406.788</ele>
        <time>2021-03-23T14:08:57Z</time>
      </trkpt>
      <trkpt lat="42.80272" lon="1.73977">
        <ele>1406.537</ele>
        <time>2021-03-23T14:08:59Z</time>
      </trkpt>
      <trkpt lat="42.80272" lon="1.73977">
        <ele>1405.55</ele>
        <time>2021-03-23T14:09:01Z</time>
      </trkpt>
      <trkpt lat="42.80272" lon="1.73979">
        <ele>1405.537</ele>
        <time>2021-03-23T14:09:03Z</time>
      </trkpt>
      <trkpt lat="42.80272" lon="1.73981">
        <ele>1405.351</ele>
        <time>2021-03-23T14:09:05Z</time>
      </trkpt>
      <trkpt lat="42.80272" lon="1.73983">
        <ele>1406.028</ele>
        <time>2021-03-23T14:09:07Z</time>
      </trkpt>
      <trkpt lat="42.80272" lon="1.73985">
        <ele>1406.111</ele>
        <time>2021-03-23T14:09:09Z</time>
      </trkpt>
      <trkpt lat="42.80272" lon="1.73985">
        <ele>1404.466</ele>
        <time>2021-03-23T14:09:11Z</time>
      </trkpt>
      <trkpt lat="42.80272" lon="1.73986">
        <ele>1403.72</ele>
        <time>2021-03-23T14:09:13Z</time>
      </trkpt>
      <trkpt lat="42.80272" lon="1.73988">
        <ele>1403.258</ele>
        <time>2021-03-23T14:09:15Z</time>
      </trkpt>
      <trkpt lat="42.80271" lon="1.73989">
        <ele>1402.419</ele>
        <time>2021-03-23T14:09:17Z</time>
      </trkpt>
      <trkpt lat="42.80271" lon="1.73991">
        <ele>1402.686</ele>
        <time>2021-03-23T14:09:19Z</time>
      </trkpt>
      <trkpt lat="42.80271" lon="1.73993">
        <ele>1402.553</ele>
        <time>2021-03-23T14:09:21Z</time>
      </trkpt>
      <trkpt lat="42.80271" lon="1.73994">
        <ele>1403.013</ele>
        <time>2021-03-23T14:09:23Z</time>
      </trkpt>
      <trkpt lat="42.8027" lon="1.73995">
        <ele>1401.647</ele>
        <time>2021-03-23T14:09:25Z</time>
      </trkpt>
      <trkpt lat="42.8027" lon="1.73996">
        <ele>1400.754</ele>
        <time>2021-03-23T14:09:27Z</time>
      </trkpt>
      <trkpt lat="42.8027" lon="1.73998">
        <ele>1400.701</ele>
        <time>2021-03-23T14:09:29Z</time>
      </trkpt>
      <trkpt lat="42.80269" lon="1.73999">
        <ele>1399.889</ele>
        <time>2021-03-23T14:09:31Z</time>
      </trkpt>
      <trkpt lat="42.80269" lon="1.73999">
        <ele>1399.67</ele>
        <time>2021-03-23T14:09:33Z</time>
      </trkpt>
      <trkpt lat="42.80268" lon="1.74001">
        <ele>1400.143</ele>
        <time>2021-03-23T14:09:35Z</time>
      </trkpt>
      <trkpt lat="42.80267" lon="1.74002">
        <ele>1399.822</ele>
        <time>2021-03-23T14:09:37Z</time>
      </trkpt>
      <trkpt lat="42.80268" lon="1.74004">
        <ele>1399.269</ele>
        <time>2021-03-23T14:09:39Z</time>
      </trkpt>
      <trkpt lat="42.80268" lon="1.74006">
        <ele>1399.144</ele>
        <time>2021-03-23T14:09:41Z</time>
      </trkpt>
      <trkpt lat="42.80269" lon="1.74007">
        <ele>1398.505</ele>
        <time>2021-03-23T14:09:43Z</time>
      </trkpt>
      <trkpt lat="42.80269" lon="1.74008">
        <ele>1398.225</ele>
        <time>2021-03-23T14:09:45Z</time>
      </trkpt>
      <trkpt lat="42.80268" lon="1.74009">
        <ele>1396.882</ele>
        <time>2021-03-23T14:09:47Z</time>
      </trkpt>
      <trkpt lat="42.80267" lon="1.74011">
        <ele>1397.239</ele>
        <time>2021-03-23T14:09:49Z</time>
      </trkpt>
      <trkpt lat="42.80268" lon="1.74012">
        <ele>1398.101</ele>
        <time>2021-03-23T14:09:51Z</time>
      </trkpt>
      <trkpt lat="42.80268" lon="1.74013">
        <ele>1397.036</ele>
        <time>2021-03-23T14:09:53Z</time>
      </trkpt>
      <trkpt lat="42.80268" lon="1.74015">
        <ele>1397.181</ele>
        <time>2021-03-23T14:09:55Z</time>
      </trkpt>
      <trkpt lat="42.80268" lon="1.74017">
        <ele>1396.761</ele>
        <time>2021-03-23T14:09:57Z</time>
      </trkpt>
      <trkpt lat="42.80269" lon="1.74018">
        <ele>1395.732</ele>
        <time>2021-03-23T14:09:59Z</time>
      </trkpt>
      <trkpt lat="42.80269" lon="1.74019">
        <ele>1395.04</ele>
        <time>2021-03-23T14:10:01Z</time>
      </trkpt>
      <trkpt lat="42.80269" lon="1.7402">
        <ele>1395.08</ele>
        <time>2021-03-23T14:10:03Z</time>
      </trkpt>
      <trkpt lat="42.8027" lon="1.74022">
        <ele>1395.484</ele>
        <time>2021-03-23T14:10:05Z</time>
      </trkpt>
      <trkpt lat="42.80271" lon="1.74024">
        <ele>1394.478</ele>
        <time>2021-03-23T14:10:07Z</time>
      </trkpt>
      <trkpt lat="42.80271" lon="1.74025">
        <ele>1393.987</ele>
        <time>2021-03-23T14:10:09Z</time>
      </trkpt>
      <trkpt lat="42.80271" lon="1.74027">
        <ele>1393.369</ele>
        <time>2021-03-23T14:10:11Z</time>
      </trkpt>
      <trkpt lat="42.80272" lon="1.74029">
        <ele>1392.564</ele>
        <time>2021-03-23T14:10:13Z</time>
      </trkpt>
      <trkpt lat="42.80272" lon="1.74031">
        <ele>1392.493</ele>
        <time>2021-03-23T14:10:15Z</time>
      </trkpt>
      <trkpt lat="42.80272" lon="1.74033">
        <ele>1392.549</ele>
        <time>2021-03-23T14:10:17Z</time>
      </trkpt>
      <trkpt lat="42.80273" lon="1.74035">
        <ele>1392.076</ele>
        <time>2021-03-23T14:10:19Z</time>
      </trkpt>
      <trkpt lat="42.80273" lon="1.74037">
        <ele>1392.349</ele>
        <time>2021-03-23T14:10:21Z</time>
      </trkpt>
      <trkpt lat="42.80273" lon="1.74038">
        <ele>1392.382</ele>
        <time>2021-03-23T14:10:23Z</time>
      </trkpt>
      <trkpt lat="42.80274" lon="1.7404">
        <ele>1392.109</ele>
        <time>2021-03-23T14:10:25Z</time>
      </trkpt>
      <trkpt lat="42.80274" lon="1.74041">
        <ele>1391.776</ele>
        <time>2021-03-23T14:10:27Z</time>
      </trkpt>
      <trkpt lat="42.80274" lon="1.74042">
        <ele>1390.947</ele>
        <time>2021-03-23T14:10:29Z</time>
      </trkpt>
      <trkpt lat="42.80274" lon="1.74045">
        <ele>1390.144</ele>
        <time>2021-03-23T14:10:31Z</time>
      </trkpt>
      <trkpt lat="42.80273" lon="1.74046">
        <ele>1389.238</ele>
        <time>2021-03-23T14:10:33Z</time>
      </trkpt>
      <trkpt lat="42.80274" lon="1.74048">
        <ele>1389.536</ele>
        <time>2021-03-23T14:10:35Z</time>
      </trkpt>
      <trkpt lat="42.80274" lon="1.74049">
        <ele>1389.651</ele>
        <time>2021-03-23T14:10:37Z</time>
      </trkpt>
      <trkpt lat="42.80274" lon="1.74051">
        <ele>1389.828</ele>
        <time>2021-03-23T14:10:39Z</time>
      </trkpt>
      <trkpt lat="42.80274" lon="1.74053">
        <ele>1390.016</ele>
        <time>2021-03-23T14:10:41Z</time>
      </trkpt>
      <trkpt lat="42.80274" lon="1.74054">
        <ele>1389.071</ele>
        <time>2021-03-23T14:10:43Z</time>
      </trkpt>
      <trkpt lat="42.80274" lon="1.74054">
        <ele>1389.373</ele>
        <time>2021-03-23T14:10:44Z</time>
      </trkpt>
      <trkpt lat="42.80274" lon="1.74055">
        <ele>1389.024</ele>
        <time>2021-03-23T14:10:47Z</time>
      </trkpt>
      <trkpt lat="42.80273" lon="1.74057">
        <ele>1389.877</ele>
        <time>2021-03-23T14:10:49Z</time>
      </trkpt>
      <trkpt lat="42.80273" lon="1.74058">
        <ele>1388.611</ele>
        <time>2021-03-23T14:10:51Z</time>
      </trkpt>
      <trkpt lat="42.80273" lon="1.74059">
        <ele>1385.386</ele>
        <time>2021-03-23T14:10:53Z</time>
      </trkpt>
      <trkpt lat="42.80272" lon="1.74059">
        <ele>1384.346</ele>
        <time>2021-03-23T14:10:55Z</time>
      </trkpt>
      <trkpt lat="42.8027" lon="1.74058">
        <ele>1383.186</ele>
        <time>2021-03-23T14:10:57Z</time>
      </trkpt>
      <trkpt lat="42.80269" lon="1.74058">
        <ele>1383.032</ele>
        <time>2021-03-23T14:10:59Z</time>
      </trkpt>
      <trkpt lat="42.80267" lon="1.74058">
        <ele>1383.521</ele>
        <time>2021-03-23T14:11:01Z</time>
      </trkpt>
      <trkpt lat="42.80266" lon="1.74058">
        <ele>1384.202</ele>
        <time>2021-03-23T14:11:03Z</time>
      </trkpt>
      <trkpt lat="42.80265" lon="1.74059">
        <ele>1383.321</ele>
        <time>2021-03-23T14:11:05Z</time>
      </trkpt>
      <trkpt lat="42.80264" lon="1.74058">
        <ele>1381.771</ele>
        <time>2021-03-23T14:11:07Z</time>
      </trkpt>
      <trkpt lat="42.80264" lon="1.74056">
        <ele>1381.596</ele>
        <time>2021-03-23T14:11:09Z</time>
      </trkpt>
      <trkpt lat="42.80265" lon="1.74056">
        <ele>1381.277</ele>
        <time>2021-03-23T14:11:11Z</time>
      </trkpt>
      <trkpt lat="42.80265" lon="1.74055">
        <ele>1381.279</ele>
        <time>2021-03-23T14:11:13Z</time>
      </trkpt>
      <trkpt lat="42.80266" lon="1.74055">
        <ele>1380.945</ele>
        <time>2021-03-23T14:11:15Z</time>
      </trkpt>
      <trkpt lat="42.80266" lon="1.74055">
        <ele>1380.241</ele>
        <time>2021-03-23T14:11:17Z</time>
      </trkpt>
      <trkpt lat="42.80267" lon="1.74055">
        <ele>1380.164</ele>
        <time>2021-03-23T14:11:19Z</time>
      </trkpt>
      <trkpt lat="42.80267" lon="1.74055">
        <ele>1380.16</ele>
        <time>2021-03-23T14:11:21Z</time>
      </trkpt>
      <trkpt lat="42.80267" lon="1.74055">
        <ele>1380.157</ele>
        <time>2021-03-23T14:11:23Z</time>
      </trkpt>
      <trkpt lat="42.80267" lon="1.74055">
        <ele>1380.151</ele>
        <time>2021-03-23T14:11:25Z</time>
      </trkpt>
      <trkpt lat="42.80267" lon="1.74055">
        <ele>1380.151</ele>
        <time>2021-03-23T14:11:27Z</time>
      </trkpt>
      <trkpt lat="42.80267" lon="1.74055">
        <ele>1380.155</ele>
        <time>2021-03-23T14:11:29Z</time>
      </trkpt>
      <trkpt lat="42.80267" lon="1.74055">
        <ele>1380.152</ele>
        <time>2021-03-23T14:11:31Z</time>
      </trkpt>
      <trkpt lat="42.80267" lon="1.74055">
        <ele>1380.158</ele>
        <time>2021-03-23T14:11:33Z</time>
      </trkpt>
      <trkpt lat="42.80267" lon="1.74055">
        <ele>1380.161</ele>
        <time>2021-03-23T14:11:35Z</time>
      </trkpt>
      <trkpt lat="42.80267" lon="1.74055">
        <ele>1380.162</ele>
        <time>2021-03-23T14:11:37Z</time>
      </trkpt>
      <trkpt lat="42.80267" lon="1.74055">
        <ele>1380.164</ele>
        <time>2021-03-23T14:11:39Z</time>
      </trkpt>
      <trkpt lat="42.80266" lon="1.74054">
        <ele>1380.267</ele>
        <time>2021-03-23T14:11:41Z</time>
      </trkpt>
      <trkpt lat="42.80265" lon="1.74054">
        <ele>1379.821</ele>
        <time>2021-03-23T14:11:43Z</time>
      </trkpt>
      <trkpt lat="42.80264" lon="1.74054">
        <ele>1379.555</ele>
        <time>2021-03-23T14:11:45Z</time>
      </trkpt>
      <trkpt lat="42.80263" lon="1.74054">
        <ele>1379.124</ele>
        <time>2021-03-23T14:11:47Z</time>
      </trkpt>
      <trkpt lat="42.80262" lon="1.74053">
        <ele>1378.77</ele>
        <time>2021-03-23T14:11:49Z</time>
      </trkpt>
      <trkpt lat="42.80261" lon="1.74053">
        <ele>1378.908</ele>
        <time>2021-03-23T14:11:51Z</time>
      </trkpt>
      <trkpt lat="42.80259" lon="1.74052">
        <ele>1379.703</ele>
        <time>2021-03-23T14:11:53Z</time>
      </trkpt>
      <trkpt lat="42.8026" lon="1.74052">
        <ele>1378.847</ele>
        <time>2021-03-23T14:11:55Z</time>
      </trkpt>
      <trkpt lat="42.8026" lon="1.74052">
        <ele>1378.836</ele>
        <time>2021-03-23T14:11:57Z</time>
      </trkpt>
      <trkpt lat="42.8026" lon="1.74052">
        <ele>1378.831</ele>
        <time>2021-03-23T14:11:59Z</time>
      </trkpt>
      <trkpt lat="42.8026" lon="1.74052">
        <ele>1378.945</ele>
        <time>2021-03-23T14:12:01Z</time>
      </trkpt>
      <trkpt lat="42.8026" lon="1.74052">
        <ele>1378.945</ele>
        <time>2021-03-23T14:12:03Z</time>
      </trkpt>
      <trkpt lat="42.80261" lon="1.74052">
        <ele>1378.809</ele>
        <time>2021-03-23T14:12:05Z</time>
      </trkpt>
      <trkpt lat="42.8026" lon="1.74051">
        <ele>1379.183</ele>
        <time>2021-03-23T14:12:07Z</time>
      </trkpt>
      <trkpt lat="42.8026" lon="1.74051">
        <ele>1379.544</ele>
        <time>2021-03-23T14:12:09Z</time>
      </trkpt>
      <trkpt lat="42.8026" lon="1.74051">
        <ele>1379.543</ele>
        <time>2021-03-23T14:12:11Z</time>
      </trkpt>
      <trkpt lat="42.8026" lon="1.74051">
        <ele>1379.543</ele>
        <time>2021-03-23T14:12:13Z</time>
      </trkpt>
      <trkpt lat="42.80259" lon="1.74051">
        <ele>1379.581</ele>
        <time>2021-03-23T14:12:15Z</time>
      </trkpt>
      <trkpt lat="42.80259" lon="1.74051">
        <ele>1379.578</ele>
        <time>2021-03-23T14:12:17Z</time>
      </trkpt>
      <trkpt lat="42.80259" lon="1.74052">
        <ele>1379.581</ele>
        <time>2021-03-23T14:12:19Z</time>
      </trkpt>
      <trkpt lat="42.80259" lon="1.74052">
        <ele>1379.718</ele>
        <time>2021-03-23T14:12:21Z</time>
      </trkpt>
      <trkpt lat="42.80259" lon="1.74052">
        <ele>1379.714</ele>
        <time>2021-03-23T14:12:23Z</time>
      </trkpt>
      <trkpt lat="42.80259" lon="1.74052">
        <ele>1379.712</ele>
        <time>2021-03-23T14:12:25Z</time>
      </trkpt>
      <trkpt lat="42.80259" lon="1.74053">
        <ele>1379.952</ele>
        <time>2021-03-23T14:12:27Z</time>
      </trkpt>
      <trkpt lat="42.80259" lon="1.74053">
        <ele>1379.636</ele>
        <time>2021-03-23T14:12:29Z</time>
      </trkpt>
      <trkpt lat="42.80259" lon="1.74053">
        <ele>1379.629</ele>
        <time>2021-03-23T14:12:31Z</time>
      </trkpt>
      <trkpt lat="42.80259" lon="1.74053">
        <ele>1379.636</ele>
        <time>2021-03-23T14:12:33Z</time>
      </trkpt>
      <trkpt lat="42.80259" lon="1.74053">
        <ele>1379.636</ele>
        <time>2021-03-23T14:12:35Z</time>
      </trkpt>
      <trkpt lat="42.80258" lon="1.74053">
        <ele>1379.466</ele>
        <time>2021-03-23T14:12:37Z</time>
      </trkpt>
      <trkpt lat="42.80258" lon="1.74052">
        <ele>1379.777</ele>
        <time>2021-03-23T14:12:39Z</time>
      </trkpt>
      <trkpt lat="42.80256" lon="1.74051">
        <ele>1379.482</ele>
        <time>2021-03-23T14:12:41Z</time>
      </trkpt>
      <trkpt lat="42.80254" lon="1.7405">
        <ele>1378.86</ele>
        <time>2021-03-23T14:12:43Z</time>
      </trkpt>
      <trkpt lat="42.80253" lon="1.74048">
        <ele>1378.894</ele>
        <time>2021-03-23T14:12:45Z</time>
      </trkpt>
      <trkpt lat="42.80251" lon="1.74047">
        <ele>1378.192</ele>
        <time>2021-03-23T14:12:47Z</time>
      </trkpt>
      <trkpt lat="42.8025" lon="1.74045">
        <ele>1378.095</ele>
        <time>2021-03-23T14:12:49Z</time>
      </trkpt>
      <trkpt lat="42.80248" lon="1.74044">
        <ele>1378.852</ele>
        <time>2021-03-23T14:12:51Z</time>
      </trkpt>
      <trkpt lat="42.80246" lon="1.74044">
        <ele>1378.769</ele>
        <time>2021-03-23T14:12:53Z</time>
      </trkpt>
      <trkpt lat="42.80244" lon="1.74043">
        <ele>1379.021</ele>
        <time>2021-03-23T14:12:55Z</time>
      </trkpt>
      <trkpt lat="42.80242" lon="1.74042">
        <ele>1377.631</ele>
        <time>2021-03-23T14:12:57Z</time>
      </trkpt>
      <trkpt lat="42.80241" lon="1.74041">
        <ele>1377.057</ele>
        <time>2021-03-23T14:12:59Z</time>
      </trkpt>
      <trkpt lat="42.80239" lon="1.7404">
        <ele>1376.8</ele>
        <time>2021-03-23T14:13:01Z</time>
      </trkpt>
      <trkpt lat="42.80238" lon="1.74039">
        <ele>1377.352</ele>
        <time>2021-03-23T14:13:03Z</time>
      </trkpt>
      <trkpt lat="42.80237" lon="1.74038">
        <ele>1378.539</ele>
        <time>2021-03-23T14:13:05Z</time>
      </trkpt>
      <trkpt lat="42.80235" lon="1.74037">
        <ele>1377.241</ele>
        <time>2021-03-23T14:13:07Z</time>
      </trkpt>
      <trkpt lat="42.80234" lon="1.74036">
        <ele>1376.596</ele>
        <time>2021-03-23T14:13:09Z</time>
      </trkpt>
      <trkpt lat="42.80232" lon="1.74036">
        <ele>1374.625</ele>
        <time>2021-03-23T14:13:11Z</time>
      </trkpt>
      <trkpt lat="42.80231" lon="1.74035">
        <ele>1374.248</ele>
        <time>2021-03-23T14:13:13Z</time>
      </trkpt>
      <trkpt lat="42.8023" lon="1.74034">
        <ele>1374.089</ele>
        <time>2021-03-23T14:13:15Z</time>
      </trkpt>
      <trkpt lat="42.80229" lon="1.74033">
        <ele>1374.45</ele>
        <time>2021-03-23T14:13:17Z</time>
      </trkpt>
      <trkpt lat="42.80229" lon="1.74033">
        <ele>1374.189</ele>
        <time>2021-03-23T14:13:19Z</time>
      </trkpt>
      <trkpt lat="42.80229" lon="1.74034">
        <ele>1374.092</ele>
        <time>2021-03-23T14:13:21Z</time>
      </trkpt>
      <trkpt lat="42.80228" lon="1.74034">
        <ele>1374.294</ele>
        <time>2021-03-23T14:13:23Z</time>
      </trkpt>
      <trkpt lat="42.80228" lon="1.74034">
        <ele>1372.29</ele>
        <time>2021-03-23T14:13:25Z</time>
      </trkpt>
      <trkpt lat="42.80226" lon="1.74034">
        <ele>1372.617</ele>
        <time>2021-03-23T14:13:27Z</time>
      </trkpt>
      <trkpt lat="42.80225" lon="1.74033">
        <ele>1371.637</ele>
        <time>2021-03-23T14:13:29Z</time>
      </trkpt>
      <trkpt lat="42.80223" lon="1.74033">
        <ele>1371.088</ele>
        <time>2021-03-23T14:13:31Z</time>
      </trkpt>
      <trkpt lat="42.80222" lon="1.74033">
        <ele>1369.827</ele>
        <time>2021-03-23T14:13:33Z</time>
      </trkpt>
      <trkpt lat="42.80221" lon="1.74032">
        <ele>1369.068</ele>
        <time>2021-03-23T14:13:35Z</time>
      </trkpt>
      <trkpt lat="42.80219" lon="1.74033">
        <ele>1367.884</ele>
        <time>2021-03-23T14:13:37Z</time>
      </trkpt>
      <trkpt lat="42.80217" lon="1.74034">
        <ele>1367.803</ele>
        <time>2021-03-23T14:13:39Z</time>
      </trkpt>
      <trkpt lat="42.80215" lon="1.74035">
        <ele>1366.898</ele>
        <time>2021-03-23T14:13:41Z</time>
      </trkpt>
      <trkpt lat="42.80213" lon="1.74035">
        <ele>1366.945</ele>
        <time>2021-03-23T14:13:43Z</time>
      </trkpt>
      <trkpt lat="42.80211" lon="1.74035">
        <ele>1364.722</ele>
        <time>2021-03-23T14:13:45Z</time>
      </trkpt>
      <trkpt lat="42.80209" lon="1.74035">
        <ele>1365.194</ele>
        <time>2021-03-23T14:13:47Z</time>
      </trkpt>
      <trkpt lat="42.80208" lon="1.74035">
        <ele>1364.945</ele>
        <time>2021-03-23T14:13:49Z</time>
      </trkpt>
      <trkpt lat="42.80206" lon="1.74036">
        <ele>1365.114</ele>
        <time>2021-03-23T14:13:51Z</time>
      </trkpt>
      <trkpt lat="42.80204" lon="1.74036">
        <ele>1365.512</ele>
        <time>2021-03-23T14:13:53Z</time>
      </trkpt>
      <trkpt lat="42.80205" lon="1.74035">
        <ele>1364.749</ele>
        <time>2021-03-23T14:13:55Z</time>
      </trkpt>
      <trkpt lat="42.80205" lon="1.74035">
        <ele>1364.75</ele>
        <time>2021-03-23T14:13:57Z</time>
      </trkpt>
      <trkpt lat="42.80205" lon="1.74035">
        <ele>1364.74</ele>
        <time>2021-03-23T14:13:59Z</time>
      </trkpt>
      <trkpt lat="42.80205" lon="1.74035">
        <ele>1364.735</ele>
        <time>2021-03-23T14:14:01Z</time>
      </trkpt>
      <trkpt lat="42.80205" lon="1.74035">
        <ele>1364.733</ele>
        <time>2021-03-23T14:14:03Z</time>
      </trkpt>
      <trkpt lat="42.80205" lon="1.74035">
        <ele>1364.735</ele>
        <time>2021-03-23T14:14:05Z</time>
      </trkpt>
      <trkpt lat="42.80205" lon="1.74035">
        <ele>1364.748</ele>
        <time>2021-03-23T14:14:07Z</time>
      </trkpt>
      <trkpt lat="42.80205" lon="1.74035">
        <ele>1364.757</ele>
        <time>2021-03-23T14:14:09Z</time>
      </trkpt>
      <trkpt lat="42.80205" lon="1.74035">
        <ele>1364.763</ele>
        <time>2021-03-23T14:14:11Z</time>
      </trkpt>
      <trkpt lat="42.80205" lon="1.74035">
        <ele>1364.804</ele>
        <time>2021-03-23T14:14:13Z</time>
      </trkpt>
      <trkpt lat="42.80205" lon="1.74035">
        <ele>1364.792</ele>
        <time>2021-03-23T14:14:15Z</time>
      </trkpt>
      <trkpt lat="42.80205" lon="1.74034">
        <ele>1364.043</ele>
        <time>2021-03-23T14:14:17Z</time>
      </trkpt>
      <trkpt lat="42.80205" lon="1.74034">
        <ele>1364.029</ele>
        <time>2021-03-23T14:14:19Z</time>
      </trkpt>
      <trkpt lat="42.80205" lon="1.74034">
        <ele>1364.038</ele>
        <time>2021-03-23T14:14:21Z</time>
      </trkpt>
      <trkpt lat="42.80205" lon="1.74034">
        <ele>1364.042</ele>
        <time>2021-03-23T14:14:23Z</time>
      </trkpt>
      <trkpt lat="42.80205" lon="1.74034">
        <ele>1364.038</ele>
        <time>2021-03-23T14:14:25Z</time>
      </trkpt>
      <trkpt lat="42.80205" lon="1.74034">
        <ele>1364.042</ele>
        <time>2021-03-23T14:14:27Z</time>
      </trkpt>
      <trkpt lat="42.80205" lon="1.74034">
        <ele>1363.919</ele>
        <time>2021-03-23T14:14:29Z</time>
      </trkpt>
      <trkpt lat="42.80206" lon="1.74034">
        <ele>1363.91</ele>
        <time>2021-03-23T14:14:31Z</time>
      </trkpt>
      <trkpt lat="42.80206" lon="1.74034">
        <ele>1363.352</ele>
        <time>2021-03-23T14:14:33Z</time>
      </trkpt>
      <trkpt lat="42.80206" lon="1.74034">
        <ele>1363.352</ele>
        <time>2021-03-23T14:14:35Z</time>
      </trkpt>
      <trkpt lat="42.80205" lon="1.74034">
        <ele>1364.377</ele>
        <time>2021-03-23T14:14:37Z</time>
      </trkpt>
      <trkpt lat="42.80205" lon="1.74034">
        <ele>1364.394</ele>
        <time>2021-03-23T14:14:39Z</time>
      </trkpt>
      <trkpt lat="42.80205" lon="1.74034">
        <ele>1365.157</ele>
        <time>2021-03-23T14:14:41Z</time>
      </trkpt>
      <trkpt lat="42.80205" lon="1.74034">
        <ele>1365.151</ele>
        <time>2021-03-23T14:14:43Z</time>
      </trkpt>
      <trkpt lat="42.80205" lon="1.74035">
        <ele>1364.791</ele>
        <time>2021-03-23T14:14:45Z</time>
      </trkpt>
      <trkpt lat="42.80204" lon="1.74034">
        <ele>1364.703</ele>
        <time>2021-03-23T14:14:47Z</time>
      </trkpt>
      <trkpt lat="42.80204" lon="1.74034">
        <ele>1364.697</ele>
        <time>2021-03-23T14:14:48Z</time>
      </trkpt>
      <trkpt lat="42.80204" lon="1.74034">
        <ele>1364.684</ele>
        <time>2021-03-23T14:14:51Z</time>
      </trkpt>
      <trkpt lat="42.80204" lon="1.74034">
        <ele>1364.685</ele>
        <time>2021-03-23T14:14:53Z</time>
      </trkpt>
      <trkpt lat="42.80204" lon="1.74034">
        <ele>1364.679</ele>
        <time>2021-03-23T14:14:55Z</time>
      </trkpt>
      <trkpt lat="42.80204" lon="1.74034">
        <ele>1364.671</ele>
        <time>2021-03-23T14:14:57Z</time>
      </trkpt>
      <trkpt lat="42.80204" lon="1.74034">
        <ele>1364.671</ele>
        <time>2021-03-23T14:14:59Z</time>
      </trkpt>
      <trkpt lat="42.80204" lon="1.74034">
        <ele>1364.887</ele>
        <time>2021-03-23T14:15:01Z</time>
      </trkpt>
      <trkpt lat="42.80205" lon="1.74034">
        <ele>1365.611</ele>
        <time>2021-03-23T14:15:03Z</time>
      </trkpt>
      <trkpt lat="42.80205" lon="1.74034">
        <ele>1365.623</ele>
        <time>2021-03-23T14:15:05Z</time>
      </trkpt>
      <trkpt lat="42.80205" lon="1.74034">
        <ele>1365.607</ele>
        <time>2021-03-23T14:15:07Z</time>
      </trkpt>
      <trkpt lat="42.80205" lon="1.74034">
        <ele>1365.602</ele>
        <time>2021-03-23T14:15:09Z</time>
      </trkpt>
      <trkpt lat="42.80205" lon="1.74034">
        <ele>1365.604</ele>
        <time>2021-03-23T14:15:11Z</time>
      </trkpt>
      <trkpt lat="42.80205" lon="1.74034">
        <ele>1365.6</ele>
        <time>2021-03-23T14:15:13Z</time>
      </trkpt>
      <trkpt lat="42.80205" lon="1.74034">
        <ele>1365.593</ele>
        <time>2021-03-23T14:15:15Z</time>
      </trkpt>
      <trkpt lat="42.80205" lon="1.74034">
        <ele>1365.59</ele>
        <time>2021-03-23T14:15:17Z</time>
      </trkpt>
      <trkpt lat="42.80205" lon="1.74034">
        <ele>1365.58</ele>
        <time>2021-03-23T14:15:19Z</time>
      </trkpt>
      <trkpt lat="42.80205" lon="1.74034">
        <ele>1365.576</ele>
        <time>2021-03-23T14:15:21Z</time>
      </trkpt>
      <trkpt lat="42.80205" lon="1.74034">
        <ele>1365.573</ele>
        <time>2021-03-23T14:15:23Z</time>
      </trkpt>
      <trkpt lat="42.80205" lon="1.74034">
        <ele>1365.569</ele>
        <time>2021-03-23T14:15:25Z</time>
      </trkpt>
      <trkpt lat="42.80205" lon="1.74034">
        <ele>1365.552</ele>
        <time>2021-03-23T14:15:27Z</time>
      </trkpt>
      <trkpt lat="42.80205" lon="1.74034">
        <ele>1365.552</ele>
        <time>2021-03-23T14:15:29Z</time>
      </trkpt>
      <trkpt lat="42.80205" lon="1.74034">
        <ele>1365.554</ele>
        <time>2021-03-23T14:15:31Z</time>
      </trkpt>
      <trkpt lat="42.80205" lon="1.74034">
        <ele>1365.55</ele>
        <time>2021-03-23T14:15:33Z</time>
      </trkpt>
      <trkpt lat="42.80205" lon="1.74034">
        <ele>1365.559</ele>
        <time>2021-03-23T14:15:35Z</time>
      </trkpt>
      <trkpt lat="42.80205" lon="1.74034">
        <ele>1365.561</ele>
        <time>2021-03-23T14:15:37Z</time>
      </trkpt>
      <trkpt lat="42.80205" lon="1.74034">
        <ele>1365.567</ele>
        <time>2021-03-23T14:15:39Z</time>
      </trkpt>
      <trkpt lat="42.80205" lon="1.74034">
        <ele>1365.559</ele>
        <time>2021-03-23T14:15:41Z</time>
      </trkpt>
      <trkpt lat="42.80205" lon="1.74033">
        <ele>1365.429</ele>
        <time>2021-03-23T14:15:43Z</time>
      </trkpt>
      <trkpt lat="42.80205" lon="1.74033">
        <ele>1365.42</ele>
        <time>2021-03-23T14:15:45Z</time>
      </trkpt>
      <trkpt lat="42.80205" lon="1.74033">
        <ele>1365.422</ele>
        <time>2021-03-23T14:15:47Z</time>
      </trkpt>
      <trkpt lat="42.80205" lon="1.74033">
        <ele>1365.417</ele>
        <time>2021-03-23T14:15:49Z</time>
      </trkpt>
      <trkpt lat="42.80205" lon="1.74033">
        <ele>1365.413</ele>
        <time>2021-03-23T14:15:51Z</time>
      </trkpt>
      <trkpt lat="42.80205" lon="1.74033">
        <ele>1365.405</ele>
        <time>2021-03-23T14:15:53Z</time>
      </trkpt>
      <trkpt lat="42.80205" lon="1.74033">
        <ele>1365.399</ele>
        <time>2021-03-23T14:15:55Z</time>
      </trkpt>
      <trkpt lat="42.80205" lon="1.74033">
        <ele>1365.403</ele>
        <time>2021-03-23T14:15:57Z</time>
      </trkpt>
      <trkpt lat="42.80205" lon="1.74033">
        <ele>1365.395</ele>
        <time>2021-03-23T14:15:59Z</time>
      </trkpt>
      <trkpt lat="42.80203" lon="1.74034">
        <ele>1365.403</ele>
        <time>2021-03-23T14:16:01Z</time>
      </trkpt>
      <trkpt lat="42.80202" lon="1.74033">
        <ele>1365.48</ele>
        <time>2021-03-23T14:16:03Z</time>
      </trkpt>
      <trkpt lat="42.80202" lon="1.74032">
        <ele>1364.339</ele>
        <time>2021-03-23T14:16:05Z</time>
      </trkpt>
      <trkpt lat="42.80201" lon="1.74032">
        <ele>1363.662</ele>
        <time>2021-03-23T14:16:07Z</time>
      </trkpt>
      <trkpt lat="42.80199" lon="1.74032">
        <ele>1362.717</ele>
        <time>2021-03-23T14:16:09Z</time>
      </trkpt>
      <trkpt lat="42.80197" lon="1.74032">
        <ele>1361.532</ele>
        <time>2021-03-23T14:16:11Z</time>
      </trkpt>
      <trkpt lat="42.80196" lon="1.74032">
        <ele>1361.05</ele>
        <time>2021-03-23T14:16:13Z</time>
      </trkpt>
      <trkpt lat="42.80194" lon="1.74032">
        <ele>1360.642</ele>
        <time>2021-03-23T14:16:15Z</time>
      </trkpt>
      <trkpt lat="42.80192" lon="1.74032">
        <ele>1359.373</ele>
        <time>2021-03-23T14:16:17Z</time>
      </trkpt>
      <trkpt lat="42.8019" lon="1.74031">
        <ele>1358.341</ele>
        <time>2021-03-23T14:16:19Z</time>
      </trkpt>
      <trkpt lat="42.80188" lon="1.74031">
        <ele>1357.247</ele>
        <time>2021-03-23T14:16:21Z</time>
      </trkpt>
      <trkpt lat="42.80187" lon="1.74031">
        <ele>1356.69</ele>
        <time>2021-03-23T14:16:23Z</time>
      </trkpt>
      <trkpt lat="42.80185" lon="1.74032">
        <ele>1355.783</ele>
        <time>2021-03-23T14:16:25Z</time>
      </trkpt>
      <trkpt lat="42.80182" lon="1.74032">
        <ele>1355.648</ele>
        <time>2021-03-23T14:16:27Z</time>
      </trkpt>
      <trkpt lat="42.80179" lon="1.74031">
        <ele>1356.654</ele>
        <time>2021-03-23T14:16:29Z</time>
      </trkpt>
      <trkpt lat="42.80176" lon="1.7403">
        <ele>1356.151</ele>
        <time>2021-03-23T14:16:31Z</time>
      </trkpt>
      <trkpt lat="42.80174" lon="1.74029">
        <ele>1355.843</ele>
        <time>2021-03-23T14:16:33Z</time>
      </trkpt>
      <trkpt lat="42.80172" lon="1.74028">
        <ele>1354.351</ele>
        <time>2021-03-23T14:16:35Z</time>
      </trkpt>
      <trkpt lat="42.80169" lon="1.74027">
        <ele>1353.557</ele>
        <time>2021-03-23T14:16:37Z</time>
      </trkpt>
      <trkpt lat="42.80167" lon="1.74027">
        <ele>1353.075</ele>
        <time>2021-03-23T14:16:39Z</time>
      </trkpt>
      <trkpt lat="42.80165" lon="1.74027">
        <ele>1352.751</ele>
        <time>2021-03-23T14:16:41Z</time>
      </trkpt>
      <trkpt lat="42.80162" lon="1.74027">
        <ele>1351.319</ele>
        <time>2021-03-23T14:16:43Z</time>
      </trkpt>
      <trkpt lat="42.8016" lon="1.74026">
        <ele>1351.365</ele>
        <time>2021-03-23T14:16:45Z</time>
      </trkpt>
      <trkpt lat="42.80158" lon="1.74025">
        <ele>1351.565</ele>
        <time>2021-03-23T14:16:47Z</time>
      </trkpt>
      <trkpt lat="42.80155" lon="1.74025">
        <ele>1350.868</ele>
        <time>2021-03-23T14:16:49Z</time>
      </trkpt>
      <trkpt lat="42.80153" lon="1.74024">
        <ele>1350.384</ele>
        <time>2021-03-23T14:16:51Z</time>
      </trkpt>
      <trkpt lat="42.80151" lon="1.74023">
        <ele>1350.691</ele>
        <time>2021-03-23T14:16:53Z</time>
      </trkpt>
      <trkpt lat="42.80149" lon="1.74025">
        <ele>1348.75</ele>
        <time>2021-03-23T14:16:55Z</time>
      </trkpt>
      <trkpt lat="42.80147" lon="1.74025">
        <ele>1348.788</ele>
        <time>2021-03-23T14:16:57Z</time>
      </trkpt>
      <trkpt lat="42.80146" lon="1.74027">
        <ele>1347.764</ele>
        <time>2021-03-23T14:16:59Z</time>
      </trkpt>
      <trkpt lat="42.80143" lon="1.74027">
        <ele>1350.508</ele>
        <time>2021-03-23T14:17:01Z</time>
      </trkpt>
      <trkpt lat="42.8014" lon="1.74027">
        <ele>1351.442</ele>
        <time>2021-03-23T14:17:03Z</time>
      </trkpt>
      <trkpt lat="42.80137" lon="1.74028">
        <ele>1353.719</ele>
        <time>2021-03-23T14:17:05Z</time>
      </trkpt>
      <trkpt lat="42.80135" lon="1.74029">
        <ele>1351.781</ele>
        <time>2021-03-23T14:17:07Z</time>
      </trkpt>
      <trkpt lat="42.80134" lon="1.74029">
        <ele>1348.9</ele>
        <time>2021-03-23T14:17:09Z</time>
      </trkpt>
      <trkpt lat="42.80132" lon="1.74028">
        <ele>1348.798</ele>
        <time>2021-03-23T14:17:11Z</time>
      </trkpt>
      <trkpt lat="42.8013" lon="1.74029">
        <ele>1348.086</ele>
        <time>2021-03-23T14:17:13Z</time>
      </trkpt>
      <trkpt lat="42.80129" lon="1.74029">
        <ele>1345.87</ele>
        <time>2021-03-23T14:17:15Z</time>
      </trkpt>
      <trkpt lat="42.80126" lon="1.74029">
        <ele>1346.223</ele>
        <time>2021-03-23T14:17:17Z</time>
      </trkpt>
      <trkpt lat="42.80124" lon="1.74029">
        <ele>1345.906</ele>
        <time>2021-03-23T14:17:19Z</time>
      </trkpt>
      <trkpt lat="42.80122" lon="1.7403">
        <ele>1346.135</ele>
        <time>2021-03-23T14:17:21Z</time>
      </trkpt>
      <trkpt lat="42.8012" lon="1.74031">
        <ele>1346.124</ele>
        <time>2021-03-23T14:17:23Z</time>
      </trkpt>
      <trkpt lat="42.80118" lon="1.74033">
        <ele>1345.056</ele>
        <time>2021-03-23T14:17:25Z</time>
      </trkpt>
      <trkpt lat="42.80116" lon="1.74033">
        <ele>1346.582</ele>
        <time>2021-03-23T14:17:27Z</time>
      </trkpt>
      <trkpt lat="42.80114" lon="1.74034">
        <ele>1347.59</ele>
        <time>2021-03-23T14:17:29Z</time>
      </trkpt>
      <trkpt lat="42.80114" lon="1.74035">
        <ele>1345.38</ele>
        <time>2021-03-23T14:17:31Z</time>
      </trkpt>
      <trkpt lat="42.80114" lon="1.74035">
        <ele>1345.397</ele>
        <time>2021-03-23T14:17:33Z</time>
      </trkpt>
      <trkpt lat="42.80114" lon="1.74037">
        <ele>1345.501</ele>
        <time>2021-03-23T14:17:35Z</time>
      </trkpt>
      <trkpt lat="42.80112" lon="1.74038">
        <ele>1346.357</ele>
        <time>2021-03-23T14:17:37Z</time>
      </trkpt>
      <trkpt lat="42.80112" lon="1.74039">
        <ele>1343.842</ele>
        <time>2021-03-23T14:17:39Z</time>
      </trkpt>
      <trkpt lat="42.80111" lon="1.74041">
        <ele>1342.946</ele>
        <time>2021-03-23T14:17:41Z</time>
      </trkpt>
      <trkpt lat="42.80112" lon="1.74043">
        <ele>1343.16</ele>
        <time>2021-03-23T14:17:43Z</time>
      </trkpt>
      <trkpt lat="42.80111" lon="1.74045">
        <ele>1342.701</ele>
        <time>2021-03-23T14:17:45Z</time>
      </trkpt>
      <trkpt lat="42.8011" lon="1.74046">
        <ele>1342.997</ele>
        <time>2021-03-23T14:17:47Z</time>
      </trkpt>
      <trkpt lat="42.80109" lon="1.74048">
        <ele>1342.699</ele>
        <time>2021-03-23T14:17:49Z</time>
      </trkpt>
      <trkpt lat="42.80109" lon="1.74048">
        <ele>1342.932</ele>
        <time>2021-03-23T14:17:51Z</time>
      </trkpt>
      <trkpt lat="42.80108" lon="1.74049">
        <ele>1342.127</ele>
        <time>2021-03-23T14:17:53Z</time>
      </trkpt>
      <trkpt lat="42.80107" lon="1.74051">
        <ele>1341.06</ele>
        <time>2021-03-23T14:17:55Z</time>
      </trkpt>
      <trkpt lat="42.80106" lon="1.74052">
        <ele>1340.597</ele>
        <time>2021-03-23T14:17:57Z</time>
      </trkpt>
      <trkpt lat="42.80105" lon="1.74052">
        <ele>1339.193</ele>
        <time>2021-03-23T14:17:59Z</time>
      </trkpt>
      <trkpt lat="42.80103" lon="1.74053">
        <ele>1337.924</ele>
        <time>2021-03-23T14:18:01Z</time>
      </trkpt>
      <trkpt lat="42.80102" lon="1.74053">
        <ele>1337.742</ele>
        <time>2021-03-23T14:18:03Z</time>
      </trkpt>
      <trkpt lat="42.801" lon="1.74053">
        <ele>1336.821</ele>
        <time>2021-03-23T14:18:05Z</time>
      </trkpt>
      <trkpt lat="42.80099" lon="1.74052">
        <ele>1336.131</ele>
        <time>2021-03-23T14:18:07Z</time>
      </trkpt>
      <trkpt lat="42.80097" lon="1.74051">
        <ele>1335.224</ele>
        <time>2021-03-23T14:18:09Z</time>
      </trkpt>
      <trkpt lat="42.80096" lon="1.7405">
        <ele>1334.741</ele>
        <time>2021-03-23T14:18:11Z</time>
      </trkpt>
      <trkpt lat="42.80094" lon="1.74049">
        <ele>1334.417</ele>
        <time>2021-03-23T14:18:13Z</time>
      </trkpt>
      <trkpt lat="42.80093" lon="1.74049">
        <ele>1333.905</ele>
        <time>2021-03-23T14:18:15Z</time>
      </trkpt>
      <trkpt lat="42.80091" lon="1.74048">
        <ele>1332.857</ele>
        <time>2021-03-23T14:18:17Z</time>
      </trkpt>
      <trkpt lat="42.80089" lon="1.74047">
        <ele>1331.631</ele>
        <time>2021-03-23T14:18:19Z</time>
      </trkpt>
      <trkpt lat="42.80087" lon="1.74049">
        <ele>1330.224</ele>
        <time>2021-03-23T14:18:21Z</time>
      </trkpt>
      <trkpt lat="42.80086" lon="1.74049">
        <ele>1329.312</ele>
        <time>2021-03-23T14:18:23Z</time>
      </trkpt>
      <trkpt lat="42.80084" lon="1.7405">
        <ele>1330.145</ele>
        <time>2021-03-23T14:18:25Z</time>
      </trkpt>
      <trkpt lat="42.80084" lon="1.74053">
        <ele>1330.214</ele>
        <time>2021-03-23T14:18:27Z</time>
      </trkpt>
      <trkpt lat="42.80085" lon="1.74055">
        <ele>1330.247</ele>
        <time>2021-03-23T14:18:29Z</time>
      </trkpt>
      <trkpt lat="42.80085" lon="1.74056">
        <ele>1329.812</ele>
        <time>2021-03-23T14:18:31Z</time>
      </trkpt>
      <trkpt lat="42.80083" lon="1.74055">
        <ele>1329.302</ele>
        <time>2021-03-23T14:18:33Z</time>
      </trkpt>
      <trkpt lat="42.80081" lon="1.74054">
        <ele>1328.819</ele>
        <time>2021-03-23T14:18:35Z</time>
      </trkpt>
      <trkpt lat="42.8008" lon="1.74053">
        <ele>1327.762</ele>
        <time>2021-03-23T14:18:37Z</time>
      </trkpt>
      <trkpt lat="42.80078" lon="1.74051">
        <ele>1326.568</ele>
        <time>2021-03-23T14:18:39Z</time>
      </trkpt>
      <trkpt lat="42.80077" lon="1.7405">
        <ele>1325.292</ele>
        <time>2021-03-23T14:18:41Z</time>
      </trkpt>
      <trkpt lat="42.80075" lon="1.74049">
        <ele>1324.359</ele>
        <time>2021-03-23T14:18:43Z</time>
      </trkpt>
      <trkpt lat="42.80074" lon="1.74048">
        <ele>1323.54</ele>
        <time>2021-03-23T14:18:45Z</time>
      </trkpt>
      <trkpt lat="42.80072" lon="1.74047">
        <ele>1322.555</ele>
        <time>2021-03-23T14:18:47Z</time>
      </trkpt>
      <trkpt lat="42.8007" lon="1.74046">
        <ele>1321.598</ele>
        <time>2021-03-23T14:18:49Z</time>
      </trkpt>
      <trkpt lat="42.80068" lon="1.74045">
        <ele>1321.651</ele>
        <time>2021-03-23T14:18:51Z</time>
      </trkpt>
      <trkpt lat="42.80066" lon="1.74044">
        <ele>1321.873</ele>
        <time>2021-03-23T14:18:53Z</time>
      </trkpt>
      <trkpt lat="42.80065" lon="1.74043">
        <ele>1321.689</ele>
        <time>2021-03-23T14:18:55Z</time>
      </trkpt>
      <trkpt lat="42.80065" lon="1.7404">
        <ele>1321.199</ele>
        <time>2021-03-23T14:18:57Z</time>
      </trkpt>
      <trkpt lat="42.80065" lon="1.74038">
        <ele>1320.95</ele>
        <time>2021-03-23T14:18:59Z</time>
      </trkpt>
      <trkpt lat="42.80064" lon="1.74038">
        <ele>1320.707</ele>
        <time>2021-03-23T14:19:01Z</time>
      </trkpt>
      <trkpt lat="42.80062" lon="1.74039">
        <ele>1320.92</ele>
        <time>2021-03-23T14:19:03Z</time>
      </trkpt>
      <trkpt lat="42.8006" lon="1.74037">
        <ele>1320.471</ele>
        <time>2021-03-23T14:19:05Z</time>
      </trkpt>
      <trkpt lat="42.80059" lon="1.74036">
        <ele>1319.582</ele>
        <time>2021-03-23T14:19:07Z</time>
      </trkpt>
      <trkpt lat="42.80057" lon="1.74035">
        <ele>1318.974</ele>
        <time>2021-03-23T14:19:09Z</time>
      </trkpt>
      <trkpt lat="42.80057" lon="1.74033">
        <ele>1318.09</ele>
        <time>2021-03-23T14:19:11Z</time>
      </trkpt>
      <trkpt lat="42.80056" lon="1.74032">
        <ele>1317.592</ele>
        <time>2021-03-23T14:19:13Z</time>
      </trkpt>
      <trkpt lat="42.80055" lon="1.74031">
        <ele>1318.044</ele>
        <time>2021-03-23T14:19:15Z</time>
      </trkpt>
      <trkpt lat="42.80054" lon="1.74029">
        <ele>1317.373</ele>
        <time>2021-03-23T14:19:17Z</time>
      </trkpt>
      <trkpt lat="42.80053" lon="1.74029">
        <ele>1317.294</ele>
        <time>2021-03-23T14:19:19Z</time>
      </trkpt>
      <trkpt lat="42.80051" lon="1.74028">
        <ele>1316.891</ele>
        <time>2021-03-23T14:19:21Z</time>
      </trkpt>
      <trkpt lat="42.8005" lon="1.74027">
        <ele>1316.678</ele>
        <time>2021-03-23T14:19:23Z</time>
      </trkpt>
      <trkpt lat="42.80049" lon="1.74027">
        <ele>1315.928</ele>
        <time>2021-03-23T14:19:25Z</time>
      </trkpt>
      <trkpt lat="42.80047" lon="1.74028">
        <ele>1315.486</ele>
        <time>2021-03-23T14:19:27Z</time>
      </trkpt>
      <trkpt lat="42.80046" lon="1.74027">
        <ele>1315.188</ele>
        <time>2021-03-23T14:19:29Z</time>
      </trkpt>
      <trkpt lat="42.80045" lon="1.74027">
        <ele>1313.974</ele>
        <time>2021-03-23T14:19:31Z</time>
      </trkpt>
      <trkpt lat="42.80043" lon="1.74026">
        <ele>1313.939</ele>
        <time>2021-03-23T14:19:33Z</time>
      </trkpt>
      <trkpt lat="42.80043" lon="1.74025">
        <ele>1312.265</ele>
        <time>2021-03-23T14:19:35Z</time>
      </trkpt>
      <trkpt lat="42.80042" lon="1.74023">
        <ele>1312.197</ele>
        <time>2021-03-23T14:19:37Z</time>
      </trkpt>
      <trkpt lat="42.80041" lon="1.74021">
        <ele>1311.296</ele>
        <time>2021-03-23T14:19:40Z</time>
      </trkpt>
      <trkpt lat="42.8004" lon="1.74021">
        <ele>1310.541</ele>
        <time>2021-03-23T14:19:42Z</time>
      </trkpt>
      <trkpt lat="42.80039" lon="1.74019">
        <ele>1309.938</ele>
        <time>2021-03-23T14:19:44Z</time>
      </trkpt>
      <trkpt lat="42.80037" lon="1.74017">
        <ele>1309.438</ele>
        <time>2021-03-23T14:19:46Z</time>
      </trkpt>
      <trkpt lat="42.80036" lon="1.74016">
        <ele>1308.51</ele>
        <time>2021-03-23T14:19:48Z</time>
      </trkpt>
      <trkpt lat="42.80035" lon="1.74015">
        <ele>1307.176</ele>
        <time>2021-03-23T14:19:50Z</time>
      </trkpt>
      <trkpt lat="42.80034" lon="1.74014">
        <ele>1306.208</ele>
        <time>2021-03-23T14:19:52Z</time>
      </trkpt>
      <trkpt lat="42.80033" lon="1.74012">
        <ele>1306.311</ele>
        <time>2021-03-23T14:19:54Z</time>
      </trkpt>
      <trkpt lat="42.80032" lon="1.7401">
        <ele>1305.831</ele>
        <time>2021-03-23T14:19:56Z</time>
      </trkpt>
      <trkpt lat="42.80031" lon="1.74007">
        <ele>1305.862</ele>
        <time>2021-03-23T14:19:58Z</time>
      </trkpt>
      <trkpt lat="42.8003" lon="1.74006">
        <ele>1305.814</ele>
        <time>2021-03-23T14:20:00Z</time>
      </trkpt>
      <trkpt lat="42.80029" lon="1.74004">
        <ele>1305.404</ele>
        <time>2021-03-23T14:20:02Z</time>
      </trkpt>
      <trkpt lat="42.80029" lon="1.74002">
        <ele>1304.793</ele>
        <time>2021-03-23T14:20:04Z</time>
      </trkpt>
      <trkpt lat="42.80028" lon="1.74">
        <ele>1304.766</ele>
        <time>2021-03-23T14:20:06Z</time>
      </trkpt>
      <trkpt lat="42.80028" lon="1.73997">
        <ele>1304.451</ele>
        <time>2021-03-23T14:20:08Z</time>
      </trkpt>
      <trkpt lat="42.80027" lon="1.73995">
        <ele>1303.657</ele>
        <time>2021-03-23T14:20:10Z</time>
      </trkpt>
      <trkpt lat="42.80027" lon="1.73993">
        <ele>1302.797</ele>
        <time>2021-03-23T14:20:12Z</time>
      </trkpt>
      <trkpt lat="42.80026" lon="1.7399">
        <ele>1302.448</ele>
        <time>2021-03-23T14:20:14Z</time>
      </trkpt>
      <trkpt lat="42.80026" lon="1.73987">
        <ele>1301.835</ele>
        <time>2021-03-23T14:20:16Z</time>
      </trkpt>
      <trkpt lat="42.80025" lon="1.73983">
        <ele>1301.702</ele>
        <time>2021-03-23T14:20:18Z</time>
      </trkpt>
      <trkpt lat="42.80024" lon="1.73981">
        <ele>1302.33</ele>
        <time>2021-03-23T14:20:20Z</time>
      </trkpt>
      <trkpt lat="42.80022" lon="1.73979">
        <ele>1302.288</ele>
        <time>2021-03-23T14:20:22Z</time>
      </trkpt>
      <trkpt lat="42.80021" lon="1.73977">
        <ele>1302.24</ele>
        <time>2021-03-23T14:20:24Z</time>
      </trkpt>
      <trkpt lat="42.8002" lon="1.73975">
        <ele>1300.963</ele>
        <time>2021-03-23T14:20:26Z</time>
      </trkpt>
      <trkpt lat="42.80018" lon="1.73972">
        <ele>1301.751</ele>
        <time>2021-03-23T14:20:28Z</time>
      </trkpt>
      <trkpt lat="42.80017" lon="1.73971">
        <ele>1302.338</ele>
        <time>2021-03-23T14:20:30Z</time>
      </trkpt>
      <trkpt lat="42.80016" lon="1.73971">
        <ele>1302.714</ele>
        <time>2021-03-23T14:20:32Z</time>
      </trkpt>
      <trkpt lat="42.80014" lon="1.73969">
        <ele>1302.508</ele>
        <time>2021-03-23T14:20:34Z</time>
      </trkpt>
      <trkpt lat="42.80013" lon="1.73967">
        <ele>1302.332</ele>
        <time>2021-03-23T14:20:36Z</time>
      </trkpt>
      <trkpt lat="42.80012" lon="1.73966">
        <ele>1301.396</ele>
        <time>2021-03-23T14:20:38Z</time>
      </trkpt>
      <trkpt lat="42.8001" lon="1.73964">
        <ele>1301</ele>
        <time>2021-03-23T14:20:40Z</time>
      </trkpt>
      <trkpt lat="42.8001" lon="1.73962">
        <ele>1299.854</ele>
        <time>2021-03-23T14:20:42Z</time>
      </trkpt>
      <trkpt lat="42.80009" lon="1.73961">
        <ele>1298.547</ele>
        <time>2021-03-23T14:20:44Z</time>
      </trkpt>
      <trkpt lat="42.80007" lon="1.73959">
        <ele>1297.995</ele>
        <time>2021-03-23T14:20:46Z</time>
      </trkpt>
      <trkpt lat="42.80006" lon="1.73958">
        <ele>1296.883</ele>
        <time>2021-03-23T14:20:48Z</time>
      </trkpt>
      <trkpt lat="42.80005" lon="1.73957">
        <ele>1296.677</ele>
        <time>2021-03-23T14:20:50Z</time>
      </trkpt>
      <trkpt lat="42.80003" lon="1.73956">
        <ele>1296.269</ele>
        <time>2021-03-23T14:20:52Z</time>
      </trkpt>
      <trkpt lat="42.80002" lon="1.73955">
        <ele>1295.159</ele>
        <time>2021-03-23T14:20:54Z</time>
      </trkpt>
      <trkpt lat="42.8" lon="1.73955">
        <ele>1294.44</ele>
        <time>2021-03-23T14:20:56Z</time>
      </trkpt>
      <trkpt lat="42.79999" lon="1.73954">
        <ele>1293.464</ele>
        <time>2021-03-23T14:20:58Z</time>
      </trkpt>
      <trkpt lat="42.79997" lon="1.73951">
        <ele>1293.223</ele>
        <time>2021-03-23T14:21:00Z</time>
      </trkpt>
      <trkpt lat="42.79996" lon="1.7395">
        <ele>1293.283</ele>
        <time>2021-03-23T14:21:02Z</time>
      </trkpt>
      <trkpt lat="42.79995" lon="1.73948">
        <ele>1292.872</ele>
        <time>2021-03-23T14:21:04Z</time>
      </trkpt>
      <trkpt lat="42.79993" lon="1.73946">
        <ele>1292.86</ele>
        <time>2021-03-23T14:21:06Z</time>
      </trkpt>
      <trkpt lat="42.79991" lon="1.73945">
        <ele>1292.439</ele>
        <time>2021-03-23T14:21:08Z</time>
      </trkpt>
      <trkpt lat="42.7999" lon="1.73944">
        <ele>1291.997</ele>
        <time>2021-03-23T14:21:10Z</time>
      </trkpt>
      <trkpt lat="42.79989" lon="1.73941">
        <ele>1291.4</ele>
        <time>2021-03-23T14:21:12Z</time>
      </trkpt>
      <trkpt lat="42.79989" lon="1.73939">
        <ele>1292.655</ele>
        <time>2021-03-23T14:21:14Z</time>
      </trkpt>
      <trkpt lat="42.79987" lon="1.73936">
        <ele>1292.577</ele>
        <time>2021-03-23T14:21:16Z</time>
      </trkpt>
      <trkpt lat="42.79986" lon="1.73934">
        <ele>1292.684</ele>
        <time>2021-03-23T14:21:18Z</time>
      </trkpt>
      <trkpt lat="42.79984" lon="1.73932">
        <ele>1293.454</ele>
        <time>2021-03-23T14:21:20Z</time>
      </trkpt>
      <trkpt lat="42.79982" lon="1.7393">
        <ele>1292.825</ele>
        <time>2021-03-23T14:21:22Z</time>
      </trkpt>
      <trkpt lat="42.79981" lon="1.73927">
        <ele>1291.669</ele>
        <time>2021-03-23T14:21:24Z</time>
      </trkpt>
      <trkpt lat="42.79979" lon="1.73926">
        <ele>1291.048</ele>
        <time>2021-03-23T14:21:26Z</time>
      </trkpt>
      <trkpt lat="42.79978" lon="1.73923">
        <ele>1290.973</ele>
        <time>2021-03-23T14:21:28Z</time>
      </trkpt>
      <trkpt lat="42.79977" lon="1.73921">
        <ele>1290.798</ele>
        <time>2021-03-23T14:21:30Z</time>
      </trkpt>
      <trkpt lat="42.79976" lon="1.73918">
        <ele>1290.879</ele>
        <time>2021-03-23T14:21:32Z</time>
      </trkpt>
      <trkpt lat="42.79974" lon="1.73916">
        <ele>1291.035</ele>
        <time>2021-03-23T14:21:34Z</time>
      </trkpt>
      <trkpt lat="42.79972" lon="1.73915">
        <ele>1290.089</ele>
        <time>2021-03-23T14:21:36Z</time>
      </trkpt>
      <trkpt lat="42.79971" lon="1.73913">
        <ele>1290.025</ele>
        <time>2021-03-23T14:21:38Z</time>
      </trkpt>
      <trkpt lat="42.7997" lon="1.73912">
        <ele>1290.217</ele>
        <time>2021-03-23T14:21:40Z</time>
      </trkpt>
      <trkpt lat="42.79968" lon="1.73911">
        <ele>1289.81</ele>
        <time>2021-03-23T14:21:42Z</time>
      </trkpt>
      <trkpt lat="42.79967" lon="1.73909">
        <ele>1288.812</ele>
        <time>2021-03-23T14:21:44Z</time>
      </trkpt>
      <trkpt lat="42.79965" lon="1.73908">
        <ele>1288.1</ele>
        <time>2021-03-23T14:21:46Z</time>
      </trkpt>
      <trkpt lat="42.79963" lon="1.73908">
        <ele>1287.508</ele>
        <time>2021-03-23T14:21:48Z</time>
      </trkpt>
      <trkpt lat="42.79962" lon="1.73907">
        <ele>1288.663</ele>
        <time>2021-03-23T14:21:50Z</time>
      </trkpt>
      <trkpt lat="42.7996" lon="1.73906">
        <ele>1288.422</ele>
        <time>2021-03-23T14:21:52Z</time>
      </trkpt>
      <trkpt lat="42.79959" lon="1.73906">
        <ele>1288.715</ele>
        <time>2021-03-23T14:21:54Z</time>
      </trkpt>
      <trkpt lat="42.79957" lon="1.73905">
        <ele>1289.095</ele>
        <time>2021-03-23T14:21:56Z</time>
      </trkpt>
      <trkpt lat="42.79955" lon="1.73905">
        <ele>1289.49</ele>
        <time>2021-03-23T14:21:58Z</time>
      </trkpt>
      <trkpt lat="42.79953" lon="1.73904">
        <ele>1289.261</ele>
        <time>2021-03-23T14:22:00Z</time>
      </trkpt>
      <trkpt lat="42.79952" lon="1.73903">
        <ele>1288.633</ele>
        <time>2021-03-23T14:22:02Z</time>
      </trkpt>
      <trkpt lat="42.7995" lon="1.73902">
        <ele>1288.65</ele>
        <time>2021-03-23T14:22:04Z</time>
      </trkpt>
      <trkpt lat="42.79948" lon="1.73901">
        <ele>1287.503</ele>
        <time>2021-03-23T14:22:06Z</time>
      </trkpt>
      <trkpt lat="42.79947" lon="1.739">
        <ele>1286.373</ele>
        <time>2021-03-23T14:22:08Z</time>
      </trkpt>
      <trkpt lat="42.79945" lon="1.73898">
        <ele>1284.028</ele>
        <time>2021-03-23T14:22:10Z</time>
      </trkpt>
      <trkpt lat="42.79943" lon="1.73897">
        <ele>1286.428</ele>
        <time>2021-03-23T14:22:12Z</time>
      </trkpt>
      <trkpt lat="42.79941" lon="1.73896">
        <ele>1286.857</ele>
        <time>2021-03-23T14:22:14Z</time>
      </trkpt>
      <trkpt lat="42.79939" lon="1.73896">
        <ele>1287.007</ele>
        <time>2021-03-23T14:22:16Z</time>
      </trkpt>
      <trkpt lat="42.79937" lon="1.73896">
        <ele>1287.766</ele>
        <time>2021-03-23T14:22:18Z</time>
      </trkpt>
      <trkpt lat="42.79935" lon="1.73896">
        <ele>1287.598</ele>
        <time>2021-03-23T14:22:20Z</time>
      </trkpt>
      <trkpt lat="42.79933" lon="1.73895">
        <ele>1288.324</ele>
        <time>2021-03-23T14:22:22Z</time>
      </trkpt>
      <trkpt lat="42.7993" lon="1.73893">
        <ele>1288.718</ele>
        <time>2021-03-23T14:22:25Z</time>
      </trkpt>
      <trkpt lat="42.79928" lon="1.73893">
        <ele>1288.956</ele>
        <time>2021-03-23T14:22:27Z</time>
      </trkpt>
      <trkpt lat="42.79927" lon="1.73892">
        <ele>1289.513</ele>
        <time>2021-03-23T14:22:29Z</time>
      </trkpt>
      <trkpt lat="42.79925" lon="1.73891">
        <ele>1290.708</ele>
        <time>2021-03-23T14:22:31Z</time>
      </trkpt>
      <trkpt lat="42.79923" lon="1.7389">
        <ele>1291.88</ele>
        <time>2021-03-23T14:22:33Z</time>
      </trkpt>
      <trkpt lat="42.79921" lon="1.7389">
        <ele>1293.128</ele>
        <time>2021-03-23T14:22:35Z</time>
      </trkpt>
      <trkpt lat="42.7992" lon="1.73889">
        <ele>1291.568</ele>
        <time>2021-03-23T14:22:37Z</time>
      </trkpt>
      <trkpt lat="42.79918" lon="1.73888">
        <ele>1292.121</ele>
        <time>2021-03-23T14:22:39Z</time>
      </trkpt>
      <trkpt lat="42.79916" lon="1.73888">
        <ele>1292.36</ele>
        <time>2021-03-23T14:22:41Z</time>
      </trkpt>
      <trkpt lat="42.79915" lon="1.73888">
        <ele>1291.65</ele>
        <time>2021-03-23T14:22:43Z</time>
      </trkpt>
      <trkpt lat="42.79913" lon="1.73889">
        <ele>1292.782</ele>
        <time>2021-03-23T14:22:45Z</time>
      </trkpt>
      <trkpt lat="42.79911" lon="1.7389">
        <ele>1293.109</ele>
        <time>2021-03-23T14:22:47Z</time>
      </trkpt>
      <trkpt lat="42.79909" lon="1.73891">
        <ele>1293.689</ele>
        <time>2021-03-23T14:22:49Z</time>
      </trkpt>
      <trkpt lat="42.79907" lon="1.73891">
        <ele>1295.438</ele>
        <time>2021-03-23T14:22:51Z</time>
      </trkpt>
      <trkpt lat="42.79905" lon="1.73891">
        <ele>1298.057</ele>
        <time>2021-03-23T14:22:53Z</time>
      </trkpt>
      <trkpt lat="42.79902" lon="1.73893">
        <ele>1300.604</ele>
        <time>2021-03-23T14:22:56Z</time>
      </trkpt>
      <trkpt lat="42.799" lon="1.73894">
        <ele>1301.033</ele>
        <time>2021-03-23T14:22:58Z</time>
      </trkpt>
      <trkpt lat="42.79899" lon="1.73895">
        <ele>1300.444</ele>
        <time>2021-03-23T14:23:00Z</time>
      </trkpt>
      <trkpt lat="42.79897" lon="1.73896">
        <ele>1300.094</ele>
        <time>2021-03-23T14:23:02Z</time>
      </trkpt>
      <trkpt lat="42.79896" lon="1.73898">
        <ele>1297.31</ele>
        <time>2021-03-23T14:23:04Z</time>
      </trkpt>
      <trkpt lat="42.79894" lon="1.73898">
        <ele>1297.449</ele>
        <time>2021-03-23T14:23:06Z</time>
      </trkpt>
      <trkpt lat="42.79892" lon="1.739">
        <ele>1297.896</ele>
        <time>2021-03-23T14:23:08Z</time>
      </trkpt>
      <trkpt lat="42.79891" lon="1.73902">
        <ele>1297.13</ele>
        <time>2021-03-23T14:23:10Z</time>
      </trkpt>
      <trkpt lat="42.79889" lon="1.73903">
        <ele>1295.323</ele>
        <time>2021-03-23T14:23:12Z</time>
      </trkpt>
      <trkpt lat="42.79888" lon="1.73905">
        <ele>1294.656</ele>
        <time>2021-03-23T14:23:14Z</time>
      </trkpt>
      <trkpt lat="42.79886" lon="1.73906">
        <ele>1295.307</ele>
        <time>2021-03-23T14:23:16Z</time>
      </trkpt>
      <trkpt lat="42.79884" lon="1.73907">
        <ele>1295.714</ele>
        <time>2021-03-23T14:23:18Z</time>
      </trkpt>
      <trkpt lat="42.79883" lon="1.73909">
        <ele>1293.685</ele>
        <time>2021-03-23T14:23:20Z</time>
      </trkpt>
      <trkpt lat="42.79881" lon="1.73911">
        <ele>1294.147</ele>
        <time>2021-03-23T14:23:22Z</time>
      </trkpt>
      <trkpt lat="42.7988" lon="1.73912">
        <ele>1292.785</ele>
        <time>2021-03-23T14:23:24Z</time>
      </trkpt>
      <trkpt lat="42.79878" lon="1.73914">
        <ele>1291.155</ele>
        <time>2021-03-23T14:23:26Z</time>
      </trkpt>
      <trkpt lat="42.79876" lon="1.73916">
        <ele>1291.325</ele>
        <time>2021-03-23T14:23:28Z</time>
      </trkpt>
      <trkpt lat="42.79875" lon="1.73917">
        <ele>1289.264</ele>
        <time>2021-03-23T14:23:30Z</time>
      </trkpt>
      <trkpt lat="42.79873" lon="1.73919">
        <ele>1287.059</ele>
        <time>2021-03-23T14:23:32Z</time>
      </trkpt>
      <trkpt lat="42.79871" lon="1.73921">
        <ele>1286.512</ele>
        <time>2021-03-23T14:23:34Z</time>
      </trkpt>
      <trkpt lat="42.79869" lon="1.73922">
        <ele>1285.027</ele>
        <time>2021-03-23T14:23:36Z</time>
      </trkpt>
      <trkpt lat="42.79867" lon="1.73924">
        <ele>1284.926</ele>
        <time>2021-03-23T14:23:38Z</time>
      </trkpt>
      <trkpt lat="42.79865" lon="1.73925">
        <ele>1285.579</ele>
        <time>2021-03-23T14:23:40Z</time>
      </trkpt>
      <trkpt lat="42.79864" lon="1.73927">
        <ele>1286.359</ele>
        <time>2021-03-23T14:23:42Z</time>
      </trkpt>
      <trkpt lat="42.79862" lon="1.73929">
        <ele>1284.054</ele>
        <time>2021-03-23T14:23:44Z</time>
      </trkpt>
      <trkpt lat="42.7986" lon="1.73929">
        <ele>1284.359</ele>
        <time>2021-03-23T14:23:46Z</time>
      </trkpt>
      <trkpt lat="42.79858" lon="1.73929">
        <ele>1285.171</ele>
        <time>2021-03-23T14:23:48Z</time>
      </trkpt>
      <trkpt lat="42.79857" lon="1.73931">
        <ele>1283.347</ele>
        <time>2021-03-23T14:23:50Z</time>
      </trkpt>
      <trkpt lat="42.79854" lon="1.73932">
        <ele>1282.902</ele>
        <time>2021-03-23T14:23:52Z</time>
      </trkpt>
      <trkpt lat="42.79853" lon="1.73933">
        <ele>1280.825</ele>
        <time>2021-03-23T14:23:54Z</time>
      </trkpt>
      <trkpt lat="42.79851" lon="1.73934">
        <ele>1280.346</ele>
        <time>2021-03-23T14:23:56Z</time>
      </trkpt>
      <trkpt lat="42.7985" lon="1.73936">
        <ele>1280.257</ele>
        <time>2021-03-23T14:23:58Z</time>
      </trkpt>
      <trkpt lat="42.79848" lon="1.73936">
        <ele>1278.744</ele>
        <time>2021-03-23T14:24:00Z</time>
      </trkpt>
      <trkpt lat="42.79846" lon="1.73937">
        <ele>1280.287</ele>
        <time>2021-03-23T14:24:02Z</time>
      </trkpt>
      <trkpt lat="42.79844" lon="1.73937">
        <ele>1280.012</ele>
        <time>2021-03-23T14:24:04Z</time>
      </trkpt>
      <trkpt lat="42.79842" lon="1.73939">
        <ele>1278.734</ele>
        <time>2021-03-23T14:24:06Z</time>
      </trkpt>
      <trkpt lat="42.79841" lon="1.73942">
        <ele>1277.323</ele>
        <time>2021-03-23T14:24:08Z</time>
      </trkpt>
      <trkpt lat="42.79839" lon="1.73945">
        <ele>1276.106</ele>
        <time>2021-03-23T14:24:10Z</time>
      </trkpt>
      <trkpt lat="42.79837" lon="1.73946">
        <ele>1276.22</ele>
        <time>2021-03-23T14:24:12Z</time>
      </trkpt>
      <trkpt lat="42.79835" lon="1.73949">
        <ele>1275.362</ele>
        <time>2021-03-23T14:24:14Z</time>
      </trkpt>
      <trkpt lat="42.79834" lon="1.73951">
        <ele>1274.872</ele>
        <time>2021-03-23T14:24:16Z</time>
      </trkpt>
      <trkpt lat="42.79833" lon="1.73953">
        <ele>1272.714</ele>
        <time>2021-03-23T14:24:18Z</time>
      </trkpt>
      <trkpt lat="42.79832" lon="1.73954">
        <ele>1272.138</ele>
        <time>2021-03-23T14:24:20Z</time>
      </trkpt>
      <trkpt lat="42.7983" lon="1.73956">
        <ele>1270.955</ele>
        <time>2021-03-23T14:24:22Z</time>
      </trkpt>
      <trkpt lat="42.79829" lon="1.73958">
        <ele>1270.433</ele>
        <time>2021-03-23T14:24:24Z</time>
      </trkpt>
      <trkpt lat="42.79827" lon="1.73959">
        <ele>1268.632</ele>
        <time>2021-03-23T14:24:26Z</time>
      </trkpt>
      <trkpt lat="42.79826" lon="1.73961">
        <ele>1267.439</ele>
        <time>2021-03-23T14:24:28Z</time>
      </trkpt>
      <trkpt lat="42.79824" lon="1.73962">
        <ele>1265.294</ele>
        <time>2021-03-23T14:24:30Z</time>
      </trkpt>
      <trkpt lat="42.79823" lon="1.73963">
        <ele>1263.962</ele>
        <time>2021-03-23T14:24:32Z</time>
      </trkpt>
      <trkpt lat="42.79821" lon="1.73965">
        <ele>1263.34</ele>
        <time>2021-03-23T14:24:34Z</time>
      </trkpt>
      <trkpt lat="42.7982" lon="1.73966">
        <ele>1263.448</ele>
        <time>2021-03-23T14:24:36Z</time>
      </trkpt>
      <trkpt lat="42.79818" lon="1.73968">
        <ele>1262.224</ele>
        <time>2021-03-23T14:24:38Z</time>
      </trkpt>
      <trkpt lat="42.79817" lon="1.73969">
        <ele>1262.315</ele>
        <time>2021-03-23T14:24:40Z</time>
      </trkpt>
      <trkpt lat="42.79816" lon="1.73971">
        <ele>1262.737</ele>
        <time>2021-03-23T14:24:42Z</time>
      </trkpt>
      <trkpt lat="42.79815" lon="1.73972">
        <ele>1262.006</ele>
        <time>2021-03-23T14:24:44Z</time>
      </trkpt>
      <trkpt lat="42.79814" lon="1.73975">
        <ele>1261.987</ele>
        <time>2021-03-23T14:24:46Z</time>
      </trkpt>
      <trkpt lat="42.79812" lon="1.73976">
        <ele>1261.813</ele>
        <time>2021-03-23T14:24:48Z</time>
      </trkpt>
      <trkpt lat="42.79811" lon="1.73977">
        <ele>1263.246</ele>
        <time>2021-03-23T14:24:50Z</time>
      </trkpt>
      <trkpt lat="42.7981" lon="1.73979">
        <ele>1263.198</ele>
        <time>2021-03-23T14:24:52Z</time>
      </trkpt>
      <trkpt lat="42.79808" lon="1.73981">
        <ele>1262.869</ele>
        <time>2021-03-23T14:24:54Z</time>
      </trkpt>
      <trkpt lat="42.79807" lon="1.73983">
        <ele>1261.883</ele>
        <time>2021-03-23T14:24:56Z</time>
      </trkpt>
      <trkpt lat="42.79806" lon="1.73985">
        <ele>1262.181</ele>
        <time>2021-03-23T14:24:58Z</time>
      </trkpt>
      <trkpt lat="42.79805" lon="1.73986">
        <ele>1261.437</ele>
        <time>2021-03-23T14:25:00Z</time>
      </trkpt>
      <trkpt lat="42.79804" lon="1.73988">
        <ele>1260.637</ele>
        <time>2021-03-23T14:25:02Z</time>
      </trkpt>
      <trkpt lat="42.79802" lon="1.73989">
        <ele>1261.329</ele>
        <time>2021-03-23T14:25:04Z</time>
      </trkpt>
      <trkpt lat="42.79801" lon="1.73991">
        <ele>1260.288</ele>
        <time>2021-03-23T14:25:06Z</time>
      </trkpt>
      <trkpt lat="42.798" lon="1.73992">
        <ele>1259.457</ele>
        <time>2021-03-23T14:25:08Z</time>
      </trkpt>
      <trkpt lat="42.79799" lon="1.73993">
        <ele>1259.762</ele>
        <time>2021-03-23T14:25:10Z</time>
      </trkpt>
      <trkpt lat="42.79798" lon="1.73994">
        <ele>1259.203</ele>
        <time>2021-03-23T14:25:12Z</time>
      </trkpt>
      <trkpt lat="42.79796" lon="1.73996">
        <ele>1258.923</ele>
        <time>2021-03-23T14:25:14Z</time>
      </trkpt>
      <trkpt lat="42.79795" lon="1.73997">
        <ele>1258.571</ele>
        <time>2021-03-23T14:25:16Z</time>
      </trkpt>
      <trkpt lat="42.79794" lon="1.73999">
        <ele>1257.452</ele>
        <time>2021-03-23T14:25:18Z</time>
      </trkpt>
      <trkpt lat="42.79793" lon="1.74">
        <ele>1257.978</ele>
        <time>2021-03-23T14:25:20Z</time>
      </trkpt>
      <trkpt lat="42.79791" lon="1.74001">
        <ele>1256.997</ele>
        <time>2021-03-23T14:25:22Z</time>
      </trkpt>
      <trkpt lat="42.7979" lon="1.74003">
        <ele>1256.085</ele>
        <time>2021-03-23T14:25:24Z</time>
      </trkpt>
      <trkpt lat="42.79788" lon="1.74005">
        <ele>1255.284</ele>
        <time>2021-03-23T14:25:26Z</time>
      </trkpt>
      <trkpt lat="42.79787" lon="1.74006">
        <ele>1254.507</ele>
        <time>2021-03-23T14:25:28Z</time>
      </trkpt>
      <trkpt lat="42.79785" lon="1.74008">
        <ele>1253.718</ele>
        <time>2021-03-23T14:25:30Z</time>
      </trkpt>
      <trkpt lat="42.79784" lon="1.74009">
        <ele>1252.818</ele>
        <time>2021-03-23T14:25:32Z</time>
      </trkpt>
      <trkpt lat="42.79783" lon="1.74009">
        <ele>1252.508</ele>
        <time>2021-03-23T14:25:34Z</time>
      </trkpt>
      <trkpt lat="42.79781" lon="1.7401">
        <ele>1251.852</ele>
        <time>2021-03-23T14:25:36Z</time>
      </trkpt>
      <trkpt lat="42.7978" lon="1.74011">
        <ele>1251.705</ele>
        <time>2021-03-23T14:25:38Z</time>
      </trkpt>
      <trkpt lat="42.79778" lon="1.74012">
        <ele>1251.355</ele>
        <time>2021-03-23T14:25:40Z</time>
      </trkpt>
      <trkpt lat="42.79777" lon="1.74013">
        <ele>1250.568</ele>
        <time>2021-03-23T14:25:42Z</time>
      </trkpt>
      <trkpt lat="42.79775" lon="1.74014">
        <ele>1250.381</ele>
        <time>2021-03-23T14:25:44Z</time>
      </trkpt>
      <trkpt lat="42.79774" lon="1.74015">
        <ele>1249.948</ele>
        <time>2021-03-23T14:25:46Z</time>
      </trkpt>
      <trkpt lat="42.79772" lon="1.74015">
        <ele>1249.51</ele>
        <time>2021-03-23T14:25:48Z</time>
      </trkpt>
      <trkpt lat="42.79771" lon="1.74015">
        <ele>1248.461</ele>
        <time>2021-03-23T14:25:50Z</time>
      </trkpt>
      <trkpt lat="42.79769" lon="1.74015">
        <ele>1247.401</ele>
        <time>2021-03-23T14:25:52Z</time>
      </trkpt>
      <trkpt lat="42.79768" lon="1.74015">
        <ele>1247.474</ele>
        <time>2021-03-23T14:25:54Z</time>
      </trkpt>
      <trkpt lat="42.79766" lon="1.74015">
        <ele>1246.265</ele>
        <time>2021-03-23T14:25:56Z</time>
      </trkpt>
      <trkpt lat="42.79764" lon="1.74015">
        <ele>1245.602</ele>
        <time>2021-03-23T14:25:58Z</time>
      </trkpt>
      <trkpt lat="42.79762" lon="1.74015">
        <ele>1245.436</ele>
        <time>2021-03-23T14:26:00Z</time>
      </trkpt>
      <trkpt lat="42.7976" lon="1.74016">
        <ele>1244.701</ele>
        <time>2021-03-23T14:26:02Z</time>
      </trkpt>
      <trkpt lat="42.79758" lon="1.74016">
        <ele>1244.198</ele>
        <time>2021-03-23T14:26:04Z</time>
      </trkpt>
      <trkpt lat="42.79756" lon="1.74017">
        <ele>1243.925</ele>
        <time>2021-03-23T14:26:06Z</time>
      </trkpt>
      <trkpt lat="42.79755" lon="1.74016">
        <ele>1243.42</ele>
        <time>2021-03-23T14:26:08Z</time>
      </trkpt>
      <trkpt lat="42.79753" lon="1.74016">
        <ele>1242.741</ele>
        <time>2021-03-23T14:26:10Z</time>
      </trkpt>
      <trkpt lat="42.79752" lon="1.74017">
        <ele>1241.748</ele>
        <time>2021-03-23T14:26:12Z</time>
      </trkpt>
      <trkpt lat="42.7975" lon="1.74017">
        <ele>1241.686</ele>
        <time>2021-03-23T14:26:14Z</time>
      </trkpt>
      <trkpt lat="42.79748" lon="1.74015">
        <ele>1241.35</ele>
        <time>2021-03-23T14:26:16Z</time>
      </trkpt>
      <trkpt lat="42.79747" lon="1.74015">
        <ele>1240.645</ele>
        <time>2021-03-23T14:26:18Z</time>
      </trkpt>
      <trkpt lat="42.79745" lon="1.74015">
        <ele>1240.953</ele>
        <time>2021-03-23T14:26:20Z</time>
      </trkpt>
      <trkpt lat="42.79743" lon="1.74015">
        <ele>1240.758</ele>
        <time>2021-03-23T14:26:22Z</time>
      </trkpt>
      <trkpt lat="42.79742" lon="1.74016">
        <ele>1240.208</ele>
        <time>2021-03-23T14:26:24Z</time>
      </trkpt>
      <trkpt lat="42.7974" lon="1.74016">
        <ele>1239.403</ele>
        <time>2021-03-23T14:26:26Z</time>
      </trkpt>
      <trkpt lat="42.79738" lon="1.74016">
        <ele>1239.353</ele>
        <time>2021-03-23T14:26:28Z</time>
      </trkpt>
      <trkpt lat="42.79736" lon="1.74016">
        <ele>1239.218</ele>
        <time>2021-03-23T14:26:30Z</time>
      </trkpt>
      <trkpt lat="42.79735" lon="1.74016">
        <ele>1238.468</ele>
        <time>2021-03-23T14:26:32Z</time>
      </trkpt>
      <trkpt lat="42.79733" lon="1.74016">
        <ele>1237.73</ele>
        <time>2021-03-23T14:26:34Z</time>
      </trkpt>
      <trkpt lat="42.79731" lon="1.74016">
        <ele>1237.562</ele>
        <time>2021-03-23T14:26:36Z</time>
      </trkpt>
      <trkpt lat="42.7973" lon="1.74015">
        <ele>1237.307</ele>
        <time>2021-03-23T14:26:38Z</time>
      </trkpt>
      <trkpt lat="42.79728" lon="1.74015">
        <ele>1236.995</ele>
        <time>2021-03-23T14:26:40Z</time>
      </trkpt>
      <trkpt lat="42.79726" lon="1.74015">
        <ele>1236.879</ele>
        <time>2021-03-23T14:26:42Z</time>
      </trkpt>
      <trkpt lat="42.79725" lon="1.74014">
        <ele>1236.603</ele>
        <time>2021-03-23T14:26:44Z</time>
      </trkpt>
      <trkpt lat="42.79723" lon="1.74014">
        <ele>1236.615</ele>
        <time>2021-03-23T14:26:46Z</time>
      </trkpt>
      <trkpt lat="42.79721" lon="1.74014">
        <ele>1236.967</ele>
        <time>2021-03-23T14:26:48Z</time>
      </trkpt>
      <trkpt lat="42.79719" lon="1.74013">
        <ele>1236.764</ele>
        <time>2021-03-23T14:26:50Z</time>
      </trkpt>
      <trkpt lat="42.79717" lon="1.74013">
        <ele>1236.538</ele>
        <time>2021-03-23T14:26:52Z</time>
      </trkpt>
      <trkpt lat="42.79715" lon="1.74013">
        <ele>1236.836</ele>
        <time>2021-03-23T14:26:54Z</time>
      </trkpt>
      <trkpt lat="42.79713" lon="1.74012">
        <ele>1236.667</ele>
        <time>2021-03-23T14:26:56Z</time>
      </trkpt>
      <trkpt lat="42.79711" lon="1.74011">
        <ele>1237.145</ele>
        <time>2021-03-23T14:26:58Z</time>
      </trkpt>
      <trkpt lat="42.79709" lon="1.7401">
        <ele>1237.446</ele>
        <time>2021-03-23T14:27:00Z</time>
      </trkpt>
      <trkpt lat="42.79707" lon="1.74009">
        <ele>1237.922</ele>
        <time>2021-03-23T14:27:02Z</time>
      </trkpt>
      <trkpt lat="42.79706" lon="1.74009">
        <ele>1237.456</ele>
        <time>2021-03-23T14:27:04Z</time>
      </trkpt>
      <trkpt lat="42.79704" lon="1.74009">
        <ele>1237.413</ele>
        <time>2021-03-23T14:27:06Z</time>
      </trkpt>
      <trkpt lat="42.79703" lon="1.74008">
        <ele>1236.896</ele>
        <time>2021-03-23T14:27:08Z</time>
      </trkpt>
      <trkpt lat="42.79702" lon="1.74007">
        <ele>1236.387</ele>
        <time>2021-03-23T14:27:10Z</time>
      </trkpt>
      <trkpt lat="42.797" lon="1.74007">
        <ele>1236.435</ele>
        <time>2021-03-23T14:27:12Z</time>
      </trkpt>
      <trkpt lat="42.79699" lon="1.74007">
        <ele>1235.807</ele>
        <time>2021-03-23T14:27:14Z</time>
      </trkpt>
      <trkpt lat="42.79697" lon="1.74007">
        <ele>1235.469</ele>
        <time>2021-03-23T14:27:16Z</time>
      </trkpt>
      <trkpt lat="42.79696" lon="1.74007">
        <ele>1235.543</ele>
        <time>2021-03-23T14:27:18Z</time>
      </trkpt>
      <trkpt lat="42.79695" lon="1.74008">
        <ele>1235.332</ele>
        <time>2021-03-23T14:27:20Z</time>
      </trkpt>
      <trkpt lat="42.79694" lon="1.74009">
        <ele>1234.451</ele>
        <time>2021-03-23T14:27:22Z</time>
      </trkpt>
      <trkpt lat="42.79692" lon="1.74009">
        <ele>1233.783</ele>
        <time>2021-03-23T14:27:24Z</time>
      </trkpt>
      <trkpt lat="42.79691" lon="1.74009">
        <ele>1232.935</ele>
        <time>2021-03-23T14:27:26Z</time>
      </trkpt>
      <trkpt lat="42.7969" lon="1.74008">
        <ele>1232.23</ele>
        <time>2021-03-23T14:27:28Z</time>
      </trkpt>
      <trkpt lat="42.79689" lon="1.74008">
        <ele>1232.693</ele>
        <time>2021-03-23T14:27:30Z</time>
      </trkpt>
      <trkpt lat="42.79687" lon="1.74008">
        <ele>1233.813</ele>
        <time>2021-03-23T14:27:32Z</time>
      </trkpt>
      <trkpt lat="42.79685" lon="1.74006">
        <ele>1234.371</ele>
        <time>2021-03-23T14:27:34Z</time>
      </trkpt>
      <trkpt lat="42.79684" lon="1.74005">
        <ele>1234.133</ele>
        <time>2021-03-23T14:27:36Z</time>
      </trkpt>
      <trkpt lat="42.79682" lon="1.74004">
        <ele>1234.111</ele>
        <time>2021-03-23T14:27:38Z</time>
      </trkpt>
      <trkpt lat="42.7968" lon="1.74003">
        <ele>1235.308</ele>
        <time>2021-03-23T14:27:40Z</time>
      </trkpt>
      <trkpt lat="42.79678" lon="1.74002">
        <ele>1235.955</ele>
        <time>2021-03-23T14:27:42Z</time>
      </trkpt>
      <trkpt lat="42.79677" lon="1.74001">
        <ele>1235.478</ele>
        <time>2021-03-23T14:27:44Z</time>
      </trkpt>
      <trkpt lat="42.79675" lon="1.74001">
        <ele>1235.513</ele>
        <time>2021-03-23T14:27:46Z</time>
      </trkpt>
      <trkpt lat="42.79675" lon="1.74">
        <ele>1234.822</ele>
        <time>2021-03-23T14:27:48Z</time>
      </trkpt>
      <trkpt lat="42.79674" lon="1.73999">
        <ele>1234.311</ele>
        <time>2021-03-23T14:27:50Z</time>
      </trkpt>
      <trkpt lat="42.79673" lon="1.74">
        <ele>1232.911</ele>
        <time>2021-03-23T14:27:52Z</time>
      </trkpt>
      <trkpt lat="42.79671" lon="1.74001">
        <ele>1231.653</ele>
        <time>2021-03-23T14:27:54Z</time>
      </trkpt>
      <trkpt lat="42.7967" lon="1.74002">
        <ele>1231.218</ele>
        <time>2021-03-23T14:27:56Z</time>
      </trkpt>
      <trkpt lat="42.79668" lon="1.74001">
        <ele>1230.786</ele>
        <time>2021-03-23T14:27:58Z</time>
      </trkpt>
      <trkpt lat="42.79667" lon="1.74">
        <ele>1229.651</ele>
        <time>2021-03-23T14:28:00Z</time>
      </trkpt>
      <trkpt lat="42.79666" lon="1.74">
        <ele>1228.539</ele>
        <time>2021-03-23T14:28:02Z</time>
      </trkpt>
      <trkpt lat="42.79665" lon="1.73999">
        <ele>1227.416</ele>
        <time>2021-03-23T14:28:04Z</time>
      </trkpt>
      <trkpt lat="42.79664" lon="1.73998">
        <ele>1226.373</ele>
        <time>2021-03-23T14:28:06Z</time>
      </trkpt>
      <trkpt lat="42.79662" lon="1.73997">
        <ele>1226.054</ele>
        <time>2021-03-23T14:28:08Z</time>
      </trkpt>
      <trkpt lat="42.79661" lon="1.73996">
        <ele>1225.759</ele>
        <time>2021-03-23T14:28:10Z</time>
      </trkpt>
      <trkpt lat="42.79659" lon="1.73995">
        <ele>1225.214</ele>
        <time>2021-03-23T14:28:12Z</time>
      </trkpt>
      <trkpt lat="42.79657" lon="1.73994">
        <ele>1224.797</ele>
        <time>2021-03-23T14:28:14Z</time>
      </trkpt>
      <trkpt lat="42.79656" lon="1.73993">
        <ele>1223.904</ele>
        <time>2021-03-23T14:28:16Z</time>
      </trkpt>
      <trkpt lat="42.79655" lon="1.73992">
        <ele>1223.302</ele>
        <time>2021-03-23T14:28:18Z</time>
      </trkpt>
      <trkpt lat="42.79653" lon="1.7399">
        <ele>1222.615</ele>
        <time>2021-03-23T14:28:20Z</time>
      </trkpt>
      <trkpt lat="42.79652" lon="1.73989">
        <ele>1221.993</ele>
        <time>2021-03-23T14:28:22Z</time>
      </trkpt>
      <trkpt lat="42.7965" lon="1.73988">
        <ele>1221.75</ele>
        <time>2021-03-23T14:28:24Z</time>
      </trkpt>
      <trkpt lat="42.79648" lon="1.73988">
        <ele>1221.238</ele>
        <time>2021-03-23T14:28:26Z</time>
      </trkpt>
      <trkpt lat="42.79647" lon="1.73988">
        <ele>1220.806</ele>
        <time>2021-03-23T14:28:28Z</time>
      </trkpt>
      <trkpt lat="42.79645" lon="1.73987">
        <ele>1220.366</ele>
        <time>2021-03-23T14:28:30Z</time>
      </trkpt>
      <trkpt lat="42.79643" lon="1.73986">
        <ele>1220.326</ele>
        <time>2021-03-23T14:28:32Z</time>
      </trkpt>
      <trkpt lat="42.79642" lon="1.73985">
        <ele>1219.484</ele>
        <time>2021-03-23T14:28:34Z</time>
      </trkpt>
      <trkpt lat="42.79641" lon="1.73985">
        <ele>1218.693</ele>
        <time>2021-03-23T14:28:36Z</time>
      </trkpt>
      <trkpt lat="42.79639" lon="1.73984">
        <ele>1217.976</ele>
        <time>2021-03-23T14:28:38Z</time>
      </trkpt>
      <trkpt lat="42.79638" lon="1.73983">
        <ele>1217.189</ele>
        <time>2021-03-23T14:28:40Z</time>
      </trkpt>
      <trkpt lat="42.79637" lon="1.73982">
        <ele>1216.262</ele>
        <time>2021-03-23T14:28:42Z</time>
      </trkpt>
      <trkpt lat="42.79635" lon="1.73981">
        <ele>1215.526</ele>
        <time>2021-03-23T14:28:44Z</time>
      </trkpt>
      <trkpt lat="42.79633" lon="1.7398">
        <ele>1215.251</ele>
        <time>2021-03-23T14:28:46Z</time>
      </trkpt>
      <trkpt lat="42.79631" lon="1.7398">
        <ele>1215.007</ele>
        <time>2021-03-23T14:28:48Z</time>
      </trkpt>
      <trkpt lat="42.79629" lon="1.73979">
        <ele>1214.187</ele>
        <time>2021-03-23T14:28:50Z</time>
      </trkpt>
      <trkpt lat="42.79628" lon="1.73978">
        <ele>1212.998</ele>
        <time>2021-03-23T14:28:52Z</time>
      </trkpt>
      <trkpt lat="42.79626" lon="1.73976">
        <ele>1212.054</ele>
        <time>2021-03-23T14:28:54Z</time>
      </trkpt>
      <trkpt lat="42.79624" lon="1.73975">
        <ele>1211.515</ele>
        <time>2021-03-23T14:28:56Z</time>
      </trkpt>
      <trkpt lat="42.79623" lon="1.73973">
        <ele>1210.602</ele>
        <time>2021-03-23T14:28:58Z</time>
      </trkpt>
      <trkpt lat="42.79621" lon="1.73972">
        <ele>1210.685</ele>
        <time>2021-03-23T14:29:00Z</time>
      </trkpt>
      <trkpt lat="42.79619" lon="1.7397">
        <ele>1210.265</ele>
        <time>2021-03-23T14:29:02Z</time>
      </trkpt>
      <trkpt lat="42.79616" lon="1.73968">
        <ele>1209.789</ele>
        <time>2021-03-23T14:29:04Z</time>
      </trkpt>
      <trkpt lat="42.79615" lon="1.73966">
        <ele>1209.291</ele>
        <time>2021-03-23T14:29:06Z</time>
      </trkpt>
      <trkpt lat="42.79613" lon="1.73966">
        <ele>1209.748</ele>
        <time>2021-03-23T14:29:08Z</time>
      </trkpt>
      <trkpt lat="42.79611" lon="1.73966">
        <ele>1209.123</ele>
        <time>2021-03-23T14:29:10Z</time>
      </trkpt>
      <trkpt lat="42.79609" lon="1.73965">
        <ele>1208.528</ele>
        <time>2021-03-23T14:29:12Z</time>
      </trkpt>
      <trkpt lat="42.79608" lon="1.73965">
        <ele>1207.954</ele>
        <time>2021-03-23T14:29:14Z</time>
      </trkpt>
      <trkpt lat="42.79606" lon="1.73966">
        <ele>1207.193</ele>
        <time>2021-03-23T14:29:16Z</time>
      </trkpt>
      <trkpt lat="42.79604" lon="1.73966">
        <ele>1207.013</ele>
        <time>2021-03-23T14:29:18Z</time>
      </trkpt>
      <trkpt lat="42.79602" lon="1.73966">
        <ele>1206.247</ele>
        <time>2021-03-23T14:29:20Z</time>
      </trkpt>
      <trkpt lat="42.79601" lon="1.73965">
        <ele>1205.509</ele>
        <time>2021-03-23T14:29:22Z</time>
      </trkpt>
      <trkpt lat="42.79599" lon="1.73964">
        <ele>1205.041</ele>
        <time>2021-03-23T14:29:24Z</time>
      </trkpt>
      <trkpt lat="42.79597" lon="1.73965">
        <ele>1204.845</ele>
        <time>2021-03-23T14:29:26Z</time>
      </trkpt>
      <trkpt lat="42.79596" lon="1.73966">
        <ele>1203.982</ele>
        <time>2021-03-23T14:29:28Z</time>
      </trkpt>
      <trkpt lat="42.79594" lon="1.73966">
        <ele>1203.649</ele>
        <time>2021-03-23T14:29:30Z</time>
      </trkpt>
      <trkpt lat="42.79592" lon="1.73967">
        <ele>1203.639</ele>
        <time>2021-03-23T14:29:32Z</time>
      </trkpt>
      <trkpt lat="42.7959" lon="1.73966">
        <ele>1203.879</ele>
        <time>2021-03-23T14:29:34Z</time>
      </trkpt>
      <trkpt lat="42.79588" lon="1.73965">
        <ele>1203.377</ele>
        <time>2021-03-23T14:29:36Z</time>
      </trkpt>
      <trkpt lat="42.79587" lon="1.73963">
        <ele>1202.814</ele>
        <time>2021-03-23T14:29:38Z</time>
      </trkpt>
      <trkpt lat="42.79586" lon="1.73962">
        <ele>1202.101</ele>
        <time>2021-03-23T14:29:40Z</time>
      </trkpt>
      <trkpt lat="42.79584" lon="1.7396">
        <ele>1201.181</ele>
        <time>2021-03-23T14:29:42Z</time>
      </trkpt>
      <trkpt lat="42.79583" lon="1.73958">
        <ele>1201.078</ele>
        <time>2021-03-23T14:29:44Z</time>
      </trkpt>
      <trkpt lat="42.79582" lon="1.73956">
        <ele>1201.219</ele>
        <time>2021-03-23T14:29:46Z</time>
      </trkpt>
      <trkpt lat="42.79581" lon="1.73953">
        <ele>1199.708</ele>
        <time>2021-03-23T14:29:48Z</time>
      </trkpt>
      <trkpt lat="42.79579" lon="1.73951">
        <ele>1198.699</ele>
        <time>2021-03-23T14:29:50Z</time>
      </trkpt>
      <trkpt lat="42.79578" lon="1.73948">
        <ele>1197.987</ele>
        <time>2021-03-23T14:29:52Z</time>
      </trkpt>
      <trkpt lat="42.79577" lon="1.73946">
        <ele>1198.083</ele>
        <time>2021-03-23T14:29:54Z</time>
      </trkpt>
      <trkpt lat="42.79576" lon="1.73944">
        <ele>1197.644</ele>
        <time>2021-03-23T14:29:56Z</time>
      </trkpt>
      <trkpt lat="42.79574" lon="1.73942">
        <ele>1197.257</ele>
        <time>2021-03-23T14:29:58Z</time>
      </trkpt>
      <trkpt lat="42.79573" lon="1.7394">
        <ele>1196.528</ele>
        <time>2021-03-23T14:30:00Z</time>
      </trkpt>
      <trkpt lat="42.79571" lon="1.7394">
        <ele>1195.968</ele>
        <time>2021-03-23T14:30:02Z</time>
      </trkpt>
      <trkpt lat="42.7957" lon="1.7394">
        <ele>1195.697</ele>
        <time>2021-03-23T14:30:04Z</time>
      </trkpt>
      <trkpt lat="42.79569" lon="1.73941">
        <ele>1195.431</ele>
        <time>2021-03-23T14:30:06Z</time>
      </trkpt>
      <trkpt lat="42.79567" lon="1.73942">
        <ele>1194.875</ele>
        <time>2021-03-23T14:30:08Z</time>
      </trkpt>
      <trkpt lat="42.79565" lon="1.73942">
        <ele>1195.588</ele>
        <time>2021-03-23T14:30:10Z</time>
      </trkpt>
      <trkpt lat="42.79564" lon="1.73942">
        <ele>1194.724</ele>
        <time>2021-03-23T14:30:12Z</time>
      </trkpt>
      <trkpt lat="42.79562" lon="1.73943">
        <ele>1194.28</ele>
        <time>2021-03-23T14:30:14Z</time>
      </trkpt>
      <trkpt lat="42.79561" lon="1.73944">
        <ele>1194.705</ele>
        <time>2021-03-23T14:30:16Z</time>
      </trkpt>
      <trkpt lat="42.7956" lon="1.73945">
        <ele>1194.905</ele>
        <time>2021-03-23T14:30:18Z</time>
      </trkpt>
      <trkpt lat="42.79558" lon="1.73945">
        <ele>1194.715</ele>
        <time>2021-03-23T14:30:20Z</time>
      </trkpt>
      <trkpt lat="42.79557" lon="1.73946">
        <ele>1195.269</ele>
        <time>2021-03-23T14:30:22Z</time>
      </trkpt>
      <trkpt lat="42.79555" lon="1.73947">
        <ele>1195.152</ele>
        <time>2021-03-23T14:30:24Z</time>
      </trkpt>
      <trkpt lat="42.79554" lon="1.73949">
        <ele>1195.201</ele>
        <time>2021-03-23T14:30:26Z</time>
      </trkpt>
      <trkpt lat="42.79552" lon="1.7395">
        <ele>1194.264</ele>
        <time>2021-03-23T14:30:28Z</time>
      </trkpt>
      <trkpt lat="42.79551" lon="1.73952">
        <ele>1192.58</ele>
        <time>2021-03-23T14:30:30Z</time>
      </trkpt>
      <trkpt lat="42.7955" lon="1.73953">
        <ele>1192.267</ele>
        <time>2021-03-23T14:30:32Z</time>
      </trkpt>
      <trkpt lat="42.79549" lon="1.73954">
        <ele>1192.031</ele>
        <time>2021-03-23T14:30:34Z</time>
      </trkpt>
      <trkpt lat="42.79547" lon="1.73955">
        <ele>1191.077</ele>
        <time>2021-03-23T14:30:36Z</time>
      </trkpt>
      <trkpt lat="42.79545" lon="1.73956">
        <ele>1191.031</ele>
        <time>2021-03-23T14:30:38Z</time>
      </trkpt>
      <trkpt lat="42.79545" lon="1.73958">
        <ele>1191.129</ele>
        <time>2021-03-23T14:30:40Z</time>
      </trkpt>
      <trkpt lat="42.79545" lon="1.73959">
        <ele>1191.281</ele>
        <time>2021-03-23T14:30:41Z</time>
      </trkpt>
      <trkpt lat="42.79544" lon="1.73962">
        <ele>1191.037</ele>
        <time>2021-03-23T14:30:44Z</time>
      </trkpt>
      <trkpt lat="42.79544" lon="1.73964">
        <ele>1190.436</ele>
        <time>2021-03-23T14:30:46Z</time>
      </trkpt>
      <trkpt lat="42.79543" lon="1.73966">
        <ele>1190.351</ele>
        <time>2021-03-23T14:30:48Z</time>
      </trkpt>
      <trkpt lat="42.79541" lon="1.73967">
        <ele>1190.106</ele>
        <time>2021-03-23T14:30:50Z</time>
      </trkpt>
      <trkpt lat="42.79539" lon="1.73968">
        <ele>1190.295</ele>
        <time>2021-03-23T14:30:52Z</time>
      </trkpt>
      <trkpt lat="42.79537" lon="1.73969">
        <ele>1190.478</ele>
        <time>2021-03-23T14:30:54Z</time>
      </trkpt>
      <trkpt lat="42.79536" lon="1.7397">
        <ele>1189.722</ele>
        <time>2021-03-23T14:30:56Z</time>
      </trkpt>
      <trkpt lat="42.79535" lon="1.73971">
        <ele>1189.019</ele>
        <time>2021-03-23T14:30:58Z</time>
      </trkpt>
      <trkpt lat="42.79534" lon="1.73973">
        <ele>1189.382</ele>
        <time>2021-03-23T14:31:00Z</time>
      </trkpt>
      <trkpt lat="42.79534" lon="1.73975">
        <ele>1190.239</ele>
        <time>2021-03-23T14:31:02Z</time>
      </trkpt>
      <trkpt lat="42.79531" lon="1.73975">
        <ele>1189.84</ele>
        <time>2021-03-23T14:31:04Z</time>
      </trkpt>
      <trkpt lat="42.7953" lon="1.73974">
        <ele>1188.544</ele>
        <time>2021-03-23T14:31:06Z</time>
      </trkpt>
      <trkpt lat="42.79529" lon="1.73973">
        <ele>1187.676</ele>
        <time>2021-03-23T14:31:08Z</time>
      </trkpt>
      <trkpt lat="42.79527" lon="1.73972">
        <ele>1187.188</ele>
        <time>2021-03-23T14:31:10Z</time>
      </trkpt>
      <trkpt lat="42.79526" lon="1.73971">
        <ele>1186.439</ele>
        <time>2021-03-23T14:31:12Z</time>
      </trkpt>
      <trkpt lat="42.79525" lon="1.73969">
        <ele>1186.131</ele>
        <time>2021-03-23T14:31:14Z</time>
      </trkpt>
      <trkpt lat="42.79524" lon="1.73967">
        <ele>1185.278</ele>
        <time>2021-03-23T14:31:16Z</time>
      </trkpt>
      <trkpt lat="42.79523" lon="1.73965">
        <ele>1183.95</ele>
        <time>2021-03-23T14:31:18Z</time>
      </trkpt>
      <trkpt lat="42.79522" lon="1.73963">
        <ele>1182.603</ele>
        <time>2021-03-23T14:31:20Z</time>
      </trkpt>
      <trkpt lat="42.79521" lon="1.73962">
        <ele>1181.564</ele>
        <time>2021-03-23T14:31:22Z</time>
      </trkpt>
      <trkpt lat="42.7952" lon="1.7396">
        <ele>1180.412</ele>
        <time>2021-03-23T14:31:24Z</time>
      </trkpt>
      <trkpt lat="42.7952" lon="1.73957">
        <ele>1179.774</ele>
        <time>2021-03-23T14:31:26Z</time>
      </trkpt>
      <trkpt lat="42.79519" lon="1.73954">
        <ele>1179.667</ele>
        <time>2021-03-23T14:31:28Z</time>
      </trkpt>
      <trkpt lat="42.79519" lon="1.73951">
        <ele>1179.175</ele>
        <time>2021-03-23T14:31:30Z</time>
      </trkpt>
      <trkpt lat="42.79519" lon="1.73948">
        <ele>1178.818</ele>
        <time>2021-03-23T14:31:32Z</time>
      </trkpt>
      <trkpt lat="42.79519" lon="1.73946">
        <ele>1178.08</ele>
        <time>2021-03-23T14:31:34Z</time>
      </trkpt>
      <trkpt lat="42.79519" lon="1.73943">
        <ele>1177.095</ele>
        <time>2021-03-23T14:31:36Z</time>
      </trkpt>
      <trkpt lat="42.79519" lon="1.7394">
        <ele>1176.816</ele>
        <time>2021-03-23T14:31:38Z</time>
      </trkpt>
      <trkpt lat="42.79519" lon="1.73937">
        <ele>1176.665</ele>
        <time>2021-03-23T14:31:40Z</time>
      </trkpt>
      <trkpt lat="42.79519" lon="1.73936">
        <ele>1177.124</ele>
        <time>2021-03-23T14:31:42Z</time>
      </trkpt>
      <trkpt lat="42.7952" lon="1.73935">
        <ele>1177.087</ele>
        <time>2021-03-23T14:31:44Z</time>
      </trkpt>
      <trkpt lat="42.7952" lon="1.73933">
        <ele>1176.866</ele>
        <time>2021-03-23T14:31:46Z</time>
      </trkpt>
      <trkpt lat="42.79521" lon="1.73931">
        <ele>1177.326</ele>
        <time>2021-03-23T14:31:48Z</time>
      </trkpt>
      <trkpt lat="42.79522" lon="1.73929">
        <ele>1178.256</ele>
        <time>2021-03-23T14:31:50Z</time>
      </trkpt>
      <trkpt lat="42.79522" lon="1.73927">
        <ele>1177.856</ele>
        <time>2021-03-23T14:31:52Z</time>
      </trkpt>
      <trkpt lat="42.79523" lon="1.73925">
        <ele>1177.077</ele>
        <time>2021-03-23T14:31:54Z</time>
      </trkpt>
      <trkpt lat="42.79523" lon="1.73922">
        <ele>1176.457</ele>
        <time>2021-03-23T14:31:56Z</time>
      </trkpt>
      <trkpt lat="42.79523" lon="1.7392">
        <ele>1175.536</ele>
        <time>2021-03-23T14:31:58Z</time>
      </trkpt>
      <trkpt lat="42.79523" lon="1.73917">
        <ele>1174.499</ele>
        <time>2021-03-23T14:32:00Z</time>
      </trkpt>
      <trkpt lat="42.79524" lon="1.73915">
        <ele>1174.536</ele>
        <time>2021-03-23T14:32:02Z</time>
      </trkpt>
      <trkpt lat="42.79524" lon="1.73912">
        <ele>1173.917</ele>
        <time>2021-03-23T14:32:04Z</time>
      </trkpt>
      <trkpt lat="42.79524" lon="1.7391">
        <ele>1173.752</ele>
        <time>2021-03-23T14:32:06Z</time>
      </trkpt>
      <trkpt lat="42.79524" lon="1.73908">
        <ele>1172.905</ele>
        <time>2021-03-23T14:32:08Z</time>
      </trkpt>
      <trkpt lat="42.79523" lon="1.73905">
        <ele>1171.915</ele>
        <time>2021-03-23T14:32:10Z</time>
      </trkpt>
      <trkpt lat="42.79523" lon="1.73903">
        <ele>1171.32</ele>
        <time>2021-03-23T14:32:12Z</time>
      </trkpt>
      <trkpt lat="42.79523" lon="1.73901">
        <ele>1170.761</ele>
        <time>2021-03-23T14:32:14Z</time>
      </trkpt>
      <trkpt lat="42.79524" lon="1.73898">
        <ele>1170.281</ele>
        <time>2021-03-23T14:32:16Z</time>
      </trkpt>
      <trkpt lat="42.79525" lon="1.73896">
        <ele>1170.716</ele>
        <time>2021-03-23T14:32:18Z</time>
      </trkpt>
      <trkpt lat="42.79526" lon="1.73895">
        <ele>1170.498</ele>
        <time>2021-03-23T14:32:20Z</time>
      </trkpt>
      <trkpt lat="42.79527" lon="1.73893">
        <ele>1170.461</ele>
        <time>2021-03-23T14:32:22Z</time>
      </trkpt>
      <trkpt lat="42.79528" lon="1.73891">
        <ele>1169.674</ele>
        <time>2021-03-23T14:32:24Z</time>
      </trkpt>
      <trkpt lat="42.79529" lon="1.73888">
        <ele>1168.937</ele>
        <time>2021-03-23T14:32:26Z</time>
      </trkpt>
      <trkpt lat="42.79529" lon="1.73886">
        <ele>1168.796</ele>
        <time>2021-03-23T14:32:28Z</time>
      </trkpt>
      <trkpt lat="42.7953" lon="1.73883">
        <ele>1168.303</ele>
        <time>2021-03-23T14:32:30Z</time>
      </trkpt>
      <trkpt lat="42.7953" lon="1.73881">
        <ele>1167.787</ele>
        <time>2021-03-23T14:32:32Z</time>
      </trkpt>
      <trkpt lat="42.79531" lon="1.73878">
        <ele>1166.999</ele>
        <time>2021-03-23T14:32:34Z</time>
      </trkpt>
      <trkpt lat="42.79531" lon="1.73876">
        <ele>1166.26</ele>
        <time>2021-03-23T14:32:36Z</time>
      </trkpt>
      <trkpt lat="42.79532" lon="1.73873">
        <ele>1166.027</ele>
        <time>2021-03-23T14:32:38Z</time>
      </trkpt>
      <trkpt lat="42.79532" lon="1.73871">
        <ele>1166.106</ele>
        <time>2021-03-23T14:32:40Z</time>
      </trkpt>
      <trkpt lat="42.79533" lon="1.73869">
        <ele>1165.423</ele>
        <time>2021-03-23T14:32:42Z</time>
      </trkpt>
      <trkpt lat="42.79533" lon="1.73866">
        <ele>1164.922</ele>
        <time>2021-03-23T14:32:44Z</time>
      </trkpt>
      <trkpt lat="42.79533" lon="1.73863">
        <ele>1164.693</ele>
        <time>2021-03-23T14:32:46Z</time>
      </trkpt>
      <trkpt lat="42.79533" lon="1.73861">
        <ele>1165.091</ele>
        <time>2021-03-23T14:32:48Z</time>
      </trkpt>
      <trkpt lat="42.79534" lon="1.73858">
        <ele>1165.112</ele>
        <time>2021-03-23T14:32:50Z</time>
      </trkpt>
      <trkpt lat="42.79533" lon="1.73855">
        <ele>1164.922</ele>
        <time>2021-03-23T14:32:52Z</time>
      </trkpt>
      <trkpt lat="42.79533" lon="1.73853">
        <ele>1164.571</ele>
        <time>2021-03-23T14:32:54Z</time>
      </trkpt>
      <trkpt lat="42.79533" lon="1.73851">
        <ele>1164.368</ele>
        <time>2021-03-23T14:32:56Z</time>
      </trkpt>
      <trkpt lat="42.79534" lon="1.73849">
        <ele>1164.608</ele>
        <time>2021-03-23T14:32:58Z</time>
      </trkpt>
      <trkpt lat="42.79534" lon="1.73847">
        <ele>1164.322</ele>
        <time>2021-03-23T14:33:00Z</time>
      </trkpt>
      <trkpt lat="42.79534" lon="1.73844">
        <ele>1163.482</ele>
        <time>2021-03-23T14:33:02Z</time>
      </trkpt>
      <trkpt lat="42.79533" lon="1.73841">
        <ele>1163.33</ele>
        <time>2021-03-23T14:33:04Z</time>
      </trkpt>
      <trkpt lat="42.79533" lon="1.73838">
        <ele>1163.429</ele>
        <time>2021-03-23T14:33:06Z</time>
      </trkpt>
      <trkpt lat="42.79533" lon="1.73835">
        <ele>1163.431</ele>
        <time>2021-03-23T14:33:08Z</time>
      </trkpt>
      <trkpt lat="42.79533" lon="1.73832">
        <ele>1164.443</ele>
        <time>2021-03-23T14:33:10Z</time>
      </trkpt>
      <trkpt lat="42.79533" lon="1.73829">
        <ele>1164.905</ele>
        <time>2021-03-23T14:33:12Z</time>
      </trkpt>
      <trkpt lat="42.79532" lon="1.73827">
        <ele>1165.496</ele>
        <time>2021-03-23T14:33:14Z</time>
      </trkpt>
      <trkpt lat="42.79531" lon="1.73824">
        <ele>1165.138</ele>
        <time>2021-03-23T14:33:16Z</time>
      </trkpt>
      <trkpt lat="42.79529" lon="1.73823">
        <ele>1164.087</ele>
        <time>2021-03-23T14:33:18Z</time>
      </trkpt>
      <trkpt lat="42.7953" lon="1.73821">
        <ele>1164.386</ele>
        <time>2021-03-23T14:33:20Z</time>
      </trkpt>
      <trkpt lat="42.7953" lon="1.73818">
        <ele>1164.882</ele>
        <time>2021-03-23T14:33:22Z</time>
      </trkpt>
      <trkpt lat="42.79529" lon="1.73816">
        <ele>1165.752</ele>
        <time>2021-03-23T14:33:24Z</time>
      </trkpt>
      <trkpt lat="42.79529" lon="1.73814">
        <ele>1166.186</ele>
        <time>2021-03-23T14:33:26Z</time>
      </trkpt>
      <trkpt lat="42.79529" lon="1.73812">
        <ele>1166.005</ele>
        <time>2021-03-23T14:33:28Z</time>
      </trkpt>
      <trkpt lat="42.79529" lon="1.7381">
        <ele>1166.042</ele>
        <time>2021-03-23T14:33:30Z</time>
      </trkpt>
      <trkpt lat="42.79528" lon="1.73808">
        <ele>1165.155</ele>
        <time>2021-03-23T14:33:32Z</time>
      </trkpt>
      <trkpt lat="42.79528" lon="1.73806">
        <ele>1164.842</ele>
        <time>2021-03-23T14:33:34Z</time>
      </trkpt>
      <trkpt lat="42.79528" lon="1.73805">
        <ele>1163.51</ele>
        <time>2021-03-23T14:33:36Z</time>
      </trkpt>
      <trkpt lat="42.79527" lon="1.73803">
        <ele>1163.026</ele>
        <time>2021-03-23T14:33:38Z</time>
      </trkpt>
      <trkpt lat="42.79527" lon="1.73801">
        <ele>1162.241</ele>
        <time>2021-03-23T14:33:40Z</time>
      </trkpt>
      <trkpt lat="42.79526" lon="1.738">
        <ele>1162.248</ele>
        <time>2021-03-23T14:33:41Z</time>
      </trkpt>
      <trkpt lat="42.79525" lon="1.73798">
        <ele>1161.833</ele>
        <time>2021-03-23T14:33:44Z</time>
      </trkpt>
      <trkpt lat="42.79526" lon="1.73795">
        <ele>1161.111</ele>
        <time>2021-03-23T14:33:46Z</time>
      </trkpt>
      <trkpt lat="42.79525" lon="1.73793">
        <ele>1159.988</ele>
        <time>2021-03-23T14:33:48Z</time>
      </trkpt>
      <trkpt lat="42.79524" lon="1.73791">
        <ele>1159.11</ele>
        <time>2021-03-23T14:33:50Z</time>
      </trkpt>
      <trkpt lat="42.79523" lon="1.73789">
        <ele>1158.137</ele>
        <time>2021-03-23T14:33:52Z</time>
      </trkpt>
      <trkpt lat="42.79522" lon="1.73788">
        <ele>1157.626</ele>
        <time>2021-03-23T14:33:54Z</time>
      </trkpt>
      <trkpt lat="42.79522" lon="1.73787">
        <ele>1156.785</ele>
        <time>2021-03-23T14:33:56Z</time>
      </trkpt>
      <trkpt lat="42.79521" lon="1.73785">
        <ele>1155.663</ele>
        <time>2021-03-23T14:33:58Z</time>
      </trkpt>
      <trkpt lat="42.7952" lon="1.73784">
        <ele>1154.908</ele>
        <time>2021-03-23T14:34:00Z</time>
      </trkpt>
      <trkpt lat="42.7952" lon="1.73782">
        <ele>1154.442</ele>
        <time>2021-03-23T14:34:02Z</time>
      </trkpt>
      <trkpt lat="42.7952" lon="1.7378">
        <ele>1154.032</ele>
        <time>2021-03-23T14:34:04Z</time>
      </trkpt>
      <trkpt lat="42.7952" lon="1.73778">
        <ele>1153.373</ele>
        <time>2021-03-23T14:34:06Z</time>
      </trkpt>
      <trkpt lat="42.79521" lon="1.73776">
        <ele>1153.563</ele>
        <time>2021-03-23T14:34:08Z</time>
      </trkpt>
      <trkpt lat="42.79522" lon="1.73774">
        <ele>1154.548</ele>
        <time>2021-03-23T14:34:10Z</time>
      </trkpt>
      <trkpt lat="42.79523" lon="1.73771">
        <ele>1155.3</ele>
        <time>2021-03-23T14:34:12Z</time>
      </trkpt>
      <trkpt lat="42.79525" lon="1.73768">
        <ele>1156.363</ele>
        <time>2021-03-23T14:34:14Z</time>
      </trkpt>
      <trkpt lat="42.79526" lon="1.73765">
        <ele>1157.424</ele>
        <time>2021-03-23T14:34:16Z</time>
      </trkpt>
      <trkpt lat="42.79527" lon="1.73763">
        <ele>1157.684</ele>
        <time>2021-03-23T14:34:18Z</time>
      </trkpt>
      <trkpt lat="42.79527" lon="1.73761">
        <ele>1158.098</ele>
        <time>2021-03-23T14:34:20Z</time>
      </trkpt>
      <trkpt lat="42.79528" lon="1.73759">
        <ele>1157.929</ele>
        <time>2021-03-23T14:34:22Z</time>
      </trkpt>
      <trkpt lat="42.79529" lon="1.73758">
        <ele>1157.742</ele>
        <time>2021-03-23T14:34:24Z</time>
      </trkpt>
      <trkpt lat="42.79529" lon="1.73756">
        <ele>1156.874</ele>
        <time>2021-03-23T14:34:26Z</time>
      </trkpt>
      <trkpt lat="42.7953" lon="1.73755">
        <ele>1154.5</ele>
        <time>2021-03-23T14:34:28Z</time>
      </trkpt>
      <trkpt lat="42.7953" lon="1.73754">
        <ele>1153.197</ele>
        <time>2021-03-23T14:34:30Z</time>
      </trkpt>
      <trkpt lat="42.79531" lon="1.73752">
        <ele>1153.088</ele>
        <time>2021-03-23T14:34:32Z</time>
      </trkpt>
      <trkpt lat="42.79531" lon="1.7375">
        <ele>1152.485</ele>
        <time>2021-03-23T14:34:34Z</time>
      </trkpt>
      <trkpt lat="42.79532" lon="1.73748">
        <ele>1152.014</ele>
        <time>2021-03-23T14:34:36Z</time>
      </trkpt>
      <trkpt lat="42.79533" lon="1.73745">
        <ele>1151.142</ele>
        <time>2021-03-23T14:34:38Z</time>
      </trkpt>
      <trkpt lat="42.79534" lon="1.73743">
        <ele>1150.2</ele>
        <time>2021-03-23T14:34:40Z</time>
      </trkpt>
      <trkpt lat="42.79535" lon="1.73742">
        <ele>1149.316</ele>
        <time>2021-03-23T14:34:42Z</time>
      </trkpt>
      <trkpt lat="42.79535" lon="1.73741">
        <ele>1146.637</ele>
        <time>2021-03-23T14:34:44Z</time>
      </trkpt>
      <trkpt lat="42.79535" lon="1.7374">
        <ele>1145.937</ele>
        <time>2021-03-23T14:34:46Z</time>
      </trkpt>
      <trkpt lat="42.79536" lon="1.73738">
        <ele>1144.378</ele>
        <time>2021-03-23T14:34:48Z</time>
      </trkpt>
      <trkpt lat="42.79537" lon="1.73737">
        <ele>1143.633</ele>
        <time>2021-03-23T14:34:50Z</time>
      </trkpt>
      <trkpt lat="42.79538" lon="1.73735">
        <ele>1141.617</ele>
        <time>2021-03-23T14:34:52Z</time>
      </trkpt>
      <trkpt lat="42.79538" lon="1.73732">
        <ele>1141.042</ele>
        <time>2021-03-23T14:34:54Z</time>
      </trkpt>
      <trkpt lat="42.79539" lon="1.7373">
        <ele>1140.795</ele>
        <time>2021-03-23T14:34:56Z</time>
      </trkpt>
      <trkpt lat="42.7954" lon="1.73728">
        <ele>1141.004</ele>
        <time>2021-03-23T14:34:58Z</time>
      </trkpt>
      <trkpt lat="42.79541" lon="1.73726">
        <ele>1141.177</ele>
        <time>2021-03-23T14:35:00Z</time>
      </trkpt>
      <trkpt lat="42.79541" lon="1.73724">
        <ele>1141.855</ele>
        <time>2021-03-23T14:35:02Z</time>
      </trkpt>
      <trkpt lat="42.79542" lon="1.73722">
        <ele>1141.456</ele>
        <time>2021-03-23T14:35:04Z</time>
      </trkpt>
      <trkpt lat="42.79542" lon="1.7372">
        <ele>1140.231</ele>
        <time>2021-03-23T14:35:06Z</time>
      </trkpt>
      <trkpt lat="42.79542" lon="1.73718">
        <ele>1139.337</ele>
        <time>2021-03-23T14:35:08Z</time>
      </trkpt>
      <trkpt lat="42.79543" lon="1.73716">
        <ele>1139.472</ele>
        <time>2021-03-23T14:35:10Z</time>
      </trkpt>
      <trkpt lat="42.79543" lon="1.73714">
        <ele>1139.092</ele>
        <time>2021-03-23T14:35:12Z</time>
      </trkpt>
      <trkpt lat="42.79544" lon="1.73711">
        <ele>1138.883</ele>
        <time>2021-03-23T14:35:14Z</time>
      </trkpt>
      <trkpt lat="42.79544" lon="1.73708">
        <ele>1138.054</ele>
        <time>2021-03-23T14:35:16Z</time>
      </trkpt>
      <trkpt lat="42.79545" lon="1.73707">
        <ele>1137.103</ele>
        <time>2021-03-23T14:35:18Z</time>
      </trkpt>
      <trkpt lat="42.79546" lon="1.73705">
        <ele>1137.108</ele>
        <time>2021-03-23T14:35:20Z</time>
      </trkpt>
      <trkpt lat="42.79546" lon="1.73703">
        <ele>1137.825</ele>
        <time>2021-03-23T14:35:22Z</time>
      </trkpt>
      <trkpt lat="42.79546" lon="1.73703">
        <ele>1137.937</ele>
        <time>2021-03-23T14:35:24Z</time>
      </trkpt>
      <trkpt lat="42.79547" lon="1.73701">
        <ele>1137.344</ele>
        <time>2021-03-23T14:35:26Z</time>
      </trkpt>
      <trkpt lat="42.79549" lon="1.73701">
        <ele>1136.512</ele>
        <time>2021-03-23T14:35:28Z</time>
      </trkpt>
      <trkpt lat="42.79549" lon="1.737">
        <ele>1137.444</ele>
        <time>2021-03-23T14:35:30Z</time>
      </trkpt>
      <trkpt lat="42.79549" lon="1.73699">
        <ele>1139.571</ele>
        <time>2021-03-23T14:35:32Z</time>
      </trkpt>
      <trkpt lat="42.79549" lon="1.73699">
        <ele>1139.576</ele>
        <time>2021-03-23T14:35:34Z</time>
      </trkpt>
      <trkpt lat="42.79549" lon="1.73699">
        <ele>1139.58</ele>
        <time>2021-03-23T14:35:36Z</time>
      </trkpt>
      <trkpt lat="42.79549" lon="1.73698">
        <ele>1139.427</ele>
        <time>2021-03-23T14:35:38Z</time>
      </trkpt>
      <trkpt lat="42.7955" lon="1.73698">
        <ele>1139.364</ele>
        <time>2021-03-23T14:35:40Z</time>
      </trkpt>
      <trkpt lat="42.79549" lon="1.73698">
        <ele>1139.364</ele>
        <time>2021-03-23T14:35:42Z</time>
      </trkpt>
      <trkpt lat="42.79549" lon="1.73698">
        <ele>1139.364</ele>
        <time>2021-03-23T14:35:44Z</time>
      </trkpt>
      <trkpt lat="42.79549" lon="1.73698">
        <ele>1139.348</ele>
        <time>2021-03-23T14:35:46Z</time>
      </trkpt>
      <trkpt lat="42.79549" lon="1.73698">
        <ele>1139.342</ele>
        <time>2021-03-23T14:35:48Z</time>
      </trkpt>
      <trkpt lat="42.79549" lon="1.73698">
        <ele>1139.34</ele>
        <time>2021-03-23T14:35:50Z</time>
      </trkpt>
      <trkpt lat="42.79549" lon="1.73698">
        <ele>1139.337</ele>
        <time>2021-03-23T14:35:52Z</time>
      </trkpt>
      <trkpt lat="42.79549" lon="1.73698">
        <ele>1139.33</ele>
        <time>2021-03-23T14:35:54Z</time>
      </trkpt>
      <trkpt lat="42.79549" lon="1.73698">
        <ele>1139.326</ele>
        <time>2021-03-23T14:35:56Z</time>
      </trkpt>
      <trkpt lat="42.7955" lon="1.73698">
        <ele>1139.061</ele>
        <time>2021-03-23T14:35:58Z</time>
      </trkpt>
      <trkpt lat="42.7955" lon="1.73697">
        <ele>1139.118</ele>
        <time>2021-03-23T14:36:00Z</time>
      </trkpt>
      <trkpt lat="42.7955" lon="1.73696">
        <ele>1138.755</ele>
        <time>2021-03-23T14:36:02Z</time>
      </trkpt>
      <trkpt lat="42.7955" lon="1.73695">
        <ele>1138.371</ele>
        <time>2021-03-23T14:36:04Z</time>
      </trkpt>
      <trkpt lat="42.79551" lon="1.73694">
        <ele>1138.092</ele>
        <time>2021-03-23T14:36:06Z</time>
      </trkpt>
      <trkpt lat="42.79551" lon="1.73692">
        <ele>1137.602</ele>
        <time>2021-03-23T14:36:08Z</time>
      </trkpt>
      <trkpt lat="42.79552" lon="1.7369">
        <ele>1136.898</ele>
        <time>2021-03-23T14:36:10Z</time>
      </trkpt>
      <trkpt lat="42.79552" lon="1.73689">
        <ele>1136.812</ele>
        <time>2021-03-23T14:36:12Z</time>
      </trkpt>
      <trkpt lat="42.79552" lon="1.7369">
        <ele>1136.234</ele>
        <time>2021-03-23T14:36:14Z</time>
      </trkpt>
      <trkpt lat="42.79552" lon="1.73689">
        <ele>1136.386</ele>
        <time>2021-03-23T14:36:16Z</time>
      </trkpt>
      <trkpt lat="42.79552" lon="1.73688">
        <ele>1135.954</ele>
        <time>2021-03-23T14:36:18Z</time>
      </trkpt>
      <trkpt lat="42.79553" lon="1.73685">
        <ele>1135.69</ele>
        <time>2021-03-23T14:36:20Z</time>
      </trkpt>
      <trkpt lat="42.79553" lon="1.73682">
        <ele>1135.731</ele>
        <time>2021-03-23T14:36:22Z</time>
      </trkpt>
      <trkpt lat="42.79554" lon="1.73679">
        <ele>1135.459</ele>
        <time>2021-03-23T14:36:24Z</time>
      </trkpt>
      <trkpt lat="42.79554" lon="1.73676">
        <ele>1134.961</ele>
        <time>2021-03-23T14:36:26Z</time>
      </trkpt>
      <trkpt lat="42.79554" lon="1.73675">
        <ele>1134.015</ele>
        <time>2021-03-23T14:36:28Z</time>
      </trkpt>
      <trkpt lat="42.79554" lon="1.73672">
        <ele>1133.93</ele>
        <time>2021-03-23T14:36:30Z</time>
      </trkpt>
      <trkpt lat="42.79554" lon="1.7367">
        <ele>1133.084</ele>
        <time>2021-03-23T14:36:32Z</time>
      </trkpt>
      <trkpt lat="42.79555" lon="1.73668">
        <ele>1132.919</ele>
        <time>2021-03-23T14:36:34Z</time>
      </trkpt>
      <trkpt lat="42.79555" lon="1.73667">
        <ele>1132.752</ele>
        <time>2021-03-23T14:36:36Z</time>
      </trkpt>
      <trkpt lat="42.79555" lon="1.73664">
        <ele>1132.212</ele>
        <time>2021-03-23T14:36:38Z</time>
      </trkpt>
      <trkpt lat="42.79555" lon="1.73662">
        <ele>1132.312</ele>
        <time>2021-03-23T14:36:40Z</time>
      </trkpt>
      <trkpt lat="42.79556" lon="1.7366">
        <ele>1132.743</ele>
        <time>2021-03-23T14:36:42Z</time>
      </trkpt>
      <trkpt lat="42.79556" lon="1.73657">
        <ele>1132.399</ele>
        <time>2021-03-23T14:36:44Z</time>
      </trkpt>
      <trkpt lat="42.79556" lon="1.73655">
        <ele>1132.536</ele>
        <time>2021-03-23T14:36:46Z</time>
      </trkpt>
      <trkpt lat="42.79556" lon="1.73652">
        <ele>1131.155</ele>
        <time>2021-03-23T14:36:48Z</time>
      </trkpt>
      <trkpt lat="42.79556" lon="1.7365">
        <ele>1130.648</ele>
        <time>2021-03-23T14:36:50Z</time>
      </trkpt>
      <trkpt lat="42.79557" lon="1.73647">
        <ele>1130.166</ele>
        <time>2021-03-23T14:36:52Z</time>
      </trkpt>
      <trkpt lat="42.79557" lon="1.73644">
        <ele>1130.065</ele>
        <time>2021-03-23T14:36:54Z</time>
      </trkpt>
      <trkpt lat="42.79558" lon="1.73641">
        <ele>1130.167</ele>
        <time>2021-03-23T14:36:56Z</time>
      </trkpt>
      <trkpt lat="42.79558" lon="1.73638">
        <ele>1130.382</ele>
        <time>2021-03-23T14:36:58Z</time>
      </trkpt>
      <trkpt lat="42.79559" lon="1.73636">
        <ele>1130.382</ele>
        <time>2021-03-23T14:37:00Z</time>
      </trkpt>
      <trkpt lat="42.79559" lon="1.73634">
        <ele>1129.101</ele>
        <time>2021-03-23T14:37:02Z</time>
      </trkpt>
      <trkpt lat="42.79559" lon="1.73633">
        <ele>1128.577</ele>
        <time>2021-03-23T14:37:03Z</time>
      </trkpt>
      <trkpt lat="42.79559" lon="1.7363">
        <ele>1130.138</ele>
        <time>2021-03-23T14:37:06Z</time>
      </trkpt>
      <trkpt lat="42.79559" lon="1.73628">
        <ele>1130.372</ele>
        <time>2021-03-23T14:37:08Z</time>
      </trkpt>
      <trkpt lat="42.79558" lon="1.73626">
        <ele>1128.731</ele>
        <time>2021-03-23T14:37:10Z</time>
      </trkpt>
      <trkpt lat="42.79557" lon="1.73624">
        <ele>1128.116</ele>
        <time>2021-03-23T14:37:12Z</time>
      </trkpt>
      <trkpt lat="42.79556" lon="1.73624">
        <ele>1127.715</ele>
        <time>2021-03-23T14:37:14Z</time>
      </trkpt>
      <trkpt lat="42.79555" lon="1.73622">
        <ele>1127.229</ele>
        <time>2021-03-23T14:37:16Z</time>
      </trkpt>
      <trkpt lat="42.79554" lon="1.7362">
        <ele>1125.782</ele>
        <time>2021-03-23T14:37:18Z</time>
      </trkpt>
      <trkpt lat="42.79554" lon="1.73617">
        <ele>1123.994</ele>
        <time>2021-03-23T14:37:20Z</time>
      </trkpt>
      <trkpt lat="42.79554" lon="1.73616">
        <ele>1123.275</ele>
        <time>2021-03-23T14:37:22Z</time>
      </trkpt>
      <trkpt lat="42.79552" lon="1.73615">
        <ele>1123.029</ele>
        <time>2021-03-23T14:37:24Z</time>
      </trkpt>
      <trkpt lat="42.79551" lon="1.73614">
        <ele>1122.144</ele>
        <time>2021-03-23T14:37:26Z</time>
      </trkpt>
      <trkpt lat="42.7955" lon="1.73612">
        <ele>1121.638</ele>
        <time>2021-03-23T14:37:28Z</time>
      </trkpt>
      <trkpt lat="42.79551" lon="1.7361">
        <ele>1120.602</ele>
        <time>2021-03-23T14:37:30Z</time>
      </trkpt>
      <trkpt lat="42.79551" lon="1.73607">
        <ele>1119.655</ele>
        <time>2021-03-23T14:37:33Z</time>
      </trkpt>
      <trkpt lat="42.79552" lon="1.73605">
        <ele>1119.088</ele>
        <time>2021-03-23T14:37:35Z</time>
      </trkpt>
      <trkpt lat="42.79553" lon="1.73604">
        <ele>1119.421</ele>
        <time>2021-03-23T14:37:37Z</time>
      </trkpt>
      <trkpt lat="42.79554" lon="1.73601">
        <ele>1120.031</ele>
        <time>2021-03-23T14:37:39Z</time>
      </trkpt>
      <trkpt lat="42.79551" lon="1.73598">
        <ele>1120.17</ele>
        <time>2021-03-23T14:37:41Z</time>
      </trkpt>
      <trkpt lat="42.79552" lon="1.73597">
        <ele>1120.458</ele>
        <time>2021-03-23T14:37:43Z</time>
      </trkpt>
      <trkpt lat="42.79552" lon="1.73595">
        <ele>1120.337</ele>
        <time>2021-03-23T14:37:45Z</time>
      </trkpt>
      <trkpt lat="42.79552" lon="1.73593">
        <ele>1120.75</ele>
        <time>2021-03-23T14:37:47Z</time>
      </trkpt>
      <trkpt lat="42.79553" lon="1.73591">
        <ele>1120.248</ele>
        <time>2021-03-23T14:37:49Z</time>
      </trkpt>
      <trkpt lat="42.79553" lon="1.73589">
        <ele>1118.821</ele>
        <time>2021-03-23T14:37:51Z</time>
      </trkpt>
      <trkpt lat="42.79552" lon="1.73587">
        <ele>1117.987</ele>
        <time>2021-03-23T14:37:53Z</time>
      </trkpt>
      <trkpt lat="42.79552" lon="1.73586">
        <ele>1118.219</ele>
        <time>2021-03-23T14:37:55Z</time>
      </trkpt>
      <trkpt lat="42.79551" lon="1.73584">
        <ele>1117.798</ele>
        <time>2021-03-23T14:37:57Z</time>
      </trkpt>
      <trkpt lat="42.79551" lon="1.73583">
        <ele>1117.755</ele>
        <time>2021-03-23T14:37:59Z</time>
      </trkpt>
      <trkpt lat="42.79551" lon="1.73581">
        <ele>1117.575</ele>
        <time>2021-03-23T14:38:01Z</time>
      </trkpt>
      <trkpt lat="42.79551" lon="1.73579">
        <ele>1117.263</ele>
        <time>2021-03-23T14:38:03Z</time>
      </trkpt>
      <trkpt lat="42.79551" lon="1.73577">
        <ele>1116.631</ele>
        <time>2021-03-23T14:38:05Z</time>
      </trkpt>
      <trkpt lat="42.7955" lon="1.73576">
        <ele>1116.38</ele>
        <time>2021-03-23T14:38:07Z</time>
      </trkpt>
      <trkpt lat="42.79549" lon="1.73575">
        <ele>1115.31</ele>
        <time>2021-03-23T14:38:09Z</time>
      </trkpt>
      <trkpt lat="42.79548" lon="1.73573">
        <ele>1114.554</ele>
        <time>2021-03-23T14:38:11Z</time>
      </trkpt>
      <trkpt lat="42.79546" lon="1.73572">
        <ele>1113.503</ele>
        <time>2021-03-23T14:38:13Z</time>
      </trkpt>
      <trkpt lat="42.79545" lon="1.7357">
        <ele>1112.62</ele>
        <time>2021-03-23T14:38:15Z</time>
      </trkpt>
      <trkpt lat="42.79544" lon="1.73568">
        <ele>1111.492</ele>
        <time>2021-03-23T14:38:17Z</time>
      </trkpt>
      <trkpt lat="42.79543" lon="1.73566">
        <ele>1110.71</ele>
        <time>2021-03-23T14:38:19Z</time>
      </trkpt>
      <trkpt lat="42.79542" lon="1.73564">
        <ele>1110.136</ele>
        <time>2021-03-23T14:38:21Z</time>
      </trkpt>
      <trkpt lat="42.79542" lon="1.73561">
        <ele>1110.64</ele>
        <time>2021-03-23T14:38:23Z</time>
      </trkpt>
      <trkpt lat="42.79541" lon="1.73559">
        <ele>1111.013</ele>
        <time>2021-03-23T14:38:25Z</time>
      </trkpt>
      <trkpt lat="42.79539" lon="1.73561">
        <ele>1110.479</ele>
        <time>2021-03-23T14:38:27Z</time>
      </trkpt>
      <trkpt lat="42.79537" lon="1.73563">
        <ele>1109.48</ele>
        <time>2021-03-23T14:38:29Z</time>
      </trkpt>
      <trkpt lat="42.79537" lon="1.73563">
        <ele>1108.519</ele>
        <time>2021-03-23T14:38:31Z</time>
      </trkpt>
      <trkpt lat="42.79535" lon="1.73562">
        <ele>1108.25</ele>
        <time>2021-03-23T14:38:33Z</time>
      </trkpt>
      <trkpt lat="42.79535" lon="1.7356">
        <ele>1108.056</ele>
        <time>2021-03-23T14:38:35Z</time>
      </trkpt>
      <trkpt lat="42.79535" lon="1.73557">
        <ele>1107.643</ele>
        <time>2021-03-23T14:38:37Z</time>
      </trkpt>
      <trkpt lat="42.79534" lon="1.73554">
        <ele>1107.307</ele>
        <time>2021-03-23T14:38:39Z</time>
      </trkpt>
      <trkpt lat="42.79534" lon="1.73551">
        <ele>1106.965</ele>
        <time>2021-03-23T14:38:41Z</time>
      </trkpt>
      <trkpt lat="42.79534" lon="1.73549">
        <ele>1107.438</ele>
        <time>2021-03-23T14:38:43Z</time>
      </trkpt>
      <trkpt lat="42.79534" lon="1.73547">
        <ele>1107.404</ele>
        <time>2021-03-23T14:38:45Z</time>
      </trkpt>
      <trkpt lat="42.79532" lon="1.73547">
        <ele>1107.474</ele>
        <time>2021-03-23T14:38:47Z</time>
      </trkpt>
      <trkpt lat="42.7953" lon="1.73547">
        <ele>1106.313</ele>
        <time>2021-03-23T14:38:49Z</time>
      </trkpt>
      <trkpt lat="42.79529" lon="1.73547">
        <ele>1104.529</ele>
        <time>2021-03-23T14:38:51Z</time>
      </trkpt>
      <trkpt lat="42.79527" lon="1.73548">
        <ele>1103.28</ele>
        <time>2021-03-23T14:38:53Z</time>
      </trkpt>
      <trkpt lat="42.79526" lon="1.73548">
        <ele>1101.774</ele>
        <time>2021-03-23T14:38:55Z</time>
      </trkpt>
      <trkpt lat="42.79524" lon="1.73548">
        <ele>1100.649</ele>
        <time>2021-03-23T14:38:57Z</time>
      </trkpt>
      <trkpt lat="42.79523" lon="1.73549">
        <ele>1099.823</ele>
        <time>2021-03-23T14:38:59Z</time>
      </trkpt>
      <trkpt lat="42.79521" lon="1.73551">
        <ele>1098.076</ele>
        <time>2021-03-23T14:39:01Z</time>
      </trkpt>
      <trkpt lat="42.79519" lon="1.73553">
        <ele>1097.188</ele>
        <time>2021-03-23T14:39:03Z</time>
      </trkpt>
      <trkpt lat="42.79517" lon="1.73555">
        <ele>1095.765</ele>
        <time>2021-03-23T14:39:05Z</time>
      </trkpt>
      <trkpt lat="42.79516" lon="1.73556">
        <ele>1094.768</ele>
        <time>2021-03-23T14:39:07Z</time>
      </trkpt>
      <trkpt lat="42.79515" lon="1.73556">
        <ele>1094.189</ele>
        <time>2021-03-23T14:39:09Z</time>
      </trkpt>
      <trkpt lat="42.79513" lon="1.73554">
        <ele>1093.175</ele>
        <time>2021-03-23T14:39:11Z</time>
      </trkpt>
      <trkpt lat="42.79511" lon="1.73555">
        <ele>1091.964</ele>
        <time>2021-03-23T14:39:14Z</time>
      </trkpt>
      <trkpt lat="42.79511" lon="1.73552">
        <ele>1091.466</ele>
        <time>2021-03-23T14:39:16Z</time>
      </trkpt>
      <trkpt lat="42.79511" lon="1.73549">
        <ele>1090.763</ele>
        <time>2021-03-23T14:39:18Z</time>
      </trkpt>
      <trkpt lat="42.79509" lon="1.73549">
        <ele>1090.31</ele>
        <time>2021-03-23T14:39:20Z</time>
      </trkpt>
      <trkpt lat="42.79507" lon="1.73552">
        <ele>1088.944</ele>
        <time>2021-03-23T14:39:22Z</time>
      </trkpt>
      <trkpt lat="42.79506" lon="1.73555">
        <ele>1088.267</ele>
        <time>2021-03-23T14:39:24Z</time>
      </trkpt>
      <trkpt lat="42.79505" lon="1.73558">
        <ele>1086.717</ele>
        <time>2021-03-23T14:39:26Z</time>
      </trkpt>
      <trkpt lat="42.79503" lon="1.73561">
        <ele>1085.935</ele>
        <time>2021-03-23T14:39:28Z</time>
      </trkpt>
      <trkpt lat="42.79502" lon="1.73564">
        <ele>1086.795</ele>
        <time>2021-03-23T14:39:30Z</time>
      </trkpt>
      <trkpt lat="42.79501" lon="1.73566">
        <ele>1086.499</ele>
        <time>2021-03-23T14:39:32Z</time>
      </trkpt>
      <trkpt lat="42.79499" lon="1.73568">
        <ele>1086.228</ele>
        <time>2021-03-23T14:39:34Z</time>
      </trkpt>
      <trkpt lat="42.79497" lon="1.7357">
        <ele>1085.754</ele>
        <time>2021-03-23T14:39:36Z</time>
      </trkpt>
      <trkpt lat="42.79496" lon="1.73572">
        <ele>1085.282</ele>
        <time>2021-03-23T14:39:38Z</time>
      </trkpt>
      <trkpt lat="42.79494" lon="1.73572">
        <ele>1084.604</ele>
        <time>2021-03-23T14:39:40Z</time>
      </trkpt>
      <trkpt lat="42.79493" lon="1.73569">
        <ele>1083.332</ele>
        <time>2021-03-23T14:39:42Z</time>
      </trkpt>
      <trkpt lat="42.79493" lon="1.73566">
        <ele>1082.649</ele>
        <time>2021-03-23T14:39:44Z</time>
      </trkpt>
      <trkpt lat="42.79491" lon="1.73565">
        <ele>1082.827</ele>
        <time>2021-03-23T14:39:46Z</time>
      </trkpt>
      <trkpt lat="42.7949" lon="1.73568">
        <ele>1082.633</ele>
        <time>2021-03-23T14:39:48Z</time>
      </trkpt>
      <trkpt lat="42.79489" lon="1.73569">
        <ele>1081.439</ele>
        <time>2021-03-23T14:39:50Z</time>
      </trkpt>
      <trkpt lat="42.79487" lon="1.73571">
        <ele>1081.355</ele>
        <time>2021-03-23T14:39:52Z</time>
      </trkpt>
      <trkpt lat="42.79486" lon="1.73573">
        <ele>1081.379</ele>
        <time>2021-03-23T14:39:54Z</time>
      </trkpt>
      <trkpt lat="42.79484" lon="1.73575">
        <ele>1081.467</ele>
        <time>2021-03-23T14:39:56Z</time>
      </trkpt>
      <trkpt lat="42.79484" lon="1.73578">
        <ele>1080.37</ele>
        <time>2021-03-23T14:39:58Z</time>
      </trkpt>
      <trkpt lat="42.79483" lon="1.73581">
        <ele>1079.85</ele>
        <time>2021-03-23T14:40:00Z</time>
      </trkpt>
      <trkpt lat="42.79483" lon="1.73584">
        <ele>1079.932</ele>
        <time>2021-03-23T14:40:02Z</time>
      </trkpt>
      <trkpt lat="42.79482" lon="1.73586">
        <ele>1079.88</ele>
        <time>2021-03-23T14:40:04Z</time>
      </trkpt>
      <trkpt lat="42.79481" lon="1.73588">
        <ele>1078.534</ele>
        <time>2021-03-23T14:40:06Z</time>
      </trkpt>
      <trkpt lat="42.7948" lon="1.73585">
        <ele>1078.496</ele>
        <time>2021-03-23T14:40:08Z</time>
      </trkpt>
      <trkpt lat="42.79479" lon="1.73583">
        <ele>1078.428</ele>
        <time>2021-03-23T14:40:10Z</time>
      </trkpt>
      <trkpt lat="42.79479" lon="1.73581">
        <ele>1078.294</ele>
        <time>2021-03-23T14:40:12Z</time>
      </trkpt>
      <trkpt lat="42.7948" lon="1.73579">
        <ele>1079.162</ele>
        <time>2021-03-23T14:40:14Z</time>
      </trkpt>
      <trkpt lat="42.7948" lon="1.73577">
        <ele>1078.755</ele>
        <time>2021-03-23T14:40:16Z</time>
      </trkpt>
      <trkpt lat="42.7948" lon="1.73575">
        <ele>1078.702</ele>
        <time>2021-03-23T14:40:18Z</time>
      </trkpt>
      <trkpt lat="42.79479" lon="1.73572">
        <ele>1077.744</ele>
        <time>2021-03-23T14:40:20Z</time>
      </trkpt>
      <trkpt lat="42.79479" lon="1.7357">
        <ele>1077.907</ele>
        <time>2021-03-23T14:40:22Z</time>
      </trkpt>
      <trkpt lat="42.79478" lon="1.73567">
        <ele>1077.799</ele>
        <time>2021-03-23T14:40:24Z</time>
      </trkpt>
      <trkpt lat="42.79478" lon="1.73565">
        <ele>1078.221</ele>
        <time>2021-03-23T14:40:26Z</time>
      </trkpt>
      <trkpt lat="42.79478" lon="1.73564">
        <ele>1077.528</ele>
        <time>2021-03-23T14:40:28Z</time>
      </trkpt>
      <trkpt lat="42.79479" lon="1.73562">
        <ele>1077.28</ele>
        <time>2021-03-23T14:40:30Z</time>
      </trkpt>
      <trkpt lat="42.79479" lon="1.7356">
        <ele>1076.768</ele>
        <time>2021-03-23T14:40:32Z</time>
      </trkpt>
      <trkpt lat="42.79479" lon="1.73558">
        <ele>1076.232</ele>
        <time>2021-03-23T14:40:34Z</time>
      </trkpt>
      <trkpt lat="42.79479" lon="1.73556">
        <ele>1075.732</ele>
        <time>2021-03-23T14:40:36Z</time>
      </trkpt>
      <trkpt lat="42.79478" lon="1.73554">
        <ele>1074.669</ele>
        <time>2021-03-23T14:40:38Z</time>
      </trkpt>
      <trkpt lat="42.79478" lon="1.73552">
        <ele>1073.754</ele>
        <time>2021-03-23T14:40:40Z</time>
      </trkpt>
      <trkpt lat="42.79478" lon="1.73549">
        <ele>1073.343</ele>
        <time>2021-03-23T14:40:42Z</time>
      </trkpt>
      <trkpt lat="42.79478" lon="1.73546">
        <ele>1072.758</ele>
        <time>2021-03-23T14:40:44Z</time>
      </trkpt>
      <trkpt lat="42.79477" lon="1.73544">
        <ele>1072.678</ele>
        <time>2021-03-23T14:40:46Z</time>
      </trkpt>
      <trkpt lat="42.79477" lon="1.73542">
        <ele>1072.258</ele>
        <time>2021-03-23T14:40:48Z</time>
      </trkpt>
      <trkpt lat="42.79477" lon="1.73539">
        <ele>1071.572</ele>
        <time>2021-03-23T14:40:50Z</time>
      </trkpt>
      <trkpt lat="42.79476" lon="1.73537">
        <ele>1070.977</ele>
        <time>2021-03-23T14:40:52Z</time>
      </trkpt>
      <trkpt lat="42.79476" lon="1.73535">
        <ele>1070.836</ele>
        <time>2021-03-23T14:40:54Z</time>
      </trkpt>
      <trkpt lat="42.79475" lon="1.73533">
        <ele>1070.49</ele>
        <time>2021-03-23T14:40:56Z</time>
      </trkpt>
      <trkpt lat="42.79475" lon="1.7353">
        <ele>1070.057</ele>
        <time>2021-03-23T14:40:58Z</time>
      </trkpt>
      <trkpt lat="42.79475" lon="1.73527">
        <ele>1069.175</ele>
        <time>2021-03-23T14:41:00Z</time>
      </trkpt>
      <trkpt lat="42.79475" lon="1.73525">
        <ele>1069.931</ele>
        <time>2021-03-23T14:41:02Z</time>
      </trkpt>
      <trkpt lat="42.79475" lon="1.73522">
        <ele>1069.232</ele>
        <time>2021-03-23T14:41:04Z</time>
      </trkpt>
      <trkpt lat="42.79475" lon="1.73519">
        <ele>1069.151</ele>
        <time>2021-03-23T14:41:06Z</time>
      </trkpt>
      <trkpt lat="42.79475" lon="1.73516">
        <ele>1068.388</ele>
        <time>2021-03-23T14:41:08Z</time>
      </trkpt>
      <trkpt lat="42.79474" lon="1.73513">
        <ele>1067.496</ele>
        <time>2021-03-23T14:41:10Z</time>
      </trkpt>
      <trkpt lat="42.79474" lon="1.7351">
        <ele>1066.496</ele>
        <time>2021-03-23T14:41:12Z</time>
      </trkpt>
      <trkpt lat="42.79473" lon="1.73507">
        <ele>1066.05</ele>
        <time>2021-03-23T14:41:14Z</time>
      </trkpt>
      <trkpt lat="42.79474" lon="1.73505">
        <ele>1066.842</ele>
        <time>2021-03-23T14:41:16Z</time>
      </trkpt>
      <trkpt lat="42.79475" lon="1.73503">
        <ele>1066.61</ele>
        <time>2021-03-23T14:41:18Z</time>
      </trkpt>
      <trkpt lat="42.79476" lon="1.73501">
        <ele>1067.332</ele>
        <time>2021-03-23T14:41:20Z</time>
      </trkpt>
      <trkpt lat="42.79476" lon="1.73499">
        <ele>1067.123</ele>
        <time>2021-03-23T14:41:22Z</time>
      </trkpt>
      <trkpt lat="42.79476" lon="1.73497">
        <ele>1067.089</ele>
        <time>2021-03-23T14:41:24Z</time>
      </trkpt>
      <trkpt lat="42.79475" lon="1.73495">
        <ele>1066.34</ele>
        <time>2021-03-23T14:41:26Z</time>
      </trkpt>
      <trkpt lat="42.79473" lon="1.73493">
        <ele>1065.549</ele>
        <time>2021-03-23T14:41:28Z</time>
      </trkpt>
      <trkpt lat="42.79472" lon="1.73492">
        <ele>1065.043</ele>
        <time>2021-03-23T14:41:30Z</time>
      </trkpt>
      <trkpt lat="42.79472" lon="1.73489">
        <ele>1064.032</ele>
        <time>2021-03-23T14:41:32Z</time>
      </trkpt>
      <trkpt lat="42.79471" lon="1.73487">
        <ele>1063.691</ele>
        <time>2021-03-23T14:41:34Z</time>
      </trkpt>
      <trkpt lat="42.79471" lon="1.73484">
        <ele>1063.543</ele>
        <time>2021-03-23T14:41:36Z</time>
      </trkpt>
      <trkpt lat="42.79471" lon="1.73482">
        <ele>1063.172</ele>
        <time>2021-03-23T14:41:38Z</time>
      </trkpt>
      <trkpt lat="42.7947" lon="1.7348">
        <ele>1062.035</ele>
        <time>2021-03-23T14:41:40Z</time>
      </trkpt>
      <trkpt lat="42.79469" lon="1.73478">
        <ele>1061.748</ele>
        <time>2021-03-23T14:41:42Z</time>
      </trkpt>
      <trkpt lat="42.79469" lon="1.73475">
        <ele>1061.81</ele>
        <time>2021-03-23T14:41:44Z</time>
      </trkpt>
      <trkpt lat="42.79469" lon="1.73473">
        <ele>1061.473</ele>
        <time>2021-03-23T14:41:46Z</time>
      </trkpt>
      <trkpt lat="42.79469" lon="1.73471">
        <ele>1061.754</ele>
        <time>2021-03-23T14:41:48Z</time>
      </trkpt>
      <trkpt lat="42.7947" lon="1.73469">
        <ele>1061.315</ele>
        <time>2021-03-23T14:41:50Z</time>
      </trkpt>
      <trkpt lat="42.79469" lon="1.73467">
        <ele>1060.981</ele>
        <time>2021-03-23T14:41:52Z</time>
      </trkpt>
      <trkpt lat="42.79469" lon="1.73465">
        <ele>1060.169</ele>
        <time>2021-03-23T14:41:54Z</time>
      </trkpt>
      <trkpt lat="42.79469" lon="1.73462">
        <ele>1059.916</ele>
        <time>2021-03-23T14:41:56Z</time>
      </trkpt>
      <trkpt lat="42.79468" lon="1.73461">
        <ele>1058.595</ele>
        <time>2021-03-23T14:41:58Z</time>
      </trkpt>
      <trkpt lat="42.79467" lon="1.73458">
        <ele>1058.765</ele>
        <time>2021-03-23T14:42:00Z</time>
      </trkpt>
      <trkpt lat="42.79466" lon="1.73455">
        <ele>1058.743</ele>
        <time>2021-03-23T14:42:02Z</time>
      </trkpt>
      <trkpt lat="42.79466" lon="1.73452">
        <ele>1058.547</ele>
        <time>2021-03-23T14:42:04Z</time>
      </trkpt>
      <trkpt lat="42.79465" lon="1.7345">
        <ele>1058.95</ele>
        <time>2021-03-23T14:42:06Z</time>
      </trkpt>
      <trkpt lat="42.79464" lon="1.73447">
        <ele>1058.671</ele>
        <time>2021-03-23T14:42:08Z</time>
      </trkpt>
      <trkpt lat="42.79463" lon="1.73444">
        <ele>1058.114</ele>
        <time>2021-03-23T14:42:10Z</time>
      </trkpt>
      <trkpt lat="42.79463" lon="1.73441">
        <ele>1058.023</ele>
        <time>2021-03-23T14:42:12Z</time>
      </trkpt>
      <trkpt lat="42.79463" lon="1.73439">
        <ele>1058.337</ele>
        <time>2021-03-23T14:42:14Z</time>
      </trkpt>
      <trkpt lat="42.79463" lon="1.73437">
        <ele>1057.594</ele>
        <time>2021-03-23T14:42:16Z</time>
      </trkpt>
      <trkpt lat="42.79463" lon="1.73434">
        <ele>1056.781</ele>
        <time>2021-03-23T14:42:18Z</time>
      </trkpt>
      <trkpt lat="42.79464" lon="1.73431">
        <ele>1057.49</ele>
        <time>2021-03-23T14:42:20Z</time>
      </trkpt>
      <trkpt lat="42.79464" lon="1.73428">
        <ele>1057.81</ele>
        <time>2021-03-23T14:42:22Z</time>
      </trkpt>
      <trkpt lat="42.79464" lon="1.73425">
        <ele>1058.55</ele>
        <time>2021-03-23T14:42:24Z</time>
      </trkpt>
      <trkpt lat="42.79464" lon="1.73422">
        <ele>1058.225</ele>
        <time>2021-03-23T14:42:26Z</time>
      </trkpt>
      <trkpt lat="42.79464" lon="1.73419">
        <ele>1057.646</ele>
        <time>2021-03-23T14:42:28Z</time>
      </trkpt>
      <trkpt lat="42.79465" lon="1.73416">
        <ele>1057.377</ele>
        <time>2021-03-23T14:42:30Z</time>
      </trkpt>
      <trkpt lat="42.79465" lon="1.73413">
        <ele>1057.524</ele>
        <time>2021-03-23T14:42:32Z</time>
      </trkpt>
      <trkpt lat="42.79466" lon="1.7341">
        <ele>1056.031</ele>
        <time>2021-03-23T14:42:34Z</time>
      </trkpt>
      <trkpt lat="42.79465" lon="1.73408">
        <ele>1055.816</ele>
        <time>2021-03-23T14:42:36Z</time>
      </trkpt>
      <trkpt lat="42.79465" lon="1.73406">
        <ele>1056.064</ele>
        <time>2021-03-23T14:42:38Z</time>
      </trkpt>
      <trkpt lat="42.79464" lon="1.73403">
        <ele>1055.778</ele>
        <time>2021-03-23T14:42:40Z</time>
      </trkpt>
      <trkpt lat="42.79463" lon="1.73401">
        <ele>1055.071</ele>
        <time>2021-03-23T14:42:42Z</time>
      </trkpt>
      <trkpt lat="42.79462" lon="1.73398">
        <ele>1054.572</ele>
        <time>2021-03-23T14:42:44Z</time>
      </trkpt>
      <trkpt lat="42.79462" lon="1.73394">
        <ele>1054.755</ele>
        <time>2021-03-23T14:42:46Z</time>
      </trkpt>
      <trkpt lat="42.7946" lon="1.73391">
        <ele>1056.344</ele>
        <time>2021-03-23T14:42:48Z</time>
      </trkpt>
      <trkpt lat="42.7946" lon="1.7339">
        <ele>1057.558</ele>
        <time>2021-03-23T14:42:50Z</time>
      </trkpt>
      <trkpt lat="42.79458" lon="1.73389">
        <ele>1058.229</ele>
        <time>2021-03-23T14:42:52Z</time>
      </trkpt>
      <trkpt lat="42.79458" lon="1.73388">
        <ele>1057.981</ele>
        <time>2021-03-23T14:42:54Z</time>
      </trkpt>
      <trkpt lat="42.79457" lon="1.73387">
        <ele>1057.971</ele>
        <time>2021-03-23T14:42:56Z</time>
      </trkpt>
      <trkpt lat="42.79457" lon="1.73386">
        <ele>1057.695</ele>
        <time>2021-03-23T14:42:58Z</time>
      </trkpt>
      <trkpt lat="42.79456" lon="1.73385">
        <ele>1057.619</ele>
        <time>2021-03-23T14:43:00Z</time>
      </trkpt>
      <trkpt lat="42.79455" lon="1.73384">
        <ele>1056.617</ele>
        <time>2021-03-23T14:43:02Z</time>
      </trkpt>
      <trkpt lat="42.79453" lon="1.73382">
        <ele>1057.105</ele>
        <time>2021-03-23T14:43:04Z</time>
      </trkpt>
      <trkpt lat="42.79452" lon="1.73382">
        <ele>1055.38</ele>
        <time>2021-03-23T14:43:06Z</time>
      </trkpt>
      <trkpt lat="42.79451" lon="1.73381">
        <ele>1054.27</ele>
        <time>2021-03-23T14:43:08Z</time>
      </trkpt>
      <trkpt lat="42.79449" lon="1.73381">
        <ele>1055.307</ele>
        <time>2021-03-23T14:43:10Z</time>
      </trkpt>
      <trkpt lat="42.79447" lon="1.7338">
        <ele>1056.286</ele>
        <time>2021-03-23T14:43:12Z</time>
      </trkpt>
      <trkpt lat="42.79445" lon="1.7338">
        <ele>1056.259</ele>
        <time>2021-03-23T14:43:14Z</time>
      </trkpt>
      <trkpt lat="42.79443" lon="1.73379">
        <ele>1056.16</ele>
        <time>2021-03-23T14:43:16Z</time>
      </trkpt>
      <trkpt lat="42.79442" lon="1.73379">
        <ele>1055.902</ele>
        <time>2021-03-23T14:43:18Z</time>
      </trkpt>
      <trkpt lat="42.7944" lon="1.73381">
        <ele>1055.485</ele>
        <time>2021-03-23T14:43:20Z</time>
      </trkpt>
      <trkpt lat="42.79439" lon="1.73382">
        <ele>1054.607</ele>
        <time>2021-03-23T14:43:22Z</time>
      </trkpt>
      <trkpt lat="42.79437" lon="1.73384">
        <ele>1053.821</ele>
        <time>2021-03-23T14:43:24Z</time>
      </trkpt>
      <trkpt lat="42.79436" lon="1.73386">
        <ele>1053.691</ele>
        <time>2021-03-23T14:43:26Z</time>
      </trkpt>
      <trkpt lat="42.79434" lon="1.73387">
        <ele>1055.02</ele>
        <time>2021-03-23T14:43:28Z</time>
      </trkpt>
      <trkpt lat="42.79432" lon="1.73389">
        <ele>1055.601</ele>
        <time>2021-03-23T14:43:30Z</time>
      </trkpt>
      <trkpt lat="42.7943" lon="1.73391">
        <ele>1055.095</ele>
        <time>2021-03-23T14:43:32Z</time>
      </trkpt>
      <trkpt lat="42.79428" lon="1.73393">
        <ele>1055.269</ele>
        <time>2021-03-23T14:43:34Z</time>
      </trkpt>
      <trkpt lat="42.79426" lon="1.73394">
        <ele>1055.643</ele>
        <time>2021-03-23T14:43:36Z</time>
      </trkpt>
      <trkpt lat="42.79424" lon="1.73395">
        <ele>1054.737</ele>
        <time>2021-03-23T14:43:38Z</time>
      </trkpt>
      <trkpt lat="42.79422" lon="1.73396">
        <ele>1052.774</ele>
        <time>2021-03-23T14:43:40Z</time>
      </trkpt>
      <trkpt lat="42.7942" lon="1.73396">
        <ele>1051.354</ele>
        <time>2021-03-23T14:43:42Z</time>
      </trkpt>
      <trkpt lat="42.79418" lon="1.73397">
        <ele>1050.923</ele>
        <time>2021-03-23T14:43:44Z</time>
      </trkpt>
      <trkpt lat="42.79415" lon="1.73397">
        <ele>1051.393</ele>
        <time>2021-03-23T14:43:46Z</time>
      </trkpt>
      <trkpt lat="42.79413" lon="1.73397">
        <ele>1049.613</ele>
        <time>2021-03-23T14:43:48Z</time>
      </trkpt>
      <trkpt lat="42.79412" lon="1.73397">
        <ele>1048.364</ele>
        <time>2021-03-23T14:43:50Z</time>
      </trkpt>
      <trkpt lat="42.7941" lon="1.73397">
        <ele>1048.033</ele>
        <time>2021-03-23T14:43:52Z</time>
      </trkpt>
      <trkpt lat="42.79408" lon="1.73397">
        <ele>1047.237</ele>
        <time>2021-03-23T14:43:54Z</time>
      </trkpt>
      <trkpt lat="42.79405" lon="1.73397">
        <ele>1047.837</ele>
        <time>2021-03-23T14:43:56Z</time>
      </trkpt>
      <trkpt lat="42.79403" lon="1.73398">
        <ele>1047.08</ele>
        <time>2021-03-23T14:43:58Z</time>
      </trkpt>
      <trkpt lat="42.79401" lon="1.73399">
        <ele>1047.705</ele>
        <time>2021-03-23T14:44:00Z</time>
      </trkpt>
      <trkpt lat="42.79398" lon="1.73399">
        <ele>1047.459</ele>
        <time>2021-03-23T14:44:02Z</time>
      </trkpt>
      <trkpt lat="42.79396" lon="1.73399">
        <ele>1047.399</ele>
        <time>2021-03-23T14:44:04Z</time>
      </trkpt>
      <trkpt lat="42.79395" lon="1.73398">
        <ele>1045.156</ele>
        <time>2021-03-23T14:44:06Z</time>
      </trkpt>
      <trkpt lat="42.79393" lon="1.73399">
        <ele>1043.609</ele>
        <time>2021-03-23T14:44:08Z</time>
      </trkpt>
      <trkpt lat="42.79391" lon="1.73399">
        <ele>1043.227</ele>
        <time>2021-03-23T14:44:10Z</time>
      </trkpt>
      <trkpt lat="42.79389" lon="1.73399">
        <ele>1041.64</ele>
        <time>2021-03-23T14:44:12Z</time>
      </trkpt>
      <trkpt lat="42.79387" lon="1.73398">
        <ele>1040.789</ele>
        <time>2021-03-23T14:44:14Z</time>
      </trkpt>
      <trkpt lat="42.79385" lon="1.73399">
        <ele>1039.953</ele>
        <time>2021-03-23T14:44:16Z</time>
      </trkpt>
      <trkpt lat="42.79383" lon="1.73398">
        <ele>1038.68</ele>
        <time>2021-03-23T14:44:18Z</time>
      </trkpt>
      <trkpt lat="42.79381" lon="1.73398">
        <ele>1036.674</ele>
        <time>2021-03-23T14:44:20Z</time>
      </trkpt>
      <trkpt lat="42.79379" lon="1.73398">
        <ele>1036.283</ele>
        <time>2021-03-23T14:44:22Z</time>
      </trkpt>
      <trkpt lat="42.79378" lon="1.73397">
        <ele>1034.554</ele>
        <time>2021-03-23T14:44:24Z</time>
      </trkpt>
      <trkpt lat="42.79375" lon="1.73397">
        <ele>1033.493</ele>
        <time>2021-03-23T14:44:26Z</time>
      </trkpt>
      <trkpt lat="42.79373" lon="1.73397">
        <ele>1033.049</ele>
        <time>2021-03-23T14:44:28Z</time>
      </trkpt>
      <trkpt lat="42.79372" lon="1.73397">
        <ele>1033.288</ele>
        <time>2021-03-23T14:44:30Z</time>
      </trkpt>
      <trkpt lat="42.7937" lon="1.73398">
        <ele>1033.286</ele>
        <time>2021-03-23T14:44:32Z</time>
      </trkpt>
      <trkpt lat="42.79368" lon="1.73398">
        <ele>1033.863</ele>
        <time>2021-03-23T14:44:34Z</time>
      </trkpt>
      <trkpt lat="42.79366" lon="1.73398">
        <ele>1034.353</ele>
        <time>2021-03-23T14:44:36Z</time>
      </trkpt>
      <trkpt lat="42.79363" lon="1.73398">
        <ele>1034.133</ele>
        <time>2021-03-23T14:44:38Z</time>
      </trkpt>
      <trkpt lat="42.79361" lon="1.73398">
        <ele>1034.155</ele>
        <time>2021-03-23T14:44:40Z</time>
      </trkpt>
      <trkpt lat="42.79359" lon="1.73398">
        <ele>1032.729</ele>
        <time>2021-03-23T14:44:42Z</time>
      </trkpt>
      <trkpt lat="42.79357" lon="1.73398">
        <ele>1030.39</ele>
        <time>2021-03-23T14:44:44Z</time>
      </trkpt>
      <trkpt lat="42.79355" lon="1.73398">
        <ele>1029.991</ele>
        <time>2021-03-23T14:44:46Z</time>
      </trkpt>
      <trkpt lat="42.79353" lon="1.73398">
        <ele>1029.484</ele>
        <time>2021-03-23T14:44:48Z</time>
      </trkpt>
      <trkpt lat="42.79351" lon="1.73397">
        <ele>1028.291</ele>
        <time>2021-03-23T14:44:50Z</time>
      </trkpt>
      <trkpt lat="42.79349" lon="1.73396">
        <ele>1027.968</ele>
        <time>2021-03-23T14:44:52Z</time>
      </trkpt>
      <trkpt lat="42.79347" lon="1.73394">
        <ele>1028.515</ele>
        <time>2021-03-23T14:44:54Z</time>
      </trkpt>
      <trkpt lat="42.79345" lon="1.73394">
        <ele>1027.715</ele>
        <time>2021-03-23T14:44:56Z</time>
      </trkpt>
      <trkpt lat="42.79343" lon="1.73393">
        <ele>1028.438</ele>
        <time>2021-03-23T14:44:58Z</time>
      </trkpt>
      <trkpt lat="42.79341" lon="1.73392">
        <ele>1028.009</ele>
        <time>2021-03-23T14:45:00Z</time>
      </trkpt>
      <trkpt lat="42.7934" lon="1.73391">
        <ele>1026.817</ele>
        <time>2021-03-23T14:45:02Z</time>
      </trkpt>
      <trkpt lat="42.79338" lon="1.73391">
        <ele>1026.314</ele>
        <time>2021-03-23T14:45:04Z</time>
      </trkpt>
      <trkpt lat="42.79336" lon="1.73391">
        <ele>1026.433</ele>
        <time>2021-03-23T14:45:06Z</time>
      </trkpt>
      <trkpt lat="42.79334" lon="1.73391">
        <ele>1025.514</ele>
        <time>2021-03-23T14:45:08Z</time>
      </trkpt>
      <trkpt lat="42.79332" lon="1.73391">
        <ele>1025.715</ele>
        <time>2021-03-23T14:45:10Z</time>
      </trkpt>
      <trkpt lat="42.7933" lon="1.73392">
        <ele>1025.277</ele>
        <time>2021-03-23T14:45:12Z</time>
      </trkpt>
      <trkpt lat="42.79329" lon="1.73392">
        <ele>1024.632</ele>
        <time>2021-03-23T14:45:14Z</time>
      </trkpt>
      <trkpt lat="42.79328" lon="1.73393">
        <ele>1023.923</ele>
        <time>2021-03-23T14:45:16Z</time>
      </trkpt>
      <trkpt lat="42.79326" lon="1.73393">
        <ele>1022.912</ele>
        <time>2021-03-23T14:45:18Z</time>
      </trkpt>
      <trkpt lat="42.79325" lon="1.73392">
        <ele>1023.034</ele>
        <time>2021-03-23T14:45:20Z</time>
      </trkpt>
      <trkpt lat="42.79323" lon="1.73392">
        <ele>1022.637</ele>
        <time>2021-03-23T14:45:22Z</time>
      </trkpt>
      <trkpt lat="42.79322" lon="1.73392">
        <ele>1021.418</ele>
        <time>2021-03-23T14:45:24Z</time>
      </trkpt>
      <trkpt lat="42.7932" lon="1.73393">
        <ele>1021.67</ele>
        <time>2021-03-23T14:45:26Z</time>
      </trkpt>
      <trkpt lat="42.79318" lon="1.73394">
        <ele>1021.378</ele>
        <time>2021-03-23T14:45:28Z</time>
      </trkpt>
      <trkpt lat="42.79317" lon="1.73395">
        <ele>1021.411</ele>
        <time>2021-03-23T14:45:30Z</time>
      </trkpt>
      <trkpt lat="42.79316" lon="1.73396">
        <ele>1020.909</ele>
        <time>2021-03-23T14:45:32Z</time>
      </trkpt>
      <trkpt lat="42.79314" lon="1.73396">
        <ele>1020.662</ele>
        <time>2021-03-23T14:45:34Z</time>
      </trkpt>
      <trkpt lat="42.79313" lon="1.73397">
        <ele>1020.436</ele>
        <time>2021-03-23T14:45:36Z</time>
      </trkpt>
      <trkpt lat="42.79312" lon="1.73397">
        <ele>1020.082</ele>
        <time>2021-03-23T14:45:38Z</time>
      </trkpt>
      <trkpt lat="42.7931" lon="1.73397">
        <ele>1019.683</ele>
        <time>2021-03-23T14:45:40Z</time>
      </trkpt>
      <trkpt lat="42.79309" lon="1.73398">
        <ele>1019.515</ele>
        <time>2021-03-23T14:45:42Z</time>
      </trkpt>
      <trkpt lat="42.79307" lon="1.73398">
        <ele>1018.957</ele>
        <time>2021-03-23T14:45:44Z</time>
      </trkpt>
      <trkpt lat="42.79306" lon="1.734">
        <ele>1018.196</ele>
        <time>2021-03-23T14:45:46Z</time>
      </trkpt>
      <trkpt lat="42.79306" lon="1.73402">
        <ele>1016.203</ele>
        <time>2021-03-23T14:45:48Z</time>
      </trkpt>
      <trkpt lat="42.79305" lon="1.73404">
        <ele>1015.671</ele>
        <time>2021-03-23T14:45:50Z</time>
      </trkpt>
      <trkpt lat="42.79304" lon="1.73405">
        <ele>1014.79</ele>
        <time>2021-03-23T14:45:52Z</time>
      </trkpt>
      <trkpt lat="42.79303" lon="1.73407">
        <ele>1015.563</ele>
        <time>2021-03-23T14:45:54Z</time>
      </trkpt>
      <trkpt lat="42.79302" lon="1.73409">
        <ele>1015.698</ele>
        <time>2021-03-23T14:45:56Z</time>
      </trkpt>
      <trkpt lat="42.79303" lon="1.73411">
        <ele>1014.661</ele>
        <time>2021-03-23T14:45:58Z</time>
      </trkpt>
      <trkpt lat="42.79303" lon="1.73413">
        <ele>1013.708</ele>
        <time>2021-03-23T14:46:00Z</time>
      </trkpt>
      <trkpt lat="42.79302" lon="1.73416">
        <ele>1013.381</ele>
        <time>2021-03-23T14:46:02Z</time>
      </trkpt>
      <trkpt lat="42.79301" lon="1.73419">
        <ele>1013.743</ele>
        <time>2021-03-23T14:46:04Z</time>
      </trkpt>
      <trkpt lat="42.79301" lon="1.73422">
        <ele>1013.7</ele>
        <time>2021-03-23T14:46:06Z</time>
      </trkpt>
      <trkpt lat="42.793" lon="1.73424">
        <ele>1012.281</ele>
        <time>2021-03-23T14:46:08Z</time>
      </trkpt>
      <trkpt lat="42.79299" lon="1.73425">
        <ele>1011.488</ele>
        <time>2021-03-23T14:46:10Z</time>
      </trkpt>
      <trkpt lat="42.79297" lon="1.73423">
        <ele>1010.706</ele>
        <time>2021-03-23T14:46:12Z</time>
      </trkpt>
      <trkpt lat="42.79295" lon="1.73421">
        <ele>1010.659</ele>
        <time>2021-03-23T14:46:14Z</time>
      </trkpt>
      <trkpt lat="42.79295" lon="1.73418">
        <ele>1010.052</ele>
        <time>2021-03-23T14:46:16Z</time>
      </trkpt>
      <trkpt lat="42.79295" lon="1.73416">
        <ele>1009.137</ele>
        <time>2021-03-23T14:46:18Z</time>
      </trkpt>
      <trkpt lat="42.79294" lon="1.73414">
        <ele>1008.681</ele>
        <time>2021-03-23T14:46:20Z</time>
      </trkpt>
      <trkpt lat="42.79293" lon="1.73412">
        <ele>1008.264</ele>
        <time>2021-03-23T14:46:22Z</time>
      </trkpt>
      <trkpt lat="42.79292" lon="1.7341">
        <ele>1008.562</ele>
        <time>2021-03-23T14:46:24Z</time>
      </trkpt>
      <trkpt lat="42.79291" lon="1.73408">
        <ele>1008.139</ele>
        <time>2021-03-23T14:46:26Z</time>
      </trkpt>
      <trkpt lat="42.7929" lon="1.73406">
        <ele>1008.419</ele>
        <time>2021-03-23T14:46:28Z</time>
      </trkpt>
      <trkpt lat="42.79289" lon="1.73404">
        <ele>1008.258</ele>
        <time>2021-03-23T14:46:30Z</time>
      </trkpt>
      <trkpt lat="42.79288" lon="1.73402">
        <ele>1007.825</ele>
        <time>2021-03-23T14:46:32Z</time>
      </trkpt>
      <trkpt lat="42.79286" lon="1.734">
        <ele>1008.363</ele>
        <time>2021-03-23T14:46:34Z</time>
      </trkpt>
      <trkpt lat="42.79284" lon="1.73399">
        <ele>1007.994</ele>
        <time>2021-03-23T14:46:36Z</time>
      </trkpt>
      <trkpt lat="42.79283" lon="1.73398">
        <ele>1007.131</ele>
        <time>2021-03-23T14:46:38Z</time>
      </trkpt>
      <trkpt lat="42.79281" lon="1.73397">
        <ele>1005.908</ele>
        <time>2021-03-23T14:46:40Z</time>
      </trkpt>
      <trkpt lat="42.79279" lon="1.73397">
        <ele>1004.636</ele>
        <time>2021-03-23T14:46:42Z</time>
      </trkpt>
      <trkpt lat="42.79277" lon="1.73396">
        <ele>1003.828</ele>
        <time>2021-03-23T14:46:44Z</time>
      </trkpt>
      <trkpt lat="42.79275" lon="1.73395">
        <ele>1003.3</ele>
        <time>2021-03-23T14:46:46Z</time>
      </trkpt>
      <trkpt lat="42.79273" lon="1.73395">
        <ele>1002.917</ele>
        <time>2021-03-23T14:46:48Z</time>
      </trkpt>
      <trkpt lat="42.79271" lon="1.73395">
        <ele>1001.025</ele>
        <time>2021-03-23T14:46:50Z</time>
      </trkpt>
      <trkpt lat="42.79269" lon="1.73395">
        <ele>999.776</ele>
        <time>2021-03-23T14:46:52Z</time>
      </trkpt>
      <trkpt lat="42.79266" lon="1.73395">
        <ele>999.919</ele>
        <time>2021-03-23T14:46:54Z</time>
      </trkpt>
      <trkpt lat="42.79264" lon="1.73395">
        <ele>999.756</ele>
        <time>2021-03-23T14:46:56Z</time>
      </trkpt>
      <trkpt lat="42.79262" lon="1.73395">
        <ele>999.109</ele>
        <time>2021-03-23T14:46:58Z</time>
      </trkpt>
      <trkpt lat="42.79261" lon="1.73394">
        <ele>999.274</ele>
        <time>2021-03-23T14:47:00Z</time>
      </trkpt>
      <trkpt lat="42.79259" lon="1.73394">
        <ele>998.226</ele>
        <time>2021-03-23T14:47:02Z</time>
      </trkpt>
      <trkpt lat="42.79257" lon="1.73395">
        <ele>998.088</ele>
        <time>2021-03-23T14:47:04Z</time>
      </trkpt>
      <trkpt lat="42.79255" lon="1.73394">
        <ele>998.236</ele>
        <time>2021-03-23T14:47:06Z</time>
      </trkpt>
      <trkpt lat="42.79253" lon="1.73394">
        <ele>997.164</ele>
        <time>2021-03-23T14:47:08Z</time>
      </trkpt>
      <trkpt lat="42.79251" lon="1.73392">
        <ele>996.819</ele>
        <time>2021-03-23T14:47:10Z</time>
      </trkpt>
      <trkpt lat="42.7925" lon="1.73391">
        <ele>996.582</ele>
        <time>2021-03-23T14:47:12Z</time>
      </trkpt>
      <trkpt lat="42.79248" lon="1.7339">
        <ele>996.04</ele>
        <time>2021-03-23T14:47:14Z</time>
      </trkpt>
      <trkpt lat="42.79246" lon="1.73388">
        <ele>996.159</ele>
        <time>2021-03-23T14:47:16Z</time>
      </trkpt>
      <trkpt lat="42.79244" lon="1.73386">
        <ele>996.212</ele>
        <time>2021-03-23T14:47:18Z</time>
      </trkpt>
      <trkpt lat="42.79243" lon="1.73385">
        <ele>995.316</ele>
        <time>2021-03-23T14:47:20Z</time>
      </trkpt>
      <trkpt lat="42.79241" lon="1.73384">
        <ele>994.229</ele>
        <time>2021-03-23T14:47:22Z</time>
      </trkpt>
      <trkpt lat="42.79239" lon="1.73382">
        <ele>992.963</ele>
        <time>2021-03-23T14:47:24Z</time>
      </trkpt>
      <trkpt lat="42.79237" lon="1.73381">
        <ele>991.864</ele>
        <time>2021-03-23T14:47:26Z</time>
      </trkpt>
      <trkpt lat="42.79236" lon="1.7338">
        <ele>990.281</ele>
        <time>2021-03-23T14:47:28Z</time>
      </trkpt>
      <trkpt lat="42.79234" lon="1.73377">
        <ele>990.584</ele>
        <time>2021-03-23T14:47:30Z</time>
      </trkpt>
      <trkpt lat="42.79232" lon="1.73375">
        <ele>990.715</ele>
        <time>2021-03-23T14:47:32Z</time>
      </trkpt>
      <trkpt lat="42.79231" lon="1.73372">
        <ele>990.263</ele>
        <time>2021-03-23T14:47:34Z</time>
      </trkpt>
      <trkpt lat="42.7923" lon="1.7337">
        <ele>989.679</ele>
        <time>2021-03-23T14:47:36Z</time>
      </trkpt>
      <trkpt lat="42.79228" lon="1.73368">
        <ele>989.225</ele>
        <time>2021-03-23T14:47:38Z</time>
      </trkpt>
      <trkpt lat="42.79226" lon="1.73366">
        <ele>988.507</ele>
        <time>2021-03-23T14:47:40Z</time>
      </trkpt>
      <trkpt lat="42.79224" lon="1.73363">
        <ele>989.723</ele>
        <time>2021-03-23T14:47:42Z</time>
      </trkpt>
      <trkpt lat="42.79222" lon="1.73361">
        <ele>990.048</ele>
        <time>2021-03-23T14:47:44Z</time>
      </trkpt>
      <trkpt lat="42.7922" lon="1.73358">
        <ele>990.431</ele>
        <time>2021-03-23T14:47:46Z</time>
      </trkpt>
      <trkpt lat="42.79218" lon="1.73356">
        <ele>991.05</ele>
        <time>2021-03-23T14:47:48Z</time>
      </trkpt>
      <trkpt lat="42.79216" lon="1.73354">
        <ele>991.966</ele>
        <time>2021-03-23T14:47:50Z</time>
      </trkpt>
      <trkpt lat="42.79214" lon="1.73352">
        <ele>992.887</ele>
        <time>2021-03-23T14:47:52Z</time>
      </trkpt>
      <trkpt lat="42.79213" lon="1.73348">
        <ele>993.176</ele>
        <time>2021-03-23T14:47:54Z</time>
      </trkpt>
      <trkpt lat="42.79211" lon="1.73345">
        <ele>993.811</ele>
        <time>2021-03-23T14:47:56Z</time>
      </trkpt>
      <trkpt lat="42.7921" lon="1.73343">
        <ele>993.236</ele>
        <time>2021-03-23T14:47:58Z</time>
      </trkpt>
      <trkpt lat="42.79208" lon="1.73341">
        <ele>993.137</ele>
        <time>2021-03-23T14:48:00Z</time>
      </trkpt>
      <trkpt lat="42.79206" lon="1.73339">
        <ele>993.246</ele>
        <time>2021-03-23T14:48:02Z</time>
      </trkpt>
      <trkpt lat="42.79205" lon="1.73336">
        <ele>991.886</ele>
        <time>2021-03-23T14:48:04Z</time>
      </trkpt>
      <trkpt lat="42.79204" lon="1.73334">
        <ele>991.622</ele>
        <time>2021-03-23T14:48:06Z</time>
      </trkpt>
      <trkpt lat="42.79202" lon="1.73332">
        <ele>990.806</ele>
        <time>2021-03-23T14:48:08Z</time>
      </trkpt>
      <trkpt lat="42.79201" lon="1.73329">
        <ele>989.514</ele>
        <time>2021-03-23T14:48:10Z</time>
      </trkpt>
      <trkpt lat="42.79201" lon="1.73326">
        <ele>988.822</ele>
        <time>2021-03-23T14:48:12Z</time>
      </trkpt>
      <trkpt lat="42.792" lon="1.73324">
        <ele>988.571</ele>
        <time>2021-03-23T14:48:14Z</time>
      </trkpt>
      <trkpt lat="42.79199" lon="1.73321">
        <ele>988.687</ele>
        <time>2021-03-23T14:48:16Z</time>
      </trkpt>
      <trkpt lat="42.79198" lon="1.73318">
        <ele>988.419</ele>
        <time>2021-03-23T14:48:18Z</time>
      </trkpt>
      <trkpt lat="42.79198" lon="1.73316">
        <ele>987.59</ele>
        <time>2021-03-23T14:48:20Z</time>
      </trkpt>
      <trkpt lat="42.79197" lon="1.73313">
        <ele>987.434</ele>
        <time>2021-03-23T14:48:22Z</time>
      </trkpt>
      <trkpt lat="42.79196" lon="1.73309">
        <ele>987.309</ele>
        <time>2021-03-23T14:48:24Z</time>
      </trkpt>
      <trkpt lat="42.79194" lon="1.73305">
        <ele>987.541</ele>
        <time>2021-03-23T14:48:26Z</time>
      </trkpt>
      <trkpt lat="42.79194" lon="1.73301">
        <ele>988.711</ele>
        <time>2021-03-23T14:48:28Z</time>
      </trkpt>
      <trkpt lat="42.79193" lon="1.73296">
        <ele>989.907</ele>
        <time>2021-03-23T14:48:30Z</time>
      </trkpt>
      <trkpt lat="42.79192" lon="1.73293">
        <ele>990.394</ele>
        <time>2021-03-23T14:48:32Z</time>
      </trkpt>
      <trkpt lat="42.79191" lon="1.7329">
        <ele>990.991</ele>
        <time>2021-03-23T14:48:34Z</time>
      </trkpt>
      <trkpt lat="42.7919" lon="1.73287">
        <ele>990.923</ele>
        <time>2021-03-23T14:48:36Z</time>
      </trkpt>
      <trkpt lat="42.79189" lon="1.73284">
        <ele>990.901</ele>
        <time>2021-03-23T14:48:38Z</time>
      </trkpt>
      <trkpt lat="42.79187" lon="1.73282">
        <ele>990.825</ele>
        <time>2021-03-23T14:48:40Z</time>
      </trkpt>
      <trkpt lat="42.79186" lon="1.7328">
        <ele>990.812</ele>
        <time>2021-03-23T14:48:42Z</time>
      </trkpt>
      <trkpt lat="42.79184" lon="1.73279">
        <ele>990.569</ele>
        <time>2021-03-23T14:48:44Z</time>
      </trkpt>
      <trkpt lat="42.79183" lon="1.73277">
        <ele>990.153</ele>
        <time>2021-03-23T14:48:46Z</time>
      </trkpt>
      <trkpt lat="42.7918" lon="1.73276">
        <ele>990.193</ele>
        <time>2021-03-23T14:48:48Z</time>
      </trkpt>
      <trkpt lat="42.79179" lon="1.73277">
        <ele>990.316</ele>
        <time>2021-03-23T14:48:50Z</time>
      </trkpt>
      <trkpt lat="42.79177" lon="1.73278">
        <ele>990.924</ele>
        <time>2021-03-23T14:48:52Z</time>
      </trkpt>
      <trkpt lat="42.79175" lon="1.73279">
        <ele>990.739</ele>
        <time>2021-03-23T14:48:54Z</time>
      </trkpt>
      <trkpt lat="42.79173" lon="1.7328">
        <ele>990.514</ele>
        <time>2021-03-23T14:48:56Z</time>
      </trkpt>
      <trkpt lat="42.7917" lon="1.7328">
        <ele>990.258</ele>
        <time>2021-03-23T14:48:58Z</time>
      </trkpt>
      <trkpt lat="42.79167" lon="1.73281">
        <ele>990.727</ele>
        <time>2021-03-23T14:49:00Z</time>
      </trkpt>
      <trkpt lat="42.79165" lon="1.7328">
        <ele>989.844</ele>
        <time>2021-03-23T14:49:02Z</time>
      </trkpt>
      <trkpt lat="42.79162" lon="1.7328">
        <ele>989.046</ele>
        <time>2021-03-23T14:49:05Z</time>
      </trkpt>
      <trkpt lat="42.79162" lon="1.73279">
        <ele>988.784</ele>
        <time>2021-03-23T14:49:07Z</time>
      </trkpt>
      <trkpt lat="42.7916" lon="1.73279">
        <ele>987.44</ele>
        <time>2021-03-23T14:49:09Z</time>
      </trkpt>
      <trkpt lat="42.7916" lon="1.73279">
        <ele>987.416</ele>
        <time>2021-03-23T14:49:11Z</time>
      </trkpt>
      <trkpt lat="42.7916" lon="1.73279">
        <ele>987.404</ele>
        <time>2021-03-23T14:49:13Z</time>
      </trkpt>
      <trkpt lat="42.7916" lon="1.73279">
        <ele>987.377</ele>
        <time>2021-03-23T14:49:15Z</time>
      </trkpt>
      <trkpt lat="42.7916" lon="1.73279">
        <ele>987.363</ele>
        <time>2021-03-23T14:49:17Z</time>
      </trkpt>
      <trkpt lat="42.7916" lon="1.73279">
        <ele>987.224</ele>
        <time>2021-03-23T14:49:19Z</time>
      </trkpt>
      <trkpt lat="42.7916" lon="1.73279">
        <ele>987.213</ele>
        <time>2021-03-23T14:49:21Z</time>
      </trkpt>
      <trkpt lat="42.7916" lon="1.73279">
        <ele>987.203</ele>
        <time>2021-03-23T14:49:23Z</time>
      </trkpt>
      <trkpt lat="42.7916" lon="1.73279">
        <ele>987.213</ele>
        <time>2021-03-23T14:49:25Z</time>
      </trkpt>
      <trkpt lat="42.7916" lon="1.73279">
        <ele>987.207</ele>
        <time>2021-03-23T14:49:27Z</time>
      </trkpt>
      <trkpt lat="42.7916" lon="1.73279">
        <ele>987.196</ele>
        <time>2021-03-23T14:49:29Z</time>
      </trkpt>
      <trkpt lat="42.7916" lon="1.73279">
        <ele>987.194</ele>
        <time>2021-03-23T14:49:31Z</time>
      </trkpt>
      <trkpt lat="42.7916" lon="1.73279">
        <ele>987.179</ele>
        <time>2021-03-23T14:49:33Z</time>
      </trkpt>
      <trkpt lat="42.7916" lon="1.7328">
        <ele>986.568</ele>
        <time>2021-03-23T14:49:35Z</time>
      </trkpt>
      <trkpt lat="42.7916" lon="1.7328">
        <ele>986.542</ele>
        <time>2021-03-23T14:49:37Z</time>
      </trkpt>
      <trkpt lat="42.7916" lon="1.7328">
        <ele>986.535</ele>
        <time>2021-03-23T14:49:39Z</time>
      </trkpt>
      <trkpt lat="42.7916" lon="1.7328">
        <ele>986.536</ele>
        <time>2021-03-23T14:49:41Z</time>
      </trkpt>
      <trkpt lat="42.7916" lon="1.7328">
        <ele>986.54</ele>
        <time>2021-03-23T14:49:43Z</time>
      </trkpt>
      <trkpt lat="42.7916" lon="1.7328">
        <ele>986.542</ele>
        <time>2021-03-23T14:49:45Z</time>
      </trkpt>
      <trkpt lat="42.7916" lon="1.7328">
        <ele>986.771</ele>
        <time>2021-03-23T14:49:47Z</time>
      </trkpt>
      <trkpt lat="42.7916" lon="1.7328">
        <ele>986.764</ele>
        <time>2021-03-23T14:49:49Z</time>
      </trkpt>
      <trkpt lat="42.7916" lon="1.7328">
        <ele>986.441</ele>
        <time>2021-03-23T14:49:51Z</time>
      </trkpt>
      <trkpt lat="42.7916" lon="1.7328">
        <ele>986.435</ele>
        <time>2021-03-23T14:49:53Z</time>
      </trkpt>
      <trkpt lat="42.7916" lon="1.7328">
        <ele>986.438</ele>
        <time>2021-03-23T14:49:55Z</time>
      </trkpt>
      <trkpt lat="42.7916" lon="1.7328">
        <ele>986.432</ele>
        <time>2021-03-23T14:49:57Z</time>
      </trkpt>
      <trkpt lat="42.7916" lon="1.7328">
        <ele>986.696</ele>
        <time>2021-03-23T14:49:59Z</time>
      </trkpt>
      <trkpt lat="42.7916" lon="1.7328">
        <ele>987.193</ele>
        <time>2021-03-23T14:50:01Z</time>
      </trkpt>
      <trkpt lat="42.7916" lon="1.7328">
        <ele>987.292</ele>
        <time>2021-03-23T14:50:03Z</time>
      </trkpt>
      <trkpt lat="42.79161" lon="1.7328">
        <ele>987.189</ele>
        <time>2021-03-23T14:50:05Z</time>
      </trkpt>
      <trkpt lat="42.79161" lon="1.7328">
        <ele>987.186</ele>
        <time>2021-03-23T14:50:07Z</time>
      </trkpt>
      <trkpt lat="42.79161" lon="1.7328">
        <ele>987.181</ele>
        <time>2021-03-23T14:50:09Z</time>
      </trkpt>
      <trkpt lat="42.79161" lon="1.7328">
        <ele>987.182</ele>
        <time>2021-03-23T14:50:11Z</time>
      </trkpt>
      <trkpt lat="42.79161" lon="1.7328">
        <ele>987.183</ele>
        <time>2021-03-23T14:50:13Z</time>
      </trkpt>
      <trkpt lat="42.79161" lon="1.7328">
        <ele>987.186</ele>
        <time>2021-03-23T14:50:15Z</time>
      </trkpt>
      <trkpt lat="42.79161" lon="1.7328">
        <ele>987.081</ele>
        <time>2021-03-23T14:50:17Z</time>
      </trkpt>
      <trkpt lat="42.79161" lon="1.73281">
        <ele>987.522</ele>
        <time>2021-03-23T14:50:19Z</time>
      </trkpt>
      <trkpt lat="42.79161" lon="1.73281">
        <ele>986.951</ele>
        <time>2021-03-23T14:50:21Z</time>
      </trkpt>
      <trkpt lat="42.79161" lon="1.73281">
        <ele>986.951</ele>
        <time>2021-03-23T14:50:23Z</time>
      </trkpt>
      <trkpt lat="42.7916" lon="1.73281">
        <ele>986.937</ele>
        <time>2021-03-23T14:50:25Z</time>
      </trkpt>
      <trkpt lat="42.7916" lon="1.73281">
        <ele>986.916</ele>
        <time>2021-03-23T14:50:27Z</time>
      </trkpt>
      <trkpt lat="42.79161" lon="1.73281">
        <ele>986.611</ele>
        <time>2021-03-23T14:50:29Z</time>
      </trkpt>
      <trkpt lat="42.79161" lon="1.73281">
        <ele>986.602</ele>
        <time>2021-03-23T14:50:31Z</time>
      </trkpt>
      <trkpt lat="42.79161" lon="1.73281">
        <ele>986.6</ele>
        <time>2021-03-23T14:50:33Z</time>
      </trkpt>
      <trkpt lat="42.79161" lon="1.73281">
        <ele>986.593</ele>
        <time>2021-03-23T14:50:35Z</time>
      </trkpt>
    </trkseg>
  </trk>
</gpx>